<?xml version="1.0" encoding="UTF-8" standalone="no" ?>
<gpx xmlns="http://www.topografix.com/GPX/1/1" xmlns:xsi="http://www.w3.org/2001/XMLSchema-instance" xsi:schemaLocation="http://www.topografix.com/GPX/1/1 http://www.topografix.com/GPX/1/1/gpx.xsd" version="1.1" creator="VisuGPX - https://www.visugpx.com">
  <metadata>
    <name>Gallerie des glaces</name>
    <desc><![CDATA[Rando des glaces _____________]]></desc>
  </metadata>
  <wpt lat="47.4915" lon="6.76812">
    <ele>352.5</ele>
    <name><![CDATA[Point de cheminement 1]]></name>
    <desc><![CDATA[]]></desc>
  </wpt>
  <wpt lat="47.48508" lon="6.80665">
    <ele>365.9</ele>
    <name><![CDATA[Point de cheminement 2]]></name>
    <desc><![CDATA[]]></desc>
  </wpt>
  <wpt lat="47.46165" lon="6.8118">
    <ele>443.1</ele>
    <name><![CDATA[Point de cheminement 3]]></name>
    <desc><![CDATA[]]></desc>
  </wpt>
  <wpt lat="47.47713" lon="6.7809">
    <ele>370.3</ele>
    <name><![CDATA[Point de cheminement 4]]></name>
    <desc><![CDATA[]]></desc>
  </wpt>
  <wpt lat="47.50649" lon="6.77532">
    <ele>355.8</ele>
    <name><![CDATA[Point de cheminement 5]]></name>
    <desc><![CDATA[]]></desc>
  </wpt>
  <trk>
    <name><![CDATA[18]]></name>
    <desc><![CDATA[]]></desc>
    <trkseg>
      <trkpt lat="47.51811" lon="6.77479">
        <ele>429.1</ele>
        <time>2017-12-10T08:10:13.538Z</time>
      </trkpt>
      <trkpt lat="47.51812" lon="6.77478">
        <ele>449.5</ele>
        <time>2017-12-10T08:11:02.000Z</time>
      </trkpt>
      <trkpt lat="47.51807" lon="6.7748">
        <ele>449.3</ele>
        <time>2017-12-10T08:11:03.000Z</time>
      </trkpt>
      <trkpt lat="47.51807" lon="6.7748">
        <ele>444.8</ele>
        <time>2017-12-10T08:11:35.000Z</time>
      </trkpt>
      <trkpt lat="47.51797" lon="6.77492">
        <ele>444.7</ele>
        <time>2017-12-10T08:11:36.000Z</time>
      </trkpt>
      <trkpt lat="47.51794" lon="6.77491">
        <ele>444.5</ele>
        <time>2017-12-10T08:11:37.000Z</time>
      </trkpt>
      <trkpt lat="47.51791" lon="6.7749">
        <ele>444.4</ele>
        <time>2017-12-10T08:11:38.000Z</time>
      </trkpt>
      <trkpt lat="47.51788" lon="6.77489">
        <ele>444.2</ele>
        <time>2017-12-10T08:11:39.000Z</time>
      </trkpt>
      <trkpt lat="47.51786" lon="6.77488">
        <ele>444.1</ele>
        <time>2017-12-10T08:11:40.000Z</time>
      </trkpt>
      <trkpt lat="47.51783" lon="6.77487">
        <ele>443.9</ele>
        <time>2017-12-10T08:11:41.000Z</time>
      </trkpt>
      <trkpt lat="47.5178" lon="6.77486">
        <ele>443.8</ele>
        <time>2017-12-10T08:11:42.000Z</time>
      </trkpt>
      <trkpt lat="47.51778" lon="6.77485">
        <ele>443.7</ele>
        <time>2017-12-10T08:11:43.000Z</time>
      </trkpt>
      <trkpt lat="47.51774" lon="6.77484">
        <ele>443.5</ele>
        <time>2017-12-10T08:11:44.000Z</time>
      </trkpt>
      <trkpt lat="47.51771" lon="6.77484">
        <ele>443.3</ele>
        <time>2017-12-10T08:11:45.000Z</time>
      </trkpt>
      <trkpt lat="47.51767" lon="6.77484">
        <ele>443.2</ele>
        <time>2017-12-10T08:11:46.000Z</time>
      </trkpt>
      <trkpt lat="47.51763" lon="6.77484">
        <ele>443.1</ele>
        <time>2017-12-10T08:11:47.000Z</time>
      </trkpt>
      <trkpt lat="47.51759" lon="6.77484">
        <ele>442.9</ele>
        <time>2017-12-10T08:11:48.000Z</time>
      </trkpt>
      <trkpt lat="47.51755" lon="6.77483">
        <ele>442.8</ele>
        <time>2017-12-10T08:11:49.000Z</time>
      </trkpt>
      <trkpt lat="47.51752" lon="6.77483">
        <ele>442.7</ele>
        <time>2017-12-10T08:11:50.000Z</time>
      </trkpt>
      <trkpt lat="47.51749" lon="6.77483">
        <ele>442.6</ele>
        <time>2017-12-10T08:11:51.000Z</time>
      </trkpt>
      <trkpt lat="47.51745" lon="6.77482">
        <ele>442.5</ele>
        <time>2017-12-10T08:11:52.000Z</time>
      </trkpt>
      <trkpt lat="47.51742" lon="6.77482">
        <ele>442.4</ele>
        <time>2017-12-10T08:11:53.000Z</time>
      </trkpt>
      <trkpt lat="47.51739" lon="6.77482">
        <ele>442.2</ele>
        <time>2017-12-10T08:11:54.000Z</time>
      </trkpt>
      <trkpt lat="47.51736" lon="6.77482">
        <ele>442.2</ele>
        <time>2017-12-10T08:11:55.000Z</time>
      </trkpt>
      <trkpt lat="47.51733" lon="6.77483">
        <ele>442.1</ele>
        <time>2017-12-10T08:11:56.000Z</time>
      </trkpt>
      <trkpt lat="47.51731" lon="6.77485">
        <ele>441.9</ele>
        <time>2017-12-10T08:11:57.000Z</time>
      </trkpt>
      <trkpt lat="47.51729" lon="6.77489">
        <ele>440.4</ele>
        <time>2017-12-10T08:11:58.000Z</time>
      </trkpt>
      <trkpt lat="47.51728" lon="6.77493">
        <ele>440.3</ele>
        <time>2017-12-10T08:11:59.000Z</time>
      </trkpt>
      <trkpt lat="47.51727" lon="6.77497">
        <ele>440.2</ele>
        <time>2017-12-10T08:12:00.000Z</time>
      </trkpt>
      <trkpt lat="47.51726" lon="6.77503">
        <ele>438.9</ele>
        <time>2017-12-10T08:12:01.000Z</time>
      </trkpt>
      <trkpt lat="47.51724" lon="6.77508">
        <ele>438.8</ele>
        <time>2017-12-10T08:12:02.000Z</time>
      </trkpt>
      <trkpt lat="47.51723" lon="6.77514">
        <ele>437.8</ele>
        <time>2017-12-10T08:12:03.000Z</time>
      </trkpt>
      <trkpt lat="47.51721" lon="6.7752">
        <ele>437.1</ele>
        <time>2017-12-10T08:12:04.000Z</time>
      </trkpt>
      <trkpt lat="47.5172" lon="6.77526">
        <ele>436.4</ele>
        <time>2017-12-10T08:12:05.000Z</time>
      </trkpt>
      <trkpt lat="47.51719" lon="6.77532">
        <ele>435.9</ele>
        <time>2017-12-10T08:12:06.000Z</time>
      </trkpt>
      <trkpt lat="47.51718" lon="6.77538">
        <ele>435.8</ele>
        <time>2017-12-10T08:12:07.000Z</time>
      </trkpt>
      <trkpt lat="47.51717" lon="6.77543">
        <ele>435.7</ele>
        <time>2017-12-10T08:12:08.000Z</time>
      </trkpt>
      <trkpt lat="47.51715" lon="6.77547">
        <ele>435.6</ele>
        <time>2017-12-10T08:12:09.000Z</time>
      </trkpt>
      <trkpt lat="47.51713" lon="6.77549">
        <ele>434.5</ele>
        <time>2017-12-10T08:12:10.000Z</time>
      </trkpt>
      <trkpt lat="47.5171" lon="6.77549">
        <ele>433.8</ele>
        <time>2017-12-10T08:12:11.000Z</time>
      </trkpt>
      <trkpt lat="47.51707" lon="6.77547">
        <ele>433.8</ele>
        <time>2017-12-10T08:12:12.000Z</time>
      </trkpt>
      <trkpt lat="47.51704" lon="6.77545">
        <ele>433.3</ele>
        <time>2017-12-10T08:12:13.000Z</time>
      </trkpt>
      <trkpt lat="47.51701" lon="6.77541">
        <ele>432.9</ele>
        <time>2017-12-10T08:12:14.000Z</time>
      </trkpt>
      <trkpt lat="47.51698" lon="6.77537">
        <ele>432.2</ele>
        <time>2017-12-10T08:12:15.000Z</time>
      </trkpt>
      <trkpt lat="47.51694" lon="6.77534">
        <ele>432.3</ele>
        <time>2017-12-10T08:12:16.000Z</time>
      </trkpt>
      <trkpt lat="47.5169" lon="6.7753">
        <ele>432.4</ele>
        <time>2017-12-10T08:12:17.000Z</time>
      </trkpt>
      <trkpt lat="47.51687" lon="6.77527">
        <ele>432.8</ele>
        <time>2017-12-10T08:12:18.000Z</time>
      </trkpt>
      <trkpt lat="47.51683" lon="6.77524">
        <ele>433.5</ele>
        <time>2017-12-10T08:12:19.000Z</time>
      </trkpt>
      <trkpt lat="47.51679" lon="6.7752">
        <ele>433.5</ele>
        <time>2017-12-10T08:12:20.000Z</time>
      </trkpt>
      <trkpt lat="47.51676" lon="6.77517">
        <ele>433.7</ele>
        <time>2017-12-10T08:12:21.000Z</time>
      </trkpt>
      <trkpt lat="47.51671" lon="6.77512">
        <ele>433.2</ele>
        <time>2017-12-10T08:12:22.000Z</time>
      </trkpt>
      <trkpt lat="47.51666" lon="6.77507">
        <ele>432.6</ele>
        <time>2017-12-10T08:12:23.000Z</time>
      </trkpt>
      <trkpt lat="47.51661" lon="6.77501">
        <ele>431.7</ele>
        <time>2017-12-10T08:12:24.000Z</time>
      </trkpt>
      <trkpt lat="47.51656" lon="6.77496">
        <ele>431.6</ele>
        <time>2017-12-10T08:12:25.000Z</time>
      </trkpt>
      <trkpt lat="47.51651" lon="6.7749">
        <ele>431.8</ele>
        <time>2017-12-10T08:12:26.000Z</time>
      </trkpt>
      <trkpt lat="47.51647" lon="6.77484">
        <ele>431.8</ele>
        <time>2017-12-10T08:12:27.000Z</time>
      </trkpt>
      <trkpt lat="47.51642" lon="6.7748">
        <ele>431.5</ele>
        <time>2017-12-10T08:12:28.000Z</time>
      </trkpt>
      <trkpt lat="47.51637" lon="6.77475">
        <ele>431</ele>
        <time>2017-12-10T08:12:29.000Z</time>
      </trkpt>
      <trkpt lat="47.51632" lon="6.77469">
        <ele>430.3</ele>
        <time>2017-12-10T08:12:30.000Z</time>
      </trkpt>
      <trkpt lat="47.51627" lon="6.77464">
        <ele>430.6</ele>
        <time>2017-12-10T08:12:31.000Z</time>
      </trkpt>
      <trkpt lat="47.51623" lon="6.7746">
        <ele>431.2</ele>
        <time>2017-12-10T08:12:32.000Z</time>
      </trkpt>
      <trkpt lat="47.51619" lon="6.77454">
        <ele>431.6</ele>
        <time>2017-12-10T08:12:33.000Z</time>
      </trkpt>
      <trkpt lat="47.51614" lon="6.77448">
        <ele>432</ele>
        <time>2017-12-10T08:12:34.000Z</time>
      </trkpt>
      <trkpt lat="47.51609" lon="6.77442">
        <ele>432.6</ele>
        <time>2017-12-10T08:12:35.000Z</time>
      </trkpt>
      <trkpt lat="47.51603" lon="6.77434">
        <ele>433</ele>
        <time>2017-12-10T08:12:36.000Z</time>
      </trkpt>
      <trkpt lat="47.51597" lon="6.77427">
        <ele>433.6</ele>
        <time>2017-12-10T08:12:37.000Z</time>
      </trkpt>
      <trkpt lat="47.51591" lon="6.7742">
        <ele>434.1</ele>
        <time>2017-12-10T08:12:38.000Z</time>
      </trkpt>
      <trkpt lat="47.51586" lon="6.77413">
        <ele>434.3</ele>
        <time>2017-12-10T08:12:39.000Z</time>
      </trkpt>
      <trkpt lat="47.5158" lon="6.77406">
        <ele>434.5</ele>
        <time>2017-12-10T08:12:40.000Z</time>
      </trkpt>
      <trkpt lat="47.51574" lon="6.77399">
        <ele>434.2</ele>
        <time>2017-12-10T08:12:41.000Z</time>
      </trkpt>
      <trkpt lat="47.51568" lon="6.77392">
        <ele>434</ele>
        <time>2017-12-10T08:12:42.000Z</time>
      </trkpt>
      <trkpt lat="47.51562" lon="6.77385">
        <ele>434</ele>
        <time>2017-12-10T08:12:43.000Z</time>
      </trkpt>
      <trkpt lat="47.51556" lon="6.77378">
        <ele>433.7</ele>
        <time>2017-12-10T08:12:44.000Z</time>
      </trkpt>
      <trkpt lat="47.51551" lon="6.77371">
        <ele>433.5</ele>
        <time>2017-12-10T08:12:45.000Z</time>
      </trkpt>
      <trkpt lat="47.51545" lon="6.77364">
        <ele>433.3</ele>
        <time>2017-12-10T08:12:46.000Z</time>
      </trkpt>
      <trkpt lat="47.51539" lon="6.77358">
        <ele>432.9</ele>
        <time>2017-12-10T08:12:47.000Z</time>
      </trkpt>
      <trkpt lat="47.51534" lon="6.77351">
        <ele>431.5</ele>
        <time>2017-12-10T08:12:48.000Z</time>
      </trkpt>
      <trkpt lat="47.51528" lon="6.77344">
        <ele>429.9</ele>
        <time>2017-12-10T08:12:49.000Z</time>
      </trkpt>
      <trkpt lat="47.51523" lon="6.77338">
        <ele>428.5</ele>
        <time>2017-12-10T08:12:50.000Z</time>
      </trkpt>
      <trkpt lat="47.51518" lon="6.77331">
        <ele>427.5</ele>
        <time>2017-12-10T08:12:51.000Z</time>
      </trkpt>
      <trkpt lat="47.51512" lon="6.77324">
        <ele>426.9</ele>
        <time>2017-12-10T08:12:52.000Z</time>
      </trkpt>
      <trkpt lat="47.51507" lon="6.77318">
        <ele>426</ele>
        <time>2017-12-10T08:12:53.000Z</time>
      </trkpt>
      <trkpt lat="47.51501" lon="6.7731">
        <ele>425.4</ele>
        <time>2017-12-10T08:12:54.000Z</time>
      </trkpt>
      <trkpt lat="47.51497" lon="6.77301">
        <ele>425.2</ele>
        <time>2017-12-10T08:12:55.000Z</time>
      </trkpt>
      <trkpt lat="47.51493" lon="6.7729">
        <ele>424.9</ele>
        <time>2017-12-10T08:12:56.000Z</time>
      </trkpt>
      <trkpt lat="47.51491" lon="6.7728">
        <ele>424.9</ele>
        <time>2017-12-10T08:12:57.000Z</time>
      </trkpt>
      <trkpt lat="47.51488" lon="6.77269">
        <ele>425.2</ele>
        <time>2017-12-10T08:12:58.000Z</time>
      </trkpt>
      <trkpt lat="47.51487" lon="6.77259">
        <ele>425.3</ele>
        <time>2017-12-10T08:12:59.000Z</time>
      </trkpt>
      <trkpt lat="47.51485" lon="6.77249">
        <ele>425.4</ele>
        <time>2017-12-10T08:13:00.000Z</time>
      </trkpt>
      <trkpt lat="47.51484" lon="6.7724">
        <ele>425.1</ele>
        <time>2017-12-10T08:13:01.000Z</time>
      </trkpt>
      <trkpt lat="47.51484" lon="6.77233">
        <ele>424.8</ele>
        <time>2017-12-10T08:13:02.000Z</time>
      </trkpt>
      <trkpt lat="47.51484" lon="6.77226">
        <ele>424.5</ele>
        <time>2017-12-10T08:13:03.000Z</time>
      </trkpt>
      <trkpt lat="47.51483" lon="6.77219">
        <ele>424.2</ele>
        <time>2017-12-10T08:13:04.000Z</time>
      </trkpt>
      <trkpt lat="47.51483" lon="6.77214">
        <ele>424.1</ele>
        <time>2017-12-10T08:13:05.000Z</time>
      </trkpt>
      <trkpt lat="47.51481" lon="6.77209">
        <ele>423.8</ele>
        <time>2017-12-10T08:13:06.000Z</time>
      </trkpt>
      <trkpt lat="47.51479" lon="6.77206">
        <ele>423.5</ele>
        <time>2017-12-10T08:13:07.000Z</time>
      </trkpt>
      <trkpt lat="47.51475" lon="6.77203">
        <ele>423.2</ele>
        <time>2017-12-10T08:13:08.000Z</time>
      </trkpt>
      <trkpt lat="47.51471" lon="6.77201">
        <ele>422.9</ele>
        <time>2017-12-10T08:13:09.000Z</time>
      </trkpt>
      <trkpt lat="47.51466" lon="6.772">
        <ele>422.5</ele>
        <time>2017-12-10T08:13:10.000Z</time>
      </trkpt>
      <trkpt lat="47.5146" lon="6.77203">
        <ele>422.2</ele>
        <time>2017-12-10T08:13:11.000Z</time>
      </trkpt>
      <trkpt lat="47.51454" lon="6.77206">
        <ele>422.3</ele>
        <time>2017-12-10T08:13:12.000Z</time>
      </trkpt>
      <trkpt lat="47.51448" lon="6.77209">
        <ele>421.8</ele>
        <time>2017-12-10T08:13:13.000Z</time>
      </trkpt>
      <trkpt lat="47.51441" lon="6.77212">
        <ele>421.7</ele>
        <time>2017-12-10T08:13:14.000Z</time>
      </trkpt>
      <trkpt lat="47.51434" lon="6.77215">
        <ele>421.3</ele>
        <time>2017-12-10T08:13:15.000Z</time>
      </trkpt>
      <trkpt lat="47.51428" lon="6.77218">
        <ele>421.1</ele>
        <time>2017-12-10T08:13:16.000Z</time>
      </trkpt>
      <trkpt lat="47.51422" lon="6.77221">
        <ele>421.3</ele>
        <time>2017-12-10T08:13:17.000Z</time>
      </trkpt>
      <trkpt lat="47.51417" lon="6.77224">
        <ele>421.3</ele>
        <time>2017-12-10T08:13:18.000Z</time>
      </trkpt>
      <trkpt lat="47.51411" lon="6.77226">
        <ele>420.7</ele>
        <time>2017-12-10T08:13:19.000Z</time>
      </trkpt>
      <trkpt lat="47.51407" lon="6.77228">
        <ele>420.1</ele>
        <time>2017-12-10T08:13:20.000Z</time>
      </trkpt>
      <trkpt lat="47.51402" lon="6.77231">
        <ele>419.8</ele>
        <time>2017-12-10T08:13:21.000Z</time>
      </trkpt>
      <trkpt lat="47.51398" lon="6.77233">
        <ele>419</ele>
        <time>2017-12-10T08:13:22.000Z</time>
      </trkpt>
      <trkpt lat="47.51395" lon="6.77236">
        <ele>418.5</ele>
        <time>2017-12-10T08:13:23.000Z</time>
      </trkpt>
      <trkpt lat="47.51392" lon="6.77239">
        <ele>418.5</ele>
        <time>2017-12-10T08:13:24.000Z</time>
      </trkpt>
      <trkpt lat="47.51388" lon="6.77242">
        <ele>418.4</ele>
        <time>2017-12-10T08:13:25.000Z</time>
      </trkpt>
      <trkpt lat="47.51383" lon="6.77245">
        <ele>418.2</ele>
        <time>2017-12-10T08:13:26.000Z</time>
      </trkpt>
      <trkpt lat="47.51379" lon="6.77248">
        <ele>418.6</ele>
        <time>2017-12-10T08:13:27.000Z</time>
      </trkpt>
      <trkpt lat="47.51376" lon="6.77251">
        <ele>419.5</ele>
        <time>2017-12-10T08:13:28.000Z</time>
      </trkpt>
      <trkpt lat="47.51372" lon="6.77254">
        <ele>419.5</ele>
        <time>2017-12-10T08:13:29.000Z</time>
      </trkpt>
      <trkpt lat="47.51368" lon="6.77257">
        <ele>419.6</ele>
        <time>2017-12-10T08:13:30.000Z</time>
      </trkpt>
      <trkpt lat="47.51364" lon="6.77259">
        <ele>419.6</ele>
        <time>2017-12-10T08:13:31.000Z</time>
      </trkpt>
      <trkpt lat="47.51361" lon="6.77262">
        <ele>419.6</ele>
        <time>2017-12-10T08:13:32.000Z</time>
      </trkpt>
      <trkpt lat="47.51358" lon="6.77265">
        <ele>419.6</ele>
        <time>2017-12-10T08:13:33.000Z</time>
      </trkpt>
      <trkpt lat="47.51355" lon="6.77268">
        <ele>419.6</ele>
        <time>2017-12-10T08:13:34.000Z</time>
      </trkpt>
      <trkpt lat="47.51352" lon="6.7727">
        <ele>419.7</ele>
        <time>2017-12-10T08:13:35.000Z</time>
      </trkpt>
      <trkpt lat="47.5135" lon="6.77272">
        <ele>419.7</ele>
        <time>2017-12-10T08:13:36.000Z</time>
      </trkpt>
      <trkpt lat="47.51348" lon="6.77273">
        <ele>419.7</ele>
        <time>2017-12-10T08:13:37.000Z</time>
      </trkpt>
      <trkpt lat="47.51344" lon="6.77276">
        <ele>419.8</ele>
        <time>2017-12-10T08:13:39.000Z</time>
      </trkpt>
      <trkpt lat="47.51341" lon="6.77278">
        <ele>419.9</ele>
        <time>2017-12-10T08:13:40.000Z</time>
      </trkpt>
      <trkpt lat="47.51338" lon="6.7728">
        <ele>420</ele>
        <time>2017-12-10T08:13:41.000Z</time>
      </trkpt>
      <trkpt lat="47.51335" lon="6.77282">
        <ele>420.1</ele>
        <time>2017-12-10T08:13:42.000Z</time>
      </trkpt>
      <trkpt lat="47.51332" lon="6.77283">
        <ele>420.2</ele>
        <time>2017-12-10T08:13:43.000Z</time>
      </trkpt>
      <trkpt lat="47.51327" lon="6.77285">
        <ele>421.7</ele>
        <time>2017-12-10T08:13:44.000Z</time>
      </trkpt>
      <trkpt lat="47.51323" lon="6.77286">
        <ele>421.8</ele>
        <time>2017-12-10T08:13:45.000Z</time>
      </trkpt>
      <trkpt lat="47.51319" lon="6.77286">
        <ele>421.9</ele>
        <time>2017-12-10T08:13:46.000Z</time>
      </trkpt>
      <trkpt lat="47.51317" lon="6.77288">
        <ele>422</ele>
        <time>2017-12-10T08:13:47.000Z</time>
      </trkpt>
      <trkpt lat="47.51315" lon="6.77288">
        <ele>422.2</ele>
        <time>2017-12-10T08:13:48.000Z</time>
      </trkpt>
      <trkpt lat="47.51312" lon="6.77286">
        <ele>422.5</ele>
        <time>2017-12-10T08:13:49.000Z</time>
      </trkpt>
      <trkpt lat="47.51309" lon="6.77284">
        <ele>422.7</ele>
        <time>2017-12-10T08:13:50.000Z</time>
      </trkpt>
      <trkpt lat="47.51306" lon="6.77282">
        <ele>422.9</ele>
        <time>2017-12-10T08:13:51.000Z</time>
      </trkpt>
      <trkpt lat="47.51303" lon="6.77281">
        <ele>423</ele>
        <time>2017-12-10T08:13:52.000Z</time>
      </trkpt>
      <trkpt lat="47.51299" lon="6.77279">
        <ele>423.2</ele>
        <time>2017-12-10T08:13:53.000Z</time>
      </trkpt>
      <trkpt lat="47.51295" lon="6.77276">
        <ele>423.5</ele>
        <time>2017-12-10T08:13:54.000Z</time>
      </trkpt>
      <trkpt lat="47.51292" lon="6.77274">
        <ele>423.7</ele>
        <time>2017-12-10T08:13:55.000Z</time>
      </trkpt>
      <trkpt lat="47.51289" lon="6.77272">
        <ele>424</ele>
        <time>2017-12-10T08:13:56.000Z</time>
      </trkpt>
      <trkpt lat="47.51285" lon="6.7727">
        <ele>424.2</ele>
        <time>2017-12-10T08:13:57.000Z</time>
      </trkpt>
      <trkpt lat="47.51281" lon="6.77267">
        <ele>426.1</ele>
        <time>2017-12-10T08:13:58.000Z</time>
      </trkpt>
      <trkpt lat="47.51277" lon="6.77263">
        <ele>427.4</ele>
        <time>2017-12-10T08:13:59.000Z</time>
      </trkpt>
      <trkpt lat="47.51274" lon="6.77261">
        <ele>428.4</ele>
        <time>2017-12-10T08:14:00.000Z</time>
      </trkpt>
      <trkpt lat="47.5127" lon="6.77257">
        <ele>428.9</ele>
        <time>2017-12-10T08:14:01.000Z</time>
      </trkpt>
      <trkpt lat="47.51266" lon="6.77253">
        <ele>429.7</ele>
        <time>2017-12-10T08:14:02.000Z</time>
      </trkpt>
      <trkpt lat="47.51262" lon="6.77248">
        <ele>429.8</ele>
        <time>2017-12-10T08:14:03.000Z</time>
      </trkpt>
      <trkpt lat="47.51259" lon="6.77243">
        <ele>430.1</ele>
        <time>2017-12-10T08:14:04.000Z</time>
      </trkpt>
      <trkpt lat="47.51256" lon="6.77238">
        <ele>429.9</ele>
        <time>2017-12-10T08:14:05.000Z</time>
      </trkpt>
      <trkpt lat="47.51253" lon="6.77232">
        <ele>429.9</ele>
        <time>2017-12-10T08:14:06.000Z</time>
      </trkpt>
      <trkpt lat="47.51249" lon="6.77226">
        <ele>429.3</ele>
        <time>2017-12-10T08:14:07.000Z</time>
      </trkpt>
      <trkpt lat="47.51246" lon="6.7722">
        <ele>428.9</ele>
        <time>2017-12-10T08:14:08.000Z</time>
      </trkpt>
      <trkpt lat="47.51243" lon="6.77213">
        <ele>429.2</ele>
        <time>2017-12-10T08:14:09.000Z</time>
      </trkpt>
      <trkpt lat="47.51239" lon="6.77206">
        <ele>430</ele>
        <time>2017-12-10T08:14:10.000Z</time>
      </trkpt>
      <trkpt lat="47.51236" lon="6.772">
        <ele>430.6</ele>
        <time>2017-12-10T08:14:11.000Z</time>
      </trkpt>
      <trkpt lat="47.51233" lon="6.77193">
        <ele>431.1</ele>
        <time>2017-12-10T08:14:12.000Z</time>
      </trkpt>
      <trkpt lat="47.5123" lon="6.77187">
        <ele>431.9</ele>
        <time>2017-12-10T08:14:13.000Z</time>
      </trkpt>
      <trkpt lat="47.51227" lon="6.7718">
        <ele>432.6</ele>
        <time>2017-12-10T08:14:14.000Z</time>
      </trkpt>
      <trkpt lat="47.51223" lon="6.77173">
        <ele>433.1</ele>
        <time>2017-12-10T08:14:15.000Z</time>
      </trkpt>
      <trkpt lat="47.5122" lon="6.77167">
        <ele>433.1</ele>
        <time>2017-12-10T08:14:16.000Z</time>
      </trkpt>
      <trkpt lat="47.51216" lon="6.7716">
        <ele>433.1</ele>
        <time>2017-12-10T08:14:17.000Z</time>
      </trkpt>
      <trkpt lat="47.51213" lon="6.77153">
        <ele>433.1</ele>
        <time>2017-12-10T08:14:18.000Z</time>
      </trkpt>
      <trkpt lat="47.51209" lon="6.77146">
        <ele>432.2</ele>
        <time>2017-12-10T08:14:19.000Z</time>
      </trkpt>
      <trkpt lat="47.51205" lon="6.77138">
        <ele>431.2</ele>
        <time>2017-12-10T08:14:20.000Z</time>
      </trkpt>
      <trkpt lat="47.51201" lon="6.7713">
        <ele>430.2</ele>
        <time>2017-12-10T08:14:21.000Z</time>
      </trkpt>
      <trkpt lat="47.51197" lon="6.77123">
        <ele>429.8</ele>
        <time>2017-12-10T08:14:22.000Z</time>
      </trkpt>
      <trkpt lat="47.51194" lon="6.77116">
        <ele>429.5</ele>
        <time>2017-12-10T08:14:23.000Z</time>
      </trkpt>
      <trkpt lat="47.5119" lon="6.77109">
        <ele>428.5</ele>
        <time>2017-12-10T08:14:24.000Z</time>
      </trkpt>
      <trkpt lat="47.51186" lon="6.77102">
        <ele>427.5</ele>
        <time>2017-12-10T08:14:25.000Z</time>
      </trkpt>
      <trkpt lat="47.51183" lon="6.77095">
        <ele>426.5</ele>
        <time>2017-12-10T08:14:26.000Z</time>
      </trkpt>
      <trkpt lat="47.51178" lon="6.77087">
        <ele>426.1</ele>
        <time>2017-12-10T08:14:27.000Z</time>
      </trkpt>
      <trkpt lat="47.51174" lon="6.7708">
        <ele>425.8</ele>
        <time>2017-12-10T08:14:28.000Z</time>
      </trkpt>
      <trkpt lat="47.51169" lon="6.77073">
        <ele>425.3</ele>
        <time>2017-12-10T08:14:29.000Z</time>
      </trkpt>
      <trkpt lat="47.51164" lon="6.77065">
        <ele>425.3</ele>
        <time>2017-12-10T08:14:30.000Z</time>
      </trkpt>
      <trkpt lat="47.5116" lon="6.77059">
        <ele>425.6</ele>
        <time>2017-12-10T08:14:31.000Z</time>
      </trkpt>
      <trkpt lat="47.51155" lon="6.77054">
        <ele>426</ele>
        <time>2017-12-10T08:14:32.000Z</time>
      </trkpt>
      <trkpt lat="47.5115" lon="6.77049">
        <ele>425.8</ele>
        <time>2017-12-10T08:14:33.000Z</time>
      </trkpt>
      <trkpt lat="47.51145" lon="6.77044">
        <ele>425.5</ele>
        <time>2017-12-10T08:14:34.000Z</time>
      </trkpt>
      <trkpt lat="47.5114" lon="6.77039">
        <ele>424.9</ele>
        <time>2017-12-10T08:14:35.000Z</time>
      </trkpt>
      <trkpt lat="47.51135" lon="6.77034">
        <ele>424.2</ele>
        <time>2017-12-10T08:14:36.000Z</time>
      </trkpt>
      <trkpt lat="47.5113" lon="6.7703">
        <ele>424.3</ele>
        <time>2017-12-10T08:14:37.000Z</time>
      </trkpt>
      <trkpt lat="47.51125" lon="6.77026">
        <ele>423.6</ele>
        <time>2017-12-10T08:14:38.000Z</time>
      </trkpt>
      <trkpt lat="47.5112" lon="6.77022">
        <ele>423</ele>
        <time>2017-12-10T08:14:39.000Z</time>
      </trkpt>
      <trkpt lat="47.51115" lon="6.77017">
        <ele>423.2</ele>
        <time>2017-12-10T08:14:40.000Z</time>
      </trkpt>
      <trkpt lat="47.5111" lon="6.77013">
        <ele>423.9</ele>
        <time>2017-12-10T08:14:41.000Z</time>
      </trkpt>
      <trkpt lat="47.51104" lon="6.77008">
        <ele>424.2</ele>
        <time>2017-12-10T08:14:42.000Z</time>
      </trkpt>
      <trkpt lat="47.51099" lon="6.77003">
        <ele>424.2</ele>
        <time>2017-12-10T08:14:43.000Z</time>
      </trkpt>
      <trkpt lat="47.51093" lon="6.76998">
        <ele>424.6</ele>
        <time>2017-12-10T08:14:44.000Z</time>
      </trkpt>
      <trkpt lat="47.51087" lon="6.76993">
        <ele>424.7</ele>
        <time>2017-12-10T08:14:45.000Z</time>
      </trkpt>
      <trkpt lat="47.51082" lon="6.76988">
        <ele>424.9</ele>
        <time>2017-12-10T08:14:46.000Z</time>
      </trkpt>
      <trkpt lat="47.51077" lon="6.76985">
        <ele>424.7</ele>
        <time>2017-12-10T08:14:47.000Z</time>
      </trkpt>
      <trkpt lat="47.51072" lon="6.7698">
        <ele>424.6</ele>
        <time>2017-12-10T08:14:48.000Z</time>
      </trkpt>
      <trkpt lat="47.51067" lon="6.76976">
        <ele>424.4</ele>
        <time>2017-12-10T08:14:49.000Z</time>
      </trkpt>
      <trkpt lat="47.51062" lon="6.76972">
        <ele>424.4</ele>
        <time>2017-12-10T08:14:50.000Z</time>
      </trkpt>
      <trkpt lat="47.51057" lon="6.76968">
        <ele>424.1</ele>
        <time>2017-12-10T08:14:51.000Z</time>
      </trkpt>
      <trkpt lat="47.51053" lon="6.76964">
        <ele>424</ele>
        <time>2017-12-10T08:14:52.000Z</time>
      </trkpt>
      <trkpt lat="47.51049" lon="6.76961">
        <ele>424.1</ele>
        <time>2017-12-10T08:14:53.000Z</time>
      </trkpt>
      <trkpt lat="47.51045" lon="6.76958">
        <ele>424.7</ele>
        <time>2017-12-10T08:14:54.000Z</time>
      </trkpt>
      <trkpt lat="47.5104" lon="6.76954">
        <ele>425.5</ele>
        <time>2017-12-10T08:14:55.000Z</time>
      </trkpt>
      <trkpt lat="47.51036" lon="6.7695">
        <ele>425.6</ele>
        <time>2017-12-10T08:14:56.000Z</time>
      </trkpt>
      <trkpt lat="47.51031" lon="6.76946">
        <ele>425.4</ele>
        <time>2017-12-10T08:14:57.000Z</time>
      </trkpt>
      <trkpt lat="47.51026" lon="6.76943">
        <ele>425.4</ele>
        <time>2017-12-10T08:14:58.000Z</time>
      </trkpt>
      <trkpt lat="47.51022" lon="6.76939">
        <ele>426.1</ele>
        <time>2017-12-10T08:14:59.000Z</time>
      </trkpt>
      <trkpt lat="47.51017" lon="6.76935">
        <ele>426.7</ele>
        <time>2017-12-10T08:15:00.000Z</time>
      </trkpt>
      <trkpt lat="47.51013" lon="6.76931">
        <ele>427.1</ele>
        <time>2017-12-10T08:15:01.000Z</time>
      </trkpt>
      <trkpt lat="47.51008" lon="6.76927">
        <ele>427.4</ele>
        <time>2017-12-10T08:15:02.000Z</time>
      </trkpt>
      <trkpt lat="47.51004" lon="6.76924">
        <ele>427.4</ele>
        <time>2017-12-10T08:15:03.000Z</time>
      </trkpt>
      <trkpt lat="47.50999" lon="6.76921">
        <ele>426.5</ele>
        <time>2017-12-10T08:15:04.000Z</time>
      </trkpt>
      <trkpt lat="47.50995" lon="6.76918">
        <ele>425</ele>
        <time>2017-12-10T08:15:05.000Z</time>
      </trkpt>
      <trkpt lat="47.50991" lon="6.76915">
        <ele>423.7</ele>
        <time>2017-12-10T08:15:06.000Z</time>
      </trkpt>
      <trkpt lat="47.50987" lon="6.76911">
        <ele>422.4</ele>
        <time>2017-12-10T08:15:07.000Z</time>
      </trkpt>
      <trkpt lat="47.50983" lon="6.76908">
        <ele>421.8</ele>
        <time>2017-12-10T08:15:08.000Z</time>
      </trkpt>
      <trkpt lat="47.50979" lon="6.76905">
        <ele>421.7</ele>
        <time>2017-12-10T08:15:09.000Z</time>
      </trkpt>
      <trkpt lat="47.50976" lon="6.76902">
        <ele>421.4</ele>
        <time>2017-12-10T08:15:10.000Z</time>
      </trkpt>
      <trkpt lat="47.50971" lon="6.76899">
        <ele>421.1</ele>
        <time>2017-12-10T08:15:11.000Z</time>
      </trkpt>
      <trkpt lat="47.50967" lon="6.76896">
        <ele>420.6</ele>
        <time>2017-12-10T08:15:12.000Z</time>
      </trkpt>
      <trkpt lat="47.50964" lon="6.76895">
        <ele>420.5</ele>
        <time>2017-12-10T08:15:13.000Z</time>
      </trkpt>
      <trkpt lat="47.5096" lon="6.76893">
        <ele>420.6</ele>
        <time>2017-12-10T08:15:14.000Z</time>
      </trkpt>
      <trkpt lat="47.50956" lon="6.76891">
        <ele>420.7</ele>
        <time>2017-12-10T08:15:15.000Z</time>
      </trkpt>
      <trkpt lat="47.50953" lon="6.7689">
        <ele>420.8</ele>
        <time>2017-12-10T08:15:16.000Z</time>
      </trkpt>
      <trkpt lat="47.5095" lon="6.76889">
        <ele>420.9</ele>
        <time>2017-12-10T08:15:17.000Z</time>
      </trkpt>
      <trkpt lat="47.50947" lon="6.76886">
        <ele>422.2</ele>
        <time>2017-12-10T08:15:18.000Z</time>
      </trkpt>
      <trkpt lat="47.50943" lon="6.76884">
        <ele>423.1</ele>
        <time>2017-12-10T08:15:19.000Z</time>
      </trkpt>
      <trkpt lat="47.50939" lon="6.76881">
        <ele>424.3</ele>
        <time>2017-12-10T08:15:20.000Z</time>
      </trkpt>
      <trkpt lat="47.50937" lon="6.76878">
        <ele>424.3</ele>
        <time>2017-12-10T08:15:21.000Z</time>
      </trkpt>
      <trkpt lat="47.50934" lon="6.76875">
        <ele>424.6</ele>
        <time>2017-12-10T08:15:22.000Z</time>
      </trkpt>
      <trkpt lat="47.50931" lon="6.76871">
        <ele>424.6</ele>
        <time>2017-12-10T08:15:23.000Z</time>
      </trkpt>
      <trkpt lat="47.50927" lon="6.76866">
        <ele>424.9</ele>
        <time>2017-12-10T08:15:24.000Z</time>
      </trkpt>
      <trkpt lat="47.50925" lon="6.7686">
        <ele>424.6</ele>
        <time>2017-12-10T08:15:25.000Z</time>
      </trkpt>
      <trkpt lat="47.50922" lon="6.76855">
        <ele>425.2</ele>
        <time>2017-12-10T08:15:26.000Z</time>
      </trkpt>
      <trkpt lat="47.50919" lon="6.76849">
        <ele>425.9</ele>
        <time>2017-12-10T08:15:27.000Z</time>
      </trkpt>
      <trkpt lat="47.50916" lon="6.76844">
        <ele>426.8</ele>
        <time>2017-12-10T08:15:28.000Z</time>
      </trkpt>
      <trkpt lat="47.50914" lon="6.76839">
        <ele>427.5</ele>
        <time>2017-12-10T08:15:29.000Z</time>
      </trkpt>
      <trkpt lat="47.50911" lon="6.76833">
        <ele>428</ele>
        <time>2017-12-10T08:15:30.000Z</time>
      </trkpt>
      <trkpt lat="47.50909" lon="6.76828">
        <ele>428.1</ele>
        <time>2017-12-10T08:15:31.000Z</time>
      </trkpt>
      <trkpt lat="47.50907" lon="6.76823">
        <ele>428.6</ele>
        <time>2017-12-10T08:15:32.000Z</time>
      </trkpt>
      <trkpt lat="47.50905" lon="6.76818">
        <ele>429.2</ele>
        <time>2017-12-10T08:15:33.000Z</time>
      </trkpt>
      <trkpt lat="47.50902" lon="6.76812">
        <ele>429.9</ele>
        <time>2017-12-10T08:15:34.000Z</time>
      </trkpt>
      <trkpt lat="47.509" lon="6.76807">
        <ele>430.5</ele>
        <time>2017-12-10T08:15:35.000Z</time>
      </trkpt>
      <trkpt lat="47.50898" lon="6.76801">
        <ele>430.6</ele>
        <time>2017-12-10T08:15:36.000Z</time>
      </trkpt>
      <trkpt lat="47.50896" lon="6.76796">
        <ele>430.8</ele>
        <time>2017-12-10T08:15:37.000Z</time>
      </trkpt>
      <trkpt lat="47.50894" lon="6.7679">
        <ele>430.5</ele>
        <time>2017-12-10T08:15:38.000Z</time>
      </trkpt>
      <trkpt lat="47.50892" lon="6.76785">
        <ele>430.1</ele>
        <time>2017-12-10T08:15:39.000Z</time>
      </trkpt>
      <trkpt lat="47.5089" lon="6.7678">
        <ele>430.1</ele>
        <time>2017-12-10T08:15:40.000Z</time>
      </trkpt>
      <trkpt lat="47.50888" lon="6.76775">
        <ele>430.1</ele>
        <time>2017-12-10T08:15:41.000Z</time>
      </trkpt>
      <trkpt lat="47.50886" lon="6.7677">
        <ele>429.5</ele>
        <time>2017-12-10T08:15:42.000Z</time>
      </trkpt>
      <trkpt lat="47.50883" lon="6.76764">
        <ele>429.1</ele>
        <time>2017-12-10T08:15:43.000Z</time>
      </trkpt>
      <trkpt lat="47.50881" lon="6.76758">
        <ele>428.4</ele>
        <time>2017-12-10T08:15:44.000Z</time>
      </trkpt>
      <trkpt lat="47.50879" lon="6.76753">
        <ele>428.3</ele>
        <time>2017-12-10T08:15:45.000Z</time>
      </trkpt>
      <trkpt lat="47.50878" lon="6.76749">
        <ele>428.4</ele>
        <time>2017-12-10T08:15:46.000Z</time>
      </trkpt>
      <trkpt lat="47.50877" lon="6.76745">
        <ele>428.7</ele>
        <time>2017-12-10T08:15:47.000Z</time>
      </trkpt>
      <trkpt lat="47.50876" lon="6.76742">
        <ele>428.7</ele>
        <time>2017-12-10T08:15:48.000Z</time>
      </trkpt>
      <trkpt lat="47.50875" lon="6.76737">
        <ele>428.6</ele>
        <time>2017-12-10T08:15:49.000Z</time>
      </trkpt>
      <trkpt lat="47.50873" lon="6.76732">
        <ele>428.7</ele>
        <time>2017-12-10T08:15:50.000Z</time>
      </trkpt>
      <trkpt lat="47.50872" lon="6.76727">
        <ele>428.6</ele>
        <time>2017-12-10T08:15:51.000Z</time>
      </trkpt>
      <trkpt lat="47.5087" lon="6.76722">
        <ele>428.9</ele>
        <time>2017-12-10T08:15:52.000Z</time>
      </trkpt>
      <trkpt lat="47.50869" lon="6.76717">
        <ele>429</ele>
        <time>2017-12-10T08:15:53.000Z</time>
      </trkpt>
      <trkpt lat="47.50867" lon="6.76712">
        <ele>429.1</ele>
        <time>2017-12-10T08:15:54.000Z</time>
      </trkpt>
      <trkpt lat="47.50865" lon="6.76707">
        <ele>429.2</ele>
        <time>2017-12-10T08:15:55.000Z</time>
      </trkpt>
      <trkpt lat="47.50863" lon="6.76703">
        <ele>429.2</ele>
        <time>2017-12-10T08:15:56.000Z</time>
      </trkpt>
      <trkpt lat="47.50862" lon="6.76698">
        <ele>429.3</ele>
        <time>2017-12-10T08:15:57.000Z</time>
      </trkpt>
      <trkpt lat="47.5086" lon="6.76694">
        <ele>429.4</ele>
        <time>2017-12-10T08:15:58.000Z</time>
      </trkpt>
      <trkpt lat="47.50858" lon="6.7669">
        <ele>429.5</ele>
        <time>2017-12-10T08:15:59.000Z</time>
      </trkpt>
      <trkpt lat="47.50855" lon="6.76684">
        <ele>429.6</ele>
        <time>2017-12-10T08:16:00.000Z</time>
      </trkpt>
      <trkpt lat="47.50854" lon="6.76679">
        <ele>429.7</ele>
        <time>2017-12-10T08:16:01.000Z</time>
      </trkpt>
      <trkpt lat="47.50852" lon="6.76674">
        <ele>429.7</ele>
        <time>2017-12-10T08:16:02.000Z</time>
      </trkpt>
      <trkpt lat="47.5085" lon="6.76669">
        <ele>429.9</ele>
        <time>2017-12-10T08:16:03.000Z</time>
      </trkpt>
      <trkpt lat="47.50849" lon="6.76665">
        <ele>430.1</ele>
        <time>2017-12-10T08:16:04.000Z</time>
      </trkpt>
      <trkpt lat="47.50847" lon="6.76661">
        <ele>430.3</ele>
        <time>2017-12-10T08:16:05.000Z</time>
      </trkpt>
      <trkpt lat="47.50846" lon="6.76656">
        <ele>430.5</ele>
        <time>2017-12-10T08:16:06.000Z</time>
      </trkpt>
      <trkpt lat="47.50845" lon="6.76652">
        <ele>430.7</ele>
        <time>2017-12-10T08:16:07.000Z</time>
      </trkpt>
      <trkpt lat="47.50843" lon="6.76648">
        <ele>430.8</ele>
        <time>2017-12-10T08:16:08.000Z</time>
      </trkpt>
      <trkpt lat="47.50841" lon="6.76643">
        <ele>431</ele>
        <time>2017-12-10T08:16:09.000Z</time>
      </trkpt>
      <trkpt lat="47.50839" lon="6.76639">
        <ele>431.2</ele>
        <time>2017-12-10T08:16:10.000Z</time>
      </trkpt>
      <trkpt lat="47.50837" lon="6.76635">
        <ele>431.4</ele>
        <time>2017-12-10T08:16:11.000Z</time>
      </trkpt>
      <trkpt lat="47.50835" lon="6.7663">
        <ele>431.5</ele>
        <time>2017-12-10T08:16:12.000Z</time>
      </trkpt>
      <trkpt lat="47.50833" lon="6.76625">
        <ele>431.6</ele>
        <time>2017-12-10T08:16:13.000Z</time>
      </trkpt>
      <trkpt lat="47.50832" lon="6.76621">
        <ele>431.7</ele>
        <time>2017-12-10T08:16:14.000Z</time>
      </trkpt>
      <trkpt lat="47.5083" lon="6.76617">
        <ele>431.8</ele>
        <time>2017-12-10T08:16:15.000Z</time>
      </trkpt>
      <trkpt lat="47.50828" lon="6.76613">
        <ele>431.9</ele>
        <time>2017-12-10T08:16:16.000Z</time>
      </trkpt>
      <trkpt lat="47.50827" lon="6.7661">
        <ele>432.1</ele>
        <time>2017-12-10T08:16:17.000Z</time>
      </trkpt>
      <trkpt lat="47.50825" lon="6.76606">
        <ele>432.2</ele>
        <time>2017-12-10T08:16:18.000Z</time>
      </trkpt>
      <trkpt lat="47.50824" lon="6.76603">
        <ele>432.3</ele>
        <time>2017-12-10T08:16:19.000Z</time>
      </trkpt>
      <trkpt lat="47.50823" lon="6.766">
        <ele>432.5</ele>
        <time>2017-12-10T08:16:20.000Z</time>
      </trkpt>
      <trkpt lat="47.50819" lon="6.76599">
        <ele>432.7</ele>
        <time>2017-12-10T08:16:22.000Z</time>
      </trkpt>
      <trkpt lat="47.50817" lon="6.76599">
        <ele>432.8</ele>
        <time>2017-12-10T08:16:23.000Z</time>
      </trkpt>
      <trkpt lat="47.50815" lon="6.76597">
        <ele>432.9</ele>
        <time>2017-12-10T08:16:24.000Z</time>
      </trkpt>
      <trkpt lat="47.50812" lon="6.76594">
        <ele>432.9</ele>
        <time>2017-12-10T08:16:25.000Z</time>
      </trkpt>
      <trkpt lat="47.5081" lon="6.76592">
        <ele>433.1</ele>
        <time>2017-12-10T08:16:26.000Z</time>
      </trkpt>
      <trkpt lat="47.50808" lon="6.76589">
        <ele>433.2</ele>
        <time>2017-12-10T08:16:27.000Z</time>
      </trkpt>
      <trkpt lat="47.50806" lon="6.76586">
        <ele>433.4</ele>
        <time>2017-12-10T08:16:29.000Z</time>
      </trkpt>
      <trkpt lat="47.50804" lon="6.76586">
        <ele>433.4</ele>
        <time>2017-12-10T08:16:30.000Z</time>
      </trkpt>
      <trkpt lat="47.508" lon="6.76586">
        <ele>433.4</ele>
        <time>2017-12-10T08:16:32.000Z</time>
      </trkpt>
      <trkpt lat="47.50799" lon="6.76586">
        <ele>433.4</ele>
        <time>2017-12-10T08:16:33.000Z</time>
      </trkpt>
      <trkpt lat="47.50795" lon="6.76588">
        <ele>433.5</ele>
        <time>2017-12-10T08:16:37.000Z</time>
      </trkpt>
      <trkpt lat="47.50795" lon="6.76589">
        <ele>433.5</ele>
        <time>2017-12-10T08:16:38.000Z</time>
      </trkpt>
      <trkpt lat="47.50794" lon="6.76588">
        <ele>433.8</ele>
        <time>2017-12-10T08:16:55.000Z</time>
      </trkpt>
      <trkpt lat="47.50786" lon="6.76588">
        <ele>433.8</ele>
        <time>2017-12-10T08:16:56.000Z</time>
      </trkpt>
      <trkpt lat="47.50786" lon="6.76588">
        <ele>433.9</ele>
        <time>2017-12-10T08:16:59.000Z</time>
      </trkpt>
      <trkpt lat="47.50779" lon="6.76591">
        <ele>434</ele>
        <time>2017-12-10T08:17:00.000Z</time>
      </trkpt>
      <trkpt lat="47.50777" lon="6.76591">
        <ele>434</ele>
        <time>2017-12-10T08:17:01.000Z</time>
      </trkpt>
      <trkpt lat="47.50774" lon="6.76593">
        <ele>434</ele>
        <time>2017-12-10T08:17:02.000Z</time>
      </trkpt>
      <trkpt lat="47.50772" lon="6.76594">
        <ele>434</ele>
        <time>2017-12-10T08:17:03.000Z</time>
      </trkpt>
      <trkpt lat="47.5077" lon="6.76594">
        <ele>434</ele>
        <time>2017-12-10T08:17:04.000Z</time>
      </trkpt>
      <trkpt lat="47.50767" lon="6.76595">
        <ele>434.1</ele>
        <time>2017-12-10T08:17:05.000Z</time>
      </trkpt>
      <trkpt lat="47.50765" lon="6.76594">
        <ele>434.1</ele>
        <time>2017-12-10T08:17:06.000Z</time>
      </trkpt>
      <trkpt lat="47.50762" lon="6.76594">
        <ele>434.2</ele>
        <time>2017-12-10T08:17:07.000Z</time>
      </trkpt>
      <trkpt lat="47.5076" lon="6.76593">
        <ele>434.3</ele>
        <time>2017-12-10T08:17:08.000Z</time>
      </trkpt>
      <trkpt lat="47.50757" lon="6.76593">
        <ele>434.4</ele>
        <time>2017-12-10T08:17:08.999Z</time>
      </trkpt>
      <trkpt lat="47.50754" lon="6.76593">
        <ele>434.5</ele>
        <time>2017-12-10T08:17:09.999Z</time>
      </trkpt>
      <trkpt lat="47.50751" lon="6.76592">
        <ele>434.6</ele>
        <time>2017-12-10T08:17:10.999Z</time>
      </trkpt>
      <trkpt lat="47.50748" lon="6.76592">
        <ele>434.7</ele>
        <time>2017-12-10T08:17:11.999Z</time>
      </trkpt>
      <trkpt lat="47.50745" lon="6.76592">
        <ele>434.8</ele>
        <time>2017-12-10T08:17:12.999Z</time>
      </trkpt>
      <trkpt lat="47.50741" lon="6.76592">
        <ele>434.9</ele>
        <time>2017-12-10T08:17:13.999Z</time>
      </trkpt>
      <trkpt lat="47.50738" lon="6.76592">
        <ele>435</ele>
        <time>2017-12-10T08:17:14.999Z</time>
      </trkpt>
      <trkpt lat="47.50736" lon="6.76592">
        <ele>435.1</ele>
        <time>2017-12-10T08:17:15.999Z</time>
      </trkpt>
      <trkpt lat="47.50733" lon="6.76592">
        <ele>435.2</ele>
        <time>2017-12-10T08:17:16.999Z</time>
      </trkpt>
      <trkpt lat="47.5073" lon="6.76591">
        <ele>435.3</ele>
        <time>2017-12-10T08:17:17.999Z</time>
      </trkpt>
      <trkpt lat="47.50728" lon="6.76591">
        <ele>435.3</ele>
        <time>2017-12-10T08:17:18.999Z</time>
      </trkpt>
      <trkpt lat="47.50725" lon="6.76591">
        <ele>435.4</ele>
        <time>2017-12-10T08:17:19.999Z</time>
      </trkpt>
      <trkpt lat="47.50722" lon="6.7659">
        <ele>435.5</ele>
        <time>2017-12-10T08:17:20.999Z</time>
      </trkpt>
      <trkpt lat="47.50718" lon="6.7659">
        <ele>435.6</ele>
        <time>2017-12-10T08:17:21.999Z</time>
      </trkpt>
      <trkpt lat="47.50715" lon="6.76589">
        <ele>435.7</ele>
        <time>2017-12-10T08:17:22.999Z</time>
      </trkpt>
      <trkpt lat="47.50712" lon="6.76588">
        <ele>435.8</ele>
        <time>2017-12-10T08:17:23.999Z</time>
      </trkpt>
      <trkpt lat="47.50709" lon="6.76587">
        <ele>435.9</ele>
        <time>2017-12-10T08:17:24.999Z</time>
      </trkpt>
      <trkpt lat="47.50706" lon="6.76587">
        <ele>436</ele>
        <time>2017-12-10T08:17:25.999Z</time>
      </trkpt>
      <trkpt lat="47.50702" lon="6.76586">
        <ele>436.2</ele>
        <time>2017-12-10T08:17:26.999Z</time>
      </trkpt>
      <trkpt lat="47.50699" lon="6.76586">
        <ele>436.3</ele>
        <time>2017-12-10T08:17:27.999Z</time>
      </trkpt>
      <trkpt lat="47.50696" lon="6.76586">
        <ele>436.4</ele>
        <time>2017-12-10T08:17:28.999Z</time>
      </trkpt>
      <trkpt lat="47.50693" lon="6.76586">
        <ele>436.5</ele>
        <time>2017-12-10T08:17:29.999Z</time>
      </trkpt>
      <trkpt lat="47.5069" lon="6.76585">
        <ele>436.5</ele>
        <time>2017-12-10T08:17:30.999Z</time>
      </trkpt>
      <trkpt lat="47.50687" lon="6.76586">
        <ele>436.6</ele>
        <time>2017-12-10T08:17:31.999Z</time>
      </trkpt>
      <trkpt lat="47.50684" lon="6.76586">
        <ele>436.7</ele>
        <time>2017-12-10T08:17:32.999Z</time>
      </trkpt>
      <trkpt lat="47.5068" lon="6.76587">
        <ele>436.8</ele>
        <time>2017-12-10T08:17:33.999Z</time>
      </trkpt>
      <trkpt lat="47.50677" lon="6.76588">
        <ele>436.9</ele>
        <time>2017-12-10T08:17:34.999Z</time>
      </trkpt>
      <trkpt lat="47.50674" lon="6.7659">
        <ele>437.1</ele>
        <time>2017-12-10T08:17:35.999Z</time>
      </trkpt>
      <trkpt lat="47.50672" lon="6.76592">
        <ele>437.2</ele>
        <time>2017-12-10T08:17:36.999Z</time>
      </trkpt>
      <trkpt lat="47.50669" lon="6.76593">
        <ele>437.3</ele>
        <time>2017-12-10T08:17:37.999Z</time>
      </trkpt>
      <trkpt lat="47.50667" lon="6.76594">
        <ele>437.5</ele>
        <time>2017-12-10T08:17:38.999Z</time>
      </trkpt>
      <trkpt lat="47.50664" lon="6.76596">
        <ele>437.7</ele>
        <time>2017-12-10T08:17:39.999Z</time>
      </trkpt>
      <trkpt lat="47.50662" lon="6.76596">
        <ele>437.8</ele>
        <time>2017-12-10T08:17:40.999Z</time>
      </trkpt>
      <trkpt lat="47.50659" lon="6.76597">
        <ele>437.9</ele>
        <time>2017-12-10T08:17:41.999Z</time>
      </trkpt>
      <trkpt lat="47.50657" lon="6.76598">
        <ele>438</ele>
        <time>2017-12-10T08:17:42.999Z</time>
      </trkpt>
      <trkpt lat="47.50654" lon="6.76598">
        <ele>438.1</ele>
        <time>2017-12-10T08:17:43.999Z</time>
      </trkpt>
      <trkpt lat="47.50651" lon="6.76599">
        <ele>438.2</ele>
        <time>2017-12-10T08:17:44.999Z</time>
      </trkpt>
      <trkpt lat="47.50648" lon="6.76601">
        <ele>438.3</ele>
        <time>2017-12-10T08:17:45.999Z</time>
      </trkpt>
      <trkpt lat="47.50646" lon="6.76602">
        <ele>438.4</ele>
        <time>2017-12-10T08:17:46.999Z</time>
      </trkpt>
      <trkpt lat="47.50644" lon="6.76603">
        <ele>438.5</ele>
        <time>2017-12-10T08:17:47.999Z</time>
      </trkpt>
      <trkpt lat="47.50642" lon="6.76604">
        <ele>438.5</ele>
        <time>2017-12-10T08:17:48.999Z</time>
      </trkpt>
      <trkpt lat="47.50639" lon="6.76605">
        <ele>438.6</ele>
        <time>2017-12-10T08:17:49.999Z</time>
      </trkpt>
      <trkpt lat="47.50637" lon="6.76607">
        <ele>438.6</ele>
        <time>2017-12-10T08:17:50.999Z</time>
      </trkpt>
      <trkpt lat="47.50634" lon="6.76608">
        <ele>438.6</ele>
        <time>2017-12-10T08:17:51.999Z</time>
      </trkpt>
      <trkpt lat="47.50631" lon="6.7661">
        <ele>438.6</ele>
        <time>2017-12-10T08:17:52.999Z</time>
      </trkpt>
      <trkpt lat="47.5063" lon="6.76612">
        <ele>438.7</ele>
        <time>2017-12-10T08:17:53.999Z</time>
      </trkpt>
      <trkpt lat="47.50628" lon="6.76613">
        <ele>438.7</ele>
        <time>2017-12-10T08:17:54.999Z</time>
      </trkpt>
      <trkpt lat="47.50625" lon="6.76614">
        <ele>438.7</ele>
        <time>2017-12-10T08:17:55.999Z</time>
      </trkpt>
      <trkpt lat="47.50622" lon="6.76615">
        <ele>438.7</ele>
        <time>2017-12-10T08:17:56.999Z</time>
      </trkpt>
      <trkpt lat="47.50619" lon="6.76618">
        <ele>438.8</ele>
        <time>2017-12-10T08:17:57.999Z</time>
      </trkpt>
      <trkpt lat="47.50615" lon="6.7662">
        <ele>438.8</ele>
        <time>2017-12-10T08:17:58.999Z</time>
      </trkpt>
      <trkpt lat="47.5061" lon="6.76621">
        <ele>439</ele>
        <time>2017-12-10T08:17:59.999Z</time>
      </trkpt>
      <trkpt lat="47.50607" lon="6.76622">
        <ele>439</ele>
        <time>2017-12-10T08:18:00.999Z</time>
      </trkpt>
      <trkpt lat="47.50604" lon="6.76623">
        <ele>439.1</ele>
        <time>2017-12-10T08:18:01.999Z</time>
      </trkpt>
      <trkpt lat="47.50601" lon="6.76624">
        <ele>439.1</ele>
        <time>2017-12-10T08:18:02.999Z</time>
      </trkpt>
      <trkpt lat="47.50598" lon="6.76624">
        <ele>439.3</ele>
        <time>2017-12-10T08:18:03.999Z</time>
      </trkpt>
      <trkpt lat="47.50595" lon="6.76625">
        <ele>439.4</ele>
        <time>2017-12-10T08:18:04.999Z</time>
      </trkpt>
      <trkpt lat="47.50593" lon="6.76626">
        <ele>439.5</ele>
        <time>2017-12-10T08:18:05.999Z</time>
      </trkpt>
      <trkpt lat="47.5059" lon="6.76627">
        <ele>439.6</ele>
        <time>2017-12-10T08:18:06.999Z</time>
      </trkpt>
      <trkpt lat="47.50588" lon="6.76628">
        <ele>439.7</ele>
        <time>2017-12-10T08:18:07.999Z</time>
      </trkpt>
      <trkpt lat="47.50585" lon="6.76628">
        <ele>439.7</ele>
        <time>2017-12-10T08:18:08.999Z</time>
      </trkpt>
      <trkpt lat="47.50583" lon="6.7663">
        <ele>439.8</ele>
        <time>2017-12-10T08:18:09.999Z</time>
      </trkpt>
      <trkpt lat="47.50581" lon="6.7663">
        <ele>439.8</ele>
        <time>2017-12-10T08:18:10.999Z</time>
      </trkpt>
      <trkpt lat="47.50578" lon="6.76631">
        <ele>439.9</ele>
        <time>2017-12-10T08:18:11.999Z</time>
      </trkpt>
      <trkpt lat="47.50575" lon="6.76632">
        <ele>440</ele>
        <time>2017-12-10T08:18:12.999Z</time>
      </trkpt>
      <trkpt lat="47.50572" lon="6.76633">
        <ele>440.1</ele>
        <time>2017-12-10T08:18:13.999Z</time>
      </trkpt>
      <trkpt lat="47.5057" lon="6.76633">
        <ele>440.2</ele>
        <time>2017-12-10T08:18:14.999Z</time>
      </trkpt>
      <trkpt lat="47.50566" lon="6.76634">
        <ele>440.3</ele>
        <time>2017-12-10T08:18:15.999Z</time>
      </trkpt>
      <trkpt lat="47.50563" lon="6.76635">
        <ele>440.4</ele>
        <time>2017-12-10T08:18:16.999Z</time>
      </trkpt>
      <trkpt lat="47.5056" lon="6.76636">
        <ele>440.5</ele>
        <time>2017-12-10T08:18:17.999Z</time>
      </trkpt>
      <trkpt lat="47.50558" lon="6.76636">
        <ele>440.6</ele>
        <time>2017-12-10T08:18:18.999Z</time>
      </trkpt>
      <trkpt lat="47.50555" lon="6.76636">
        <ele>440.7</ele>
        <time>2017-12-10T08:18:19.999Z</time>
      </trkpt>
      <trkpt lat="47.50553" lon="6.76637">
        <ele>440.8</ele>
        <time>2017-12-10T08:18:20.999Z</time>
      </trkpt>
      <trkpt lat="47.5055" lon="6.76637">
        <ele>440.9</ele>
        <time>2017-12-10T08:18:21.999Z</time>
      </trkpt>
      <trkpt lat="47.50547" lon="6.76638">
        <ele>441</ele>
        <time>2017-12-10T08:18:22.999Z</time>
      </trkpt>
      <trkpt lat="47.50543" lon="6.76638">
        <ele>441.1</ele>
        <time>2017-12-10T08:18:23.999Z</time>
      </trkpt>
      <trkpt lat="47.5054" lon="6.76639">
        <ele>441.3</ele>
        <time>2017-12-10T08:18:24.999Z</time>
      </trkpt>
      <trkpt lat="47.50537" lon="6.7664">
        <ele>441.4</ele>
        <time>2017-12-10T08:18:25.999Z</time>
      </trkpt>
      <trkpt lat="47.50534" lon="6.76641">
        <ele>441.5</ele>
        <time>2017-12-10T08:18:26.999Z</time>
      </trkpt>
      <trkpt lat="47.5053" lon="6.76642">
        <ele>441.6</ele>
        <time>2017-12-10T08:18:27.999Z</time>
      </trkpt>
      <trkpt lat="47.50527" lon="6.76642">
        <ele>441.7</ele>
        <time>2017-12-10T08:18:28.999Z</time>
      </trkpt>
      <trkpt lat="47.50524" lon="6.76643">
        <ele>441.9</ele>
        <time>2017-12-10T08:18:29.999Z</time>
      </trkpt>
      <trkpt lat="47.5052" lon="6.76643">
        <ele>442.8</ele>
        <time>2017-12-10T08:18:30.999Z</time>
      </trkpt>
      <trkpt lat="47.50517" lon="6.76643">
        <ele>442.9</ele>
        <time>2017-12-10T08:18:31.999Z</time>
      </trkpt>
      <trkpt lat="47.50514" lon="6.76644">
        <ele>443</ele>
        <time>2017-12-10T08:18:32.999Z</time>
      </trkpt>
      <trkpt lat="47.5051" lon="6.76645">
        <ele>443.1</ele>
        <time>2017-12-10T08:18:33.999Z</time>
      </trkpt>
      <trkpt lat="47.50507" lon="6.76645">
        <ele>443.1</ele>
        <time>2017-12-10T08:18:34.999Z</time>
      </trkpt>
      <trkpt lat="47.50504" lon="6.76646">
        <ele>443.1</ele>
        <time>2017-12-10T08:18:35.999Z</time>
      </trkpt>
      <trkpt lat="47.50501" lon="6.76647">
        <ele>443.2</ele>
        <time>2017-12-10T08:18:36.999Z</time>
      </trkpt>
      <trkpt lat="47.50497" lon="6.76648">
        <ele>443.2</ele>
        <time>2017-12-10T08:18:37.999Z</time>
      </trkpt>
      <trkpt lat="47.50494" lon="6.76649">
        <ele>443.3</ele>
        <time>2017-12-10T08:18:38.999Z</time>
      </trkpt>
      <trkpt lat="47.50491" lon="6.7665">
        <ele>443.4</ele>
        <time>2017-12-10T08:18:39.999Z</time>
      </trkpt>
      <trkpt lat="47.50488" lon="6.76652">
        <ele>443.5</ele>
        <time>2017-12-10T08:18:40.999Z</time>
      </trkpt>
      <trkpt lat="47.50485" lon="6.76653">
        <ele>443.5</ele>
        <time>2017-12-10T08:18:41.999Z</time>
      </trkpt>
      <trkpt lat="47.50483" lon="6.76654">
        <ele>443.6</ele>
        <time>2017-12-10T08:18:42.999Z</time>
      </trkpt>
      <trkpt lat="47.5048" lon="6.76655">
        <ele>443.6</ele>
        <time>2017-12-10T08:18:43.999Z</time>
      </trkpt>
      <trkpt lat="47.50476" lon="6.76656">
        <ele>443.7</ele>
        <time>2017-12-10T08:18:45.999Z</time>
      </trkpt>
      <trkpt lat="47.50474" lon="6.76656">
        <ele>443.7</ele>
        <time>2017-12-10T08:18:46.999Z</time>
      </trkpt>
      <trkpt lat="47.50472" lon="6.76657">
        <ele>443.6</ele>
        <time>2017-12-10T08:18:47.999Z</time>
      </trkpt>
      <trkpt lat="47.5047" lon="6.76658">
        <ele>443.6</ele>
        <time>2017-12-10T08:18:48.999Z</time>
      </trkpt>
      <trkpt lat="47.50467" lon="6.7666">
        <ele>443.5</ele>
        <time>2017-12-10T08:18:49.999Z</time>
      </trkpt>
      <trkpt lat="47.50464" lon="6.76662">
        <ele>443.4</ele>
        <time>2017-12-10T08:18:50.999Z</time>
      </trkpt>
      <trkpt lat="47.50462" lon="6.76663">
        <ele>443.3</ele>
        <time>2017-12-10T08:18:51.999Z</time>
      </trkpt>
      <trkpt lat="47.5046" lon="6.76664">
        <ele>443.2</ele>
        <time>2017-12-10T08:18:52.999Z</time>
      </trkpt>
      <trkpt lat="47.50457" lon="6.76666">
        <ele>443.2</ele>
        <time>2017-12-10T08:18:53.999Z</time>
      </trkpt>
      <trkpt lat="47.50455" lon="6.76667">
        <ele>443.2</ele>
        <time>2017-12-10T08:18:54.999Z</time>
      </trkpt>
      <trkpt lat="47.50452" lon="6.76668">
        <ele>443.1</ele>
        <time>2017-12-10T08:18:55.999Z</time>
      </trkpt>
      <trkpt lat="47.5045" lon="6.76669">
        <ele>443.1</ele>
        <time>2017-12-10T08:18:56.999Z</time>
      </trkpt>
      <trkpt lat="47.50447" lon="6.7667">
        <ele>443.1</ele>
        <time>2017-12-10T08:18:57.999Z</time>
      </trkpt>
      <trkpt lat="47.50444" lon="6.76671">
        <ele>443.1</ele>
        <time>2017-12-10T08:18:58.999Z</time>
      </trkpt>
      <trkpt lat="47.5044" lon="6.76673">
        <ele>443.1</ele>
        <time>2017-12-10T08:18:59.999Z</time>
      </trkpt>
      <trkpt lat="47.50436" lon="6.76675">
        <ele>443.2</ele>
        <time>2017-12-10T08:19:00.999Z</time>
      </trkpt>
      <trkpt lat="47.50433" lon="6.76677">
        <ele>443.3</ele>
        <time>2017-12-10T08:19:01.999Z</time>
      </trkpt>
      <trkpt lat="47.50429" lon="6.7668">
        <ele>443.3</ele>
        <time>2017-12-10T08:19:02.999Z</time>
      </trkpt>
      <trkpt lat="47.50426" lon="6.76681">
        <ele>443.3</ele>
        <time>2017-12-10T08:19:03.999Z</time>
      </trkpt>
      <trkpt lat="47.50423" lon="6.76682">
        <ele>443.3</ele>
        <time>2017-12-10T08:19:04.999Z</time>
      </trkpt>
      <trkpt lat="47.50419" lon="6.76684">
        <ele>443.2</ele>
        <time>2017-12-10T08:19:05.999Z</time>
      </trkpt>
      <trkpt lat="47.50415" lon="6.76686">
        <ele>443.1</ele>
        <time>2017-12-10T08:19:06.999Z</time>
      </trkpt>
      <trkpt lat="47.50412" lon="6.76687">
        <ele>443.1</ele>
        <time>2017-12-10T08:19:07.999Z</time>
      </trkpt>
      <trkpt lat="47.50409" lon="6.76689">
        <ele>443.1</ele>
        <time>2017-12-10T08:19:08.999Z</time>
      </trkpt>
      <trkpt lat="47.50406" lon="6.7669">
        <ele>443.1</ele>
        <time>2017-12-10T08:19:09.999Z</time>
      </trkpt>
      <trkpt lat="47.50402" lon="6.76692">
        <ele>443.1</ele>
        <time>2017-12-10T08:19:10.999Z</time>
      </trkpt>
      <trkpt lat="47.50399" lon="6.76693">
        <ele>443</ele>
        <time>2017-12-10T08:19:11.999Z</time>
      </trkpt>
      <trkpt lat="47.50395" lon="6.76694">
        <ele>442.9</ele>
        <time>2017-12-10T08:19:12.999Z</time>
      </trkpt>
      <trkpt lat="47.50392" lon="6.76696">
        <ele>442.9</ele>
        <time>2017-12-10T08:19:13.999Z</time>
      </trkpt>
      <trkpt lat="47.50389" lon="6.76697">
        <ele>442.8</ele>
        <time>2017-12-10T08:19:14.999Z</time>
      </trkpt>
      <trkpt lat="47.50386" lon="6.76699">
        <ele>442.8</ele>
        <time>2017-12-10T08:19:15.999Z</time>
      </trkpt>
      <trkpt lat="47.50382" lon="6.76701">
        <ele>442.7</ele>
        <time>2017-12-10T08:19:16.999Z</time>
      </trkpt>
      <trkpt lat="47.50378" lon="6.76703">
        <ele>442.6</ele>
        <time>2017-12-10T08:19:17.999Z</time>
      </trkpt>
      <trkpt lat="47.50375" lon="6.76704">
        <ele>442.5</ele>
        <time>2017-12-10T08:19:18.999Z</time>
      </trkpt>
      <trkpt lat="47.50372" lon="6.76706">
        <ele>442.5</ele>
        <time>2017-12-10T08:19:19.999Z</time>
      </trkpt>
      <trkpt lat="47.50368" lon="6.76709">
        <ele>442.4</ele>
        <time>2017-12-10T08:19:20.999Z</time>
      </trkpt>
      <trkpt lat="47.50365" lon="6.76711">
        <ele>442.3</ele>
        <time>2017-12-10T08:19:21.999Z</time>
      </trkpt>
      <trkpt lat="47.50362" lon="6.76712">
        <ele>442.3</ele>
        <time>2017-12-10T08:19:22.999Z</time>
      </trkpt>
      <trkpt lat="47.50359" lon="6.76714">
        <ele>442.3</ele>
        <time>2017-12-10T08:19:23.999Z</time>
      </trkpt>
      <trkpt lat="47.50356" lon="6.76715">
        <ele>442.3</ele>
        <time>2017-12-10T08:19:24.999Z</time>
      </trkpt>
      <trkpt lat="47.50353" lon="6.76717">
        <ele>442.3</ele>
        <time>2017-12-10T08:19:25.999Z</time>
      </trkpt>
      <trkpt lat="47.50349" lon="6.76719">
        <ele>442.3</ele>
        <time>2017-12-10T08:19:26.999Z</time>
      </trkpt>
      <trkpt lat="47.50345" lon="6.7672">
        <ele>442.3</ele>
        <time>2017-12-10T08:19:27.999Z</time>
      </trkpt>
      <trkpt lat="47.50342" lon="6.76721">
        <ele>442.4</ele>
        <time>2017-12-10T08:19:28.999Z</time>
      </trkpt>
      <trkpt lat="47.50339" lon="6.76723">
        <ele>442.4</ele>
        <time>2017-12-10T08:19:29.999Z</time>
      </trkpt>
      <trkpt lat="47.50335" lon="6.76723">
        <ele>442.5</ele>
        <time>2017-12-10T08:19:30.999Z</time>
      </trkpt>
      <trkpt lat="47.50332" lon="6.76723">
        <ele>442.5</ele>
        <time>2017-12-10T08:19:31.999Z</time>
      </trkpt>
      <trkpt lat="47.50328" lon="6.76724">
        <ele>442.5</ele>
        <time>2017-12-10T08:19:32.999Z</time>
      </trkpt>
      <trkpt lat="47.50326" lon="6.76726">
        <ele>442.6</ele>
        <time>2017-12-10T08:19:33.999Z</time>
      </trkpt>
      <trkpt lat="47.50323" lon="6.76727">
        <ele>442.7</ele>
        <time>2017-12-10T08:19:34.999Z</time>
      </trkpt>
      <trkpt lat="47.5032" lon="6.76729">
        <ele>442.7</ele>
        <time>2017-12-10T08:19:35.999Z</time>
      </trkpt>
      <trkpt lat="47.50317" lon="6.7673">
        <ele>442.7</ele>
        <time>2017-12-10T08:19:36.999Z</time>
      </trkpt>
      <trkpt lat="47.50315" lon="6.7673">
        <ele>442.7</ele>
        <time>2017-12-10T08:19:37.999Z</time>
      </trkpt>
      <trkpt lat="47.50311" lon="6.7673">
        <ele>442.7</ele>
        <time>2017-12-10T08:19:38.999Z</time>
      </trkpt>
      <trkpt lat="47.50308" lon="6.76729">
        <ele>442.7</ele>
        <time>2017-12-10T08:19:39.999Z</time>
      </trkpt>
      <trkpt lat="47.50304" lon="6.7673">
        <ele>442.7</ele>
        <time>2017-12-10T08:19:40.999Z</time>
      </trkpt>
      <trkpt lat="47.50301" lon="6.76731">
        <ele>442.6</ele>
        <time>2017-12-10T08:19:41.999Z</time>
      </trkpt>
      <trkpt lat="47.50298" lon="6.76732">
        <ele>442.6</ele>
        <time>2017-12-10T08:19:42.999Z</time>
      </trkpt>
      <trkpt lat="47.50295" lon="6.76733">
        <ele>442.5</ele>
        <time>2017-12-10T08:19:43.999Z</time>
      </trkpt>
      <trkpt lat="47.50291" lon="6.76734">
        <ele>442.5</ele>
        <time>2017-12-10T08:19:44.999Z</time>
      </trkpt>
      <trkpt lat="47.50287" lon="6.76734">
        <ele>442.4</ele>
        <time>2017-12-10T08:19:45.999Z</time>
      </trkpt>
      <trkpt lat="47.50284" lon="6.76734">
        <ele>442.4</ele>
        <time>2017-12-10T08:19:46.999Z</time>
      </trkpt>
      <trkpt lat="47.50281" lon="6.76735">
        <ele>442.4</ele>
        <time>2017-12-10T08:19:47.999Z</time>
      </trkpt>
      <trkpt lat="47.50278" lon="6.76736">
        <ele>442.4</ele>
        <time>2017-12-10T08:19:48.999Z</time>
      </trkpt>
      <trkpt lat="47.50274" lon="6.76737">
        <ele>442.3</ele>
        <time>2017-12-10T08:19:49.999Z</time>
      </trkpt>
      <trkpt lat="47.50271" lon="6.76738">
        <ele>442.3</ele>
        <time>2017-12-10T08:19:50.999Z</time>
      </trkpt>
      <trkpt lat="47.50268" lon="6.76739">
        <ele>442.4</ele>
        <time>2017-12-10T08:19:51.999Z</time>
      </trkpt>
      <trkpt lat="47.50264" lon="6.7674">
        <ele>442.4</ele>
        <time>2017-12-10T08:19:52.999Z</time>
      </trkpt>
      <trkpt lat="47.50261" lon="6.76742">
        <ele>442.5</ele>
        <time>2017-12-10T08:19:53.999Z</time>
      </trkpt>
      <trkpt lat="47.50258" lon="6.76743">
        <ele>442.5</ele>
        <time>2017-12-10T08:19:54.999Z</time>
      </trkpt>
      <trkpt lat="47.50255" lon="6.76744">
        <ele>442.4</ele>
        <time>2017-12-10T08:19:55.999Z</time>
      </trkpt>
      <trkpt lat="47.50253" lon="6.76743">
        <ele>442.4</ele>
        <time>2017-12-10T08:19:56.999Z</time>
      </trkpt>
      <trkpt lat="47.5025" lon="6.76742">
        <ele>442.4</ele>
        <time>2017-12-10T08:19:57.999Z</time>
      </trkpt>
      <trkpt lat="47.50248" lon="6.76741">
        <ele>442.4</ele>
        <time>2017-12-10T08:19:58.999Z</time>
      </trkpt>
      <trkpt lat="47.50245" lon="6.76737">
        <ele>442.6</ele>
        <time>2017-12-10T08:20:00.999Z</time>
      </trkpt>
      <trkpt lat="47.50242" lon="6.76735">
        <ele>442.7</ele>
        <time>2017-12-10T08:20:01.999Z</time>
      </trkpt>
      <trkpt lat="47.5024" lon="6.76732">
        <ele>442.7</ele>
        <time>2017-12-10T08:20:02.999Z</time>
      </trkpt>
      <trkpt lat="47.50239" lon="6.7673">
        <ele>442.8</ele>
        <time>2017-12-10T08:20:03.999Z</time>
      </trkpt>
      <trkpt lat="47.50237" lon="6.76727">
        <ele>442.9</ele>
        <time>2017-12-10T08:20:04.999Z</time>
      </trkpt>
      <trkpt lat="47.50236" lon="6.76724">
        <ele>443</ele>
        <time>2017-12-10T08:20:05.999Z</time>
      </trkpt>
      <trkpt lat="47.50235" lon="6.76721">
        <ele>443.2</ele>
        <time>2017-12-10T08:20:06.999Z</time>
      </trkpt>
      <trkpt lat="47.50234" lon="6.76717">
        <ele>443.3</ele>
        <time>2017-12-10T08:20:07.999Z</time>
      </trkpt>
      <trkpt lat="47.50232" lon="6.76714">
        <ele>443.4</ele>
        <time>2017-12-10T08:20:08.999Z</time>
      </trkpt>
      <trkpt lat="47.50231" lon="6.7671">
        <ele>443.6</ele>
        <time>2017-12-10T08:20:09.999Z</time>
      </trkpt>
      <trkpt lat="47.5023" lon="6.76706">
        <ele>443.7</ele>
        <time>2017-12-10T08:20:10.999Z</time>
      </trkpt>
      <trkpt lat="47.50228" lon="6.76702">
        <ele>443.8</ele>
        <time>2017-12-10T08:20:11.999Z</time>
      </trkpt>
      <trkpt lat="47.50227" lon="6.76698">
        <ele>444</ele>
        <time>2017-12-10T08:20:12.999Z</time>
      </trkpt>
      <trkpt lat="47.50225" lon="6.76694">
        <ele>444.2</ele>
        <time>2017-12-10T08:20:13.999Z</time>
      </trkpt>
      <trkpt lat="47.50224" lon="6.7669">
        <ele>444.2</ele>
        <time>2017-12-10T08:20:14.999Z</time>
      </trkpt>
      <trkpt lat="47.50222" lon="6.76686">
        <ele>444.3</ele>
        <time>2017-12-10T08:20:15.999Z</time>
      </trkpt>
      <trkpt lat="47.50221" lon="6.76682">
        <ele>444.4</ele>
        <time>2017-12-10T08:20:16.999Z</time>
      </trkpt>
      <trkpt lat="47.5022" lon="6.76678">
        <ele>444.5</ele>
        <time>2017-12-10T08:20:17.999Z</time>
      </trkpt>
      <trkpt lat="47.50218" lon="6.76674">
        <ele>444.6</ele>
        <time>2017-12-10T08:20:18.999Z</time>
      </trkpt>
      <trkpt lat="47.50217" lon="6.7667">
        <ele>444.6</ele>
        <time>2017-12-10T08:20:19.999Z</time>
      </trkpt>
      <trkpt lat="47.50215" lon="6.76665">
        <ele>444.6</ele>
        <time>2017-12-10T08:20:20.999Z</time>
      </trkpt>
      <trkpt lat="47.50214" lon="6.76661">
        <ele>444.7</ele>
        <time>2017-12-10T08:20:21.999Z</time>
      </trkpt>
      <trkpt lat="47.50212" lon="6.76656">
        <ele>444.7</ele>
        <time>2017-12-10T08:20:22.999Z</time>
      </trkpt>
      <trkpt lat="47.50211" lon="6.76652">
        <ele>444.8</ele>
        <time>2017-12-10T08:20:23.999Z</time>
      </trkpt>
      <trkpt lat="47.5021" lon="6.76647">
        <ele>445</ele>
        <time>2017-12-10T08:20:24.999Z</time>
      </trkpt>
      <trkpt lat="47.50208" lon="6.76642">
        <ele>445</ele>
        <time>2017-12-10T08:20:25.999Z</time>
      </trkpt>
      <trkpt lat="47.50207" lon="6.76637">
        <ele>444.5</ele>
        <time>2017-12-10T08:20:26.999Z</time>
      </trkpt>
      <trkpt lat="47.50205" lon="6.76632">
        <ele>444.5</ele>
        <time>2017-12-10T08:20:27.999Z</time>
      </trkpt>
      <trkpt lat="47.50204" lon="6.76627">
        <ele>444.5</ele>
        <time>2017-12-10T08:20:28.999Z</time>
      </trkpt>
      <trkpt lat="47.50202" lon="6.76621">
        <ele>444.7</ele>
        <time>2017-12-10T08:20:29.999Z</time>
      </trkpt>
      <trkpt lat="47.502" lon="6.76615">
        <ele>445.3</ele>
        <time>2017-12-10T08:20:30.999Z</time>
      </trkpt>
      <trkpt lat="47.50198" lon="6.76609">
        <ele>445.3</ele>
        <time>2017-12-10T08:20:31.999Z</time>
      </trkpt>
      <trkpt lat="47.50197" lon="6.76605">
        <ele>445.4</ele>
        <time>2017-12-10T08:20:32.999Z</time>
      </trkpt>
      <trkpt lat="47.50197" lon="6.76602">
        <ele>445.4</ele>
        <time>2017-12-10T08:20:33.999Z</time>
      </trkpt>
      <trkpt lat="47.50197" lon="6.76596">
        <ele>445.4</ele>
        <time>2017-12-10T08:20:35.999Z</time>
      </trkpt>
      <trkpt lat="47.50196" lon="6.76593">
        <ele>445.4</ele>
        <time>2017-12-10T08:20:36.999Z</time>
      </trkpt>
      <trkpt lat="47.50195" lon="6.76589">
        <ele>445.3</ele>
        <time>2017-12-10T08:20:37.999Z</time>
      </trkpt>
      <trkpt lat="47.50194" lon="6.76585">
        <ele>445.2</ele>
        <time>2017-12-10T08:20:38.999Z</time>
      </trkpt>
      <trkpt lat="47.50193" lon="6.7658">
        <ele>445.2</ele>
        <time>2017-12-10T08:20:39.999Z</time>
      </trkpt>
      <trkpt lat="47.50194" lon="6.76576">
        <ele>445.1</ele>
        <time>2017-12-10T08:20:40.999Z</time>
      </trkpt>
      <trkpt lat="47.50196" lon="6.76575">
        <ele>445</ele>
        <time>2017-12-10T08:20:41.999Z</time>
      </trkpt>
      <trkpt lat="47.50199" lon="6.76573">
        <ele>444.8</ele>
        <time>2017-12-10T08:20:42.999Z</time>
      </trkpt>
      <trkpt lat="47.50203" lon="6.76571">
        <ele>444.6</ele>
        <time>2017-12-10T08:20:43.999Z</time>
      </trkpt>
      <trkpt lat="47.50206" lon="6.76569">
        <ele>444.4</ele>
        <time>2017-12-10T08:20:44.999Z</time>
      </trkpt>
      <trkpt lat="47.5021" lon="6.76568">
        <ele>444.2</ele>
        <time>2017-12-10T08:20:45.999Z</time>
      </trkpt>
      <trkpt lat="47.50213" lon="6.76566">
        <ele>444</ele>
        <time>2017-12-10T08:20:46.999Z</time>
      </trkpt>
      <trkpt lat="47.50216" lon="6.76563">
        <ele>443.8</ele>
        <time>2017-12-10T08:20:47.999Z</time>
      </trkpt>
      <trkpt lat="47.50219" lon="6.7656">
        <ele>443.7</ele>
        <time>2017-12-10T08:20:48.999Z</time>
      </trkpt>
      <trkpt lat="47.50221" lon="6.76556">
        <ele>443.5</ele>
        <time>2017-12-10T08:20:49.999Z</time>
      </trkpt>
      <trkpt lat="47.5022" lon="6.76552">
        <ele>443.3</ele>
        <time>2017-12-10T08:20:50.999Z</time>
      </trkpt>
      <trkpt lat="47.50218" lon="6.76548">
        <ele>443</ele>
        <time>2017-12-10T08:20:51.999Z</time>
      </trkpt>
      <trkpt lat="47.50216" lon="6.76544">
        <ele>442.8</ele>
        <time>2017-12-10T08:20:52.999Z</time>
      </trkpt>
      <trkpt lat="47.50215" lon="6.76539">
        <ele>442.6</ele>
        <time>2017-12-10T08:20:53.999Z</time>
      </trkpt>
      <trkpt lat="47.50213" lon="6.76533">
        <ele>440.3</ele>
        <time>2017-12-10T08:20:54.999Z</time>
      </trkpt>
      <trkpt lat="47.50211" lon="6.76526">
        <ele>438.4</ele>
        <time>2017-12-10T08:20:55.999Z</time>
      </trkpt>
      <trkpt lat="47.50208" lon="6.76516">
        <ele>436.8</ele>
        <time>2017-12-10T08:20:56.999Z</time>
      </trkpt>
      <trkpt lat="47.50205" lon="6.76509">
        <ele>435.2</ele>
        <time>2017-12-10T08:20:57.999Z</time>
      </trkpt>
      <trkpt lat="47.50203" lon="6.76502">
        <ele>433.4</ele>
        <time>2017-12-10T08:20:58.999Z</time>
      </trkpt>
      <trkpt lat="47.50199" lon="6.76495">
        <ele>431.7</ele>
        <time>2017-12-10T08:20:59.999Z</time>
      </trkpt>
      <trkpt lat="47.50196" lon="6.76486">
        <ele>430.4</ele>
        <time>2017-12-10T08:21:00.999Z</time>
      </trkpt>
      <trkpt lat="47.50193" lon="6.76478">
        <ele>429.5</ele>
        <time>2017-12-10T08:21:01.999Z</time>
      </trkpt>
      <trkpt lat="47.5019" lon="6.76469">
        <ele>427.9</ele>
        <time>2017-12-10T08:21:02.999Z</time>
      </trkpt>
      <trkpt lat="47.50188" lon="6.7646">
        <ele>426.6</ele>
        <time>2017-12-10T08:21:03.999Z</time>
      </trkpt>
      <trkpt lat="47.50185" lon="6.76452">
        <ele>425.4</ele>
        <time>2017-12-10T08:21:04.999Z</time>
      </trkpt>
      <trkpt lat="47.50182" lon="6.76444">
        <ele>424.6</ele>
        <time>2017-12-10T08:21:05.999Z</time>
      </trkpt>
      <trkpt lat="47.50179" lon="6.76436">
        <ele>423.8</ele>
        <time>2017-12-10T08:21:06.999Z</time>
      </trkpt>
      <trkpt lat="47.50177" lon="6.76429">
        <ele>422.6</ele>
        <time>2017-12-10T08:21:07.999Z</time>
      </trkpt>
      <trkpt lat="47.50175" lon="6.76421">
        <ele>421.6</ele>
        <time>2017-12-10T08:21:08.999Z</time>
      </trkpt>
      <trkpt lat="47.50172" lon="6.76413">
        <ele>420.4</ele>
        <time>2017-12-10T08:21:09.999Z</time>
      </trkpt>
      <trkpt lat="47.50169" lon="6.76404">
        <ele>419.2</ele>
        <time>2017-12-10T08:21:10.999Z</time>
      </trkpt>
      <trkpt lat="47.50167" lon="6.76395">
        <ele>418.1</ele>
        <time>2017-12-10T08:21:11.999Z</time>
      </trkpt>
      <trkpt lat="47.50164" lon="6.76388">
        <ele>417.1</ele>
        <time>2017-12-10T08:21:12.999Z</time>
      </trkpt>
      <trkpt lat="47.50162" lon="6.76379">
        <ele>416.7</ele>
        <time>2017-12-10T08:21:13.999Z</time>
      </trkpt>
      <trkpt lat="47.5016" lon="6.7637">
        <ele>416.5</ele>
        <time>2017-12-10T08:21:14.999Z</time>
      </trkpt>
      <trkpt lat="47.50157" lon="6.76359">
        <ele>416.4</ele>
        <time>2017-12-10T08:21:15.999Z</time>
      </trkpt>
      <trkpt lat="47.50155" lon="6.76353">
        <ele>416.8</ele>
        <time>2017-12-10T08:21:16.999Z</time>
      </trkpt>
      <trkpt lat="47.50152" lon="6.76347">
        <ele>416.6</ele>
        <time>2017-12-10T08:21:17.999Z</time>
      </trkpt>
      <trkpt lat="47.50149" lon="6.7634">
        <ele>416.2</ele>
        <time>2017-12-10T08:21:18.999Z</time>
      </trkpt>
      <trkpt lat="47.50146" lon="6.76329">
        <ele>415.9</ele>
        <time>2017-12-10T08:21:19.999Z</time>
      </trkpt>
      <trkpt lat="47.50144" lon="6.76322">
        <ele>414.8</ele>
        <time>2017-12-10T08:21:20.999Z</time>
      </trkpt>
      <trkpt lat="47.50142" lon="6.76314">
        <ele>414.1</ele>
        <time>2017-12-10T08:21:21.999Z</time>
      </trkpt>
      <trkpt lat="47.5014" lon="6.76306">
        <ele>413.3</ele>
        <time>2017-12-10T08:21:22.999Z</time>
      </trkpt>
      <trkpt lat="47.50139" lon="6.76298">
        <ele>413</ele>
        <time>2017-12-10T08:21:23.999Z</time>
      </trkpt>
      <trkpt lat="47.50136" lon="6.76293">
        <ele>412.9</ele>
        <time>2017-12-10T08:21:24.999Z</time>
      </trkpt>
      <trkpt lat="47.50131" lon="6.76283">
        <ele>412.7</ele>
        <time>2017-12-10T08:21:25.999Z</time>
      </trkpt>
      <trkpt lat="47.50128" lon="6.76275">
        <ele>412.3</ele>
        <time>2017-12-10T08:21:26.999Z</time>
      </trkpt>
      <trkpt lat="47.50125" lon="6.76262">
        <ele>412.7</ele>
        <time>2017-12-10T08:21:27.999Z</time>
      </trkpt>
      <trkpt lat="47.50121" lon="6.76253">
        <ele>413.1</ele>
        <time>2017-12-10T08:21:28.999Z</time>
      </trkpt>
      <trkpt lat="47.50121" lon="6.76245">
        <ele>412.9</ele>
        <time>2017-12-10T08:21:29.999Z</time>
      </trkpt>
      <trkpt lat="47.5012" lon="6.76235">
        <ele>412.4</ele>
        <time>2017-12-10T08:21:30.999Z</time>
      </trkpt>
      <trkpt lat="47.50119" lon="6.76221">
        <ele>411.7</ele>
        <time>2017-12-10T08:21:31.999Z</time>
      </trkpt>
      <trkpt lat="47.50118" lon="6.76208">
        <ele>412.6</ele>
        <time>2017-12-10T08:21:32.999Z</time>
      </trkpt>
      <trkpt lat="47.50112" lon="6.76203">
        <ele>413.7</ele>
        <time>2017-12-10T08:21:33.999Z</time>
      </trkpt>
      <trkpt lat="47.5011" lon="6.76194">
        <ele>414.9</ele>
        <time>2017-12-10T08:21:34.999Z</time>
      </trkpt>
      <trkpt lat="47.5011" lon="6.76183">
        <ele>416</ele>
        <time>2017-12-10T08:21:35.999Z</time>
      </trkpt>
      <trkpt lat="47.50111" lon="6.76169">
        <ele>417.8</ele>
        <time>2017-12-10T08:21:36.999Z</time>
      </trkpt>
      <trkpt lat="47.50112" lon="6.76156">
        <ele>418.9</ele>
        <time>2017-12-10T08:21:37.999Z</time>
      </trkpt>
      <trkpt lat="47.50112" lon="6.76147">
        <ele>421.1</ele>
        <time>2017-12-10T08:21:38.999Z</time>
      </trkpt>
      <trkpt lat="47.50113" lon="6.76139">
        <ele>423.5</ele>
        <time>2017-12-10T08:21:39.999Z</time>
      </trkpt>
      <trkpt lat="47.50114" lon="6.76131">
        <ele>425.1</ele>
        <time>2017-12-10T08:21:40.999Z</time>
      </trkpt>
      <trkpt lat="47.50114" lon="6.7612">
        <ele>425.8</ele>
        <time>2017-12-10T08:21:41.999Z</time>
      </trkpt>
      <trkpt lat="47.50113" lon="6.76113">
        <ele>426.1</ele>
        <time>2017-12-10T08:21:42.999Z</time>
      </trkpt>
      <trkpt lat="47.5011" lon="6.76105">
        <ele>426.6</ele>
        <time>2017-12-10T08:21:43.999Z</time>
      </trkpt>
      <trkpt lat="47.50108" lon="6.76095">
        <ele>426.8</ele>
        <time>2017-12-10T08:21:44.999Z</time>
      </trkpt>
      <trkpt lat="47.50108" lon="6.76085">
        <ele>427.7</ele>
        <time>2017-12-10T08:21:45.999Z</time>
      </trkpt>
      <trkpt lat="47.50107" lon="6.76075">
        <ele>427.9</ele>
        <time>2017-12-10T08:21:46.999Z</time>
      </trkpt>
      <trkpt lat="47.50105" lon="6.76066">
        <ele>428.3</ele>
        <time>2017-12-10T08:21:47.999Z</time>
      </trkpt>
      <trkpt lat="47.50102" lon="6.76056">
        <ele>428.3</ele>
        <time>2017-12-10T08:21:48.999Z</time>
      </trkpt>
      <trkpt lat="47.50101" lon="6.76047">
        <ele>428.1</ele>
        <time>2017-12-10T08:21:49.999Z</time>
      </trkpt>
      <trkpt lat="47.50099" lon="6.76039">
        <ele>428.1</ele>
        <time>2017-12-10T08:21:50.999Z</time>
      </trkpt>
      <trkpt lat="47.50097" lon="6.76025">
        <ele>428</ele>
        <time>2017-12-10T08:21:51.999Z</time>
      </trkpt>
      <trkpt lat="47.50097" lon="6.76014">
        <ele>427.7</ele>
        <time>2017-12-10T08:21:52.999Z</time>
      </trkpt>
      <trkpt lat="47.50096" lon="6.76004">
        <ele>427.5</ele>
        <time>2017-12-10T08:21:53.999Z</time>
      </trkpt>
      <trkpt lat="47.50096" lon="6.75997">
        <ele>427</ele>
        <time>2017-12-10T08:21:54.999Z</time>
      </trkpt>
      <trkpt lat="47.50094" lon="6.7599">
        <ele>426.4</ele>
        <time>2017-12-10T08:21:55.999Z</time>
      </trkpt>
      <trkpt lat="47.50093" lon="6.75983">
        <ele>425.5</ele>
        <time>2017-12-10T08:21:56.999Z</time>
      </trkpt>
      <trkpt lat="47.5009" lon="6.75978">
        <ele>425.4</ele>
        <time>2017-12-10T08:21:57.999Z</time>
      </trkpt>
      <trkpt lat="47.50085" lon="6.75973">
        <ele>425.5</ele>
        <time>2017-12-10T08:21:58.999Z</time>
      </trkpt>
      <trkpt lat="47.50083" lon="6.75967">
        <ele>425.2</ele>
        <time>2017-12-10T08:21:59.999Z</time>
      </trkpt>
      <trkpt lat="47.5008" lon="6.75963">
        <ele>424.9</ele>
        <time>2017-12-10T08:22:00.999Z</time>
      </trkpt>
      <trkpt lat="47.50076" lon="6.75957">
        <ele>424.4</ele>
        <time>2017-12-10T08:22:01.999Z</time>
      </trkpt>
      <trkpt lat="47.50072" lon="6.75951">
        <ele>424</ele>
        <time>2017-12-10T08:22:02.999Z</time>
      </trkpt>
      <trkpt lat="47.50069" lon="6.75944">
        <ele>423.6</ele>
        <time>2017-12-10T08:22:03.999Z</time>
      </trkpt>
      <trkpt lat="47.50065" lon="6.75934">
        <ele>423.4</ele>
        <time>2017-12-10T08:22:04.999Z</time>
      </trkpt>
      <trkpt lat="47.5006" lon="6.75926">
        <ele>423.4</ele>
        <time>2017-12-10T08:22:05.999Z</time>
      </trkpt>
      <trkpt lat="47.50056" lon="6.75922">
        <ele>422.6</ele>
        <time>2017-12-10T08:22:06.999Z</time>
      </trkpt>
      <trkpt lat="47.5005" lon="6.75916">
        <ele>421.6</ele>
        <time>2017-12-10T08:22:07.999Z</time>
      </trkpt>
      <trkpt lat="47.50046" lon="6.75909">
        <ele>419.8</ele>
        <time>2017-12-10T08:22:08.999Z</time>
      </trkpt>
      <trkpt lat="47.50041" lon="6.75904">
        <ele>418</ele>
        <time>2017-12-10T08:22:09.999Z</time>
      </trkpt>
      <trkpt lat="47.50036" lon="6.75898">
        <ele>417.2</ele>
        <time>2017-12-10T08:22:10.999Z</time>
      </trkpt>
      <trkpt lat="47.50032" lon="6.75891">
        <ele>415.5</ele>
        <time>2017-12-10T08:22:11.999Z</time>
      </trkpt>
      <trkpt lat="47.50028" lon="6.75885">
        <ele>414.2</ele>
        <time>2017-12-10T08:22:12.999Z</time>
      </trkpt>
      <trkpt lat="47.50025" lon="6.75881">
        <ele>413.1</ele>
        <time>2017-12-10T08:22:13.999Z</time>
      </trkpt>
      <trkpt lat="47.50023" lon="6.75874">
        <ele>411.8</ele>
        <time>2017-12-10T08:22:14.999Z</time>
      </trkpt>
      <trkpt lat="47.50019" lon="6.75868">
        <ele>410.2</ele>
        <time>2017-12-10T08:22:15.999Z</time>
      </trkpt>
      <trkpt lat="47.50015" lon="6.75862">
        <ele>409.3</ele>
        <time>2017-12-10T08:22:16.999Z</time>
      </trkpt>
      <trkpt lat="47.50008" lon="6.75851">
        <ele>408.6</ele>
        <time>2017-12-10T08:22:17.999Z</time>
      </trkpt>
      <trkpt lat="47.50003" lon="6.75843">
        <ele>407.2</ele>
        <time>2017-12-10T08:22:18.999Z</time>
      </trkpt>
      <trkpt lat="47.49998" lon="6.75832">
        <ele>406.9</ele>
        <time>2017-12-10T08:22:19.999Z</time>
      </trkpt>
      <trkpt lat="47.49992" lon="6.75823">
        <ele>407.4</ele>
        <time>2017-12-10T08:22:20.999Z</time>
      </trkpt>
      <trkpt lat="47.49987" lon="6.75816">
        <ele>407.1</ele>
        <time>2017-12-10T08:22:21.999Z</time>
      </trkpt>
      <trkpt lat="47.49981" lon="6.75806">
        <ele>407.6</ele>
        <time>2017-12-10T08:22:22.999Z</time>
      </trkpt>
      <trkpt lat="47.49976" lon="6.75798">
        <ele>407.9</ele>
        <time>2017-12-10T08:22:23.999Z</time>
      </trkpt>
      <trkpt lat="47.49973" lon="6.75793">
        <ele>407.9</ele>
        <time>2017-12-10T08:22:24.999Z</time>
      </trkpt>
      <trkpt lat="47.49967" lon="6.75788">
        <ele>407.9</ele>
        <time>2017-12-10T08:22:25.999Z</time>
      </trkpt>
      <trkpt lat="47.49961" lon="6.75779">
        <ele>407.9</ele>
        <time>2017-12-10T08:22:26.999Z</time>
      </trkpt>
      <trkpt lat="47.49953" lon="6.75769">
        <ele>407.6</ele>
        <time>2017-12-10T08:22:27.999Z</time>
      </trkpt>
      <trkpt lat="47.49949" lon="6.75764">
        <ele>406.8</ele>
        <time>2017-12-10T08:22:28.999Z</time>
      </trkpt>
      <trkpt lat="47.49945" lon="6.7576">
        <ele>406.6</ele>
        <time>2017-12-10T08:22:29.999Z</time>
      </trkpt>
      <trkpt lat="47.49941" lon="6.75753">
        <ele>406.6</ele>
        <time>2017-12-10T08:22:30.999Z</time>
      </trkpt>
      <trkpt lat="47.49938" lon="6.75749">
        <ele>406.6</ele>
        <time>2017-12-10T08:22:31.999Z</time>
      </trkpt>
      <trkpt lat="47.49933" lon="6.75742">
        <ele>406.6</ele>
        <time>2017-12-10T08:22:32.999Z</time>
      </trkpt>
      <trkpt lat="47.49929" lon="6.75735">
        <ele>407.4</ele>
        <time>2017-12-10T08:22:33.999Z</time>
      </trkpt>
      <trkpt lat="47.49925" lon="6.75729">
        <ele>407.4</ele>
        <time>2017-12-10T08:22:34.999Z</time>
      </trkpt>
      <trkpt lat="47.49919" lon="6.75721">
        <ele>406</ele>
        <time>2017-12-10T08:22:35.999Z</time>
      </trkpt>
      <trkpt lat="47.49911" lon="6.75716">
        <ele>405</ele>
        <time>2017-12-10T08:22:36.999Z</time>
      </trkpt>
      <trkpt lat="47.49904" lon="6.75715">
        <ele>404.5</ele>
        <time>2017-12-10T08:22:37.999Z</time>
      </trkpt>
      <trkpt lat="47.49896" lon="6.75717">
        <ele>403.4</ele>
        <time>2017-12-10T08:22:38.999Z</time>
      </trkpt>
      <trkpt lat="47.49887" lon="6.75719">
        <ele>402.5</ele>
        <time>2017-12-10T08:22:39.999Z</time>
      </trkpt>
      <trkpt lat="47.49877" lon="6.75719">
        <ele>401.7</ele>
        <time>2017-12-10T08:22:40.999Z</time>
      </trkpt>
      <trkpt lat="47.4987" lon="6.7572">
        <ele>400.5</ele>
        <time>2017-12-10T08:22:41.999Z</time>
      </trkpt>
      <trkpt lat="47.49865" lon="6.75722">
        <ele>400.3</ele>
        <time>2017-12-10T08:22:42.999Z</time>
      </trkpt>
      <trkpt lat="47.49859" lon="6.75726">
        <ele>400.2</ele>
        <time>2017-12-10T08:22:43.999Z</time>
      </trkpt>
      <trkpt lat="47.49852" lon="6.75729">
        <ele>400</ele>
        <time>2017-12-10T08:22:44.999Z</time>
      </trkpt>
      <trkpt lat="47.4984" lon="6.75729">
        <ele>399.4</ele>
        <time>2017-12-10T08:22:45.999Z</time>
      </trkpt>
      <trkpt lat="47.49831" lon="6.75731">
        <ele>398.8</ele>
        <time>2017-12-10T08:22:46.999Z</time>
      </trkpt>
      <trkpt lat="47.49823" lon="6.75733">
        <ele>399.5</ele>
        <time>2017-12-10T08:22:47.999Z</time>
      </trkpt>
      <trkpt lat="47.49816" lon="6.75734">
        <ele>400.1</ele>
        <time>2017-12-10T08:22:48.999Z</time>
      </trkpt>
      <trkpt lat="47.49809" lon="6.75734">
        <ele>400.3</ele>
        <time>2017-12-10T08:22:49.999Z</time>
      </trkpt>
      <trkpt lat="47.49801" lon="6.75737">
        <ele>400</ele>
        <time>2017-12-10T08:22:50.999Z</time>
      </trkpt>
      <trkpt lat="47.49793" lon="6.75739">
        <ele>399.9</ele>
        <time>2017-12-10T08:22:51.999Z</time>
      </trkpt>
      <trkpt lat="47.49785" lon="6.75741">
        <ele>399.9</ele>
        <time>2017-12-10T08:22:52.999Z</time>
      </trkpt>
      <trkpt lat="47.49777" lon="6.75742">
        <ele>400.2</ele>
        <time>2017-12-10T08:22:53.999Z</time>
      </trkpt>
      <trkpt lat="47.4977" lon="6.75743">
        <ele>400.2</ele>
        <time>2017-12-10T08:22:54.999Z</time>
      </trkpt>
      <trkpt lat="47.49763" lon="6.75744">
        <ele>399.2</ele>
        <time>2017-12-10T08:22:55.999Z</time>
      </trkpt>
      <trkpt lat="47.49757" lon="6.75746">
        <ele>397.6</ele>
        <time>2017-12-10T08:22:56.999Z</time>
      </trkpt>
      <trkpt lat="47.4975" lon="6.75748">
        <ele>396.4</ele>
        <time>2017-12-10T08:22:57.999Z</time>
      </trkpt>
      <trkpt lat="47.49743" lon="6.75751">
        <ele>395.5</ele>
        <time>2017-12-10T08:22:58.999Z</time>
      </trkpt>
      <trkpt lat="47.49736" lon="6.75753">
        <ele>395.6</ele>
        <time>2017-12-10T08:22:59.999Z</time>
      </trkpt>
      <trkpt lat="47.49729" lon="6.75755">
        <ele>395</ele>
        <time>2017-12-10T08:23:00.999Z</time>
      </trkpt>
      <trkpt lat="47.49724" lon="6.75757">
        <ele>395.2</ele>
        <time>2017-12-10T08:23:01.999Z</time>
      </trkpt>
      <trkpt lat="47.49719" lon="6.75758">
        <ele>395.2</ele>
        <time>2017-12-10T08:23:02.999Z</time>
      </trkpt>
      <trkpt lat="47.49713" lon="6.75759">
        <ele>395.5</ele>
        <time>2017-12-10T08:23:03.999Z</time>
      </trkpt>
      <trkpt lat="47.49707" lon="6.75761">
        <ele>395.5</ele>
        <time>2017-12-10T08:23:04.999Z</time>
      </trkpt>
      <trkpt lat="47.49702" lon="6.75764">
        <ele>395.7</ele>
        <time>2017-12-10T08:23:05.999Z</time>
      </trkpt>
      <trkpt lat="47.49697" lon="6.75766">
        <ele>395.7</ele>
        <time>2017-12-10T08:23:06.999Z</time>
      </trkpt>
      <trkpt lat="47.49692" lon="6.75768">
        <ele>395.3</ele>
        <time>2017-12-10T08:23:07.999Z</time>
      </trkpt>
      <trkpt lat="47.49686" lon="6.75769">
        <ele>394.5</ele>
        <time>2017-12-10T08:23:08.999Z</time>
      </trkpt>
      <trkpt lat="47.49681" lon="6.75771">
        <ele>393.3</ele>
        <time>2017-12-10T08:23:09.999Z</time>
      </trkpt>
      <trkpt lat="47.49676" lon="6.75773">
        <ele>391.7</ele>
        <time>2017-12-10T08:23:10.999Z</time>
      </trkpt>
      <trkpt lat="47.49671" lon="6.75773">
        <ele>390.8</ele>
        <time>2017-12-10T08:23:11.999Z</time>
      </trkpt>
      <trkpt lat="47.49664" lon="6.75774">
        <ele>390.6</ele>
        <time>2017-12-10T08:23:12.999Z</time>
      </trkpt>
      <trkpt lat="47.49658" lon="6.75773">
        <ele>390.7</ele>
        <time>2017-12-10T08:23:13.999Z</time>
      </trkpt>
      <trkpt lat="47.49652" lon="6.75773">
        <ele>389.3</ele>
        <time>2017-12-10T08:23:14.999Z</time>
      </trkpt>
      <trkpt lat="47.49646" lon="6.75774">
        <ele>387.9</ele>
        <time>2017-12-10T08:23:15.999Z</time>
      </trkpt>
      <trkpt lat="47.4964" lon="6.75774">
        <ele>385.7</ele>
        <time>2017-12-10T08:23:16.999Z</time>
      </trkpt>
      <trkpt lat="47.49634" lon="6.75773">
        <ele>385.2</ele>
        <time>2017-12-10T08:23:17.999Z</time>
      </trkpt>
      <trkpt lat="47.49628" lon="6.75773">
        <ele>384.9</ele>
        <time>2017-12-10T08:23:18.999Z</time>
      </trkpt>
      <trkpt lat="47.49622" lon="6.75772">
        <ele>384.7</ele>
        <time>2017-12-10T08:23:19.999Z</time>
      </trkpt>
      <trkpt lat="47.49616" lon="6.75772">
        <ele>384.8</ele>
        <time>2017-12-10T08:23:20.999Z</time>
      </trkpt>
      <trkpt lat="47.49612" lon="6.75773">
        <ele>384.8</ele>
        <time>2017-12-10T08:23:21.999Z</time>
      </trkpt>
      <trkpt lat="47.49607" lon="6.75773">
        <ele>384.7</ele>
        <time>2017-12-10T08:23:22.999Z</time>
      </trkpt>
      <trkpt lat="47.49602" lon="6.75775">
        <ele>384.7</ele>
        <time>2017-12-10T08:23:23.999Z</time>
      </trkpt>
      <trkpt lat="47.49599" lon="6.75776">
        <ele>383.2</ele>
        <time>2017-12-10T08:23:32.999Z</time>
      </trkpt>
      <trkpt lat="47.49589" lon="6.75771">
        <ele>383</ele>
        <time>2017-12-10T08:23:33.999Z</time>
      </trkpt>
      <trkpt lat="47.49589" lon="6.75771">
        <ele>382.8</ele>
        <time>2017-12-10T08:23:34.999Z</time>
      </trkpt>
      <trkpt lat="47.49579" lon="6.7577">
        <ele>382.6</ele>
        <time>2017-12-10T08:23:35.999Z</time>
      </trkpt>
      <trkpt lat="47.49574" lon="6.7577">
        <ele>382.3</ele>
        <time>2017-12-10T08:23:36.999Z</time>
      </trkpt>
      <trkpt lat="47.49569" lon="6.75771">
        <ele>382.1</ele>
        <time>2017-12-10T08:23:37.999Z</time>
      </trkpt>
      <trkpt lat="47.49564" lon="6.75771">
        <ele>381.9</ele>
        <time>2017-12-10T08:23:38.999Z</time>
      </trkpt>
      <trkpt lat="47.4956" lon="6.7577">
        <ele>381.7</ele>
        <time>2017-12-10T08:23:39.999Z</time>
      </trkpt>
      <trkpt lat="47.49556" lon="6.75768">
        <ele>380.5</ele>
        <time>2017-12-10T08:23:40.999Z</time>
      </trkpt>
      <trkpt lat="47.49552" lon="6.75765">
        <ele>380.3</ele>
        <time>2017-12-10T08:23:41.999Z</time>
      </trkpt>
      <trkpt lat="47.49551" lon="6.75762">
        <ele>380.2</ele>
        <time>2017-12-10T08:23:42.999Z</time>
      </trkpt>
      <trkpt lat="47.49549" lon="6.75757">
        <ele>380</ele>
        <time>2017-12-10T08:23:43.999Z</time>
      </trkpt>
      <trkpt lat="47.4955" lon="6.75752">
        <ele>379.7</ele>
        <time>2017-12-10T08:23:44.999Z</time>
      </trkpt>
      <trkpt lat="47.49553" lon="6.75748">
        <ele>379.5</ele>
        <time>2017-12-10T08:23:45.999Z</time>
      </trkpt>
      <trkpt lat="47.49555" lon="6.75745">
        <ele>379.2</ele>
        <time>2017-12-10T08:23:46.999Z</time>
      </trkpt>
      <trkpt lat="47.49559" lon="6.75743">
        <ele>378.9</ele>
        <time>2017-12-10T08:23:47.999Z</time>
      </trkpt>
      <trkpt lat="47.49563" lon="6.75741">
        <ele>378.7</ele>
        <time>2017-12-10T08:23:48.999Z</time>
      </trkpt>
      <trkpt lat="47.49566" lon="6.75737">
        <ele>375.8</ele>
        <time>2017-12-10T08:23:49.999Z</time>
      </trkpt>
      <trkpt lat="47.4957" lon="6.75735">
        <ele>375.6</ele>
        <time>2017-12-10T08:23:50.999Z</time>
      </trkpt>
      <trkpt lat="47.49574" lon="6.75734">
        <ele>373.8</ele>
        <time>2017-12-10T08:23:51.999Z</time>
      </trkpt>
      <trkpt lat="47.49577" lon="6.75732">
        <ele>372.3</ele>
        <time>2017-12-10T08:23:52.999Z</time>
      </trkpt>
      <trkpt lat="47.49581" lon="6.75729">
        <ele>370.8</ele>
        <time>2017-12-10T08:23:53.999Z</time>
      </trkpt>
      <trkpt lat="47.49585" lon="6.75727">
        <ele>369.5</ele>
        <time>2017-12-10T08:23:54.999Z</time>
      </trkpt>
      <trkpt lat="47.49589" lon="6.75723">
        <ele>368.9</ele>
        <time>2017-12-10T08:23:55.999Z</time>
      </trkpt>
      <trkpt lat="47.49591" lon="6.75719">
        <ele>368.8</ele>
        <time>2017-12-10T08:23:56.999Z</time>
      </trkpt>
      <trkpt lat="47.49592" lon="6.75715">
        <ele>368.8</ele>
        <time>2017-12-10T08:23:57.999Z</time>
      </trkpt>
      <trkpt lat="47.49592" lon="6.75711">
        <ele>368.8</ele>
        <time>2017-12-10T08:23:58.999Z</time>
      </trkpt>
      <trkpt lat="47.49593" lon="6.75706">
        <ele>368.7</ele>
        <time>2017-12-10T08:23:59.999Z</time>
      </trkpt>
      <trkpt lat="47.49593" lon="6.757">
        <ele>368.6</ele>
        <time>2017-12-10T08:24:00.999Z</time>
      </trkpt>
      <trkpt lat="47.49593" lon="6.75694">
        <ele>367.8</ele>
        <time>2017-12-10T08:24:01.999Z</time>
      </trkpt>
      <trkpt lat="47.49593" lon="6.75686">
        <ele>367.9</ele>
        <time>2017-12-10T08:24:02.999Z</time>
      </trkpt>
      <trkpt lat="47.49589" lon="6.7568">
        <ele>367.3</ele>
        <time>2017-12-10T08:24:03.999Z</time>
      </trkpt>
      <trkpt lat="47.49586" lon="6.75675">
        <ele>366.6</ele>
        <time>2017-12-10T08:24:04.999Z</time>
      </trkpt>
      <trkpt lat="47.49583" lon="6.75669">
        <ele>366.5</ele>
        <time>2017-12-10T08:24:05.999Z</time>
      </trkpt>
      <trkpt lat="47.4958" lon="6.75665">
        <ele>366.9</ele>
        <time>2017-12-10T08:24:06.999Z</time>
      </trkpt>
      <trkpt lat="47.49576" lon="6.75663">
        <ele>366.9</ele>
        <time>2017-12-10T08:24:07.999Z</time>
      </trkpt>
      <trkpt lat="47.4957" lon="6.75662">
        <ele>366.9</ele>
        <time>2017-12-10T08:24:08.999Z</time>
      </trkpt>
      <trkpt lat="47.49565" lon="6.75662">
        <ele>365.9</ele>
        <time>2017-12-10T08:24:09.999Z</time>
      </trkpt>
      <trkpt lat="47.49562" lon="6.75667">
        <ele>365.7</ele>
        <time>2017-12-10T08:24:10.999Z</time>
      </trkpt>
      <trkpt lat="47.49559" lon="6.75672">
        <ele>365.5</ele>
        <time>2017-12-10T08:24:11.999Z</time>
      </trkpt>
      <trkpt lat="47.49555" lon="6.75677">
        <ele>365.3</ele>
        <time>2017-12-10T08:24:12.999Z</time>
      </trkpt>
      <trkpt lat="47.49552" lon="6.75684">
        <ele>365.5</ele>
        <time>2017-12-10T08:24:13.999Z</time>
      </trkpt>
      <trkpt lat="47.49548" lon="6.75689">
        <ele>365</ele>
        <time>2017-12-10T08:24:14.999Z</time>
      </trkpt>
      <trkpt lat="47.49545" lon="6.75695">
        <ele>365.1</ele>
        <time>2017-12-10T08:24:15.999Z</time>
      </trkpt>
      <trkpt lat="47.49542" lon="6.757">
        <ele>365.2</ele>
        <time>2017-12-10T08:24:16.999Z</time>
      </trkpt>
      <trkpt lat="47.49538" lon="6.75705">
        <ele>365.2</ele>
        <time>2017-12-10T08:24:17.999Z</time>
      </trkpt>
      <trkpt lat="47.49534" lon="6.7571">
        <ele>365.6</ele>
        <time>2017-12-10T08:24:18.999Z</time>
      </trkpt>
      <trkpt lat="47.4953" lon="6.75714">
        <ele>365.3</ele>
        <time>2017-12-10T08:24:19.999Z</time>
      </trkpt>
      <trkpt lat="47.49525" lon="6.75717">
        <ele>365.2</ele>
        <time>2017-12-10T08:24:20.999Z</time>
      </trkpt>
      <trkpt lat="47.49521" lon="6.75719">
        <ele>365.4</ele>
        <time>2017-12-10T08:24:21.999Z</time>
      </trkpt>
      <trkpt lat="47.49516" lon="6.75722">
        <ele>365.2</ele>
        <time>2017-12-10T08:24:22.999Z</time>
      </trkpt>
      <trkpt lat="47.49511" lon="6.75724">
        <ele>364.9</ele>
        <time>2017-12-10T08:24:23.999Z</time>
      </trkpt>
      <trkpt lat="47.49506" lon="6.75727">
        <ele>364.8</ele>
        <time>2017-12-10T08:24:24.999Z</time>
      </trkpt>
      <trkpt lat="47.49502" lon="6.75729">
        <ele>364.3</ele>
        <time>2017-12-10T08:24:25.999Z</time>
      </trkpt>
      <trkpt lat="47.49497" lon="6.75732">
        <ele>363.7</ele>
        <time>2017-12-10T08:24:26.999Z</time>
      </trkpt>
      <trkpt lat="47.49491" lon="6.75732">
        <ele>363.6</ele>
        <time>2017-12-10T08:24:27.999Z</time>
      </trkpt>
      <trkpt lat="47.49485" lon="6.75729">
        <ele>363.2</ele>
        <time>2017-12-10T08:24:28.999Z</time>
      </trkpt>
      <trkpt lat="47.49482" lon="6.75726">
        <ele>363.2</ele>
        <time>2017-12-10T08:24:29.999Z</time>
      </trkpt>
      <trkpt lat="47.49478" lon="6.75721">
        <ele>363.3</ele>
        <time>2017-12-10T08:24:30.999Z</time>
      </trkpt>
      <trkpt lat="47.49476" lon="6.75717">
        <ele>363.4</ele>
        <time>2017-12-10T08:24:31.999Z</time>
      </trkpt>
      <trkpt lat="47.49474" lon="6.75714">
        <ele>363.4</ele>
        <time>2017-12-10T08:24:32.999Z</time>
      </trkpt>
      <trkpt lat="47.49472" lon="6.7571">
        <ele>363.5</ele>
        <time>2017-12-10T08:24:33.999Z</time>
      </trkpt>
      <trkpt lat="47.4947" lon="6.75705">
        <ele>363.8</ele>
        <time>2017-12-10T08:24:34.999Z</time>
      </trkpt>
      <trkpt lat="47.49468" lon="6.757">
        <ele>363.7</ele>
        <time>2017-12-10T08:24:35.999Z</time>
      </trkpt>
      <trkpt lat="47.49466" lon="6.75697">
        <ele>363.7</ele>
        <time>2017-12-10T08:24:36.999Z</time>
      </trkpt>
      <trkpt lat="47.49462" lon="6.75694">
        <ele>363.3</ele>
        <time>2017-12-10T08:24:37.999Z</time>
      </trkpt>
      <trkpt lat="47.49459" lon="6.75694">
        <ele>363.2</ele>
        <time>2017-12-10T08:24:38.999Z</time>
      </trkpt>
      <trkpt lat="47.49455" lon="6.75695">
        <ele>362.5</ele>
        <time>2017-12-10T08:24:39.999Z</time>
      </trkpt>
      <trkpt lat="47.49453" lon="6.75697">
        <ele>362.5</ele>
        <time>2017-12-10T08:24:40.999Z</time>
      </trkpt>
      <trkpt lat="47.4945" lon="6.75698">
        <ele>362.5</ele>
        <time>2017-12-10T08:24:41.999Z</time>
      </trkpt>
      <trkpt lat="47.49448" lon="6.75697">
        <ele>362.5</ele>
        <time>2017-12-10T08:24:42.999Z</time>
      </trkpt>
      <trkpt lat="47.49445" lon="6.75693">
        <ele>362.5</ele>
        <time>2017-12-10T08:24:43.999Z</time>
      </trkpt>
      <trkpt lat="47.49443" lon="6.75688">
        <ele>362.7</ele>
        <time>2017-12-10T08:24:44.999Z</time>
      </trkpt>
      <trkpt lat="47.49441" lon="6.75684">
        <ele>363.6</ele>
        <time>2017-12-10T08:24:45.999Z</time>
      </trkpt>
      <trkpt lat="47.4944" lon="6.7568">
        <ele>363.7</ele>
        <time>2017-12-10T08:24:46.999Z</time>
      </trkpt>
      <trkpt lat="47.49438" lon="6.75675">
        <ele>363.8</ele>
        <time>2017-12-10T08:24:47.999Z</time>
      </trkpt>
      <trkpt lat="47.49436" lon="6.75671">
        <ele>363.8</ele>
        <time>2017-12-10T08:24:48.999Z</time>
      </trkpt>
      <trkpt lat="47.49433" lon="6.7567">
        <ele>363.9</ele>
        <time>2017-12-10T08:24:49.999Z</time>
      </trkpt>
      <trkpt lat="47.4943" lon="6.75671">
        <ele>363.9</ele>
        <time>2017-12-10T08:24:50.999Z</time>
      </trkpt>
      <trkpt lat="47.49426" lon="6.75673">
        <ele>363.8</ele>
        <time>2017-12-10T08:24:51.999Z</time>
      </trkpt>
      <trkpt lat="47.49422" lon="6.75675">
        <ele>362.9</ele>
        <time>2017-12-10T08:24:52.999Z</time>
      </trkpt>
      <trkpt lat="47.49417" lon="6.75679">
        <ele>361.8</ele>
        <time>2017-12-10T08:24:53.999Z</time>
      </trkpt>
      <trkpt lat="47.49413" lon="6.75681">
        <ele>360.9</ele>
        <time>2017-12-10T08:24:54.999Z</time>
      </trkpt>
      <trkpt lat="47.49407" lon="6.75685">
        <ele>360.6</ele>
        <time>2017-12-10T08:24:55.999Z</time>
      </trkpt>
      <trkpt lat="47.49403" lon="6.75688">
        <ele>360.7</ele>
        <time>2017-12-10T08:24:56.999Z</time>
      </trkpt>
      <trkpt lat="47.49399" lon="6.75691">
        <ele>361.3</ele>
        <time>2017-12-10T08:24:57.999Z</time>
      </trkpt>
      <trkpt lat="47.49395" lon="6.75693">
        <ele>361.3</ele>
        <time>2017-12-10T08:24:58.999Z</time>
      </trkpt>
      <trkpt lat="47.49391" lon="6.75697">
        <ele>361.7</ele>
        <time>2017-12-10T08:24:59.999Z</time>
      </trkpt>
      <trkpt lat="47.49387" lon="6.757">
        <ele>362.1</ele>
        <time>2017-12-10T08:25:00.999Z</time>
      </trkpt>
      <trkpt lat="47.49384" lon="6.75702">
        <ele>362.1</ele>
        <time>2017-12-10T08:25:01.999Z</time>
      </trkpt>
      <trkpt lat="47.49379" lon="6.75705">
        <ele>362</ele>
        <time>2017-12-10T08:25:02.999Z</time>
      </trkpt>
      <trkpt lat="47.49374" lon="6.75709">
        <ele>361.3</ele>
        <time>2017-12-10T08:25:03.999Z</time>
      </trkpt>
      <trkpt lat="47.4937" lon="6.75711">
        <ele>361.2</ele>
        <time>2017-12-10T08:25:04.999Z</time>
      </trkpt>
      <trkpt lat="47.49368" lon="6.75712">
        <ele>361.2</ele>
        <time>2017-12-10T08:25:05.999Z</time>
      </trkpt>
      <trkpt lat="47.49364" lon="6.75715">
        <ele>361.2</ele>
        <time>2017-12-10T08:25:07.999Z</time>
      </trkpt>
      <trkpt lat="47.49362" lon="6.75717">
        <ele>361</ele>
        <time>2017-12-10T08:25:08.999Z</time>
      </trkpt>
      <trkpt lat="47.4936" lon="6.75718">
        <ele>361</ele>
        <time>2017-12-10T08:25:09.999Z</time>
      </trkpt>
      <trkpt lat="47.49358" lon="6.75721">
        <ele>360.9</ele>
        <time>2017-12-10T08:25:10.999Z</time>
      </trkpt>
      <trkpt lat="47.49355" lon="6.75723">
        <ele>360.8</ele>
        <time>2017-12-10T08:25:11.999Z</time>
      </trkpt>
      <trkpt lat="47.49353" lon="6.75724">
        <ele>360.7</ele>
        <time>2017-12-10T08:25:12.999Z</time>
      </trkpt>
      <trkpt lat="47.49348" lon="6.75726">
        <ele>360.3</ele>
        <time>2017-12-10T08:25:13.999Z</time>
      </trkpt>
      <trkpt lat="47.49343" lon="6.75728">
        <ele>359.1</ele>
        <time>2017-12-10T08:25:14.999Z</time>
      </trkpt>
      <trkpt lat="47.49337" lon="6.75732">
        <ele>357.5</ele>
        <time>2017-12-10T08:25:15.999Z</time>
      </trkpt>
      <trkpt lat="47.49332" lon="6.75735">
        <ele>356.5</ele>
        <time>2017-12-10T08:25:16.999Z</time>
      </trkpt>
      <trkpt lat="47.49327" lon="6.75739">
        <ele>355.8</ele>
        <time>2017-12-10T08:25:17.999Z</time>
      </trkpt>
      <trkpt lat="47.49323" lon="6.75743">
        <ele>354.8</ele>
        <time>2017-12-10T08:25:18.999Z</time>
      </trkpt>
      <trkpt lat="47.49319" lon="6.75746">
        <ele>354.1</ele>
        <time>2017-12-10T08:25:19.999Z</time>
      </trkpt>
      <trkpt lat="47.49315" lon="6.75749">
        <ele>354.1</ele>
        <time>2017-12-10T08:25:20.999Z</time>
      </trkpt>
      <trkpt lat="47.49312" lon="6.75752">
        <ele>354.1</ele>
        <time>2017-12-10T08:25:21.999Z</time>
      </trkpt>
      <trkpt lat="47.49307" lon="6.75756">
        <ele>353.4</ele>
        <time>2017-12-10T08:25:22.999Z</time>
      </trkpt>
      <trkpt lat="47.49304" lon="6.7576">
        <ele>353.2</ele>
        <time>2017-12-10T08:25:23.999Z</time>
      </trkpt>
      <trkpt lat="47.49301" lon="6.75765">
        <ele>353</ele>
        <time>2017-12-10T08:25:24.999Z</time>
      </trkpt>
      <trkpt lat="47.49296" lon="6.75769">
        <ele>350.6</ele>
        <time>2017-12-10T08:25:25.999Z</time>
      </trkpt>
      <trkpt lat="47.49292" lon="6.75775">
        <ele>348.8</ele>
        <time>2017-12-10T08:25:26.999Z</time>
      </trkpt>
      <trkpt lat="47.49288" lon="6.7578">
        <ele>347.5</ele>
        <time>2017-12-10T08:25:27.999Z</time>
      </trkpt>
      <trkpt lat="47.49284" lon="6.75785">
        <ele>346.4</ele>
        <time>2017-12-10T08:25:28.999Z</time>
      </trkpt>
      <trkpt lat="47.4928" lon="6.75791">
        <ele>346.5</ele>
        <time>2017-12-10T08:25:29.999Z</time>
      </trkpt>
      <trkpt lat="47.49275" lon="6.75798">
        <ele>346.4</ele>
        <time>2017-12-10T08:25:30.999Z</time>
      </trkpt>
      <trkpt lat="47.49271" lon="6.75804">
        <ele>347.2</ele>
        <time>2017-12-10T08:25:31.999Z</time>
      </trkpt>
      <trkpt lat="47.49267" lon="6.7581">
        <ele>348.1</ele>
        <time>2017-12-10T08:25:32.999Z</time>
      </trkpt>
      <trkpt lat="47.49263" lon="6.75817">
        <ele>349.7</ele>
        <time>2017-12-10T08:25:33.999Z</time>
      </trkpt>
      <trkpt lat="47.4926" lon="6.75824">
        <ele>350.9</ele>
        <time>2017-12-10T08:25:34.999Z</time>
      </trkpt>
      <trkpt lat="47.49257" lon="6.7583">
        <ele>352.7</ele>
        <time>2017-12-10T08:25:35.999Z</time>
      </trkpt>
      <trkpt lat="47.49254" lon="6.75836">
        <ele>354.4</ele>
        <time>2017-12-10T08:25:36.999Z</time>
      </trkpt>
      <trkpt lat="47.4925" lon="6.75842">
        <ele>354.5</ele>
        <time>2017-12-10T08:25:37.999Z</time>
      </trkpt>
      <trkpt lat="47.49247" lon="6.75849">
        <ele>354.7</ele>
        <time>2017-12-10T08:25:38.999Z</time>
      </trkpt>
      <trkpt lat="47.49245" lon="6.75855">
        <ele>354.7</ele>
        <time>2017-12-10T08:25:39.999Z</time>
      </trkpt>
      <trkpt lat="47.49241" lon="6.75861">
        <ele>355.6</ele>
        <time>2017-12-10T08:25:40.999Z</time>
      </trkpt>
      <trkpt lat="47.49237" lon="6.75869">
        <ele>355.8</ele>
        <time>2017-12-10T08:25:41.999Z</time>
      </trkpt>
      <trkpt lat="47.49233" lon="6.75877">
        <ele>356</ele>
        <time>2017-12-10T08:25:42.999Z</time>
      </trkpt>
      <trkpt lat="47.49231" lon="6.75882">
        <ele>356</ele>
        <time>2017-12-10T08:25:43.999Z</time>
      </trkpt>
      <trkpt lat="47.49228" lon="6.75888">
        <ele>356.1</ele>
        <time>2017-12-10T08:25:44.999Z</time>
      </trkpt>
      <trkpt lat="47.49225" lon="6.75895">
        <ele>355.3</ele>
        <time>2017-12-10T08:25:45.999Z</time>
      </trkpt>
      <trkpt lat="47.49221" lon="6.75902">
        <ele>354.7</ele>
        <time>2017-12-10T08:25:46.999Z</time>
      </trkpt>
      <trkpt lat="47.49217" lon="6.7591">
        <ele>354.8</ele>
        <time>2017-12-10T08:25:47.999Z</time>
      </trkpt>
      <trkpt lat="47.49213" lon="6.75918">
        <ele>353.1</ele>
        <time>2017-12-10T08:25:48.999Z</time>
      </trkpt>
      <trkpt lat="47.4921" lon="6.75926">
        <ele>352.4</ele>
        <time>2017-12-10T08:25:49.999Z</time>
      </trkpt>
      <trkpt lat="47.49207" lon="6.75933">
        <ele>351.7</ele>
        <time>2017-12-10T08:25:50.999Z</time>
      </trkpt>
      <trkpt lat="47.49204" lon="6.75939">
        <ele>351.6</ele>
        <time>2017-12-10T08:25:51.999Z</time>
      </trkpt>
      <trkpt lat="47.49201" lon="6.75945">
        <ele>351.5</ele>
        <time>2017-12-10T08:25:52.999Z</time>
      </trkpt>
      <trkpt lat="47.49199" lon="6.7595">
        <ele>351.3</ele>
        <time>2017-12-10T08:25:53.999Z</time>
      </trkpt>
      <trkpt lat="47.49195" lon="6.75957">
        <ele>351.2</ele>
        <time>2017-12-10T08:25:54.999Z</time>
      </trkpt>
      <trkpt lat="47.49192" lon="6.75963">
        <ele>350</ele>
        <time>2017-12-10T08:25:55.999Z</time>
      </trkpt>
      <trkpt lat="47.49189" lon="6.75968">
        <ele>349</ele>
        <time>2017-12-10T08:25:56.999Z</time>
      </trkpt>
      <trkpt lat="47.49185" lon="6.75975">
        <ele>347.6</ele>
        <time>2017-12-10T08:25:57.999Z</time>
      </trkpt>
      <trkpt lat="47.4918" lon="6.75982">
        <ele>346</ele>
        <time>2017-12-10T08:25:58.999Z</time>
      </trkpt>
      <trkpt lat="47.49177" lon="6.75988">
        <ele>343.5</ele>
        <time>2017-12-10T08:25:59.999Z</time>
      </trkpt>
      <trkpt lat="47.49174" lon="6.75995">
        <ele>343.1</ele>
        <time>2017-12-10T08:26:00.999Z</time>
      </trkpt>
      <trkpt lat="47.49171" lon="6.76003">
        <ele>343.9</ele>
        <time>2017-12-10T08:26:01.999Z</time>
      </trkpt>
      <trkpt lat="47.49168" lon="6.76009">
        <ele>344.9</ele>
        <time>2017-12-10T08:26:02.999Z</time>
      </trkpt>
      <trkpt lat="47.49163" lon="6.76018">
        <ele>345.2</ele>
        <time>2017-12-10T08:26:03.999Z</time>
      </trkpt>
      <trkpt lat="47.49158" lon="6.76027">
        <ele>345.3</ele>
        <time>2017-12-10T08:26:04.999Z</time>
      </trkpt>
      <trkpt lat="47.49153" lon="6.76036">
        <ele>345.8</ele>
        <time>2017-12-10T08:26:05.999Z</time>
      </trkpt>
      <trkpt lat="47.49149" lon="6.76044">
        <ele>345.8</ele>
        <time>2017-12-10T08:26:06.999Z</time>
      </trkpt>
      <trkpt lat="47.49146" lon="6.76052">
        <ele>346.1</ele>
        <time>2017-12-10T08:26:07.999Z</time>
      </trkpt>
      <trkpt lat="47.49143" lon="6.7606">
        <ele>346.5</ele>
        <time>2017-12-10T08:26:08.999Z</time>
      </trkpt>
      <trkpt lat="47.49141" lon="6.76067">
        <ele>347</ele>
        <time>2017-12-10T08:26:09.999Z</time>
      </trkpt>
      <trkpt lat="47.49138" lon="6.76075">
        <ele>347</ele>
        <time>2017-12-10T08:26:10.999Z</time>
      </trkpt>
      <trkpt lat="47.49136" lon="6.76081">
        <ele>346.8</ele>
        <time>2017-12-10T08:26:11.999Z</time>
      </trkpt>
      <trkpt lat="47.49134" lon="6.76089">
        <ele>345.7</ele>
        <time>2017-12-10T08:26:12.999Z</time>
      </trkpt>
      <trkpt lat="47.49132" lon="6.76096">
        <ele>344.9</ele>
        <time>2017-12-10T08:26:13.999Z</time>
      </trkpt>
      <trkpt lat="47.4913" lon="6.76103">
        <ele>344.1</ele>
        <time>2017-12-10T08:26:14.999Z</time>
      </trkpt>
      <trkpt lat="47.49128" lon="6.7611">
        <ele>344</ele>
        <time>2017-12-10T08:26:15.999Z</time>
      </trkpt>
      <trkpt lat="47.49127" lon="6.76117">
        <ele>344</ele>
        <time>2017-12-10T08:26:16.999Z</time>
      </trkpt>
      <trkpt lat="47.49125" lon="6.76124">
        <ele>344.6</ele>
        <time>2017-12-10T08:26:17.999Z</time>
      </trkpt>
      <trkpt lat="47.49123" lon="6.76133">
        <ele>344.9</ele>
        <time>2017-12-10T08:26:18.999Z</time>
      </trkpt>
      <trkpt lat="47.49122" lon="6.76142">
        <ele>345.6</ele>
        <time>2017-12-10T08:26:19.999Z</time>
      </trkpt>
      <trkpt lat="47.4912" lon="6.76148">
        <ele>346.1</ele>
        <time>2017-12-10T08:26:20.999Z</time>
      </trkpt>
      <trkpt lat="47.4912" lon="6.76154">
        <ele>346.1</ele>
        <time>2017-12-10T08:26:21.999Z</time>
      </trkpt>
      <trkpt lat="47.49119" lon="6.76163">
        <ele>346</ele>
        <time>2017-12-10T08:26:22.999Z</time>
      </trkpt>
      <trkpt lat="47.49118" lon="6.76172">
        <ele>345.8</ele>
        <time>2017-12-10T08:26:23.999Z</time>
      </trkpt>
      <trkpt lat="47.49118" lon="6.76181">
        <ele>345.2</ele>
        <time>2017-12-10T08:26:24.999Z</time>
      </trkpt>
      <trkpt lat="47.49117" lon="6.76188">
        <ele>345.1</ele>
        <time>2017-12-10T08:26:25.999Z</time>
      </trkpt>
      <trkpt lat="47.49118" lon="6.76194">
        <ele>345</ele>
        <time>2017-12-10T08:26:26.999Z</time>
      </trkpt>
      <trkpt lat="47.49119" lon="6.76201">
        <ele>344.8</ele>
        <time>2017-12-10T08:26:27.999Z</time>
      </trkpt>
      <trkpt lat="47.4912" lon="6.76209">
        <ele>344.5</ele>
        <time>2017-12-10T08:26:28.999Z</time>
      </trkpt>
      <trkpt lat="47.4912" lon="6.76218">
        <ele>344.6</ele>
        <time>2017-12-10T08:26:29.999Z</time>
      </trkpt>
      <trkpt lat="47.4912" lon="6.76225">
        <ele>345</ele>
        <time>2017-12-10T08:26:30.999Z</time>
      </trkpt>
      <trkpt lat="47.49121" lon="6.76232">
        <ele>344.9</ele>
        <time>2017-12-10T08:26:31.999Z</time>
      </trkpt>
      <trkpt lat="47.49122" lon="6.76243">
        <ele>345</ele>
        <time>2017-12-10T08:26:32.999Z</time>
      </trkpt>
      <trkpt lat="47.49122" lon="6.76253">
        <ele>345.9</ele>
        <time>2017-12-10T08:26:33.999Z</time>
      </trkpt>
      <trkpt lat="47.49123" lon="6.7626">
        <ele>346.5</ele>
        <time>2017-12-10T08:26:34.999Z</time>
      </trkpt>
      <trkpt lat="47.49123" lon="6.76267">
        <ele>346.5</ele>
        <time>2017-12-10T08:26:35.999Z</time>
      </trkpt>
      <trkpt lat="47.49123" lon="6.76274">
        <ele>346.4</ele>
        <time>2017-12-10T08:26:36.999Z</time>
      </trkpt>
      <trkpt lat="47.49124" lon="6.7628">
        <ele>346.4</ele>
        <time>2017-12-10T08:26:37.999Z</time>
      </trkpt>
      <trkpt lat="47.49124" lon="6.76286">
        <ele>346.3</ele>
        <time>2017-12-10T08:26:38.999Z</time>
      </trkpt>
      <trkpt lat="47.49125" lon="6.76293">
        <ele>346</ele>
        <time>2017-12-10T08:26:39.999Z</time>
      </trkpt>
      <trkpt lat="47.49125" lon="6.76302">
        <ele>345.7</ele>
        <time>2017-12-10T08:26:40.999Z</time>
      </trkpt>
      <trkpt lat="47.49125" lon="6.7631">
        <ele>346.5</ele>
        <time>2017-12-10T08:26:41.999Z</time>
      </trkpt>
      <trkpt lat="47.49125" lon="6.76319">
        <ele>347.3</ele>
        <time>2017-12-10T08:26:42.999Z</time>
      </trkpt>
      <trkpt lat="47.49125" lon="6.76328">
        <ele>348.8</ele>
        <time>2017-12-10T08:26:43.999Z</time>
      </trkpt>
      <trkpt lat="47.49125" lon="6.76337">
        <ele>350</ele>
        <time>2017-12-10T08:26:44.999Z</time>
      </trkpt>
      <trkpt lat="47.49126" lon="6.76345">
        <ele>350.1</ele>
        <time>2017-12-10T08:26:45.999Z</time>
      </trkpt>
      <trkpt lat="47.49126" lon="6.76352">
        <ele>351.2</ele>
        <time>2017-12-10T08:26:46.999Z</time>
      </trkpt>
      <trkpt lat="47.49127" lon="6.7636">
        <ele>351.9</ele>
        <time>2017-12-10T08:26:47.999Z</time>
      </trkpt>
      <trkpt lat="47.49128" lon="6.7637">
        <ele>352.7</ele>
        <time>2017-12-10T08:26:48.999Z</time>
      </trkpt>
      <trkpt lat="47.49127" lon="6.76377">
        <ele>353.6</ele>
        <time>2017-12-10T08:26:49.999Z</time>
      </trkpt>
      <trkpt lat="47.49126" lon="6.76387">
        <ele>354.5</ele>
        <time>2017-12-10T08:26:50.999Z</time>
      </trkpt>
      <trkpt lat="47.49125" lon="6.76397">
        <ele>356</ele>
        <time>2017-12-10T08:26:51.999Z</time>
      </trkpt>
      <trkpt lat="47.49125" lon="6.76405">
        <ele>357.4</ele>
        <time>2017-12-10T08:26:52.999Z</time>
      </trkpt>
      <trkpt lat="47.49125" lon="6.76414">
        <ele>358.2</ele>
        <time>2017-12-10T08:26:53.999Z</time>
      </trkpt>
      <trkpt lat="47.49125" lon="6.76423">
        <ele>359.2</ele>
        <time>2017-12-10T08:26:54.999Z</time>
      </trkpt>
      <trkpt lat="47.49125" lon="6.76431">
        <ele>359.5</ele>
        <time>2017-12-10T08:26:55.999Z</time>
      </trkpt>
      <trkpt lat="47.49125" lon="6.76439">
        <ele>360</ele>
        <time>2017-12-10T08:26:56.999Z</time>
      </trkpt>
      <trkpt lat="47.49124" lon="6.76447">
        <ele>360.2</ele>
        <time>2017-12-10T08:26:57.999Z</time>
      </trkpt>
      <trkpt lat="47.49124" lon="6.76454">
        <ele>360.4</ele>
        <time>2017-12-10T08:26:58.999Z</time>
      </trkpt>
      <trkpt lat="47.49123" lon="6.76461">
        <ele>360.9</ele>
        <time>2017-12-10T08:26:59.999Z</time>
      </trkpt>
      <trkpt lat="47.49123" lon="6.7647">
        <ele>360.8</ele>
        <time>2017-12-10T08:27:00.999Z</time>
      </trkpt>
      <trkpt lat="47.49124" lon="6.76478">
        <ele>361</ele>
        <time>2017-12-10T08:27:01.999Z</time>
      </trkpt>
      <trkpt lat="47.49123" lon="6.76485">
        <ele>360.6</ele>
        <time>2017-12-10T08:27:02.999Z</time>
      </trkpt>
      <trkpt lat="47.49123" lon="6.76493">
        <ele>360.2</ele>
        <time>2017-12-10T08:27:03.999Z</time>
      </trkpt>
      <trkpt lat="47.49123" lon="6.76502">
        <ele>359.5</ele>
        <time>2017-12-10T08:27:04.999Z</time>
      </trkpt>
      <trkpt lat="47.49122" lon="6.76509">
        <ele>360.2</ele>
        <time>2017-12-10T08:27:05.999Z</time>
      </trkpt>
      <trkpt lat="47.49123" lon="6.76518">
        <ele>361</ele>
        <time>2017-12-10T08:27:06.999Z</time>
      </trkpt>
      <trkpt lat="47.49124" lon="6.76525">
        <ele>361.3</ele>
        <time>2017-12-10T08:27:07.999Z</time>
      </trkpt>
      <trkpt lat="47.49127" lon="6.76532">
        <ele>361.4</ele>
        <time>2017-12-10T08:27:08.999Z</time>
      </trkpt>
      <trkpt lat="47.49132" lon="6.76533">
        <ele>360.9</ele>
        <time>2017-12-10T08:27:09.999Z</time>
      </trkpt>
      <trkpt lat="47.49138" lon="6.7653">
        <ele>360.3</ele>
        <time>2017-12-10T08:27:10.999Z</time>
      </trkpt>
      <trkpt lat="47.49144" lon="6.76528">
        <ele>360.3</ele>
        <time>2017-12-10T08:27:11.999Z</time>
      </trkpt>
      <trkpt lat="47.49149" lon="6.76525">
        <ele>360.1</ele>
        <time>2017-12-10T08:27:12.999Z</time>
      </trkpt>
      <trkpt lat="47.49153" lon="6.76521">
        <ele>360.2</ele>
        <time>2017-12-10T08:27:13.999Z</time>
      </trkpt>
      <trkpt lat="47.49157" lon="6.76517">
        <ele>360.1</ele>
        <time>2017-12-10T08:27:14.999Z</time>
      </trkpt>
      <trkpt lat="47.49162" lon="6.76513">
        <ele>359.7</ele>
        <time>2017-12-10T08:27:15.999Z</time>
      </trkpt>
      <trkpt lat="47.49165" lon="6.7651">
        <ele>359.6</ele>
        <time>2017-12-10T08:27:16.999Z</time>
      </trkpt>
      <trkpt lat="47.49168" lon="6.76507">
        <ele>359.6</ele>
        <time>2017-12-10T08:27:17.999Z</time>
      </trkpt>
      <trkpt lat="47.49171" lon="6.76503">
        <ele>359.4</ele>
        <time>2017-12-10T08:27:18.999Z</time>
      </trkpt>
      <trkpt lat="47.49175" lon="6.765">
        <ele>359.3</ele>
        <time>2017-12-10T08:27:19.999Z</time>
      </trkpt>
      <trkpt lat="47.49178" lon="6.76496">
        <ele>357.8</ele>
        <time>2017-12-10T08:27:20.999Z</time>
      </trkpt>
      <trkpt lat="47.49178" lon="6.76494">
        <ele>357.7</ele>
        <time>2017-12-10T08:27:21.999Z</time>
      </trkpt>
      <trkpt lat="47.49175" lon="6.7649">
        <ele>357.3</ele>
        <time>2017-12-10T08:30:15.999Z</time>
      </trkpt>
      <trkpt lat="47.49173" lon="6.76491">
        <ele>357.2</ele>
        <time>2017-12-10T08:30:16.999Z</time>
      </trkpt>
      <trkpt lat="47.49169" lon="6.76489">
        <ele>354</ele>
        <time>2017-12-10T08:30:53.999Z</time>
      </trkpt>
      <trkpt lat="47.49168" lon="6.76489">
        <ele>353.9</ele>
        <time>2017-12-10T08:30:54.999Z</time>
      </trkpt>
      <trkpt lat="47.49167" lon="6.76495">
        <ele>354</ele>
        <time>2017-12-10T08:31:01.999Z</time>
      </trkpt>
      <trkpt lat="47.49168" lon="6.76497">
        <ele>354</ele>
        <time>2017-12-10T08:31:02.999Z</time>
      </trkpt>
      <trkpt lat="47.4917" lon="6.76502">
        <ele>354.1</ele>
        <time>2017-12-10T08:31:06.999Z</time>
      </trkpt>
      <trkpt lat="47.49171" lon="6.76502">
        <ele>354.2</ele>
        <time>2017-12-10T08:31:07.999Z</time>
      </trkpt>
      <trkpt lat="47.49174" lon="6.76498">
        <ele>354.6</ele>
        <time>2017-12-10T08:31:20.999Z</time>
      </trkpt>
      <trkpt lat="47.49174" lon="6.76497">
        <ele>354.6</ele>
        <time>2017-12-10T08:31:21.999Z</time>
      </trkpt>
      <trkpt lat="47.49173" lon="6.76502">
        <ele>355.9</ele>
        <time>2017-12-10T08:34:46.999Z</time>
      </trkpt>
      <trkpt lat="47.49172" lon="6.76503">
        <ele>356</ele>
        <time>2017-12-10T08:34:47.999Z</time>
      </trkpt>
      <trkpt lat="47.49169" lon="6.76506">
        <ele>356.1</ele>
        <time>2017-12-10T08:34:49.999Z</time>
      </trkpt>
      <trkpt lat="47.49167" lon="6.76507">
        <ele>356.1</ele>
        <time>2017-12-10T08:34:50.999Z</time>
      </trkpt>
      <trkpt lat="47.49165" lon="6.7651">
        <ele>356.2</ele>
        <time>2017-12-10T08:34:51.999Z</time>
      </trkpt>
      <trkpt lat="47.49162" lon="6.76514">
        <ele>356.3</ele>
        <time>2017-12-10T08:34:52.999Z</time>
      </trkpt>
      <trkpt lat="47.49158" lon="6.76516">
        <ele>358</ele>
        <time>2017-12-10T08:34:53.999Z</time>
      </trkpt>
      <trkpt lat="47.49151" lon="6.76518">
        <ele>359</ele>
        <time>2017-12-10T08:34:54.999Z</time>
      </trkpt>
      <trkpt lat="47.49144" lon="6.76522">
        <ele>359.8</ele>
        <time>2017-12-10T08:34:55.999Z</time>
      </trkpt>
      <trkpt lat="47.4914" lon="6.76523">
        <ele>360.8</ele>
        <time>2017-12-10T08:34:56.999Z</time>
      </trkpt>
      <trkpt lat="47.49136" lon="6.76524">
        <ele>361</ele>
        <time>2017-12-10T08:34:57.999Z</time>
      </trkpt>
      <trkpt lat="47.49132" lon="6.76524">
        <ele>360.7</ele>
        <time>2017-12-10T08:34:58.999Z</time>
      </trkpt>
      <trkpt lat="47.49129" lon="6.76526">
        <ele>360.7</ele>
        <time>2017-12-10T08:34:59.999Z</time>
      </trkpt>
      <trkpt lat="47.49127" lon="6.76528">
        <ele>360.8</ele>
        <time>2017-12-10T08:35:00.999Z</time>
      </trkpt>
      <trkpt lat="47.49125" lon="6.76529">
        <ele>360.9</ele>
        <time>2017-12-10T08:35:01.999Z</time>
      </trkpt>
      <trkpt lat="47.49123" lon="6.76532">
        <ele>361.1</ele>
        <time>2017-12-10T08:35:02.999Z</time>
      </trkpt>
      <trkpt lat="47.49122" lon="6.76538">
        <ele>361.2</ele>
        <time>2017-12-10T08:35:03.999Z</time>
      </trkpt>
      <trkpt lat="47.49123" lon="6.76544">
        <ele>361.3</ele>
        <time>2017-12-10T08:35:04.999Z</time>
      </trkpt>
      <trkpt lat="47.49123" lon="6.7655">
        <ele>361.4</ele>
        <time>2017-12-10T08:35:05.999Z</time>
      </trkpt>
      <trkpt lat="47.49124" lon="6.76555">
        <ele>361.4</ele>
        <time>2017-12-10T08:35:06.999Z</time>
      </trkpt>
      <trkpt lat="47.49124" lon="6.7656">
        <ele>361.5</ele>
        <time>2017-12-10T08:35:07.999Z</time>
      </trkpt>
      <trkpt lat="47.49124" lon="6.76565">
        <ele>361.4</ele>
        <time>2017-12-10T08:35:08.999Z</time>
      </trkpt>
      <trkpt lat="47.49125" lon="6.7657">
        <ele>361.5</ele>
        <time>2017-12-10T08:35:09.999Z</time>
      </trkpt>
      <trkpt lat="47.49125" lon="6.76576">
        <ele>361.4</ele>
        <time>2017-12-10T08:35:10.999Z</time>
      </trkpt>
      <trkpt lat="47.49126" lon="6.76582">
        <ele>361.4</ele>
        <time>2017-12-10T08:35:11.999Z</time>
      </trkpt>
      <trkpt lat="47.49127" lon="6.76588">
        <ele>361.5</ele>
        <time>2017-12-10T08:35:12.999Z</time>
      </trkpt>
      <trkpt lat="47.49128" lon="6.76594">
        <ele>361.6</ele>
        <time>2017-12-10T08:35:13.999Z</time>
      </trkpt>
      <trkpt lat="47.49129" lon="6.766">
        <ele>361.6</ele>
        <time>2017-12-10T08:35:14.999Z</time>
      </trkpt>
      <trkpt lat="47.4913" lon="6.76609">
        <ele>361.6</ele>
        <time>2017-12-10T08:35:15.999Z</time>
      </trkpt>
      <trkpt lat="47.49131" lon="6.76613">
        <ele>361.6</ele>
        <time>2017-12-10T08:35:16.999Z</time>
      </trkpt>
      <trkpt lat="47.49132" lon="6.76617">
        <ele>361.5</ele>
        <time>2017-12-10T08:35:17.999Z</time>
      </trkpt>
      <trkpt lat="47.49133" lon="6.76621">
        <ele>361.5</ele>
        <time>2017-12-10T08:35:18.999Z</time>
      </trkpt>
      <trkpt lat="47.49134" lon="6.76624">
        <ele>361.4</ele>
        <time>2017-12-10T08:35:19.999Z</time>
      </trkpt>
      <trkpt lat="47.49134" lon="6.76629">
        <ele>361.3</ele>
        <time>2017-12-10T08:35:20.999Z</time>
      </trkpt>
      <trkpt lat="47.49135" lon="6.76633">
        <ele>361.2</ele>
        <time>2017-12-10T08:35:21.999Z</time>
      </trkpt>
      <trkpt lat="47.49137" lon="6.7664">
        <ele>361.1</ele>
        <time>2017-12-10T08:35:22.999Z</time>
      </trkpt>
      <trkpt lat="47.49137" lon="6.76644">
        <ele>360.9</ele>
        <time>2017-12-10T08:35:23.999Z</time>
      </trkpt>
      <trkpt lat="47.49137" lon="6.76647">
        <ele>360.8</ele>
        <time>2017-12-10T08:35:24.999Z</time>
      </trkpt>
      <trkpt lat="47.49138" lon="6.7665">
        <ele>360.6</ele>
        <time>2017-12-10T08:35:25.999Z</time>
      </trkpt>
      <trkpt lat="47.49139" lon="6.76653">
        <ele>360.4</ele>
        <time>2017-12-10T08:35:26.999Z</time>
      </trkpt>
      <trkpt lat="47.4914" lon="6.76657">
        <ele>360.2</ele>
        <time>2017-12-10T08:35:27.999Z</time>
      </trkpt>
      <trkpt lat="47.49141" lon="6.76665">
        <ele>360</ele>
        <time>2017-12-10T08:35:28.999Z</time>
      </trkpt>
      <trkpt lat="47.49141" lon="6.76669">
        <ele>359.6</ele>
        <time>2017-12-10T08:35:29.999Z</time>
      </trkpt>
      <trkpt lat="47.49142" lon="6.76677">
        <ele>359.4</ele>
        <time>2017-12-10T08:35:30.999Z</time>
      </trkpt>
      <trkpt lat="47.49143" lon="6.76683">
        <ele>358.7</ele>
        <time>2017-12-10T08:35:32.999Z</time>
      </trkpt>
      <trkpt lat="47.49143" lon="6.76687">
        <ele>358.3</ele>
        <time>2017-12-10T08:35:33.999Z</time>
      </trkpt>
      <trkpt lat="47.49143" lon="6.76691">
        <ele>358.1</ele>
        <time>2017-12-10T08:35:34.999Z</time>
      </trkpt>
      <trkpt lat="47.49142" lon="6.76697">
        <ele>357.7</ele>
        <time>2017-12-10T08:35:35.999Z</time>
      </trkpt>
      <trkpt lat="47.49142" lon="6.76701">
        <ele>357.4</ele>
        <time>2017-12-10T08:35:36.999Z</time>
      </trkpt>
      <trkpt lat="47.49142" lon="6.76705">
        <ele>357.2</ele>
        <time>2017-12-10T08:35:37.999Z</time>
      </trkpt>
      <trkpt lat="47.49142" lon="6.7671">
        <ele>356.8</ele>
        <time>2017-12-10T08:35:38.999Z</time>
      </trkpt>
      <trkpt lat="47.49143" lon="6.76714">
        <ele>356.5</ele>
        <time>2017-12-10T08:35:39.999Z</time>
      </trkpt>
      <trkpt lat="47.49143" lon="6.76723">
        <ele>356.1</ele>
        <time>2017-12-10T08:35:40.999Z</time>
      </trkpt>
      <trkpt lat="47.49144" lon="6.76731">
        <ele>355.7</ele>
        <time>2017-12-10T08:35:41.999Z</time>
      </trkpt>
      <trkpt lat="47.49145" lon="6.76735">
        <ele>355.5</ele>
        <time>2017-12-10T08:35:42.999Z</time>
      </trkpt>
      <trkpt lat="47.49145" lon="6.76742">
        <ele>355.2</ele>
        <time>2017-12-10T08:35:43.999Z</time>
      </trkpt>
      <trkpt lat="47.49145" lon="6.76746">
        <ele>354.7</ele>
        <time>2017-12-10T08:35:44.999Z</time>
      </trkpt>
      <trkpt lat="47.49146" lon="6.7675">
        <ele>354.3</ele>
        <time>2017-12-10T08:35:45.999Z</time>
      </trkpt>
      <trkpt lat="47.49146" lon="6.76754">
        <ele>353.9</ele>
        <time>2017-12-10T08:35:46.999Z</time>
      </trkpt>
      <trkpt lat="47.49146" lon="6.76761">
        <ele>353.8</ele>
        <time>2017-12-10T08:35:47.999Z</time>
      </trkpt>
      <trkpt lat="47.49146" lon="6.76766">
        <ele>353.6</ele>
        <time>2017-12-10T08:35:48.999Z</time>
      </trkpt>
      <trkpt lat="47.49146" lon="6.76774">
        <ele>353.3</ele>
        <time>2017-12-10T08:35:49.999Z</time>
      </trkpt>
      <trkpt lat="47.49147" lon="6.76779">
        <ele>353.1</ele>
        <time>2017-12-10T08:35:50.999Z</time>
      </trkpt>
      <trkpt lat="47.49149" lon="6.76784">
        <ele>353</ele>
        <time>2017-12-10T08:35:51.999Z</time>
      </trkpt>
      <trkpt lat="47.49149" lon="6.76789">
        <ele>352.8</ele>
        <time>2017-12-10T08:35:52.999Z</time>
      </trkpt>
      <trkpt lat="47.4915" lon="6.76796">
        <ele>352.6</ele>
        <time>2017-12-10T08:35:53.999Z</time>
      </trkpt>
      <trkpt lat="47.4915" lon="6.76802">
        <ele>352.5</ele>
        <time>2017-12-10T08:35:54.999Z</time>
      </trkpt>
      <trkpt lat="47.4915" lon="6.76812">
        <ele>352.5</ele>
        <time>2017-12-10T08:35:55.999Z</time>
      </trkpt>
      <trkpt lat="47.4915" lon="6.76817">
        <ele>352.5</ele>
        <time>2017-12-10T08:35:56.999Z</time>
      </trkpt>
      <trkpt lat="47.4915" lon="6.76822">
        <ele>352.6</ele>
        <time>2017-12-10T08:35:57.999Z</time>
      </trkpt>
      <trkpt lat="47.4915" lon="6.76827">
        <ele>352.6</ele>
        <time>2017-12-10T08:35:58.999Z</time>
      </trkpt>
      <trkpt lat="47.49151" lon="6.76835">
        <ele>352.6</ele>
        <time>2017-12-10T08:35:59.999Z</time>
      </trkpt>
      <trkpt lat="47.4915" lon="6.76844">
        <ele>352.6</ele>
        <time>2017-12-10T08:36:00.999Z</time>
      </trkpt>
      <trkpt lat="47.49149" lon="6.76855">
        <ele>352.3</ele>
        <time>2017-12-10T08:36:01.999Z</time>
      </trkpt>
      <trkpt lat="47.49149" lon="6.76863">
        <ele>352.3</ele>
        <time>2017-12-10T08:36:02.999Z</time>
      </trkpt>
      <trkpt lat="47.49149" lon="6.76871">
        <ele>352.3</ele>
        <time>2017-12-10T08:36:03.999Z</time>
      </trkpt>
      <trkpt lat="47.49149" lon="6.76878">
        <ele>352.2</ele>
        <time>2017-12-10T08:36:04.999Z</time>
      </trkpt>
      <trkpt lat="47.49148" lon="6.76884">
        <ele>352.1</ele>
        <time>2017-12-10T08:36:05.999Z</time>
      </trkpt>
      <trkpt lat="47.49147" lon="6.7689">
        <ele>350.7</ele>
        <time>2017-12-10T08:36:06.999Z</time>
      </trkpt>
      <trkpt lat="47.49146" lon="6.76893">
        <ele>350.7</ele>
        <time>2017-12-10T08:36:07.999Z</time>
      </trkpt>
      <trkpt lat="47.49146" lon="6.76897">
        <ele>350.6</ele>
        <time>2017-12-10T08:36:08.999Z</time>
      </trkpt>
      <trkpt lat="47.49145" lon="6.76902">
        <ele>350.6</ele>
        <time>2017-12-10T08:36:09.999Z</time>
      </trkpt>
      <trkpt lat="47.49145" lon="6.76906">
        <ele>350.5</ele>
        <time>2017-12-10T08:36:10.999Z</time>
      </trkpt>
      <trkpt lat="47.49145" lon="6.76911">
        <ele>350.4</ele>
        <time>2017-12-10T08:36:11.999Z</time>
      </trkpt>
      <trkpt lat="47.49144" lon="6.76916">
        <ele>350.4</ele>
        <time>2017-12-10T08:36:12.999Z</time>
      </trkpt>
      <trkpt lat="47.49144" lon="6.76922">
        <ele>350.4</ele>
        <time>2017-12-10T08:36:13.999Z</time>
      </trkpt>
      <trkpt lat="47.49144" lon="6.76927">
        <ele>350.5</ele>
        <time>2017-12-10T08:36:14.999Z</time>
      </trkpt>
      <trkpt lat="47.49144" lon="6.76932">
        <ele>350.6</ele>
        <time>2017-12-10T08:36:15.999Z</time>
      </trkpt>
      <trkpt lat="47.49144" lon="6.76937">
        <ele>350.6</ele>
        <time>2017-12-10T08:36:16.999Z</time>
      </trkpt>
      <trkpt lat="47.49146" lon="6.76941">
        <ele>350.8</ele>
        <time>2017-12-10T08:36:17.999Z</time>
      </trkpt>
      <trkpt lat="47.49149" lon="6.76943">
        <ele>350.9</ele>
        <time>2017-12-10T08:36:18.999Z</time>
      </trkpt>
      <trkpt lat="47.49148" lon="6.76947">
        <ele>350.9</ele>
        <time>2017-12-10T08:36:19.999Z</time>
      </trkpt>
      <trkpt lat="47.49146" lon="6.7695">
        <ele>350.9</ele>
        <time>2017-12-10T08:36:20.999Z</time>
      </trkpt>
      <trkpt lat="47.49147" lon="6.76956">
        <ele>350.8</ele>
        <time>2017-12-10T08:36:21.999Z</time>
      </trkpt>
      <trkpt lat="47.49149" lon="6.76962">
        <ele>350.7</ele>
        <time>2017-12-10T08:36:22.999Z</time>
      </trkpt>
      <trkpt lat="47.4915" lon="6.76964">
        <ele>350.6</ele>
        <time>2017-12-10T08:36:25.999Z</time>
      </trkpt>
      <trkpt lat="47.4915" lon="6.7697">
        <ele>350.6</ele>
        <time>2017-12-10T08:36:26.999Z</time>
      </trkpt>
      <trkpt lat="47.49152" lon="6.76975">
        <ele>350.7</ele>
        <time>2017-12-10T08:36:27.999Z</time>
      </trkpt>
      <trkpt lat="47.49156" lon="6.76982">
        <ele>350.7</ele>
        <time>2017-12-10T08:36:28.999Z</time>
      </trkpt>
      <trkpt lat="47.49157" lon="6.76986">
        <ele>350.7</ele>
        <time>2017-12-10T08:36:29.999Z</time>
      </trkpt>
      <trkpt lat="47.49159" lon="6.76991">
        <ele>350.6</ele>
        <time>2017-12-10T08:36:30.999Z</time>
      </trkpt>
      <trkpt lat="47.49162" lon="6.77">
        <ele>350.6</ele>
        <time>2017-12-10T08:36:31.999Z</time>
      </trkpt>
      <trkpt lat="47.49164" lon="6.77004">
        <ele>350.6</ele>
        <time>2017-12-10T08:36:32.999Z</time>
      </trkpt>
      <trkpt lat="47.49165" lon="6.77009">
        <ele>350.6</ele>
        <time>2017-12-10T08:36:33.999Z</time>
      </trkpt>
      <trkpt lat="47.49166" lon="6.77015">
        <ele>350.5</ele>
        <time>2017-12-10T08:36:34.999Z</time>
      </trkpt>
      <trkpt lat="47.49167" lon="6.77021">
        <ele>350.5</ele>
        <time>2017-12-10T08:36:35.999Z</time>
      </trkpt>
      <trkpt lat="47.49168" lon="6.77027">
        <ele>350.5</ele>
        <time>2017-12-10T08:36:36.999Z</time>
      </trkpt>
      <trkpt lat="47.49168" lon="6.77032">
        <ele>350.5</ele>
        <time>2017-12-10T08:36:37.999Z</time>
      </trkpt>
      <trkpt lat="47.49169" lon="6.77038">
        <ele>350.5</ele>
        <time>2017-12-10T08:36:38.999Z</time>
      </trkpt>
      <trkpt lat="47.49169" lon="6.77044">
        <ele>350.6</ele>
        <time>2017-12-10T08:36:39.999Z</time>
      </trkpt>
      <trkpt lat="47.4917" lon="6.77049">
        <ele>350.6</ele>
        <time>2017-12-10T08:36:40.999Z</time>
      </trkpt>
      <trkpt lat="47.4917" lon="6.77054">
        <ele>350.6</ele>
        <time>2017-12-10T08:36:41.999Z</time>
      </trkpt>
      <trkpt lat="47.49171" lon="6.77059">
        <ele>350.8</ele>
        <time>2017-12-10T08:36:42.999Z</time>
      </trkpt>
      <trkpt lat="47.49172" lon="6.77063">
        <ele>350.9</ele>
        <time>2017-12-10T08:36:43.999Z</time>
      </trkpt>
      <trkpt lat="47.49172" lon="6.77068">
        <ele>351.1</ele>
        <time>2017-12-10T08:36:44.999Z</time>
      </trkpt>
      <trkpt lat="47.49172" lon="6.77073">
        <ele>351.2</ele>
        <time>2017-12-10T08:36:45.999Z</time>
      </trkpt>
      <trkpt lat="47.49173" lon="6.77078">
        <ele>351.2</ele>
        <time>2017-12-10T08:36:46.999Z</time>
      </trkpt>
      <trkpt lat="47.49174" lon="6.77086">
        <ele>351.2</ele>
        <time>2017-12-10T08:36:47.999Z</time>
      </trkpt>
      <trkpt lat="47.49175" lon="6.7709">
        <ele>351.3</ele>
        <time>2017-12-10T08:36:48.999Z</time>
      </trkpt>
      <trkpt lat="47.49176" lon="6.77095">
        <ele>351.3</ele>
        <time>2017-12-10T08:36:49.999Z</time>
      </trkpt>
      <trkpt lat="47.49175" lon="6.77099">
        <ele>351.3</ele>
        <time>2017-12-10T08:36:50.999Z</time>
      </trkpt>
      <trkpt lat="47.49177" lon="6.77102">
        <ele>351.3</ele>
        <time>2017-12-10T08:36:51.999Z</time>
      </trkpt>
      <trkpt lat="47.49179" lon="6.77106">
        <ele>351.5</ele>
        <time>2017-12-10T08:36:55.999Z</time>
      </trkpt>
      <trkpt lat="47.4918" lon="6.77108">
        <ele>351.6</ele>
        <time>2017-12-10T08:36:56.999Z</time>
      </trkpt>
      <trkpt lat="47.49182" lon="6.77114">
        <ele>351.8</ele>
        <time>2017-12-10T08:36:58.999Z</time>
      </trkpt>
      <trkpt lat="47.49184" lon="6.7712">
        <ele>352</ele>
        <time>2017-12-10T08:36:59.999Z</time>
      </trkpt>
      <trkpt lat="47.49185" lon="6.77123">
        <ele>352.1</ele>
        <time>2017-12-10T08:37:00.999Z</time>
      </trkpt>
      <trkpt lat="47.49186" lon="6.77129">
        <ele>353.4</ele>
        <time>2017-12-10T08:37:01.999Z</time>
      </trkpt>
      <trkpt lat="47.49186" lon="6.77136">
        <ele>354.7</ele>
        <time>2017-12-10T08:37:02.999Z</time>
      </trkpt>
      <trkpt lat="47.49185" lon="6.77145">
        <ele>355.7</ele>
        <time>2017-12-10T08:37:03.999Z</time>
      </trkpt>
      <trkpt lat="47.49186" lon="6.77152">
        <ele>356.2</ele>
        <time>2017-12-10T08:37:04.999Z</time>
      </trkpt>
      <trkpt lat="47.49187" lon="6.77163">
        <ele>356.2</ele>
        <time>2017-12-10T08:37:05.999Z</time>
      </trkpt>
      <trkpt lat="47.49187" lon="6.77172">
        <ele>356.1</ele>
        <time>2017-12-10T08:37:06.999Z</time>
      </trkpt>
      <trkpt lat="47.49187" lon="6.77178">
        <ele>355.8</ele>
        <time>2017-12-10T08:37:07.999Z</time>
      </trkpt>
      <trkpt lat="47.49186" lon="6.77184">
        <ele>355.4</ele>
        <time>2017-12-10T08:37:08.999Z</time>
      </trkpt>
      <trkpt lat="47.49186" lon="6.7719">
        <ele>354.9</ele>
        <time>2017-12-10T08:37:09.999Z</time>
      </trkpt>
      <trkpt lat="47.49185" lon="6.77197">
        <ele>354.6</ele>
        <time>2017-12-10T08:37:10.999Z</time>
      </trkpt>
      <trkpt lat="47.49184" lon="6.77203">
        <ele>354.6</ele>
        <time>2017-12-10T08:37:11.999Z</time>
      </trkpt>
      <trkpt lat="47.49184" lon="6.7721">
        <ele>354.3</ele>
        <time>2017-12-10T08:37:12.999Z</time>
      </trkpt>
      <trkpt lat="47.49183" lon="6.77216">
        <ele>354.3</ele>
        <time>2017-12-10T08:37:13.999Z</time>
      </trkpt>
      <trkpt lat="47.49182" lon="6.77221">
        <ele>354.2</ele>
        <time>2017-12-10T08:37:14.999Z</time>
      </trkpt>
      <trkpt lat="47.49182" lon="6.77227">
        <ele>354.2</ele>
        <time>2017-12-10T08:37:15.999Z</time>
      </trkpt>
      <trkpt lat="47.49183" lon="6.77233">
        <ele>354.2</ele>
        <time>2017-12-10T08:37:16.999Z</time>
      </trkpt>
      <trkpt lat="47.49184" lon="6.77238">
        <ele>354.2</ele>
        <time>2017-12-10T08:37:17.999Z</time>
      </trkpt>
      <trkpt lat="47.49185" lon="6.77243">
        <ele>354.2</ele>
        <time>2017-12-10T08:37:18.999Z</time>
      </trkpt>
      <trkpt lat="47.49186" lon="6.77249">
        <ele>354.1</ele>
        <time>2017-12-10T08:37:19.999Z</time>
      </trkpt>
      <trkpt lat="47.49186" lon="6.77259">
        <ele>354.1</ele>
        <time>2017-12-10T08:37:20.999Z</time>
      </trkpt>
      <trkpt lat="47.49184" lon="6.77269">
        <ele>353.7</ele>
        <time>2017-12-10T08:37:21.999Z</time>
      </trkpt>
      <trkpt lat="47.49183" lon="6.77275">
        <ele>353.6</ele>
        <time>2017-12-10T08:37:22.999Z</time>
      </trkpt>
      <trkpt lat="47.49182" lon="6.77281">
        <ele>354</ele>
        <time>2017-12-10T08:37:23.999Z</time>
      </trkpt>
      <trkpt lat="47.49181" lon="6.77286">
        <ele>354.7</ele>
        <time>2017-12-10T08:37:24.999Z</time>
      </trkpt>
      <trkpt lat="47.49181" lon="6.77292">
        <ele>355.2</ele>
        <time>2017-12-10T08:37:25.999Z</time>
      </trkpt>
      <trkpt lat="47.4918" lon="6.77298">
        <ele>355.1</ele>
        <time>2017-12-10T08:37:26.999Z</time>
      </trkpt>
      <trkpt lat="47.4918" lon="6.77303">
        <ele>354.8</ele>
        <time>2017-12-10T08:37:27.999Z</time>
      </trkpt>
      <trkpt lat="47.4918" lon="6.77309">
        <ele>354.8</ele>
        <time>2017-12-10T08:37:28.999Z</time>
      </trkpt>
      <trkpt lat="47.4918" lon="6.77314">
        <ele>354.4</ele>
        <time>2017-12-10T08:37:29.999Z</time>
      </trkpt>
      <trkpt lat="47.49179" lon="6.7732">
        <ele>354.1</ele>
        <time>2017-12-10T08:37:30.999Z</time>
      </trkpt>
      <trkpt lat="47.49179" lon="6.77326">
        <ele>353.4</ele>
        <time>2017-12-10T08:37:31.999Z</time>
      </trkpt>
      <trkpt lat="47.49177" lon="6.77333">
        <ele>353.8</ele>
        <time>2017-12-10T08:37:32.999Z</time>
      </trkpt>
      <trkpt lat="47.49176" lon="6.77337">
        <ele>353.8</ele>
        <time>2017-12-10T08:37:33.999Z</time>
      </trkpt>
      <trkpt lat="47.49175" lon="6.77338">
        <ele>353.9</ele>
        <time>2017-12-10T08:37:34.999Z</time>
      </trkpt>
      <trkpt lat="47.49173" lon="6.77339">
        <ele>354</ele>
        <time>2017-12-10T08:37:35.999Z</time>
      </trkpt>
      <trkpt lat="47.49171" lon="6.77343">
        <ele>354.1</ele>
        <time>2017-12-10T08:37:36.999Z</time>
      </trkpt>
      <trkpt lat="47.49168" lon="6.77346">
        <ele>354.7</ele>
        <time>2017-12-10T08:37:37.999Z</time>
      </trkpt>
      <trkpt lat="47.49165" lon="6.7735">
        <ele>355.2</ele>
        <time>2017-12-10T08:37:38.999Z</time>
      </trkpt>
      <trkpt lat="47.49162" lon="6.77354">
        <ele>355.7</ele>
        <time>2017-12-10T08:37:39.999Z</time>
      </trkpt>
      <trkpt lat="47.49159" lon="6.77357">
        <ele>356.4</ele>
        <time>2017-12-10T08:37:40.999Z</time>
      </trkpt>
      <trkpt lat="47.49156" lon="6.77359">
        <ele>356.9</ele>
        <time>2017-12-10T08:37:41.999Z</time>
      </trkpt>
      <trkpt lat="47.49152" lon="6.77362">
        <ele>357.5</ele>
        <time>2017-12-10T08:37:42.999Z</time>
      </trkpt>
      <trkpt lat="47.49149" lon="6.77366">
        <ele>357.6</ele>
        <time>2017-12-10T08:37:43.999Z</time>
      </trkpt>
      <trkpt lat="47.49146" lon="6.7737">
        <ele>357.7</ele>
        <time>2017-12-10T08:37:44.999Z</time>
      </trkpt>
      <trkpt lat="47.49143" lon="6.77374">
        <ele>357.9</ele>
        <time>2017-12-10T08:37:45.999Z</time>
      </trkpt>
      <trkpt lat="47.49139" lon="6.77378">
        <ele>358.1</ele>
        <time>2017-12-10T08:37:46.999Z</time>
      </trkpt>
      <trkpt lat="47.49135" lon="6.77382">
        <ele>358.2</ele>
        <time>2017-12-10T08:37:47.999Z</time>
      </trkpt>
      <trkpt lat="47.49132" lon="6.77385">
        <ele>358.2</ele>
        <time>2017-12-10T08:37:48.999Z</time>
      </trkpt>
      <trkpt lat="47.49128" lon="6.77388">
        <ele>358.2</ele>
        <time>2017-12-10T08:37:49.999Z</time>
      </trkpt>
      <trkpt lat="47.49124" lon="6.77391">
        <ele>358.2</ele>
        <time>2017-12-10T08:37:50.999Z</time>
      </trkpt>
      <trkpt lat="47.4912" lon="6.77394">
        <ele>358.1</ele>
        <time>2017-12-10T08:37:51.999Z</time>
      </trkpt>
      <trkpt lat="47.49115" lon="6.77397">
        <ele>358.1</ele>
        <time>2017-12-10T08:37:52.999Z</time>
      </trkpt>
      <trkpt lat="47.49111" lon="6.77401">
        <ele>358.1</ele>
        <time>2017-12-10T08:37:53.999Z</time>
      </trkpt>
      <trkpt lat="47.49108" lon="6.77405">
        <ele>358.3</ele>
        <time>2017-12-10T08:37:54.999Z</time>
      </trkpt>
      <trkpt lat="47.49104" lon="6.77408">
        <ele>358.1</ele>
        <time>2017-12-10T08:37:55.999Z</time>
      </trkpt>
      <trkpt lat="47.49099" lon="6.77412">
        <ele>358.5</ele>
        <time>2017-12-10T08:37:56.999Z</time>
      </trkpt>
      <trkpt lat="47.49094" lon="6.77416">
        <ele>358.5</ele>
        <time>2017-12-10T08:37:57.999Z</time>
      </trkpt>
      <trkpt lat="47.4909" lon="6.77419">
        <ele>358.4</ele>
        <time>2017-12-10T08:37:58.999Z</time>
      </trkpt>
      <trkpt lat="47.49085" lon="6.7742">
        <ele>358.4</ele>
        <time>2017-12-10T08:37:59.999Z</time>
      </trkpt>
      <trkpt lat="47.49081" lon="6.77422">
        <ele>358.7</ele>
        <time>2017-12-10T08:38:00.999Z</time>
      </trkpt>
      <trkpt lat="47.49077" lon="6.77422">
        <ele>358.9</ele>
        <time>2017-12-10T08:38:01.999Z</time>
      </trkpt>
      <trkpt lat="47.49074" lon="6.77424">
        <ele>358.1</ele>
        <time>2017-12-10T08:38:02.999Z</time>
      </trkpt>
      <trkpt lat="47.4907" lon="6.77427">
        <ele>357.2</ele>
        <time>2017-12-10T08:38:03.999Z</time>
      </trkpt>
      <trkpt lat="47.49066" lon="6.77428">
        <ele>356.2</ele>
        <time>2017-12-10T08:38:04.999Z</time>
      </trkpt>
      <trkpt lat="47.49061" lon="6.7743">
        <ele>355.3</ele>
        <time>2017-12-10T08:38:05.999Z</time>
      </trkpt>
      <trkpt lat="47.49057" lon="6.77432">
        <ele>354.8</ele>
        <time>2017-12-10T08:38:06.999Z</time>
      </trkpt>
      <trkpt lat="47.49053" lon="6.77434">
        <ele>354.6</ele>
        <time>2017-12-10T08:38:07.999Z</time>
      </trkpt>
      <trkpt lat="47.49048" lon="6.77436">
        <ele>354.7</ele>
        <time>2017-12-10T08:38:08.999Z</time>
      </trkpt>
      <trkpt lat="47.49044" lon="6.77437">
        <ele>354.7</ele>
        <time>2017-12-10T08:38:09.999Z</time>
      </trkpt>
      <trkpt lat="47.49039" lon="6.77439">
        <ele>354.1</ele>
        <time>2017-12-10T08:38:10.999Z</time>
      </trkpt>
      <trkpt lat="47.49035" lon="6.77442">
        <ele>354.1</ele>
        <time>2017-12-10T08:38:11.999Z</time>
      </trkpt>
      <trkpt lat="47.4903" lon="6.77445">
        <ele>354.2</ele>
        <time>2017-12-10T08:38:12.999Z</time>
      </trkpt>
      <trkpt lat="47.49026" lon="6.77448">
        <ele>353.8</ele>
        <time>2017-12-10T08:38:13.999Z</time>
      </trkpt>
      <trkpt lat="47.49022" lon="6.77451">
        <ele>353.6</ele>
        <time>2017-12-10T08:38:14.999Z</time>
      </trkpt>
      <trkpt lat="47.49019" lon="6.77454">
        <ele>353.6</ele>
        <time>2017-12-10T08:38:15.999Z</time>
      </trkpt>
      <trkpt lat="47.49016" lon="6.77459">
        <ele>353.6</ele>
        <time>2017-12-10T08:38:16.999Z</time>
      </trkpt>
      <trkpt lat="47.49013" lon="6.77466">
        <ele>354.1</ele>
        <time>2017-12-10T08:38:17.999Z</time>
      </trkpt>
      <trkpt lat="47.49011" lon="6.77471">
        <ele>354.9</ele>
        <time>2017-12-10T08:38:18.999Z</time>
      </trkpt>
      <trkpt lat="47.4901" lon="6.77477">
        <ele>355.1</ele>
        <time>2017-12-10T08:38:19.999Z</time>
      </trkpt>
      <trkpt lat="47.4901" lon="6.77483">
        <ele>355.3</ele>
        <time>2017-12-10T08:38:20.999Z</time>
      </trkpt>
      <trkpt lat="47.49009" lon="6.77488">
        <ele>355.3</ele>
        <time>2017-12-10T08:38:21.999Z</time>
      </trkpt>
      <trkpt lat="47.49008" lon="6.77495">
        <ele>354.8</ele>
        <time>2017-12-10T08:38:22.999Z</time>
      </trkpt>
      <trkpt lat="47.49008" lon="6.775">
        <ele>354.8</ele>
        <time>2017-12-10T08:38:23.999Z</time>
      </trkpt>
      <trkpt lat="47.49008" lon="6.77505">
        <ele>354.7</ele>
        <time>2017-12-10T08:38:24.999Z</time>
      </trkpt>
      <trkpt lat="47.49008" lon="6.77509">
        <ele>354.7</ele>
        <time>2017-12-10T08:38:25.999Z</time>
      </trkpt>
      <trkpt lat="47.49007" lon="6.77513">
        <ele>354.8</ele>
        <time>2017-12-10T08:38:26.999Z</time>
      </trkpt>
      <trkpt lat="47.49007" lon="6.77516">
        <ele>354.7</ele>
        <time>2017-12-10T08:38:27.999Z</time>
      </trkpt>
      <trkpt lat="47.49007" lon="6.7752">
        <ele>354.7</ele>
        <time>2017-12-10T08:38:28.999Z</time>
      </trkpt>
      <trkpt lat="47.49006" lon="6.77524">
        <ele>354.7</ele>
        <time>2017-12-10T08:38:29.999Z</time>
      </trkpt>
      <trkpt lat="47.49004" lon="6.77528">
        <ele>354.6</ele>
        <time>2017-12-10T08:38:31.999Z</time>
      </trkpt>
      <trkpt lat="47.49003" lon="6.7753">
        <ele>354.6</ele>
        <time>2017-12-10T08:38:32.999Z</time>
      </trkpt>
      <trkpt lat="47.49001" lon="6.77533">
        <ele>354.6</ele>
        <time>2017-12-10T08:38:33.999Z</time>
      </trkpt>
      <trkpt lat="47.48999" lon="6.77537">
        <ele>354.6</ele>
        <time>2017-12-10T08:38:34.999Z</time>
      </trkpt>
      <trkpt lat="47.48996" lon="6.77541">
        <ele>354.6</ele>
        <time>2017-12-10T08:38:36.999Z</time>
      </trkpt>
      <trkpt lat="47.48994" lon="6.77543">
        <ele>354.6</ele>
        <time>2017-12-10T08:38:37.999Z</time>
      </trkpt>
      <trkpt lat="47.48992" lon="6.77544">
        <ele>354.6</ele>
        <time>2017-12-10T08:38:38.999Z</time>
      </trkpt>
      <trkpt lat="47.4899" lon="6.77547">
        <ele>354.6</ele>
        <time>2017-12-10T08:38:39.999Z</time>
      </trkpt>
      <trkpt lat="47.48987" lon="6.77551">
        <ele>354.7</ele>
        <time>2017-12-10T08:38:40.999Z</time>
      </trkpt>
      <trkpt lat="47.48984" lon="6.77555">
        <ele>354.8</ele>
        <time>2017-12-10T08:38:41.999Z</time>
      </trkpt>
      <trkpt lat="47.4898" lon="6.7756">
        <ele>355</ele>
        <time>2017-12-10T08:38:42.999Z</time>
      </trkpt>
      <trkpt lat="47.48977" lon="6.77564">
        <ele>355.1</ele>
        <time>2017-12-10T08:38:43.999Z</time>
      </trkpt>
      <trkpt lat="47.48974" lon="6.77568">
        <ele>355.2</ele>
        <time>2017-12-10T08:38:44.999Z</time>
      </trkpt>
      <trkpt lat="47.48971" lon="6.77571">
        <ele>355.3</ele>
        <time>2017-12-10T08:38:45.999Z</time>
      </trkpt>
      <trkpt lat="47.48967" lon="6.77574">
        <ele>355.5</ele>
        <time>2017-12-10T08:38:46.999Z</time>
      </trkpt>
      <trkpt lat="47.48963" lon="6.77577">
        <ele>355.5</ele>
        <time>2017-12-10T08:38:47.999Z</time>
      </trkpt>
      <trkpt lat="47.4896" lon="6.77581">
        <ele>355.6</ele>
        <time>2017-12-10T08:38:48.999Z</time>
      </trkpt>
      <trkpt lat="47.48956" lon="6.77585">
        <ele>355.7</ele>
        <time>2017-12-10T08:38:49.999Z</time>
      </trkpt>
      <trkpt lat="47.48952" lon="6.77587">
        <ele>356.5</ele>
        <time>2017-12-10T08:38:50.999Z</time>
      </trkpt>
      <trkpt lat="47.48949" lon="6.7759">
        <ele>356.6</ele>
        <time>2017-12-10T08:38:51.999Z</time>
      </trkpt>
      <trkpt lat="47.48946" lon="6.77592">
        <ele>356.6</ele>
        <time>2017-12-10T08:38:52.999Z</time>
      </trkpt>
      <trkpt lat="47.48943" lon="6.77594">
        <ele>356.6</ele>
        <time>2017-12-10T08:38:53.999Z</time>
      </trkpt>
      <trkpt lat="47.4894" lon="6.77594">
        <ele>356.5</ele>
        <time>2017-12-10T08:38:54.999Z</time>
      </trkpt>
      <trkpt lat="47.48937" lon="6.77593">
        <ele>356.5</ele>
        <time>2017-12-10T08:38:55.999Z</time>
      </trkpt>
      <trkpt lat="47.48935" lon="6.77592">
        <ele>356.4</ele>
        <time>2017-12-10T08:38:56.999Z</time>
      </trkpt>
      <trkpt lat="47.4893" lon="6.77594">
        <ele>356.3</ele>
        <time>2017-12-10T08:38:59.999Z</time>
      </trkpt>
      <trkpt lat="47.48929" lon="6.77594">
        <ele>356.3</ele>
        <time>2017-12-10T08:39:00.999Z</time>
      </trkpt>
      <trkpt lat="47.48927" lon="6.776">
        <ele>358.1</ele>
        <time>2017-12-10T08:39:16.999Z</time>
      </trkpt>
      <trkpt lat="47.48927" lon="6.776">
        <ele>358.1</ele>
        <time>2017-12-10T08:39:17.999Z</time>
      </trkpt>
      <trkpt lat="47.48924" lon="6.77604">
        <ele>359.3</ele>
        <time>2017-12-10T08:39:26.999Z</time>
      </trkpt>
      <trkpt lat="47.48924" lon="6.77605">
        <ele>359.5</ele>
        <time>2017-12-10T08:39:27.999Z</time>
      </trkpt>
      <trkpt lat="47.48921" lon="6.77609">
        <ele>360.3</ele>
        <time>2017-12-10T08:39:34.999Z</time>
      </trkpt>
      <trkpt lat="47.48921" lon="6.7761">
        <ele>360.4</ele>
        <time>2017-12-10T08:39:35.999Z</time>
      </trkpt>
      <trkpt lat="47.48916" lon="6.77609">
        <ele>361.5</ele>
        <time>2017-12-10T08:39:54.999Z</time>
      </trkpt>
      <trkpt lat="47.48916" lon="6.77608">
        <ele>361.5</ele>
        <time>2017-12-10T08:39:55.999Z</time>
      </trkpt>
      <trkpt lat="47.48914" lon="6.77614">
        <ele>361.3</ele>
        <time>2017-12-10T08:40:24.999Z</time>
      </trkpt>
      <trkpt lat="47.48914" lon="6.77615">
        <ele>361.3</ele>
        <time>2017-12-10T08:40:25.999Z</time>
      </trkpt>
      <trkpt lat="47.48917" lon="6.77612">
        <ele>360.8</ele>
        <time>2017-12-10T08:40:44.999Z</time>
      </trkpt>
      <trkpt lat="47.48918" lon="6.77611">
        <ele>360.9</ele>
        <time>2017-12-10T08:40:45.999Z</time>
      </trkpt>
      <trkpt lat="47.48914" lon="6.77614">
        <ele>360.2</ele>
        <time>2017-12-10T08:41:12.999Z</time>
      </trkpt>
      <trkpt lat="47.48914" lon="6.77615">
        <ele>360.2</ele>
        <time>2017-12-10T08:41:13.999Z</time>
      </trkpt>
      <trkpt lat="47.48918" lon="6.77613">
        <ele>361.8</ele>
        <time>2017-12-10T08:42:06.999Z</time>
      </trkpt>
      <trkpt lat="47.48918" lon="6.77613">
        <ele>362.1</ele>
        <time>2017-12-10T08:42:07.999Z</time>
      </trkpt>
      <trkpt lat="47.48917" lon="6.77618">
        <ele>363.5</ele>
        <time>2017-12-10T08:42:25.999Z</time>
      </trkpt>
      <trkpt lat="47.48916" lon="6.77619">
        <ele>363.6</ele>
        <time>2017-12-10T08:42:26.999Z</time>
      </trkpt>
      <trkpt lat="47.48914" lon="6.77622">
        <ele>363.7</ele>
        <time>2017-12-10T08:42:28.999Z</time>
      </trkpt>
      <trkpt lat="47.48912" lon="6.77625">
        <ele>363.7</ele>
        <time>2017-12-10T08:42:29.999Z</time>
      </trkpt>
      <trkpt lat="47.48909" lon="6.7763">
        <ele>363.8</ele>
        <time>2017-12-10T08:42:32.999Z</time>
      </trkpt>
      <trkpt lat="47.48907" lon="6.77632">
        <ele>363.9</ele>
        <time>2017-12-10T08:42:33.999Z</time>
      </trkpt>
      <trkpt lat="47.48906" lon="6.77634">
        <ele>363.9</ele>
        <time>2017-12-10T08:42:34.999Z</time>
      </trkpt>
      <trkpt lat="47.48904" lon="6.77637">
        <ele>363.9</ele>
        <time>2017-12-10T08:42:35.999Z</time>
      </trkpt>
      <trkpt lat="47.48901" lon="6.77642">
        <ele>363.8</ele>
        <time>2017-12-10T08:42:37.999Z</time>
      </trkpt>
      <trkpt lat="47.48899" lon="6.77647">
        <ele>363.7</ele>
        <time>2017-12-10T08:42:38.999Z</time>
      </trkpt>
      <trkpt lat="47.48898" lon="6.77652">
        <ele>363.8</ele>
        <time>2017-12-10T08:42:39.999Z</time>
      </trkpt>
      <trkpt lat="47.48897" lon="6.77654">
        <ele>363.8</ele>
        <time>2017-12-10T08:42:40.999Z</time>
      </trkpt>
      <trkpt lat="47.48897" lon="6.77659">
        <ele>363.6</ele>
        <time>2017-12-10T08:42:44.999Z</time>
      </trkpt>
      <trkpt lat="47.48899" lon="6.77661">
        <ele>363.5</ele>
        <time>2017-12-10T08:42:45.999Z</time>
      </trkpt>
      <trkpt lat="47.48901" lon="6.77663">
        <ele>363.3</ele>
        <time>2017-12-10T08:42:46.999Z</time>
      </trkpt>
      <trkpt lat="47.48903" lon="6.77664">
        <ele>363</ele>
        <time>2017-12-10T08:42:47.999Z</time>
      </trkpt>
      <trkpt lat="47.48907" lon="6.77665">
        <ele>362.5</ele>
        <time>2017-12-10T08:42:49.999Z</time>
      </trkpt>
      <trkpt lat="47.48912" lon="6.77666">
        <ele>362.3</ele>
        <time>2017-12-10T08:42:50.999Z</time>
      </trkpt>
      <trkpt lat="47.48915" lon="6.77664">
        <ele>362.1</ele>
        <time>2017-12-10T08:42:51.999Z</time>
      </trkpt>
      <trkpt lat="47.48913" lon="6.77658">
        <ele>361.9</ele>
        <time>2017-12-10T08:42:52.999Z</time>
      </trkpt>
      <trkpt lat="47.48911" lon="6.77653">
        <ele>361.2</ele>
        <time>2017-12-10T08:42:57.999Z</time>
      </trkpt>
      <trkpt lat="47.48912" lon="6.77648">
        <ele>361</ele>
        <time>2017-12-10T08:42:58.999Z</time>
      </trkpt>
      <trkpt lat="47.48909" lon="6.77647">
        <ele>361</ele>
        <time>2017-12-10T08:42:59.999Z</time>
      </trkpt>
      <trkpt lat="47.48905" lon="6.77644">
        <ele>361</ele>
        <time>2017-12-10T08:43:00.999Z</time>
      </trkpt>
      <trkpt lat="47.489" lon="6.7764">
        <ele>361</ele>
        <time>2017-12-10T08:43:01.999Z</time>
      </trkpt>
      <trkpt lat="47.48898" lon="6.77639">
        <ele>360.9</ele>
        <time>2017-12-10T08:43:02.999Z</time>
      </trkpt>
      <trkpt lat="47.48896" lon="6.77637">
        <ele>360.8</ele>
        <time>2017-12-10T08:43:03.999Z</time>
      </trkpt>
      <trkpt lat="47.48894" lon="6.77633">
        <ele>360.8</ele>
        <time>2017-12-10T08:43:04.999Z</time>
      </trkpt>
      <trkpt lat="47.48889" lon="6.77629">
        <ele>360.9</ele>
        <time>2017-12-10T08:43:05.999Z</time>
      </trkpt>
      <trkpt lat="47.48885" lon="6.77622">
        <ele>361</ele>
        <time>2017-12-10T08:43:06.999Z</time>
      </trkpt>
      <trkpt lat="47.48883" lon="6.77619">
        <ele>361.1</ele>
        <time>2017-12-10T08:43:07.999Z</time>
      </trkpt>
      <trkpt lat="47.48881" lon="6.77615">
        <ele>361.1</ele>
        <time>2017-12-10T08:43:08.999Z</time>
      </trkpt>
      <trkpt lat="47.48879" lon="6.77612">
        <ele>361.4</ele>
        <time>2017-12-10T08:43:09.999Z</time>
      </trkpt>
      <trkpt lat="47.48877" lon="6.77608">
        <ele>361.5</ele>
        <time>2017-12-10T08:43:10.999Z</time>
      </trkpt>
      <trkpt lat="47.48875" lon="6.77604">
        <ele>361.5</ele>
        <time>2017-12-10T08:43:11.999Z</time>
      </trkpt>
      <trkpt lat="47.48874" lon="6.77601">
        <ele>361.6</ele>
        <time>2017-12-10T08:43:12.999Z</time>
      </trkpt>
      <trkpt lat="47.48871" lon="6.77597">
        <ele>361.5</ele>
        <time>2017-12-10T08:43:13.999Z</time>
      </trkpt>
      <trkpt lat="47.48868" lon="6.77594">
        <ele>361.7</ele>
        <time>2017-12-10T08:43:14.999Z</time>
      </trkpt>
      <trkpt lat="47.48865" lon="6.77592">
        <ele>361.7</ele>
        <time>2017-12-10T08:43:15.999Z</time>
      </trkpt>
      <trkpt lat="47.48861" lon="6.7759">
        <ele>361.7</ele>
        <time>2017-12-10T08:43:16.999Z</time>
      </trkpt>
      <trkpt lat="47.48858" lon="6.77589">
        <ele>361.7</ele>
        <time>2017-12-10T08:43:17.999Z</time>
      </trkpt>
      <trkpt lat="47.48855" lon="6.77589">
        <ele>361.7</ele>
        <time>2017-12-10T08:43:18.999Z</time>
      </trkpt>
      <trkpt lat="47.4885" lon="6.77588">
        <ele>361.7</ele>
        <time>2017-12-10T08:43:19.999Z</time>
      </trkpt>
      <trkpt lat="47.48846" lon="6.77587">
        <ele>361.6</ele>
        <time>2017-12-10T08:43:20.999Z</time>
      </trkpt>
      <trkpt lat="47.48842" lon="6.77586">
        <ele>361.5</ele>
        <time>2017-12-10T08:43:22.999Z</time>
      </trkpt>
      <trkpt lat="47.48841" lon="6.77586">
        <ele>361.5</ele>
        <time>2017-12-10T08:43:23.999Z</time>
      </trkpt>
      <trkpt lat="47.48837" lon="6.77585">
        <ele>361.5</ele>
        <time>2017-12-10T08:43:26.999Z</time>
      </trkpt>
      <trkpt lat="47.48835" lon="6.77584">
        <ele>361.4</ele>
        <time>2017-12-10T08:43:27.999Z</time>
      </trkpt>
      <trkpt lat="47.48831" lon="6.77582">
        <ele>360.7</ele>
        <time>2017-12-10T08:43:31.999Z</time>
      </trkpt>
      <trkpt lat="47.4883" lon="6.77582">
        <ele>360.5</ele>
        <time>2017-12-10T08:43:32.999Z</time>
      </trkpt>
      <trkpt lat="47.48827" lon="6.7758">
        <ele>360</ele>
        <time>2017-12-10T08:43:36.999Z</time>
      </trkpt>
      <trkpt lat="47.48825" lon="6.77578">
        <ele>359.8</ele>
        <time>2017-12-10T08:43:37.999Z</time>
      </trkpt>
      <trkpt lat="47.48821" lon="6.77576">
        <ele>359.7</ele>
        <time>2017-12-10T08:43:38.999Z</time>
      </trkpt>
      <trkpt lat="47.4882" lon="6.77575">
        <ele>359.6</ele>
        <time>2017-12-10T08:43:39.999Z</time>
      </trkpt>
      <trkpt lat="47.48817" lon="6.77571">
        <ele>359.5</ele>
        <time>2017-12-10T08:43:42.999Z</time>
      </trkpt>
      <trkpt lat="47.48815" lon="6.77566">
        <ele>359.5</ele>
        <time>2017-12-10T08:43:43.999Z</time>
      </trkpt>
      <trkpt lat="47.48814" lon="6.77562">
        <ele>359.4</ele>
        <time>2017-12-10T08:43:45.999Z</time>
      </trkpt>
      <trkpt lat="47.48809" lon="6.77563">
        <ele>359.3</ele>
        <time>2017-12-10T08:43:46.999Z</time>
      </trkpt>
      <trkpt lat="47.48805" lon="6.7756">
        <ele>359.2</ele>
        <time>2017-12-10T08:43:50.999Z</time>
      </trkpt>
      <trkpt lat="47.48805" lon="6.77559">
        <ele>359.2</ele>
        <time>2017-12-10T08:43:51.999Z</time>
      </trkpt>
      <trkpt lat="47.48803" lon="6.77557">
        <ele>359.2</ele>
        <time>2017-12-10T08:43:52.999Z</time>
      </trkpt>
      <trkpt lat="47.488" lon="6.77555">
        <ele>359.2</ele>
        <time>2017-12-10T08:43:53.999Z</time>
      </trkpt>
      <trkpt lat="47.48797" lon="6.77552">
        <ele>359.6</ele>
        <time>2017-12-10T08:43:58.999Z</time>
      </trkpt>
      <trkpt lat="47.48796" lon="6.77551">
        <ele>359.9</ele>
        <time>2017-12-10T08:43:59.999Z</time>
      </trkpt>
      <trkpt lat="47.48793" lon="6.77548">
        <ele>360.1</ele>
        <time>2017-12-10T08:44:00.999Z</time>
      </trkpt>
      <trkpt lat="47.48789" lon="6.77546">
        <ele>360.3</ele>
        <time>2017-12-10T08:44:01.999Z</time>
      </trkpt>
      <trkpt lat="47.48787" lon="6.77545">
        <ele>360.3</ele>
        <time>2017-12-10T08:44:02.999Z</time>
      </trkpt>
      <trkpt lat="47.48784" lon="6.77543">
        <ele>360.5</ele>
        <time>2017-12-10T08:44:03.999Z</time>
      </trkpt>
      <trkpt lat="47.48782" lon="6.77542">
        <ele>360.8</ele>
        <time>2017-12-10T08:44:05.999Z</time>
      </trkpt>
      <trkpt lat="47.48778" lon="6.77541">
        <ele>361</ele>
        <time>2017-12-10T08:44:06.999Z</time>
      </trkpt>
      <trkpt lat="47.48774" lon="6.77538">
        <ele>361</ele>
        <time>2017-12-10T08:44:09.999Z</time>
      </trkpt>
      <trkpt lat="47.48771" lon="6.77536">
        <ele>361</ele>
        <time>2017-12-10T08:44:10.999Z</time>
      </trkpt>
      <trkpt lat="47.48767" lon="6.77535">
        <ele>361.1</ele>
        <time>2017-12-10T08:44:12.999Z</time>
      </trkpt>
      <trkpt lat="47.48766" lon="6.77534">
        <ele>361</ele>
        <time>2017-12-10T08:44:13.999Z</time>
      </trkpt>
      <trkpt lat="47.48762" lon="6.77532">
        <ele>361.1</ele>
        <time>2017-12-10T08:44:16.999Z</time>
      </trkpt>
      <trkpt lat="47.48761" lon="6.77531">
        <ele>361.2</ele>
        <time>2017-12-10T08:44:17.999Z</time>
      </trkpt>
      <trkpt lat="47.48757" lon="6.77529">
        <ele>361.4</ele>
        <time>2017-12-10T08:44:20.999Z</time>
      </trkpt>
      <trkpt lat="47.48756" lon="6.77528">
        <ele>361.5</ele>
        <time>2017-12-10T08:44:21.999Z</time>
      </trkpt>
      <trkpt lat="47.48753" lon="6.77524">
        <ele>361.9</ele>
        <time>2017-12-10T08:44:25.999Z</time>
      </trkpt>
      <trkpt lat="47.48752" lon="6.77524">
        <ele>362.1</ele>
        <time>2017-12-10T08:44:26.999Z</time>
      </trkpt>
      <trkpt lat="47.4875" lon="6.77518">
        <ele>362.5</ele>
        <time>2017-12-10T08:44:28.999Z</time>
      </trkpt>
      <trkpt lat="47.48749" lon="6.77518">
        <ele>362.5</ele>
        <time>2017-12-10T08:44:29.999Z</time>
      </trkpt>
      <trkpt lat="47.48747" lon="6.77515">
        <ele>362.9</ele>
        <time>2017-12-10T08:44:32.999Z</time>
      </trkpt>
      <trkpt lat="47.48746" lon="6.77511">
        <ele>363</ele>
        <time>2017-12-10T08:44:33.999Z</time>
      </trkpt>
      <trkpt lat="47.48745" lon="6.77507">
        <ele>363.3</ele>
        <time>2017-12-10T08:44:36.999Z</time>
      </trkpt>
      <trkpt lat="47.48742" lon="6.77503">
        <ele>363.5</ele>
        <time>2017-12-10T08:44:37.999Z</time>
      </trkpt>
      <trkpt lat="47.4874" lon="6.77499">
        <ele>363.6</ele>
        <time>2017-12-10T08:44:38.999Z</time>
      </trkpt>
      <trkpt lat="47.48738" lon="6.77499">
        <ele>363.7</ele>
        <time>2017-12-10T08:44:39.999Z</time>
      </trkpt>
      <trkpt lat="47.48736" lon="6.77497">
        <ele>363.8</ele>
        <time>2017-12-10T08:44:40.999Z</time>
      </trkpt>
      <trkpt lat="47.48734" lon="6.77495">
        <ele>363.9</ele>
        <time>2017-12-10T08:44:41.999Z</time>
      </trkpt>
      <trkpt lat="47.48731" lon="6.77493">
        <ele>364</ele>
        <time>2017-12-10T08:44:46.999Z</time>
      </trkpt>
      <trkpt lat="47.48729" lon="6.77492">
        <ele>364</ele>
        <time>2017-12-10T08:44:47.999Z</time>
      </trkpt>
      <trkpt lat="47.48726" lon="6.77489">
        <ele>364.1</ele>
        <time>2017-12-10T08:44:48.999Z</time>
      </trkpt>
      <trkpt lat="47.48725" lon="6.77488">
        <ele>364.4</ele>
        <time>2017-12-10T08:44:49.999Z</time>
      </trkpt>
      <trkpt lat="47.48722" lon="6.77484">
        <ele>364.6</ele>
        <time>2017-12-10T08:44:51.999Z</time>
      </trkpt>
      <trkpt lat="47.4872" lon="6.77481">
        <ele>364.6</ele>
        <time>2017-12-10T08:44:52.999Z</time>
      </trkpt>
      <trkpt lat="47.48719" lon="6.7748">
        <ele>364.8</ele>
        <time>2017-12-10T08:44:53.999Z</time>
      </trkpt>
      <trkpt lat="47.48716" lon="6.77477">
        <ele>365</ele>
        <time>2017-12-10T08:44:54.999Z</time>
      </trkpt>
      <trkpt lat="47.48712" lon="6.77475">
        <ele>365</ele>
        <time>2017-12-10T08:44:55.999Z</time>
      </trkpt>
      <trkpt lat="47.48711" lon="6.77474">
        <ele>365</ele>
        <time>2017-12-10T08:44:56.999Z</time>
      </trkpt>
      <trkpt lat="47.48708" lon="6.7747">
        <ele>364.9</ele>
        <time>2017-12-10T08:44:59.999Z</time>
      </trkpt>
      <trkpt lat="47.48707" lon="6.77469">
        <ele>364.8</ele>
        <time>2017-12-10T08:45:00.999Z</time>
      </trkpt>
      <trkpt lat="47.48704" lon="6.77466">
        <ele>364.7</ele>
        <time>2017-12-10T08:45:01.999Z</time>
      </trkpt>
      <trkpt lat="47.48703" lon="6.77464">
        <ele>364.5</ele>
        <time>2017-12-10T08:45:02.999Z</time>
      </trkpt>
      <trkpt lat="47.48701" lon="6.77459">
        <ele>364.3</ele>
        <time>2017-12-10T08:45:03.999Z</time>
      </trkpt>
      <trkpt lat="47.487" lon="6.77457">
        <ele>364.1</ele>
        <time>2017-12-10T08:45:04.999Z</time>
      </trkpt>
      <trkpt lat="47.48698" lon="6.77456">
        <ele>363.9</ele>
        <time>2017-12-10T08:45:08.999Z</time>
      </trkpt>
      <trkpt lat="47.48696" lon="6.77454">
        <ele>363.9</ele>
        <time>2017-12-10T08:45:09.999Z</time>
      </trkpt>
      <trkpt lat="47.48693" lon="6.77452">
        <ele>363.9</ele>
        <time>2017-12-10T08:45:10.999Z</time>
      </trkpt>
      <trkpt lat="47.48691" lon="6.77449">
        <ele>363.8</ele>
        <time>2017-12-10T08:45:11.999Z</time>
      </trkpt>
      <trkpt lat="47.48687" lon="6.77445">
        <ele>363.7</ele>
        <time>2017-12-10T08:45:16.999Z</time>
      </trkpt>
      <trkpt lat="47.48685" lon="6.77441">
        <ele>363.6</ele>
        <time>2017-12-10T08:45:17.999Z</time>
      </trkpt>
      <trkpt lat="47.48684" lon="6.7744">
        <ele>363.5</ele>
        <time>2017-12-10T08:45:18.999Z</time>
      </trkpt>
      <trkpt lat="47.48681" lon="6.77437">
        <ele>363.4</ele>
        <time>2017-12-10T08:45:19.999Z</time>
      </trkpt>
      <trkpt lat="47.48679" lon="6.77436">
        <ele>363.3</ele>
        <time>2017-12-10T08:45:20.999Z</time>
      </trkpt>
      <trkpt lat="47.48675" lon="6.77433">
        <ele>363.1</ele>
        <time>2017-12-10T08:45:21.999Z</time>
      </trkpt>
      <trkpt lat="47.4867" lon="6.77431">
        <ele>362.8</ele>
        <time>2017-12-10T08:45:22.999Z</time>
      </trkpt>
      <trkpt lat="47.48665" lon="6.77431">
        <ele>362.7</ele>
        <time>2017-12-10T08:45:23.999Z</time>
      </trkpt>
      <trkpt lat="47.48659" lon="6.77431">
        <ele>362.6</ele>
        <time>2017-12-10T08:45:24.999Z</time>
      </trkpt>
      <trkpt lat="47.48653" lon="6.77428">
        <ele>362.4</ele>
        <time>2017-12-10T08:45:25.999Z</time>
      </trkpt>
      <trkpt lat="47.48649" lon="6.77428">
        <ele>362.2</ele>
        <time>2017-12-10T08:45:26.999Z</time>
      </trkpt>
      <trkpt lat="47.48645" lon="6.77426">
        <ele>361.8</ele>
        <time>2017-12-10T08:45:28.999Z</time>
      </trkpt>
      <trkpt lat="47.48644" lon="6.77425">
        <ele>361.6</ele>
        <time>2017-12-10T08:45:29.999Z</time>
      </trkpt>
      <trkpt lat="47.48643" lon="6.77425">
        <ele>361.4</ele>
        <time>2017-12-10T08:45:30.999Z</time>
      </trkpt>
      <trkpt lat="47.48639" lon="6.77422">
        <ele>361.2</ele>
        <time>2017-12-10T08:45:31.999Z</time>
      </trkpt>
      <trkpt lat="47.48638" lon="6.77421">
        <ele>361</ele>
        <time>2017-12-10T08:45:32.999Z</time>
      </trkpt>
      <trkpt lat="47.48634" lon="6.7742">
        <ele>360.8</ele>
        <time>2017-12-10T08:45:33.999Z</time>
      </trkpt>
      <trkpt lat="47.48632" lon="6.77419">
        <ele>360.5</ele>
        <time>2017-12-10T08:45:35.999Z</time>
      </trkpt>
      <trkpt lat="47.48629" lon="6.77415">
        <ele>360.5</ele>
        <time>2017-12-10T08:45:36.999Z</time>
      </trkpt>
      <trkpt lat="47.48626" lon="6.7741">
        <ele>360.5</ele>
        <time>2017-12-10T08:45:37.999Z</time>
      </trkpt>
      <trkpt lat="47.48624" lon="6.77406">
        <ele>360.6</ele>
        <time>2017-12-10T08:45:38.999Z</time>
      </trkpt>
      <trkpt lat="47.48622" lon="6.77404">
        <ele>361.2</ele>
        <time>2017-12-10T08:45:40.999Z</time>
      </trkpt>
      <trkpt lat="47.48619" lon="6.77402">
        <ele>361.4</ele>
        <time>2017-12-10T08:45:41.999Z</time>
      </trkpt>
      <trkpt lat="47.48616" lon="6.77401">
        <ele>361.6</ele>
        <time>2017-12-10T08:45:43.999Z</time>
      </trkpt>
      <trkpt lat="47.48614" lon="6.77401">
        <ele>361.7</ele>
        <time>2017-12-10T08:45:44.999Z</time>
      </trkpt>
      <trkpt lat="47.48611" lon="6.77399">
        <ele>362.1</ele>
        <time>2017-12-10T08:45:46.999Z</time>
      </trkpt>
      <trkpt lat="47.48607" lon="6.774">
        <ele>362.2</ele>
        <time>2017-12-10T08:45:47.999Z</time>
      </trkpt>
      <trkpt lat="47.48603" lon="6.774">
        <ele>363.1</ele>
        <time>2017-12-10T08:45:52.999Z</time>
      </trkpt>
      <trkpt lat="47.48601" lon="6.77402">
        <ele>363.5</ele>
        <time>2017-12-10T08:45:53.999Z</time>
      </trkpt>
      <trkpt lat="47.48596" lon="6.77403">
        <ele>365.5</ele>
        <time>2017-12-10T08:46:02.999Z</time>
      </trkpt>
      <trkpt lat="47.48596" lon="6.77404">
        <ele>365.9</ele>
        <time>2017-12-10T08:46:03.999Z</time>
      </trkpt>
      <trkpt lat="47.48593" lon="6.77409">
        <ele>367.3</ele>
        <time>2017-12-10T08:46:08.999Z</time>
      </trkpt>
      <trkpt lat="47.48592" lon="6.77415">
        <ele>367.7</ele>
        <time>2017-12-10T08:46:09.999Z</time>
      </trkpt>
      <trkpt lat="47.4859" lon="6.7742">
        <ele>368.1</ele>
        <time>2017-12-10T08:46:10.999Z</time>
      </trkpt>
      <trkpt lat="47.48587" lon="6.77425">
        <ele>368.5</ele>
        <time>2017-12-10T08:46:11.999Z</time>
      </trkpt>
      <trkpt lat="47.48585" lon="6.77429">
        <ele>368.9</ele>
        <time>2017-12-10T08:46:12.999Z</time>
      </trkpt>
      <trkpt lat="47.48583" lon="6.77429">
        <ele>369.4</ele>
        <time>2017-12-10T08:46:13.999Z</time>
      </trkpt>
      <trkpt lat="47.4858" lon="6.77431">
        <ele>370.8</ele>
        <time>2017-12-10T08:46:16.999Z</time>
      </trkpt>
      <trkpt lat="47.48579" lon="6.77436">
        <ele>371.2</ele>
        <time>2017-12-10T08:46:17.999Z</time>
      </trkpt>
      <trkpt lat="47.48577" lon="6.77441">
        <ele>372</ele>
        <time>2017-12-10T08:46:19.999Z</time>
      </trkpt>
      <trkpt lat="47.48576" lon="6.77446">
        <ele>372.3</ele>
        <time>2017-12-10T08:46:20.999Z</time>
      </trkpt>
      <trkpt lat="47.48574" lon="6.7745">
        <ele>373.2</ele>
        <time>2017-12-10T08:46:23.999Z</time>
      </trkpt>
      <trkpt lat="47.48573" lon="6.77451">
        <ele>373.5</ele>
        <time>2017-12-10T08:46:24.999Z</time>
      </trkpt>
      <trkpt lat="47.4857" lon="6.77451">
        <ele>374</ele>
        <time>2017-12-10T08:46:27.999Z</time>
      </trkpt>
      <trkpt lat="47.48566" lon="6.77452">
        <ele>374.2</ele>
        <time>2017-12-10T08:46:28.999Z</time>
      </trkpt>
      <trkpt lat="47.48562" lon="6.77452">
        <ele>374.6</ele>
        <time>2017-12-10T08:46:30.999Z</time>
      </trkpt>
      <trkpt lat="47.48561" lon="6.77452">
        <ele>374.8</ele>
        <time>2017-12-10T08:46:31.999Z</time>
      </trkpt>
      <trkpt lat="47.48557" lon="6.77449">
        <ele>375</ele>
        <time>2017-12-10T08:46:32.999Z</time>
      </trkpt>
      <trkpt lat="47.48555" lon="6.77448">
        <ele>375.2</ele>
        <time>2017-12-10T08:46:33.999Z</time>
      </trkpt>
      <trkpt lat="47.48551" lon="6.77448">
        <ele>375.3</ele>
        <time>2017-12-10T08:46:35.999Z</time>
      </trkpt>
      <trkpt lat="47.48549" lon="6.77447">
        <ele>375.3</ele>
        <time>2017-12-10T08:46:36.999Z</time>
      </trkpt>
      <trkpt lat="47.48547" lon="6.77446">
        <ele>375.3</ele>
        <time>2017-12-10T08:46:37.999Z</time>
      </trkpt>
      <trkpt lat="47.48543" lon="6.77442">
        <ele>375.3</ele>
        <time>2017-12-10T08:46:38.999Z</time>
      </trkpt>
      <trkpt lat="47.48541" lon="6.77435">
        <ele>375.3</ele>
        <time>2017-12-10T08:46:39.999Z</time>
      </trkpt>
      <trkpt lat="47.48539" lon="6.77429">
        <ele>375.3</ele>
        <time>2017-12-10T08:46:40.999Z</time>
      </trkpt>
      <trkpt lat="47.48535" lon="6.77426">
        <ele>375.4</ele>
        <time>2017-12-10T08:46:42.999Z</time>
      </trkpt>
      <trkpt lat="47.48532" lon="6.77425">
        <ele>375.4</ele>
        <time>2017-12-10T08:46:43.999Z</time>
      </trkpt>
      <trkpt lat="47.48529" lon="6.77423">
        <ele>375.4</ele>
        <time>2017-12-10T08:46:45.999Z</time>
      </trkpt>
      <trkpt lat="47.48527" lon="6.77422">
        <ele>375.4</ele>
        <time>2017-12-10T08:46:46.999Z</time>
      </trkpt>
      <trkpt lat="47.48524" lon="6.7742">
        <ele>375.4</ele>
        <time>2017-12-10T08:46:47.999Z</time>
      </trkpt>
      <trkpt lat="47.48522" lon="6.77414">
        <ele>375.3</ele>
        <time>2017-12-10T08:46:48.999Z</time>
      </trkpt>
      <trkpt lat="47.4852" lon="6.7741">
        <ele>375.3</ele>
        <time>2017-12-10T08:46:50.999Z</time>
      </trkpt>
      <trkpt lat="47.48519" lon="6.77409">
        <ele>375.4</ele>
        <time>2017-12-10T08:46:51.999Z</time>
      </trkpt>
      <trkpt lat="47.48517" lon="6.77407">
        <ele>375.4</ele>
        <time>2017-12-10T08:46:52.999Z</time>
      </trkpt>
      <trkpt lat="47.48514" lon="6.77403">
        <ele>375.3</ele>
        <time>2017-12-10T08:46:53.999Z</time>
      </trkpt>
      <trkpt lat="47.48512" lon="6.774">
        <ele>375.2</ele>
        <time>2017-12-10T08:46:54.999Z</time>
      </trkpt>
      <trkpt lat="47.4851" lon="6.77398">
        <ele>375.2</ele>
        <time>2017-12-10T08:46:55.999Z</time>
      </trkpt>
      <trkpt lat="47.48508" lon="6.77395">
        <ele>375</ele>
        <time>2017-12-10T08:46:57.999Z</time>
      </trkpt>
      <trkpt lat="47.48506" lon="6.77394">
        <ele>374.9</ele>
        <time>2017-12-10T08:46:58.999Z</time>
      </trkpt>
      <trkpt lat="47.48504" lon="6.77392">
        <ele>374.7</ele>
        <time>2017-12-10T08:46:59.999Z</time>
      </trkpt>
      <trkpt lat="47.48501" lon="6.77389">
        <ele>374.5</ele>
        <time>2017-12-10T08:47:00.999Z</time>
      </trkpt>
      <trkpt lat="47.48498" lon="6.77385">
        <ele>374.3</ele>
        <time>2017-12-10T08:47:02.999Z</time>
      </trkpt>
      <trkpt lat="47.48495" lon="6.77381">
        <ele>374.2</ele>
        <time>2017-12-10T08:47:03.999Z</time>
      </trkpt>
      <trkpt lat="47.48493" lon="6.77378">
        <ele>374.1</ele>
        <time>2017-12-10T08:47:04.999Z</time>
      </trkpt>
      <trkpt lat="47.48492" lon="6.77376">
        <ele>374</ele>
        <time>2017-12-10T08:47:05.999Z</time>
      </trkpt>
      <trkpt lat="47.48488" lon="6.77373">
        <ele>374</ele>
        <time>2017-12-10T08:47:06.999Z</time>
      </trkpt>
      <trkpt lat="47.48487" lon="6.77371">
        <ele>374</ele>
        <time>2017-12-10T08:47:07.999Z</time>
      </trkpt>
      <trkpt lat="47.48485" lon="6.77369">
        <ele>373.9</ele>
        <time>2017-12-10T08:47:08.999Z</time>
      </trkpt>
      <trkpt lat="47.48483" lon="6.77367">
        <ele>373.9</ele>
        <time>2017-12-10T08:47:09.999Z</time>
      </trkpt>
      <trkpt lat="47.48481" lon="6.77366">
        <ele>373.9</ele>
        <time>2017-12-10T08:47:10.999Z</time>
      </trkpt>
      <trkpt lat="47.48478" lon="6.77361">
        <ele>373.9</ele>
        <time>2017-12-10T08:47:11.999Z</time>
      </trkpt>
      <trkpt lat="47.48474" lon="6.77357">
        <ele>373.9</ele>
        <time>2017-12-10T08:47:12.999Z</time>
      </trkpt>
      <trkpt lat="47.48471" lon="6.77353">
        <ele>373.8</ele>
        <time>2017-12-10T08:47:14.999Z</time>
      </trkpt>
      <trkpt lat="47.48467" lon="6.77352">
        <ele>373.7</ele>
        <time>2017-12-10T08:47:15.999Z</time>
      </trkpt>
      <trkpt lat="47.48465" lon="6.7735">
        <ele>373.6</ele>
        <time>2017-12-10T08:47:17.999Z</time>
      </trkpt>
      <trkpt lat="47.48462" lon="6.77345">
        <ele>373.6</ele>
        <time>2017-12-10T08:47:18.999Z</time>
      </trkpt>
      <trkpt lat="47.48457" lon="6.7734">
        <ele>373.7</ele>
        <time>2017-12-10T08:47:19.999Z</time>
      </trkpt>
      <trkpt lat="47.48455" lon="6.77339">
        <ele>373.7</ele>
        <time>2017-12-10T08:47:20.999Z</time>
      </trkpt>
      <trkpt lat="47.4845" lon="6.77335">
        <ele>373.8</ele>
        <time>2017-12-10T08:47:21.999Z</time>
      </trkpt>
      <trkpt lat="47.48448" lon="6.77333">
        <ele>373.8</ele>
        <time>2017-12-10T08:47:22.999Z</time>
      </trkpt>
      <trkpt lat="47.48444" lon="6.77329">
        <ele>373.9</ele>
        <time>2017-12-10T08:47:23.999Z</time>
      </trkpt>
      <trkpt lat="47.48444" lon="6.77327">
        <ele>373.9</ele>
        <time>2017-12-10T08:47:24.999Z</time>
      </trkpt>
      <trkpt lat="47.48441" lon="6.77321">
        <ele>373.9</ele>
        <time>2017-12-10T08:47:25.999Z</time>
      </trkpt>
      <trkpt lat="47.4844" lon="6.77319">
        <ele>373.8</ele>
        <time>2017-12-10T08:47:26.999Z</time>
      </trkpt>
      <trkpt lat="47.48438" lon="6.77313">
        <ele>373.9</ele>
        <time>2017-12-10T08:47:27.999Z</time>
      </trkpt>
      <trkpt lat="47.48437" lon="6.77309">
        <ele>373.9</ele>
        <time>2017-12-10T08:47:28.999Z</time>
      </trkpt>
      <trkpt lat="47.48436" lon="6.77305">
        <ele>373.9</ele>
        <time>2017-12-10T08:47:29.999Z</time>
      </trkpt>
      <trkpt lat="47.48434" lon="6.77303">
        <ele>373.9</ele>
        <time>2017-12-10T08:47:30.999Z</time>
      </trkpt>
      <trkpt lat="47.48432" lon="6.773">
        <ele>373.9</ele>
        <time>2017-12-10T08:47:31.999Z</time>
      </trkpt>
      <trkpt lat="47.4843" lon="6.77297">
        <ele>374</ele>
        <time>2017-12-10T08:47:32.999Z</time>
      </trkpt>
      <trkpt lat="47.48428" lon="6.77294">
        <ele>374</ele>
        <time>2017-12-10T08:47:33.999Z</time>
      </trkpt>
      <trkpt lat="47.48425" lon="6.77292">
        <ele>374.1</ele>
        <time>2017-12-10T08:47:34.999Z</time>
      </trkpt>
      <trkpt lat="47.48421" lon="6.77289">
        <ele>374.2</ele>
        <time>2017-12-10T08:47:35.999Z</time>
      </trkpt>
      <trkpt lat="47.48417" lon="6.77288">
        <ele>374.3</ele>
        <time>2017-12-10T08:47:36.999Z</time>
      </trkpt>
      <trkpt lat="47.48415" lon="6.77286">
        <ele>374.4</ele>
        <time>2017-12-10T08:47:37.999Z</time>
      </trkpt>
      <trkpt lat="47.48411" lon="6.77285">
        <ele>374.5</ele>
        <time>2017-12-10T08:47:38.999Z</time>
      </trkpt>
      <trkpt lat="47.48406" lon="6.77284">
        <ele>374.5</ele>
        <time>2017-12-10T08:47:40.000Z</time>
      </trkpt>
      <trkpt lat="47.48405" lon="6.77282">
        <ele>374.5</ele>
        <time>2017-12-10T08:47:40.999Z</time>
      </trkpt>
      <trkpt lat="47.48403" lon="6.7728">
        <ele>374.6</ele>
        <time>2017-12-10T08:47:41.999Z</time>
      </trkpt>
      <trkpt lat="47.48401" lon="6.77278">
        <ele>374.7</ele>
        <time>2017-12-10T08:47:43.000Z</time>
      </trkpt>
      <trkpt lat="47.48399" lon="6.77275">
        <ele>374.9</ele>
        <time>2017-12-10T08:47:44.000Z</time>
      </trkpt>
      <trkpt lat="47.48397" lon="6.77275">
        <ele>375</ele>
        <time>2017-12-10T08:47:45.000Z</time>
      </trkpt>
      <trkpt lat="47.48393" lon="6.7727">
        <ele>375.2</ele>
        <time>2017-12-10T08:47:46.000Z</time>
      </trkpt>
      <trkpt lat="47.48389" lon="6.77268">
        <ele>375.6</ele>
        <time>2017-12-10T08:47:49.000Z</time>
      </trkpt>
      <trkpt lat="47.48388" lon="6.77266">
        <ele>375.7</ele>
        <time>2017-12-10T08:47:50.000Z</time>
      </trkpt>
      <trkpt lat="47.48386" lon="6.77265">
        <ele>375.9</ele>
        <time>2017-12-10T08:47:51.000Z</time>
      </trkpt>
      <trkpt lat="47.48382" lon="6.77262">
        <ele>376.1</ele>
        <time>2017-12-10T08:47:52.000Z</time>
      </trkpt>
      <trkpt lat="47.4838" lon="6.77257">
        <ele>376.3</ele>
        <time>2017-12-10T08:47:54.000Z</time>
      </trkpt>
      <trkpt lat="47.48379" lon="6.77256">
        <ele>376.3</ele>
        <time>2017-12-10T08:47:55.000Z</time>
      </trkpt>
      <trkpt lat="47.48375" lon="6.77252">
        <ele>376.3</ele>
        <time>2017-12-10T08:47:56.000Z</time>
      </trkpt>
      <trkpt lat="47.4837" lon="6.77248">
        <ele>376.3</ele>
        <time>2017-12-10T08:47:57.000Z</time>
      </trkpt>
      <trkpt lat="47.48365" lon="6.77245">
        <ele>376.2</ele>
        <time>2017-12-10T08:47:58.000Z</time>
      </trkpt>
      <trkpt lat="47.48361" lon="6.77243">
        <ele>376.1</ele>
        <time>2017-12-10T08:47:59.000Z</time>
      </trkpt>
      <trkpt lat="47.48356" lon="6.7724">
        <ele>376</ele>
        <time>2017-12-10T08:48:00.000Z</time>
      </trkpt>
      <trkpt lat="47.48352" lon="6.77237">
        <ele>375.8</ele>
        <time>2017-12-10T08:48:02.000Z</time>
      </trkpt>
      <trkpt lat="47.48351" lon="6.77236">
        <ele>375.7</ele>
        <time>2017-12-10T08:48:03.000Z</time>
      </trkpt>
      <trkpt lat="47.48347" lon="6.77232">
        <ele>375.4</ele>
        <time>2017-12-10T08:48:06.000Z</time>
      </trkpt>
      <trkpt lat="47.48346" lon="6.7723">
        <ele>375.3</ele>
        <time>2017-12-10T08:48:07.000Z</time>
      </trkpt>
      <trkpt lat="47.48343" lon="6.77226">
        <ele>375.2</ele>
        <time>2017-12-10T08:48:08.000Z</time>
      </trkpt>
      <trkpt lat="47.4834" lon="6.77221">
        <ele>375.2</ele>
        <time>2017-12-10T08:48:09.000Z</time>
      </trkpt>
      <trkpt lat="47.48339" lon="6.77218">
        <ele>375.2</ele>
        <time>2017-12-10T08:48:10.000Z</time>
      </trkpt>
      <trkpt lat="47.48339" lon="6.77211">
        <ele>375.2</ele>
        <time>2017-12-10T08:48:11.000Z</time>
      </trkpt>
      <trkpt lat="47.48341" lon="6.77205">
        <ele>375.2</ele>
        <time>2017-12-10T08:48:12.000Z</time>
      </trkpt>
      <trkpt lat="47.48342" lon="6.77198">
        <ele>375.2</ele>
        <time>2017-12-10T08:48:13.000Z</time>
      </trkpt>
      <trkpt lat="47.48343" lon="6.77192">
        <ele>375.4</ele>
        <time>2017-12-10T08:48:14.000Z</time>
      </trkpt>
      <trkpt lat="47.48343" lon="6.7719">
        <ele>375.5</ele>
        <time>2017-12-10T08:48:15.000Z</time>
      </trkpt>
      <trkpt lat="47.48345" lon="6.77184">
        <ele>375.5</ele>
        <time>2017-12-10T08:48:18.000Z</time>
      </trkpt>
      <trkpt lat="47.48343" lon="6.7718">
        <ele>375.5</ele>
        <time>2017-12-10T08:48:19.000Z</time>
      </trkpt>
      <trkpt lat="47.48344" lon="6.77177">
        <ele>375.5</ele>
        <time>2017-12-10T08:48:20.000Z</time>
      </trkpt>
      <trkpt lat="47.48345" lon="6.77173">
        <ele>375.5</ele>
        <time>2017-12-10T08:48:21.000Z</time>
      </trkpt>
      <trkpt lat="47.48346" lon="6.77168">
        <ele>375.5</ele>
        <time>2017-12-10T08:48:22.000Z</time>
      </trkpt>
      <trkpt lat="47.48346" lon="6.77164">
        <ele>375.3</ele>
        <time>2017-12-10T08:48:23.000Z</time>
      </trkpt>
      <trkpt lat="47.48345" lon="6.77155">
        <ele>375.3</ele>
        <time>2017-12-10T08:48:24.000Z</time>
      </trkpt>
      <trkpt lat="47.48343" lon="6.77146">
        <ele>375.3</ele>
        <time>2017-12-10T08:48:25.000Z</time>
      </trkpt>
      <trkpt lat="47.48341" lon="6.77138">
        <ele>375.2</ele>
        <time>2017-12-10T08:48:26.000Z</time>
      </trkpt>
      <trkpt lat="47.48338" lon="6.7713">
        <ele>375</ele>
        <time>2017-12-10T08:48:27.000Z</time>
      </trkpt>
      <trkpt lat="47.48335" lon="6.77128">
        <ele>374.8</ele>
        <time>2017-12-10T08:48:28.000Z</time>
      </trkpt>
      <trkpt lat="47.48331" lon="6.77123">
        <ele>374.4</ele>
        <time>2017-12-10T08:48:29.000Z</time>
      </trkpt>
      <trkpt lat="47.48325" lon="6.77118">
        <ele>374</ele>
        <time>2017-12-10T08:48:30.000Z</time>
      </trkpt>
      <trkpt lat="47.48319" lon="6.77113">
        <ele>369.9</ele>
        <time>2017-12-10T08:48:31.000Z</time>
      </trkpt>
      <trkpt lat="47.48316" lon="6.77108">
        <ele>366.9</ele>
        <time>2017-12-10T08:48:32.000Z</time>
      </trkpt>
      <trkpt lat="47.48313" lon="6.77101">
        <ele>366.7</ele>
        <time>2017-12-10T08:48:33.000Z</time>
      </trkpt>
      <trkpt lat="47.48313" lon="6.77095">
        <ele>364.7</ele>
        <time>2017-12-10T08:48:34.000Z</time>
      </trkpt>
      <trkpt lat="47.4831" lon="6.77091">
        <ele>363.1</ele>
        <time>2017-12-10T08:48:35.000Z</time>
      </trkpt>
      <trkpt lat="47.48306" lon="6.77087">
        <ele>361.9</ele>
        <time>2017-12-10T08:48:36.000Z</time>
      </trkpt>
      <trkpt lat="47.48302" lon="6.77087">
        <ele>360.5</ele>
        <time>2017-12-10T08:48:37.000Z</time>
      </trkpt>
      <trkpt lat="47.48297" lon="6.77088">
        <ele>360.5</ele>
        <time>2017-12-10T08:48:38.000Z</time>
      </trkpt>
      <trkpt lat="47.4829" lon="6.77089">
        <ele>359.7</ele>
        <time>2017-12-10T08:48:39.000Z</time>
      </trkpt>
      <trkpt lat="47.48283" lon="6.7709">
        <ele>359</ele>
        <time>2017-12-10T08:48:40.000Z</time>
      </trkpt>
      <trkpt lat="47.48278" lon="6.77092">
        <ele>358</ele>
        <time>2017-12-10T08:48:41.000Z</time>
      </trkpt>
      <trkpt lat="47.48274" lon="6.77096">
        <ele>357.9</ele>
        <time>2017-12-10T08:48:42.000Z</time>
      </trkpt>
      <trkpt lat="47.48269" lon="6.771">
        <ele>358</ele>
        <time>2017-12-10T08:48:43.000Z</time>
      </trkpt>
      <trkpt lat="47.48266" lon="6.77104">
        <ele>358.2</ele>
        <time>2017-12-10T08:48:44.000Z</time>
      </trkpt>
      <trkpt lat="47.48264" lon="6.77106">
        <ele>358.2</ele>
        <time>2017-12-10T08:48:45.000Z</time>
      </trkpt>
      <trkpt lat="47.48261" lon="6.77107">
        <ele>358.1</ele>
        <time>2017-12-10T08:48:46.000Z</time>
      </trkpt>
      <trkpt lat="47.48255" lon="6.77111">
        <ele>358.4</ele>
        <time>2017-12-10T08:48:47.000Z</time>
      </trkpt>
      <trkpt lat="47.48253" lon="6.77114">
        <ele>358.4</ele>
        <time>2017-12-10T08:48:48.000Z</time>
      </trkpt>
      <trkpt lat="47.48251" lon="6.77118">
        <ele>358.4</ele>
        <time>2017-12-10T08:48:49.000Z</time>
      </trkpt>
      <trkpt lat="47.48249" lon="6.77123">
        <ele>358.6</ele>
        <time>2017-12-10T08:48:51.000Z</time>
      </trkpt>
      <trkpt lat="47.48247" lon="6.77126">
        <ele>358.7</ele>
        <time>2017-12-10T08:48:52.000Z</time>
      </trkpt>
      <trkpt lat="47.48246" lon="6.7713">
        <ele>358.8</ele>
        <time>2017-12-10T08:48:53.000Z</time>
      </trkpt>
      <trkpt lat="47.48245" lon="6.77134">
        <ele>358.9</ele>
        <time>2017-12-10T08:48:54.000Z</time>
      </trkpt>
      <trkpt lat="47.48244" lon="6.77138">
        <ele>359</ele>
        <time>2017-12-10T08:48:55.000Z</time>
      </trkpt>
      <trkpt lat="47.48244" lon="6.77143">
        <ele>359</ele>
        <time>2017-12-10T08:48:56.000Z</time>
      </trkpt>
      <trkpt lat="47.48244" lon="6.77151">
        <ele>359</ele>
        <time>2017-12-10T08:48:57.000Z</time>
      </trkpt>
      <trkpt lat="47.48244" lon="6.7716">
        <ele>358.9</ele>
        <time>2017-12-10T08:48:58.000Z</time>
      </trkpt>
      <trkpt lat="47.48243" lon="6.77169">
        <ele>358.8</ele>
        <time>2017-12-10T08:48:59.000Z</time>
      </trkpt>
      <trkpt lat="47.48243" lon="6.77174">
        <ele>358.7</ele>
        <time>2017-12-10T08:49:00.000Z</time>
      </trkpt>
      <trkpt lat="47.48243" lon="6.77179">
        <ele>358.6</ele>
        <time>2017-12-10T08:49:01.000Z</time>
      </trkpt>
      <trkpt lat="47.48242" lon="6.77184">
        <ele>358.5</ele>
        <time>2017-12-10T08:49:02.000Z</time>
      </trkpt>
      <trkpt lat="47.48242" lon="6.77192">
        <ele>358.4</ele>
        <time>2017-12-10T08:49:03.000Z</time>
      </trkpt>
      <trkpt lat="47.48244" lon="6.772">
        <ele>358.3</ele>
        <time>2017-12-10T08:49:04.000Z</time>
      </trkpt>
      <trkpt lat="47.48245" lon="6.77204">
        <ele>358.3</ele>
        <time>2017-12-10T08:49:05.000Z</time>
      </trkpt>
      <trkpt lat="47.48245" lon="6.77208">
        <ele>358.2</ele>
        <time>2017-12-10T08:49:06.000Z</time>
      </trkpt>
      <trkpt lat="47.48247" lon="6.77211">
        <ele>358.1</ele>
        <time>2017-12-10T08:49:07.000Z</time>
      </trkpt>
      <trkpt lat="47.48248" lon="6.77215">
        <ele>358</ele>
        <time>2017-12-10T08:49:08.000Z</time>
      </trkpt>
      <trkpt lat="47.4825" lon="6.77218">
        <ele>357.9</ele>
        <time>2017-12-10T08:49:09.000Z</time>
      </trkpt>
      <trkpt lat="47.48252" lon="6.7722">
        <ele>357.7</ele>
        <time>2017-12-10T08:49:10.000Z</time>
      </trkpt>
      <trkpt lat="47.48253" lon="6.77223">
        <ele>357.6</ele>
        <time>2017-12-10T08:49:11.000Z</time>
      </trkpt>
      <trkpt lat="47.48255" lon="6.77226">
        <ele>357.4</ele>
        <time>2017-12-10T08:49:12.000Z</time>
      </trkpt>
      <trkpt lat="47.48257" lon="6.77227">
        <ele>357.2</ele>
        <time>2017-12-10T08:49:13.000Z</time>
      </trkpt>
      <trkpt lat="47.48259" lon="6.77229">
        <ele>357</ele>
        <time>2017-12-10T08:49:14.000Z</time>
      </trkpt>
      <trkpt lat="47.48262" lon="6.77231">
        <ele>356.7</ele>
        <time>2017-12-10T08:49:15.000Z</time>
      </trkpt>
      <trkpt lat="47.48264" lon="6.77234">
        <ele>356.6</ele>
        <time>2017-12-10T08:49:16.000Z</time>
      </trkpt>
      <trkpt lat="47.48266" lon="6.77236">
        <ele>356.4</ele>
        <time>2017-12-10T08:49:17.000Z</time>
      </trkpt>
      <trkpt lat="47.48269" lon="6.77239">
        <ele>356.3</ele>
        <time>2017-12-10T08:49:18.000Z</time>
      </trkpt>
      <trkpt lat="47.48272" lon="6.7724">
        <ele>356.2</ele>
        <time>2017-12-10T08:49:19.000Z</time>
      </trkpt>
      <trkpt lat="47.48275" lon="6.7724">
        <ele>356.1</ele>
        <time>2017-12-10T08:49:20.000Z</time>
      </trkpt>
      <trkpt lat="47.48278" lon="6.7724">
        <ele>356</ele>
        <time>2017-12-10T08:49:21.000Z</time>
      </trkpt>
      <trkpt lat="47.48282" lon="6.77243">
        <ele>355.9</ele>
        <time>2017-12-10T08:49:22.000Z</time>
      </trkpt>
      <trkpt lat="47.48285" lon="6.77245">
        <ele>355.7</ele>
        <time>2017-12-10T08:49:23.000Z</time>
      </trkpt>
      <trkpt lat="47.48289" lon="6.77247">
        <ele>355.6</ele>
        <time>2017-12-10T08:49:24.000Z</time>
      </trkpt>
      <trkpt lat="47.48293" lon="6.7725">
        <ele>355.4</ele>
        <time>2017-12-10T08:49:25.000Z</time>
      </trkpt>
      <trkpt lat="47.48296" lon="6.77252">
        <ele>355.2</ele>
        <time>2017-12-10T08:49:26.000Z</time>
      </trkpt>
      <trkpt lat="47.48301" lon="6.77253">
        <ele>355.1</ele>
        <time>2017-12-10T08:49:27.000Z</time>
      </trkpt>
      <trkpt lat="47.48305" lon="6.77254">
        <ele>354.9</ele>
        <time>2017-12-10T08:49:28.000Z</time>
      </trkpt>
      <trkpt lat="47.48309" lon="6.77256">
        <ele>354.6</ele>
        <time>2017-12-10T08:49:29.000Z</time>
      </trkpt>
      <trkpt lat="47.48314" lon="6.7726">
        <ele>354.4</ele>
        <time>2017-12-10T08:49:30.000Z</time>
      </trkpt>
      <trkpt lat="47.48316" lon="6.77262">
        <ele>354.1</ele>
        <time>2017-12-10T08:49:31.000Z</time>
      </trkpt>
      <trkpt lat="47.48319" lon="6.77263">
        <ele>353.8</ele>
        <time>2017-12-10T08:49:32.000Z</time>
      </trkpt>
      <trkpt lat="47.48322" lon="6.77265">
        <ele>353.6</ele>
        <time>2017-12-10T08:49:33.000Z</time>
      </trkpt>
      <trkpt lat="47.48325" lon="6.77268">
        <ele>353.4</ele>
        <time>2017-12-10T08:49:34.000Z</time>
      </trkpt>
      <trkpt lat="47.48327" lon="6.77269">
        <ele>353.1</ele>
        <time>2017-12-10T08:49:35.000Z</time>
      </trkpt>
      <trkpt lat="47.48331" lon="6.77271">
        <ele>352.9</ele>
        <time>2017-12-10T08:49:36.000Z</time>
      </trkpt>
      <trkpt lat="47.48334" lon="6.77273">
        <ele>352.6</ele>
        <time>2017-12-10T08:49:37.000Z</time>
      </trkpt>
      <trkpt lat="47.48337" lon="6.77276">
        <ele>352.4</ele>
        <time>2017-12-10T08:49:38.000Z</time>
      </trkpt>
      <trkpt lat="47.48341" lon="6.77279">
        <ele>352.2</ele>
        <time>2017-12-10T08:49:39.000Z</time>
      </trkpt>
      <trkpt lat="47.48344" lon="6.77282">
        <ele>352</ele>
        <time>2017-12-10T08:49:40.000Z</time>
      </trkpt>
      <trkpt lat="47.48348" lon="6.77284">
        <ele>351.7</ele>
        <time>2017-12-10T08:49:41.000Z</time>
      </trkpt>
      <trkpt lat="47.48353" lon="6.77289">
        <ele>351.4</ele>
        <time>2017-12-10T08:49:42.000Z</time>
      </trkpt>
      <trkpt lat="47.48356" lon="6.77292">
        <ele>351.2</ele>
        <time>2017-12-10T08:49:43.000Z</time>
      </trkpt>
      <trkpt lat="47.48361" lon="6.77294">
        <ele>350.9</ele>
        <time>2017-12-10T08:49:44.000Z</time>
      </trkpt>
      <trkpt lat="47.48364" lon="6.77296">
        <ele>350.7</ele>
        <time>2017-12-10T08:49:45.000Z</time>
      </trkpt>
      <trkpt lat="47.48367" lon="6.77299">
        <ele>350.4</ele>
        <time>2017-12-10T08:49:46.000Z</time>
      </trkpt>
      <trkpt lat="47.48372" lon="6.77303">
        <ele>350.1</ele>
        <time>2017-12-10T08:49:47.000Z</time>
      </trkpt>
      <trkpt lat="47.48374" lon="6.77306">
        <ele>349.8</ele>
        <time>2017-12-10T08:49:48.000Z</time>
      </trkpt>
      <trkpt lat="47.48379" lon="6.7731">
        <ele>349.5</ele>
        <time>2017-12-10T08:49:49.000Z</time>
      </trkpt>
      <trkpt lat="47.48382" lon="6.77312">
        <ele>349.2</ele>
        <time>2017-12-10T08:49:50.000Z</time>
      </trkpt>
      <trkpt lat="47.48385" lon="6.77315">
        <ele>349</ele>
        <time>2017-12-10T08:49:51.000Z</time>
      </trkpt>
      <trkpt lat="47.4839" lon="6.77318">
        <ele>348.6</ele>
        <time>2017-12-10T08:49:52.000Z</time>
      </trkpt>
      <trkpt lat="47.48393" lon="6.77322">
        <ele>345.6</ele>
        <time>2017-12-10T08:49:53.000Z</time>
      </trkpt>
      <trkpt lat="47.48396" lon="6.77325">
        <ele>345.3</ele>
        <time>2017-12-10T08:49:54.000Z</time>
      </trkpt>
      <trkpt lat="47.48399" lon="6.77327">
        <ele>345.2</ele>
        <time>2017-12-10T08:49:55.000Z</time>
      </trkpt>
      <trkpt lat="47.48403" lon="6.7733">
        <ele>345</ele>
        <time>2017-12-10T08:49:56.000Z</time>
      </trkpt>
      <trkpt lat="47.48407" lon="6.77334">
        <ele>344</ele>
        <time>2017-12-10T08:49:57.000Z</time>
      </trkpt>
      <trkpt lat="47.48411" lon="6.77338">
        <ele>343.2</ele>
        <time>2017-12-10T08:49:58.000Z</time>
      </trkpt>
      <trkpt lat="47.48414" lon="6.77342">
        <ele>343</ele>
        <time>2017-12-10T08:49:59.000Z</time>
      </trkpt>
      <trkpt lat="47.48417" lon="6.77346">
        <ele>342.8</ele>
        <time>2017-12-10T08:50:00.000Z</time>
      </trkpt>
      <trkpt lat="47.4842" lon="6.77349">
        <ele>342.7</ele>
        <time>2017-12-10T08:50:01.000Z</time>
      </trkpt>
      <trkpt lat="47.48424" lon="6.77353">
        <ele>342.6</ele>
        <time>2017-12-10T08:50:02.000Z</time>
      </trkpt>
      <trkpt lat="47.4843" lon="6.77361">
        <ele>343.4</ele>
        <time>2017-12-10T08:50:03.000Z</time>
      </trkpt>
      <trkpt lat="47.48434" lon="6.77369">
        <ele>343.8</ele>
        <time>2017-12-10T08:50:04.000Z</time>
      </trkpt>
      <trkpt lat="47.48437" lon="6.77373">
        <ele>343.8</ele>
        <time>2017-12-10T08:50:05.000Z</time>
      </trkpt>
      <trkpt lat="47.48442" lon="6.77378">
        <ele>343.9</ele>
        <time>2017-12-10T08:50:06.000Z</time>
      </trkpt>
      <trkpt lat="47.48446" lon="6.77382">
        <ele>343.9</ele>
        <time>2017-12-10T08:50:07.000Z</time>
      </trkpt>
      <trkpt lat="47.48449" lon="6.77385">
        <ele>344</ele>
        <time>2017-12-10T08:50:08.000Z</time>
      </trkpt>
      <trkpt lat="47.48453" lon="6.77388">
        <ele>344.1</ele>
        <time>2017-12-10T08:50:09.000Z</time>
      </trkpt>
      <trkpt lat="47.48456" lon="6.77391">
        <ele>344.2</ele>
        <time>2017-12-10T08:50:10.000Z</time>
      </trkpt>
      <trkpt lat="47.4846" lon="6.77395">
        <ele>344.3</ele>
        <time>2017-12-10T08:50:11.000Z</time>
      </trkpt>
      <trkpt lat="47.48464" lon="6.77398">
        <ele>344.6</ele>
        <time>2017-12-10T08:50:12.000Z</time>
      </trkpt>
      <trkpt lat="47.48467" lon="6.774">
        <ele>344.8</ele>
        <time>2017-12-10T08:50:13.000Z</time>
      </trkpt>
      <trkpt lat="47.4847" lon="6.77403">
        <ele>345</ele>
        <time>2017-12-10T08:50:14.000Z</time>
      </trkpt>
      <trkpt lat="47.48473" lon="6.77407">
        <ele>345.2</ele>
        <time>2017-12-10T08:50:15.000Z</time>
      </trkpt>
      <trkpt lat="47.48476" lon="6.77409">
        <ele>345.5</ele>
        <time>2017-12-10T08:50:16.000Z</time>
      </trkpt>
      <trkpt lat="47.48479" lon="6.77414">
        <ele>347.5</ele>
        <time>2017-12-10T08:50:17.000Z</time>
      </trkpt>
      <trkpt lat="47.48482" lon="6.77418">
        <ele>348.6</ele>
        <time>2017-12-10T08:50:18.000Z</time>
      </trkpt>
      <trkpt lat="47.48485" lon="6.77422">
        <ele>348.7</ele>
        <time>2017-12-10T08:50:19.000Z</time>
      </trkpt>
      <trkpt lat="47.48488" lon="6.77426">
        <ele>349</ele>
        <time>2017-12-10T08:50:20.000Z</time>
      </trkpt>
      <trkpt lat="47.48491" lon="6.7743">
        <ele>349.1</ele>
        <time>2017-12-10T08:50:21.000Z</time>
      </trkpt>
      <trkpt lat="47.48495" lon="6.77435">
        <ele>349.3</ele>
        <time>2017-12-10T08:50:22.000Z</time>
      </trkpt>
      <trkpt lat="47.48499" lon="6.7744">
        <ele>349.5</ele>
        <time>2017-12-10T08:50:23.000Z</time>
      </trkpt>
      <trkpt lat="47.48502" lon="6.77443">
        <ele>349.6</ele>
        <time>2017-12-10T08:50:24.000Z</time>
      </trkpt>
      <trkpt lat="47.48505" lon="6.77446">
        <ele>349.8</ele>
        <time>2017-12-10T08:50:25.000Z</time>
      </trkpt>
      <trkpt lat="47.48508" lon="6.77449">
        <ele>350.1</ele>
        <time>2017-12-10T08:50:26.000Z</time>
      </trkpt>
      <trkpt lat="47.48512" lon="6.77453">
        <ele>352.2</ele>
        <time>2017-12-10T08:50:27.000Z</time>
      </trkpt>
      <trkpt lat="47.48515" lon="6.77455">
        <ele>352.3</ele>
        <time>2017-12-10T08:50:28.000Z</time>
      </trkpt>
      <trkpt lat="47.48518" lon="6.77458">
        <ele>352.6</ele>
        <time>2017-12-10T08:50:29.000Z</time>
      </trkpt>
      <trkpt lat="47.48521" lon="6.7746">
        <ele>352.8</ele>
        <time>2017-12-10T08:50:30.000Z</time>
      </trkpt>
      <trkpt lat="47.48524" lon="6.77463">
        <ele>353</ele>
        <time>2017-12-10T08:50:31.000Z</time>
      </trkpt>
      <trkpt lat="47.48527" lon="6.77467">
        <ele>353.3</ele>
        <time>2017-12-10T08:50:32.000Z</time>
      </trkpt>
      <trkpt lat="47.48531" lon="6.77472">
        <ele>355.2</ele>
        <time>2017-12-10T08:50:33.000Z</time>
      </trkpt>
      <trkpt lat="47.48534" lon="6.77476">
        <ele>355.2</ele>
        <time>2017-12-10T08:50:34.000Z</time>
      </trkpt>
      <trkpt lat="47.48537" lon="6.7748">
        <ele>355.2</ele>
        <time>2017-12-10T08:50:35.000Z</time>
      </trkpt>
      <trkpt lat="47.48539" lon="6.77483">
        <ele>355.2</ele>
        <time>2017-12-10T08:50:36.000Z</time>
      </trkpt>
      <trkpt lat="47.48542" lon="6.77486">
        <ele>355.3</ele>
        <time>2017-12-10T08:50:37.000Z</time>
      </trkpt>
      <trkpt lat="47.48545" lon="6.77489">
        <ele>355.3</ele>
        <time>2017-12-10T08:50:38.000Z</time>
      </trkpt>
      <trkpt lat="47.48547" lon="6.77493">
        <ele>355.3</ele>
        <time>2017-12-10T08:50:39.000Z</time>
      </trkpt>
      <trkpt lat="47.4855" lon="6.77497">
        <ele>355.4</ele>
        <time>2017-12-10T08:50:40.000Z</time>
      </trkpt>
      <trkpt lat="47.48551" lon="6.77503">
        <ele>356.5</ele>
        <time>2017-12-10T08:50:41.000Z</time>
      </trkpt>
      <trkpt lat="47.48552" lon="6.77508">
        <ele>356.6</ele>
        <time>2017-12-10T08:50:42.000Z</time>
      </trkpt>
      <trkpt lat="47.48553" lon="6.77512">
        <ele>356.7</ele>
        <time>2017-12-10T08:50:43.000Z</time>
      </trkpt>
      <trkpt lat="47.48554" lon="6.77517">
        <ele>356.7</ele>
        <time>2017-12-10T08:50:44.000Z</time>
      </trkpt>
      <trkpt lat="47.48555" lon="6.77521">
        <ele>356.7</ele>
        <time>2017-12-10T08:50:45.000Z</time>
      </trkpt>
      <trkpt lat="47.48557" lon="6.77527">
        <ele>356.7</ele>
        <time>2017-12-10T08:50:46.000Z</time>
      </trkpt>
      <trkpt lat="47.48559" lon="6.77531">
        <ele>356.3</ele>
        <time>2017-12-10T08:50:47.000Z</time>
      </trkpt>
      <trkpt lat="47.48564" lon="6.77537">
        <ele>355.3</ele>
        <time>2017-12-10T08:50:48.000Z</time>
      </trkpt>
      <trkpt lat="47.48567" lon="6.77541">
        <ele>354.8</ele>
        <time>2017-12-10T08:50:49.000Z</time>
      </trkpt>
      <trkpt lat="47.48571" lon="6.77544">
        <ele>354.6</ele>
        <time>2017-12-10T08:50:50.000Z</time>
      </trkpt>
      <trkpt lat="47.48574" lon="6.77548">
        <ele>354.2</ele>
        <time>2017-12-10T08:50:51.000Z</time>
      </trkpt>
      <trkpt lat="47.48577" lon="6.77553">
        <ele>353.8</ele>
        <time>2017-12-10T08:50:52.000Z</time>
      </trkpt>
      <trkpt lat="47.48579" lon="6.77558">
        <ele>353.9</ele>
        <time>2017-12-10T08:50:53.000Z</time>
      </trkpt>
      <trkpt lat="47.48581" lon="6.77562">
        <ele>354.4</ele>
        <time>2017-12-10T08:50:54.000Z</time>
      </trkpt>
      <trkpt lat="47.48583" lon="6.77566">
        <ele>354.4</ele>
        <time>2017-12-10T08:50:55.000Z</time>
      </trkpt>
      <trkpt lat="47.48586" lon="6.7757">
        <ele>354.3</ele>
        <time>2017-12-10T08:50:56.000Z</time>
      </trkpt>
      <trkpt lat="47.48588" lon="6.77576">
        <ele>353</ele>
        <time>2017-12-10T08:50:57.000Z</time>
      </trkpt>
      <trkpt lat="47.48592" lon="6.77583">
        <ele>351.7</ele>
        <time>2017-12-10T08:50:58.000Z</time>
      </trkpt>
      <trkpt lat="47.48595" lon="6.77588">
        <ele>351.1</ele>
        <time>2017-12-10T08:50:59.000Z</time>
      </trkpt>
      <trkpt lat="47.48598" lon="6.77593">
        <ele>351.1</ele>
        <time>2017-12-10T08:51:00.000Z</time>
      </trkpt>
      <trkpt lat="47.486" lon="6.77598">
        <ele>351.1</ele>
        <time>2017-12-10T08:51:01.000Z</time>
      </trkpt>
      <trkpt lat="47.486" lon="6.77603">
        <ele>351.1</ele>
        <time>2017-12-10T08:51:02.000Z</time>
      </trkpt>
      <trkpt lat="47.48601" lon="6.77607">
        <ele>351</ele>
        <time>2017-12-10T08:51:03.000Z</time>
      </trkpt>
      <trkpt lat="47.486" lon="6.77612">
        <ele>351</ele>
        <time>2017-12-10T08:51:04.000Z</time>
      </trkpt>
      <trkpt lat="47.48599" lon="6.77617">
        <ele>350</ele>
        <time>2017-12-10T08:51:05.000Z</time>
      </trkpt>
      <trkpt lat="47.48598" lon="6.77623">
        <ele>349.9</ele>
        <time>2017-12-10T08:51:06.000Z</time>
      </trkpt>
      <trkpt lat="47.48596" lon="6.77627">
        <ele>350</ele>
        <time>2017-12-10T08:51:07.000Z</time>
      </trkpt>
      <trkpt lat="47.48596" lon="6.77633">
        <ele>350.1</ele>
        <time>2017-12-10T08:51:08.000Z</time>
      </trkpt>
      <trkpt lat="47.48595" lon="6.77639">
        <ele>352</ele>
        <time>2017-12-10T08:51:09.000Z</time>
      </trkpt>
      <trkpt lat="47.48594" lon="6.77646">
        <ele>353.3</ele>
        <time>2017-12-10T08:51:10.000Z</time>
      </trkpt>
      <trkpt lat="47.48592" lon="6.77653">
        <ele>354.4</ele>
        <time>2017-12-10T08:51:11.000Z</time>
      </trkpt>
      <trkpt lat="47.48591" lon="6.7766">
        <ele>355.8</ele>
        <time>2017-12-10T08:51:12.000Z</time>
      </trkpt>
      <trkpt lat="47.48589" lon="6.77667">
        <ele>357.1</ele>
        <time>2017-12-10T08:51:13.000Z</time>
      </trkpt>
      <trkpt lat="47.48588" lon="6.77674">
        <ele>358.3</ele>
        <time>2017-12-10T08:51:14.000Z</time>
      </trkpt>
      <trkpt lat="47.48587" lon="6.77681">
        <ele>358.6</ele>
        <time>2017-12-10T08:51:15.000Z</time>
      </trkpt>
      <trkpt lat="47.48586" lon="6.77689">
        <ele>359.7</ele>
        <time>2017-12-10T08:51:16.000Z</time>
      </trkpt>
      <trkpt lat="47.48585" lon="6.77696">
        <ele>359.8</ele>
        <time>2017-12-10T08:51:17.000Z</time>
      </trkpt>
      <trkpt lat="47.48585" lon="6.77702">
        <ele>360.3</ele>
        <time>2017-12-10T08:51:18.000Z</time>
      </trkpt>
      <trkpt lat="47.48584" lon="6.77709">
        <ele>360.7</ele>
        <time>2017-12-10T08:51:19.000Z</time>
      </trkpt>
      <trkpt lat="47.48584" lon="6.77717">
        <ele>360.9</ele>
        <time>2017-12-10T08:51:20.000Z</time>
      </trkpt>
      <trkpt lat="47.48584" lon="6.77723">
        <ele>361.7</ele>
        <time>2017-12-10T08:51:21.000Z</time>
      </trkpt>
      <trkpt lat="47.48584" lon="6.77729">
        <ele>362.3</ele>
        <time>2017-12-10T08:51:22.000Z</time>
      </trkpt>
      <trkpt lat="47.48584" lon="6.77736">
        <ele>362.6</ele>
        <time>2017-12-10T08:51:23.000Z</time>
      </trkpt>
      <trkpt lat="47.48583" lon="6.77742">
        <ele>362.5</ele>
        <time>2017-12-10T08:51:24.000Z</time>
      </trkpt>
      <trkpt lat="47.48582" lon="6.77749">
        <ele>362.4</ele>
        <time>2017-12-10T08:51:25.000Z</time>
      </trkpt>
      <trkpt lat="47.48581" lon="6.77754">
        <ele>362.7</ele>
        <time>2017-12-10T08:51:26.000Z</time>
      </trkpt>
      <trkpt lat="47.4858" lon="6.77761">
        <ele>363.2</ele>
        <time>2017-12-10T08:51:27.000Z</time>
      </trkpt>
      <trkpt lat="47.48579" lon="6.77768">
        <ele>365.1</ele>
        <time>2017-12-10T08:51:28.000Z</time>
      </trkpt>
      <trkpt lat="47.48578" lon="6.77774">
        <ele>366.8</ele>
        <time>2017-12-10T08:51:29.000Z</time>
      </trkpt>
      <trkpt lat="47.48577" lon="6.77779">
        <ele>368.1</ele>
        <time>2017-12-10T08:51:30.000Z</time>
      </trkpt>
      <trkpt lat="47.48575" lon="6.77788">
        <ele>368.6</ele>
        <time>2017-12-10T08:51:31.000Z</time>
      </trkpt>
      <trkpt lat="47.48573" lon="6.77794">
        <ele>368.8</ele>
        <time>2017-12-10T08:51:32.000Z</time>
      </trkpt>
      <trkpt lat="47.48572" lon="6.77802">
        <ele>368.7</ele>
        <time>2017-12-10T08:51:33.000Z</time>
      </trkpt>
      <trkpt lat="47.48571" lon="6.77807">
        <ele>368.6</ele>
        <time>2017-12-10T08:51:34.000Z</time>
      </trkpt>
      <trkpt lat="47.48571" lon="6.77812">
        <ele>368.6</ele>
        <time>2017-12-10T08:51:35.000Z</time>
      </trkpt>
      <trkpt lat="47.4857" lon="6.77818">
        <ele>368.7</ele>
        <time>2017-12-10T08:51:36.000Z</time>
      </trkpt>
      <trkpt lat="47.48569" lon="6.77824">
        <ele>368.8</ele>
        <time>2017-12-10T08:51:37.000Z</time>
      </trkpt>
      <trkpt lat="47.48568" lon="6.7783">
        <ele>368.7</ele>
        <time>2017-12-10T08:51:38.000Z</time>
      </trkpt>
      <trkpt lat="47.48567" lon="6.77837">
        <ele>368.5</ele>
        <time>2017-12-10T08:51:39.000Z</time>
      </trkpt>
      <trkpt lat="47.48565" lon="6.77843">
        <ele>368.2</ele>
        <time>2017-12-10T08:51:40.000Z</time>
      </trkpt>
      <trkpt lat="47.48564" lon="6.77849">
        <ele>367.8</ele>
        <time>2017-12-10T08:51:41.000Z</time>
      </trkpt>
      <trkpt lat="47.48563" lon="6.77858">
        <ele>367</ele>
        <time>2017-12-10T08:51:42.000Z</time>
      </trkpt>
      <trkpt lat="47.48562" lon="6.77865">
        <ele>367</ele>
        <time>2017-12-10T08:51:43.000Z</time>
      </trkpt>
      <trkpt lat="47.4856" lon="6.77872">
        <ele>367.1</ele>
        <time>2017-12-10T08:51:44.000Z</time>
      </trkpt>
      <trkpt lat="47.48558" lon="6.7788">
        <ele>367.1</ele>
        <time>2017-12-10T08:51:45.000Z</time>
      </trkpt>
      <trkpt lat="47.48556" lon="6.77886">
        <ele>367</ele>
        <time>2017-12-10T08:51:46.000Z</time>
      </trkpt>
      <trkpt lat="47.48555" lon="6.77892">
        <ele>367.1</ele>
        <time>2017-12-10T08:51:47.000Z</time>
      </trkpt>
      <trkpt lat="47.48553" lon="6.77898">
        <ele>367.1</ele>
        <time>2017-12-10T08:51:48.000Z</time>
      </trkpt>
      <trkpt lat="47.48552" lon="6.77904">
        <ele>367.1</ele>
        <time>2017-12-10T08:51:49.000Z</time>
      </trkpt>
      <trkpt lat="47.4855" lon="6.77913">
        <ele>366.1</ele>
        <time>2017-12-10T08:51:50.000Z</time>
      </trkpt>
      <trkpt lat="47.48549" lon="6.77918">
        <ele>366</ele>
        <time>2017-12-10T08:51:51.000Z</time>
      </trkpt>
      <trkpt lat="47.48548" lon="6.77924">
        <ele>364.6</ele>
        <time>2017-12-10T08:51:52.000Z</time>
      </trkpt>
      <trkpt lat="47.48547" lon="6.77929">
        <ele>364</ele>
        <time>2017-12-10T08:51:53.000Z</time>
      </trkpt>
      <trkpt lat="47.48547" lon="6.77934">
        <ele>363.9</ele>
        <time>2017-12-10T08:51:54.000Z</time>
      </trkpt>
      <trkpt lat="47.48546" lon="6.77939">
        <ele>363.8</ele>
        <time>2017-12-10T08:51:55.000Z</time>
      </trkpt>
      <trkpt lat="47.48545" lon="6.77944">
        <ele>363.7</ele>
        <time>2017-12-10T08:51:56.000Z</time>
      </trkpt>
      <trkpt lat="47.48544" lon="6.77948">
        <ele>363.6</ele>
        <time>2017-12-10T08:51:57.000Z</time>
      </trkpt>
      <trkpt lat="47.48543" lon="6.77953">
        <ele>363.5</ele>
        <time>2017-12-10T08:51:58.000Z</time>
      </trkpt>
      <trkpt lat="47.48542" lon="6.77958">
        <ele>363.4</ele>
        <time>2017-12-10T08:51:59.000Z</time>
      </trkpt>
      <trkpt lat="47.48541" lon="6.77963">
        <ele>363.3</ele>
        <time>2017-12-10T08:52:00.000Z</time>
      </trkpt>
      <trkpt lat="47.4854" lon="6.77967">
        <ele>363.3</ele>
        <time>2017-12-10T08:52:01.000Z</time>
      </trkpt>
      <trkpt lat="47.48538" lon="6.7797">
        <ele>363.2</ele>
        <time>2017-12-10T08:52:02.000Z</time>
      </trkpt>
      <trkpt lat="47.48535" lon="6.77973">
        <ele>363.2</ele>
        <time>2017-12-10T08:52:03.000Z</time>
      </trkpt>
      <trkpt lat="47.48532" lon="6.77974">
        <ele>363.1</ele>
        <time>2017-12-10T08:52:04.000Z</time>
      </trkpt>
      <trkpt lat="47.4853" lon="6.77974">
        <ele>363</ele>
        <time>2017-12-10T08:52:05.000Z</time>
      </trkpt>
      <trkpt lat="47.48526" lon="6.77974">
        <ele>362.5</ele>
        <time>2017-12-10T08:52:06.000Z</time>
      </trkpt>
      <trkpt lat="47.48523" lon="6.77974">
        <ele>361.7</ele>
        <time>2017-12-10T08:52:07.000Z</time>
      </trkpt>
      <trkpt lat="47.4852" lon="6.77975">
        <ele>361.6</ele>
        <time>2017-12-10T08:52:08.000Z</time>
      </trkpt>
      <trkpt lat="47.48516" lon="6.77978">
        <ele>360.8</ele>
        <time>2017-12-10T08:52:09.000Z</time>
      </trkpt>
      <trkpt lat="47.48513" lon="6.77981">
        <ele>360.5</ele>
        <time>2017-12-10T08:52:10.000Z</time>
      </trkpt>
      <trkpt lat="47.4851" lon="6.77983">
        <ele>360.5</ele>
        <time>2017-12-10T08:52:11.000Z</time>
      </trkpt>
      <trkpt lat="47.48507" lon="6.77986">
        <ele>360.6</ele>
        <time>2017-12-10T08:52:12.000Z</time>
      </trkpt>
      <trkpt lat="47.48504" lon="6.77989">
        <ele>361.3</ele>
        <time>2017-12-10T08:52:13.000Z</time>
      </trkpt>
      <trkpt lat="47.48501" lon="6.77991">
        <ele>361.4</ele>
        <time>2017-12-10T08:52:14.000Z</time>
      </trkpt>
      <trkpt lat="47.48498" lon="6.77995">
        <ele>361.8</ele>
        <time>2017-12-10T08:52:15.000Z</time>
      </trkpt>
      <trkpt lat="47.48495" lon="6.77999">
        <ele>362.2</ele>
        <time>2017-12-10T08:52:16.000Z</time>
      </trkpt>
      <trkpt lat="47.48493" lon="6.78004">
        <ele>362.1</ele>
        <time>2017-12-10T08:52:17.000Z</time>
      </trkpt>
      <trkpt lat="47.48491" lon="6.78009">
        <ele>362.2</ele>
        <time>2017-12-10T08:52:18.000Z</time>
      </trkpt>
      <trkpt lat="47.48489" lon="6.78014">
        <ele>362.2</ele>
        <time>2017-12-10T08:52:19.000Z</time>
      </trkpt>
      <trkpt lat="47.48487" lon="6.78019">
        <ele>362.7</ele>
        <time>2017-12-10T08:52:20.000Z</time>
      </trkpt>
      <trkpt lat="47.48486" lon="6.78026">
        <ele>363.3</ele>
        <time>2017-12-10T08:52:21.000Z</time>
      </trkpt>
      <trkpt lat="47.48486" lon="6.78033">
        <ele>363.5</ele>
        <time>2017-12-10T08:52:22.000Z</time>
      </trkpt>
      <trkpt lat="47.48485" lon="6.78039">
        <ele>362.8</ele>
        <time>2017-12-10T08:52:23.000Z</time>
      </trkpt>
      <trkpt lat="47.48484" lon="6.78045">
        <ele>362.7</ele>
        <time>2017-12-10T08:52:24.000Z</time>
      </trkpt>
      <trkpt lat="47.48482" lon="6.78052">
        <ele>362.4</ele>
        <time>2017-12-10T08:52:25.000Z</time>
      </trkpt>
      <trkpt lat="47.48481" lon="6.78058">
        <ele>362.1</ele>
        <time>2017-12-10T08:52:26.000Z</time>
      </trkpt>
      <trkpt lat="47.48479" lon="6.78063">
        <ele>362.2</ele>
        <time>2017-12-10T08:52:27.000Z</time>
      </trkpt>
      <trkpt lat="47.48478" lon="6.78069">
        <ele>361.8</ele>
        <time>2017-12-10T08:52:28.000Z</time>
      </trkpt>
      <trkpt lat="47.48476" lon="6.78074">
        <ele>361.4</ele>
        <time>2017-12-10T08:52:29.000Z</time>
      </trkpt>
      <trkpt lat="47.48474" lon="6.78081">
        <ele>360.5</ele>
        <time>2017-12-10T08:52:30.000Z</time>
      </trkpt>
      <trkpt lat="47.48472" lon="6.78087">
        <ele>360.6</ele>
        <time>2017-12-10T08:52:31.000Z</time>
      </trkpt>
      <trkpt lat="47.4847" lon="6.78093">
        <ele>361</ele>
        <time>2017-12-10T08:52:32.000Z</time>
      </trkpt>
      <trkpt lat="47.48468" lon="6.781">
        <ele>362.2</ele>
        <time>2017-12-10T08:52:33.000Z</time>
      </trkpt>
      <trkpt lat="47.48467" lon="6.78105">
        <ele>362.6</ele>
        <time>2017-12-10T08:52:34.000Z</time>
      </trkpt>
      <trkpt lat="47.48464" lon="6.78111">
        <ele>362.6</ele>
        <time>2017-12-10T08:52:35.000Z</time>
      </trkpt>
      <trkpt lat="47.48463" lon="6.78115">
        <ele>362.5</ele>
        <time>2017-12-10T08:52:36.000Z</time>
      </trkpt>
      <trkpt lat="47.48461" lon="6.7812">
        <ele>362.2</ele>
        <time>2017-12-10T08:52:37.000Z</time>
      </trkpt>
      <trkpt lat="47.48459" lon="6.78125">
        <ele>361.8</ele>
        <time>2017-12-10T08:52:38.000Z</time>
      </trkpt>
      <trkpt lat="47.48458" lon="6.78131">
        <ele>361.8</ele>
        <time>2017-12-10T08:52:39.000Z</time>
      </trkpt>
      <trkpt lat="47.48457" lon="6.78137">
        <ele>361.7</ele>
        <time>2017-12-10T08:52:40.000Z</time>
      </trkpt>
      <trkpt lat="47.48455" lon="6.78146">
        <ele>361</ele>
        <time>2017-12-10T08:52:41.000Z</time>
      </trkpt>
      <trkpt lat="47.48454" lon="6.78153">
        <ele>360.1</ele>
        <time>2017-12-10T08:52:42.000Z</time>
      </trkpt>
      <trkpt lat="47.48454" lon="6.7816">
        <ele>359.5</ele>
        <time>2017-12-10T08:52:43.000Z</time>
      </trkpt>
      <trkpt lat="47.48453" lon="6.78165">
        <ele>359.5</ele>
        <time>2017-12-10T08:52:44.000Z</time>
      </trkpt>
      <trkpt lat="47.48453" lon="6.7817">
        <ele>359.5</ele>
        <time>2017-12-10T08:52:45.000Z</time>
      </trkpt>
      <trkpt lat="47.48453" lon="6.78175">
        <ele>359.4</ele>
        <time>2017-12-10T08:52:46.000Z</time>
      </trkpt>
      <trkpt lat="47.48453" lon="6.78181">
        <ele>358.8</ele>
        <time>2017-12-10T08:52:47.000Z</time>
      </trkpt>
      <trkpt lat="47.48454" lon="6.78187">
        <ele>359.2</ele>
        <time>2017-12-10T08:52:48.000Z</time>
      </trkpt>
      <trkpt lat="47.48453" lon="6.78193">
        <ele>359.2</ele>
        <time>2017-12-10T08:52:49.000Z</time>
      </trkpt>
      <trkpt lat="47.48454" lon="6.78197">
        <ele>359.3</ele>
        <time>2017-12-10T08:52:50.000Z</time>
      </trkpt>
      <trkpt lat="47.48454" lon="6.78201">
        <ele>359.4</ele>
        <time>2017-12-10T08:52:51.000Z</time>
      </trkpt>
      <trkpt lat="47.48454" lon="6.78206">
        <ele>359.6</ele>
        <time>2017-12-10T08:52:52.000Z</time>
      </trkpt>
      <trkpt lat="47.48454" lon="6.78212">
        <ele>359.7</ele>
        <time>2017-12-10T08:52:53.000Z</time>
      </trkpt>
      <trkpt lat="47.48455" lon="6.78218">
        <ele>360.4</ele>
        <time>2017-12-10T08:52:54.000Z</time>
      </trkpt>
      <trkpt lat="47.48457" lon="6.78224">
        <ele>361.1</ele>
        <time>2017-12-10T08:52:55.000Z</time>
      </trkpt>
      <trkpt lat="47.48458" lon="6.7823">
        <ele>362.1</ele>
        <time>2017-12-10T08:52:56.000Z</time>
      </trkpt>
      <trkpt lat="47.4846" lon="6.78234">
        <ele>362.2</ele>
        <time>2017-12-10T08:52:57.000Z</time>
      </trkpt>
      <trkpt lat="47.48461" lon="6.78239">
        <ele>362.2</ele>
        <time>2017-12-10T08:52:58.000Z</time>
      </trkpt>
      <trkpt lat="47.48462" lon="6.78244">
        <ele>362.2</ele>
        <time>2017-12-10T08:52:59.000Z</time>
      </trkpt>
      <trkpt lat="47.48462" lon="6.78249">
        <ele>362.3</ele>
        <time>2017-12-10T08:53:00.000Z</time>
      </trkpt>
      <trkpt lat="47.48462" lon="6.78255">
        <ele>362.4</ele>
        <time>2017-12-10T08:53:01.000Z</time>
      </trkpt>
      <trkpt lat="47.48462" lon="6.78264">
        <ele>362.5</ele>
        <time>2017-12-10T08:53:02.000Z</time>
      </trkpt>
      <trkpt lat="47.48461" lon="6.78274">
        <ele>362.7</ele>
        <time>2017-12-10T08:53:03.000Z</time>
      </trkpt>
      <trkpt lat="47.48462" lon="6.78281">
        <ele>362.7</ele>
        <time>2017-12-10T08:53:04.000Z</time>
      </trkpt>
      <trkpt lat="47.48463" lon="6.78288">
        <ele>362.4</ele>
        <time>2017-12-10T08:53:05.000Z</time>
      </trkpt>
      <trkpt lat="47.48463" lon="6.78298">
        <ele>362</ele>
        <time>2017-12-10T08:53:06.000Z</time>
      </trkpt>
      <trkpt lat="47.48464" lon="6.78304">
        <ele>361.9</ele>
        <time>2017-12-10T08:53:07.000Z</time>
      </trkpt>
      <trkpt lat="47.48464" lon="6.78311">
        <ele>361.8</ele>
        <time>2017-12-10T08:53:08.000Z</time>
      </trkpt>
      <trkpt lat="47.48465" lon="6.78316">
        <ele>362</ele>
        <time>2017-12-10T08:53:09.000Z</time>
      </trkpt>
      <trkpt lat="47.48466" lon="6.78322">
        <ele>361.8</ele>
        <time>2017-12-10T08:53:10.000Z</time>
      </trkpt>
      <trkpt lat="47.48466" lon="6.78329">
        <ele>361</ele>
        <time>2017-12-10T08:53:11.000Z</time>
      </trkpt>
      <trkpt lat="47.48467" lon="6.78334">
        <ele>360.1</ele>
        <time>2017-12-10T08:53:12.000Z</time>
      </trkpt>
      <trkpt lat="47.48467" lon="6.78339">
        <ele>360.1</ele>
        <time>2017-12-10T08:53:13.000Z</time>
      </trkpt>
      <trkpt lat="47.48468" lon="6.78343">
        <ele>360.1</ele>
        <time>2017-12-10T08:53:14.000Z</time>
      </trkpt>
      <trkpt lat="47.48468" lon="6.78349">
        <ele>360.1</ele>
        <time>2017-12-10T08:53:15.000Z</time>
      </trkpt>
      <trkpt lat="47.48469" lon="6.78355">
        <ele>360.2</ele>
        <time>2017-12-10T08:53:16.000Z</time>
      </trkpt>
      <trkpt lat="47.48469" lon="6.7836">
        <ele>360.1</ele>
        <time>2017-12-10T08:53:17.000Z</time>
      </trkpt>
      <trkpt lat="47.4847" lon="6.78363">
        <ele>360.1</ele>
        <time>2017-12-10T08:53:18.000Z</time>
      </trkpt>
      <trkpt lat="47.48471" lon="6.78369">
        <ele>360.1</ele>
        <time>2017-12-10T08:53:19.000Z</time>
      </trkpt>
      <trkpt lat="47.48471" lon="6.78378">
        <ele>360.2</ele>
        <time>2017-12-10T08:53:20.000Z</time>
      </trkpt>
      <trkpt lat="47.48472" lon="6.78384">
        <ele>360.5</ele>
        <time>2017-12-10T08:53:21.000Z</time>
      </trkpt>
      <trkpt lat="47.48472" lon="6.78389">
        <ele>360.5</ele>
        <time>2017-12-10T08:53:22.000Z</time>
      </trkpt>
      <trkpt lat="47.48473" lon="6.78395">
        <ele>360.5</ele>
        <time>2017-12-10T08:53:23.000Z</time>
      </trkpt>
      <trkpt lat="47.48475" lon="6.78405">
        <ele>360</ele>
        <time>2017-12-10T08:53:24.000Z</time>
      </trkpt>
      <trkpt lat="47.48475" lon="6.78411">
        <ele>359.9</ele>
        <time>2017-12-10T08:53:25.000Z</time>
      </trkpt>
      <trkpt lat="47.48475" lon="6.78417">
        <ele>359.8</ele>
        <time>2017-12-10T08:53:26.000Z</time>
      </trkpt>
      <trkpt lat="47.48475" lon="6.78422">
        <ele>359.8</ele>
        <time>2017-12-10T08:53:27.000Z</time>
      </trkpt>
      <trkpt lat="47.48476" lon="6.78427">
        <ele>359.8</ele>
        <time>2017-12-10T08:53:28.000Z</time>
      </trkpt>
      <trkpt lat="47.48477" lon="6.78436">
        <ele>359.7</ele>
        <time>2017-12-10T08:53:29.000Z</time>
      </trkpt>
      <trkpt lat="47.48477" lon="6.78447">
        <ele>359.5</ele>
        <time>2017-12-10T08:53:30.000Z</time>
      </trkpt>
      <trkpt lat="47.48479" lon="6.78452">
        <ele>359.9</ele>
        <time>2017-12-10T08:53:31.000Z</time>
      </trkpt>
      <trkpt lat="47.4848" lon="6.78458">
        <ele>360</ele>
        <time>2017-12-10T08:53:32.000Z</time>
      </trkpt>
      <trkpt lat="47.48481" lon="6.78462">
        <ele>360.1</ele>
        <time>2017-12-10T08:53:33.000Z</time>
      </trkpt>
      <trkpt lat="47.48482" lon="6.78467">
        <ele>360</ele>
        <time>2017-12-10T08:53:34.000Z</time>
      </trkpt>
      <trkpt lat="47.48482" lon="6.78472">
        <ele>359.6</ele>
        <time>2017-12-10T08:53:35.000Z</time>
      </trkpt>
      <trkpt lat="47.48483" lon="6.78478">
        <ele>359.1</ele>
        <time>2017-12-10T08:53:36.000Z</time>
      </trkpt>
      <trkpt lat="47.48484" lon="6.78483">
        <ele>359.1</ele>
        <time>2017-12-10T08:53:37.000Z</time>
      </trkpt>
      <trkpt lat="47.48485" lon="6.78488">
        <ele>359.4</ele>
        <time>2017-12-10T08:53:38.000Z</time>
      </trkpt>
      <trkpt lat="47.48486" lon="6.78494">
        <ele>359.9</ele>
        <time>2017-12-10T08:53:39.000Z</time>
      </trkpt>
      <trkpt lat="47.48487" lon="6.785">
        <ele>360.3</ele>
        <time>2017-12-10T08:53:40.000Z</time>
      </trkpt>
      <trkpt lat="47.48488" lon="6.78506">
        <ele>360.5</ele>
        <time>2017-12-10T08:53:41.000Z</time>
      </trkpt>
      <trkpt lat="47.4849" lon="6.78511">
        <ele>360.8</ele>
        <time>2017-12-10T08:53:42.000Z</time>
      </trkpt>
      <trkpt lat="47.48491" lon="6.78518">
        <ele>361.1</ele>
        <time>2017-12-10T08:53:43.000Z</time>
      </trkpt>
      <trkpt lat="47.48493" lon="6.78524">
        <ele>361.6</ele>
        <time>2017-12-10T08:53:44.000Z</time>
      </trkpt>
      <trkpt lat="47.48494" lon="6.7853">
        <ele>361.6</ele>
        <time>2017-12-10T08:53:45.000Z</time>
      </trkpt>
      <trkpt lat="47.48496" lon="6.78535">
        <ele>361.1</ele>
        <time>2017-12-10T08:53:46.000Z</time>
      </trkpt>
      <trkpt lat="47.48497" lon="6.7854">
        <ele>360.4</ele>
        <time>2017-12-10T08:53:47.000Z</time>
      </trkpt>
      <trkpt lat="47.48499" lon="6.78546">
        <ele>360.1</ele>
        <time>2017-12-10T08:53:48.000Z</time>
      </trkpt>
      <trkpt lat="47.485" lon="6.78552">
        <ele>359.8</ele>
        <time>2017-12-10T08:53:49.000Z</time>
      </trkpt>
      <trkpt lat="47.48501" lon="6.78557">
        <ele>359.5</ele>
        <time>2017-12-10T08:53:50.000Z</time>
      </trkpt>
      <trkpt lat="47.48502" lon="6.78562">
        <ele>359.5</ele>
        <time>2017-12-10T08:53:51.000Z</time>
      </trkpt>
      <trkpt lat="47.48502" lon="6.78566">
        <ele>359.4</ele>
        <time>2017-12-10T08:53:52.000Z</time>
      </trkpt>
      <trkpt lat="47.48502" lon="6.78572">
        <ele>358.7</ele>
        <time>2017-12-10T08:53:53.000Z</time>
      </trkpt>
      <trkpt lat="47.48502" lon="6.78577">
        <ele>359</ele>
        <time>2017-12-10T08:53:54.000Z</time>
      </trkpt>
      <trkpt lat="47.48501" lon="6.78582">
        <ele>358.3</ele>
        <time>2017-12-10T08:53:55.000Z</time>
      </trkpt>
      <trkpt lat="47.48501" lon="6.78586">
        <ele>358.3</ele>
        <time>2017-12-10T08:53:56.000Z</time>
      </trkpt>
      <trkpt lat="47.485" lon="6.78591">
        <ele>358.4</ele>
        <time>2017-12-10T08:53:57.000Z</time>
      </trkpt>
      <trkpt lat="47.48499" lon="6.78597">
        <ele>358.4</ele>
        <time>2017-12-10T08:53:58.000Z</time>
      </trkpt>
      <trkpt lat="47.48498" lon="6.78603">
        <ele>358.7</ele>
        <time>2017-12-10T08:53:59.000Z</time>
      </trkpt>
      <trkpt lat="47.48498" lon="6.78608">
        <ele>358.5</ele>
        <time>2017-12-10T08:54:00.000Z</time>
      </trkpt>
      <trkpt lat="47.48497" lon="6.78614">
        <ele>358.3</ele>
        <time>2017-12-10T08:54:01.000Z</time>
      </trkpt>
      <trkpt lat="47.48496" lon="6.78619">
        <ele>358.2</ele>
        <time>2017-12-10T08:54:02.000Z</time>
      </trkpt>
      <trkpt lat="47.48495" lon="6.78623">
        <ele>358.2</ele>
        <time>2017-12-10T08:54:03.000Z</time>
      </trkpt>
      <trkpt lat="47.48494" lon="6.78629">
        <ele>357.5</ele>
        <time>2017-12-10T08:54:04.000Z</time>
      </trkpt>
      <trkpt lat="47.48493" lon="6.78635">
        <ele>357.5</ele>
        <time>2017-12-10T08:54:05.000Z</time>
      </trkpt>
      <trkpt lat="47.48492" lon="6.7864">
        <ele>357.5</ele>
        <time>2017-12-10T08:54:06.000Z</time>
      </trkpt>
      <trkpt lat="47.48491" lon="6.78646">
        <ele>358</ele>
        <time>2017-12-10T08:54:07.000Z</time>
      </trkpt>
      <trkpt lat="47.4849" lon="6.78652">
        <ele>358.3</ele>
        <time>2017-12-10T08:54:08.000Z</time>
      </trkpt>
      <trkpt lat="47.48488" lon="6.78661">
        <ele>358</ele>
        <time>2017-12-10T08:54:09.000Z</time>
      </trkpt>
      <trkpt lat="47.48487" lon="6.78667">
        <ele>358.5</ele>
        <time>2017-12-10T08:54:10.000Z</time>
      </trkpt>
      <trkpt lat="47.48485" lon="6.78673">
        <ele>358.7</ele>
        <time>2017-12-10T08:54:11.000Z</time>
      </trkpt>
      <trkpt lat="47.48483" lon="6.78679">
        <ele>358.8</ele>
        <time>2017-12-10T08:54:12.000Z</time>
      </trkpt>
      <trkpt lat="47.48482" lon="6.78684">
        <ele>359.4</ele>
        <time>2017-12-10T08:54:13.000Z</time>
      </trkpt>
      <trkpt lat="47.4848" lon="6.7869">
        <ele>359.8</ele>
        <time>2017-12-10T08:54:14.000Z</time>
      </trkpt>
      <trkpt lat="47.48479" lon="6.78695">
        <ele>359.9</ele>
        <time>2017-12-10T08:54:15.000Z</time>
      </trkpt>
      <trkpt lat="47.48478" lon="6.78701">
        <ele>360.7</ele>
        <time>2017-12-10T08:54:16.000Z</time>
      </trkpt>
      <trkpt lat="47.48477" lon="6.78706">
        <ele>361.1</ele>
        <time>2017-12-10T08:54:17.000Z</time>
      </trkpt>
      <trkpt lat="47.48476" lon="6.78712">
        <ele>361.8</ele>
        <time>2017-12-10T08:54:18.000Z</time>
      </trkpt>
      <trkpt lat="47.48475" lon="6.78718">
        <ele>362.5</ele>
        <time>2017-12-10T08:54:19.000Z</time>
      </trkpt>
      <trkpt lat="47.48474" lon="6.78724">
        <ele>362.1</ele>
        <time>2017-12-10T08:54:20.000Z</time>
      </trkpt>
      <trkpt lat="47.48473" lon="6.78732">
        <ele>361.5</ele>
        <time>2017-12-10T08:54:21.000Z</time>
      </trkpt>
      <trkpt lat="47.48472" lon="6.78738">
        <ele>361.1</ele>
        <time>2017-12-10T08:54:22.000Z</time>
      </trkpt>
      <trkpt lat="47.48471" lon="6.78744">
        <ele>360.9</ele>
        <time>2017-12-10T08:54:23.000Z</time>
      </trkpt>
      <trkpt lat="47.48469" lon="6.78751">
        <ele>361.3</ele>
        <time>2017-12-10T08:54:24.000Z</time>
      </trkpt>
      <trkpt lat="47.48468" lon="6.78757">
        <ele>361.7</ele>
        <time>2017-12-10T08:54:25.000Z</time>
      </trkpt>
      <trkpt lat="47.48467" lon="6.78763">
        <ele>362.2</ele>
        <time>2017-12-10T08:54:26.000Z</time>
      </trkpt>
      <trkpt lat="47.48465" lon="6.78773">
        <ele>362.6</ele>
        <time>2017-12-10T08:54:27.000Z</time>
      </trkpt>
      <trkpt lat="47.48464" lon="6.78779">
        <ele>363.1</ele>
        <time>2017-12-10T08:54:28.000Z</time>
      </trkpt>
      <trkpt lat="47.48462" lon="6.78785">
        <ele>364.1</ele>
        <time>2017-12-10T08:54:29.000Z</time>
      </trkpt>
      <trkpt lat="47.48461" lon="6.78789">
        <ele>364.1</ele>
        <time>2017-12-10T08:54:30.000Z</time>
      </trkpt>
      <trkpt lat="47.4846" lon="6.78794">
        <ele>364.1</ele>
        <time>2017-12-10T08:54:31.000Z</time>
      </trkpt>
      <trkpt lat="47.48459" lon="6.788">
        <ele>364.1</ele>
        <time>2017-12-10T08:54:32.000Z</time>
      </trkpt>
      <trkpt lat="47.48458" lon="6.78805">
        <ele>364</ele>
        <time>2017-12-10T08:54:33.000Z</time>
      </trkpt>
      <trkpt lat="47.48457" lon="6.78811">
        <ele>364</ele>
        <time>2017-12-10T08:54:34.000Z</time>
      </trkpt>
      <trkpt lat="47.48456" lon="6.78817">
        <ele>364.2</ele>
        <time>2017-12-10T08:54:35.000Z</time>
      </trkpt>
      <trkpt lat="47.48455" lon="6.78823">
        <ele>364.5</ele>
        <time>2017-12-10T08:54:36.000Z</time>
      </trkpt>
      <trkpt lat="47.48454" lon="6.78827">
        <ele>364.5</ele>
        <time>2017-12-10T08:54:37.000Z</time>
      </trkpt>
      <trkpt lat="47.48453" lon="6.78833">
        <ele>364.3</ele>
        <time>2017-12-10T08:54:38.000Z</time>
      </trkpt>
      <trkpt lat="47.48452" lon="6.7884">
        <ele>364.3</ele>
        <time>2017-12-10T08:54:39.000Z</time>
      </trkpt>
      <trkpt lat="47.4845" lon="6.78846">
        <ele>364.1</ele>
        <time>2017-12-10T08:54:40.000Z</time>
      </trkpt>
      <trkpt lat="47.48449" lon="6.78855">
        <ele>364</ele>
        <time>2017-12-10T08:54:41.000Z</time>
      </trkpt>
      <trkpt lat="47.48448" lon="6.78861">
        <ele>364.7</ele>
        <time>2017-12-10T08:54:42.000Z</time>
      </trkpt>
      <trkpt lat="47.48446" lon="6.78868">
        <ele>365</ele>
        <time>2017-12-10T08:54:43.000Z</time>
      </trkpt>
      <trkpt lat="47.48445" lon="6.78874">
        <ele>364.9</ele>
        <time>2017-12-10T08:54:44.000Z</time>
      </trkpt>
      <trkpt lat="47.48444" lon="6.78878">
        <ele>364.8</ele>
        <time>2017-12-10T08:54:45.000Z</time>
      </trkpt>
      <trkpt lat="47.48443" lon="6.78884">
        <ele>363.2</ele>
        <time>2017-12-10T08:54:46.000Z</time>
      </trkpt>
      <trkpt lat="47.48442" lon="6.7889">
        <ele>362.3</ele>
        <time>2017-12-10T08:54:47.000Z</time>
      </trkpt>
      <trkpt lat="47.48441" lon="6.78896">
        <ele>362</ele>
        <time>2017-12-10T08:54:48.000Z</time>
      </trkpt>
      <trkpt lat="47.4844" lon="6.78902">
        <ele>361.8</ele>
        <time>2017-12-10T08:54:49.000Z</time>
      </trkpt>
      <trkpt lat="47.48439" lon="6.78908">
        <ele>361.2</ele>
        <time>2017-12-10T08:54:50.000Z</time>
      </trkpt>
      <trkpt lat="47.48438" lon="6.78915">
        <ele>361</ele>
        <time>2017-12-10T08:54:51.000Z</time>
      </trkpt>
      <trkpt lat="47.48438" lon="6.78919">
        <ele>360.9</ele>
        <time>2017-12-10T08:54:52.000Z</time>
      </trkpt>
      <trkpt lat="47.48437" lon="6.78924">
        <ele>360.8</ele>
        <time>2017-12-10T08:54:53.000Z</time>
      </trkpt>
      <trkpt lat="47.48437" lon="6.7893">
        <ele>360.7</ele>
        <time>2017-12-10T08:54:54.000Z</time>
      </trkpt>
      <trkpt lat="47.48436" lon="6.78935">
        <ele>360.6</ele>
        <time>2017-12-10T08:54:55.000Z</time>
      </trkpt>
      <trkpt lat="47.48435" lon="6.78941">
        <ele>359.5</ele>
        <time>2017-12-10T08:54:56.000Z</time>
      </trkpt>
      <trkpt lat="47.48434" lon="6.78947">
        <ele>359.7</ele>
        <time>2017-12-10T08:54:57.000Z</time>
      </trkpt>
      <trkpt lat="47.48434" lon="6.78954">
        <ele>360.3</ele>
        <time>2017-12-10T08:54:58.000Z</time>
      </trkpt>
      <trkpt lat="47.48434" lon="6.78961">
        <ele>360.7</ele>
        <time>2017-12-10T08:54:59.000Z</time>
      </trkpt>
      <trkpt lat="47.48432" lon="6.78968">
        <ele>361.6</ele>
        <time>2017-12-10T08:55:00.000Z</time>
      </trkpt>
      <trkpt lat="47.48431" lon="6.78974">
        <ele>362.6</ele>
        <time>2017-12-10T08:55:01.000Z</time>
      </trkpt>
      <trkpt lat="47.48431" lon="6.7898">
        <ele>363.5</ele>
        <time>2017-12-10T08:55:02.000Z</time>
      </trkpt>
      <trkpt lat="47.4843" lon="6.78985">
        <ele>363.5</ele>
        <time>2017-12-10T08:55:03.000Z</time>
      </trkpt>
      <trkpt lat="47.48428" lon="6.7899">
        <ele>363.6</ele>
        <time>2017-12-10T08:55:04.000Z</time>
      </trkpt>
      <trkpt lat="47.48427" lon="6.78996">
        <ele>363.3</ele>
        <time>2017-12-10T08:55:05.000Z</time>
      </trkpt>
      <trkpt lat="47.48426" lon="6.79003">
        <ele>363.1</ele>
        <time>2017-12-10T08:55:06.000Z</time>
      </trkpt>
      <trkpt lat="47.48425" lon="6.79012">
        <ele>363.1</ele>
        <time>2017-12-10T08:55:07.000Z</time>
      </trkpt>
      <trkpt lat="47.48425" lon="6.79017">
        <ele>363</ele>
        <time>2017-12-10T08:55:08.000Z</time>
      </trkpt>
      <trkpt lat="47.48424" lon="6.79022">
        <ele>362.8</ele>
        <time>2017-12-10T08:55:09.000Z</time>
      </trkpt>
      <trkpt lat="47.48422" lon="6.79027">
        <ele>362.3</ele>
        <time>2017-12-10T08:55:10.000Z</time>
      </trkpt>
      <trkpt lat="47.48422" lon="6.79033">
        <ele>361.8</ele>
        <time>2017-12-10T08:55:11.000Z</time>
      </trkpt>
      <trkpt lat="47.48421" lon="6.79039">
        <ele>360.9</ele>
        <time>2017-12-10T08:55:12.000Z</time>
      </trkpt>
      <trkpt lat="47.4842" lon="6.79043">
        <ele>360.9</ele>
        <time>2017-12-10T08:55:13.000Z</time>
      </trkpt>
      <trkpt lat="47.48419" lon="6.79047">
        <ele>360.8</ele>
        <time>2017-12-10T08:55:14.000Z</time>
      </trkpt>
      <trkpt lat="47.48418" lon="6.79052">
        <ele>360.7</ele>
        <time>2017-12-10T08:55:15.000Z</time>
      </trkpt>
      <trkpt lat="47.48417" lon="6.79062">
        <ele>360.7</ele>
        <time>2017-12-10T08:55:16.000Z</time>
      </trkpt>
      <trkpt lat="47.48414" lon="6.79072">
        <ele>360.5</ele>
        <time>2017-12-10T08:55:17.000Z</time>
      </trkpt>
      <trkpt lat="47.48413" lon="6.79081">
        <ele>360.5</ele>
        <time>2017-12-10T08:55:18.000Z</time>
      </trkpt>
      <trkpt lat="47.48413" lon="6.79085">
        <ele>360.6</ele>
        <time>2017-12-10T08:55:19.000Z</time>
      </trkpt>
      <trkpt lat="47.48412" lon="6.79089">
        <ele>360.7</ele>
        <time>2017-12-10T08:55:20.000Z</time>
      </trkpt>
      <trkpt lat="47.48412" lon="6.79093">
        <ele>360.7</ele>
        <time>2017-12-10T08:55:21.000Z</time>
      </trkpt>
      <trkpt lat="47.48412" lon="6.79098">
        <ele>360.8</ele>
        <time>2017-12-10T08:55:22.000Z</time>
      </trkpt>
      <trkpt lat="47.48413" lon="6.79103">
        <ele>360.9</ele>
        <time>2017-12-10T08:55:23.000Z</time>
      </trkpt>
      <trkpt lat="47.48414" lon="6.79108">
        <ele>360.9</ele>
        <time>2017-12-10T08:55:24.000Z</time>
      </trkpt>
      <trkpt lat="47.48415" lon="6.79113">
        <ele>360.9</ele>
        <time>2017-12-10T08:55:25.000Z</time>
      </trkpt>
      <trkpt lat="47.48416" lon="6.7912">
        <ele>362</ele>
        <time>2017-12-10T08:55:26.000Z</time>
      </trkpt>
      <trkpt lat="47.48417" lon="6.79128">
        <ele>362.1</ele>
        <time>2017-12-10T08:55:27.000Z</time>
      </trkpt>
      <trkpt lat="47.48418" lon="6.79133">
        <ele>362.1</ele>
        <time>2017-12-10T08:55:28.000Z</time>
      </trkpt>
      <trkpt lat="47.48419" lon="6.79139">
        <ele>362.7</ele>
        <time>2017-12-10T08:55:29.000Z</time>
      </trkpt>
      <trkpt lat="47.4842" lon="6.79145">
        <ele>363.1</ele>
        <time>2017-12-10T08:55:30.000Z</time>
      </trkpt>
      <trkpt lat="47.48422" lon="6.79149">
        <ele>363.1</ele>
        <time>2017-12-10T08:55:31.000Z</time>
      </trkpt>
      <trkpt lat="47.48424" lon="6.79154">
        <ele>362.9</ele>
        <time>2017-12-10T08:55:32.000Z</time>
      </trkpt>
      <trkpt lat="47.48426" lon="6.79159">
        <ele>362.5</ele>
        <time>2017-12-10T08:55:33.000Z</time>
      </trkpt>
      <trkpt lat="47.48428" lon="6.79165">
        <ele>362.5</ele>
        <time>2017-12-10T08:55:34.000Z</time>
      </trkpt>
      <trkpt lat="47.4843" lon="6.7917">
        <ele>362</ele>
        <time>2017-12-10T08:55:35.000Z</time>
      </trkpt>
      <trkpt lat="47.48432" lon="6.79174">
        <ele>361.5</ele>
        <time>2017-12-10T08:55:36.000Z</time>
      </trkpt>
      <trkpt lat="47.48435" lon="6.79178">
        <ele>361.1</ele>
        <time>2017-12-10T08:55:37.000Z</time>
      </trkpt>
      <trkpt lat="47.48437" lon="6.79183">
        <ele>360.8</ele>
        <time>2017-12-10T08:55:38.000Z</time>
      </trkpt>
      <trkpt lat="47.48438" lon="6.79188">
        <ele>360.4</ele>
        <time>2017-12-10T08:55:39.000Z</time>
      </trkpt>
      <trkpt lat="47.4844" lon="6.79193">
        <ele>360.2</ele>
        <time>2017-12-10T08:55:40.000Z</time>
      </trkpt>
      <trkpt lat="47.48443" lon="6.79197">
        <ele>359.5</ele>
        <time>2017-12-10T08:55:41.000Z</time>
      </trkpt>
      <trkpt lat="47.48445" lon="6.79202">
        <ele>358.5</ele>
        <time>2017-12-10T08:55:42.000Z</time>
      </trkpt>
      <trkpt lat="47.48448" lon="6.79206">
        <ele>357</ele>
        <time>2017-12-10T08:55:43.000Z</time>
      </trkpt>
      <trkpt lat="47.4845" lon="6.79209">
        <ele>356.7</ele>
        <time>2017-12-10T08:55:44.000Z</time>
      </trkpt>
      <trkpt lat="47.48453" lon="6.79213">
        <ele>356.1</ele>
        <time>2017-12-10T08:55:45.000Z</time>
      </trkpt>
      <trkpt lat="47.48455" lon="6.79216">
        <ele>355.5</ele>
        <time>2017-12-10T08:55:46.000Z</time>
      </trkpt>
      <trkpt lat="47.48458" lon="6.7922">
        <ele>353.7</ele>
        <time>2017-12-10T08:55:47.000Z</time>
      </trkpt>
      <trkpt lat="47.48461" lon="6.79225">
        <ele>352.9</ele>
        <time>2017-12-10T08:55:48.000Z</time>
      </trkpt>
      <trkpt lat="47.48463" lon="6.7923">
        <ele>353</ele>
        <time>2017-12-10T08:55:49.000Z</time>
      </trkpt>
      <trkpt lat="47.48466" lon="6.79236">
        <ele>352.9</ele>
        <time>2017-12-10T08:55:50.000Z</time>
      </trkpt>
      <trkpt lat="47.48468" lon="6.7924">
        <ele>353.6</ele>
        <time>2017-12-10T08:55:51.000Z</time>
      </trkpt>
      <trkpt lat="47.48471" lon="6.79246">
        <ele>354.1</ele>
        <time>2017-12-10T08:55:52.000Z</time>
      </trkpt>
      <trkpt lat="47.48473" lon="6.79251">
        <ele>354.3</ele>
        <time>2017-12-10T08:55:53.000Z</time>
      </trkpt>
      <trkpt lat="47.48475" lon="6.79257">
        <ele>354.5</ele>
        <time>2017-12-10T08:55:54.000Z</time>
      </trkpt>
      <trkpt lat="47.48478" lon="6.79261">
        <ele>354.2</ele>
        <time>2017-12-10T08:55:55.000Z</time>
      </trkpt>
      <trkpt lat="47.4848" lon="6.79266">
        <ele>354.3</ele>
        <time>2017-12-10T08:55:56.000Z</time>
      </trkpt>
      <trkpt lat="47.48482" lon="6.79272">
        <ele>354.4</ele>
        <time>2017-12-10T08:55:57.000Z</time>
      </trkpt>
      <trkpt lat="47.48484" lon="6.79279">
        <ele>353.5</ele>
        <time>2017-12-10T08:55:58.000Z</time>
      </trkpt>
      <trkpt lat="47.48486" lon="6.79284">
        <ele>353</ele>
        <time>2017-12-10T08:55:59.000Z</time>
      </trkpt>
      <trkpt lat="47.48489" lon="6.79288">
        <ele>352.7</ele>
        <time>2017-12-10T08:56:00.000Z</time>
      </trkpt>
      <trkpt lat="47.48492" lon="6.79292">
        <ele>352.8</ele>
        <time>2017-12-10T08:56:01.000Z</time>
      </trkpt>
      <trkpt lat="47.48494" lon="6.79297">
        <ele>353</ele>
        <time>2017-12-10T08:56:02.000Z</time>
      </trkpt>
      <trkpt lat="47.48497" lon="6.79301">
        <ele>353.1</ele>
        <time>2017-12-10T08:56:03.000Z</time>
      </trkpt>
      <trkpt lat="47.485" lon="6.79306">
        <ele>353.4</ele>
        <time>2017-12-10T08:56:04.000Z</time>
      </trkpt>
      <trkpt lat="47.48503" lon="6.79311">
        <ele>354.3</ele>
        <time>2017-12-10T08:56:05.000Z</time>
      </trkpt>
      <trkpt lat="47.48505" lon="6.79316">
        <ele>355</ele>
        <time>2017-12-10T08:56:06.000Z</time>
      </trkpt>
      <trkpt lat="47.48507" lon="6.79321">
        <ele>355.9</ele>
        <time>2017-12-10T08:56:07.000Z</time>
      </trkpt>
      <trkpt lat="47.4851" lon="6.79326">
        <ele>356.3</ele>
        <time>2017-12-10T08:56:08.000Z</time>
      </trkpt>
      <trkpt lat="47.48512" lon="6.79331">
        <ele>356.3</ele>
        <time>2017-12-10T08:56:09.000Z</time>
      </trkpt>
      <trkpt lat="47.48514" lon="6.79336">
        <ele>356.2</ele>
        <time>2017-12-10T08:56:10.000Z</time>
      </trkpt>
      <trkpt lat="47.48517" lon="6.79341">
        <ele>355.5</ele>
        <time>2017-12-10T08:56:11.000Z</time>
      </trkpt>
      <trkpt lat="47.4852" lon="6.79346">
        <ele>354.9</ele>
        <time>2017-12-10T08:56:12.000Z</time>
      </trkpt>
      <trkpt lat="47.48522" lon="6.79351">
        <ele>354.7</ele>
        <time>2017-12-10T08:56:13.000Z</time>
      </trkpt>
      <trkpt lat="47.48524" lon="6.79355">
        <ele>354.2</ele>
        <time>2017-12-10T08:56:14.000Z</time>
      </trkpt>
      <trkpt lat="47.48527" lon="6.7936">
        <ele>353.8</ele>
        <time>2017-12-10T08:56:15.000Z</time>
      </trkpt>
      <trkpt lat="47.4853" lon="6.79365">
        <ele>354.6</ele>
        <time>2017-12-10T08:56:16.000Z</time>
      </trkpt>
      <trkpt lat="47.48532" lon="6.7937">
        <ele>354.9</ele>
        <time>2017-12-10T08:56:17.000Z</time>
      </trkpt>
      <trkpt lat="47.48534" lon="6.79376">
        <ele>354.9</ele>
        <time>2017-12-10T08:56:18.000Z</time>
      </trkpt>
      <trkpt lat="47.48537" lon="6.79381">
        <ele>354.8</ele>
        <time>2017-12-10T08:56:19.000Z</time>
      </trkpt>
      <trkpt lat="47.4854" lon="6.79388">
        <ele>354</ele>
        <time>2017-12-10T08:56:20.000Z</time>
      </trkpt>
      <trkpt lat="47.48542" lon="6.79394">
        <ele>353</ele>
        <time>2017-12-10T08:56:21.000Z</time>
      </trkpt>
      <trkpt lat="47.48544" lon="6.79399">
        <ele>352.2</ele>
        <time>2017-12-10T08:56:22.000Z</time>
      </trkpt>
      <trkpt lat="47.48547" lon="6.79404">
        <ele>352.5</ele>
        <time>2017-12-10T08:56:23.000Z</time>
      </trkpt>
      <trkpt lat="47.48549" lon="6.79409">
        <ele>352.5</ele>
        <time>2017-12-10T08:56:24.000Z</time>
      </trkpt>
      <trkpt lat="47.48551" lon="6.79415">
        <ele>353.3</ele>
        <time>2017-12-10T08:56:25.000Z</time>
      </trkpt>
      <trkpt lat="47.48554" lon="6.7942">
        <ele>353.5</ele>
        <time>2017-12-10T08:56:26.000Z</time>
      </trkpt>
      <trkpt lat="47.48557" lon="6.79425">
        <ele>353.5</ele>
        <time>2017-12-10T08:56:27.000Z</time>
      </trkpt>
      <trkpt lat="47.4856" lon="6.7943">
        <ele>354.3</ele>
        <time>2017-12-10T08:56:28.000Z</time>
      </trkpt>
      <trkpt lat="47.48563" lon="6.79434">
        <ele>354.5</ele>
        <time>2017-12-10T08:56:29.000Z</time>
      </trkpt>
      <trkpt lat="47.48566" lon="6.79439">
        <ele>354.8</ele>
        <time>2017-12-10T08:56:30.000Z</time>
      </trkpt>
      <trkpt lat="47.48568" lon="6.79443">
        <ele>355.2</ele>
        <time>2017-12-10T08:56:31.000Z</time>
      </trkpt>
      <trkpt lat="47.48571" lon="6.79448">
        <ele>354.7</ele>
        <time>2017-12-10T08:56:32.000Z</time>
      </trkpt>
      <trkpt lat="47.48573" lon="6.79453">
        <ele>354.3</ele>
        <time>2017-12-10T08:56:33.000Z</time>
      </trkpt>
      <trkpt lat="47.48576" lon="6.79458">
        <ele>354.7</ele>
        <time>2017-12-10T08:56:34.000Z</time>
      </trkpt>
      <trkpt lat="47.48578" lon="6.79463">
        <ele>354.5</ele>
        <time>2017-12-10T08:56:35.000Z</time>
      </trkpt>
      <trkpt lat="47.48581" lon="6.79468">
        <ele>354.9</ele>
        <time>2017-12-10T08:56:36.000Z</time>
      </trkpt>
      <trkpt lat="47.48583" lon="6.79474">
        <ele>354.3</ele>
        <time>2017-12-10T08:56:37.000Z</time>
      </trkpt>
      <trkpt lat="47.48586" lon="6.79479">
        <ele>353.6</ele>
        <time>2017-12-10T08:56:38.000Z</time>
      </trkpt>
      <trkpt lat="47.48588" lon="6.79484">
        <ele>353.1</ele>
        <time>2017-12-10T08:56:39.000Z</time>
      </trkpt>
      <trkpt lat="47.4859" lon="6.79489">
        <ele>352.6</ele>
        <time>2017-12-10T08:56:40.000Z</time>
      </trkpt>
      <trkpt lat="47.48592" lon="6.79494">
        <ele>352.7</ele>
        <time>2017-12-10T08:56:41.000Z</time>
      </trkpt>
      <trkpt lat="47.48595" lon="6.79498">
        <ele>352.5</ele>
        <time>2017-12-10T08:56:42.000Z</time>
      </trkpt>
      <trkpt lat="47.48597" lon="6.79503">
        <ele>352.5</ele>
        <time>2017-12-10T08:56:43.000Z</time>
      </trkpt>
      <trkpt lat="47.48599" lon="6.79508">
        <ele>352.2</ele>
        <time>2017-12-10T08:56:44.000Z</time>
      </trkpt>
      <trkpt lat="47.48602" lon="6.79513">
        <ele>352.7</ele>
        <time>2017-12-10T08:56:45.000Z</time>
      </trkpt>
      <trkpt lat="47.48605" lon="6.79517">
        <ele>352.3</ele>
        <time>2017-12-10T08:56:46.000Z</time>
      </trkpt>
      <trkpt lat="47.48607" lon="6.79523">
        <ele>352.1</ele>
        <time>2017-12-10T08:56:47.000Z</time>
      </trkpt>
      <trkpt lat="47.48609" lon="6.79528">
        <ele>352.3</ele>
        <time>2017-12-10T08:56:48.000Z</time>
      </trkpt>
      <trkpt lat="47.48612" lon="6.79533">
        <ele>352.7</ele>
        <time>2017-12-10T08:56:49.000Z</time>
      </trkpt>
      <trkpt lat="47.48614" lon="6.79538">
        <ele>352.9</ele>
        <time>2017-12-10T08:56:50.000Z</time>
      </trkpt>
      <trkpt lat="47.48616" lon="6.79544">
        <ele>352.8</ele>
        <time>2017-12-10T08:56:51.000Z</time>
      </trkpt>
      <trkpt lat="47.48618" lon="6.79549">
        <ele>352.6</ele>
        <time>2017-12-10T08:56:52.000Z</time>
      </trkpt>
      <trkpt lat="47.48621" lon="6.79554">
        <ele>352.4</ele>
        <time>2017-12-10T08:56:53.000Z</time>
      </trkpt>
      <trkpt lat="47.48624" lon="6.79559">
        <ele>352.2</ele>
        <time>2017-12-10T08:56:54.000Z</time>
      </trkpt>
      <trkpt lat="47.48627" lon="6.79564">
        <ele>352.8</ele>
        <time>2017-12-10T08:56:55.000Z</time>
      </trkpt>
      <trkpt lat="47.48629" lon="6.7957">
        <ele>353.7</ele>
        <time>2017-12-10T08:56:56.000Z</time>
      </trkpt>
      <trkpt lat="47.48631" lon="6.79575">
        <ele>354.2</ele>
        <time>2017-12-10T08:56:57.000Z</time>
      </trkpt>
      <trkpt lat="47.48634" lon="6.7958">
        <ele>354.9</ele>
        <time>2017-12-10T08:56:58.000Z</time>
      </trkpt>
      <trkpt lat="47.48636" lon="6.79585">
        <ele>355.1</ele>
        <time>2017-12-10T08:56:59.000Z</time>
      </trkpt>
      <trkpt lat="47.48638" lon="6.79591">
        <ele>355.2</ele>
        <time>2017-12-10T08:57:00.000Z</time>
      </trkpt>
      <trkpt lat="47.4864" lon="6.79596">
        <ele>355.9</ele>
        <time>2017-12-10T08:57:01.000Z</time>
      </trkpt>
      <trkpt lat="47.48642" lon="6.79602">
        <ele>356.6</ele>
        <time>2017-12-10T08:57:02.000Z</time>
      </trkpt>
      <trkpt lat="47.48644" lon="6.79607">
        <ele>356.8</ele>
        <time>2017-12-10T08:57:03.000Z</time>
      </trkpt>
      <trkpt lat="47.48645" lon="6.79614">
        <ele>356.9</ele>
        <time>2017-12-10T08:57:04.000Z</time>
      </trkpt>
      <trkpt lat="47.48647" lon="6.7962">
        <ele>357.8</ele>
        <time>2017-12-10T08:57:05.000Z</time>
      </trkpt>
      <trkpt lat="47.48648" lon="6.79625">
        <ele>358.4</ele>
        <time>2017-12-10T08:57:06.000Z</time>
      </trkpt>
      <trkpt lat="47.4865" lon="6.79631">
        <ele>358.6</ele>
        <time>2017-12-10T08:57:07.000Z</time>
      </trkpt>
      <trkpt lat="47.48652" lon="6.79636">
        <ele>358.7</ele>
        <time>2017-12-10T08:57:08.000Z</time>
      </trkpt>
      <trkpt lat="47.48653" lon="6.79642">
        <ele>358.9</ele>
        <time>2017-12-10T08:57:09.000Z</time>
      </trkpt>
      <trkpt lat="47.48655" lon="6.79648">
        <ele>359.5</ele>
        <time>2017-12-10T08:57:10.000Z</time>
      </trkpt>
      <trkpt lat="47.48656" lon="6.79654">
        <ele>360.1</ele>
        <time>2017-12-10T08:57:11.000Z</time>
      </trkpt>
      <trkpt lat="47.48657" lon="6.7966">
        <ele>360</ele>
        <time>2017-12-10T08:57:12.000Z</time>
      </trkpt>
      <trkpt lat="47.48657" lon="6.79665">
        <ele>359.4</ele>
        <time>2017-12-10T08:57:13.000Z</time>
      </trkpt>
      <trkpt lat="47.48658" lon="6.79672">
        <ele>359.2</ele>
        <time>2017-12-10T08:57:14.000Z</time>
      </trkpt>
      <trkpt lat="47.48659" lon="6.79678">
        <ele>358.4</ele>
        <time>2017-12-10T08:57:15.000Z</time>
      </trkpt>
      <trkpt lat="47.4866" lon="6.79684">
        <ele>357.9</ele>
        <time>2017-12-10T08:57:16.000Z</time>
      </trkpt>
      <trkpt lat="47.48661" lon="6.7969">
        <ele>357.4</ele>
        <time>2017-12-10T08:57:17.000Z</time>
      </trkpt>
      <trkpt lat="47.48662" lon="6.79696">
        <ele>357.5</ele>
        <time>2017-12-10T08:57:18.000Z</time>
      </trkpt>
      <trkpt lat="47.48664" lon="6.79702">
        <ele>357.6</ele>
        <time>2017-12-10T08:57:19.000Z</time>
      </trkpt>
      <trkpt lat="47.48666" lon="6.7971">
        <ele>357.6</ele>
        <time>2017-12-10T08:57:20.000Z</time>
      </trkpt>
      <trkpt lat="47.48667" lon="6.79716">
        <ele>357.6</ele>
        <time>2017-12-10T08:57:21.000Z</time>
      </trkpt>
      <trkpt lat="47.48669" lon="6.79721">
        <ele>357.7</ele>
        <time>2017-12-10T08:57:22.000Z</time>
      </trkpt>
      <trkpt lat="47.4867" lon="6.79726">
        <ele>358.3</ele>
        <time>2017-12-10T08:57:23.000Z</time>
      </trkpt>
      <trkpt lat="47.48671" lon="6.79732">
        <ele>358.9</ele>
        <time>2017-12-10T08:57:24.000Z</time>
      </trkpt>
      <trkpt lat="47.48672" lon="6.79738">
        <ele>358.9</ele>
        <time>2017-12-10T08:57:25.000Z</time>
      </trkpt>
      <trkpt lat="47.48673" lon="6.79744">
        <ele>358.9</ele>
        <time>2017-12-10T08:57:26.000Z</time>
      </trkpt>
      <trkpt lat="47.48675" lon="6.79749">
        <ele>358.9</ele>
        <time>2017-12-10T08:57:27.000Z</time>
      </trkpt>
      <trkpt lat="47.48676" lon="6.79755">
        <ele>359.9</ele>
        <time>2017-12-10T08:57:28.000Z</time>
      </trkpt>
      <trkpt lat="47.48678" lon="6.79759">
        <ele>360</ele>
        <time>2017-12-10T08:57:29.000Z</time>
      </trkpt>
      <trkpt lat="47.48678" lon="6.79764">
        <ele>360</ele>
        <time>2017-12-10T08:57:30.000Z</time>
      </trkpt>
      <trkpt lat="47.48679" lon="6.79769">
        <ele>360.1</ele>
        <time>2017-12-10T08:57:31.000Z</time>
      </trkpt>
      <trkpt lat="47.4868" lon="6.79774">
        <ele>360.1</ele>
        <time>2017-12-10T08:57:32.000Z</time>
      </trkpt>
      <trkpt lat="47.48681" lon="6.7978">
        <ele>360.3</ele>
        <time>2017-12-10T08:57:33.000Z</time>
      </trkpt>
      <trkpt lat="47.48682" lon="6.79786">
        <ele>360.9</ele>
        <time>2017-12-10T08:57:34.000Z</time>
      </trkpt>
      <trkpt lat="47.48683" lon="6.79792">
        <ele>360.5</ele>
        <time>2017-12-10T08:57:35.000Z</time>
      </trkpt>
      <trkpt lat="47.48684" lon="6.79798">
        <ele>360.3</ele>
        <time>2017-12-10T08:57:36.000Z</time>
      </trkpt>
      <trkpt lat="47.48686" lon="6.79804">
        <ele>360.1</ele>
        <time>2017-12-10T08:57:37.000Z</time>
      </trkpt>
      <trkpt lat="47.48688" lon="6.7981">
        <ele>359.9</ele>
        <time>2017-12-10T08:57:38.000Z</time>
      </trkpt>
      <trkpt lat="47.48689" lon="6.79816">
        <ele>359.6</ele>
        <time>2017-12-10T08:57:39.000Z</time>
      </trkpt>
      <trkpt lat="47.4869" lon="6.79822">
        <ele>359.7</ele>
        <time>2017-12-10T08:57:40.000Z</time>
      </trkpt>
      <trkpt lat="47.48691" lon="6.79827">
        <ele>359.6</ele>
        <time>2017-12-10T08:57:41.000Z</time>
      </trkpt>
      <trkpt lat="47.48692" lon="6.79833">
        <ele>359.6</ele>
        <time>2017-12-10T08:57:42.000Z</time>
      </trkpt>
      <trkpt lat="47.48692" lon="6.79838">
        <ele>359.8</ele>
        <time>2017-12-10T08:57:43.000Z</time>
      </trkpt>
      <trkpt lat="47.48693" lon="6.79844">
        <ele>359.9</ele>
        <time>2017-12-10T08:57:44.000Z</time>
      </trkpt>
      <trkpt lat="47.48694" lon="6.7985">
        <ele>360.4</ele>
        <time>2017-12-10T08:57:45.000Z</time>
      </trkpt>
      <trkpt lat="47.48694" lon="6.79856">
        <ele>361</ele>
        <time>2017-12-10T08:57:46.000Z</time>
      </trkpt>
      <trkpt lat="47.48695" lon="6.79862">
        <ele>361</ele>
        <time>2017-12-10T08:57:47.000Z</time>
      </trkpt>
      <trkpt lat="47.48695" lon="6.79868">
        <ele>360.1</ele>
        <time>2017-12-10T08:57:48.000Z</time>
      </trkpt>
      <trkpt lat="47.48695" lon="6.79873">
        <ele>360.1</ele>
        <time>2017-12-10T08:57:49.000Z</time>
      </trkpt>
      <trkpt lat="47.48695" lon="6.7988">
        <ele>359.5</ele>
        <time>2017-12-10T08:57:50.000Z</time>
      </trkpt>
      <trkpt lat="47.48696" lon="6.79885">
        <ele>359.4</ele>
        <time>2017-12-10T08:57:51.000Z</time>
      </trkpt>
      <trkpt lat="47.48697" lon="6.79891">
        <ele>359.4</ele>
        <time>2017-12-10T08:57:52.000Z</time>
      </trkpt>
      <trkpt lat="47.48698" lon="6.79896">
        <ele>359.4</ele>
        <time>2017-12-10T08:57:53.000Z</time>
      </trkpt>
      <trkpt lat="47.48699" lon="6.79902">
        <ele>359.5</ele>
        <time>2017-12-10T08:57:54.000Z</time>
      </trkpt>
      <trkpt lat="47.48699" lon="6.79908">
        <ele>359.6</ele>
        <time>2017-12-10T08:57:55.000Z</time>
      </trkpt>
      <trkpt lat="47.487" lon="6.79912">
        <ele>359.7</ele>
        <time>2017-12-10T08:57:56.000Z</time>
      </trkpt>
      <trkpt lat="47.487" lon="6.79915">
        <ele>359.8</ele>
        <time>2017-12-10T08:57:57.000Z</time>
      </trkpt>
      <trkpt lat="47.487" lon="6.7992">
        <ele>360</ele>
        <time>2017-12-10T08:57:58.000Z</time>
      </trkpt>
      <trkpt lat="47.487" lon="6.79927">
        <ele>360.4</ele>
        <time>2017-12-10T08:57:59.000Z</time>
      </trkpt>
      <trkpt lat="47.487" lon="6.79933">
        <ele>360.5</ele>
        <time>2017-12-10T08:58:00.000Z</time>
      </trkpt>
      <trkpt lat="47.487" lon="6.7994">
        <ele>360.7</ele>
        <time>2017-12-10T08:58:01.000Z</time>
      </trkpt>
      <trkpt lat="47.487" lon="6.79947">
        <ele>360.8</ele>
        <time>2017-12-10T08:58:02.000Z</time>
      </trkpt>
      <trkpt lat="47.487" lon="6.79952">
        <ele>360.9</ele>
        <time>2017-12-10T08:58:03.000Z</time>
      </trkpt>
      <trkpt lat="47.487" lon="6.79958">
        <ele>360.9</ele>
        <time>2017-12-10T08:58:04.000Z</time>
      </trkpt>
      <trkpt lat="47.48701" lon="6.79965">
        <ele>361</ele>
        <time>2017-12-10T08:58:05.000Z</time>
      </trkpt>
      <trkpt lat="47.48701" lon="6.79971">
        <ele>361.4</ele>
        <time>2017-12-10T08:58:06.000Z</time>
      </trkpt>
      <trkpt lat="47.48701" lon="6.79977">
        <ele>361.5</ele>
        <time>2017-12-10T08:58:07.000Z</time>
      </trkpt>
      <trkpt lat="47.48701" lon="6.79983">
        <ele>361.6</ele>
        <time>2017-12-10T08:58:08.000Z</time>
      </trkpt>
      <trkpt lat="47.48701" lon="6.79988">
        <ele>361.6</ele>
        <time>2017-12-10T08:58:09.000Z</time>
      </trkpt>
      <trkpt lat="47.48701" lon="6.79994">
        <ele>361.6</ele>
        <time>2017-12-10T08:58:10.000Z</time>
      </trkpt>
      <trkpt lat="47.48701" lon="6.8">
        <ele>362</ele>
        <time>2017-12-10T08:58:11.000Z</time>
      </trkpt>
      <trkpt lat="47.487" lon="6.80006">
        <ele>362</ele>
        <time>2017-12-10T08:58:12.000Z</time>
      </trkpt>
      <trkpt lat="47.48699" lon="6.80012">
        <ele>362.4</ele>
        <time>2017-12-10T08:58:13.000Z</time>
      </trkpt>
      <trkpt lat="47.48699" lon="6.80018">
        <ele>362.5</ele>
        <time>2017-12-10T08:58:14.000Z</time>
      </trkpt>
      <trkpt lat="47.487" lon="6.80023">
        <ele>362.6</ele>
        <time>2017-12-10T08:58:15.000Z</time>
      </trkpt>
      <trkpt lat="47.48701" lon="6.80029">
        <ele>362.3</ele>
        <time>2017-12-10T08:58:16.000Z</time>
      </trkpt>
      <trkpt lat="47.48701" lon="6.80036">
        <ele>361.7</ele>
        <time>2017-12-10T08:58:17.000Z</time>
      </trkpt>
      <trkpt lat="47.487" lon="6.80044">
        <ele>361.3</ele>
        <time>2017-12-10T08:58:18.000Z</time>
      </trkpt>
      <trkpt lat="47.48701" lon="6.8005">
        <ele>361.3</ele>
        <time>2017-12-10T08:58:19.000Z</time>
      </trkpt>
      <trkpt lat="47.48701" lon="6.80055">
        <ele>361.3</ele>
        <time>2017-12-10T08:58:20.000Z</time>
      </trkpt>
      <trkpt lat="47.48701" lon="6.8006">
        <ele>361.3</ele>
        <time>2017-12-10T08:58:21.000Z</time>
      </trkpt>
      <trkpt lat="47.48701" lon="6.80065">
        <ele>361.3</ele>
        <time>2017-12-10T08:58:22.000Z</time>
      </trkpt>
      <trkpt lat="47.48701" lon="6.8007">
        <ele>361.3</ele>
        <time>2017-12-10T08:58:23.000Z</time>
      </trkpt>
      <trkpt lat="47.48701" lon="6.80074">
        <ele>361.3</ele>
        <time>2017-12-10T08:58:24.000Z</time>
      </trkpt>
      <trkpt lat="47.487" lon="6.8008">
        <ele>361</ele>
        <time>2017-12-10T08:58:25.000Z</time>
      </trkpt>
      <trkpt lat="47.487" lon="6.80084">
        <ele>360.9</ele>
        <time>2017-12-10T08:58:26.000Z</time>
      </trkpt>
      <trkpt lat="47.487" lon="6.80088">
        <ele>360.9</ele>
        <time>2017-12-10T08:58:27.000Z</time>
      </trkpt>
      <trkpt lat="47.48701" lon="6.80092">
        <ele>361</ele>
        <time>2017-12-10T08:58:28.000Z</time>
      </trkpt>
      <trkpt lat="47.48701" lon="6.80098">
        <ele>361</ele>
        <time>2017-12-10T08:58:29.000Z</time>
      </trkpt>
      <trkpt lat="47.48701" lon="6.80102">
        <ele>361</ele>
        <time>2017-12-10T08:58:30.000Z</time>
      </trkpt>
      <trkpt lat="47.48702" lon="6.80105">
        <ele>360.9</ele>
        <time>2017-12-10T08:58:31.000Z</time>
      </trkpt>
      <trkpt lat="47.48703" lon="6.80109">
        <ele>360.9</ele>
        <time>2017-12-10T08:58:32.000Z</time>
      </trkpt>
      <trkpt lat="47.48703" lon="6.80114">
        <ele>360.9</ele>
        <time>2017-12-10T08:58:33.000Z</time>
      </trkpt>
      <trkpt lat="47.48703" lon="6.80117">
        <ele>360.9</ele>
        <time>2017-12-10T08:58:34.000Z</time>
      </trkpt>
      <trkpt lat="47.48703" lon="6.80124">
        <ele>360.8</ele>
        <time>2017-12-10T08:58:35.000Z</time>
      </trkpt>
      <trkpt lat="47.48703" lon="6.80132">
        <ele>360.8</ele>
        <time>2017-12-10T08:58:36.000Z</time>
      </trkpt>
      <trkpt lat="47.48703" lon="6.80137">
        <ele>360.8</ele>
        <time>2017-12-10T08:58:37.000Z</time>
      </trkpt>
      <trkpt lat="47.48703" lon="6.80141">
        <ele>360.8</ele>
        <time>2017-12-10T08:58:38.000Z</time>
      </trkpt>
      <trkpt lat="47.48704" lon="6.80145">
        <ele>360.8</ele>
        <time>2017-12-10T08:58:39.000Z</time>
      </trkpt>
      <trkpt lat="47.48704" lon="6.8015">
        <ele>360.8</ele>
        <time>2017-12-10T08:58:40.000Z</time>
      </trkpt>
      <trkpt lat="47.48704" lon="6.80155">
        <ele>360.9</ele>
        <time>2017-12-10T08:58:41.000Z</time>
      </trkpt>
      <trkpt lat="47.48703" lon="6.8016">
        <ele>361</ele>
        <time>2017-12-10T08:58:42.000Z</time>
      </trkpt>
      <trkpt lat="47.48703" lon="6.80165">
        <ele>361</ele>
        <time>2017-12-10T08:58:43.000Z</time>
      </trkpt>
      <trkpt lat="47.48703" lon="6.80171">
        <ele>361.1</ele>
        <time>2017-12-10T08:58:44.000Z</time>
      </trkpt>
      <trkpt lat="47.48702" lon="6.80176">
        <ele>361.1</ele>
        <time>2017-12-10T08:58:45.000Z</time>
      </trkpt>
      <trkpt lat="47.48701" lon="6.80181">
        <ele>361.1</ele>
        <time>2017-12-10T08:58:46.000Z</time>
      </trkpt>
      <trkpt lat="47.48701" lon="6.80185">
        <ele>361.1</ele>
        <time>2017-12-10T08:58:47.000Z</time>
      </trkpt>
      <trkpt lat="47.48701" lon="6.8019">
        <ele>361.1</ele>
        <time>2017-12-10T08:58:48.000Z</time>
      </trkpt>
      <trkpt lat="47.48699" lon="6.80195">
        <ele>361.1</ele>
        <time>2017-12-10T08:58:49.000Z</time>
      </trkpt>
      <trkpt lat="47.48699" lon="6.802">
        <ele>361.1</ele>
        <time>2017-12-10T08:58:50.000Z</time>
      </trkpt>
      <trkpt lat="47.48697" lon="6.80205">
        <ele>361.1</ele>
        <time>2017-12-10T08:58:51.000Z</time>
      </trkpt>
      <trkpt lat="47.48696" lon="6.80209">
        <ele>361</ele>
        <time>2017-12-10T08:58:52.000Z</time>
      </trkpt>
      <trkpt lat="47.48695" lon="6.80213">
        <ele>361</ele>
        <time>2017-12-10T08:58:53.000Z</time>
      </trkpt>
      <trkpt lat="47.48694" lon="6.80217">
        <ele>360.9</ele>
        <time>2017-12-10T08:58:54.000Z</time>
      </trkpt>
      <trkpt lat="47.48692" lon="6.80222">
        <ele>360.9</ele>
        <time>2017-12-10T08:58:55.000Z</time>
      </trkpt>
      <trkpt lat="47.4869" lon="6.80228">
        <ele>360.6</ele>
        <time>2017-12-10T08:58:56.000Z</time>
      </trkpt>
      <trkpt lat="47.48688" lon="6.80233">
        <ele>360.4</ele>
        <time>2017-12-10T08:58:57.000Z</time>
      </trkpt>
      <trkpt lat="47.48685" lon="6.80238">
        <ele>359.6</ele>
        <time>2017-12-10T08:58:58.000Z</time>
      </trkpt>
      <trkpt lat="47.48682" lon="6.80245">
        <ele>359.6</ele>
        <time>2017-12-10T08:58:59.000Z</time>
      </trkpt>
      <trkpt lat="47.4868" lon="6.80248">
        <ele>359.7</ele>
        <time>2017-12-10T08:59:00.000Z</time>
      </trkpt>
      <trkpt lat="47.48678" lon="6.80251">
        <ele>359.7</ele>
        <time>2017-12-10T08:59:01.000Z</time>
      </trkpt>
      <trkpt lat="47.48675" lon="6.80254">
        <ele>359.7</ele>
        <time>2017-12-10T08:59:02.000Z</time>
      </trkpt>
      <trkpt lat="47.48673" lon="6.80257">
        <ele>359.8</ele>
        <time>2017-12-10T08:59:03.000Z</time>
      </trkpt>
      <trkpt lat="47.48671" lon="6.80261">
        <ele>359.8</ele>
        <time>2017-12-10T08:59:04.000Z</time>
      </trkpt>
      <trkpt lat="47.48668" lon="6.80264">
        <ele>359.9</ele>
        <time>2017-12-10T08:59:05.000Z</time>
      </trkpt>
      <trkpt lat="47.48666" lon="6.80268">
        <ele>360</ele>
        <time>2017-12-10T08:59:06.000Z</time>
      </trkpt>
      <trkpt lat="47.48664" lon="6.80272">
        <ele>360.1</ele>
        <time>2017-12-10T08:59:07.000Z</time>
      </trkpt>
      <trkpt lat="47.48661" lon="6.80277">
        <ele>360.7</ele>
        <time>2017-12-10T08:59:08.000Z</time>
      </trkpt>
      <trkpt lat="47.48659" lon="6.8028">
        <ele>360.7</ele>
        <time>2017-12-10T08:59:09.000Z</time>
      </trkpt>
      <trkpt lat="47.48657" lon="6.80282">
        <ele>360.7</ele>
        <time>2017-12-10T08:59:10.000Z</time>
      </trkpt>
      <trkpt lat="47.48654" lon="6.80284">
        <ele>360.8</ele>
        <time>2017-12-10T08:59:11.000Z</time>
      </trkpt>
      <trkpt lat="47.48651" lon="6.80287">
        <ele>360.9</ele>
        <time>2017-12-10T08:59:12.000Z</time>
      </trkpt>
      <trkpt lat="47.48649" lon="6.80291">
        <ele>361</ele>
        <time>2017-12-10T08:59:13.000Z</time>
      </trkpt>
      <trkpt lat="47.48646" lon="6.80298">
        <ele>361</ele>
        <time>2017-12-10T08:59:14.000Z</time>
      </trkpt>
      <trkpt lat="47.48644" lon="6.80302">
        <ele>361.1</ele>
        <time>2017-12-10T08:59:15.000Z</time>
      </trkpt>
      <trkpt lat="47.48642" lon="6.80305">
        <ele>361.2</ele>
        <time>2017-12-10T08:59:16.000Z</time>
      </trkpt>
      <trkpt lat="47.4864" lon="6.80308">
        <ele>361.3</ele>
        <time>2017-12-10T08:59:17.000Z</time>
      </trkpt>
      <trkpt lat="47.48637" lon="6.80311">
        <ele>361.5</ele>
        <time>2017-12-10T08:59:18.000Z</time>
      </trkpt>
      <trkpt lat="47.48634" lon="6.80311">
        <ele>361.7</ele>
        <time>2017-12-10T08:59:19.000Z</time>
      </trkpt>
      <trkpt lat="47.48632" lon="6.80312">
        <ele>361.9</ele>
        <time>2017-12-10T08:59:20.000Z</time>
      </trkpt>
      <trkpt lat="47.48628" lon="6.80313">
        <ele>362</ele>
        <time>2017-12-10T08:59:21.000Z</time>
      </trkpt>
      <trkpt lat="47.48625" lon="6.80316">
        <ele>362.1</ele>
        <time>2017-12-10T08:59:22.000Z</time>
      </trkpt>
      <trkpt lat="47.48623" lon="6.80319">
        <ele>362.3</ele>
        <time>2017-12-10T08:59:23.000Z</time>
      </trkpt>
      <trkpt lat="47.48621" lon="6.80321">
        <ele>362.5</ele>
        <time>2017-12-10T08:59:24.000Z</time>
      </trkpt>
      <trkpt lat="47.48618" lon="6.80325">
        <ele>362.7</ele>
        <time>2017-12-10T08:59:25.000Z</time>
      </trkpt>
      <trkpt lat="47.48614" lon="6.80332">
        <ele>362.8</ele>
        <time>2017-12-10T08:59:26.000Z</time>
      </trkpt>
      <trkpt lat="47.4861" lon="6.8034">
        <ele>363</ele>
        <time>2017-12-10T08:59:27.000Z</time>
      </trkpt>
      <trkpt lat="47.48606" lon="6.80346">
        <ele>363.2</ele>
        <time>2017-12-10T08:59:28.000Z</time>
      </trkpt>
      <trkpt lat="47.48604" lon="6.8035">
        <ele>363.3</ele>
        <time>2017-12-10T08:59:29.000Z</time>
      </trkpt>
      <trkpt lat="47.48602" lon="6.80357">
        <ele>363.4</ele>
        <time>2017-12-10T08:59:30.000Z</time>
      </trkpt>
      <trkpt lat="47.486" lon="6.80361">
        <ele>363.5</ele>
        <time>2017-12-10T08:59:31.000Z</time>
      </trkpt>
      <trkpt lat="47.48598" lon="6.80366">
        <ele>363.7</ele>
        <time>2017-12-10T08:59:32.000Z</time>
      </trkpt>
      <trkpt lat="47.48595" lon="6.80371">
        <ele>364.5</ele>
        <time>2017-12-10T08:59:33.000Z</time>
      </trkpt>
      <trkpt lat="47.48593" lon="6.80378">
        <ele>364.5</ele>
        <time>2017-12-10T08:59:34.000Z</time>
      </trkpt>
      <trkpt lat="47.48591" lon="6.80381">
        <ele>364.7</ele>
        <time>2017-12-10T08:59:35.000Z</time>
      </trkpt>
      <trkpt lat="47.48588" lon="6.80384">
        <ele>364.9</ele>
        <time>2017-12-10T08:59:36.000Z</time>
      </trkpt>
      <trkpt lat="47.48585" lon="6.80388">
        <ele>365.1</ele>
        <time>2017-12-10T08:59:37.000Z</time>
      </trkpt>
      <trkpt lat="47.48583" lon="6.80395">
        <ele>365.3</ele>
        <time>2017-12-10T08:59:38.000Z</time>
      </trkpt>
      <trkpt lat="47.4858" lon="6.80404">
        <ele>365.4</ele>
        <time>2017-12-10T08:59:39.000Z</time>
      </trkpt>
      <trkpt lat="47.48576" lon="6.80412">
        <ele>365.5</ele>
        <time>2017-12-10T08:59:40.000Z</time>
      </trkpt>
      <trkpt lat="47.48574" lon="6.80416">
        <ele>365.6</ele>
        <time>2017-12-10T08:59:41.000Z</time>
      </trkpt>
      <trkpt lat="47.48573" lon="6.80421">
        <ele>365.7</ele>
        <time>2017-12-10T08:59:42.000Z</time>
      </trkpt>
      <trkpt lat="47.48572" lon="6.80425">
        <ele>365.7</ele>
        <time>2017-12-10T08:59:43.000Z</time>
      </trkpt>
      <trkpt lat="47.4857" lon="6.80429">
        <ele>365.7</ele>
        <time>2017-12-10T08:59:44.000Z</time>
      </trkpt>
      <trkpt lat="47.48569" lon="6.80434">
        <ele>365.7</ele>
        <time>2017-12-10T08:59:45.000Z</time>
      </trkpt>
      <trkpt lat="47.48567" lon="6.80438">
        <ele>365.7</ele>
        <time>2017-12-10T08:59:46.000Z</time>
      </trkpt>
      <trkpt lat="47.48566" lon="6.80443">
        <ele>366.1</ele>
        <time>2017-12-10T08:59:47.000Z</time>
      </trkpt>
      <trkpt lat="47.48565" lon="6.80449">
        <ele>366.1</ele>
        <time>2017-12-10T08:59:48.000Z</time>
      </trkpt>
      <trkpt lat="47.48564" lon="6.80454">
        <ele>366.5</ele>
        <time>2017-12-10T08:59:49.000Z</time>
      </trkpt>
      <trkpt lat="47.48562" lon="6.80459">
        <ele>366.6</ele>
        <time>2017-12-10T08:59:50.000Z</time>
      </trkpt>
      <trkpt lat="47.48562" lon="6.80466">
        <ele>366.7</ele>
        <time>2017-12-10T08:59:51.000Z</time>
      </trkpt>
      <trkpt lat="47.48561" lon="6.80471">
        <ele>366.7</ele>
        <time>2017-12-10T08:59:52.000Z</time>
      </trkpt>
      <trkpt lat="47.4856" lon="6.80475">
        <ele>366.7</ele>
        <time>2017-12-10T08:59:53.000Z</time>
      </trkpt>
      <trkpt lat="47.48559" lon="6.8048">
        <ele>366.7</ele>
        <time>2017-12-10T08:59:54.000Z</time>
      </trkpt>
      <trkpt lat="47.48558" lon="6.80484">
        <ele>366.8</ele>
        <time>2017-12-10T08:59:55.000Z</time>
      </trkpt>
      <trkpt lat="47.48557" lon="6.8049">
        <ele>366.8</ele>
        <time>2017-12-10T08:59:56.000Z</time>
      </trkpt>
      <trkpt lat="47.48555" lon="6.80498">
        <ele>366.8</ele>
        <time>2017-12-10T08:59:57.000Z</time>
      </trkpt>
      <trkpt lat="47.48555" lon="6.80503">
        <ele>366.7</ele>
        <time>2017-12-10T08:59:58.000Z</time>
      </trkpt>
      <trkpt lat="47.48553" lon="6.80509">
        <ele>365.8</ele>
        <time>2017-12-10T08:59:59.000Z</time>
      </trkpt>
      <trkpt lat="47.48552" lon="6.80516">
        <ele>364.6</ele>
        <time>2017-12-10T09:00:00.000Z</time>
      </trkpt>
      <trkpt lat="47.48551" lon="6.8052">
        <ele>364.5</ele>
        <time>2017-12-10T09:00:01.000Z</time>
      </trkpt>
      <trkpt lat="47.4855" lon="6.80525">
        <ele>364.4</ele>
        <time>2017-12-10T09:00:02.000Z</time>
      </trkpt>
      <trkpt lat="47.48548" lon="6.8053">
        <ele>364.3</ele>
        <time>2017-12-10T09:00:03.000Z</time>
      </trkpt>
      <trkpt lat="47.48547" lon="6.80539">
        <ele>364.1</ele>
        <time>2017-12-10T09:00:04.000Z</time>
      </trkpt>
      <trkpt lat="47.48546" lon="6.80548">
        <ele>364.1</ele>
        <time>2017-12-10T09:00:05.000Z</time>
      </trkpt>
      <trkpt lat="47.48545" lon="6.80553">
        <ele>364.1</ele>
        <time>2017-12-10T09:00:06.000Z</time>
      </trkpt>
      <trkpt lat="47.48544" lon="6.80558">
        <ele>364.1</ele>
        <time>2017-12-10T09:00:07.000Z</time>
      </trkpt>
      <trkpt lat="47.48543" lon="6.80562">
        <ele>364.1</ele>
        <time>2017-12-10T09:00:08.000Z</time>
      </trkpt>
      <trkpt lat="47.48542" lon="6.80568">
        <ele>364.1</ele>
        <time>2017-12-10T09:00:09.000Z</time>
      </trkpt>
      <trkpt lat="47.48541" lon="6.80572">
        <ele>364.1</ele>
        <time>2017-12-10T09:00:10.000Z</time>
      </trkpt>
      <trkpt lat="47.4854" lon="6.80576">
        <ele>364.2</ele>
        <time>2017-12-10T09:00:11.000Z</time>
      </trkpt>
      <trkpt lat="47.48539" lon="6.80581">
        <ele>364.2</ele>
        <time>2017-12-10T09:00:12.000Z</time>
      </trkpt>
      <trkpt lat="47.48538" lon="6.80586">
        <ele>364.4</ele>
        <time>2017-12-10T09:00:13.000Z</time>
      </trkpt>
      <trkpt lat="47.48536" lon="6.80591">
        <ele>365.7</ele>
        <time>2017-12-10T09:00:14.000Z</time>
      </trkpt>
      <trkpt lat="47.48535" lon="6.80596">
        <ele>365.8</ele>
        <time>2017-12-10T09:00:15.000Z</time>
      </trkpt>
      <trkpt lat="47.48534" lon="6.806">
        <ele>365.8</ele>
        <time>2017-12-10T09:00:16.000Z</time>
      </trkpt>
      <trkpt lat="47.48533" lon="6.80604">
        <ele>365.9</ele>
        <time>2017-12-10T09:00:17.000Z</time>
      </trkpt>
      <trkpt lat="47.48532" lon="6.80608">
        <ele>365.8</ele>
        <time>2017-12-10T09:00:19.000Z</time>
      </trkpt>
      <trkpt lat="47.4853" lon="6.8061">
        <ele>365.7</ele>
        <time>2017-12-10T09:00:20.000Z</time>
      </trkpt>
      <trkpt lat="47.48529" lon="6.80613">
        <ele>365.6</ele>
        <time>2017-12-10T09:00:21.000Z</time>
      </trkpt>
      <trkpt lat="47.48525" lon="6.80619">
        <ele>365.6</ele>
        <time>2017-12-10T09:00:22.000Z</time>
      </trkpt>
      <trkpt lat="47.48522" lon="6.80626">
        <ele>365.6</ele>
        <time>2017-12-10T09:00:23.000Z</time>
      </trkpt>
      <trkpt lat="47.48519" lon="6.80634">
        <ele>365.7</ele>
        <time>2017-12-10T09:00:24.000Z</time>
      </trkpt>
      <trkpt lat="47.48518" lon="6.80639">
        <ele>365.7</ele>
        <time>2017-12-10T09:00:25.000Z</time>
      </trkpt>
      <trkpt lat="47.48516" lon="6.80644">
        <ele>365.8</ele>
        <time>2017-12-10T09:00:26.000Z</time>
      </trkpt>
      <trkpt lat="47.48514" lon="6.80651">
        <ele>365.8</ele>
        <time>2017-12-10T09:00:27.000Z</time>
      </trkpt>
      <trkpt lat="47.48512" lon="6.80658">
        <ele>365.8</ele>
        <time>2017-12-10T09:00:28.000Z</time>
      </trkpt>
      <trkpt lat="47.4851" lon="6.80661">
        <ele>365.8</ele>
        <time>2017-12-10T09:00:29.000Z</time>
      </trkpt>
      <trkpt lat="47.48508" lon="6.80665">
        <ele>365.9</ele>
        <time>2017-12-10T09:00:30.000Z</time>
      </trkpt>
      <trkpt lat="47.48506" lon="6.80667">
        <ele>365.9</ele>
        <time>2017-12-10T09:00:31.000Z</time>
      </trkpt>
      <trkpt lat="47.48504" lon="6.80669">
        <ele>366</ele>
        <time>2017-12-10T09:00:32.000Z</time>
      </trkpt>
      <trkpt lat="47.48502" lon="6.80671">
        <ele>366</ele>
        <time>2017-12-10T09:00:33.000Z</time>
      </trkpt>
      <trkpt lat="47.48482" lon="6.80688">
        <ele>365.8</ele>
        <time>2017-12-10T09:00:41.000Z</time>
      </trkpt>
      <trkpt lat="47.48482" lon="6.80696">
        <ele>366</ele>
        <time>2017-12-10T09:00:42.000Z</time>
      </trkpt>
      <trkpt lat="47.48481" lon="6.80705">
        <ele>366</ele>
        <time>2017-12-10T09:00:43.000Z</time>
      </trkpt>
      <trkpt lat="47.48481" lon="6.80717">
        <ele>366.4</ele>
        <time>2017-12-10T09:00:44.000Z</time>
      </trkpt>
      <trkpt lat="47.48482" lon="6.80728">
        <ele>367</ele>
        <time>2017-12-10T09:00:45.000Z</time>
      </trkpt>
      <trkpt lat="47.48482" lon="6.80738">
        <ele>367</ele>
        <time>2017-12-10T09:00:46.000Z</time>
      </trkpt>
      <trkpt lat="47.48482" lon="6.80743">
        <ele>367</ele>
        <time>2017-12-10T09:00:47.000Z</time>
      </trkpt>
      <trkpt lat="47.48481" lon="6.80749">
        <ele>366.9</ele>
        <time>2017-12-10T09:00:48.000Z</time>
      </trkpt>
      <trkpt lat="47.4848" lon="6.80751">
        <ele>366.8</ele>
        <time>2017-12-10T09:00:49.000Z</time>
      </trkpt>
      <trkpt lat="47.4848" lon="6.80756">
        <ele>366.9</ele>
        <time>2017-12-10T09:00:50.000Z</time>
      </trkpt>
      <trkpt lat="47.48481" lon="6.80762">
        <ele>366.9</ele>
        <time>2017-12-10T09:00:51.000Z</time>
      </trkpt>
      <trkpt lat="47.48482" lon="6.80768">
        <ele>366.5</ele>
        <time>2017-12-10T09:00:52.000Z</time>
      </trkpt>
      <trkpt lat="47.48482" lon="6.80778">
        <ele>366.1</ele>
        <time>2017-12-10T09:00:53.000Z</time>
      </trkpt>
      <trkpt lat="47.48481" lon="6.80785">
        <ele>365.8</ele>
        <time>2017-12-10T09:00:54.000Z</time>
      </trkpt>
      <trkpt lat="47.4848" lon="6.80791">
        <ele>365.5</ele>
        <time>2017-12-10T09:00:55.000Z</time>
      </trkpt>
      <trkpt lat="47.4848" lon="6.80797">
        <ele>365.3</ele>
        <time>2017-12-10T09:00:56.000Z</time>
      </trkpt>
      <trkpt lat="47.4848" lon="6.80803">
        <ele>364.9</ele>
        <time>2017-12-10T09:00:57.000Z</time>
      </trkpt>
      <trkpt lat="47.48479" lon="6.80809">
        <ele>364.7</ele>
        <time>2017-12-10T09:00:58.000Z</time>
      </trkpt>
      <trkpt lat="47.48478" lon="6.80815">
        <ele>364.5</ele>
        <time>2017-12-10T09:00:59.000Z</time>
      </trkpt>
      <trkpt lat="47.48477" lon="6.80821">
        <ele>364.3</ele>
        <time>2017-12-10T09:01:00.000Z</time>
      </trkpt>
      <trkpt lat="47.48476" lon="6.80827">
        <ele>364.1</ele>
        <time>2017-12-10T09:01:01.000Z</time>
      </trkpt>
      <trkpt lat="47.48475" lon="6.80833">
        <ele>363.9</ele>
        <time>2017-12-10T09:01:02.000Z</time>
      </trkpt>
      <trkpt lat="47.48473" lon="6.80838">
        <ele>363.5</ele>
        <time>2017-12-10T09:01:03.000Z</time>
      </trkpt>
      <trkpt lat="47.48471" lon="6.80843">
        <ele>363</ele>
        <time>2017-12-10T09:01:04.000Z</time>
      </trkpt>
      <trkpt lat="47.4847" lon="6.80848">
        <ele>363.1</ele>
        <time>2017-12-10T09:01:05.000Z</time>
      </trkpt>
      <trkpt lat="47.48469" lon="6.80854">
        <ele>362.3</ele>
        <time>2017-12-10T09:01:06.000Z</time>
      </trkpt>
      <trkpt lat="47.48468" lon="6.8086">
        <ele>361.9</ele>
        <time>2017-12-10T09:01:07.000Z</time>
      </trkpt>
      <trkpt lat="47.48466" lon="6.80866">
        <ele>362.1</ele>
        <time>2017-12-10T09:01:08.000Z</time>
      </trkpt>
      <trkpt lat="47.48464" lon="6.80872">
        <ele>362.4</ele>
        <time>2017-12-10T09:01:09.000Z</time>
      </trkpt>
      <trkpt lat="47.48463" lon="6.80877">
        <ele>362.4</ele>
        <time>2017-12-10T09:01:10.000Z</time>
      </trkpt>
      <trkpt lat="47.48462" lon="6.80883">
        <ele>362.9</ele>
        <time>2017-12-10T09:01:11.000Z</time>
      </trkpt>
      <trkpt lat="47.4846" lon="6.80889">
        <ele>363.5</ele>
        <time>2017-12-10T09:01:12.000Z</time>
      </trkpt>
      <trkpt lat="47.48459" lon="6.80895">
        <ele>364.1</ele>
        <time>2017-12-10T09:01:13.000Z</time>
      </trkpt>
      <trkpt lat="47.48457" lon="6.80901">
        <ele>364.3</ele>
        <time>2017-12-10T09:01:14.000Z</time>
      </trkpt>
      <trkpt lat="47.48456" lon="6.80906">
        <ele>364.3</ele>
        <time>2017-12-10T09:01:15.000Z</time>
      </trkpt>
      <trkpt lat="47.48454" lon="6.80911">
        <ele>364</ele>
        <time>2017-12-10T09:01:16.000Z</time>
      </trkpt>
      <trkpt lat="47.48453" lon="6.80917">
        <ele>363.4</ele>
        <time>2017-12-10T09:01:17.000Z</time>
      </trkpt>
      <trkpt lat="47.48452" lon="6.80924">
        <ele>363.1</ele>
        <time>2017-12-10T09:01:18.000Z</time>
      </trkpt>
      <trkpt lat="47.4845" lon="6.8093">
        <ele>362.7</ele>
        <time>2017-12-10T09:01:19.000Z</time>
      </trkpt>
      <trkpt lat="47.48449" lon="6.80937">
        <ele>362.2</ele>
        <time>2017-12-10T09:01:20.000Z</time>
      </trkpt>
      <trkpt lat="47.48448" lon="6.80943">
        <ele>361.9</ele>
        <time>2017-12-10T09:01:21.000Z</time>
      </trkpt>
      <trkpt lat="47.48447" lon="6.80949">
        <ele>361.8</ele>
        <time>2017-12-10T09:01:22.000Z</time>
      </trkpt>
      <trkpt lat="47.48446" lon="6.80955">
        <ele>361.6</ele>
        <time>2017-12-10T09:01:23.000Z</time>
      </trkpt>
      <trkpt lat="47.48445" lon="6.80962">
        <ele>361.5</ele>
        <time>2017-12-10T09:01:24.000Z</time>
      </trkpt>
      <trkpt lat="47.48444" lon="6.80968">
        <ele>361.4</ele>
        <time>2017-12-10T09:01:25.000Z</time>
      </trkpt>
      <trkpt lat="47.48443" lon="6.80975">
        <ele>361.3</ele>
        <time>2017-12-10T09:01:26.000Z</time>
      </trkpt>
      <trkpt lat="47.48442" lon="6.8098">
        <ele>361.4</ele>
        <time>2017-12-10T09:01:27.000Z</time>
      </trkpt>
      <trkpt lat="47.48441" lon="6.80985">
        <ele>361.4</ele>
        <time>2017-12-10T09:01:28.000Z</time>
      </trkpt>
      <trkpt lat="47.4844" lon="6.80989">
        <ele>361.5</ele>
        <time>2017-12-10T09:01:29.000Z</time>
      </trkpt>
      <trkpt lat="47.48439" lon="6.80994">
        <ele>362.5</ele>
        <time>2017-12-10T09:01:30.000Z</time>
      </trkpt>
      <trkpt lat="47.48438" lon="6.81">
        <ele>363.1</ele>
        <time>2017-12-10T09:01:31.000Z</time>
      </trkpt>
      <trkpt lat="47.48437" lon="6.81006">
        <ele>363.7</ele>
        <time>2017-12-10T09:01:32.000Z</time>
      </trkpt>
      <trkpt lat="47.48436" lon="6.81012">
        <ele>364</ele>
        <time>2017-12-10T09:01:33.000Z</time>
      </trkpt>
      <trkpt lat="47.48435" lon="6.81019">
        <ele>364.2</ele>
        <time>2017-12-10T09:01:34.000Z</time>
      </trkpt>
      <trkpt lat="47.48434" lon="6.81028">
        <ele>364.4</ele>
        <time>2017-12-10T09:01:35.000Z</time>
      </trkpt>
      <trkpt lat="47.48433" lon="6.81034">
        <ele>364.4</ele>
        <time>2017-12-10T09:01:36.000Z</time>
      </trkpt>
      <trkpt lat="47.48432" lon="6.8104">
        <ele>364.4</ele>
        <time>2017-12-10T09:01:37.000Z</time>
      </trkpt>
      <trkpt lat="47.48431" lon="6.81045">
        <ele>364.4</ele>
        <time>2017-12-10T09:01:38.000Z</time>
      </trkpt>
      <trkpt lat="47.4843" lon="6.81051">
        <ele>364.5</ele>
        <time>2017-12-10T09:01:39.000Z</time>
      </trkpt>
      <trkpt lat="47.48429" lon="6.81057">
        <ele>364.5</ele>
        <time>2017-12-10T09:01:40.000Z</time>
      </trkpt>
      <trkpt lat="47.48428" lon="6.81062">
        <ele>364.5</ele>
        <time>2017-12-10T09:01:41.000Z</time>
      </trkpt>
      <trkpt lat="47.48426" lon="6.81068">
        <ele>364.8</ele>
        <time>2017-12-10T09:01:42.000Z</time>
      </trkpt>
      <trkpt lat="47.48425" lon="6.81073">
        <ele>364.8</ele>
        <time>2017-12-10T09:01:43.000Z</time>
      </trkpt>
      <trkpt lat="47.48424" lon="6.81078">
        <ele>364.4</ele>
        <time>2017-12-10T09:01:44.000Z</time>
      </trkpt>
      <trkpt lat="47.48423" lon="6.81085">
        <ele>363.9</ele>
        <time>2017-12-10T09:01:45.000Z</time>
      </trkpt>
      <trkpt lat="47.48422" lon="6.81091">
        <ele>363.7</ele>
        <time>2017-12-10T09:01:46.000Z</time>
      </trkpt>
      <trkpt lat="47.48421" lon="6.81096">
        <ele>364.1</ele>
        <time>2017-12-10T09:01:47.000Z</time>
      </trkpt>
      <trkpt lat="47.48419" lon="6.811">
        <ele>364.1</ele>
        <time>2017-12-10T09:01:48.000Z</time>
      </trkpt>
      <trkpt lat="47.48418" lon="6.81105">
        <ele>364.1</ele>
        <time>2017-12-10T09:01:49.000Z</time>
      </trkpt>
      <trkpt lat="47.48417" lon="6.81112">
        <ele>364.9</ele>
        <time>2017-12-10T09:01:50.000Z</time>
      </trkpt>
      <trkpt lat="47.48415" lon="6.81122">
        <ele>365.4</ele>
        <time>2017-12-10T09:01:51.000Z</time>
      </trkpt>
      <trkpt lat="47.48414" lon="6.81128">
        <ele>365.9</ele>
        <time>2017-12-10T09:01:52.000Z</time>
      </trkpt>
      <trkpt lat="47.48413" lon="6.81134">
        <ele>366.2</ele>
        <time>2017-12-10T09:01:53.000Z</time>
      </trkpt>
      <trkpt lat="47.48413" lon="6.81139">
        <ele>366.4</ele>
        <time>2017-12-10T09:01:54.000Z</time>
      </trkpt>
      <trkpt lat="47.48412" lon="6.81145">
        <ele>366.5</ele>
        <time>2017-12-10T09:01:55.000Z</time>
      </trkpt>
      <trkpt lat="47.48412" lon="6.8115">
        <ele>366.3</ele>
        <time>2017-12-10T09:01:56.000Z</time>
      </trkpt>
      <trkpt lat="47.48411" lon="6.81157">
        <ele>366.4</ele>
        <time>2017-12-10T09:01:57.000Z</time>
      </trkpt>
      <trkpt lat="47.4841" lon="6.81162">
        <ele>366.3</ele>
        <time>2017-12-10T09:01:58.000Z</time>
      </trkpt>
      <trkpt lat="47.48409" lon="6.81167">
        <ele>366.3</ele>
        <time>2017-12-10T09:01:59.000Z</time>
      </trkpt>
      <trkpt lat="47.48408" lon="6.81171">
        <ele>366.2</ele>
        <time>2017-12-10T09:02:00.000Z</time>
      </trkpt>
      <trkpt lat="47.48406" lon="6.81175">
        <ele>366.1</ele>
        <time>2017-12-10T09:02:01.000Z</time>
      </trkpt>
      <trkpt lat="47.48405" lon="6.8118">
        <ele>366</ele>
        <time>2017-12-10T09:02:02.000Z</time>
      </trkpt>
      <trkpt lat="47.48404" lon="6.81184">
        <ele>365.8</ele>
        <time>2017-12-10T09:02:03.000Z</time>
      </trkpt>
      <trkpt lat="47.48403" lon="6.81189">
        <ele>365.8</ele>
        <time>2017-12-10T09:02:04.000Z</time>
      </trkpt>
      <trkpt lat="47.48401" lon="6.81194">
        <ele>365.6</ele>
        <time>2017-12-10T09:02:05.000Z</time>
      </trkpt>
      <trkpt lat="47.48399" lon="6.81202">
        <ele>365.5</ele>
        <time>2017-12-10T09:02:06.000Z</time>
      </trkpt>
      <trkpt lat="47.48397" lon="6.81211">
        <ele>365.4</ele>
        <time>2017-12-10T09:02:07.000Z</time>
      </trkpt>
      <trkpt lat="47.48397" lon="6.81214">
        <ele>365.2</ele>
        <time>2017-12-10T09:02:08.000Z</time>
      </trkpt>
      <trkpt lat="47.48396" lon="6.8122">
        <ele>365.1</ele>
        <time>2017-12-10T09:02:09.000Z</time>
      </trkpt>
      <trkpt lat="47.48395" lon="6.81229">
        <ele>365</ele>
        <time>2017-12-10T09:02:10.000Z</time>
      </trkpt>
      <trkpt lat="47.48394" lon="6.81234">
        <ele>365</ele>
        <time>2017-12-10T09:02:11.000Z</time>
      </trkpt>
      <trkpt lat="47.48393" lon="6.81238">
        <ele>365</ele>
        <time>2017-12-10T09:02:12.000Z</time>
      </trkpt>
      <trkpt lat="47.48391" lon="6.81245">
        <ele>364.9</ele>
        <time>2017-12-10T09:02:13.000Z</time>
      </trkpt>
      <trkpt lat="47.4839" lon="6.81251">
        <ele>364.4</ele>
        <time>2017-12-10T09:02:14.000Z</time>
      </trkpt>
      <trkpt lat="47.48389" lon="6.81258">
        <ele>364.1</ele>
        <time>2017-12-10T09:02:15.000Z</time>
      </trkpt>
      <trkpt lat="47.48388" lon="6.81265">
        <ele>363.9</ele>
        <time>2017-12-10T09:02:16.000Z</time>
      </trkpt>
      <trkpt lat="47.48387" lon="6.81272">
        <ele>363.6</ele>
        <time>2017-12-10T09:02:17.000Z</time>
      </trkpt>
      <trkpt lat="47.48386" lon="6.81279">
        <ele>363.1</ele>
        <time>2017-12-10T09:02:18.000Z</time>
      </trkpt>
      <trkpt lat="47.48384" lon="6.81285">
        <ele>362.8</ele>
        <time>2017-12-10T09:02:19.000Z</time>
      </trkpt>
      <trkpt lat="47.48383" lon="6.81292">
        <ele>362.8</ele>
        <time>2017-12-10T09:02:20.000Z</time>
      </trkpt>
      <trkpt lat="47.48383" lon="6.81298">
        <ele>362.9</ele>
        <time>2017-12-10T09:02:21.000Z</time>
      </trkpt>
      <trkpt lat="47.48383" lon="6.81306">
        <ele>363</ele>
        <time>2017-12-10T09:02:22.000Z</time>
      </trkpt>
      <trkpt lat="47.48382" lon="6.81315">
        <ele>363.2</ele>
        <time>2017-12-10T09:02:23.000Z</time>
      </trkpt>
      <trkpt lat="47.48381" lon="6.81321">
        <ele>364.3</ele>
        <time>2017-12-10T09:02:24.000Z</time>
      </trkpt>
      <trkpt lat="47.48381" lon="6.81327">
        <ele>365.6</ele>
        <time>2017-12-10T09:02:25.000Z</time>
      </trkpt>
      <trkpt lat="47.48381" lon="6.81333">
        <ele>366.5</ele>
        <time>2017-12-10T09:02:26.000Z</time>
      </trkpt>
      <trkpt lat="47.48381" lon="6.81338">
        <ele>367.1</ele>
        <time>2017-12-10T09:02:27.000Z</time>
      </trkpt>
      <trkpt lat="47.48382" lon="6.81344">
        <ele>368</ele>
        <time>2017-12-10T09:02:28.000Z</time>
      </trkpt>
      <trkpt lat="47.48382" lon="6.8135">
        <ele>368.8</ele>
        <time>2017-12-10T09:02:29.000Z</time>
      </trkpt>
      <trkpt lat="47.48383" lon="6.81355">
        <ele>368.8</ele>
        <time>2017-12-10T09:02:30.000Z</time>
      </trkpt>
      <trkpt lat="47.48384" lon="6.8136">
        <ele>368.3</ele>
        <time>2017-12-10T09:02:31.000Z</time>
      </trkpt>
      <trkpt lat="47.48384" lon="6.81365">
        <ele>367.6</ele>
        <time>2017-12-10T09:02:32.000Z</time>
      </trkpt>
      <trkpt lat="47.48384" lon="6.8137">
        <ele>366.8</ele>
        <time>2017-12-10T09:02:33.000Z</time>
      </trkpt>
      <trkpt lat="47.48384" lon="6.81375">
        <ele>367.1</ele>
        <time>2017-12-10T09:02:34.000Z</time>
      </trkpt>
      <trkpt lat="47.48385" lon="6.8138">
        <ele>367.7</ele>
        <time>2017-12-10T09:02:35.000Z</time>
      </trkpt>
      <trkpt lat="47.48386" lon="6.81385">
        <ele>368.2</ele>
        <time>2017-12-10T09:02:36.000Z</time>
      </trkpt>
      <trkpt lat="47.48386" lon="6.8139">
        <ele>367.9</ele>
        <time>2017-12-10T09:02:37.000Z</time>
      </trkpt>
      <trkpt lat="47.48386" lon="6.81395">
        <ele>367.8</ele>
        <time>2017-12-10T09:02:38.000Z</time>
      </trkpt>
      <trkpt lat="47.48386" lon="6.81401">
        <ele>367.8</ele>
        <time>2017-12-10T09:02:39.000Z</time>
      </trkpt>
      <trkpt lat="47.48387" lon="6.81407">
        <ele>367.6</ele>
        <time>2017-12-10T09:02:40.000Z</time>
      </trkpt>
      <trkpt lat="47.48387" lon="6.81413">
        <ele>366.7</ele>
        <time>2017-12-10T09:02:41.000Z</time>
      </trkpt>
      <trkpt lat="47.48388" lon="6.81419">
        <ele>366.6</ele>
        <time>2017-12-10T09:02:42.000Z</time>
      </trkpt>
      <trkpt lat="47.48389" lon="6.81424">
        <ele>366</ele>
        <time>2017-12-10T09:02:43.000Z</time>
      </trkpt>
      <trkpt lat="47.48389" lon="6.8143">
        <ele>365.3</ele>
        <time>2017-12-10T09:02:44.000Z</time>
      </trkpt>
      <trkpt lat="47.48389" lon="6.81436">
        <ele>365.2</ele>
        <time>2017-12-10T09:02:45.000Z</time>
      </trkpt>
      <trkpt lat="47.4839" lon="6.81441">
        <ele>365</ele>
        <time>2017-12-10T09:02:46.000Z</time>
      </trkpt>
      <trkpt lat="47.4839" lon="6.81447">
        <ele>365</ele>
        <time>2017-12-10T09:02:47.000Z</time>
      </trkpt>
      <trkpt lat="47.4839" lon="6.81454">
        <ele>365.4</ele>
        <time>2017-12-10T09:02:48.000Z</time>
      </trkpt>
      <trkpt lat="47.4839" lon="6.8146">
        <ele>366</ele>
        <time>2017-12-10T09:02:49.000Z</time>
      </trkpt>
      <trkpt lat="47.48391" lon="6.81466">
        <ele>366</ele>
        <time>2017-12-10T09:02:50.000Z</time>
      </trkpt>
      <trkpt lat="47.48391" lon="6.81472">
        <ele>365.7</ele>
        <time>2017-12-10T09:02:51.000Z</time>
      </trkpt>
      <trkpt lat="47.48391" lon="6.81478">
        <ele>365.2</ele>
        <time>2017-12-10T09:02:52.000Z</time>
      </trkpt>
      <trkpt lat="47.48392" lon="6.81484">
        <ele>364.9</ele>
        <time>2017-12-10T09:02:53.000Z</time>
      </trkpt>
      <trkpt lat="47.48392" lon="6.8149">
        <ele>365.1</ele>
        <time>2017-12-10T09:02:54.000Z</time>
      </trkpt>
      <trkpt lat="47.48393" lon="6.81497">
        <ele>364.9</ele>
        <time>2017-12-10T09:02:55.000Z</time>
      </trkpt>
      <trkpt lat="47.48394" lon="6.81504">
        <ele>364.5</ele>
        <time>2017-12-10T09:02:56.000Z</time>
      </trkpt>
      <trkpt lat="47.48395" lon="6.8151">
        <ele>364.2</ele>
        <time>2017-12-10T09:02:57.000Z</time>
      </trkpt>
      <trkpt lat="47.48396" lon="6.81516">
        <ele>364</ele>
        <time>2017-12-10T09:02:58.000Z</time>
      </trkpt>
      <trkpt lat="47.48397" lon="6.81523">
        <ele>364.6</ele>
        <time>2017-12-10T09:02:59.000Z</time>
      </trkpt>
      <trkpt lat="47.48398" lon="6.81529">
        <ele>365.3</ele>
        <time>2017-12-10T09:03:00.000Z</time>
      </trkpt>
      <trkpt lat="47.48398" lon="6.81535">
        <ele>365.6</ele>
        <time>2017-12-10T09:03:01.000Z</time>
      </trkpt>
      <trkpt lat="47.48399" lon="6.81541">
        <ele>365.7</ele>
        <time>2017-12-10T09:03:02.000Z</time>
      </trkpt>
      <trkpt lat="47.48399" lon="6.81547">
        <ele>365.5</ele>
        <time>2017-12-10T09:03:03.000Z</time>
      </trkpt>
      <trkpt lat="47.484" lon="6.81553">
        <ele>365.2</ele>
        <time>2017-12-10T09:03:04.000Z</time>
      </trkpt>
      <trkpt lat="47.484" lon="6.81559">
        <ele>365</ele>
        <time>2017-12-10T09:03:05.000Z</time>
      </trkpt>
      <trkpt lat="47.48401" lon="6.81564">
        <ele>364.7</ele>
        <time>2017-12-10T09:03:06.000Z</time>
      </trkpt>
      <trkpt lat="47.48402" lon="6.8157">
        <ele>364.5</ele>
        <time>2017-12-10T09:03:07.000Z</time>
      </trkpt>
      <trkpt lat="47.48403" lon="6.81575">
        <ele>364.4</ele>
        <time>2017-12-10T09:03:08.000Z</time>
      </trkpt>
      <trkpt lat="47.48404" lon="6.8158">
        <ele>364.4</ele>
        <time>2017-12-10T09:03:09.000Z</time>
      </trkpt>
      <trkpt lat="47.48405" lon="6.81585">
        <ele>364.4</ele>
        <time>2017-12-10T09:03:10.000Z</time>
      </trkpt>
      <trkpt lat="47.48406" lon="6.81589">
        <ele>364.4</ele>
        <time>2017-12-10T09:03:11.000Z</time>
      </trkpt>
      <trkpt lat="47.48407" lon="6.81593">
        <ele>364.4</ele>
        <time>2017-12-10T09:03:12.000Z</time>
      </trkpt>
      <trkpt lat="47.4841" lon="6.81599">
        <ele>364.4</ele>
        <time>2017-12-10T09:03:13.000Z</time>
      </trkpt>
      <trkpt lat="47.48412" lon="6.81602">
        <ele>364.4</ele>
        <time>2017-12-10T09:03:14.000Z</time>
      </trkpt>
      <trkpt lat="47.48414" lon="6.81604">
        <ele>364.5</ele>
        <time>2017-12-10T09:03:15.000Z</time>
      </trkpt>
      <trkpt lat="47.48417" lon="6.81606">
        <ele>364.6</ele>
        <time>2017-12-10T09:03:17.000Z</time>
      </trkpt>
      <trkpt lat="47.48419" lon="6.81607">
        <ele>364.7</ele>
        <time>2017-12-10T09:03:18.000Z</time>
      </trkpt>
      <trkpt lat="47.48423" lon="6.8161">
        <ele>365</ele>
        <time>2017-12-10T09:03:22.000Z</time>
      </trkpt>
      <trkpt lat="47.48424" lon="6.81611">
        <ele>365</ele>
        <time>2017-12-10T09:03:23.000Z</time>
      </trkpt>
      <trkpt lat="47.4842" lon="6.81613">
        <ele>364.8</ele>
        <time>2017-12-10T09:03:27.000Z</time>
      </trkpt>
      <trkpt lat="47.48417" lon="6.81612">
        <ele>364.8</ele>
        <time>2017-12-10T09:03:28.000Z</time>
      </trkpt>
      <trkpt lat="47.48414" lon="6.81613">
        <ele>364.7</ele>
        <time>2017-12-10T09:03:29.000Z</time>
      </trkpt>
      <trkpt lat="47.48412" lon="6.81614">
        <ele>364.6</ele>
        <time>2017-12-10T09:03:30.000Z</time>
      </trkpt>
      <trkpt lat="47.48409" lon="6.81614">
        <ele>364.6</ele>
        <time>2017-12-10T09:03:31.000Z</time>
      </trkpt>
      <trkpt lat="47.48406" lon="6.81613">
        <ele>364.5</ele>
        <time>2017-12-10T09:03:32.000Z</time>
      </trkpt>
      <trkpt lat="47.48404" lon="6.81613">
        <ele>364.5</ele>
        <time>2017-12-10T09:03:33.000Z</time>
      </trkpt>
      <trkpt lat="47.48402" lon="6.81613">
        <ele>364.5</ele>
        <time>2017-12-10T09:03:34.000Z</time>
      </trkpt>
      <trkpt lat="47.48399" lon="6.81614">
        <ele>364.6</ele>
        <time>2017-12-10T09:03:35.000Z</time>
      </trkpt>
      <trkpt lat="47.48396" lon="6.81614">
        <ele>364.7</ele>
        <time>2017-12-10T09:03:36.000Z</time>
      </trkpt>
      <trkpt lat="47.48393" lon="6.81615">
        <ele>364.8</ele>
        <time>2017-12-10T09:03:37.000Z</time>
      </trkpt>
      <trkpt lat="47.4839" lon="6.81616">
        <ele>364.8</ele>
        <time>2017-12-10T09:03:38.000Z</time>
      </trkpt>
      <trkpt lat="47.48387" lon="6.81616">
        <ele>364.8</ele>
        <time>2017-12-10T09:03:39.000Z</time>
      </trkpt>
      <trkpt lat="47.48385" lon="6.81617">
        <ele>364.9</ele>
        <time>2017-12-10T09:03:40.000Z</time>
      </trkpt>
      <trkpt lat="47.48382" lon="6.81618">
        <ele>364.9</ele>
        <time>2017-12-10T09:03:41.000Z</time>
      </trkpt>
      <trkpt lat="47.4838" lon="6.81618">
        <ele>365</ele>
        <time>2017-12-10T09:03:42.000Z</time>
      </trkpt>
      <trkpt lat="47.48378" lon="6.81619">
        <ele>365.1</ele>
        <time>2017-12-10T09:03:43.000Z</time>
      </trkpt>
      <trkpt lat="47.48375" lon="6.8162">
        <ele>365.1</ele>
        <time>2017-12-10T09:03:44.000Z</time>
      </trkpt>
      <trkpt lat="47.48372" lon="6.8162">
        <ele>365.1</ele>
        <time>2017-12-10T09:03:45.000Z</time>
      </trkpt>
      <trkpt lat="47.48369" lon="6.8162">
        <ele>365.2</ele>
        <time>2017-12-10T09:03:46.000Z</time>
      </trkpt>
      <trkpt lat="47.48367" lon="6.81621">
        <ele>365.2</ele>
        <time>2017-12-10T09:03:47.000Z</time>
      </trkpt>
      <trkpt lat="47.48365" lon="6.81622">
        <ele>365.3</ele>
        <time>2017-12-10T09:03:48.000Z</time>
      </trkpt>
      <trkpt lat="47.4836" lon="6.81623">
        <ele>365.4</ele>
        <time>2017-12-10T09:03:49.000Z</time>
      </trkpt>
      <trkpt lat="47.48358" lon="6.81623">
        <ele>365.5</ele>
        <time>2017-12-10T09:03:50.000Z</time>
      </trkpt>
      <trkpt lat="47.48354" lon="6.81623">
        <ele>365.5</ele>
        <time>2017-12-10T09:03:52.000Z</time>
      </trkpt>
      <trkpt lat="47.48352" lon="6.81624">
        <ele>365.5</ele>
        <time>2017-12-10T09:03:53.000Z</time>
      </trkpt>
      <trkpt lat="47.48348" lon="6.81626">
        <ele>365.3</ele>
        <time>2017-12-10T09:03:56.000Z</time>
      </trkpt>
      <trkpt lat="47.48347" lon="6.81626">
        <ele>365.2</ele>
        <time>2017-12-10T09:03:57.000Z</time>
      </trkpt>
      <trkpt lat="47.48347" lon="6.81632">
        <ele>364.6</ele>
        <time>2017-12-10T09:04:07.000Z</time>
      </trkpt>
      <trkpt lat="47.48347" lon="6.81633">
        <ele>364.7</ele>
        <time>2017-12-10T09:04:08.000Z</time>
      </trkpt>
      <trkpt lat="47.48346" lon="6.81639">
        <ele>364.7</ele>
        <time>2017-12-10T09:04:14.000Z</time>
      </trkpt>
      <trkpt lat="47.48345" lon="6.8164">
        <ele>364.8</ele>
        <time>2017-12-10T09:04:15.000Z</time>
      </trkpt>
      <trkpt lat="47.48344" lon="6.81646">
        <ele>365.4</ele>
        <time>2017-12-10T09:04:36.000Z</time>
      </trkpt>
      <trkpt lat="47.48343" lon="6.81646">
        <ele>365.5</ele>
        <time>2017-12-10T09:04:37.000Z</time>
      </trkpt>
      <trkpt lat="47.48342" lon="6.8164">
        <ele>366</ele>
        <time>2017-12-10T09:05:01.000Z</time>
      </trkpt>
      <trkpt lat="47.48342" lon="6.81638">
        <ele>366.2</ele>
        <time>2017-12-10T09:05:02.000Z</time>
      </trkpt>
      <trkpt lat="47.48344" lon="6.81633">
        <ele>366.2</ele>
        <time>2017-12-10T09:05:07.000Z</time>
      </trkpt>
      <trkpt lat="47.48344" lon="6.81632">
        <ele>366.1</ele>
        <time>2017-12-10T09:05:08.000Z</time>
      </trkpt>
      <trkpt lat="47.48342" lon="6.81638">
        <ele>365.6</ele>
        <time>2017-12-10T09:05:21.000Z</time>
      </trkpt>
      <trkpt lat="47.48341" lon="6.81637">
        <ele>365.7</ele>
        <time>2017-12-10T09:05:22.000Z</time>
      </trkpt>
      <trkpt lat="47.48342" lon="6.81642">
        <ele>366.7</ele>
        <time>2017-12-10T09:05:38.000Z</time>
      </trkpt>
      <trkpt lat="47.48342" lon="6.81644">
        <ele>366.8</ele>
        <time>2017-12-10T09:05:39.000Z</time>
      </trkpt>
      <trkpt lat="47.48346" lon="6.81643">
        <ele>367.6</ele>
        <time>2017-12-10T09:05:55.000Z</time>
      </trkpt>
      <trkpt lat="47.48347" lon="6.81642">
        <ele>367.8</ele>
        <time>2017-12-10T09:05:56.000Z</time>
      </trkpt>
      <trkpt lat="47.48346" lon="6.81636">
        <ele>369</ele>
        <time>2017-12-10T09:06:16.000Z</time>
      </trkpt>
      <trkpt lat="47.48346" lon="6.81635">
        <ele>369.1</ele>
        <time>2017-12-10T09:06:17.000Z</time>
      </trkpt>
      <trkpt lat="47.48346" lon="6.81629">
        <ele>369.3</ele>
        <time>2017-12-10T09:06:19.000Z</time>
      </trkpt>
      <trkpt lat="47.48345" lon="6.81626">
        <ele>369.4</ele>
        <time>2017-12-10T09:06:20.000Z</time>
      </trkpt>
      <trkpt lat="47.48344" lon="6.8162">
        <ele>369</ele>
        <time>2017-12-10T09:06:34.000Z</time>
      </trkpt>
      <trkpt lat="47.48343" lon="6.8162">
        <ele>368.9</ele>
        <time>2017-12-10T09:06:35.000Z</time>
      </trkpt>
      <trkpt lat="47.4834" lon="6.81616">
        <ele>368.8</ele>
        <time>2017-12-10T09:07:16.000Z</time>
      </trkpt>
      <trkpt lat="47.48338" lon="6.81615">
        <ele>368.7</ele>
        <time>2017-12-10T09:07:17.000Z</time>
      </trkpt>
      <trkpt lat="47.48337" lon="6.81614">
        <ele>368.6</ele>
        <time>2017-12-10T09:07:18.000Z</time>
      </trkpt>
      <trkpt lat="47.48333" lon="6.81611">
        <ele>368.5</ele>
        <time>2017-12-10T09:07:19.000Z</time>
      </trkpt>
      <trkpt lat="47.48329" lon="6.8161">
        <ele>368.5</ele>
        <time>2017-12-10T09:07:20.000Z</time>
      </trkpt>
      <trkpt lat="47.48328" lon="6.81609">
        <ele>368.5</ele>
        <time>2017-12-10T09:07:21.000Z</time>
      </trkpt>
      <trkpt lat="47.48326" lon="6.81605">
        <ele>368.5</ele>
        <time>2017-12-10T09:07:23.000Z</time>
      </trkpt>
      <trkpt lat="47.48325" lon="6.81603">
        <ele>368.4</ele>
        <time>2017-12-10T09:07:24.000Z</time>
      </trkpt>
      <trkpt lat="47.48323" lon="6.816">
        <ele>368.4</ele>
        <time>2017-12-10T09:07:25.000Z</time>
      </trkpt>
      <trkpt lat="47.48321" lon="6.81598">
        <ele>368.4</ele>
        <time>2017-12-10T09:07:26.000Z</time>
      </trkpt>
      <trkpt lat="47.48318" lon="6.81594">
        <ele>368.3</ele>
        <time>2017-12-10T09:07:27.000Z</time>
      </trkpt>
      <trkpt lat="47.48317" lon="6.81592">
        <ele>368.2</ele>
        <time>2017-12-10T09:07:28.000Z</time>
      </trkpt>
      <trkpt lat="47.48313" lon="6.81586">
        <ele>368.2</ele>
        <time>2017-12-10T09:07:29.000Z</time>
      </trkpt>
      <trkpt lat="47.48311" lon="6.81583">
        <ele>368.2</ele>
        <time>2017-12-10T09:07:30.000Z</time>
      </trkpt>
      <trkpt lat="47.4831" lon="6.81579">
        <ele>368.4</ele>
        <time>2017-12-10T09:07:31.000Z</time>
      </trkpt>
      <trkpt lat="47.48308" lon="6.81573">
        <ele>368.5</ele>
        <time>2017-12-10T09:07:32.000Z</time>
      </trkpt>
      <trkpt lat="47.48306" lon="6.81569">
        <ele>368.7</ele>
        <time>2017-12-10T09:07:33.000Z</time>
      </trkpt>
      <trkpt lat="47.48305" lon="6.81565">
        <ele>368.9</ele>
        <time>2017-12-10T09:07:34.000Z</time>
      </trkpt>
      <trkpt lat="47.48304" lon="6.81562">
        <ele>369</ele>
        <time>2017-12-10T09:07:35.000Z</time>
      </trkpt>
      <trkpt lat="47.48303" lon="6.81558">
        <ele>369.1</ele>
        <time>2017-12-10T09:07:36.000Z</time>
      </trkpt>
      <trkpt lat="47.48302" lon="6.81553">
        <ele>369.3</ele>
        <time>2017-12-10T09:07:37.000Z</time>
      </trkpt>
      <trkpt lat="47.48301" lon="6.81549">
        <ele>369.4</ele>
        <time>2017-12-10T09:07:38.000Z</time>
      </trkpt>
      <trkpt lat="47.483" lon="6.81545">
        <ele>369.5</ele>
        <time>2017-12-10T09:07:39.000Z</time>
      </trkpt>
      <trkpt lat="47.483" lon="6.81541">
        <ele>369.6</ele>
        <time>2017-12-10T09:07:40.000Z</time>
      </trkpt>
      <trkpt lat="47.48299" lon="6.81537">
        <ele>369.6</ele>
        <time>2017-12-10T09:07:41.000Z</time>
      </trkpt>
      <trkpt lat="47.48299" lon="6.81533">
        <ele>369.5</ele>
        <time>2017-12-10T09:07:42.000Z</time>
      </trkpt>
      <trkpt lat="47.48299" lon="6.81529">
        <ele>369.4</ele>
        <time>2017-12-10T09:07:43.000Z</time>
      </trkpt>
      <trkpt lat="47.48299" lon="6.81525">
        <ele>369.4</ele>
        <time>2017-12-10T09:07:44.000Z</time>
      </trkpt>
      <trkpt lat="47.48299" lon="6.81521">
        <ele>369.3</ele>
        <time>2017-12-10T09:07:45.000Z</time>
      </trkpt>
      <trkpt lat="47.48298" lon="6.81518">
        <ele>369.2</ele>
        <time>2017-12-10T09:07:46.000Z</time>
      </trkpt>
      <trkpt lat="47.48298" lon="6.81514">
        <ele>369.1</ele>
        <time>2017-12-10T09:07:47.000Z</time>
      </trkpt>
      <trkpt lat="47.48297" lon="6.8151">
        <ele>369</ele>
        <time>2017-12-10T09:07:48.000Z</time>
      </trkpt>
      <trkpt lat="47.48297" lon="6.81505">
        <ele>369</ele>
        <time>2017-12-10T09:07:49.000Z</time>
      </trkpt>
      <trkpt lat="47.48296" lon="6.81501">
        <ele>368.9</ele>
        <time>2017-12-10T09:07:50.000Z</time>
      </trkpt>
      <trkpt lat="47.48296" lon="6.81497">
        <ele>368.9</ele>
        <time>2017-12-10T09:07:51.000Z</time>
      </trkpt>
      <trkpt lat="47.48295" lon="6.81494">
        <ele>368.9</ele>
        <time>2017-12-10T09:07:52.000Z</time>
      </trkpt>
      <trkpt lat="47.48294" lon="6.81491">
        <ele>369</ele>
        <time>2017-12-10T09:07:53.000Z</time>
      </trkpt>
      <trkpt lat="47.48293" lon="6.81487">
        <ele>368.8</ele>
        <time>2017-12-10T09:07:54.000Z</time>
      </trkpt>
      <trkpt lat="47.48289" lon="6.81483">
        <ele>368.7</ele>
        <time>2017-12-10T09:07:56.000Z</time>
      </trkpt>
      <trkpt lat="47.48287" lon="6.8148">
        <ele>368.6</ele>
        <time>2017-12-10T09:07:57.000Z</time>
      </trkpt>
      <trkpt lat="47.48285" lon="6.81475">
        <ele>367.8</ele>
        <time>2017-12-10T09:07:58.000Z</time>
      </trkpt>
      <trkpt lat="47.48282" lon="6.8147">
        <ele>367</ele>
        <time>2017-12-10T09:07:59.000Z</time>
      </trkpt>
      <trkpt lat="47.48281" lon="6.81467">
        <ele>367</ele>
        <time>2017-12-10T09:08:00.000Z</time>
      </trkpt>
      <trkpt lat="47.4828" lon="6.81464">
        <ele>367</ele>
        <time>2017-12-10T09:08:01.000Z</time>
      </trkpt>
      <trkpt lat="47.48279" lon="6.8146">
        <ele>367</ele>
        <time>2017-12-10T09:08:02.000Z</time>
      </trkpt>
      <trkpt lat="47.48279" lon="6.81455">
        <ele>367</ele>
        <time>2017-12-10T09:08:03.000Z</time>
      </trkpt>
      <trkpt lat="47.48279" lon="6.81451">
        <ele>367.1</ele>
        <time>2017-12-10T09:08:04.000Z</time>
      </trkpt>
      <trkpt lat="47.48279" lon="6.81446">
        <ele>367.2</ele>
        <time>2017-12-10T09:08:05.000Z</time>
      </trkpt>
      <trkpt lat="47.48279" lon="6.81441">
        <ele>367.3</ele>
        <time>2017-12-10T09:08:06.000Z</time>
      </trkpt>
      <trkpt lat="47.48279" lon="6.81435">
        <ele>367.5</ele>
        <time>2017-12-10T09:08:07.000Z</time>
      </trkpt>
      <trkpt lat="47.48278" lon="6.81429">
        <ele>369.1</ele>
        <time>2017-12-10T09:08:08.000Z</time>
      </trkpt>
      <trkpt lat="47.48277" lon="6.81423">
        <ele>369.3</ele>
        <time>2017-12-10T09:08:09.000Z</time>
      </trkpt>
      <trkpt lat="47.48276" lon="6.81416">
        <ele>370.7</ele>
        <time>2017-12-10T09:08:10.000Z</time>
      </trkpt>
      <trkpt lat="47.48275" lon="6.81409">
        <ele>371.1</ele>
        <time>2017-12-10T09:08:11.000Z</time>
      </trkpt>
      <trkpt lat="47.48275" lon="6.81404">
        <ele>371.2</ele>
        <time>2017-12-10T09:08:12.000Z</time>
      </trkpt>
      <trkpt lat="47.48274" lon="6.81398">
        <ele>371.3</ele>
        <time>2017-12-10T09:08:13.000Z</time>
      </trkpt>
      <trkpt lat="47.48273" lon="6.81392">
        <ele>371.5</ele>
        <time>2017-12-10T09:08:14.000Z</time>
      </trkpt>
      <trkpt lat="47.48272" lon="6.81387">
        <ele>371.5</ele>
        <time>2017-12-10T09:08:15.000Z</time>
      </trkpt>
      <trkpt lat="47.4827" lon="6.81384">
        <ele>371.5</ele>
        <time>2017-12-10T09:08:16.000Z</time>
      </trkpt>
      <trkpt lat="47.48268" lon="6.81384">
        <ele>371.5</ele>
        <time>2017-12-10T09:08:17.000Z</time>
      </trkpt>
      <trkpt lat="47.48265" lon="6.81385">
        <ele>371.4</ele>
        <time>2017-12-10T09:08:19.000Z</time>
      </trkpt>
      <trkpt lat="47.48262" lon="6.81389">
        <ele>371.4</ele>
        <time>2017-12-10T09:08:20.000Z</time>
      </trkpt>
      <trkpt lat="47.4826" lon="6.81394">
        <ele>371.4</ele>
        <time>2017-12-10T09:08:21.000Z</time>
      </trkpt>
      <trkpt lat="47.48259" lon="6.81397">
        <ele>371.4</ele>
        <time>2017-12-10T09:08:22.000Z</time>
      </trkpt>
      <trkpt lat="47.48258" lon="6.814">
        <ele>371.4</ele>
        <time>2017-12-10T09:08:23.000Z</time>
      </trkpt>
      <trkpt lat="47.48256" lon="6.81403">
        <ele>371.4</ele>
        <time>2017-12-10T09:08:24.000Z</time>
      </trkpt>
      <trkpt lat="47.48255" lon="6.81407">
        <ele>371.3</ele>
        <time>2017-12-10T09:08:25.000Z</time>
      </trkpt>
      <trkpt lat="47.48253" lon="6.8141">
        <ele>371.3</ele>
        <time>2017-12-10T09:08:26.000Z</time>
      </trkpt>
      <trkpt lat="47.48251" lon="6.81413">
        <ele>371.3</ele>
        <time>2017-12-10T09:08:27.000Z</time>
      </trkpt>
      <trkpt lat="47.48248" lon="6.81416">
        <ele>371.3</ele>
        <time>2017-12-10T09:08:28.000Z</time>
      </trkpt>
      <trkpt lat="47.48245" lon="6.8142">
        <ele>371.3</ele>
        <time>2017-12-10T09:08:29.000Z</time>
      </trkpt>
      <trkpt lat="47.48243" lon="6.81423">
        <ele>371.4</ele>
        <time>2017-12-10T09:08:30.000Z</time>
      </trkpt>
      <trkpt lat="47.4824" lon="6.81425">
        <ele>371.4</ele>
        <time>2017-12-10T09:08:31.000Z</time>
      </trkpt>
      <trkpt lat="47.48237" lon="6.81425">
        <ele>371.5</ele>
        <time>2017-12-10T09:08:32.000Z</time>
      </trkpt>
      <trkpt lat="47.48235" lon="6.81427">
        <ele>371.4</ele>
        <time>2017-12-10T09:08:33.000Z</time>
      </trkpt>
      <trkpt lat="47.48233" lon="6.81429">
        <ele>371.4</ele>
        <time>2017-12-10T09:08:34.000Z</time>
      </trkpt>
      <trkpt lat="47.4823" lon="6.8143">
        <ele>371.4</ele>
        <time>2017-12-10T09:08:35.000Z</time>
      </trkpt>
      <trkpt lat="47.48226" lon="6.81432">
        <ele>371.3</ele>
        <time>2017-12-10T09:08:36.000Z</time>
      </trkpt>
      <trkpt lat="47.48222" lon="6.81435">
        <ele>371.3</ele>
        <time>2017-12-10T09:08:37.000Z</time>
      </trkpt>
      <trkpt lat="47.4822" lon="6.81436">
        <ele>371.2</ele>
        <time>2017-12-10T09:08:38.000Z</time>
      </trkpt>
      <trkpt lat="47.48215" lon="6.81438">
        <ele>371.2</ele>
        <time>2017-12-10T09:08:39.000Z</time>
      </trkpt>
      <trkpt lat="47.48214" lon="6.8144">
        <ele>371.1</ele>
        <time>2017-12-10T09:08:40.000Z</time>
      </trkpt>
      <trkpt lat="47.48212" lon="6.81442">
        <ele>371.1</ele>
        <time>2017-12-10T09:08:41.000Z</time>
      </trkpt>
      <trkpt lat="47.48209" lon="6.81444">
        <ele>371.1</ele>
        <time>2017-12-10T09:08:42.000Z</time>
      </trkpt>
      <trkpt lat="47.48207" lon="6.81446">
        <ele>371</ele>
        <time>2017-12-10T09:08:43.000Z</time>
      </trkpt>
      <trkpt lat="47.48205" lon="6.81447">
        <ele>370.9</ele>
        <time>2017-12-10T09:08:44.000Z</time>
      </trkpt>
      <trkpt lat="47.48203" lon="6.81446">
        <ele>370.8</ele>
        <time>2017-12-10T09:08:45.000Z</time>
      </trkpt>
      <trkpt lat="47.482" lon="6.81445">
        <ele>370.9</ele>
        <time>2017-12-10T09:08:46.000Z</time>
      </trkpt>
      <trkpt lat="47.48198" lon="6.81446">
        <ele>371</ele>
        <time>2017-12-10T09:08:47.000Z</time>
      </trkpt>
      <trkpt lat="47.48194" lon="6.81447">
        <ele>371</ele>
        <time>2017-12-10T09:08:50.000Z</time>
      </trkpt>
      <trkpt lat="47.48192" lon="6.81447">
        <ele>371</ele>
        <time>2017-12-10T09:08:51.000Z</time>
      </trkpt>
      <trkpt lat="47.48187" lon="6.81445">
        <ele>370.9</ele>
        <time>2017-12-10T09:08:52.000Z</time>
      </trkpt>
      <trkpt lat="47.48186" lon="6.81444">
        <ele>371</ele>
        <time>2017-12-10T09:08:53.000Z</time>
      </trkpt>
      <trkpt lat="47.48181" lon="6.81443">
        <ele>370.9</ele>
        <time>2017-12-10T09:08:54.000Z</time>
      </trkpt>
      <trkpt lat="47.4818" lon="6.81443">
        <ele>370.8</ele>
        <time>2017-12-10T09:08:55.000Z</time>
      </trkpt>
      <trkpt lat="47.48176" lon="6.8144">
        <ele>370.7</ele>
        <time>2017-12-10T09:08:57.000Z</time>
      </trkpt>
      <trkpt lat="47.48175" lon="6.8144">
        <ele>370.6</ele>
        <time>2017-12-10T09:08:58.000Z</time>
      </trkpt>
      <trkpt lat="47.48171" lon="6.8144">
        <ele>370.4</ele>
        <time>2017-12-10T09:09:00.000Z</time>
      </trkpt>
      <trkpt lat="47.48169" lon="6.81439">
        <ele>370.4</ele>
        <time>2017-12-10T09:09:01.000Z</time>
      </trkpt>
      <trkpt lat="47.48166" lon="6.81439">
        <ele>370.4</ele>
        <time>2017-12-10T09:09:03.000Z</time>
      </trkpt>
      <trkpt lat="47.48165" lon="6.81439">
        <ele>370.4</ele>
        <time>2017-12-10T09:09:04.000Z</time>
      </trkpt>
      <trkpt lat="47.48161" lon="6.81438">
        <ele>370.3</ele>
        <time>2017-12-10T09:09:06.000Z</time>
      </trkpt>
      <trkpt lat="47.4816" lon="6.81438">
        <ele>370.3</ele>
        <time>2017-12-10T09:09:07.000Z</time>
      </trkpt>
      <trkpt lat="47.48156" lon="6.81438">
        <ele>370.3</ele>
        <time>2017-12-10T09:09:09.000Z</time>
      </trkpt>
      <trkpt lat="47.48155" lon="6.81437">
        <ele>370.5</ele>
        <time>2017-12-10T09:09:10.000Z</time>
      </trkpt>
      <trkpt lat="47.48151" lon="6.81435">
        <ele>370.4</ele>
        <time>2017-12-10T09:09:14.000Z</time>
      </trkpt>
      <trkpt lat="47.4815" lon="6.81434">
        <ele>370.4</ele>
        <time>2017-12-10T09:09:15.000Z</time>
      </trkpt>
      <trkpt lat="47.48146" lon="6.81434">
        <ele>370.4</ele>
        <time>2017-12-10T09:09:18.000Z</time>
      </trkpt>
      <trkpt lat="47.48144" lon="6.81434">
        <ele>370.4</ele>
        <time>2017-12-10T09:09:19.000Z</time>
      </trkpt>
      <trkpt lat="47.48141" lon="6.81434">
        <ele>370.5</ele>
        <time>2017-12-10T09:09:21.000Z</time>
      </trkpt>
      <trkpt lat="47.48139" lon="6.81433">
        <ele>370.7</ele>
        <time>2017-12-10T09:09:22.000Z</time>
      </trkpt>
      <trkpt lat="47.48135" lon="6.81434">
        <ele>370.4</ele>
        <time>2017-12-10T09:09:30.000Z</time>
      </trkpt>
      <trkpt lat="47.48134" lon="6.81434">
        <ele>370.2</ele>
        <time>2017-12-10T09:09:31.000Z</time>
      </trkpt>
      <trkpt lat="47.48132" lon="6.81434">
        <ele>370</ele>
        <time>2017-12-10T09:09:32.000Z</time>
      </trkpt>
      <trkpt lat="47.48128" lon="6.81434">
        <ele>369.9</ele>
        <time>2017-12-10T09:09:33.000Z</time>
      </trkpt>
      <trkpt lat="47.48125" lon="6.81435">
        <ele>369.6</ele>
        <time>2017-12-10T09:09:35.000Z</time>
      </trkpt>
      <trkpt lat="47.48123" lon="6.81434">
        <ele>369.4</ele>
        <time>2017-12-10T09:09:36.000Z</time>
      </trkpt>
      <trkpt lat="47.4812" lon="6.81435">
        <ele>368.7</ele>
        <time>2017-12-10T09:09:38.000Z</time>
      </trkpt>
      <trkpt lat="47.48119" lon="6.81436">
        <ele>368.3</ele>
        <time>2017-12-10T09:09:39.000Z</time>
      </trkpt>
      <trkpt lat="47.48116" lon="6.81436">
        <ele>367.6</ele>
        <time>2017-12-10T09:09:42.000Z</time>
      </trkpt>
      <trkpt lat="47.48113" lon="6.81436">
        <ele>367.5</ele>
        <time>2017-12-10T09:09:43.000Z</time>
      </trkpt>
      <trkpt lat="47.48109" lon="6.81437">
        <ele>367.2</ele>
        <time>2017-12-10T09:09:46.000Z</time>
      </trkpt>
      <trkpt lat="47.48107" lon="6.81438">
        <ele>367.3</ele>
        <time>2017-12-10T09:09:47.000Z</time>
      </trkpt>
      <trkpt lat="47.48104" lon="6.81436">
        <ele>367.3</ele>
        <time>2017-12-10T09:09:50.000Z</time>
      </trkpt>
      <trkpt lat="47.48103" lon="6.81434">
        <ele>367.4</ele>
        <time>2017-12-10T09:09:51.000Z</time>
      </trkpt>
      <trkpt lat="47.48102" lon="6.81433">
        <ele>367.5</ele>
        <time>2017-12-10T09:09:52.000Z</time>
      </trkpt>
      <trkpt lat="47.48097" lon="6.81432">
        <ele>367.5</ele>
        <time>2017-12-10T09:09:53.000Z</time>
      </trkpt>
      <trkpt lat="47.48092" lon="6.81432">
        <ele>367.7</ele>
        <time>2017-12-10T09:09:54.000Z</time>
      </trkpt>
      <trkpt lat="47.4809" lon="6.81431">
        <ele>367.8</ele>
        <time>2017-12-10T09:09:55.000Z</time>
      </trkpt>
      <trkpt lat="47.48086" lon="6.8143">
        <ele>368.2</ele>
        <time>2017-12-10T09:09:58.000Z</time>
      </trkpt>
      <trkpt lat="47.48084" lon="6.8143">
        <ele>368.3</ele>
        <time>2017-12-10T09:09:59.000Z</time>
      </trkpt>
      <trkpt lat="47.48081" lon="6.81428">
        <ele>368.6</ele>
        <time>2017-12-10T09:10:01.000Z</time>
      </trkpt>
      <trkpt lat="47.48079" lon="6.81427">
        <ele>368.7</ele>
        <time>2017-12-10T09:10:02.000Z</time>
      </trkpt>
      <trkpt lat="47.48077" lon="6.81426">
        <ele>368.8</ele>
        <time>2017-12-10T09:10:03.000Z</time>
      </trkpt>
      <trkpt lat="47.48074" lon="6.81424">
        <ele>369</ele>
        <time>2017-12-10T09:10:04.000Z</time>
      </trkpt>
      <trkpt lat="47.4807" lon="6.81422">
        <ele>369.5</ele>
        <time>2017-12-10T09:10:06.000Z</time>
      </trkpt>
      <trkpt lat="47.48069" lon="6.81422">
        <ele>369.5</ele>
        <time>2017-12-10T09:10:07.000Z</time>
      </trkpt>
      <trkpt lat="47.48065" lon="6.8142">
        <ele>370.1</ele>
        <time>2017-12-10T09:10:10.000Z</time>
      </trkpt>
      <trkpt lat="47.48064" lon="6.81419">
        <ele>370.3</ele>
        <time>2017-12-10T09:10:11.000Z</time>
      </trkpt>
      <trkpt lat="47.48062" lon="6.81422">
        <ele>370.7</ele>
        <time>2017-12-10T09:10:12.000Z</time>
      </trkpt>
      <trkpt lat="47.48058" lon="6.81426">
        <ele>371.1</ele>
        <time>2017-12-10T09:10:13.000Z</time>
      </trkpt>
      <trkpt lat="47.48055" lon="6.81429">
        <ele>372.4</ele>
        <time>2017-12-10T09:10:16.000Z</time>
      </trkpt>
      <trkpt lat="47.48054" lon="6.81429">
        <ele>372.9</ele>
        <time>2017-12-10T09:10:17.000Z</time>
      </trkpt>
      <trkpt lat="47.4805" lon="6.81431">
        <ele>373.5</ele>
        <time>2017-12-10T09:10:19.000Z</time>
      </trkpt>
      <trkpt lat="47.4805" lon="6.81432">
        <ele>373.9</ele>
        <time>2017-12-10T09:10:20.000Z</time>
      </trkpt>
      <trkpt lat="47.48047" lon="6.81438">
        <ele>377.2</ele>
        <time>2017-12-10T09:10:41.000Z</time>
      </trkpt>
      <trkpt lat="47.48047" lon="6.81438">
        <ele>377.2</ele>
        <time>2017-12-10T09:10:42.000Z</time>
      </trkpt>
      <trkpt lat="47.48045" lon="6.81443">
        <ele>379.2</ele>
        <time>2017-12-10T09:10:46.000Z</time>
      </trkpt>
      <trkpt lat="47.48043" lon="6.81451">
        <ele>379.7</ele>
        <time>2017-12-10T09:10:47.000Z</time>
      </trkpt>
      <trkpt lat="47.48039" lon="6.81456">
        <ele>380.2</ele>
        <time>2017-12-10T09:10:48.000Z</time>
      </trkpt>
      <trkpt lat="47.48036" lon="6.81457">
        <ele>381.4</ele>
        <time>2017-12-10T09:10:50.000Z</time>
      </trkpt>
      <trkpt lat="47.48034" lon="6.81457">
        <ele>382</ele>
        <time>2017-12-10T09:10:51.000Z</time>
      </trkpt>
      <trkpt lat="47.4803" lon="6.81458">
        <ele>385.1</ele>
        <time>2017-12-10T09:10:57.000Z</time>
      </trkpt>
      <trkpt lat="47.48029" lon="6.81459">
        <ele>385.6</ele>
        <time>2017-12-10T09:10:58.000Z</time>
      </trkpt>
      <trkpt lat="47.48025" lon="6.81462">
        <ele>386</ele>
        <time>2017-12-10T09:10:59.000Z</time>
      </trkpt>
      <trkpt lat="47.48021" lon="6.81462">
        <ele>386.3</ele>
        <time>2017-12-10T09:11:00.000Z</time>
      </trkpt>
      <trkpt lat="47.48018" lon="6.81464">
        <ele>387</ele>
        <time>2017-12-10T09:11:02.000Z</time>
      </trkpt>
      <trkpt lat="47.48017" lon="6.81463">
        <ele>387.3</ele>
        <time>2017-12-10T09:11:03.000Z</time>
      </trkpt>
      <trkpt lat="47.48014" lon="6.81461">
        <ele>388</ele>
        <time>2017-12-10T09:11:06.000Z</time>
      </trkpt>
      <trkpt lat="47.48012" lon="6.81462">
        <ele>388.3</ele>
        <time>2017-12-10T09:11:07.000Z</time>
      </trkpt>
      <trkpt lat="47.48009" lon="6.8146">
        <ele>390</ele>
        <time>2017-12-10T09:11:11.000Z</time>
      </trkpt>
      <trkpt lat="47.48007" lon="6.8146">
        <ele>390.2</ele>
        <time>2017-12-10T09:11:12.000Z</time>
      </trkpt>
      <trkpt lat="47.48003" lon="6.8146">
        <ele>390.3</ele>
        <time>2017-12-10T09:11:16.000Z</time>
      </trkpt>
      <trkpt lat="47.48003" lon="6.8146">
        <ele>390.3</ele>
        <time>2017-12-10T09:11:17.000Z</time>
      </trkpt>
      <trkpt lat="47.47999" lon="6.81457">
        <ele>390.3</ele>
        <time>2017-12-10T09:11:18.000Z</time>
      </trkpt>
      <trkpt lat="47.47996" lon="6.81456">
        <ele>390.3</ele>
        <time>2017-12-10T09:11:19.000Z</time>
      </trkpt>
      <trkpt lat="47.47993" lon="6.81454">
        <ele>390.3</ele>
        <time>2017-12-10T09:11:23.000Z</time>
      </trkpt>
      <trkpt lat="47.47991" lon="6.81455">
        <ele>390.2</ele>
        <time>2017-12-10T09:11:24.000Z</time>
      </trkpt>
      <trkpt lat="47.47989" lon="6.81456">
        <ele>390</ele>
        <time>2017-12-10T09:11:25.000Z</time>
      </trkpt>
      <trkpt lat="47.47985" lon="6.81456">
        <ele>389.9</ele>
        <time>2017-12-10T09:11:26.000Z</time>
      </trkpt>
      <trkpt lat="47.47981" lon="6.81457">
        <ele>390</ele>
        <time>2017-12-10T09:11:31.000Z</time>
      </trkpt>
      <trkpt lat="47.47977" lon="6.81457">
        <ele>389.9</ele>
        <time>2017-12-10T09:11:32.000Z</time>
      </trkpt>
      <trkpt lat="47.47973" lon="6.81458">
        <ele>389.8</ele>
        <time>2017-12-10T09:11:34.000Z</time>
      </trkpt>
      <trkpt lat="47.47969" lon="6.81459">
        <ele>389.8</ele>
        <time>2017-12-10T09:11:35.000Z</time>
      </trkpt>
      <trkpt lat="47.47965" lon="6.8146">
        <ele>390</ele>
        <time>2017-12-10T09:11:40.000Z</time>
      </trkpt>
      <trkpt lat="47.47965" lon="6.81462">
        <ele>390</ele>
        <time>2017-12-10T09:11:41.000Z</time>
      </trkpt>
      <trkpt lat="47.47964" lon="6.81464">
        <ele>390</ele>
        <time>2017-12-10T09:11:42.000Z</time>
      </trkpt>
      <trkpt lat="47.47963" lon="6.8147">
        <ele>389.9</ele>
        <time>2017-12-10T09:11:43.000Z</time>
      </trkpt>
      <trkpt lat="47.4796" lon="6.81474">
        <ele>389.9</ele>
        <time>2017-12-10T09:11:53.000Z</time>
      </trkpt>
      <trkpt lat="47.47957" lon="6.81476">
        <ele>390</ele>
        <time>2017-12-10T09:11:54.000Z</time>
      </trkpt>
      <trkpt lat="47.47955" lon="6.81478">
        <ele>390</ele>
        <time>2017-12-10T09:11:55.000Z</time>
      </trkpt>
      <trkpt lat="47.47953" lon="6.81483">
        <ele>390.1</ele>
        <time>2017-12-10T09:11:56.000Z</time>
      </trkpt>
      <trkpt lat="47.47951" lon="6.81488">
        <ele>390.4</ele>
        <time>2017-12-10T09:11:57.000Z</time>
      </trkpt>
      <trkpt lat="47.47948" lon="6.81493">
        <ele>390.5</ele>
        <time>2017-12-10T09:11:58.000Z</time>
      </trkpt>
      <trkpt lat="47.47946" lon="6.81501">
        <ele>390.8</ele>
        <time>2017-12-10T09:11:59.000Z</time>
      </trkpt>
      <trkpt lat="47.47944" lon="6.81506">
        <ele>391</ele>
        <time>2017-12-10T09:12:01.000Z</time>
      </trkpt>
      <trkpt lat="47.47942" lon="6.8151">
        <ele>391.1</ele>
        <time>2017-12-10T09:12:02.000Z</time>
      </trkpt>
      <trkpt lat="47.47941" lon="6.81514">
        <ele>391.3</ele>
        <time>2017-12-10T09:12:04.000Z</time>
      </trkpt>
      <trkpt lat="47.47941" lon="6.8152">
        <ele>391.3</ele>
        <time>2017-12-10T09:12:05.000Z</time>
      </trkpt>
      <trkpt lat="47.47939" lon="6.81526">
        <ele>391.4</ele>
        <time>2017-12-10T09:12:06.000Z</time>
      </trkpt>
      <trkpt lat="47.47938" lon="6.81528">
        <ele>391.4</ele>
        <time>2017-12-10T09:12:07.000Z</time>
      </trkpt>
      <trkpt lat="47.47937" lon="6.81531">
        <ele>391.4</ele>
        <time>2017-12-10T09:12:08.000Z</time>
      </trkpt>
      <trkpt lat="47.47935" lon="6.81539">
        <ele>391.3</ele>
        <time>2017-12-10T09:12:09.000Z</time>
      </trkpt>
      <trkpt lat="47.47933" lon="6.81548">
        <ele>391.2</ele>
        <time>2017-12-10T09:12:10.000Z</time>
      </trkpt>
      <trkpt lat="47.4793" lon="6.81559">
        <ele>391.1</ele>
        <time>2017-12-10T09:12:11.000Z</time>
      </trkpt>
      <trkpt lat="47.47928" lon="6.81569">
        <ele>390.9</ele>
        <time>2017-12-10T09:12:12.000Z</time>
      </trkpt>
      <trkpt lat="47.47926" lon="6.81578">
        <ele>390.7</ele>
        <time>2017-12-10T09:12:13.000Z</time>
      </trkpt>
      <trkpt lat="47.47925" lon="6.81587">
        <ele>390.6</ele>
        <time>2017-12-10T09:12:14.000Z</time>
      </trkpt>
      <trkpt lat="47.47923" lon="6.81596">
        <ele>390.4</ele>
        <time>2017-12-10T09:12:15.000Z</time>
      </trkpt>
      <trkpt lat="47.47922" lon="6.81605">
        <ele>390.2</ele>
        <time>2017-12-10T09:12:16.000Z</time>
      </trkpt>
      <trkpt lat="47.4792" lon="6.81613">
        <ele>390</ele>
        <time>2017-12-10T09:12:17.000Z</time>
      </trkpt>
      <trkpt lat="47.47919" lon="6.81618">
        <ele>389.7</ele>
        <time>2017-12-10T09:12:19.000Z</time>
      </trkpt>
      <trkpt lat="47.47919" lon="6.81622">
        <ele>389.5</ele>
        <time>2017-12-10T09:12:20.000Z</time>
      </trkpt>
      <trkpt lat="47.47919" lon="6.81627">
        <ele>389.4</ele>
        <time>2017-12-10T09:12:22.000Z</time>
      </trkpt>
      <trkpt lat="47.47919" lon="6.8163">
        <ele>389.3</ele>
        <time>2017-12-10T09:12:23.000Z</time>
      </trkpt>
      <trkpt lat="47.47917" lon="6.81632">
        <ele>389.2</ele>
        <time>2017-12-10T09:12:26.000Z</time>
      </trkpt>
      <trkpt lat="47.47914" lon="6.81638">
        <ele>389.2</ele>
        <time>2017-12-10T09:12:27.000Z</time>
      </trkpt>
      <trkpt lat="47.47913" lon="6.81641">
        <ele>389.3</ele>
        <time>2017-12-10T09:12:28.000Z</time>
      </trkpt>
      <trkpt lat="47.4791" lon="6.81646">
        <ele>389.3</ele>
        <time>2017-12-10T09:12:29.000Z</time>
      </trkpt>
      <trkpt lat="47.47906" lon="6.81651">
        <ele>389.3</ele>
        <time>2017-12-10T09:12:30.000Z</time>
      </trkpt>
      <trkpt lat="47.47902" lon="6.81655">
        <ele>389.4</ele>
        <time>2017-12-10T09:12:31.000Z</time>
      </trkpt>
      <trkpt lat="47.47899" lon="6.81657">
        <ele>389.4</ele>
        <time>2017-12-10T09:12:32.000Z</time>
      </trkpt>
      <trkpt lat="47.47897" lon="6.81659">
        <ele>389.4</ele>
        <time>2017-12-10T09:12:33.000Z</time>
      </trkpt>
      <trkpt lat="47.47895" lon="6.8166">
        <ele>389.5</ele>
        <time>2017-12-10T09:12:34.000Z</time>
      </trkpt>
      <trkpt lat="47.47893" lon="6.81663">
        <ele>389.6</ele>
        <time>2017-12-10T09:12:35.000Z</time>
      </trkpt>
      <trkpt lat="47.47891" lon="6.81668">
        <ele>389.8</ele>
        <time>2017-12-10T09:12:36.000Z</time>
      </trkpt>
      <trkpt lat="47.47889" lon="6.81673">
        <ele>389.9</ele>
        <time>2017-12-10T09:12:37.000Z</time>
      </trkpt>
      <trkpt lat="47.47889" lon="6.81676">
        <ele>390</ele>
        <time>2017-12-10T09:12:38.000Z</time>
      </trkpt>
      <trkpt lat="47.47888" lon="6.81681">
        <ele>390.1</ele>
        <time>2017-12-10T09:12:39.000Z</time>
      </trkpt>
      <trkpt lat="47.47888" lon="6.81682">
        <ele>390.2</ele>
        <time>2017-12-10T09:12:40.000Z</time>
      </trkpt>
      <trkpt lat="47.47887" lon="6.81688">
        <ele>390.3</ele>
        <time>2017-12-10T09:12:41.000Z</time>
      </trkpt>
      <trkpt lat="47.47887" lon="6.81695">
        <ele>390.4</ele>
        <time>2017-12-10T09:12:42.000Z</time>
      </trkpt>
      <trkpt lat="47.47887" lon="6.81698">
        <ele>390.5</ele>
        <time>2017-12-10T09:12:43.000Z</time>
      </trkpt>
      <trkpt lat="47.47887" lon="6.81705">
        <ele>390.6</ele>
        <time>2017-12-10T09:12:44.000Z</time>
      </trkpt>
      <trkpt lat="47.47888" lon="6.81709">
        <ele>390.7</ele>
        <time>2017-12-10T09:12:46.000Z</time>
      </trkpt>
      <trkpt lat="47.47889" lon="6.81712">
        <ele>390.7</ele>
        <time>2017-12-10T09:12:47.000Z</time>
      </trkpt>
      <trkpt lat="47.47889" lon="6.81718">
        <ele>390.9</ele>
        <time>2017-12-10T09:12:48.000Z</time>
      </trkpt>
      <trkpt lat="47.4789" lon="6.8172">
        <ele>391</ele>
        <time>2017-12-10T09:12:49.000Z</time>
      </trkpt>
      <trkpt lat="47.47892" lon="6.81722">
        <ele>391.1</ele>
        <time>2017-12-10T09:12:52.000Z</time>
      </trkpt>
      <trkpt lat="47.47895" lon="6.81725">
        <ele>391.1</ele>
        <time>2017-12-10T09:12:53.000Z</time>
      </trkpt>
      <trkpt lat="47.47897" lon="6.8173">
        <ele>390.8</ele>
        <time>2017-12-10T09:12:58.000Z</time>
      </trkpt>
      <trkpt lat="47.47897" lon="6.81732">
        <ele>390.8</ele>
        <time>2017-12-10T09:12:59.000Z</time>
      </trkpt>
      <trkpt lat="47.47898" lon="6.81738">
        <ele>390.7</ele>
        <time>2017-12-10T09:13:02.000Z</time>
      </trkpt>
      <trkpt lat="47.47898" lon="6.8174">
        <ele>390.7</ele>
        <time>2017-12-10T09:13:03.000Z</time>
      </trkpt>
      <trkpt lat="47.47899" lon="6.81744">
        <ele>390.7</ele>
        <time>2017-12-10T09:13:04.000Z</time>
      </trkpt>
      <trkpt lat="47.479" lon="6.81746">
        <ele>390.5</ele>
        <time>2017-12-10T09:13:05.000Z</time>
      </trkpt>
      <trkpt lat="47.479" lon="6.81752">
        <ele>390.3</ele>
        <time>2017-12-10T09:13:06.000Z</time>
      </trkpt>
      <trkpt lat="47.479" lon="6.81753">
        <ele>390.1</ele>
        <time>2017-12-10T09:13:07.000Z</time>
      </trkpt>
      <trkpt lat="47.47901" lon="6.81754">
        <ele>389.9</ele>
        <time>2017-12-10T09:13:08.000Z</time>
      </trkpt>
      <trkpt lat="47.47901" lon="6.8176">
        <ele>389.9</ele>
        <time>2017-12-10T09:13:09.000Z</time>
      </trkpt>
      <trkpt lat="47.47902" lon="6.81765">
        <ele>390</ele>
        <time>2017-12-10T09:13:12.000Z</time>
      </trkpt>
      <trkpt lat="47.47903" lon="6.81766">
        <ele>390.2</ele>
        <time>2017-12-10T09:13:13.000Z</time>
      </trkpt>
      <trkpt lat="47.47904" lon="6.81771">
        <ele>390.2</ele>
        <time>2017-12-10T09:13:15.000Z</time>
      </trkpt>
      <trkpt lat="47.47905" lon="6.81773">
        <ele>390.2</ele>
        <time>2017-12-10T09:13:16.000Z</time>
      </trkpt>
      <trkpt lat="47.47908" lon="6.81778">
        <ele>390.1</ele>
        <time>2017-12-10T09:13:19.000Z</time>
      </trkpt>
      <trkpt lat="47.47909" lon="6.81779">
        <ele>390</ele>
        <time>2017-12-10T09:13:20.000Z</time>
      </trkpt>
      <trkpt lat="47.47911" lon="6.81783">
        <ele>389.9</ele>
        <time>2017-12-10T09:13:21.000Z</time>
      </trkpt>
      <trkpt lat="47.47913" lon="6.81783">
        <ele>389.7</ele>
        <time>2017-12-10T09:13:22.000Z</time>
      </trkpt>
      <trkpt lat="47.47915" lon="6.81783">
        <ele>389.6</ele>
        <time>2017-12-10T09:13:23.000Z</time>
      </trkpt>
      <trkpt lat="47.47918" lon="6.81784">
        <ele>389.6</ele>
        <time>2017-12-10T09:13:24.000Z</time>
      </trkpt>
      <trkpt lat="47.4792" lon="6.81789">
        <ele>389</ele>
        <time>2017-12-10T09:13:29.000Z</time>
      </trkpt>
      <trkpt lat="47.47918" lon="6.81793">
        <ele>389.1</ele>
        <time>2017-12-10T09:13:30.000Z</time>
      </trkpt>
      <trkpt lat="47.47918" lon="6.81797">
        <ele>389.5</ele>
        <time>2017-12-10T09:13:33.000Z</time>
      </trkpt>
      <trkpt lat="47.4792" lon="6.81802">
        <ele>389.6</ele>
        <time>2017-12-10T09:13:34.000Z</time>
      </trkpt>
      <trkpt lat="47.4792" lon="6.81808">
        <ele>389.5</ele>
        <time>2017-12-10T09:13:44.000Z</time>
      </trkpt>
      <trkpt lat="47.4792" lon="6.81809">
        <ele>389.3</ele>
        <time>2017-12-10T09:13:45.000Z</time>
      </trkpt>
      <trkpt lat="47.47922" lon="6.81811">
        <ele>388.8</ele>
        <time>2017-12-10T09:13:50.000Z</time>
      </trkpt>
      <trkpt lat="47.47925" lon="6.81813">
        <ele>388.7</ele>
        <time>2017-12-10T09:13:51.000Z</time>
      </trkpt>
      <trkpt lat="47.47927" lon="6.81817">
        <ele>388.7</ele>
        <time>2017-12-10T09:13:52.000Z</time>
      </trkpt>
      <trkpt lat="47.47929" lon="6.81822">
        <ele>388.6</ele>
        <time>2017-12-10T09:13:53.000Z</time>
      </trkpt>
      <trkpt lat="47.47929" lon="6.81824">
        <ele>388.6</ele>
        <time>2017-12-10T09:13:54.000Z</time>
      </trkpt>
      <trkpt lat="47.4793" lon="6.81829">
        <ele>388.6</ele>
        <time>2017-12-10T09:13:55.000Z</time>
      </trkpt>
      <trkpt lat="47.47929" lon="6.81834">
        <ele>388.7</ele>
        <time>2017-12-10T09:13:56.000Z</time>
      </trkpt>
      <trkpt lat="47.47928" lon="6.81835">
        <ele>388.7</ele>
        <time>2017-12-10T09:13:57.000Z</time>
      </trkpt>
      <trkpt lat="47.47929" lon="6.8184">
        <ele>389</ele>
        <time>2017-12-10T09:14:01.000Z</time>
      </trkpt>
      <trkpt lat="47.47931" lon="6.81843">
        <ele>389.2</ele>
        <time>2017-12-10T09:14:02.000Z</time>
      </trkpt>
      <trkpt lat="47.47931" lon="6.81845">
        <ele>389.3</ele>
        <time>2017-12-10T09:14:03.000Z</time>
      </trkpt>
      <trkpt lat="47.47932" lon="6.81851">
        <ele>389.5</ele>
        <time>2017-12-10T09:14:04.000Z</time>
      </trkpt>
      <trkpt lat="47.47934" lon="6.81856">
        <ele>389.4</ele>
        <time>2017-12-10T09:14:09.000Z</time>
      </trkpt>
      <trkpt lat="47.47934" lon="6.81858">
        <ele>389.5</ele>
        <time>2017-12-10T09:14:10.000Z</time>
      </trkpt>
      <trkpt lat="47.47936" lon="6.81863">
        <ele>389.7</ele>
        <time>2017-12-10T09:14:12.000Z</time>
      </trkpt>
      <trkpt lat="47.47937" lon="6.81865">
        <ele>389.8</ele>
        <time>2017-12-10T09:14:13.000Z</time>
      </trkpt>
      <trkpt lat="47.47939" lon="6.8187">
        <ele>390.1</ele>
        <time>2017-12-10T09:14:15.000Z</time>
      </trkpt>
      <trkpt lat="47.47939" lon="6.81872">
        <ele>390.2</ele>
        <time>2017-12-10T09:14:16.000Z</time>
      </trkpt>
      <trkpt lat="47.47939" lon="6.81875">
        <ele>390.2</ele>
        <time>2017-12-10T09:14:20.000Z</time>
      </trkpt>
      <trkpt lat="47.47938" lon="6.8188">
        <ele>390.3</ele>
        <time>2017-12-10T09:14:21.000Z</time>
      </trkpt>
      <trkpt lat="47.47938" lon="6.81885">
        <ele>390.3</ele>
        <time>2017-12-10T09:14:22.000Z</time>
      </trkpt>
      <trkpt lat="47.47936" lon="6.81889">
        <ele>390.3</ele>
        <time>2017-12-10T09:14:23.000Z</time>
      </trkpt>
      <trkpt lat="47.47933" lon="6.81892">
        <ele>390.7</ele>
        <time>2017-12-10T09:14:27.000Z</time>
      </trkpt>
      <trkpt lat="47.47933" lon="6.81893">
        <ele>390.9</ele>
        <time>2017-12-10T09:14:28.000Z</time>
      </trkpt>
      <trkpt lat="47.4793" lon="6.81895">
        <ele>391.1</ele>
        <time>2017-12-10T09:14:29.000Z</time>
      </trkpt>
      <trkpt lat="47.47929" lon="6.81899">
        <ele>391.4</ele>
        <time>2017-12-10T09:14:30.000Z</time>
      </trkpt>
      <trkpt lat="47.47927" lon="6.81894">
        <ele>393.3</ele>
        <time>2017-12-10T09:14:46.000Z</time>
      </trkpt>
      <trkpt lat="47.47926" lon="6.81894">
        <ele>393.5</ele>
        <time>2017-12-10T09:14:47.000Z</time>
      </trkpt>
      <trkpt lat="47.47924" lon="6.81897">
        <ele>393.8</ele>
        <time>2017-12-10T09:14:49.000Z</time>
      </trkpt>
      <trkpt lat="47.47923" lon="6.81901">
        <ele>393.9</ele>
        <time>2017-12-10T09:14:50.000Z</time>
      </trkpt>
      <trkpt lat="47.47921" lon="6.81905">
        <ele>393.9</ele>
        <time>2017-12-10T09:14:51.000Z</time>
      </trkpt>
      <trkpt lat="47.47919" lon="6.81909">
        <ele>394</ele>
        <time>2017-12-10T09:14:52.000Z</time>
      </trkpt>
      <trkpt lat="47.47917" lon="6.81912">
        <ele>394</ele>
        <time>2017-12-10T09:14:53.000Z</time>
      </trkpt>
      <trkpt lat="47.47916" lon="6.81916">
        <ele>394</ele>
        <time>2017-12-10T09:14:54.000Z</time>
      </trkpt>
      <trkpt lat="47.47914" lon="6.81919">
        <ele>394</ele>
        <time>2017-12-10T09:14:56.000Z</time>
      </trkpt>
      <trkpt lat="47.47913" lon="6.81924">
        <ele>394</ele>
        <time>2017-12-10T09:14:57.000Z</time>
      </trkpt>
      <trkpt lat="47.47913" lon="6.81929">
        <ele>393.9</ele>
        <time>2017-12-10T09:14:59.000Z</time>
      </trkpt>
      <trkpt lat="47.47913" lon="6.81933">
        <ele>393.9</ele>
        <time>2017-12-10T09:15:00.000Z</time>
      </trkpt>
      <trkpt lat="47.47915" lon="6.81938">
        <ele>394.6</ele>
        <time>2017-12-10T09:15:17.000Z</time>
      </trkpt>
      <trkpt lat="47.47914" lon="6.81941">
        <ele>394.6</ele>
        <time>2017-12-10T09:15:18.000Z</time>
      </trkpt>
      <trkpt lat="47.47914" lon="6.81948">
        <ele>394.6</ele>
        <time>2017-12-10T09:15:19.000Z</time>
      </trkpt>
      <trkpt lat="47.47916" lon="6.81954">
        <ele>394.2</ele>
        <time>2017-12-10T09:15:37.000Z</time>
      </trkpt>
      <trkpt lat="47.47917" lon="6.81956">
        <ele>394.3</ele>
        <time>2017-12-10T09:15:38.000Z</time>
      </trkpt>
      <trkpt lat="47.4792" lon="6.81961">
        <ele>394.4</ele>
        <time>2017-12-10T09:15:39.000Z</time>
      </trkpt>
      <trkpt lat="47.47922" lon="6.81966">
        <ele>394.6</ele>
        <time>2017-12-10T09:15:40.000Z</time>
      </trkpt>
      <trkpt lat="47.47923" lon="6.81972">
        <ele>394.7</ele>
        <time>2017-12-10T09:15:41.000Z</time>
      </trkpt>
      <trkpt lat="47.47924" lon="6.81973">
        <ele>394.8</ele>
        <time>2017-12-10T09:15:42.000Z</time>
      </trkpt>
      <trkpt lat="47.47924" lon="6.81979">
        <ele>395.5</ele>
        <time>2017-12-10T09:15:46.000Z</time>
      </trkpt>
      <trkpt lat="47.47924" lon="6.81981">
        <ele>395.7</ele>
        <time>2017-12-10T09:15:47.000Z</time>
      </trkpt>
      <trkpt lat="47.47924" lon="6.81983">
        <ele>395.8</ele>
        <time>2017-12-10T09:15:48.000Z</time>
      </trkpt>
      <trkpt lat="47.47925" lon="6.81988">
        <ele>395.8</ele>
        <time>2017-12-10T09:15:49.000Z</time>
      </trkpt>
      <trkpt lat="47.47926" lon="6.81993">
        <ele>396</ele>
        <time>2017-12-10T09:15:51.000Z</time>
      </trkpt>
      <trkpt lat="47.47927" lon="6.81996">
        <ele>396.2</ele>
        <time>2017-12-10T09:15:52.000Z</time>
      </trkpt>
      <trkpt lat="47.47926" lon="6.82001">
        <ele>396.5</ele>
        <time>2017-12-10T09:15:56.000Z</time>
      </trkpt>
      <trkpt lat="47.47927" lon="6.82004">
        <ele>396.6</ele>
        <time>2017-12-10T09:15:57.000Z</time>
      </trkpt>
      <trkpt lat="47.47928" lon="6.82007">
        <ele>396.8</ele>
        <time>2017-12-10T09:15:58.000Z</time>
      </trkpt>
      <trkpt lat="47.47929" lon="6.82013">
        <ele>396.9</ele>
        <time>2017-12-10T09:15:59.000Z</time>
      </trkpt>
      <trkpt lat="47.4793" lon="6.82019">
        <ele>397</ele>
        <time>2017-12-10T09:16:00.000Z</time>
      </trkpt>
      <trkpt lat="47.4793" lon="6.82021">
        <ele>397</ele>
        <time>2017-12-10T09:16:01.000Z</time>
      </trkpt>
      <trkpt lat="47.47931" lon="6.82027">
        <ele>397.2</ele>
        <time>2017-12-10T09:16:03.000Z</time>
      </trkpt>
      <trkpt lat="47.47932" lon="6.82032">
        <ele>397.3</ele>
        <time>2017-12-10T09:16:04.000Z</time>
      </trkpt>
      <trkpt lat="47.47933" lon="6.82034">
        <ele>397.3</ele>
        <time>2017-12-10T09:16:05.000Z</time>
      </trkpt>
      <trkpt lat="47.47935" lon="6.82039">
        <ele>397.3</ele>
        <time>2017-12-10T09:16:06.000Z</time>
      </trkpt>
      <trkpt lat="47.47935" lon="6.8204">
        <ele>397.3</ele>
        <time>2017-12-10T09:16:07.000Z</time>
      </trkpt>
      <trkpt lat="47.47937" lon="6.82046">
        <ele>397.3</ele>
        <time>2017-12-10T09:16:08.000Z</time>
      </trkpt>
      <trkpt lat="47.47937" lon="6.82048">
        <ele>397.3</ele>
        <time>2017-12-10T09:16:09.000Z</time>
      </trkpt>
      <trkpt lat="47.47936" lon="6.82056">
        <ele>397.2</ele>
        <time>2017-12-10T09:16:10.000Z</time>
      </trkpt>
      <trkpt lat="47.47936" lon="6.82061">
        <ele>397.1</ele>
        <time>2017-12-10T09:16:12.000Z</time>
      </trkpt>
      <trkpt lat="47.47935" lon="6.82065">
        <ele>396.9</ele>
        <time>2017-12-10T09:16:13.000Z</time>
      </trkpt>
      <trkpt lat="47.47936" lon="6.8207">
        <ele>396.4</ele>
        <time>2017-12-10T09:16:15.000Z</time>
      </trkpt>
      <trkpt lat="47.47937" lon="6.82073">
        <ele>396.1</ele>
        <time>2017-12-10T09:16:16.000Z</time>
      </trkpt>
      <trkpt lat="47.47937" lon="6.82079">
        <ele>395.9</ele>
        <time>2017-12-10T09:16:17.000Z</time>
      </trkpt>
      <trkpt lat="47.47937" lon="6.82081">
        <ele>395.6</ele>
        <time>2017-12-10T09:16:18.000Z</time>
      </trkpt>
      <trkpt lat="47.47936" lon="6.82084">
        <ele>395.3</ele>
        <time>2017-12-10T09:16:19.000Z</time>
      </trkpt>
      <trkpt lat="47.47936" lon="6.82089">
        <ele>395.1</ele>
        <time>2017-12-10T09:16:20.000Z</time>
      </trkpt>
      <trkpt lat="47.47936" lon="6.82092">
        <ele>394.9</ele>
        <time>2017-12-10T09:16:21.000Z</time>
      </trkpt>
      <trkpt lat="47.47935" lon="6.82098">
        <ele>394.8</ele>
        <time>2017-12-10T09:16:22.000Z</time>
      </trkpt>
      <trkpt lat="47.47933" lon="6.82103">
        <ele>393.8</ele>
        <time>2017-12-10T09:16:26.000Z</time>
      </trkpt>
      <trkpt lat="47.47932" lon="6.82105">
        <ele>393.6</ele>
        <time>2017-12-10T09:16:27.000Z</time>
      </trkpt>
      <trkpt lat="47.47931" lon="6.82108">
        <ele>393.3</ele>
        <time>2017-12-10T09:16:28.000Z</time>
      </trkpt>
      <trkpt lat="47.47928" lon="6.82111">
        <ele>393.1</ele>
        <time>2017-12-10T09:16:29.000Z</time>
      </trkpt>
      <trkpt lat="47.47924" lon="6.82114">
        <ele>392.7</ele>
        <time>2017-12-10T09:16:30.000Z</time>
      </trkpt>
      <trkpt lat="47.47923" lon="6.82115">
        <ele>392.5</ele>
        <time>2017-12-10T09:16:31.000Z</time>
      </trkpt>
      <trkpt lat="47.47919" lon="6.82117">
        <ele>392.3</ele>
        <time>2017-12-10T09:16:32.000Z</time>
      </trkpt>
      <trkpt lat="47.47917" lon="6.82118">
        <ele>392.1</ele>
        <time>2017-12-10T09:16:33.000Z</time>
      </trkpt>
      <trkpt lat="47.47913" lon="6.82119">
        <ele>391.5</ele>
        <time>2017-12-10T09:16:35.000Z</time>
      </trkpt>
      <trkpt lat="47.47908" lon="6.82121">
        <ele>391.3</ele>
        <time>2017-12-10T09:16:36.000Z</time>
      </trkpt>
      <trkpt lat="47.47903" lon="6.82123">
        <ele>391.1</ele>
        <time>2017-12-10T09:16:37.000Z</time>
      </trkpt>
      <trkpt lat="47.47901" lon="6.82124">
        <ele>390.9</ele>
        <time>2017-12-10T09:16:38.000Z</time>
      </trkpt>
      <trkpt lat="47.47899" lon="6.82125">
        <ele>390.7</ele>
        <time>2017-12-10T09:16:39.000Z</time>
      </trkpt>
      <trkpt lat="47.47895" lon="6.8213">
        <ele>390.5</ele>
        <time>2017-12-10T09:16:40.000Z</time>
      </trkpt>
      <trkpt lat="47.47893" lon="6.82131">
        <ele>390.2</ele>
        <time>2017-12-10T09:16:41.000Z</time>
      </trkpt>
      <trkpt lat="47.4789" lon="6.82131">
        <ele>389.9</ele>
        <time>2017-12-10T09:16:42.000Z</time>
      </trkpt>
      <trkpt lat="47.47887" lon="6.82132">
        <ele>389.5</ele>
        <time>2017-12-10T09:16:44.000Z</time>
      </trkpt>
      <trkpt lat="47.47882" lon="6.82133">
        <ele>389.3</ele>
        <time>2017-12-10T09:16:45.000Z</time>
      </trkpt>
      <trkpt lat="47.47879" lon="6.82133">
        <ele>388.7</ele>
        <time>2017-12-10T09:16:49.000Z</time>
      </trkpt>
      <trkpt lat="47.47878" lon="6.82133">
        <ele>388.7</ele>
        <time>2017-12-10T09:16:50.000Z</time>
      </trkpt>
      <trkpt lat="47.47876" lon="6.82133">
        <ele>388.8</ele>
        <time>2017-12-10T09:16:51.000Z</time>
      </trkpt>
      <trkpt lat="47.47871" lon="6.82134">
        <ele>388.8</ele>
        <time>2017-12-10T09:16:52.000Z</time>
      </trkpt>
      <trkpt lat="47.47866" lon="6.82135">
        <ele>388.9</ele>
        <time>2017-12-10T09:16:53.000Z</time>
      </trkpt>
      <trkpt lat="47.47862" lon="6.82133">
        <ele>389</ele>
        <time>2017-12-10T09:16:54.000Z</time>
      </trkpt>
      <trkpt lat="47.47859" lon="6.82131">
        <ele>389.2</ele>
        <time>2017-12-10T09:16:55.000Z</time>
      </trkpt>
      <trkpt lat="47.47855" lon="6.8213">
        <ele>389.2</ele>
        <time>2017-12-10T09:16:57.000Z</time>
      </trkpt>
      <trkpt lat="47.47853" lon="6.82131">
        <ele>389.2</ele>
        <time>2017-12-10T09:16:58.000Z</time>
      </trkpt>
      <trkpt lat="47.47849" lon="6.82133">
        <ele>389</ele>
        <time>2017-12-10T09:17:01.000Z</time>
      </trkpt>
      <trkpt lat="47.47848" lon="6.82134">
        <ele>389.2</ele>
        <time>2017-12-10T09:17:02.000Z</time>
      </trkpt>
      <trkpt lat="47.47847" lon="6.82135">
        <ele>389.2</ele>
        <time>2017-12-10T09:17:03.000Z</time>
      </trkpt>
      <trkpt lat="47.47843" lon="6.82137">
        <ele>389.2</ele>
        <time>2017-12-10T09:17:04.000Z</time>
      </trkpt>
      <trkpt lat="47.47839" lon="6.82138">
        <ele>389.8</ele>
        <time>2017-12-10T09:17:10.000Z</time>
      </trkpt>
      <trkpt lat="47.47838" lon="6.82137">
        <ele>389.9</ele>
        <time>2017-12-10T09:17:11.000Z</time>
      </trkpt>
      <trkpt lat="47.47834" lon="6.82138">
        <ele>390.5</ele>
        <time>2017-12-10T09:17:15.000Z</time>
      </trkpt>
      <trkpt lat="47.47833" lon="6.82138">
        <ele>390.6</ele>
        <time>2017-12-10T09:17:16.000Z</time>
      </trkpt>
      <trkpt lat="47.47829" lon="6.82136">
        <ele>390.7</ele>
        <time>2017-12-10T09:17:17.000Z</time>
      </trkpt>
      <trkpt lat="47.47825" lon="6.82136">
        <ele>390.8</ele>
        <time>2017-12-10T09:17:18.000Z</time>
      </trkpt>
      <trkpt lat="47.47822" lon="6.82137">
        <ele>390.9</ele>
        <time>2017-12-10T09:17:19.000Z</time>
      </trkpt>
      <trkpt lat="47.4782" lon="6.8214">
        <ele>390.9</ele>
        <time>2017-12-10T09:17:20.000Z</time>
      </trkpt>
      <trkpt lat="47.47817" lon="6.82144">
        <ele>391.2</ele>
        <time>2017-12-10T09:17:23.000Z</time>
      </trkpt>
      <trkpt lat="47.47816" lon="6.82144">
        <ele>391.4</ele>
        <time>2017-12-10T09:17:24.000Z</time>
      </trkpt>
      <trkpt lat="47.47813" lon="6.82144">
        <ele>391.6</ele>
        <time>2017-12-10T09:17:27.000Z</time>
      </trkpt>
      <trkpt lat="47.47811" lon="6.82144">
        <ele>391.6</ele>
        <time>2017-12-10T09:17:28.000Z</time>
      </trkpt>
      <trkpt lat="47.47808" lon="6.82146">
        <ele>391.6</ele>
        <time>2017-12-10T09:17:29.000Z</time>
      </trkpt>
      <trkpt lat="47.47807" lon="6.82146">
        <ele>391.7</ele>
        <time>2017-12-10T09:17:30.000Z</time>
      </trkpt>
      <trkpt lat="47.47803" lon="6.82147">
        <ele>391.7</ele>
        <time>2017-12-10T09:17:31.000Z</time>
      </trkpt>
      <trkpt lat="47.47802" lon="6.82147">
        <ele>391.7</ele>
        <time>2017-12-10T09:17:32.000Z</time>
      </trkpt>
      <trkpt lat="47.47798" lon="6.82146">
        <ele>392.7</ele>
        <time>2017-12-10T09:17:43.000Z</time>
      </trkpt>
      <trkpt lat="47.47798" lon="6.82144">
        <ele>393</ele>
        <time>2017-12-10T09:17:44.000Z</time>
      </trkpt>
      <trkpt lat="47.47795" lon="6.8214">
        <ele>394.8</ele>
        <time>2017-12-10T09:17:53.000Z</time>
      </trkpt>
      <trkpt lat="47.47794" lon="6.82139">
        <ele>395.3</ele>
        <time>2017-12-10T09:17:54.000Z</time>
      </trkpt>
      <trkpt lat="47.47791" lon="6.82136">
        <ele>397.6</ele>
        <time>2017-12-10T09:18:03.000Z</time>
      </trkpt>
      <trkpt lat="47.47787" lon="6.82134">
        <ele>397.9</ele>
        <time>2017-12-10T09:18:04.000Z</time>
      </trkpt>
      <trkpt lat="47.47783" lon="6.82134">
        <ele>398.1</ele>
        <time>2017-12-10T09:18:05.000Z</time>
      </trkpt>
      <trkpt lat="47.47779" lon="6.82134">
        <ele>398.4</ele>
        <time>2017-12-10T09:18:06.000Z</time>
      </trkpt>
      <trkpt lat="47.47776" lon="6.82129">
        <ele>398.7</ele>
        <time>2017-12-10T09:18:07.000Z</time>
      </trkpt>
      <trkpt lat="47.47775" lon="6.82127">
        <ele>398.9</ele>
        <time>2017-12-10T09:18:08.000Z</time>
      </trkpt>
      <trkpt lat="47.47771" lon="6.82125">
        <ele>399.5</ele>
        <time>2017-12-10T09:18:14.000Z</time>
      </trkpt>
      <trkpt lat="47.4777" lon="6.82125">
        <ele>399.5</ele>
        <time>2017-12-10T09:18:15.000Z</time>
      </trkpt>
      <trkpt lat="47.47768" lon="6.82125">
        <ele>400</ele>
        <time>2017-12-10T09:18:18.000Z</time>
      </trkpt>
      <trkpt lat="47.47764" lon="6.82124">
        <ele>400.2</ele>
        <time>2017-12-10T09:18:19.000Z</time>
      </trkpt>
      <trkpt lat="47.4776" lon="6.82124">
        <ele>402.2</ele>
        <time>2017-12-10T09:18:25.999Z</time>
      </trkpt>
      <trkpt lat="47.47757" lon="6.82127">
        <ele>402.5</ele>
        <time>2017-12-10T09:18:26.999Z</time>
      </trkpt>
      <trkpt lat="47.47753" lon="6.8213">
        <ele>403.1</ele>
        <time>2017-12-10T09:18:28.999Z</time>
      </trkpt>
      <trkpt lat="47.47752" lon="6.8213">
        <ele>403.3</ele>
        <time>2017-12-10T09:18:29.999Z</time>
      </trkpt>
      <trkpt lat="47.47749" lon="6.82132">
        <ele>404.6</ele>
        <time>2017-12-10T09:18:37.999Z</time>
      </trkpt>
      <trkpt lat="47.47748" lon="6.82132">
        <ele>404.6</ele>
        <time>2017-12-10T09:18:38.999Z</time>
      </trkpt>
      <trkpt lat="47.47745" lon="6.8213">
        <ele>404.5</ele>
        <time>2017-12-10T09:18:40.999Z</time>
      </trkpt>
      <trkpt lat="47.47744" lon="6.82127">
        <ele>404.6</ele>
        <time>2017-12-10T09:18:41.999Z</time>
      </trkpt>
      <trkpt lat="47.4774" lon="6.82126">
        <ele>404.5</ele>
        <time>2017-12-10T09:18:44.999Z</time>
      </trkpt>
      <trkpt lat="47.47739" lon="6.82126">
        <ele>404.4</ele>
        <time>2017-12-10T09:18:45.999Z</time>
      </trkpt>
      <trkpt lat="47.47735" lon="6.82124">
        <ele>404.3</ele>
        <time>2017-12-10T09:18:46.999Z</time>
      </trkpt>
      <trkpt lat="47.47731" lon="6.82123">
        <ele>404.2</ele>
        <time>2017-12-10T09:18:47.999Z</time>
      </trkpt>
      <trkpt lat="47.47727" lon="6.82123">
        <ele>404</ele>
        <time>2017-12-10T09:18:52.999Z</time>
      </trkpt>
      <trkpt lat="47.47726" lon="6.82122">
        <ele>403.8</ele>
        <time>2017-12-10T09:18:53.999Z</time>
      </trkpt>
      <trkpt lat="47.47722" lon="6.8212">
        <ele>403.6</ele>
        <time>2017-12-10T09:18:57.999Z</time>
      </trkpt>
      <trkpt lat="47.47721" lon="6.82119">
        <ele>403.5</ele>
        <time>2017-12-10T09:18:58.999Z</time>
      </trkpt>
      <trkpt lat="47.47718" lon="6.82117">
        <ele>403.4</ele>
        <time>2017-12-10T09:19:01.999Z</time>
      </trkpt>
      <trkpt lat="47.47716" lon="6.82117">
        <ele>403.4</ele>
        <time>2017-12-10T09:19:02.999Z</time>
      </trkpt>
      <trkpt lat="47.47712" lon="6.82117">
        <ele>403.4</ele>
        <time>2017-12-10T09:19:03.999Z</time>
      </trkpt>
      <trkpt lat="47.4771" lon="6.82118">
        <ele>403.5</ele>
        <time>2017-12-10T09:19:04.999Z</time>
      </trkpt>
      <trkpt lat="47.47707" lon="6.82115">
        <ele>403.4</ele>
        <time>2017-12-10T09:19:06.999Z</time>
      </trkpt>
      <trkpt lat="47.47706" lon="6.82114">
        <ele>403.3</ele>
        <time>2017-12-10T09:19:07.999Z</time>
      </trkpt>
      <trkpt lat="47.47703" lon="6.82111">
        <ele>403.2</ele>
        <time>2017-12-10T09:19:09.999Z</time>
      </trkpt>
      <trkpt lat="47.47702" lon="6.8211">
        <ele>403.2</ele>
        <time>2017-12-10T09:19:10.999Z</time>
      </trkpt>
      <trkpt lat="47.47698" lon="6.82107">
        <ele>403.1</ele>
        <time>2017-12-10T09:19:15.999Z</time>
      </trkpt>
      <trkpt lat="47.47695" lon="6.82106">
        <ele>403.1</ele>
        <time>2017-12-10T09:19:16.999Z</time>
      </trkpt>
      <trkpt lat="47.47691" lon="6.82103">
        <ele>403.3</ele>
        <time>2017-12-10T09:19:19.999Z</time>
      </trkpt>
      <trkpt lat="47.47689" lon="6.82102">
        <ele>403.4</ele>
        <time>2017-12-10T09:19:20.999Z</time>
      </trkpt>
      <trkpt lat="47.47686" lon="6.82101">
        <ele>403.4</ele>
        <time>2017-12-10T09:19:22.999Z</time>
      </trkpt>
      <trkpt lat="47.47684" lon="6.82099">
        <ele>403.4</ele>
        <time>2017-12-10T09:19:23.999Z</time>
      </trkpt>
      <trkpt lat="47.47682" lon="6.82097">
        <ele>403.5</ele>
        <time>2017-12-10T09:19:24.999Z</time>
      </trkpt>
      <trkpt lat="47.47678" lon="6.82095">
        <ele>403.6</ele>
        <time>2017-12-10T09:19:25.999Z</time>
      </trkpt>
      <trkpt lat="47.47674" lon="6.82094">
        <ele>403.7</ele>
        <time>2017-12-10T09:19:28.999Z</time>
      </trkpt>
      <trkpt lat="47.4767" lon="6.82093">
        <ele>403.8</ele>
        <time>2017-12-10T09:19:29.999Z</time>
      </trkpt>
      <trkpt lat="47.47669" lon="6.82093">
        <ele>404</ele>
        <time>2017-12-10T09:19:31.999Z</time>
      </trkpt>
      <trkpt lat="47.47665" lon="6.82091">
        <ele>403.8</ele>
        <time>2017-12-10T09:19:32.999Z</time>
      </trkpt>
      <trkpt lat="47.47662" lon="6.82087">
        <ele>403.5</ele>
        <time>2017-12-10T09:19:34.999Z</time>
      </trkpt>
      <trkpt lat="47.47661" lon="6.82086">
        <ele>403.4</ele>
        <time>2017-12-10T09:19:35.999Z</time>
      </trkpt>
      <trkpt lat="47.4766" lon="6.82086">
        <ele>403.4</ele>
        <time>2017-12-10T09:19:36.999Z</time>
      </trkpt>
      <trkpt lat="47.47656" lon="6.82084">
        <ele>403.3</ele>
        <time>2017-12-10T09:19:37.999Z</time>
      </trkpt>
      <trkpt lat="47.47653" lon="6.82082">
        <ele>402.8</ele>
        <time>2017-12-10T09:19:40.999Z</time>
      </trkpt>
      <trkpt lat="47.47651" lon="6.82082">
        <ele>402.6</ele>
        <time>2017-12-10T09:19:41.999Z</time>
      </trkpt>
      <trkpt lat="47.47648" lon="6.82081">
        <ele>402.4</ele>
        <time>2017-12-10T09:19:43.999Z</time>
      </trkpt>
      <trkpt lat="47.47646" lon="6.8208">
        <ele>402.4</ele>
        <time>2017-12-10T09:19:44.999Z</time>
      </trkpt>
      <trkpt lat="47.47643" lon="6.82078">
        <ele>402.5</ele>
        <time>2017-12-10T09:19:46.999Z</time>
      </trkpt>
      <trkpt lat="47.47641" lon="6.82078">
        <ele>402.5</ele>
        <time>2017-12-10T09:19:47.999Z</time>
      </trkpt>
      <trkpt lat="47.47638" lon="6.82076">
        <ele>402.7</ele>
        <time>2017-12-10T09:19:48.999Z</time>
      </trkpt>
      <trkpt lat="47.47636" lon="6.82075">
        <ele>402.7</ele>
        <time>2017-12-10T09:19:49.999Z</time>
      </trkpt>
      <trkpt lat="47.47633" lon="6.82075">
        <ele>402.7</ele>
        <time>2017-12-10T09:19:51.999Z</time>
      </trkpt>
      <trkpt lat="47.47632" lon="6.82075">
        <ele>402.7</ele>
        <time>2017-12-10T09:19:52.999Z</time>
      </trkpt>
      <trkpt lat="47.47627" lon="6.82074">
        <ele>402.4</ele>
        <time>2017-12-10T09:19:54.999Z</time>
      </trkpt>
      <trkpt lat="47.47625" lon="6.82072">
        <ele>402.3</ele>
        <time>2017-12-10T09:19:55.999Z</time>
      </trkpt>
      <trkpt lat="47.47622" lon="6.82069">
        <ele>402.1</ele>
        <time>2017-12-10T09:19:57.999Z</time>
      </trkpt>
      <trkpt lat="47.4762" lon="6.82069">
        <ele>402.2</ele>
        <time>2017-12-10T09:19:58.999Z</time>
      </trkpt>
      <trkpt lat="47.47616" lon="6.82067">
        <ele>402.3</ele>
        <time>2017-12-10T09:20:00.999Z</time>
      </trkpt>
      <trkpt lat="47.47615" lon="6.82067">
        <ele>402.2</ele>
        <time>2017-12-10T09:20:01.999Z</time>
      </trkpt>
      <trkpt lat="47.47611" lon="6.82065">
        <ele>402.1</ele>
        <time>2017-12-10T09:20:03.999Z</time>
      </trkpt>
      <trkpt lat="47.47608" lon="6.82063">
        <ele>402.1</ele>
        <time>2017-12-10T09:20:04.999Z</time>
      </trkpt>
      <trkpt lat="47.47604" lon="6.82063">
        <ele>402</ele>
        <time>2017-12-10T09:20:05.999Z</time>
      </trkpt>
      <trkpt lat="47.47603" lon="6.82063">
        <ele>402</ele>
        <time>2017-12-10T09:20:06.999Z</time>
      </trkpt>
      <trkpt lat="47.47599" lon="6.82061">
        <ele>401.8</ele>
        <time>2017-12-10T09:20:08.999Z</time>
      </trkpt>
      <trkpt lat="47.47597" lon="6.82061">
        <ele>401.7</ele>
        <time>2017-12-10T09:20:09.999Z</time>
      </trkpt>
      <trkpt lat="47.47593" lon="6.82062">
        <ele>401.4</ele>
        <time>2017-12-10T09:20:12.999Z</time>
      </trkpt>
      <trkpt lat="47.47592" lon="6.8206">
        <ele>401.2</ele>
        <time>2017-12-10T09:20:13.999Z</time>
      </trkpt>
      <trkpt lat="47.47588" lon="6.82056">
        <ele>400.8</ele>
        <time>2017-12-10T09:20:15.999Z</time>
      </trkpt>
      <trkpt lat="47.47587" lon="6.82055">
        <ele>400.6</ele>
        <time>2017-12-10T09:20:16.999Z</time>
      </trkpt>
      <trkpt lat="47.47586" lon="6.82054">
        <ele>400.4</ele>
        <time>2017-12-10T09:20:17.999Z</time>
      </trkpt>
      <trkpt lat="47.47583" lon="6.8205">
        <ele>400.3</ele>
        <time>2017-12-10T09:20:18.999Z</time>
      </trkpt>
      <trkpt lat="47.4758" lon="6.82047">
        <ele>400.4</ele>
        <time>2017-12-10T09:20:20.999Z</time>
      </trkpt>
      <trkpt lat="47.47579" lon="6.82046">
        <ele>400.4</ele>
        <time>2017-12-10T09:20:21.999Z</time>
      </trkpt>
      <trkpt lat="47.47577" lon="6.82045">
        <ele>400.6</ele>
        <time>2017-12-10T09:20:23.999Z</time>
      </trkpt>
      <trkpt lat="47.47575" lon="6.82042">
        <ele>400.8</ele>
        <time>2017-12-10T09:20:24.999Z</time>
      </trkpt>
      <trkpt lat="47.47571" lon="6.8204">
        <ele>401.6</ele>
        <time>2017-12-10T09:20:27.999Z</time>
      </trkpt>
      <trkpt lat="47.47567" lon="6.82039">
        <ele>401.8</ele>
        <time>2017-12-10T09:20:28.999Z</time>
      </trkpt>
      <trkpt lat="47.47564" lon="6.8204">
        <ele>402.1</ele>
        <time>2017-12-10T09:20:30.999Z</time>
      </trkpt>
      <trkpt lat="47.47563" lon="6.8204">
        <ele>402.2</ele>
        <time>2017-12-10T09:20:31.999Z</time>
      </trkpt>
      <trkpt lat="47.47559" lon="6.82039">
        <ele>402.2</ele>
        <time>2017-12-10T09:20:32.999Z</time>
      </trkpt>
      <trkpt lat="47.47557" lon="6.82039">
        <ele>402.3</ele>
        <time>2017-12-10T09:20:33.999Z</time>
      </trkpt>
      <trkpt lat="47.47552" lon="6.82038">
        <ele>402.3</ele>
        <time>2017-12-10T09:20:34.999Z</time>
      </trkpt>
      <trkpt lat="47.47551" lon="6.82037">
        <ele>402.4</ele>
        <time>2017-12-10T09:20:35.999Z</time>
      </trkpt>
      <trkpt lat="47.47549" lon="6.82036">
        <ele>402.4</ele>
        <time>2017-12-10T09:20:36.999Z</time>
      </trkpt>
      <trkpt lat="47.47545" lon="6.82035">
        <ele>402.4</ele>
        <time>2017-12-10T09:20:37.999Z</time>
      </trkpt>
      <trkpt lat="47.47541" lon="6.82034">
        <ele>402.4</ele>
        <time>2017-12-10T09:20:38.999Z</time>
      </trkpt>
      <trkpt lat="47.47539" lon="6.82034">
        <ele>402.4</ele>
        <time>2017-12-10T09:20:39.999Z</time>
      </trkpt>
      <trkpt lat="47.47536" lon="6.82035">
        <ele>402.2</ele>
        <time>2017-12-10T09:20:41.999Z</time>
      </trkpt>
      <trkpt lat="47.47534" lon="6.82033">
        <ele>402</ele>
        <time>2017-12-10T09:20:42.999Z</time>
      </trkpt>
      <trkpt lat="47.47531" lon="6.82033">
        <ele>401.9</ele>
        <time>2017-12-10T09:20:43.999Z</time>
      </trkpt>
      <trkpt lat="47.47528" lon="6.82034">
        <ele>401.7</ele>
        <time>2017-12-10T09:20:44.999Z</time>
      </trkpt>
      <trkpt lat="47.47524" lon="6.82037">
        <ele>401.5</ele>
        <time>2017-12-10T09:20:45.999Z</time>
      </trkpt>
      <trkpt lat="47.47522" lon="6.82037">
        <ele>401.3</ele>
        <time>2017-12-10T09:20:46.999Z</time>
      </trkpt>
      <trkpt lat="47.47517" lon="6.82035">
        <ele>400.9</ele>
        <time>2017-12-10T09:20:47.999Z</time>
      </trkpt>
      <trkpt lat="47.47514" lon="6.82036">
        <ele>400.7</ele>
        <time>2017-12-10T09:20:48.999Z</time>
      </trkpt>
      <trkpt lat="47.4751" lon="6.82035">
        <ele>400.3</ele>
        <time>2017-12-10T09:20:49.999Z</time>
      </trkpt>
      <trkpt lat="47.47507" lon="6.82037">
        <ele>400.1</ele>
        <time>2017-12-10T09:20:50.999Z</time>
      </trkpt>
      <trkpt lat="47.47505" lon="6.82038">
        <ele>399.9</ele>
        <time>2017-12-10T09:20:51.999Z</time>
      </trkpt>
      <trkpt lat="47.47502" lon="6.8204">
        <ele>399.6</ele>
        <time>2017-12-10T09:20:52.999Z</time>
      </trkpt>
      <trkpt lat="47.475" lon="6.82042">
        <ele>399.2</ele>
        <time>2017-12-10T09:20:53.999Z</time>
      </trkpt>
      <trkpt lat="47.47497" lon="6.82043">
        <ele>399</ele>
        <time>2017-12-10T09:20:54.999Z</time>
      </trkpt>
      <trkpt lat="47.47493" lon="6.82041">
        <ele>398.8</ele>
        <time>2017-12-10T09:20:55.999Z</time>
      </trkpt>
      <trkpt lat="47.4749" lon="6.82041">
        <ele>398.6</ele>
        <time>2017-12-10T09:20:56.999Z</time>
      </trkpt>
      <trkpt lat="47.47487" lon="6.82042">
        <ele>398.4</ele>
        <time>2017-12-10T09:20:57.999Z</time>
      </trkpt>
      <trkpt lat="47.47483" lon="6.82043">
        <ele>398.2</ele>
        <time>2017-12-10T09:20:58.999Z</time>
      </trkpt>
      <trkpt lat="47.4748" lon="6.82044">
        <ele>397.9</ele>
        <time>2017-12-10T09:20:59.999Z</time>
      </trkpt>
      <trkpt lat="47.47477" lon="6.82043">
        <ele>397.7</ele>
        <time>2017-12-10T09:21:00.999Z</time>
      </trkpt>
      <trkpt lat="47.47475" lon="6.82042">
        <ele>397.5</ele>
        <time>2017-12-10T09:21:01.999Z</time>
      </trkpt>
      <trkpt lat="47.47472" lon="6.82042">
        <ele>397.3</ele>
        <time>2017-12-10T09:21:02.999Z</time>
      </trkpt>
      <trkpt lat="47.47469" lon="6.82042">
        <ele>397</ele>
        <time>2017-12-10T09:21:03.999Z</time>
      </trkpt>
      <trkpt lat="47.47466" lon="6.82041">
        <ele>396.6</ele>
        <time>2017-12-10T09:21:04.999Z</time>
      </trkpt>
      <trkpt lat="47.47464" lon="6.82041">
        <ele>396.2</ele>
        <time>2017-12-10T09:21:05.999Z</time>
      </trkpt>
      <trkpt lat="47.47463" lon="6.82042">
        <ele>395.9</ele>
        <time>2017-12-10T09:21:06.999Z</time>
      </trkpt>
      <trkpt lat="47.4746" lon="6.8204">
        <ele>395.6</ele>
        <time>2017-12-10T09:21:07.999Z</time>
      </trkpt>
      <trkpt lat="47.47456" lon="6.8204">
        <ele>395.4</ele>
        <time>2017-12-10T09:21:08.999Z</time>
      </trkpt>
      <trkpt lat="47.47453" lon="6.8204">
        <ele>395.2</ele>
        <time>2017-12-10T09:21:09.999Z</time>
      </trkpt>
      <trkpt lat="47.4745" lon="6.82039">
        <ele>394.7</ele>
        <time>2017-12-10T09:21:11.999Z</time>
      </trkpt>
      <trkpt lat="47.47446" lon="6.82033">
        <ele>394.5</ele>
        <time>2017-12-10T09:21:12.999Z</time>
      </trkpt>
      <trkpt lat="47.4744" lon="6.82034">
        <ele>394.3</ele>
        <time>2017-12-10T09:21:13.999Z</time>
      </trkpt>
      <trkpt lat="47.47433" lon="6.82035">
        <ele>393.8</ele>
        <time>2017-12-10T09:21:14.999Z</time>
      </trkpt>
      <trkpt lat="47.47428" lon="6.82034">
        <ele>393.5</ele>
        <time>2017-12-10T09:21:15.999Z</time>
      </trkpt>
      <trkpt lat="47.47424" lon="6.82033">
        <ele>393.1</ele>
        <time>2017-12-10T09:21:16.999Z</time>
      </trkpt>
      <trkpt lat="47.4742" lon="6.82032">
        <ele>392.7</ele>
        <time>2017-12-10T09:21:17.999Z</time>
      </trkpt>
      <trkpt lat="47.47418" lon="6.82029">
        <ele>392.4</ele>
        <time>2017-12-10T09:21:18.999Z</time>
      </trkpt>
      <trkpt lat="47.47414" lon="6.82027">
        <ele>392.2</ele>
        <time>2017-12-10T09:21:19.999Z</time>
      </trkpt>
      <trkpt lat="47.47411" lon="6.82029">
        <ele>391.4</ele>
        <time>2017-12-10T09:21:32.999Z</time>
      </trkpt>
      <trkpt lat="47.47409" lon="6.82029">
        <ele>391.6</ele>
        <time>2017-12-10T09:21:33.999Z</time>
      </trkpt>
      <trkpt lat="47.47405" lon="6.82025">
        <ele>391.7</ele>
        <time>2017-12-10T09:21:34.999Z</time>
      </trkpt>
      <trkpt lat="47.474" lon="6.82023">
        <ele>391.8</ele>
        <time>2017-12-10T09:21:35.999Z</time>
      </trkpt>
      <trkpt lat="47.47395" lon="6.82022">
        <ele>391.8</ele>
        <time>2017-12-10T09:21:36.999Z</time>
      </trkpt>
      <trkpt lat="47.47391" lon="6.82017">
        <ele>392</ele>
        <time>2017-12-10T09:21:37.999Z</time>
      </trkpt>
      <trkpt lat="47.47389" lon="6.82015">
        <ele>392</ele>
        <time>2017-12-10T09:21:38.999Z</time>
      </trkpt>
      <trkpt lat="47.47385" lon="6.82012">
        <ele>392.2</ele>
        <time>2017-12-10T09:21:39.999Z</time>
      </trkpt>
      <trkpt lat="47.47379" lon="6.82008">
        <ele>392.2</ele>
        <time>2017-12-10T09:21:40.999Z</time>
      </trkpt>
      <trkpt lat="47.47372" lon="6.82004">
        <ele>392.3</ele>
        <time>2017-12-10T09:21:41.999Z</time>
      </trkpt>
      <trkpt lat="47.47366" lon="6.82006">
        <ele>392.4</ele>
        <time>2017-12-10T09:21:42.999Z</time>
      </trkpt>
      <trkpt lat="47.47363" lon="6.82008">
        <ele>392.5</ele>
        <time>2017-12-10T09:21:43.999Z</time>
      </trkpt>
      <trkpt lat="47.47359" lon="6.8201">
        <ele>392.7</ele>
        <time>2017-12-10T09:21:44.999Z</time>
      </trkpt>
      <trkpt lat="47.47355" lon="6.82012">
        <ele>393.2</ele>
        <time>2017-12-10T09:21:46.999Z</time>
      </trkpt>
      <trkpt lat="47.47354" lon="6.82013">
        <ele>393.5</ele>
        <time>2017-12-10T09:21:47.999Z</time>
      </trkpt>
      <trkpt lat="47.47352" lon="6.82013">
        <ele>393.8</ele>
        <time>2017-12-10T09:21:48.999Z</time>
      </trkpt>
      <trkpt lat="47.4735" lon="6.82013">
        <ele>394.2</ele>
        <time>2017-12-10T09:21:49.999Z</time>
      </trkpt>
      <trkpt lat="47.47347" lon="6.82015">
        <ele>394.5</ele>
        <time>2017-12-10T09:21:50.999Z</time>
      </trkpt>
      <trkpt lat="47.47345" lon="6.82016">
        <ele>394.6</ele>
        <time>2017-12-10T09:21:51.999Z</time>
      </trkpt>
      <trkpt lat="47.47341" lon="6.82017">
        <ele>395.2</ele>
        <time>2017-12-10T09:21:53.999Z</time>
      </trkpt>
      <trkpt lat="47.47337" lon="6.82017">
        <ele>395.5</ele>
        <time>2017-12-10T09:21:54.999Z</time>
      </trkpt>
      <trkpt lat="47.47334" lon="6.82017">
        <ele>395.9</ele>
        <time>2017-12-10T09:21:55.999Z</time>
      </trkpt>
      <trkpt lat="47.47332" lon="6.82017">
        <ele>396.3</ele>
        <time>2017-12-10T09:21:56.999Z</time>
      </trkpt>
      <trkpt lat="47.47328" lon="6.8202">
        <ele>396.9</ele>
        <time>2017-12-10T09:21:58.999Z</time>
      </trkpt>
      <trkpt lat="47.47326" lon="6.8202">
        <ele>397.1</ele>
        <time>2017-12-10T09:21:59.999Z</time>
      </trkpt>
      <trkpt lat="47.47322" lon="6.82022">
        <ele>397.6</ele>
        <time>2017-12-10T09:22:02.999Z</time>
      </trkpt>
      <trkpt lat="47.47321" lon="6.82021">
        <ele>397.8</ele>
        <time>2017-12-10T09:22:03.999Z</time>
      </trkpt>
      <trkpt lat="47.47319" lon="6.82018">
        <ele>398.1</ele>
        <time>2017-12-10T09:22:04.999Z</time>
      </trkpt>
      <trkpt lat="47.47316" lon="6.82016">
        <ele>398.4</ele>
        <time>2017-12-10T09:22:05.999Z</time>
      </trkpt>
      <trkpt lat="47.47313" lon="6.82012">
        <ele>399.1</ele>
        <time>2017-12-10T09:22:08.999Z</time>
      </trkpt>
      <trkpt lat="47.47312" lon="6.82011">
        <ele>399.4</ele>
        <time>2017-12-10T09:22:09.999Z</time>
      </trkpt>
      <trkpt lat="47.47309" lon="6.82007">
        <ele>400</ele>
        <time>2017-12-10T09:22:11.999Z</time>
      </trkpt>
      <trkpt lat="47.47308" lon="6.82006">
        <ele>400.3</ele>
        <time>2017-12-10T09:22:12.999Z</time>
      </trkpt>
      <trkpt lat="47.47305" lon="6.82005">
        <ele>401.6</ele>
        <time>2017-12-10T09:22:15.999Z</time>
      </trkpt>
      <trkpt lat="47.47301" lon="6.82003">
        <ele>402</ele>
        <time>2017-12-10T09:22:16.999Z</time>
      </trkpt>
      <trkpt lat="47.47297" lon="6.82">
        <ele>403.3</ele>
        <time>2017-12-10T09:22:19.999Z</time>
      </trkpt>
      <trkpt lat="47.47296" lon="6.81998">
        <ele>403.7</ele>
        <time>2017-12-10T09:22:20.999Z</time>
      </trkpt>
      <trkpt lat="47.47292" lon="6.81996">
        <ele>404.5</ele>
        <time>2017-12-10T09:22:22.999Z</time>
      </trkpt>
      <trkpt lat="47.4729" lon="6.81994">
        <ele>404.9</ele>
        <time>2017-12-10T09:22:23.999Z</time>
      </trkpt>
      <trkpt lat="47.47286" lon="6.81992">
        <ele>406.7</ele>
        <time>2017-12-10T09:22:27.999Z</time>
      </trkpt>
      <trkpt lat="47.47285" lon="6.81992">
        <ele>407.2</ele>
        <time>2017-12-10T09:22:28.999Z</time>
      </trkpt>
      <trkpt lat="47.47281" lon="6.81993">
        <ele>408.4</ele>
        <time>2017-12-10T09:22:30.999Z</time>
      </trkpt>
      <trkpt lat="47.47279" lon="6.81994">
        <ele>409</ele>
        <time>2017-12-10T09:22:31.999Z</time>
      </trkpt>
      <trkpt lat="47.47276" lon="6.81993">
        <ele>410.1</ele>
        <time>2017-12-10T09:22:33.999Z</time>
      </trkpt>
      <trkpt lat="47.47272" lon="6.81992">
        <ele>410.5</ele>
        <time>2017-12-10T09:22:34.999Z</time>
      </trkpt>
      <trkpt lat="47.47269" lon="6.8199">
        <ele>411.6</ele>
        <time>2017-12-10T09:22:36.999Z</time>
      </trkpt>
      <trkpt lat="47.47267" lon="6.81988">
        <ele>412</ele>
        <time>2017-12-10T09:22:37.999Z</time>
      </trkpt>
      <trkpt lat="47.47264" lon="6.81986">
        <ele>412.6</ele>
        <time>2017-12-10T09:22:40.999Z</time>
      </trkpt>
      <trkpt lat="47.47261" lon="6.81985">
        <ele>412.8</ele>
        <time>2017-12-10T09:22:41.999Z</time>
      </trkpt>
      <trkpt lat="47.47259" lon="6.81984">
        <ele>413.3</ele>
        <time>2017-12-10T09:22:43.999Z</time>
      </trkpt>
      <trkpt lat="47.47256" lon="6.81985">
        <ele>413.6</ele>
        <time>2017-12-10T09:22:44.999Z</time>
      </trkpt>
      <trkpt lat="47.47251" lon="6.81985">
        <ele>414.7</ele>
        <time>2017-12-10T09:22:48.999Z</time>
      </trkpt>
      <trkpt lat="47.4725" lon="6.81984">
        <ele>415.1</ele>
        <time>2017-12-10T09:22:49.999Z</time>
      </trkpt>
      <trkpt lat="47.47246" lon="6.81986">
        <ele>416.8</ele>
        <time>2017-12-10T09:22:54.999Z</time>
      </trkpt>
      <trkpt lat="47.47242" lon="6.81986">
        <ele>417.1</ele>
        <time>2017-12-10T09:22:55.999Z</time>
      </trkpt>
      <trkpt lat="47.47238" lon="6.81986">
        <ele>417.5</ele>
        <time>2017-12-10T09:22:56.999Z</time>
      </trkpt>
      <trkpt lat="47.47237" lon="6.81987">
        <ele>417.8</ele>
        <time>2017-12-10T09:22:57.999Z</time>
      </trkpt>
      <trkpt lat="47.47233" lon="6.81988">
        <ele>418.8</ele>
        <time>2017-12-10T09:23:00.999Z</time>
      </trkpt>
      <trkpt lat="47.47231" lon="6.81988">
        <ele>419.1</ele>
        <time>2017-12-10T09:23:01.999Z</time>
      </trkpt>
      <trkpt lat="47.47229" lon="6.81987">
        <ele>419.6</ele>
        <time>2017-12-10T09:23:03.999Z</time>
      </trkpt>
      <trkpt lat="47.47227" lon="6.81988">
        <ele>419.8</ele>
        <time>2017-12-10T09:23:04.999Z</time>
      </trkpt>
      <trkpt lat="47.47223" lon="6.81988">
        <ele>420.3</ele>
        <time>2017-12-10T09:23:06.999Z</time>
      </trkpt>
      <trkpt lat="47.47221" lon="6.81989">
        <ele>420.5</ele>
        <time>2017-12-10T09:23:07.999Z</time>
      </trkpt>
      <trkpt lat="47.47218" lon="6.8199">
        <ele>421</ele>
        <time>2017-12-10T09:23:09.999Z</time>
      </trkpt>
      <trkpt lat="47.47216" lon="6.8199">
        <ele>421.3</ele>
        <time>2017-12-10T09:23:10.999Z</time>
      </trkpt>
      <trkpt lat="47.47212" lon="6.81991">
        <ele>421.8</ele>
        <time>2017-12-10T09:23:12.999Z</time>
      </trkpt>
      <trkpt lat="47.4721" lon="6.81993">
        <ele>422.1</ele>
        <time>2017-12-10T09:23:13.999Z</time>
      </trkpt>
      <trkpt lat="47.47207" lon="6.81996">
        <ele>422.6</ele>
        <time>2017-12-10T09:23:16.999Z</time>
      </trkpt>
      <trkpt lat="47.47206" lon="6.81998">
        <ele>422.8</ele>
        <time>2017-12-10T09:23:17.999Z</time>
      </trkpt>
      <trkpt lat="47.47205" lon="6.81999">
        <ele>423</ele>
        <time>2017-12-10T09:23:18.999Z</time>
      </trkpt>
      <trkpt lat="47.47203" lon="6.82004">
        <ele>423.3</ele>
        <time>2017-12-10T09:23:19.999Z</time>
      </trkpt>
      <trkpt lat="47.472" lon="6.82008">
        <ele>423.6</ele>
        <time>2017-12-10T09:23:20.999Z</time>
      </trkpt>
      <trkpt lat="47.47199" lon="6.8201">
        <ele>423.8</ele>
        <time>2017-12-10T09:23:21.999Z</time>
      </trkpt>
      <trkpt lat="47.47196" lon="6.82012">
        <ele>424.1</ele>
        <time>2017-12-10T09:23:23.999Z</time>
      </trkpt>
      <trkpt lat="47.47193" lon="6.82013">
        <ele>424.3</ele>
        <time>2017-12-10T09:23:24.999Z</time>
      </trkpt>
      <trkpt lat="47.47191" lon="6.82015">
        <ele>424.5</ele>
        <time>2017-12-10T09:23:25.999Z</time>
      </trkpt>
      <trkpt lat="47.47188" lon="6.8202">
        <ele>424.7</ele>
        <time>2017-12-10T09:23:26.999Z</time>
      </trkpt>
      <trkpt lat="47.47187" lon="6.82022">
        <ele>425.9</ele>
        <time>2017-12-10T09:23:30.999Z</time>
      </trkpt>
      <trkpt lat="47.47184" lon="6.82023">
        <ele>426.3</ele>
        <time>2017-12-10T09:23:31.999Z</time>
      </trkpt>
      <trkpt lat="47.47181" lon="6.82028">
        <ele>428.4</ele>
        <time>2017-12-10T09:23:39.999Z</time>
      </trkpt>
      <trkpt lat="47.4718" lon="6.82032">
        <ele>428.7</ele>
        <time>2017-12-10T09:23:40.999Z</time>
      </trkpt>
      <trkpt lat="47.47178" lon="6.82038">
        <ele>428.9</ele>
        <time>2017-12-10T09:23:41.999Z</time>
      </trkpt>
      <trkpt lat="47.47176" lon="6.82043">
        <ele>429.8</ele>
        <time>2017-12-10T09:23:45.999Z</time>
      </trkpt>
      <trkpt lat="47.47175" lon="6.82044">
        <ele>429.9</ele>
        <time>2017-12-10T09:23:46.999Z</time>
      </trkpt>
      <trkpt lat="47.47173" lon="6.82046">
        <ele>430.1</ele>
        <time>2017-12-10T09:23:47.999Z</time>
      </trkpt>
      <trkpt lat="47.47171" lon="6.82052">
        <ele>430.3</ele>
        <time>2017-12-10T09:23:48.999Z</time>
      </trkpt>
      <trkpt lat="47.47168" lon="6.82058">
        <ele>430.6</ele>
        <time>2017-12-10T09:23:49.999Z</time>
      </trkpt>
      <trkpt lat="47.47167" lon="6.82065">
        <ele>430.8</ele>
        <time>2017-12-10T09:23:50.999Z</time>
      </trkpt>
      <trkpt lat="47.47167" lon="6.82072">
        <ele>430.8</ele>
        <time>2017-12-10T09:23:51.999Z</time>
      </trkpt>
      <trkpt lat="47.47167" lon="6.82079">
        <ele>430.8</ele>
        <time>2017-12-10T09:23:52.999Z</time>
      </trkpt>
      <trkpt lat="47.47168" lon="6.82085">
        <ele>430.8</ele>
        <time>2017-12-10T09:23:53.999Z</time>
      </trkpt>
      <trkpt lat="47.47168" lon="6.82087">
        <ele>430.6</ele>
        <time>2017-12-10T09:23:54.999Z</time>
      </trkpt>
      <trkpt lat="47.47169" lon="6.82094">
        <ele>430.3</ele>
        <time>2017-12-10T09:23:57.999Z</time>
      </trkpt>
      <trkpt lat="47.4717" lon="6.82099">
        <ele>430.4</ele>
        <time>2017-12-10T09:23:58.999Z</time>
      </trkpt>
      <trkpt lat="47.4717" lon="6.82103">
        <ele>430.4</ele>
        <time>2017-12-10T09:24:00.999Z</time>
      </trkpt>
      <trkpt lat="47.4717" lon="6.82106">
        <ele>430.4</ele>
        <time>2017-12-10T09:24:01.999Z</time>
      </trkpt>
      <trkpt lat="47.47169" lon="6.82111">
        <ele>430.4</ele>
        <time>2017-12-10T09:24:04.999Z</time>
      </trkpt>
      <trkpt lat="47.47169" lon="6.82114">
        <ele>430.4</ele>
        <time>2017-12-10T09:24:05.999Z</time>
      </trkpt>
      <trkpt lat="47.47168" lon="6.82119">
        <ele>430.4</ele>
        <time>2017-12-10T09:24:08.999Z</time>
      </trkpt>
      <trkpt lat="47.47168" lon="6.82121">
        <ele>430.4</ele>
        <time>2017-12-10T09:24:09.999Z</time>
      </trkpt>
      <trkpt lat="47.47168" lon="6.82127">
        <ele>430.4</ele>
        <time>2017-12-10T09:24:10.999Z</time>
      </trkpt>
      <trkpt lat="47.47168" lon="6.82129">
        <ele>430.4</ele>
        <time>2017-12-10T09:24:11.999Z</time>
      </trkpt>
      <trkpt lat="47.47169" lon="6.82132">
        <ele>430.5</ele>
        <time>2017-12-10T09:24:13.999Z</time>
      </trkpt>
      <trkpt lat="47.47169" lon="6.82137">
        <ele>430.5</ele>
        <time>2017-12-10T09:24:14.999Z</time>
      </trkpt>
      <trkpt lat="47.47166" lon="6.82142">
        <ele>430.6</ele>
        <time>2017-12-10T09:24:17.999Z</time>
      </trkpt>
      <trkpt lat="47.47166" lon="6.82145">
        <ele>430.7</ele>
        <time>2017-12-10T09:24:18.999Z</time>
      </trkpt>
      <trkpt lat="47.47164" lon="6.8215">
        <ele>430.9</ele>
        <time>2017-12-10T09:24:21.999Z</time>
      </trkpt>
      <trkpt lat="47.47162" lon="6.82152">
        <ele>431</ele>
        <time>2017-12-10T09:24:22.999Z</time>
      </trkpt>
      <trkpt lat="47.4716" lon="6.82157">
        <ele>431.1</ele>
        <time>2017-12-10T09:24:24.999Z</time>
      </trkpt>
      <trkpt lat="47.4716" lon="6.82158">
        <ele>431</ele>
        <time>2017-12-10T09:24:25.999Z</time>
      </trkpt>
      <trkpt lat="47.4716" lon="6.82161">
        <ele>431.1</ele>
        <time>2017-12-10T09:24:30.999Z</time>
      </trkpt>
      <trkpt lat="47.47159" lon="6.82168">
        <ele>431.2</ele>
        <time>2017-12-10T09:24:31.999Z</time>
      </trkpt>
      <trkpt lat="47.47157" lon="6.82173">
        <ele>431.2</ele>
        <time>2017-12-10T09:24:33.999Z</time>
      </trkpt>
      <trkpt lat="47.47157" lon="6.82176">
        <ele>431.4</ele>
        <time>2017-12-10T09:24:34.999Z</time>
      </trkpt>
      <trkpt lat="47.47157" lon="6.82178">
        <ele>431.6</ele>
        <time>2017-12-10T09:24:35.999Z</time>
      </trkpt>
      <trkpt lat="47.47157" lon="6.82182">
        <ele>431.8</ele>
        <time>2017-12-10T09:24:36.999Z</time>
      </trkpt>
      <trkpt lat="47.47154" lon="6.82187">
        <ele>431.9</ele>
        <time>2017-12-10T09:24:38.999Z</time>
      </trkpt>
      <trkpt lat="47.47154" lon="6.82188">
        <ele>432</ele>
        <time>2017-12-10T09:24:39.999Z</time>
      </trkpt>
      <trkpt lat="47.47152" lon="6.82189">
        <ele>431.7</ele>
        <time>2017-12-10T09:24:43.999Z</time>
      </trkpt>
      <trkpt lat="47.47148" lon="6.82188">
        <ele>431.6</ele>
        <time>2017-12-10T09:24:44.999Z</time>
      </trkpt>
      <trkpt lat="47.47144" lon="6.82185">
        <ele>431.6</ele>
        <time>2017-12-10T09:24:47.999Z</time>
      </trkpt>
      <trkpt lat="47.47142" lon="6.82184">
        <ele>431.6</ele>
        <time>2017-12-10T09:24:48.999Z</time>
      </trkpt>
      <trkpt lat="47.4714" lon="6.82184">
        <ele>431.5</ele>
        <time>2017-12-10T09:24:49.999Z</time>
      </trkpt>
      <trkpt lat="47.47136" lon="6.82182">
        <ele>431.4</ele>
        <time>2017-12-10T09:24:50.999Z</time>
      </trkpt>
      <trkpt lat="47.47131" lon="6.82184">
        <ele>431.3</ele>
        <time>2017-12-10T09:24:51.999Z</time>
      </trkpt>
      <trkpt lat="47.4713" lon="6.82185">
        <ele>431.2</ele>
        <time>2017-12-10T09:24:52.999Z</time>
      </trkpt>
      <trkpt lat="47.47126" lon="6.82184">
        <ele>431.1</ele>
        <time>2017-12-10T09:24:53.999Z</time>
      </trkpt>
      <trkpt lat="47.47122" lon="6.82184">
        <ele>430.9</ele>
        <time>2017-12-10T09:24:55.999Z</time>
      </trkpt>
      <trkpt lat="47.47119" lon="6.82184">
        <ele>430.8</ele>
        <time>2017-12-10T09:24:56.999Z</time>
      </trkpt>
      <trkpt lat="47.47115" lon="6.82184">
        <ele>430.9</ele>
        <time>2017-12-10T09:24:58.999Z</time>
      </trkpt>
      <trkpt lat="47.47113" lon="6.82184">
        <ele>430.8</ele>
        <time>2017-12-10T09:24:59.999Z</time>
      </trkpt>
      <trkpt lat="47.47111" lon="6.82185">
        <ele>430.7</ele>
        <time>2017-12-10T09:25:00.999Z</time>
      </trkpt>
      <trkpt lat="47.47107" lon="6.82185">
        <ele>430.6</ele>
        <time>2017-12-10T09:25:01.999Z</time>
      </trkpt>
      <trkpt lat="47.47104" lon="6.82186">
        <ele>430.5</ele>
        <time>2017-12-10T09:25:02.999Z</time>
      </trkpt>
      <trkpt lat="47.471" lon="6.82188">
        <ele>430.4</ele>
        <time>2017-12-10T09:25:03.999Z</time>
      </trkpt>
      <trkpt lat="47.47098" lon="6.82191">
        <ele>430.3</ele>
        <time>2017-12-10T09:25:04.999Z</time>
      </trkpt>
      <trkpt lat="47.47094" lon="6.82192">
        <ele>430.2</ele>
        <time>2017-12-10T09:25:05.999Z</time>
      </trkpt>
      <trkpt lat="47.47092" lon="6.82194">
        <ele>430.2</ele>
        <time>2017-12-10T09:25:06.999Z</time>
      </trkpt>
      <trkpt lat="47.47088" lon="6.82195">
        <ele>430.2</ele>
        <time>2017-12-10T09:25:07.999Z</time>
      </trkpt>
      <trkpt lat="47.47086" lon="6.82198">
        <ele>430.2</ele>
        <time>2017-12-10T09:25:08.999Z</time>
      </trkpt>
      <trkpt lat="47.47082" lon="6.82202">
        <ele>431.4</ele>
        <time>2017-12-10T09:25:09.999Z</time>
      </trkpt>
      <trkpt lat="47.47079" lon="6.82204">
        <ele>431.4</ele>
        <time>2017-12-10T09:25:10.999Z</time>
      </trkpt>
      <trkpt lat="47.47076" lon="6.82204">
        <ele>431.5</ele>
        <time>2017-12-10T09:25:11.999Z</time>
      </trkpt>
      <trkpt lat="47.47073" lon="6.82204">
        <ele>431.7</ele>
        <time>2017-12-10T09:25:12.999Z</time>
      </trkpt>
      <trkpt lat="47.47067" lon="6.82205">
        <ele>431.9</ele>
        <time>2017-12-10T09:25:13.999Z</time>
      </trkpt>
      <trkpt lat="47.47065" lon="6.82206">
        <ele>432.1</ele>
        <time>2017-12-10T09:25:14.999Z</time>
      </trkpt>
      <trkpt lat="47.47062" lon="6.82207">
        <ele>432.2</ele>
        <time>2017-12-10T09:25:15.999Z</time>
      </trkpt>
      <trkpt lat="47.47058" lon="6.82208">
        <ele>432.3</ele>
        <time>2017-12-10T09:25:16.999Z</time>
      </trkpt>
      <trkpt lat="47.47053" lon="6.82209">
        <ele>432.5</ele>
        <time>2017-12-10T09:25:17.999Z</time>
      </trkpt>
      <trkpt lat="47.47049" lon="6.82209">
        <ele>432.6</ele>
        <time>2017-12-10T09:25:18.999Z</time>
      </trkpt>
      <trkpt lat="47.47046" lon="6.82208">
        <ele>432.8</ele>
        <time>2017-12-10T09:25:19.999Z</time>
      </trkpt>
      <trkpt lat="47.47044" lon="6.82207">
        <ele>433</ele>
        <time>2017-12-10T09:25:20.999Z</time>
      </trkpt>
      <trkpt lat="47.47042" lon="6.82206">
        <ele>433.2</ele>
        <time>2017-12-10T09:25:21.999Z</time>
      </trkpt>
      <trkpt lat="47.47038" lon="6.82207">
        <ele>433.4</ele>
        <time>2017-12-10T09:25:22.999Z</time>
      </trkpt>
      <trkpt lat="47.47034" lon="6.82207">
        <ele>433.6</ele>
        <time>2017-12-10T09:25:23.999Z</time>
      </trkpt>
      <trkpt lat="47.47029" lon="6.82202">
        <ele>433.8</ele>
        <time>2017-12-10T09:25:24.999Z</time>
      </trkpt>
      <trkpt lat="47.47026" lon="6.822">
        <ele>433.9</ele>
        <time>2017-12-10T09:25:25.999Z</time>
      </trkpt>
      <trkpt lat="47.47022" lon="6.82199">
        <ele>434.1</ele>
        <time>2017-12-10T09:25:26.999Z</time>
      </trkpt>
      <trkpt lat="47.47019" lon="6.82199">
        <ele>434.2</ele>
        <time>2017-12-10T09:25:27.999Z</time>
      </trkpt>
      <trkpt lat="47.47014" lon="6.82197">
        <ele>434.3</ele>
        <time>2017-12-10T09:25:28.999Z</time>
      </trkpt>
      <trkpt lat="47.47011" lon="6.82196">
        <ele>434.5</ele>
        <time>2017-12-10T09:25:29.999Z</time>
      </trkpt>
      <trkpt lat="47.4701" lon="6.82194">
        <ele>434.5</ele>
        <time>2017-12-10T09:25:30.999Z</time>
      </trkpt>
      <trkpt lat="47.47006" lon="6.82193">
        <ele>434.5</ele>
        <time>2017-12-10T09:25:32.999Z</time>
      </trkpt>
      <trkpt lat="47.47004" lon="6.82192">
        <ele>434.6</ele>
        <time>2017-12-10T09:25:33.999Z</time>
      </trkpt>
      <trkpt lat="47.47002" lon="6.82192">
        <ele>434.6</ele>
        <time>2017-12-10T09:25:34.999Z</time>
      </trkpt>
      <trkpt lat="47.46999" lon="6.82192">
        <ele>434.6</ele>
        <time>2017-12-10T09:25:35.999Z</time>
      </trkpt>
      <trkpt lat="47.46995" lon="6.82191">
        <ele>434.6</ele>
        <time>2017-12-10T09:25:37.999Z</time>
      </trkpt>
      <trkpt lat="47.46992" lon="6.8219">
        <ele>434.5</ele>
        <time>2017-12-10T09:25:38.999Z</time>
      </trkpt>
      <trkpt lat="47.4699" lon="6.82189">
        <ele>434.5</ele>
        <time>2017-12-10T09:25:39.999Z</time>
      </trkpt>
      <trkpt lat="47.46987" lon="6.82187">
        <ele>434.4</ele>
        <time>2017-12-10T09:25:40.999Z</time>
      </trkpt>
      <trkpt lat="47.46982" lon="6.82185">
        <ele>434.3</ele>
        <time>2017-12-10T09:25:41.999Z</time>
      </trkpt>
      <trkpt lat="47.46979" lon="6.82184">
        <ele>434.2</ele>
        <time>2017-12-10T09:25:42.999Z</time>
      </trkpt>
      <trkpt lat="47.46976" lon="6.82183">
        <ele>434.2</ele>
        <time>2017-12-10T09:25:43.999Z</time>
      </trkpt>
      <trkpt lat="47.46974" lon="6.82181">
        <ele>434.2</ele>
        <time>2017-12-10T09:25:44.999Z</time>
      </trkpt>
      <trkpt lat="47.46971" lon="6.8218">
        <ele>434.1</ele>
        <time>2017-12-10T09:25:45.999Z</time>
      </trkpt>
      <trkpt lat="47.46966" lon="6.82179">
        <ele>434.1</ele>
        <time>2017-12-10T09:25:46.999Z</time>
      </trkpt>
      <trkpt lat="47.46963" lon="6.82179">
        <ele>434</ele>
        <time>2017-12-10T09:25:47.999Z</time>
      </trkpt>
      <trkpt lat="47.46958" lon="6.8218">
        <ele>434</ele>
        <time>2017-12-10T09:25:48.999Z</time>
      </trkpt>
      <trkpt lat="47.46954" lon="6.82181">
        <ele>434</ele>
        <time>2017-12-10T09:25:50.999Z</time>
      </trkpt>
      <trkpt lat="47.46952" lon="6.82181">
        <ele>434</ele>
        <time>2017-12-10T09:25:51.999Z</time>
      </trkpt>
      <trkpt lat="47.46949" lon="6.82181">
        <ele>434</ele>
        <time>2017-12-10T09:25:52.999Z</time>
      </trkpt>
      <trkpt lat="47.46946" lon="6.8218">
        <ele>433.9</ele>
        <time>2017-12-10T09:25:53.999Z</time>
      </trkpt>
      <trkpt lat="47.46944" lon="6.82179">
        <ele>433.9</ele>
        <time>2017-12-10T09:25:54.999Z</time>
      </trkpt>
      <trkpt lat="47.4694" lon="6.8218">
        <ele>433.8</ele>
        <time>2017-12-10T09:25:55.999Z</time>
      </trkpt>
      <trkpt lat="47.46938" lon="6.82181">
        <ele>433.8</ele>
        <time>2017-12-10T09:25:56.999Z</time>
      </trkpt>
      <trkpt lat="47.46933" lon="6.82182">
        <ele>433.8</ele>
        <time>2017-12-10T09:25:57.999Z</time>
      </trkpt>
      <trkpt lat="47.46931" lon="6.82183">
        <ele>433.7</ele>
        <time>2017-12-10T09:25:58.999Z</time>
      </trkpt>
      <trkpt lat="47.46929" lon="6.82181">
        <ele>433.5</ele>
        <time>2017-12-10T09:25:59.999Z</time>
      </trkpt>
      <trkpt lat="47.46925" lon="6.82178">
        <ele>433.2</ele>
        <time>2017-12-10T09:26:01.999Z</time>
      </trkpt>
      <trkpt lat="47.46924" lon="6.82177">
        <ele>432.9</ele>
        <time>2017-12-10T09:26:02.999Z</time>
      </trkpt>
      <trkpt lat="47.46921" lon="6.82176">
        <ele>432.7</ele>
        <time>2017-12-10T09:26:03.999Z</time>
      </trkpt>
      <trkpt lat="47.46917" lon="6.82175">
        <ele>432.5</ele>
        <time>2017-12-10T09:26:04.999Z</time>
      </trkpt>
      <trkpt lat="47.46913" lon="6.8217">
        <ele>432.3</ele>
        <time>2017-12-10T09:26:05.999Z</time>
      </trkpt>
      <trkpt lat="47.46911" lon="6.82166">
        <ele>432.1</ele>
        <time>2017-12-10T09:26:06.999Z</time>
      </trkpt>
      <trkpt lat="47.4691" lon="6.82163">
        <ele>432.1</ele>
        <time>2017-12-10T09:26:07.999Z</time>
      </trkpt>
      <trkpt lat="47.46907" lon="6.82162">
        <ele>432</ele>
        <time>2017-12-10T09:26:08.999Z</time>
      </trkpt>
      <trkpt lat="47.46905" lon="6.82162">
        <ele>431.9</ele>
        <time>2017-12-10T09:26:09.999Z</time>
      </trkpt>
      <trkpt lat="47.46901" lon="6.8216">
        <ele>431.9</ele>
        <time>2017-12-10T09:26:11.999Z</time>
      </trkpt>
      <trkpt lat="47.46899" lon="6.82158">
        <ele>432</ele>
        <time>2017-12-10T09:26:12.999Z</time>
      </trkpt>
      <trkpt lat="47.46895" lon="6.82154">
        <ele>432</ele>
        <time>2017-12-10T09:26:13.999Z</time>
      </trkpt>
      <trkpt lat="47.46893" lon="6.82152">
        <ele>432.1</ele>
        <time>2017-12-10T09:26:14.999Z</time>
      </trkpt>
      <trkpt lat="47.46889" lon="6.82148">
        <ele>432.1</ele>
        <time>2017-12-10T09:26:15.999Z</time>
      </trkpt>
      <trkpt lat="47.46887" lon="6.82145">
        <ele>432.1</ele>
        <time>2017-12-10T09:26:17.999Z</time>
      </trkpt>
      <trkpt lat="47.46885" lon="6.82144">
        <ele>432.1</ele>
        <time>2017-12-10T09:26:18.999Z</time>
      </trkpt>
      <trkpt lat="47.46883" lon="6.82143">
        <ele>432.1</ele>
        <time>2017-12-10T09:26:19.999Z</time>
      </trkpt>
      <trkpt lat="47.4688" lon="6.82141">
        <ele>432</ele>
        <time>2017-12-10T09:26:20.999Z</time>
      </trkpt>
      <trkpt lat="47.46878" lon="6.8214">
        <ele>432.1</ele>
        <time>2017-12-10T09:26:21.999Z</time>
      </trkpt>
      <trkpt lat="47.46874" lon="6.82137">
        <ele>432.2</ele>
        <time>2017-12-10T09:26:22.999Z</time>
      </trkpt>
      <trkpt lat="47.4687" lon="6.82133">
        <ele>432</ele>
        <time>2017-12-10T09:26:25.999Z</time>
      </trkpt>
      <trkpt lat="47.46869" lon="6.82133">
        <ele>432</ele>
        <time>2017-12-10T09:26:26.999Z</time>
      </trkpt>
      <trkpt lat="47.46866" lon="6.82131">
        <ele>431.8</ele>
        <time>2017-12-10T09:26:28.999Z</time>
      </trkpt>
      <trkpt lat="47.46864" lon="6.82127">
        <ele>431.8</ele>
        <time>2017-12-10T09:26:29.999Z</time>
      </trkpt>
      <trkpt lat="47.46861" lon="6.82124">
        <ele>432</ele>
        <time>2017-12-10T09:26:32.999Z</time>
      </trkpt>
      <trkpt lat="47.46859" lon="6.82121">
        <ele>432.1</ele>
        <time>2017-12-10T09:26:33.999Z</time>
      </trkpt>
      <trkpt lat="47.46857" lon="6.82117">
        <ele>432.2</ele>
        <time>2017-12-10T09:26:35.999Z</time>
      </trkpt>
      <trkpt lat="47.46854" lon="6.82113">
        <ele>432.2</ele>
        <time>2017-12-10T09:26:36.999Z</time>
      </trkpt>
      <trkpt lat="47.46851" lon="6.8211">
        <ele>432.3</ele>
        <time>2017-12-10T09:26:38.999Z</time>
      </trkpt>
      <trkpt lat="47.46847" lon="6.82108">
        <ele>432.4</ele>
        <time>2017-12-10T09:26:39.999Z</time>
      </trkpt>
      <trkpt lat="47.46845" lon="6.82107">
        <ele>432.5</ele>
        <time>2017-12-10T09:26:41.999Z</time>
      </trkpt>
      <trkpt lat="47.46842" lon="6.82107">
        <ele>432.6</ele>
        <time>2017-12-10T09:26:42.999Z</time>
      </trkpt>
      <trkpt lat="47.46837" lon="6.82104">
        <ele>432.7</ele>
        <time>2017-12-10T09:26:43.999Z</time>
      </trkpt>
      <trkpt lat="47.46836" lon="6.82103">
        <ele>432.9</ele>
        <time>2017-12-10T09:26:44.999Z</time>
      </trkpt>
      <trkpt lat="47.46833" lon="6.82101">
        <ele>433.3</ele>
        <time>2017-12-10T09:26:46.999Z</time>
      </trkpt>
      <trkpt lat="47.46831" lon="6.821">
        <ele>433.5</ele>
        <time>2017-12-10T09:26:47.999Z</time>
      </trkpt>
      <trkpt lat="47.4683" lon="6.82099">
        <ele>433.7</ele>
        <time>2017-12-10T09:26:48.999Z</time>
      </trkpt>
      <trkpt lat="47.46827" lon="6.82097">
        <ele>433.9</ele>
        <time>2017-12-10T09:26:49.999Z</time>
      </trkpt>
      <trkpt lat="47.46823" lon="6.82095">
        <ele>434.2</ele>
        <time>2017-12-10T09:26:51.999Z</time>
      </trkpt>
      <trkpt lat="47.46819" lon="6.8209">
        <ele>434.4</ele>
        <time>2017-12-10T09:26:52.999Z</time>
      </trkpt>
      <trkpt lat="47.46815" lon="6.82087">
        <ele>434.6</ele>
        <time>2017-12-10T09:26:54.999Z</time>
      </trkpt>
      <trkpt lat="47.46813" lon="6.82086">
        <ele>434.7</ele>
        <time>2017-12-10T09:26:55.999Z</time>
      </trkpt>
      <trkpt lat="47.46809" lon="6.82083">
        <ele>434.8</ele>
        <time>2017-12-10T09:26:57.999Z</time>
      </trkpt>
      <trkpt lat="47.46807" lon="6.82082">
        <ele>434.9</ele>
        <time>2017-12-10T09:26:58.999Z</time>
      </trkpt>
      <trkpt lat="47.46804" lon="6.8208">
        <ele>435</ele>
        <time>2017-12-10T09:26:59.999Z</time>
      </trkpt>
      <trkpt lat="47.468" lon="6.82076">
        <ele>435</ele>
        <time>2017-12-10T09:27:00.999Z</time>
      </trkpt>
      <trkpt lat="47.46798" lon="6.82074">
        <ele>435</ele>
        <time>2017-12-10T09:27:01.999Z</time>
      </trkpt>
      <trkpt lat="47.46795" lon="6.82068">
        <ele>434.9</ele>
        <time>2017-12-10T09:27:02.999Z</time>
      </trkpt>
      <trkpt lat="47.46792" lon="6.82066">
        <ele>434.8</ele>
        <time>2017-12-10T09:27:03.999Z</time>
      </trkpt>
      <trkpt lat="47.4679" lon="6.82064">
        <ele>434.8</ele>
        <time>2017-12-10T09:27:04.999Z</time>
      </trkpt>
      <trkpt lat="47.46787" lon="6.82061">
        <ele>435</ele>
        <time>2017-12-10T09:27:05.999Z</time>
      </trkpt>
      <trkpt lat="47.46785" lon="6.8206">
        <ele>435</ele>
        <time>2017-12-10T09:27:06.999Z</time>
      </trkpt>
      <trkpt lat="47.46782" lon="6.82058">
        <ele>435</ele>
        <time>2017-12-10T09:27:07.999Z</time>
      </trkpt>
      <trkpt lat="47.46777" lon="6.82055">
        <ele>434.9</ele>
        <time>2017-12-10T09:27:08.999Z</time>
      </trkpt>
      <trkpt lat="47.46773" lon="6.82052">
        <ele>434.9</ele>
        <time>2017-12-10T09:27:09.999Z</time>
      </trkpt>
      <trkpt lat="47.46767" lon="6.8205">
        <ele>434.8</ele>
        <time>2017-12-10T09:27:10.999Z</time>
      </trkpt>
      <trkpt lat="47.46764" lon="6.82048">
        <ele>434.7</ele>
        <time>2017-12-10T09:27:11.999Z</time>
      </trkpt>
      <trkpt lat="47.4676" lon="6.82046">
        <ele>434.7</ele>
        <time>2017-12-10T09:27:12.999Z</time>
      </trkpt>
      <trkpt lat="47.46755" lon="6.82042">
        <ele>434.7</ele>
        <time>2017-12-10T09:27:13.999Z</time>
      </trkpt>
      <trkpt lat="47.46751" lon="6.82039">
        <ele>434.6</ele>
        <time>2017-12-10T09:27:14.999Z</time>
      </trkpt>
      <trkpt lat="47.46748" lon="6.82036">
        <ele>434.3</ele>
        <time>2017-12-10T09:27:15.999Z</time>
      </trkpt>
      <trkpt lat="47.46745" lon="6.82035">
        <ele>434.4</ele>
        <time>2017-12-10T09:27:16.999Z</time>
      </trkpt>
      <trkpt lat="47.46742" lon="6.82033">
        <ele>434.4</ele>
        <time>2017-12-10T09:27:17.999Z</time>
      </trkpt>
      <trkpt lat="47.46739" lon="6.82031">
        <ele>434.4</ele>
        <time>2017-12-10T09:27:18.999Z</time>
      </trkpt>
      <trkpt lat="47.46736" lon="6.82028">
        <ele>434.5</ele>
        <time>2017-12-10T09:27:19.999Z</time>
      </trkpt>
      <trkpt lat="47.46734" lon="6.82026">
        <ele>434.6</ele>
        <time>2017-12-10T09:27:20.999Z</time>
      </trkpt>
      <trkpt lat="47.46732" lon="6.82024">
        <ele>434.6</ele>
        <time>2017-12-10T09:27:21.999Z</time>
      </trkpt>
      <trkpt lat="47.46729" lon="6.82023">
        <ele>434.7</ele>
        <time>2017-12-10T09:27:22.999Z</time>
      </trkpt>
      <trkpt lat="47.46727" lon="6.82022">
        <ele>434.7</ele>
        <time>2017-12-10T09:27:23.999Z</time>
      </trkpt>
      <trkpt lat="47.46724" lon="6.82022">
        <ele>434.8</ele>
        <time>2017-12-10T09:27:24.999Z</time>
      </trkpt>
      <trkpt lat="47.46721" lon="6.82021">
        <ele>434.9</ele>
        <time>2017-12-10T09:27:25.999Z</time>
      </trkpt>
      <trkpt lat="47.46718" lon="6.82021">
        <ele>435</ele>
        <time>2017-12-10T09:27:26.999Z</time>
      </trkpt>
      <trkpt lat="47.46715" lon="6.8202">
        <ele>435.1</ele>
        <time>2017-12-10T09:27:27.999Z</time>
      </trkpt>
      <trkpt lat="47.46711" lon="6.82021">
        <ele>435.4</ele>
        <time>2017-12-10T09:27:29.999Z</time>
      </trkpt>
      <trkpt lat="47.4671" lon="6.82021">
        <ele>435.5</ele>
        <time>2017-12-10T09:27:30.999Z</time>
      </trkpt>
      <trkpt lat="47.46709" lon="6.82019">
        <ele>435.5</ele>
        <time>2017-12-10T09:27:34.999Z</time>
      </trkpt>
      <trkpt lat="47.46707" lon="6.82014">
        <ele>435.6</ele>
        <time>2017-12-10T09:27:35.999Z</time>
      </trkpt>
      <trkpt lat="47.46706" lon="6.82009">
        <ele>435.7</ele>
        <time>2017-12-10T09:27:36.999Z</time>
      </trkpt>
      <trkpt lat="47.46703" lon="6.82004">
        <ele>435.7</ele>
        <time>2017-12-10T09:27:37.999Z</time>
      </trkpt>
      <trkpt lat="47.46701" lon="6.82001">
        <ele>435.7</ele>
        <time>2017-12-10T09:27:39.999Z</time>
      </trkpt>
      <trkpt lat="47.46699" lon="6.81998">
        <ele>435.6</ele>
        <time>2017-12-10T09:27:40.999Z</time>
      </trkpt>
      <trkpt lat="47.46696" lon="6.81993">
        <ele>435.5</ele>
        <time>2017-12-10T09:27:43.999Z</time>
      </trkpt>
      <trkpt lat="47.46694" lon="6.81992">
        <ele>435.6</ele>
        <time>2017-12-10T09:27:44.999Z</time>
      </trkpt>
      <trkpt lat="47.46691" lon="6.8199">
        <ele>435.6</ele>
        <time>2017-12-10T09:27:45.999Z</time>
      </trkpt>
      <trkpt lat="47.46686" lon="6.8199">
        <ele>435.6</ele>
        <time>2017-12-10T09:27:46.999Z</time>
      </trkpt>
      <trkpt lat="47.46682" lon="6.81992">
        <ele>435.9</ele>
        <time>2017-12-10T09:27:49.999Z</time>
      </trkpt>
      <trkpt lat="47.4668" lon="6.81991">
        <ele>436</ele>
        <time>2017-12-10T09:27:50.999Z</time>
      </trkpt>
      <trkpt lat="47.46676" lon="6.81989">
        <ele>436.4</ele>
        <time>2017-12-10T09:27:52.999Z</time>
      </trkpt>
      <trkpt lat="47.46674" lon="6.81988">
        <ele>436.6</ele>
        <time>2017-12-10T09:27:53.999Z</time>
      </trkpt>
      <trkpt lat="47.46672" lon="6.81988">
        <ele>436.8</ele>
        <time>2017-12-10T09:27:54.999Z</time>
      </trkpt>
      <trkpt lat="47.46667" lon="6.81988">
        <ele>436.9</ele>
        <time>2017-12-10T09:27:55.999Z</time>
      </trkpt>
      <trkpt lat="47.46663" lon="6.81988">
        <ele>437</ele>
        <time>2017-12-10T09:27:56.999Z</time>
      </trkpt>
      <trkpt lat="47.46659" lon="6.81992">
        <ele>437.5</ele>
        <time>2017-12-10T09:28:02.999Z</time>
      </trkpt>
      <trkpt lat="47.46657" lon="6.81995">
        <ele>437.5</ele>
        <time>2017-12-10T09:28:03.999Z</time>
      </trkpt>
      <trkpt lat="47.46654" lon="6.82">
        <ele>438.2</ele>
        <time>2017-12-10T09:28:24.999Z</time>
      </trkpt>
      <trkpt lat="47.46654" lon="6.82">
        <ele>438.2</ele>
        <time>2017-12-10T09:28:25.999Z</time>
      </trkpt>
      <trkpt lat="47.46653" lon="6.82002">
        <ele>438.2</ele>
        <time>2017-12-10T09:28:28.999Z</time>
      </trkpt>
      <trkpt lat="47.46652" lon="6.82008">
        <ele>438.2</ele>
        <time>2017-12-10T09:28:29.999Z</time>
      </trkpt>
      <trkpt lat="47.46652" lon="6.82015">
        <ele>438.1</ele>
        <time>2017-12-10T09:28:30.999Z</time>
      </trkpt>
      <trkpt lat="47.46653" lon="6.82021">
        <ele>437.9</ele>
        <time>2017-12-10T09:28:31.999Z</time>
      </trkpt>
      <trkpt lat="47.46652" lon="6.82027">
        <ele>437.7</ele>
        <time>2017-12-10T09:28:32.999Z</time>
      </trkpt>
      <trkpt lat="47.46651" lon="6.82033">
        <ele>437.5</ele>
        <time>2017-12-10T09:28:33.999Z</time>
      </trkpt>
      <trkpt lat="47.46649" lon="6.82038">
        <ele>437.3</ele>
        <time>2017-12-10T09:28:34.999Z</time>
      </trkpt>
      <trkpt lat="47.46648" lon="6.82039">
        <ele>437</ele>
        <time>2017-12-10T09:28:35.999Z</time>
      </trkpt>
      <trkpt lat="47.46646" lon="6.82044">
        <ele>436.7</ele>
        <time>2017-12-10T09:28:36.999Z</time>
      </trkpt>
      <trkpt lat="47.46643" lon="6.82047">
        <ele>435.7</ele>
        <time>2017-12-10T09:28:39.999Z</time>
      </trkpt>
      <trkpt lat="47.4664" lon="6.82048">
        <ele>435.4</ele>
        <time>2017-12-10T09:28:40.999Z</time>
      </trkpt>
      <trkpt lat="47.46637" lon="6.82049">
        <ele>435.2</ele>
        <time>2017-12-10T09:28:41.999Z</time>
      </trkpt>
      <trkpt lat="47.46635" lon="6.82048">
        <ele>434.9</ele>
        <time>2017-12-10T09:28:42.999Z</time>
      </trkpt>
      <trkpt lat="47.46631" lon="6.82045">
        <ele>430.9</ele>
        <time>2017-12-10T09:28:43.999Z</time>
      </trkpt>
      <trkpt lat="47.46627" lon="6.82044">
        <ele>430.5</ele>
        <time>2017-12-10T09:28:44.999Z</time>
      </trkpt>
      <trkpt lat="47.46621" lon="6.82042">
        <ele>430.3</ele>
        <time>2017-12-10T09:28:45.999Z</time>
      </trkpt>
      <trkpt lat="47.46618" lon="6.8204">
        <ele>429.9</ele>
        <time>2017-12-10T09:28:46.999Z</time>
      </trkpt>
      <trkpt lat="47.46616" lon="6.82037">
        <ele>429.6</ele>
        <time>2017-12-10T09:28:47.999Z</time>
      </trkpt>
      <trkpt lat="47.46613" lon="6.82033">
        <ele>429.4</ele>
        <time>2017-12-10T09:28:48.999Z</time>
      </trkpt>
      <trkpt lat="47.4661" lon="6.82028">
        <ele>429.2</ele>
        <time>2017-12-10T09:28:49.999Z</time>
      </trkpt>
      <trkpt lat="47.46606" lon="6.82024">
        <ele>428.9</ele>
        <time>2017-12-10T09:28:50.999Z</time>
      </trkpt>
      <trkpt lat="47.46602" lon="6.8202">
        <ele>428.6</ele>
        <time>2017-12-10T09:28:51.999Z</time>
      </trkpt>
      <trkpt lat="47.46599" lon="6.82018">
        <ele>428.4</ele>
        <time>2017-12-10T09:28:52.999Z</time>
      </trkpt>
      <trkpt lat="47.46597" lon="6.82015">
        <ele>428.2</ele>
        <time>2017-12-10T09:28:53.999Z</time>
      </trkpt>
      <trkpt lat="47.46594" lon="6.82013">
        <ele>427.9</ele>
        <time>2017-12-10T09:28:54.999Z</time>
      </trkpt>
      <trkpt lat="47.46592" lon="6.82012">
        <ele>427.8</ele>
        <time>2017-12-10T09:28:55.999Z</time>
      </trkpt>
      <trkpt lat="47.46589" lon="6.82011">
        <ele>427.5</ele>
        <time>2017-12-10T09:28:56.999Z</time>
      </trkpt>
      <trkpt lat="47.46585" lon="6.82006">
        <ele>427.3</ele>
        <time>2017-12-10T09:28:57.999Z</time>
      </trkpt>
      <trkpt lat="47.46582" lon="6.82005">
        <ele>427.2</ele>
        <time>2017-12-10T09:28:58.999Z</time>
      </trkpt>
      <trkpt lat="47.46578" lon="6.82002">
        <ele>426.9</ele>
        <time>2017-12-10T09:28:59.999Z</time>
      </trkpt>
      <trkpt lat="47.46575" lon="6.82001">
        <ele>426.6</ele>
        <time>2017-12-10T09:29:00.999Z</time>
      </trkpt>
      <trkpt lat="47.46572" lon="6.82">
        <ele>426.3</ele>
        <time>2017-12-10T09:29:01.999Z</time>
      </trkpt>
      <trkpt lat="47.46568" lon="6.81999">
        <ele>426.1</ele>
        <time>2017-12-10T09:29:02.999Z</time>
      </trkpt>
      <trkpt lat="47.46563" lon="6.82">
        <ele>425.8</ele>
        <time>2017-12-10T09:29:03.999Z</time>
      </trkpt>
      <trkpt lat="47.46559" lon="6.82">
        <ele>425.3</ele>
        <time>2017-12-10T09:29:05.999Z</time>
      </trkpt>
      <trkpt lat="47.46557" lon="6.81999">
        <ele>425</ele>
        <time>2017-12-10T09:29:06.999Z</time>
      </trkpt>
      <trkpt lat="47.46555" lon="6.81996">
        <ele>424.7</ele>
        <time>2017-12-10T09:29:08.999Z</time>
      </trkpt>
      <trkpt lat="47.46551" lon="6.81994">
        <ele>424.6</ele>
        <time>2017-12-10T09:29:09.999Z</time>
      </trkpt>
      <trkpt lat="47.46548" lon="6.8199">
        <ele>424.6</ele>
        <time>2017-12-10T09:29:10.999Z</time>
      </trkpt>
      <trkpt lat="47.46545" lon="6.81986">
        <ele>424.6</ele>
        <time>2017-12-10T09:29:11.999Z</time>
      </trkpt>
      <trkpt lat="47.46549" lon="6.81984">
        <ele>426.3</ele>
        <time>2017-12-10T09:29:21.999Z</time>
      </trkpt>
      <trkpt lat="47.46552" lon="6.81986">
        <ele>426.6</ele>
        <time>2017-12-10T09:29:22.999Z</time>
      </trkpt>
      <trkpt lat="47.46555" lon="6.81986">
        <ele>427.5</ele>
        <time>2017-12-10T09:29:26.999Z</time>
      </trkpt>
      <trkpt lat="47.46556" lon="6.81984">
        <ele>427.8</ele>
        <time>2017-12-10T09:29:27.999Z</time>
      </trkpt>
      <trkpt lat="47.46558" lon="6.81978">
        <ele>428.4</ele>
        <time>2017-12-10T09:29:29.999Z</time>
      </trkpt>
      <trkpt lat="47.46559" lon="6.81974">
        <ele>428.7</ele>
        <time>2017-12-10T09:29:30.999Z</time>
      </trkpt>
      <trkpt lat="47.46561" lon="6.8197">
        <ele>429</ele>
        <time>2017-12-10T09:29:31.999Z</time>
      </trkpt>
      <trkpt lat="47.46564" lon="6.81964">
        <ele>429.3</ele>
        <time>2017-12-10T09:29:32.999Z</time>
      </trkpt>
      <trkpt lat="47.46567" lon="6.81961">
        <ele>429.7</ele>
        <time>2017-12-10T09:29:33.999Z</time>
      </trkpt>
      <trkpt lat="47.4657" lon="6.81959">
        <ele>430</ele>
        <time>2017-12-10T09:29:34.999Z</time>
      </trkpt>
      <trkpt lat="47.46574" lon="6.81956">
        <ele>430.3</ele>
        <time>2017-12-10T09:29:35.999Z</time>
      </trkpt>
      <trkpt lat="47.46577" lon="6.81953">
        <ele>430.6</ele>
        <time>2017-12-10T09:29:36.999Z</time>
      </trkpt>
      <trkpt lat="47.46579" lon="6.81951">
        <ele>430.8</ele>
        <time>2017-12-10T09:29:37.999Z</time>
      </trkpt>
      <trkpt lat="47.4658" lon="6.81948">
        <ele>431.1</ele>
        <time>2017-12-10T09:29:38.999Z</time>
      </trkpt>
      <trkpt lat="47.46582" lon="6.81945">
        <ele>431.2</ele>
        <time>2017-12-10T09:29:39.999Z</time>
      </trkpt>
      <trkpt lat="47.46584" lon="6.81943">
        <ele>431.5</ele>
        <time>2017-12-10T09:29:40.999Z</time>
      </trkpt>
      <trkpt lat="47.46586" lon="6.8194">
        <ele>431.8</ele>
        <time>2017-12-10T09:29:41.999Z</time>
      </trkpt>
      <trkpt lat="47.46588" lon="6.81937">
        <ele>432.1</ele>
        <time>2017-12-10T09:29:42.999Z</time>
      </trkpt>
      <trkpt lat="47.4659" lon="6.81934">
        <ele>432.3</ele>
        <time>2017-12-10T09:29:43.999Z</time>
      </trkpt>
      <trkpt lat="47.46592" lon="6.81931">
        <ele>432.6</ele>
        <time>2017-12-10T09:29:44.999Z</time>
      </trkpt>
      <trkpt lat="47.46594" lon="6.81929">
        <ele>432.8</ele>
        <time>2017-12-10T09:29:45.999Z</time>
      </trkpt>
      <trkpt lat="47.46596" lon="6.81926">
        <ele>433.1</ele>
        <time>2017-12-10T09:29:46.999Z</time>
      </trkpt>
      <trkpt lat="47.46597" lon="6.81922">
        <ele>433.3</ele>
        <time>2017-12-10T09:29:47.999Z</time>
      </trkpt>
      <trkpt lat="47.46598" lon="6.81919">
        <ele>433.6</ele>
        <time>2017-12-10T09:29:48.999Z</time>
      </trkpt>
      <trkpt lat="47.466" lon="6.81917">
        <ele>433.7</ele>
        <time>2017-12-10T09:29:49.999Z</time>
      </trkpt>
      <trkpt lat="47.46602" lon="6.81914">
        <ele>433.9</ele>
        <time>2017-12-10T09:29:50.999Z</time>
      </trkpt>
      <trkpt lat="47.46603" lon="6.8191">
        <ele>434</ele>
        <time>2017-12-10T09:29:51.999Z</time>
      </trkpt>
      <trkpt lat="47.46605" lon="6.81907">
        <ele>434.2</ele>
        <time>2017-12-10T09:29:52.999Z</time>
      </trkpt>
      <trkpt lat="47.46606" lon="6.81904">
        <ele>434.4</ele>
        <time>2017-12-10T09:29:53.999Z</time>
      </trkpt>
      <trkpt lat="47.46608" lon="6.81899">
        <ele>434.6</ele>
        <time>2017-12-10T09:29:55.999Z</time>
      </trkpt>
      <trkpt lat="47.46609" lon="6.81896">
        <ele>434.8</ele>
        <time>2017-12-10T09:29:56.999Z</time>
      </trkpt>
      <trkpt lat="47.46612" lon="6.81891">
        <ele>435.2</ele>
        <time>2017-12-10T09:29:58.999Z</time>
      </trkpt>
      <trkpt lat="47.46613" lon="6.81889">
        <ele>435.3</ele>
        <time>2017-12-10T09:29:59.999Z</time>
      </trkpt>
      <trkpt lat="47.46614" lon="6.81886">
        <ele>435.4</ele>
        <time>2017-12-10T09:30:00.999Z</time>
      </trkpt>
      <trkpt lat="47.46617" lon="6.81882">
        <ele>435.5</ele>
        <time>2017-12-10T09:30:01.999Z</time>
      </trkpt>
      <trkpt lat="47.46618" lon="6.81878">
        <ele>435.7</ele>
        <time>2017-12-10T09:30:02.999Z</time>
      </trkpt>
      <trkpt lat="47.4662" lon="6.81875">
        <ele>436</ele>
        <time>2017-12-10T09:30:03.999Z</time>
      </trkpt>
      <trkpt lat="47.46623" lon="6.81871">
        <ele>436.2</ele>
        <time>2017-12-10T09:30:04.999Z</time>
      </trkpt>
      <trkpt lat="47.46625" lon="6.81868">
        <ele>436.4</ele>
        <time>2017-12-10T09:30:05.999Z</time>
      </trkpt>
      <trkpt lat="47.46627" lon="6.81864">
        <ele>436.7</ele>
        <time>2017-12-10T09:30:06.999Z</time>
      </trkpt>
      <trkpt lat="47.46628" lon="6.8186">
        <ele>436.9</ele>
        <time>2017-12-10T09:30:07.999Z</time>
      </trkpt>
      <trkpt lat="47.46631" lon="6.81857">
        <ele>437.2</ele>
        <time>2017-12-10T09:30:08.999Z</time>
      </trkpt>
      <trkpt lat="47.46632" lon="6.81852">
        <ele>437.4</ele>
        <time>2017-12-10T09:30:09.999Z</time>
      </trkpt>
      <trkpt lat="47.46634" lon="6.81846">
        <ele>437.6</ele>
        <time>2017-12-10T09:30:10.999Z</time>
      </trkpt>
      <trkpt lat="47.46635" lon="6.81842">
        <ele>437.8</ele>
        <time>2017-12-10T09:30:11.999Z</time>
      </trkpt>
      <trkpt lat="47.46636" lon="6.8184">
        <ele>437.9</ele>
        <time>2017-12-10T09:30:12.999Z</time>
      </trkpt>
      <trkpt lat="47.46638" lon="6.81837">
        <ele>438.3</ele>
        <time>2017-12-10T09:30:14.999Z</time>
      </trkpt>
      <trkpt lat="47.4664" lon="6.81835">
        <ele>438.5</ele>
        <time>2017-12-10T09:30:15.999Z</time>
      </trkpt>
      <trkpt lat="47.46643" lon="6.81831">
        <ele>438.7</ele>
        <time>2017-12-10T09:30:16.999Z</time>
      </trkpt>
      <trkpt lat="47.46644" lon="6.81829">
        <ele>438.9</ele>
        <time>2017-12-10T09:30:17.999Z</time>
      </trkpt>
      <trkpt lat="47.46646" lon="6.81825">
        <ele>439.5</ele>
        <time>2017-12-10T09:30:21.999Z</time>
      </trkpt>
      <trkpt lat="47.46647" lon="6.81823">
        <ele>439.7</ele>
        <time>2017-12-10T09:30:22.999Z</time>
      </trkpt>
      <trkpt lat="47.46649" lon="6.81819">
        <ele>439.8</ele>
        <time>2017-12-10T09:30:23.999Z</time>
      </trkpt>
      <trkpt lat="47.4665" lon="6.81817">
        <ele>440</ele>
        <time>2017-12-10T09:30:24.999Z</time>
      </trkpt>
      <trkpt lat="47.46651" lon="6.81813">
        <ele>440.3</ele>
        <time>2017-12-10T09:30:26.999Z</time>
      </trkpt>
      <trkpt lat="47.46651" lon="6.8181">
        <ele>440.5</ele>
        <time>2017-12-10T09:30:27.999Z</time>
      </trkpt>
      <trkpt lat="47.46653" lon="6.81805">
        <ele>440.7</ele>
        <time>2017-12-10T09:30:29.999Z</time>
      </trkpt>
      <trkpt lat="47.46654" lon="6.81803">
        <ele>440.7</ele>
        <time>2017-12-10T09:30:30.999Z</time>
      </trkpt>
      <trkpt lat="47.46656" lon="6.818">
        <ele>440.8</ele>
        <time>2017-12-10T09:30:31.999Z</time>
      </trkpt>
      <trkpt lat="47.46656" lon="6.81797">
        <ele>440.9</ele>
        <time>2017-12-10T09:30:32.999Z</time>
      </trkpt>
      <trkpt lat="47.46657" lon="6.81793">
        <ele>440.9</ele>
        <time>2017-12-10T09:30:33.999Z</time>
      </trkpt>
      <trkpt lat="47.46658" lon="6.8179">
        <ele>441</ele>
        <time>2017-12-10T09:30:34.999Z</time>
      </trkpt>
      <trkpt lat="47.46659" lon="6.81787">
        <ele>441.1</ele>
        <time>2017-12-10T09:30:35.999Z</time>
      </trkpt>
      <trkpt lat="47.46659" lon="6.81784">
        <ele>441.1</ele>
        <time>2017-12-10T09:30:36.999Z</time>
      </trkpt>
      <trkpt lat="47.4666" lon="6.8178">
        <ele>441.2</ele>
        <time>2017-12-10T09:30:37.999Z</time>
      </trkpt>
      <trkpt lat="47.4666" lon="6.81777">
        <ele>441.2</ele>
        <time>2017-12-10T09:30:38.999Z</time>
      </trkpt>
      <trkpt lat="47.46661" lon="6.81773">
        <ele>441.3</ele>
        <time>2017-12-10T09:30:39.999Z</time>
      </trkpt>
      <trkpt lat="47.46662" lon="6.8177">
        <ele>441.3</ele>
        <time>2017-12-10T09:30:40.999Z</time>
      </trkpt>
      <trkpt lat="47.46663" lon="6.81767">
        <ele>441.3</ele>
        <time>2017-12-10T09:30:41.999Z</time>
      </trkpt>
      <trkpt lat="47.46664" lon="6.81764">
        <ele>441.3</ele>
        <time>2017-12-10T09:30:42.999Z</time>
      </trkpt>
      <trkpt lat="47.46666" lon="6.81758">
        <ele>441.2</ele>
        <time>2017-12-10T09:30:44.999Z</time>
      </trkpt>
      <trkpt lat="47.46667" lon="6.81755">
        <ele>441.1</ele>
        <time>2017-12-10T09:30:45.999Z</time>
      </trkpt>
      <trkpt lat="47.46669" lon="6.8175">
        <ele>440.9</ele>
        <time>2017-12-10T09:30:47.999Z</time>
      </trkpt>
      <trkpt lat="47.4667" lon="6.81748">
        <ele>440.8</ele>
        <time>2017-12-10T09:30:48.999Z</time>
      </trkpt>
      <trkpt lat="47.46672" lon="6.81743">
        <ele>440.7</ele>
        <time>2017-12-10T09:30:50.999Z</time>
      </trkpt>
      <trkpt lat="47.46672" lon="6.8174">
        <ele>440.7</ele>
        <time>2017-12-10T09:30:51.999Z</time>
      </trkpt>
      <trkpt lat="47.46674" lon="6.81734">
        <ele>440.6</ele>
        <time>2017-12-10T09:30:53.999Z</time>
      </trkpt>
      <trkpt lat="47.46675" lon="6.81731">
        <ele>440.6</ele>
        <time>2017-12-10T09:30:54.999Z</time>
      </trkpt>
      <trkpt lat="47.46676" lon="6.81728">
        <ele>440.6</ele>
        <time>2017-12-10T09:30:55.999Z</time>
      </trkpt>
      <trkpt lat="47.46676" lon="6.81725">
        <ele>440.5</ele>
        <time>2017-12-10T09:30:56.999Z</time>
      </trkpt>
      <trkpt lat="47.46678" lon="6.8172">
        <ele>440.5</ele>
        <time>2017-12-10T09:30:58.999Z</time>
      </trkpt>
      <trkpt lat="47.46679" lon="6.81717">
        <ele>440.5</ele>
        <time>2017-12-10T09:30:59.999Z</time>
      </trkpt>
      <trkpt lat="47.4668" lon="6.81713">
        <ele>440.5</ele>
        <time>2017-12-10T09:31:00.999Z</time>
      </trkpt>
      <trkpt lat="47.46681" lon="6.81709">
        <ele>440.5</ele>
        <time>2017-12-10T09:31:01.999Z</time>
      </trkpt>
      <trkpt lat="47.46682" lon="6.81705">
        <ele>440.5</ele>
        <time>2017-12-10T09:31:02.999Z</time>
      </trkpt>
      <trkpt lat="47.46684" lon="6.81701">
        <ele>440.5</ele>
        <time>2017-12-10T09:31:03.999Z</time>
      </trkpt>
      <trkpt lat="47.46685" lon="6.81697">
        <ele>440.5</ele>
        <time>2017-12-10T09:31:04.999Z</time>
      </trkpt>
      <trkpt lat="47.46686" lon="6.81694">
        <ele>440.5</ele>
        <time>2017-12-10T09:31:05.999Z</time>
      </trkpt>
      <trkpt lat="47.46687" lon="6.81691">
        <ele>440.5</ele>
        <time>2017-12-10T09:31:06.999Z</time>
      </trkpt>
      <trkpt lat="47.46689" lon="6.81688">
        <ele>440.5</ele>
        <time>2017-12-10T09:31:07.999Z</time>
      </trkpt>
      <trkpt lat="47.4669" lon="6.81684">
        <ele>440.5</ele>
        <time>2017-12-10T09:31:08.999Z</time>
      </trkpt>
      <trkpt lat="47.46691" lon="6.81681">
        <ele>440.6</ele>
        <time>2017-12-10T09:31:09.999Z</time>
      </trkpt>
      <trkpt lat="47.46692" lon="6.81678">
        <ele>440.6</ele>
        <time>2017-12-10T09:31:10.999Z</time>
      </trkpt>
      <trkpt lat="47.46693" lon="6.81671">
        <ele>440.6</ele>
        <time>2017-12-10T09:31:11.999Z</time>
      </trkpt>
      <trkpt lat="47.46694" lon="6.81664">
        <ele>440.8</ele>
        <time>2017-12-10T09:31:13.999Z</time>
      </trkpt>
      <trkpt lat="47.46694" lon="6.81661">
        <ele>440.9</ele>
        <time>2017-12-10T09:31:14.999Z</time>
      </trkpt>
      <trkpt lat="47.46695" lon="6.81658">
        <ele>441</ele>
        <time>2017-12-10T09:31:15.999Z</time>
      </trkpt>
      <trkpt lat="47.46696" lon="6.81654">
        <ele>441.1</ele>
        <time>2017-12-10T09:31:16.999Z</time>
      </trkpt>
      <trkpt lat="47.46696" lon="6.81651">
        <ele>441.2</ele>
        <time>2017-12-10T09:31:17.999Z</time>
      </trkpt>
      <trkpt lat="47.46697" lon="6.81647">
        <ele>441.4</ele>
        <time>2017-12-10T09:31:18.999Z</time>
      </trkpt>
      <trkpt lat="47.46699" lon="6.81643">
        <ele>441.5</ele>
        <time>2017-12-10T09:31:20.999Z</time>
      </trkpt>
      <trkpt lat="47.467" lon="6.81641">
        <ele>441.4</ele>
        <time>2017-12-10T09:31:21.999Z</time>
      </trkpt>
      <trkpt lat="47.467" lon="6.81638">
        <ele>441.4</ele>
        <time>2017-12-10T09:31:22.999Z</time>
      </trkpt>
      <trkpt lat="47.46702" lon="6.81634">
        <ele>441.4</ele>
        <time>2017-12-10T09:31:23.999Z</time>
      </trkpt>
      <trkpt lat="47.46703" lon="6.81629">
        <ele>441.5</ele>
        <time>2017-12-10T09:31:24.999Z</time>
      </trkpt>
      <trkpt lat="47.46704" lon="6.81625">
        <ele>441.6</ele>
        <time>2017-12-10T09:31:25.999Z</time>
      </trkpt>
      <trkpt lat="47.46705" lon="6.81621">
        <ele>441.7</ele>
        <time>2017-12-10T09:31:26.999Z</time>
      </trkpt>
      <trkpt lat="47.46706" lon="6.81616">
        <ele>441.7</ele>
        <time>2017-12-10T09:31:27.999Z</time>
      </trkpt>
      <trkpt lat="47.46707" lon="6.8161">
        <ele>441.4</ele>
        <time>2017-12-10T09:31:28.999Z</time>
      </trkpt>
      <trkpt lat="47.4671" lon="6.81606">
        <ele>441.4</ele>
        <time>2017-12-10T09:31:29.999Z</time>
      </trkpt>
      <trkpt lat="47.46712" lon="6.81603">
        <ele>441.3</ele>
        <time>2017-12-10T09:31:30.999Z</time>
      </trkpt>
      <trkpt lat="47.46714" lon="6.81596">
        <ele>441.3</ele>
        <time>2017-12-10T09:31:31.999Z</time>
      </trkpt>
      <trkpt lat="47.46716" lon="6.81592">
        <ele>441.2</ele>
        <time>2017-12-10T09:31:32.999Z</time>
      </trkpt>
      <trkpt lat="47.46718" lon="6.81588">
        <ele>441.1</ele>
        <time>2017-12-10T09:31:33.999Z</time>
      </trkpt>
      <trkpt lat="47.4672" lon="6.81583">
        <ele>441.1</ele>
        <time>2017-12-10T09:31:34.999Z</time>
      </trkpt>
      <trkpt lat="47.46721" lon="6.81579">
        <ele>441.1</ele>
        <time>2017-12-10T09:31:35.999Z</time>
      </trkpt>
      <trkpt lat="47.46723" lon="6.81574">
        <ele>441</ele>
        <time>2017-12-10T09:31:36.999Z</time>
      </trkpt>
      <trkpt lat="47.46724" lon="6.8157">
        <ele>440.9</ele>
        <time>2017-12-10T09:31:37.999Z</time>
      </trkpt>
      <trkpt lat="47.46725" lon="6.81565">
        <ele>440.9</ele>
        <time>2017-12-10T09:31:38.999Z</time>
      </trkpt>
      <trkpt lat="47.46727" lon="6.81561">
        <ele>440.8</ele>
        <time>2017-12-10T09:31:39.999Z</time>
      </trkpt>
      <trkpt lat="47.46727" lon="6.81557">
        <ele>440.7</ele>
        <time>2017-12-10T09:31:40.999Z</time>
      </trkpt>
      <trkpt lat="47.46729" lon="6.8155">
        <ele>440.6</ele>
        <time>2017-12-10T09:31:41.999Z</time>
      </trkpt>
      <trkpt lat="47.4673" lon="6.81547">
        <ele>440.4</ele>
        <time>2017-12-10T09:31:42.999Z</time>
      </trkpt>
      <trkpt lat="47.46731" lon="6.81543">
        <ele>440.2</ele>
        <time>2017-12-10T09:31:43.999Z</time>
      </trkpt>
      <trkpt lat="47.46732" lon="6.81538">
        <ele>440</ele>
        <time>2017-12-10T09:31:44.999Z</time>
      </trkpt>
      <trkpt lat="47.46734" lon="6.81534">
        <ele>439.8</ele>
        <time>2017-12-10T09:31:45.999Z</time>
      </trkpt>
      <trkpt lat="47.46735" lon="6.8153">
        <ele>439.7</ele>
        <time>2017-12-10T09:31:46.999Z</time>
      </trkpt>
      <trkpt lat="47.46734" lon="6.81527">
        <ele>439.6</ele>
        <time>2017-12-10T09:31:47.999Z</time>
      </trkpt>
      <trkpt lat="47.46732" lon="6.81522">
        <ele>439.3</ele>
        <time>2017-12-10T09:31:49.999Z</time>
      </trkpt>
      <trkpt lat="47.4673" lon="6.8152">
        <ele>439.2</ele>
        <time>2017-12-10T09:31:50.999Z</time>
      </trkpt>
      <trkpt lat="47.46727" lon="6.81517">
        <ele>439.1</ele>
        <time>2017-12-10T09:31:51.999Z</time>
      </trkpt>
      <trkpt lat="47.46725" lon="6.81514">
        <ele>438.9</ele>
        <time>2017-12-10T09:31:52.999Z</time>
      </trkpt>
      <trkpt lat="47.46721" lon="6.81509">
        <ele>438.7</ele>
        <time>2017-12-10T09:31:53.999Z</time>
      </trkpt>
      <trkpt lat="47.46719" lon="6.81507">
        <ele>438.5</ele>
        <time>2017-12-10T09:31:54.999Z</time>
      </trkpt>
      <trkpt lat="47.46716" lon="6.81503">
        <ele>438.3</ele>
        <time>2017-12-10T09:31:55.999Z</time>
      </trkpt>
      <trkpt lat="47.46714" lon="6.81501">
        <ele>438</ele>
        <time>2017-12-10T09:31:56.999Z</time>
      </trkpt>
      <trkpt lat="47.46711" lon="6.81499">
        <ele>437.7</ele>
        <time>2017-12-10T09:31:57.999Z</time>
      </trkpt>
      <trkpt lat="47.46708" lon="6.81496">
        <ele>437.4</ele>
        <time>2017-12-10T09:31:58.999Z</time>
      </trkpt>
      <trkpt lat="47.46704" lon="6.81492">
        <ele>437.1</ele>
        <time>2017-12-10T09:31:59.999Z</time>
      </trkpt>
      <trkpt lat="47.46701" lon="6.81489">
        <ele>436.6</ele>
        <time>2017-12-10T09:32:00.999Z</time>
      </trkpt>
      <trkpt lat="47.46699" lon="6.81485">
        <ele>436.2</ele>
        <time>2017-12-10T09:32:01.999Z</time>
      </trkpt>
      <trkpt lat="47.46696" lon="6.81481">
        <ele>435.9</ele>
        <time>2017-12-10T09:32:02.999Z</time>
      </trkpt>
      <trkpt lat="47.46693" lon="6.81478">
        <ele>435.5</ele>
        <time>2017-12-10T09:32:03.999Z</time>
      </trkpt>
      <trkpt lat="47.46689" lon="6.81476">
        <ele>435.2</ele>
        <time>2017-12-10T09:32:04.999Z</time>
      </trkpt>
      <trkpt lat="47.46687" lon="6.81472">
        <ele>434.9</ele>
        <time>2017-12-10T09:32:05.999Z</time>
      </trkpt>
      <trkpt lat="47.46683" lon="6.8147">
        <ele>434.6</ele>
        <time>2017-12-10T09:32:06.999Z</time>
      </trkpt>
      <trkpt lat="47.46679" lon="6.81466">
        <ele>434.2</ele>
        <time>2017-12-10T09:32:07.999Z</time>
      </trkpt>
      <trkpt lat="47.46677" lon="6.81464">
        <ele>434</ele>
        <time>2017-12-10T09:32:08.999Z</time>
      </trkpt>
      <trkpt lat="47.46674" lon="6.81462">
        <ele>433.7</ele>
        <time>2017-12-10T09:32:09.999Z</time>
      </trkpt>
      <trkpt lat="47.4667" lon="6.81458">
        <ele>433.4</ele>
        <time>2017-12-10T09:32:10.999Z</time>
      </trkpt>
      <trkpt lat="47.46666" lon="6.81455">
        <ele>433.1</ele>
        <time>2017-12-10T09:32:11.999Z</time>
      </trkpt>
      <trkpt lat="47.46663" lon="6.81453">
        <ele>432.8</ele>
        <time>2017-12-10T09:32:12.999Z</time>
      </trkpt>
      <trkpt lat="47.46661" lon="6.81451">
        <ele>432.5</ele>
        <time>2017-12-10T09:32:13.999Z</time>
      </trkpt>
      <trkpt lat="47.46658" lon="6.81449">
        <ele>432.3</ele>
        <time>2017-12-10T09:32:14.999Z</time>
      </trkpt>
      <trkpt lat="47.46653" lon="6.81447">
        <ele>432.2</ele>
        <time>2017-12-10T09:32:15.999Z</time>
      </trkpt>
      <trkpt lat="47.4665" lon="6.81446">
        <ele>432.2</ele>
        <time>2017-12-10T09:32:16.999Z</time>
      </trkpt>
      <trkpt lat="47.46647" lon="6.81446">
        <ele>432.2</ele>
        <time>2017-12-10T09:32:17.999Z</time>
      </trkpt>
      <trkpt lat="47.46643" lon="6.81446">
        <ele>432.2</ele>
        <time>2017-12-10T09:32:18.999Z</time>
      </trkpt>
      <trkpt lat="47.4664" lon="6.81446">
        <ele>432.1</ele>
        <time>2017-12-10T09:32:19.999Z</time>
      </trkpt>
      <trkpt lat="47.46637" lon="6.81449">
        <ele>432.1</ele>
        <time>2017-12-10T09:32:20.999Z</time>
      </trkpt>
      <trkpt lat="47.46635" lon="6.81451">
        <ele>432</ele>
        <time>2017-12-10T09:32:21.999Z</time>
      </trkpt>
      <trkpt lat="47.46632" lon="6.81452">
        <ele>431.9</ele>
        <time>2017-12-10T09:32:22.999Z</time>
      </trkpt>
      <trkpt lat="47.46627" lon="6.81454">
        <ele>431.8</ele>
        <time>2017-12-10T09:32:23.999Z</time>
      </trkpt>
      <trkpt lat="47.46624" lon="6.81455">
        <ele>431.7</ele>
        <time>2017-12-10T09:32:24.999Z</time>
      </trkpt>
      <trkpt lat="47.46622" lon="6.81454">
        <ele>431.6</ele>
        <time>2017-12-10T09:32:25.999Z</time>
      </trkpt>
      <trkpt lat="47.4662" lon="6.81453">
        <ele>431.6</ele>
        <time>2017-12-10T09:32:26.999Z</time>
      </trkpt>
      <trkpt lat="47.46617" lon="6.81453">
        <ele>431.5</ele>
        <time>2017-12-10T09:32:27.999Z</time>
      </trkpt>
      <trkpt lat="47.46615" lon="6.81453">
        <ele>431.4</ele>
        <time>2017-12-10T09:32:28.999Z</time>
      </trkpt>
      <trkpt lat="47.46612" lon="6.81452">
        <ele>431.4</ele>
        <time>2017-12-10T09:32:29.999Z</time>
      </trkpt>
      <trkpt lat="47.46609" lon="6.8145">
        <ele>431</ele>
        <time>2017-12-10T09:32:31.999Z</time>
      </trkpt>
      <trkpt lat="47.46607" lon="6.8145">
        <ele>430.8</ele>
        <time>2017-12-10T09:32:32.999Z</time>
      </trkpt>
      <trkpt lat="47.46603" lon="6.81449">
        <ele>430.4</ele>
        <time>2017-12-10T09:32:34.999Z</time>
      </trkpt>
      <trkpt lat="47.46601" lon="6.81448">
        <ele>430.2</ele>
        <time>2017-12-10T09:32:35.999Z</time>
      </trkpt>
      <trkpt lat="47.46595" lon="6.81446">
        <ele>430</ele>
        <time>2017-12-10T09:32:36.999Z</time>
      </trkpt>
      <trkpt lat="47.46593" lon="6.81444">
        <ele>429.8</ele>
        <time>2017-12-10T09:32:37.999Z</time>
      </trkpt>
      <trkpt lat="47.4659" lon="6.81442">
        <ele>429.5</ele>
        <time>2017-12-10T09:32:38.999Z</time>
      </trkpt>
      <trkpt lat="47.46586" lon="6.81439">
        <ele>429.2</ele>
        <time>2017-12-10T09:32:40.999Z</time>
      </trkpt>
      <trkpt lat="47.46584" lon="6.8144">
        <ele>429</ele>
        <time>2017-12-10T09:32:41.999Z</time>
      </trkpt>
      <trkpt lat="47.46581" lon="6.81439">
        <ele>428.7</ele>
        <time>2017-12-10T09:32:42.999Z</time>
      </trkpt>
      <trkpt lat="47.46579" lon="6.81438">
        <ele>428.4</ele>
        <time>2017-12-10T09:32:43.999Z</time>
      </trkpt>
      <trkpt lat="47.46575" lon="6.81435">
        <ele>427.8</ele>
        <time>2017-12-10T09:32:45.999Z</time>
      </trkpt>
      <trkpt lat="47.46572" lon="6.81435">
        <ele>427.5</ele>
        <time>2017-12-10T09:32:46.999Z</time>
      </trkpt>
      <trkpt lat="47.46568" lon="6.81434">
        <ele>427.4</ele>
        <time>2017-12-10T09:32:47.999Z</time>
      </trkpt>
      <trkpt lat="47.46564" lon="6.81431">
        <ele>427.2</ele>
        <time>2017-12-10T09:32:49.999Z</time>
      </trkpt>
      <trkpt lat="47.46562" lon="6.8143">
        <ele>427.2</ele>
        <time>2017-12-10T09:32:50.999Z</time>
      </trkpt>
      <trkpt lat="47.4656" lon="6.81429">
        <ele>427</ele>
        <time>2017-12-10T09:32:51.999Z</time>
      </trkpt>
      <trkpt lat="47.46557" lon="6.81428">
        <ele>426.7</ele>
        <time>2017-12-10T09:32:52.999Z</time>
      </trkpt>
      <trkpt lat="47.46552" lon="6.81428">
        <ele>426.1</ele>
        <time>2017-12-10T09:32:54.999Z</time>
      </trkpt>
      <trkpt lat="47.46551" lon="6.81425">
        <ele>425.7</ele>
        <time>2017-12-10T09:32:55.999Z</time>
      </trkpt>
      <trkpt lat="47.46548" lon="6.81422">
        <ele>424.7</ele>
        <time>2017-12-10T09:32:57.999Z</time>
      </trkpt>
      <trkpt lat="47.46546" lon="6.81421">
        <ele>424.1</ele>
        <time>2017-12-10T09:32:58.999Z</time>
      </trkpt>
      <trkpt lat="47.46542" lon="6.8142">
        <ele>423.2</ele>
        <time>2017-12-10T09:33:00.999Z</time>
      </trkpt>
      <trkpt lat="47.4654" lon="6.8142">
        <ele>422.6</ele>
        <time>2017-12-10T09:33:01.999Z</time>
      </trkpt>
      <trkpt lat="47.46538" lon="6.81419">
        <ele>422.1</ele>
        <time>2017-12-10T09:33:02.999Z</time>
      </trkpt>
      <trkpt lat="47.46535" lon="6.81416">
        <ele>421.6</ele>
        <time>2017-12-10T09:33:03.999Z</time>
      </trkpt>
      <trkpt lat="47.46531" lon="6.81415">
        <ele>421</ele>
        <time>2017-12-10T09:33:05.999Z</time>
      </trkpt>
      <trkpt lat="47.46529" lon="6.81414">
        <ele>420.7</ele>
        <time>2017-12-10T09:33:06.999Z</time>
      </trkpt>
      <trkpt lat="47.46525" lon="6.81414">
        <ele>420.2</ele>
        <time>2017-12-10T09:33:08.999Z</time>
      </trkpt>
      <trkpt lat="47.46522" lon="6.81414">
        <ele>419.9</ele>
        <time>2017-12-10T09:33:09.999Z</time>
      </trkpt>
      <trkpt lat="47.46518" lon="6.81415">
        <ele>419.6</ele>
        <time>2017-12-10T09:33:10.999Z</time>
      </trkpt>
      <trkpt lat="47.46517" lon="6.81416">
        <ele>419.4</ele>
        <time>2017-12-10T09:33:11.999Z</time>
      </trkpt>
      <trkpt lat="47.46513" lon="6.81417">
        <ele>419</ele>
        <time>2017-12-10T09:33:14.999Z</time>
      </trkpt>
      <trkpt lat="47.46509" lon="6.81418">
        <ele>418.8</ele>
        <time>2017-12-10T09:33:15.999Z</time>
      </trkpt>
      <trkpt lat="47.46507" lon="6.81418">
        <ele>418.2</ele>
        <time>2017-12-10T09:33:18.999Z</time>
      </trkpt>
      <trkpt lat="47.46504" lon="6.81416">
        <ele>418.1</ele>
        <time>2017-12-10T09:33:19.999Z</time>
      </trkpt>
      <trkpt lat="47.46502" lon="6.81416">
        <ele>417.9</ele>
        <time>2017-12-10T09:33:20.999Z</time>
      </trkpt>
      <trkpt lat="47.46498" lon="6.81414">
        <ele>417.8</ele>
        <time>2017-12-10T09:33:21.999Z</time>
      </trkpt>
      <trkpt lat="47.46493" lon="6.81414">
        <ele>417.4</ele>
        <time>2017-12-10T09:33:23.999Z</time>
      </trkpt>
      <trkpt lat="47.46492" lon="6.81415">
        <ele>417.2</ele>
        <time>2017-12-10T09:33:24.999Z</time>
      </trkpt>
      <trkpt lat="47.46488" lon="6.81415">
        <ele>416.8</ele>
        <time>2017-12-10T09:33:26.999Z</time>
      </trkpt>
      <trkpt lat="47.46486" lon="6.81414">
        <ele>416.6</ele>
        <time>2017-12-10T09:33:27.999Z</time>
      </trkpt>
      <trkpt lat="47.46482" lon="6.81412">
        <ele>415.8</ele>
        <time>2017-12-10T09:33:32.999Z</time>
      </trkpt>
      <trkpt lat="47.46481" lon="6.81412">
        <ele>415.6</ele>
        <time>2017-12-10T09:33:33.999Z</time>
      </trkpt>
      <trkpt lat="47.46477" lon="6.81411">
        <ele>415.1</ele>
        <time>2017-12-10T09:33:35.999Z</time>
      </trkpt>
      <trkpt lat="47.46476" lon="6.81412">
        <ele>414.9</ele>
        <time>2017-12-10T09:33:36.999Z</time>
      </trkpt>
      <trkpt lat="47.46472" lon="6.81412">
        <ele>414.7</ele>
        <time>2017-12-10T09:33:37.999Z</time>
      </trkpt>
      <trkpt lat="47.46468" lon="6.8141">
        <ele>414.6</ele>
        <time>2017-12-10T09:33:38.999Z</time>
      </trkpt>
      <trkpt lat="47.46464" lon="6.81407">
        <ele>414.5</ele>
        <time>2017-12-10T09:33:39.999Z</time>
      </trkpt>
      <trkpt lat="47.46464" lon="6.81407">
        <ele>414.3</ele>
        <time>2017-12-10T09:33:40.999Z</time>
      </trkpt>
      <trkpt lat="47.4646" lon="6.81405">
        <ele>414</ele>
        <time>2017-12-10T09:33:43.999Z</time>
      </trkpt>
      <trkpt lat="47.46458" lon="6.81404">
        <ele>414</ele>
        <time>2017-12-10T09:33:44.999Z</time>
      </trkpt>
      <trkpt lat="47.46456" lon="6.81402">
        <ele>413.7</ele>
        <time>2017-12-10T09:33:46.999Z</time>
      </trkpt>
      <trkpt lat="47.46455" lon="6.81401">
        <ele>413.6</ele>
        <time>2017-12-10T09:33:47.999Z</time>
      </trkpt>
      <trkpt lat="47.46453" lon="6.814">
        <ele>413.7</ele>
        <time>2017-12-10T09:33:48.999Z</time>
      </trkpt>
      <trkpt lat="47.4645" lon="6.81396">
        <ele>413.9</ele>
        <time>2017-12-10T09:33:49.999Z</time>
      </trkpt>
      <trkpt lat="47.46447" lon="6.81394">
        <ele>414.1</ele>
        <time>2017-12-10T09:33:51.999Z</time>
      </trkpt>
      <trkpt lat="47.46444" lon="6.81392">
        <ele>414.2</ele>
        <time>2017-12-10T09:33:52.999Z</time>
      </trkpt>
      <trkpt lat="47.4644" lon="6.81389">
        <ele>414.7</ele>
        <time>2017-12-10T09:33:55.999Z</time>
      </trkpt>
      <trkpt lat="47.46439" lon="6.81388">
        <ele>414.9</ele>
        <time>2017-12-10T09:33:56.999Z</time>
      </trkpt>
      <trkpt lat="47.46436" lon="6.81384">
        <ele>415</ele>
        <time>2017-12-10T09:33:57.999Z</time>
      </trkpt>
      <trkpt lat="47.46434" lon="6.81382">
        <ele>415.2</ele>
        <time>2017-12-10T09:33:58.999Z</time>
      </trkpt>
      <trkpt lat="47.46433" lon="6.81382">
        <ele>415.5</ele>
        <time>2017-12-10T09:33:59.999Z</time>
      </trkpt>
      <trkpt lat="47.4643" lon="6.81379">
        <ele>415.6</ele>
        <time>2017-12-10T09:34:00.999Z</time>
      </trkpt>
      <trkpt lat="47.46429" lon="6.81378">
        <ele>415.9</ele>
        <time>2017-12-10T09:34:01.999Z</time>
      </trkpt>
      <trkpt lat="47.46426" lon="6.81375">
        <ele>416.1</ele>
        <time>2017-12-10T09:34:02.999Z</time>
      </trkpt>
      <trkpt lat="47.46422" lon="6.8137">
        <ele>416.8</ele>
        <time>2017-12-10T09:34:05.999Z</time>
      </trkpt>
      <trkpt lat="47.46421" lon="6.81368">
        <ele>417.1</ele>
        <time>2017-12-10T09:34:06.999Z</time>
      </trkpt>
      <trkpt lat="47.4642" lon="6.81366">
        <ele>417.4</ele>
        <time>2017-12-10T09:34:07.999Z</time>
      </trkpt>
      <trkpt lat="47.46417" lon="6.81362">
        <ele>417.8</ele>
        <time>2017-12-10T09:34:08.999Z</time>
      </trkpt>
      <trkpt lat="47.46414" lon="6.81359">
        <ele>418.5</ele>
        <time>2017-12-10T09:34:11.999Z</time>
      </trkpt>
      <trkpt lat="47.46413" lon="6.81358">
        <ele>418.8</ele>
        <time>2017-12-10T09:34:12.999Z</time>
      </trkpt>
      <trkpt lat="47.4641" lon="6.81356">
        <ele>419.4</ele>
        <time>2017-12-10T09:34:14.999Z</time>
      </trkpt>
      <trkpt lat="47.46407" lon="6.81354">
        <ele>419.7</ele>
        <time>2017-12-10T09:34:15.999Z</time>
      </trkpt>
      <trkpt lat="47.46403" lon="6.81351">
        <ele>420.7</ele>
        <time>2017-12-10T09:34:18.999Z</time>
      </trkpt>
      <trkpt lat="47.46402" lon="6.8135">
        <ele>421.1</ele>
        <time>2017-12-10T09:34:19.999Z</time>
      </trkpt>
      <trkpt lat="47.46398" lon="6.81348">
        <ele>421.9</ele>
        <time>2017-12-10T09:34:23.999Z</time>
      </trkpt>
      <trkpt lat="47.46397" lon="6.81348">
        <ele>422</ele>
        <time>2017-12-10T09:34:24.999Z</time>
      </trkpt>
      <trkpt lat="47.46394" lon="6.81347">
        <ele>422.4</ele>
        <time>2017-12-10T09:34:26.999Z</time>
      </trkpt>
      <trkpt lat="47.46392" lon="6.81346">
        <ele>422.7</ele>
        <time>2017-12-10T09:34:27.999Z</time>
      </trkpt>
      <trkpt lat="47.46389" lon="6.81344">
        <ele>423.2</ele>
        <time>2017-12-10T09:34:29.999Z</time>
      </trkpt>
      <trkpt lat="47.46388" lon="6.81343">
        <ele>423.5</ele>
        <time>2017-12-10T09:34:30.999Z</time>
      </trkpt>
      <trkpt lat="47.46384" lon="6.81341">
        <ele>423.8</ele>
        <time>2017-12-10T09:34:31.999Z</time>
      </trkpt>
      <trkpt lat="47.46383" lon="6.81341">
        <ele>424.2</ele>
        <time>2017-12-10T09:34:32.999Z</time>
      </trkpt>
      <trkpt lat="47.46379" lon="6.8134">
        <ele>425</ele>
        <time>2017-12-10T09:34:37.999Z</time>
      </trkpt>
      <trkpt lat="47.46376" lon="6.8134">
        <ele>425</ele>
        <time>2017-12-10T09:34:38.999Z</time>
      </trkpt>
      <trkpt lat="47.46373" lon="6.8134">
        <ele>425.2</ele>
        <time>2017-12-10T09:34:39.999Z</time>
      </trkpt>
      <trkpt lat="47.46369" lon="6.81338">
        <ele>425.5</ele>
        <time>2017-12-10T09:34:40.999Z</time>
      </trkpt>
      <trkpt lat="47.46365" lon="6.81334">
        <ele>425.8</ele>
        <time>2017-12-10T09:34:41.999Z</time>
      </trkpt>
      <trkpt lat="47.46361" lon="6.81332">
        <ele>426.3</ele>
        <time>2017-12-10T09:34:43.999Z</time>
      </trkpt>
      <trkpt lat="47.46358" lon="6.81329">
        <ele>426.6</ele>
        <time>2017-12-10T09:34:44.999Z</time>
      </trkpt>
      <trkpt lat="47.46355" lon="6.81327">
        <ele>427.2</ele>
        <time>2017-12-10T09:34:46.999Z</time>
      </trkpt>
      <trkpt lat="47.46353" lon="6.81322">
        <ele>427.6</ele>
        <time>2017-12-10T09:34:47.999Z</time>
      </trkpt>
      <trkpt lat="47.46351" lon="6.81319">
        <ele>428.4</ele>
        <time>2017-12-10T09:34:49.999Z</time>
      </trkpt>
      <trkpt lat="47.46349" lon="6.81317">
        <ele>428.8</ele>
        <time>2017-12-10T09:34:50.999Z</time>
      </trkpt>
      <trkpt lat="47.46346" lon="6.81316">
        <ele>429.8</ele>
        <time>2017-12-10T09:34:52.999Z</time>
      </trkpt>
      <trkpt lat="47.46344" lon="6.81315">
        <ele>430.3</ele>
        <time>2017-12-10T09:34:53.999Z</time>
      </trkpt>
      <trkpt lat="47.46343" lon="6.81314">
        <ele>430.7</ele>
        <time>2017-12-10T09:34:54.999Z</time>
      </trkpt>
      <trkpt lat="47.46339" lon="6.81312">
        <ele>431.1</ele>
        <time>2017-12-10T09:34:55.999Z</time>
      </trkpt>
      <trkpt lat="47.46338" lon="6.81312">
        <ele>431.5</ele>
        <time>2017-12-10T09:34:56.999Z</time>
      </trkpt>
      <trkpt lat="47.46335" lon="6.81309">
        <ele>431.9</ele>
        <time>2017-12-10T09:34:57.999Z</time>
      </trkpt>
      <trkpt lat="47.46331" lon="6.81308">
        <ele>432.7</ele>
        <time>2017-12-10T09:34:59.999Z</time>
      </trkpt>
      <trkpt lat="47.4633" lon="6.81307">
        <ele>433.1</ele>
        <time>2017-12-10T09:35:00.999Z</time>
      </trkpt>
      <trkpt lat="47.46329" lon="6.81305">
        <ele>433.5</ele>
        <time>2017-12-10T09:35:01.999Z</time>
      </trkpt>
      <trkpt lat="47.46326" lon="6.81302">
        <ele>433.9</ele>
        <time>2017-12-10T09:35:02.999Z</time>
      </trkpt>
      <trkpt lat="47.46323" lon="6.813">
        <ele>434.8</ele>
        <time>2017-12-10T09:35:04.999Z</time>
      </trkpt>
      <trkpt lat="47.46322" lon="6.81298">
        <ele>435.2</ele>
        <time>2017-12-10T09:35:05.999Z</time>
      </trkpt>
      <trkpt lat="47.46318" lon="6.81295">
        <ele>436</ele>
        <time>2017-12-10T09:35:07.999Z</time>
      </trkpt>
      <trkpt lat="47.46316" lon="6.81294">
        <ele>436.4</ele>
        <time>2017-12-10T09:35:08.999Z</time>
      </trkpt>
      <trkpt lat="47.46313" lon="6.81293">
        <ele>437.1</ele>
        <time>2017-12-10T09:35:10.999Z</time>
      </trkpt>
      <trkpt lat="47.46312" lon="6.81292">
        <ele>437.4</ele>
        <time>2017-12-10T09:35:11.999Z</time>
      </trkpt>
      <trkpt lat="47.46308" lon="6.8129">
        <ele>437.8</ele>
        <time>2017-12-10T09:35:12.999Z</time>
      </trkpt>
      <trkpt lat="47.46306" lon="6.81288">
        <ele>438.2</ele>
        <time>2017-12-10T09:35:13.999Z</time>
      </trkpt>
      <trkpt lat="47.46303" lon="6.81284">
        <ele>438.7</ele>
        <time>2017-12-10T09:35:15.999Z</time>
      </trkpt>
      <trkpt lat="47.46301" lon="6.81283">
        <ele>439</ele>
        <time>2017-12-10T09:35:16.999Z</time>
      </trkpt>
      <trkpt lat="47.46298" lon="6.81282">
        <ele>439.5</ele>
        <time>2017-12-10T09:35:18.999Z</time>
      </trkpt>
      <trkpt lat="47.46295" lon="6.8128">
        <ele>439.7</ele>
        <time>2017-12-10T09:35:19.999Z</time>
      </trkpt>
      <trkpt lat="47.46293" lon="6.81278">
        <ele>439.9</ele>
        <time>2017-12-10T09:35:20.999Z</time>
      </trkpt>
      <trkpt lat="47.46289" lon="6.81275">
        <ele>440.1</ele>
        <time>2017-12-10T09:35:21.999Z</time>
      </trkpt>
      <trkpt lat="47.46287" lon="6.81273">
        <ele>440.3</ele>
        <time>2017-12-10T09:35:22.999Z</time>
      </trkpt>
      <trkpt lat="47.46285" lon="6.81271">
        <ele>440.4</ele>
        <time>2017-12-10T09:35:23.999Z</time>
      </trkpt>
      <trkpt lat="47.4628" lon="6.8127">
        <ele>440.6</ele>
        <time>2017-12-10T09:35:24.999Z</time>
      </trkpt>
      <trkpt lat="47.46278" lon="6.81269">
        <ele>440.8</ele>
        <time>2017-12-10T09:35:25.999Z</time>
      </trkpt>
      <trkpt lat="47.46275" lon="6.81268">
        <ele>440.9</ele>
        <time>2017-12-10T09:35:26.999Z</time>
      </trkpt>
      <trkpt lat="47.46272" lon="6.81265">
        <ele>441</ele>
        <time>2017-12-10T09:35:28.999Z</time>
      </trkpt>
      <trkpt lat="47.4627" lon="6.81262">
        <ele>441</ele>
        <time>2017-12-10T09:35:29.999Z</time>
      </trkpt>
      <trkpt lat="47.46268" lon="6.8126">
        <ele>441</ele>
        <time>2017-12-10T09:35:30.999Z</time>
      </trkpt>
      <trkpt lat="47.46266" lon="6.81258">
        <ele>441</ele>
        <time>2017-12-10T09:35:31.999Z</time>
      </trkpt>
      <trkpt lat="47.46263" lon="6.81256">
        <ele>441.1</ele>
        <time>2017-12-10T09:35:32.999Z</time>
      </trkpt>
      <trkpt lat="47.46261" lon="6.81256">
        <ele>441.3</ele>
        <time>2017-12-10T09:35:33.999Z</time>
      </trkpt>
      <trkpt lat="47.46258" lon="6.81253">
        <ele>441.7</ele>
        <time>2017-12-10T09:35:35.999Z</time>
      </trkpt>
      <trkpt lat="47.46257" lon="6.81251">
        <ele>441.9</ele>
        <time>2017-12-10T09:35:36.999Z</time>
      </trkpt>
      <trkpt lat="47.46253" lon="6.81248">
        <ele>442.5</ele>
        <time>2017-12-10T09:35:39.999Z</time>
      </trkpt>
      <trkpt lat="47.46253" lon="6.81246">
        <ele>442.7</ele>
        <time>2017-12-10T09:35:40.999Z</time>
      </trkpt>
      <trkpt lat="47.4625" lon="6.81243">
        <ele>442.8</ele>
        <time>2017-12-10T09:35:42.999Z</time>
      </trkpt>
      <trkpt lat="47.46249" lon="6.81238">
        <ele>442.9</ele>
        <time>2017-12-10T09:35:43.999Z</time>
      </trkpt>
      <trkpt lat="47.46247" lon="6.81235">
        <ele>443.1</ele>
        <time>2017-12-10T09:35:45.999Z</time>
      </trkpt>
      <trkpt lat="47.46245" lon="6.81234">
        <ele>443.3</ele>
        <time>2017-12-10T09:35:46.999Z</time>
      </trkpt>
      <trkpt lat="47.46241" lon="6.81233">
        <ele>443.4</ele>
        <time>2017-12-10T09:35:47.999Z</time>
      </trkpt>
      <trkpt lat="47.4624" lon="6.81232">
        <ele>443.5</ele>
        <time>2017-12-10T09:35:48.999Z</time>
      </trkpt>
      <trkpt lat="47.46238" lon="6.81231">
        <ele>443.6</ele>
        <time>2017-12-10T09:35:49.999Z</time>
      </trkpt>
      <trkpt lat="47.46236" lon="6.81229">
        <ele>443.6</ele>
        <time>2017-12-10T09:35:50.999Z</time>
      </trkpt>
      <trkpt lat="47.46234" lon="6.81228">
        <ele>443.8</ele>
        <time>2017-12-10T09:35:52.999Z</time>
      </trkpt>
      <trkpt lat="47.4623" lon="6.81228">
        <ele>443.8</ele>
        <time>2017-12-10T09:35:53.999Z</time>
      </trkpt>
      <trkpt lat="47.46228" lon="6.81228">
        <ele>443.9</ele>
        <time>2017-12-10T09:35:54.999Z</time>
      </trkpt>
      <trkpt lat="47.46223" lon="6.81226">
        <ele>444.1</ele>
        <time>2017-12-10T09:35:55.999Z</time>
      </trkpt>
      <trkpt lat="47.46219" lon="6.81224">
        <ele>444.2</ele>
        <time>2017-12-10T09:35:57.999Z</time>
      </trkpt>
      <trkpt lat="47.46215" lon="6.81221">
        <ele>444.2</ele>
        <time>2017-12-10T09:35:58.999Z</time>
      </trkpt>
      <trkpt lat="47.46212" lon="6.81218">
        <ele>444.1</ele>
        <time>2017-12-10T09:35:59.999Z</time>
      </trkpt>
      <trkpt lat="47.46209" lon="6.81216">
        <ele>444.1</ele>
        <time>2017-12-10T09:36:00.999Z</time>
      </trkpt>
      <trkpt lat="47.46205" lon="6.81213">
        <ele>444.2</ele>
        <time>2017-12-10T09:36:01.999Z</time>
      </trkpt>
      <trkpt lat="47.462" lon="6.81211">
        <ele>444.2</ele>
        <time>2017-12-10T09:36:02.999Z</time>
      </trkpt>
      <trkpt lat="47.46196" lon="6.8121">
        <ele>444.3</ele>
        <time>2017-12-10T09:36:03.999Z</time>
      </trkpt>
      <trkpt lat="47.46193" lon="6.81208">
        <ele>444.4</ele>
        <time>2017-12-10T09:36:04.999Z</time>
      </trkpt>
      <trkpt lat="47.46188" lon="6.81204">
        <ele>444.5</ele>
        <time>2017-12-10T09:36:05.999Z</time>
      </trkpt>
      <trkpt lat="47.46185" lon="6.81201">
        <ele>444.5</ele>
        <time>2017-12-10T09:36:06.999Z</time>
      </trkpt>
      <trkpt lat="47.46181" lon="6.81198">
        <ele>444.5</ele>
        <time>2017-12-10T09:36:07.999Z</time>
      </trkpt>
      <trkpt lat="47.46179" lon="6.81196">
        <ele>444.4</ele>
        <time>2017-12-10T09:36:08.999Z</time>
      </trkpt>
      <trkpt lat="47.46176" lon="6.81193">
        <ele>444.3</ele>
        <time>2017-12-10T09:36:09.999Z</time>
      </trkpt>
      <trkpt lat="47.4617" lon="6.81188">
        <ele>444.2</ele>
        <time>2017-12-10T09:36:10.999Z</time>
      </trkpt>
      <trkpt lat="47.46165" lon="6.8118">
        <ele>443.1</ele>
        <time>2017-12-10T09:36:11.999Z</time>
      </trkpt>
      <trkpt lat="47.46162" lon="6.81175">
        <ele>442</ele>
        <time>2017-12-10T09:36:12.999Z</time>
      </trkpt>
      <trkpt lat="47.46158" lon="6.81167">
        <ele>441</ele>
        <time>2017-12-10T09:36:13.999Z</time>
      </trkpt>
      <trkpt lat="47.46155" lon="6.81162">
        <ele>440</ele>
        <time>2017-12-10T09:36:14.999Z</time>
      </trkpt>
      <trkpt lat="47.4615" lon="6.81155">
        <ele>438.3</ele>
        <time>2017-12-10T09:36:15.999Z</time>
      </trkpt>
      <trkpt lat="47.46147" lon="6.8115">
        <ele>436.2</ele>
        <time>2017-12-10T09:36:16.999Z</time>
      </trkpt>
      <trkpt lat="47.46141" lon="6.81143">
        <ele>434.4</ele>
        <time>2017-12-10T09:36:17.999Z</time>
      </trkpt>
      <trkpt lat="47.46135" lon="6.81138">
        <ele>433.5</ele>
        <time>2017-12-10T09:36:18.999Z</time>
      </trkpt>
      <trkpt lat="47.46129" lon="6.81134">
        <ele>432</ele>
        <time>2017-12-10T09:36:19.999Z</time>
      </trkpt>
      <trkpt lat="47.46123" lon="6.81129">
        <ele>431.1</ele>
        <time>2017-12-10T09:36:20.999Z</time>
      </trkpt>
      <trkpt lat="47.46119" lon="6.81126">
        <ele>430.6</ele>
        <time>2017-12-10T09:36:21.999Z</time>
      </trkpt>
      <trkpt lat="47.46113" lon="6.81119">
        <ele>428.2</ele>
        <time>2017-12-10T09:36:22.999Z</time>
      </trkpt>
      <trkpt lat="47.46108" lon="6.81113">
        <ele>426.3</ele>
        <time>2017-12-10T09:36:23.999Z</time>
      </trkpt>
      <trkpt lat="47.46102" lon="6.81106">
        <ele>423.9</ele>
        <time>2017-12-10T09:36:24.999Z</time>
      </trkpt>
      <trkpt lat="47.46095" lon="6.811">
        <ele>420.9</ele>
        <time>2017-12-10T09:36:25.999Z</time>
      </trkpt>
      <trkpt lat="47.4609" lon="6.81096">
        <ele>418.5</ele>
        <time>2017-12-10T09:36:26.999Z</time>
      </trkpt>
      <trkpt lat="47.46083" lon="6.8109">
        <ele>416.3</ele>
        <time>2017-12-10T09:36:27.999Z</time>
      </trkpt>
      <trkpt lat="47.46077" lon="6.81087">
        <ele>414.7</ele>
        <time>2017-12-10T09:36:28.999Z</time>
      </trkpt>
      <trkpt lat="47.4607" lon="6.81083">
        <ele>412.7</ele>
        <time>2017-12-10T09:36:29.999Z</time>
      </trkpt>
      <trkpt lat="47.46063" lon="6.81079">
        <ele>412.3</ele>
        <time>2017-12-10T09:36:30.999Z</time>
      </trkpt>
      <trkpt lat="47.46057" lon="6.81074">
        <ele>411.4</ele>
        <time>2017-12-10T09:36:31.999Z</time>
      </trkpt>
      <trkpt lat="47.46053" lon="6.8107">
        <ele>410</ele>
        <time>2017-12-10T09:36:32.999Z</time>
      </trkpt>
      <trkpt lat="47.46047" lon="6.81068">
        <ele>408.7</ele>
        <time>2017-12-10T09:36:33.999Z</time>
      </trkpt>
      <trkpt lat="47.46041" lon="6.81066">
        <ele>409.6</ele>
        <time>2017-12-10T09:36:34.999Z</time>
      </trkpt>
      <trkpt lat="47.46035" lon="6.81064">
        <ele>411</ele>
        <time>2017-12-10T09:36:35.999Z</time>
      </trkpt>
      <trkpt lat="47.46026" lon="6.8106">
        <ele>411.6</ele>
        <time>2017-12-10T09:36:36.999Z</time>
      </trkpt>
      <trkpt lat="47.46018" lon="6.81056">
        <ele>412.4</ele>
        <time>2017-12-10T09:36:37.999Z</time>
      </trkpt>
      <trkpt lat="47.46011" lon="6.81053">
        <ele>411.7</ele>
        <time>2017-12-10T09:36:38.999Z</time>
      </trkpt>
      <trkpt lat="47.46006" lon="6.8105">
        <ele>411.1</ele>
        <time>2017-12-10T09:36:39.999Z</time>
      </trkpt>
      <trkpt lat="47.45998" lon="6.81046">
        <ele>409.8</ele>
        <time>2017-12-10T09:36:40.999Z</time>
      </trkpt>
      <trkpt lat="47.45993" lon="6.81043">
        <ele>409</ele>
        <time>2017-12-10T09:36:41.999Z</time>
      </trkpt>
      <trkpt lat="47.45988" lon="6.8104">
        <ele>407.9</ele>
        <time>2017-12-10T09:36:42.999Z</time>
      </trkpt>
      <trkpt lat="47.45981" lon="6.81036">
        <ele>406.8</ele>
        <time>2017-12-10T09:36:43.999Z</time>
      </trkpt>
      <trkpt lat="47.45976" lon="6.81034">
        <ele>405.5</ele>
        <time>2017-12-10T09:36:44.999Z</time>
      </trkpt>
      <trkpt lat="47.45973" lon="6.81034">
        <ele>405.3</ele>
        <time>2017-12-10T09:36:45.999Z</time>
      </trkpt>
      <trkpt lat="47.45967" lon="6.81034">
        <ele>405.1</ele>
        <time>2017-12-10T09:36:46.999Z</time>
      </trkpt>
      <trkpt lat="47.45964" lon="6.81032">
        <ele>405</ele>
        <time>2017-12-10T09:36:47.999Z</time>
      </trkpt>
      <trkpt lat="47.4596" lon="6.81032">
        <ele>405</ele>
        <time>2017-12-10T09:36:48.999Z</time>
      </trkpt>
      <trkpt lat="47.45956" lon="6.8103">
        <ele>404.8</ele>
        <time>2017-12-10T09:36:49.999Z</time>
      </trkpt>
      <trkpt lat="47.45955" lon="6.8103">
        <ele>404.8</ele>
        <time>2017-12-10T09:36:50.999Z</time>
      </trkpt>
      <trkpt lat="47.45955" lon="6.81023">
        <ele>404.7</ele>
        <time>2017-12-10T09:36:51.999Z</time>
      </trkpt>
      <trkpt lat="47.45955" lon="6.81016">
        <ele>404.7</ele>
        <time>2017-12-10T09:36:52.999Z</time>
      </trkpt>
      <trkpt lat="47.45955" lon="6.81011">
        <ele>404.8</ele>
        <time>2017-12-10T09:36:53.999Z</time>
      </trkpt>
      <trkpt lat="47.45958" lon="6.81006">
        <ele>405</ele>
        <time>2017-12-10T09:36:55.999Z</time>
      </trkpt>
      <trkpt lat="47.45959" lon="6.81004">
        <ele>405.1</ele>
        <time>2017-12-10T09:36:56.999Z</time>
      </trkpt>
      <trkpt lat="47.45962" lon="6.80994">
        <ele>405.2</ele>
        <time>2017-12-10T09:36:57.999Z</time>
      </trkpt>
      <trkpt lat="47.45965" lon="6.80987">
        <ele>406.6</ele>
        <time>2017-12-10T09:36:58.999Z</time>
      </trkpt>
      <trkpt lat="47.45968" lon="6.80981">
        <ele>407.3</ele>
        <time>2017-12-10T09:36:59.999Z</time>
      </trkpt>
      <trkpt lat="47.45972" lon="6.80975">
        <ele>407.3</ele>
        <time>2017-12-10T09:37:00.999Z</time>
      </trkpt>
      <trkpt lat="47.45981" lon="6.80958">
        <ele>406.7</ele>
        <time>2017-12-10T09:37:02.999Z</time>
      </trkpt>
      <trkpt lat="47.45985" lon="6.80953">
        <ele>407.4</ele>
        <time>2017-12-10T09:37:03.999Z</time>
      </trkpt>
      <trkpt lat="47.45989" lon="6.80947">
        <ele>407.3</ele>
        <time>2017-12-10T09:37:04.999Z</time>
      </trkpt>
      <trkpt lat="47.45994" lon="6.8094">
        <ele>407.4</ele>
        <time>2017-12-10T09:37:05.999Z</time>
      </trkpt>
      <trkpt lat="47.45997" lon="6.80936">
        <ele>407.4</ele>
        <time>2017-12-10T09:37:06.999Z</time>
      </trkpt>
      <trkpt lat="47.46" lon="6.80933">
        <ele>407.4</ele>
        <time>2017-12-10T09:37:07.999Z</time>
      </trkpt>
      <trkpt lat="47.46002" lon="6.8093">
        <ele>407.4</ele>
        <time>2017-12-10T09:37:08.999Z</time>
      </trkpt>
      <trkpt lat="47.46003" lon="6.80927">
        <ele>407.5</ele>
        <time>2017-12-10T09:37:09.999Z</time>
      </trkpt>
      <trkpt lat="47.46003" lon="6.80923">
        <ele>407.5</ele>
        <time>2017-12-10T09:37:10.999Z</time>
      </trkpt>
      <trkpt lat="47.46003" lon="6.8092">
        <ele>407.4</ele>
        <time>2017-12-10T09:37:11.999Z</time>
      </trkpt>
      <trkpt lat="47.46003" lon="6.80916">
        <ele>407.5</ele>
        <time>2017-12-10T09:37:13.999Z</time>
      </trkpt>
      <trkpt lat="47.46002" lon="6.80912">
        <ele>407.6</ele>
        <time>2017-12-10T09:37:14.999Z</time>
      </trkpt>
      <trkpt lat="47.46002" lon="6.80909">
        <ele>407.6</ele>
        <time>2017-12-10T09:37:15.999Z</time>
      </trkpt>
      <trkpt lat="47.46001" lon="6.80905">
        <ele>407.7</ele>
        <time>2017-12-10T09:37:16.999Z</time>
      </trkpt>
      <trkpt lat="47.45999" lon="6.80902">
        <ele>407.7</ele>
        <time>2017-12-10T09:37:17.999Z</time>
      </trkpt>
      <trkpt lat="47.45998" lon="6.80898">
        <ele>407.7</ele>
        <time>2017-12-10T09:37:18.999Z</time>
      </trkpt>
      <trkpt lat="47.45996" lon="6.80892">
        <ele>407.8</ele>
        <time>2017-12-10T09:37:21.999Z</time>
      </trkpt>
      <trkpt lat="47.45995" lon="6.80891">
        <ele>407.9</ele>
        <time>2017-12-10T09:37:22.999Z</time>
      </trkpt>
      <trkpt lat="47.45991" lon="6.80887">
        <ele>408.1</ele>
        <time>2017-12-10T09:37:23.999Z</time>
      </trkpt>
      <trkpt lat="47.4599" lon="6.80883">
        <ele>408.1</ele>
        <time>2017-12-10T09:37:24.999Z</time>
      </trkpt>
      <trkpt lat="47.45989" lon="6.80878">
        <ele>409.6</ele>
        <time>2017-12-10T09:37:33.999Z</time>
      </trkpt>
      <trkpt lat="47.45988" lon="6.80873">
        <ele>409.8</ele>
        <time>2017-12-10T09:37:34.999Z</time>
      </trkpt>
      <trkpt lat="47.45986" lon="6.80869">
        <ele>409.9</ele>
        <time>2017-12-10T09:37:39.999Z</time>
      </trkpt>
      <trkpt lat="47.45986" lon="6.80864">
        <ele>409.9</ele>
        <time>2017-12-10T09:37:40.999Z</time>
      </trkpt>
      <trkpt lat="47.45984" lon="6.80859">
        <ele>411.7</ele>
        <time>2017-12-10T09:37:49.999Z</time>
      </trkpt>
      <trkpt lat="47.45983" lon="6.80858">
        <ele>412.1</ele>
        <time>2017-12-10T09:37:50.999Z</time>
      </trkpt>
      <trkpt lat="47.45982" lon="6.80854">
        <ele>413.5</ele>
        <time>2017-12-10T09:37:53.999Z</time>
      </trkpt>
      <trkpt lat="47.45981" lon="6.80849">
        <ele>413.9</ele>
        <time>2017-12-10T09:37:54.999Z</time>
      </trkpt>
      <trkpt lat="47.4598" lon="6.80844">
        <ele>415.4</ele>
        <time>2017-12-10T09:38:01.999Z</time>
      </trkpt>
      <trkpt lat="47.45979" lon="6.80842">
        <ele>415.7</ele>
        <time>2017-12-10T09:38:02.999Z</time>
      </trkpt>
      <trkpt lat="47.45977" lon="6.80837">
        <ele>416.9</ele>
        <time>2017-12-10T09:38:07.999Z</time>
      </trkpt>
      <trkpt lat="47.45978" lon="6.80831">
        <ele>417.2</ele>
        <time>2017-12-10T09:38:08.999Z</time>
      </trkpt>
      <trkpt lat="47.45977" lon="6.80829">
        <ele>417.4</ele>
        <time>2017-12-10T09:38:09.999Z</time>
      </trkpt>
      <trkpt lat="47.45978" lon="6.80823">
        <ele>417.7</ele>
        <time>2017-12-10T09:38:10.999Z</time>
      </trkpt>
      <trkpt lat="47.45977" lon="6.80818">
        <ele>419.1</ele>
        <time>2017-12-10T09:38:16.999Z</time>
      </trkpt>
      <trkpt lat="47.45977" lon="6.80816">
        <ele>419.3</ele>
        <time>2017-12-10T09:38:17.999Z</time>
      </trkpt>
      <trkpt lat="47.45977" lon="6.8081">
        <ele>419.4</ele>
        <time>2017-12-10T09:38:18.999Z</time>
      </trkpt>
      <trkpt lat="47.45977" lon="6.80808">
        <ele>419.7</ele>
        <time>2017-12-10T09:38:19.999Z</time>
      </trkpt>
      <trkpt lat="47.45978" lon="6.80803">
        <ele>420</ele>
        <time>2017-12-10T09:38:25.999Z</time>
      </trkpt>
      <trkpt lat="47.45981" lon="6.80799">
        <ele>420</ele>
        <time>2017-12-10T09:38:26.999Z</time>
      </trkpt>
      <trkpt lat="47.45983" lon="6.80795">
        <ele>420</ele>
        <time>2017-12-10T09:38:27.999Z</time>
      </trkpt>
      <trkpt lat="47.45984" lon="6.80791">
        <ele>420</ele>
        <time>2017-12-10T09:38:28.999Z</time>
      </trkpt>
      <trkpt lat="47.45985" lon="6.80789">
        <ele>420.2</ele>
        <time>2017-12-10T09:38:32.999Z</time>
      </trkpt>
      <trkpt lat="47.45986" lon="6.80784">
        <ele>420.4</ele>
        <time>2017-12-10T09:38:33.999Z</time>
      </trkpt>
      <trkpt lat="47.45985" lon="6.80781">
        <ele>420.8</ele>
        <time>2017-12-10T09:38:35.999Z</time>
      </trkpt>
      <trkpt lat="47.45984" lon="6.80777">
        <ele>421</ele>
        <time>2017-12-10T09:38:36.999Z</time>
      </trkpt>
      <trkpt lat="47.45984" lon="6.80771">
        <ele>421.3</ele>
        <time>2017-12-10T09:38:38.999Z</time>
      </trkpt>
      <trkpt lat="47.45983" lon="6.80766">
        <ele>421.6</ele>
        <time>2017-12-10T09:38:39.999Z</time>
      </trkpt>
      <trkpt lat="47.45979" lon="6.80764">
        <ele>422.1</ele>
        <time>2017-12-10T09:38:41.999Z</time>
      </trkpt>
      <trkpt lat="47.45979" lon="6.80765">
        <ele>422.5</ele>
        <time>2017-12-10T09:38:42.999Z</time>
      </trkpt>
      <trkpt lat="47.45977" lon="6.8076">
        <ele>425.1</ele>
        <time>2017-12-10T09:38:51.999Z</time>
      </trkpt>
      <trkpt lat="47.45976" lon="6.80759">
        <ele>425.4</ele>
        <time>2017-12-10T09:38:52.999Z</time>
      </trkpt>
      <trkpt lat="47.45974" lon="6.80756">
        <ele>425.6</ele>
        <time>2017-12-10T09:38:53.999Z</time>
      </trkpt>
      <trkpt lat="47.45972" lon="6.80754">
        <ele>425.8</ele>
        <time>2017-12-10T09:38:54.999Z</time>
      </trkpt>
      <trkpt lat="47.45968" lon="6.80751">
        <ele>426</ele>
        <time>2017-12-10T09:38:55.999Z</time>
      </trkpt>
      <trkpt lat="47.45966" lon="6.80749">
        <ele>426.2</ele>
        <time>2017-12-10T09:38:56.999Z</time>
      </trkpt>
      <trkpt lat="47.45963" lon="6.80746">
        <ele>426.3</ele>
        <time>2017-12-10T09:38:57.999Z</time>
      </trkpt>
      <trkpt lat="47.45961" lon="6.80742">
        <ele>426.5</ele>
        <time>2017-12-10T09:38:59.999Z</time>
      </trkpt>
      <trkpt lat="47.4596" lon="6.80736">
        <ele>426.6</ele>
        <time>2017-12-10T09:39:00.999Z</time>
      </trkpt>
      <trkpt lat="47.4596" lon="6.80731">
        <ele>426.8</ele>
        <time>2017-12-10T09:39:03.999Z</time>
      </trkpt>
      <trkpt lat="47.4596" lon="6.80729">
        <ele>426.9</ele>
        <time>2017-12-10T09:39:04.999Z</time>
      </trkpt>
      <trkpt lat="47.45962" lon="6.80723">
        <ele>427</ele>
        <time>2017-12-10T09:39:06.999Z</time>
      </trkpt>
      <trkpt lat="47.45963" lon="6.80721">
        <ele>427.1</ele>
        <time>2017-12-10T09:39:07.999Z</time>
      </trkpt>
      <trkpt lat="47.45966" lon="6.80717">
        <ele>427.2</ele>
        <time>2017-12-10T09:39:09.999Z</time>
      </trkpt>
      <trkpt lat="47.45968" lon="6.80712">
        <ele>427.3</ele>
        <time>2017-12-10T09:39:10.999Z</time>
      </trkpt>
      <trkpt lat="47.45968" lon="6.80708">
        <ele>427.5</ele>
        <time>2017-12-10T09:39:12.999Z</time>
      </trkpt>
      <trkpt lat="47.45969" lon="6.80703">
        <ele>427.6</ele>
        <time>2017-12-10T09:39:13.999Z</time>
      </trkpt>
      <trkpt lat="47.45973" lon="6.807">
        <ele>427.9</ele>
        <time>2017-12-10T09:39:19.999Z</time>
      </trkpt>
      <trkpt lat="47.45973" lon="6.80699">
        <ele>428.1</ele>
        <time>2017-12-10T09:39:20.999Z</time>
      </trkpt>
      <trkpt lat="47.45976" lon="6.80696">
        <ele>428.1</ele>
        <time>2017-12-10T09:39:22.999Z</time>
      </trkpt>
      <trkpt lat="47.45979" lon="6.80693">
        <ele>428.1</ele>
        <time>2017-12-10T09:39:23.999Z</time>
      </trkpt>
      <trkpt lat="47.45982" lon="6.80689">
        <ele>428</ele>
        <time>2017-12-10T09:39:24.999Z</time>
      </trkpt>
      <trkpt lat="47.45983" lon="6.80688">
        <ele>427.9</ele>
        <time>2017-12-10T09:39:25.999Z</time>
      </trkpt>
      <trkpt lat="47.45984" lon="6.80682">
        <ele>426.2</ele>
        <time>2017-12-10T09:39:33.999Z</time>
      </trkpt>
      <trkpt lat="47.45987" lon="6.80681">
        <ele>426.1</ele>
        <time>2017-12-10T09:39:34.999Z</time>
      </trkpt>
      <trkpt lat="47.45989" lon="6.8068">
        <ele>425.9</ele>
        <time>2017-12-10T09:39:38.999Z</time>
      </trkpt>
      <trkpt lat="47.45993" lon="6.80677">
        <ele>426</ele>
        <time>2017-12-10T09:39:39.999Z</time>
      </trkpt>
      <trkpt lat="47.45997" lon="6.80675">
        <ele>426.1</ele>
        <time>2017-12-10T09:39:40.999Z</time>
      </trkpt>
      <trkpt lat="47.45999" lon="6.8067">
        <ele>426.3</ele>
        <time>2017-12-10T09:39:41.999Z</time>
      </trkpt>
      <trkpt lat="47.46002" lon="6.80665">
        <ele>426.5</ele>
        <time>2017-12-10T09:39:42.999Z</time>
      </trkpt>
      <trkpt lat="47.46005" lon="6.8066">
        <ele>426.7</ele>
        <time>2017-12-10T09:39:43.999Z</time>
      </trkpt>
      <trkpt lat="47.46008" lon="6.80656">
        <ele>426.9</ele>
        <time>2017-12-10T09:39:45.999Z</time>
      </trkpt>
      <trkpt lat="47.4601" lon="6.80651">
        <ele>427</ele>
        <time>2017-12-10T09:39:46.999Z</time>
      </trkpt>
      <trkpt lat="47.46011" lon="6.80648">
        <ele>427.1</ele>
        <time>2017-12-10T09:39:48.999Z</time>
      </trkpt>
      <trkpt lat="47.46012" lon="6.80644">
        <ele>427.1</ele>
        <time>2017-12-10T09:39:49.999Z</time>
      </trkpt>
      <trkpt lat="47.46013" lon="6.80638">
        <ele>426.9</ele>
        <time>2017-12-10T09:39:52.999Z</time>
      </trkpt>
      <trkpt lat="47.46013" lon="6.80637">
        <ele>426.7</ele>
        <time>2017-12-10T09:39:53.999Z</time>
      </trkpt>
      <trkpt lat="47.46015" lon="6.80631">
        <ele>426.4</ele>
        <time>2017-12-10T09:39:56.999Z</time>
      </trkpt>
      <trkpt lat="47.46015" lon="6.80629">
        <ele>426.4</ele>
        <time>2017-12-10T09:39:57.999Z</time>
      </trkpt>
      <trkpt lat="47.46016" lon="6.80623">
        <ele>426.2</ele>
        <time>2017-12-10T09:40:00.999Z</time>
      </trkpt>
      <trkpt lat="47.46017" lon="6.80621">
        <ele>426.1</ele>
        <time>2017-12-10T09:40:01.999Z</time>
      </trkpt>
      <trkpt lat="47.46018" lon="6.80619">
        <ele>426</ele>
        <time>2017-12-10T09:40:02.999Z</time>
      </trkpt>
      <trkpt lat="47.46019" lon="6.80614">
        <ele>426</ele>
        <time>2017-12-10T09:40:03.999Z</time>
      </trkpt>
      <trkpt lat="47.4602" lon="6.80609">
        <ele>426</ele>
        <time>2017-12-10T09:40:05.999Z</time>
      </trkpt>
      <trkpt lat="47.46022" lon="6.80604">
        <ele>426</ele>
        <time>2017-12-10T09:40:06.999Z</time>
      </trkpt>
      <trkpt lat="47.46024" lon="6.806">
        <ele>425.7</ele>
        <time>2017-12-10T09:40:08.999Z</time>
      </trkpt>
      <trkpt lat="47.46024" lon="6.80597">
        <ele>425.6</ele>
        <time>2017-12-10T09:40:09.999Z</time>
      </trkpt>
      <trkpt lat="47.46026" lon="6.80593">
        <ele>425.4</ele>
        <time>2017-12-10T09:40:12.999Z</time>
      </trkpt>
      <trkpt lat="47.46027" lon="6.80591">
        <ele>425.3</ele>
        <time>2017-12-10T09:40:13.999Z</time>
      </trkpt>
      <trkpt lat="47.46029" lon="6.80586">
        <ele>425.2</ele>
        <time>2017-12-10T09:40:15.999Z</time>
      </trkpt>
      <trkpt lat="47.46029" lon="6.80585">
        <ele>425.1</ele>
        <time>2017-12-10T09:40:17.999Z</time>
      </trkpt>
      <trkpt lat="47.4603" lon="6.80581">
        <ele>425</ele>
        <time>2017-12-10T09:40:20.999Z</time>
      </trkpt>
      <trkpt lat="47.46032" lon="6.80576">
        <ele>424.9</ele>
        <time>2017-12-10T09:40:21.999Z</time>
      </trkpt>
      <trkpt lat="47.46033" lon="6.8057">
        <ele>424.6</ele>
        <time>2017-12-10T09:40:23.999Z</time>
      </trkpt>
      <trkpt lat="47.46033" lon="6.80563">
        <ele>424.6</ele>
        <time>2017-12-10T09:40:24.999Z</time>
      </trkpt>
      <trkpt lat="47.46032" lon="6.80558">
        <ele>424.7</ele>
        <time>2017-12-10T09:40:25.999Z</time>
      </trkpt>
      <trkpt lat="47.46031" lon="6.80556">
        <ele>424.7</ele>
        <time>2017-12-10T09:40:26.999Z</time>
      </trkpt>
      <trkpt lat="47.4603" lon="6.8055">
        <ele>424.7</ele>
        <time>2017-12-10T09:40:27.999Z</time>
      </trkpt>
      <trkpt lat="47.46029" lon="6.80545">
        <ele>424.6</ele>
        <time>2017-12-10T09:40:28.999Z</time>
      </trkpt>
      <trkpt lat="47.46029" lon="6.8054">
        <ele>424.5</ele>
        <time>2017-12-10T09:40:29.999Z</time>
      </trkpt>
      <trkpt lat="47.46029" lon="6.80534">
        <ele>424.3</ele>
        <time>2017-12-10T09:40:30.999Z</time>
      </trkpt>
      <trkpt lat="47.46029" lon="6.80528">
        <ele>424</ele>
        <time>2017-12-10T09:40:34.999Z</time>
      </trkpt>
      <trkpt lat="47.46029" lon="6.80522">
        <ele>424</ele>
        <time>2017-12-10T09:40:35.999Z</time>
      </trkpt>
      <trkpt lat="47.46029" lon="6.80519">
        <ele>423.9</ele>
        <time>2017-12-10T09:40:36.999Z</time>
      </trkpt>
      <trkpt lat="47.46029" lon="6.80513">
        <ele>423.9</ele>
        <time>2017-12-10T09:40:37.999Z</time>
      </trkpt>
      <trkpt lat="47.46028" lon="6.80508">
        <ele>423.7</ele>
        <time>2017-12-10T09:40:39.999Z</time>
      </trkpt>
      <trkpt lat="47.46029" lon="6.80506">
        <ele>423.7</ele>
        <time>2017-12-10T09:40:40.999Z</time>
      </trkpt>
      <trkpt lat="47.46031" lon="6.805">
        <ele>423.5</ele>
        <time>2017-12-10T09:40:42.999Z</time>
      </trkpt>
      <trkpt lat="47.46032" lon="6.80498">
        <ele>423.2</ele>
        <time>2017-12-10T09:40:43.999Z</time>
      </trkpt>
      <trkpt lat="47.46034" lon="6.80493">
        <ele>422.7</ele>
        <time>2017-12-10T09:40:45.999Z</time>
      </trkpt>
      <trkpt lat="47.46035" lon="6.80491">
        <ele>422.5</ele>
        <time>2017-12-10T09:40:46.999Z</time>
      </trkpt>
      <trkpt lat="47.46037" lon="6.80487">
        <ele>421.6</ele>
        <time>2017-12-10T09:40:49.999Z</time>
      </trkpt>
      <trkpt lat="47.46038" lon="6.80486">
        <ele>421.3</ele>
        <time>2017-12-10T09:40:50.999Z</time>
      </trkpt>
      <trkpt lat="47.46042" lon="6.80485">
        <ele>420.9</ele>
        <time>2017-12-10T09:40:52.999Z</time>
      </trkpt>
      <trkpt lat="47.46045" lon="6.80483">
        <ele>420.9</ele>
        <time>2017-12-10T09:40:53.999Z</time>
      </trkpt>
      <trkpt lat="47.46048" lon="6.80481">
        <ele>420.1</ele>
        <time>2017-12-10T09:40:57.999Z</time>
      </trkpt>
      <trkpt lat="47.46051" lon="6.80478">
        <ele>419.8</ele>
        <time>2017-12-10T09:40:58.999Z</time>
      </trkpt>
      <trkpt lat="47.46054" lon="6.80476">
        <ele>418.8</ele>
        <time>2017-12-10T09:41:02.999Z</time>
      </trkpt>
      <trkpt lat="47.46056" lon="6.80475">
        <ele>418.7</ele>
        <time>2017-12-10T09:41:03.999Z</time>
      </trkpt>
      <trkpt lat="47.46059" lon="6.8047">
        <ele>418.5</ele>
        <time>2017-12-10T09:41:09.999Z</time>
      </trkpt>
      <trkpt lat="47.46058" lon="6.80464">
        <ele>418.5</ele>
        <time>2017-12-10T09:41:10.999Z</time>
      </trkpt>
      <trkpt lat="47.46057" lon="6.80459">
        <ele>418.4</ele>
        <time>2017-12-10T09:41:13.999Z</time>
      </trkpt>
      <trkpt lat="47.46058" lon="6.80456">
        <ele>418.5</ele>
        <time>2017-12-10T09:41:14.999Z</time>
      </trkpt>
      <trkpt lat="47.46057" lon="6.8045">
        <ele>418.9</ele>
        <time>2017-12-10T09:41:27.999Z</time>
      </trkpt>
      <trkpt lat="47.46059" lon="6.80449">
        <ele>419.2</ele>
        <time>2017-12-10T09:41:28.999Z</time>
      </trkpt>
      <trkpt lat="47.46058" lon="6.80443">
        <ele>421.9</ele>
        <time>2017-12-10T09:41:54.999Z</time>
      </trkpt>
      <trkpt lat="47.46058" lon="6.80442">
        <ele>422.1</ele>
        <time>2017-12-10T09:41:55.999Z</time>
      </trkpt>
      <trkpt lat="47.46058" lon="6.80435">
        <ele>422.1</ele>
        <time>2017-12-10T09:41:56.999Z</time>
      </trkpt>
      <trkpt lat="47.46057" lon="6.80429">
        <ele>422.3</ele>
        <time>2017-12-10T09:41:57.999Z</time>
      </trkpt>
      <trkpt lat="47.46061" lon="6.80425">
        <ele>422.4</ele>
        <time>2017-12-10T09:41:58.999Z</time>
      </trkpt>
      <trkpt lat="47.46061" lon="6.80423">
        <ele>422.6</ele>
        <time>2017-12-10T09:41:59.999Z</time>
      </trkpt>
      <trkpt lat="47.46061" lon="6.80417">
        <ele>423.4</ele>
        <time>2017-12-10T09:42:03.999Z</time>
      </trkpt>
      <trkpt lat="47.4606" lon="6.80413">
        <ele>423.6</ele>
        <time>2017-12-10T09:42:04.999Z</time>
      </trkpt>
      <trkpt lat="47.46059" lon="6.80407">
        <ele>424.3</ele>
        <time>2017-12-10T09:42:08.999Z</time>
      </trkpt>
      <trkpt lat="47.46057" lon="6.80401">
        <ele>424.5</ele>
        <time>2017-12-10T09:42:09.999Z</time>
      </trkpt>
      <trkpt lat="47.46055" lon="6.80396">
        <ele>424.9</ele>
        <time>2017-12-10T09:42:10.999Z</time>
      </trkpt>
      <trkpt lat="47.46054" lon="6.80395">
        <ele>425.2</ele>
        <time>2017-12-10T09:42:11.999Z</time>
      </trkpt>
      <trkpt lat="47.46051" lon="6.80391">
        <ele>425.9</ele>
        <time>2017-12-10T09:42:13.999Z</time>
      </trkpt>
      <trkpt lat="47.46048" lon="6.80388">
        <ele>426.3</ele>
        <time>2017-12-10T09:42:14.999Z</time>
      </trkpt>
      <trkpt lat="47.46046" lon="6.80382">
        <ele>427.4</ele>
        <time>2017-12-10T09:42:17.999Z</time>
      </trkpt>
      <trkpt lat="47.46045" lon="6.8038">
        <ele>427.7</ele>
        <time>2017-12-10T09:42:18.999Z</time>
      </trkpt>
      <trkpt lat="47.46043" lon="6.80375">
        <ele>428.2</ele>
        <time>2017-12-10T09:42:20.999Z</time>
      </trkpt>
      <trkpt lat="47.46042" lon="6.80372">
        <ele>428.6</ele>
        <time>2017-12-10T09:42:21.999Z</time>
      </trkpt>
      <trkpt lat="47.46042" lon="6.80367">
        <ele>429.2</ele>
        <time>2017-12-10T09:42:23.999Z</time>
      </trkpt>
      <trkpt lat="47.4604" lon="6.80362">
        <ele>429.5</ele>
        <time>2017-12-10T09:42:24.999Z</time>
      </trkpt>
      <trkpt lat="47.46039" lon="6.80357">
        <ele>430.1</ele>
        <time>2017-12-10T09:42:28.999Z</time>
      </trkpt>
      <trkpt lat="47.46037" lon="6.80354">
        <ele>430.1</ele>
        <time>2017-12-10T09:42:29.999Z</time>
      </trkpt>
      <trkpt lat="47.46036" lon="6.80349">
        <ele>430.4</ele>
        <time>2017-12-10T09:42:32.999Z</time>
      </trkpt>
      <trkpt lat="47.46036" lon="6.80347">
        <ele>430.6</ele>
        <time>2017-12-10T09:42:33.999Z</time>
      </trkpt>
      <trkpt lat="47.46036" lon="6.80341">
        <ele>431.6</ele>
        <time>2017-12-10T09:42:37.999Z</time>
      </trkpt>
      <trkpt lat="47.46035" lon="6.80339">
        <ele>431.9</ele>
        <time>2017-12-10T09:42:38.999Z</time>
      </trkpt>
      <trkpt lat="47.46034" lon="6.80334">
        <ele>432.1</ele>
        <time>2017-12-10T09:42:39.999Z</time>
      </trkpt>
      <trkpt lat="47.46034" lon="6.80332">
        <ele>432.4</ele>
        <time>2017-12-10T09:42:40.999Z</time>
      </trkpt>
      <trkpt lat="47.46033" lon="6.80328">
        <ele>433.8</ele>
        <time>2017-12-10T09:42:45.999Z</time>
      </trkpt>
      <trkpt lat="47.46031" lon="6.80321">
        <ele>434.1</ele>
        <time>2017-12-10T09:42:46.999Z</time>
      </trkpt>
      <trkpt lat="47.46031" lon="6.80315">
        <ele>435.2</ele>
        <time>2017-12-10T09:42:51.999Z</time>
      </trkpt>
      <trkpt lat="47.46031" lon="6.80313">
        <ele>435.3</ele>
        <time>2017-12-10T09:42:52.999Z</time>
      </trkpt>
      <trkpt lat="47.46029" lon="6.80307">
        <ele>435.7</ele>
        <time>2017-12-10T09:42:54.999Z</time>
      </trkpt>
      <trkpt lat="47.46029" lon="6.80306">
        <ele>435.8</ele>
        <time>2017-12-10T09:42:55.999Z</time>
      </trkpt>
      <trkpt lat="47.46029" lon="6.80301">
        <ele>435.9</ele>
        <time>2017-12-10T09:42:56.999Z</time>
      </trkpt>
      <trkpt lat="47.46028" lon="6.80296">
        <ele>436</ele>
        <time>2017-12-10T09:42:57.999Z</time>
      </trkpt>
      <trkpt lat="47.46025" lon="6.80292">
        <ele>436.2</ele>
        <time>2017-12-10T09:42:58.999Z</time>
      </trkpt>
      <trkpt lat="47.46025" lon="6.8029">
        <ele>436.4</ele>
        <time>2017-12-10T09:42:59.999Z</time>
      </trkpt>
      <trkpt lat="47.46023" lon="6.80284">
        <ele>437.1</ele>
        <time>2017-12-10T09:43:02.999Z</time>
      </trkpt>
      <trkpt lat="47.46023" lon="6.80282">
        <ele>437.4</ele>
        <time>2017-12-10T09:43:03.999Z</time>
      </trkpt>
      <trkpt lat="47.46023" lon="6.8028">
        <ele>437.9</ele>
        <time>2017-12-10T09:43:07.999Z</time>
      </trkpt>
      <trkpt lat="47.46024" lon="6.80274">
        <ele>438.2</ele>
        <time>2017-12-10T09:43:08.999Z</time>
      </trkpt>
      <trkpt lat="47.46022" lon="6.80269">
        <ele>438.9</ele>
        <time>2017-12-10T09:43:10.999Z</time>
      </trkpt>
      <trkpt lat="47.46022" lon="6.80268">
        <ele>439.2</ele>
        <time>2017-12-10T09:43:11.999Z</time>
      </trkpt>
      <trkpt lat="47.46021" lon="6.80262">
        <ele>440.2</ele>
        <time>2017-12-10T09:43:14.999Z</time>
      </trkpt>
      <trkpt lat="47.4602" lon="6.80259">
        <ele>440.4</ele>
        <time>2017-12-10T09:43:15.999Z</time>
      </trkpt>
      <trkpt lat="47.4602" lon="6.80254">
        <ele>441.2</ele>
        <time>2017-12-10T09:43:19.999Z</time>
      </trkpt>
      <trkpt lat="47.4602" lon="6.80252">
        <ele>441.3</ele>
        <time>2017-12-10T09:43:20.999Z</time>
      </trkpt>
      <trkpt lat="47.4602" lon="6.80245">
        <ele>448.8</ele>
        <time>2017-12-10T09:44:38.999Z</time>
      </trkpt>
      <trkpt lat="47.46021" lon="6.80245">
        <ele>449.1</ele>
        <time>2017-12-10T09:44:39.999Z</time>
      </trkpt>
      <trkpt lat="47.46017" lon="6.80247">
        <ele>451.8</ele>
        <time>2017-12-10T09:46:15.999Z</time>
      </trkpt>
      <trkpt lat="47.46016" lon="6.80247">
        <ele>451.8</ele>
        <time>2017-12-10T09:46:16.999Z</time>
      </trkpt>
      <trkpt lat="47.46017" lon="6.80245">
        <ele>455.3</ele>
        <time>2017-12-10T09:48:08.999Z</time>
      </trkpt>
      <trkpt lat="47.46016" lon="6.80239">
        <ele>455.3</ele>
        <time>2017-12-10T09:48:09.999Z</time>
      </trkpt>
      <trkpt lat="47.46016" lon="6.80233">
        <ele>455.3</ele>
        <time>2017-12-10T09:48:11.999Z</time>
      </trkpt>
      <trkpt lat="47.46016" lon="6.8023">
        <ele>455.3</ele>
        <time>2017-12-10T09:48:12.999Z</time>
      </trkpt>
      <trkpt lat="47.46015" lon="6.80223">
        <ele>455.3</ele>
        <time>2017-12-10T09:48:13.999Z</time>
      </trkpt>
      <trkpt lat="47.46015" lon="6.8022">
        <ele>455.3</ele>
        <time>2017-12-10T09:48:14.999Z</time>
      </trkpt>
      <trkpt lat="47.46015" lon="6.80214">
        <ele>455.4</ele>
        <time>2017-12-10T09:48:15.999Z</time>
      </trkpt>
      <trkpt lat="47.46016" lon="6.80209">
        <ele>455.5</ele>
        <time>2017-12-10T09:48:17.999Z</time>
      </trkpt>
      <trkpt lat="47.46015" lon="6.80206">
        <ele>455.6</ele>
        <time>2017-12-10T09:48:18.999Z</time>
      </trkpt>
      <trkpt lat="47.46015" lon="6.80202">
        <ele>455.7</ele>
        <time>2017-12-10T09:48:19.999Z</time>
      </trkpt>
      <trkpt lat="47.46015" lon="6.80198">
        <ele>455.8</ele>
        <time>2017-12-10T09:48:20.999Z</time>
      </trkpt>
      <trkpt lat="47.46014" lon="6.80195">
        <ele>455.8</ele>
        <time>2017-12-10T09:48:21.999Z</time>
      </trkpt>
      <trkpt lat="47.46014" lon="6.80191">
        <ele>455.8</ele>
        <time>2017-12-10T09:48:22.999Z</time>
      </trkpt>
      <trkpt lat="47.46013" lon="6.80187">
        <ele>455.9</ele>
        <time>2017-12-10T09:48:23.999Z</time>
      </trkpt>
      <trkpt lat="47.46013" lon="6.80183">
        <ele>455.9</ele>
        <time>2017-12-10T09:48:24.999Z</time>
      </trkpt>
      <trkpt lat="47.46011" lon="6.80177">
        <ele>455.8</ele>
        <time>2017-12-10T09:48:25.999Z</time>
      </trkpt>
      <trkpt lat="47.46011" lon="6.80173">
        <ele>455.8</ele>
        <time>2017-12-10T09:48:26.999Z</time>
      </trkpt>
      <trkpt lat="47.4601" lon="6.80169">
        <ele>455.7</ele>
        <time>2017-12-10T09:48:27.999Z</time>
      </trkpt>
      <trkpt lat="47.46009" lon="6.80166">
        <ele>455.6</ele>
        <time>2017-12-10T09:48:28.999Z</time>
      </trkpt>
      <trkpt lat="47.46007" lon="6.80159">
        <ele>455.5</ele>
        <time>2017-12-10T09:48:29.999Z</time>
      </trkpt>
      <trkpt lat="47.46007" lon="6.80156">
        <ele>455.4</ele>
        <time>2017-12-10T09:48:30.999Z</time>
      </trkpt>
      <trkpt lat="47.46006" lon="6.80152">
        <ele>455.3</ele>
        <time>2017-12-10T09:48:31.999Z</time>
      </trkpt>
      <trkpt lat="47.46006" lon="6.80148">
        <ele>455.1</ele>
        <time>2017-12-10T09:48:32.999Z</time>
      </trkpt>
      <trkpt lat="47.46006" lon="6.80142">
        <ele>454.9</ele>
        <time>2017-12-10T09:48:33.999Z</time>
      </trkpt>
      <trkpt lat="47.46007" lon="6.80135">
        <ele>454.5</ele>
        <time>2017-12-10T09:48:34.999Z</time>
      </trkpt>
      <trkpt lat="47.46006" lon="6.80127">
        <ele>454.3</ele>
        <time>2017-12-10T09:48:35.999Z</time>
      </trkpt>
      <trkpt lat="47.46006" lon="6.80124">
        <ele>453.9</ele>
        <time>2017-12-10T09:48:36.999Z</time>
      </trkpt>
      <trkpt lat="47.46005" lon="6.80119">
        <ele>453.5</ele>
        <time>2017-12-10T09:48:37.999Z</time>
      </trkpt>
      <trkpt lat="47.46004" lon="6.80113">
        <ele>453.1</ele>
        <time>2017-12-10T09:48:38.999Z</time>
      </trkpt>
      <trkpt lat="47.46004" lon="6.8011">
        <ele>452.6</ele>
        <time>2017-12-10T09:48:39.999Z</time>
      </trkpt>
      <trkpt lat="47.46004" lon="6.80106">
        <ele>452.2</ele>
        <time>2017-12-10T09:48:40.999Z</time>
      </trkpt>
      <trkpt lat="47.46003" lon="6.80103">
        <ele>451.7</ele>
        <time>2017-12-10T09:48:41.999Z</time>
      </trkpt>
      <trkpt lat="47.46003" lon="6.801">
        <ele>451.3</ele>
        <time>2017-12-10T09:48:42.999Z</time>
      </trkpt>
      <trkpt lat="47.46003" lon="6.80096">
        <ele>450.9</ele>
        <time>2017-12-10T09:48:43.999Z</time>
      </trkpt>
      <trkpt lat="47.46003" lon="6.80091">
        <ele>450.6</ele>
        <time>2017-12-10T09:48:44.999Z</time>
      </trkpt>
      <trkpt lat="47.46003" lon="6.80088">
        <ele>450.2</ele>
        <time>2017-12-10T09:48:45.999Z</time>
      </trkpt>
      <trkpt lat="47.46004" lon="6.80083">
        <ele>449.9</ele>
        <time>2017-12-10T09:48:46.999Z</time>
      </trkpt>
      <trkpt lat="47.46005" lon="6.80079">
        <ele>449.5</ele>
        <time>2017-12-10T09:48:47.999Z</time>
      </trkpt>
      <trkpt lat="47.46006" lon="6.80075">
        <ele>449.1</ele>
        <time>2017-12-10T09:48:48.999Z</time>
      </trkpt>
      <trkpt lat="47.46005" lon="6.8007">
        <ele>448.7</ele>
        <time>2017-12-10T09:48:49.999Z</time>
      </trkpt>
      <trkpt lat="47.46005" lon="6.80064">
        <ele>448.2</ele>
        <time>2017-12-10T09:48:50.999Z</time>
      </trkpt>
      <trkpt lat="47.46006" lon="6.80056">
        <ele>447.8</ele>
        <time>2017-12-10T09:48:51.999Z</time>
      </trkpt>
      <trkpt lat="47.46006" lon="6.80053">
        <ele>447.2</ele>
        <time>2017-12-10T09:48:52.999Z</time>
      </trkpt>
      <trkpt lat="47.46006" lon="6.80049">
        <ele>446.6</ele>
        <time>2017-12-10T09:48:53.999Z</time>
      </trkpt>
      <trkpt lat="47.46005" lon="6.80045">
        <ele>446</ele>
        <time>2017-12-10T09:48:54.999Z</time>
      </trkpt>
      <trkpt lat="47.46006" lon="6.80041">
        <ele>445.4</ele>
        <time>2017-12-10T09:48:55.999Z</time>
      </trkpt>
      <trkpt lat="47.46006" lon="6.80036">
        <ele>444.8</ele>
        <time>2017-12-10T09:48:56.999Z</time>
      </trkpt>
      <trkpt lat="47.46005" lon="6.8003">
        <ele>444.2</ele>
        <time>2017-12-10T09:48:57.999Z</time>
      </trkpt>
      <trkpt lat="47.46004" lon="6.80023">
        <ele>443.7</ele>
        <time>2017-12-10T09:48:58.999Z</time>
      </trkpt>
      <trkpt lat="47.46003" lon="6.80016">
        <ele>443.1</ele>
        <time>2017-12-10T09:48:59.999Z</time>
      </trkpt>
      <trkpt lat="47.46003" lon="6.8001">
        <ele>441.9</ele>
        <time>2017-12-10T09:49:01.999Z</time>
      </trkpt>
      <trkpt lat="47.46004" lon="6.80008">
        <ele>441.3</ele>
        <time>2017-12-10T09:49:02.999Z</time>
      </trkpt>
      <trkpt lat="47.46005" lon="6.80004">
        <ele>440.7</ele>
        <time>2017-12-10T09:49:03.999Z</time>
      </trkpt>
      <trkpt lat="47.46005" lon="6.79998">
        <ele>440.3</ele>
        <time>2017-12-10T09:49:04.999Z</time>
      </trkpt>
      <trkpt lat="47.46005" lon="6.7999">
        <ele>439.8</ele>
        <time>2017-12-10T09:49:05.999Z</time>
      </trkpt>
      <trkpt lat="47.46006" lon="6.7998">
        <ele>434.3</ele>
        <time>2017-12-10T09:49:06.999Z</time>
      </trkpt>
      <trkpt lat="47.46007" lon="6.79975">
        <ele>433.8</ele>
        <time>2017-12-10T09:49:07.999Z</time>
      </trkpt>
      <trkpt lat="47.46008" lon="6.79966">
        <ele>433.3</ele>
        <time>2017-12-10T09:49:08.999Z</time>
      </trkpt>
      <trkpt lat="47.46009" lon="6.79956">
        <ele>427.9</ele>
        <time>2017-12-10T09:49:09.999Z</time>
      </trkpt>
      <trkpt lat="47.46009" lon="6.79947">
        <ele>427.6</ele>
        <time>2017-12-10T09:49:10.999Z</time>
      </trkpt>
      <trkpt lat="47.46008" lon="6.79936">
        <ele>427.1</ele>
        <time>2017-12-10T09:49:11.999Z</time>
      </trkpt>
      <trkpt lat="47.46007" lon="6.79924">
        <ele>426.7</ele>
        <time>2017-12-10T09:49:12.999Z</time>
      </trkpt>
      <trkpt lat="47.46005" lon="6.79914">
        <ele>426.2</ele>
        <time>2017-12-10T09:49:13.999Z</time>
      </trkpt>
      <trkpt lat="47.46005" lon="6.79904">
        <ele>425.6</ele>
        <time>2017-12-10T09:49:14.999Z</time>
      </trkpt>
      <trkpt lat="47.46006" lon="6.79894">
        <ele>421.1</ele>
        <time>2017-12-10T09:49:15.999Z</time>
      </trkpt>
      <trkpt lat="47.46007" lon="6.79887">
        <ele>417.9</ele>
        <time>2017-12-10T09:49:16.999Z</time>
      </trkpt>
      <trkpt lat="47.46009" lon="6.79881">
        <ele>415.3</ele>
        <time>2017-12-10T09:49:17.999Z</time>
      </trkpt>
      <trkpt lat="47.46012" lon="6.79876">
        <ele>413.7</ele>
        <time>2017-12-10T09:49:18.999Z</time>
      </trkpt>
      <trkpt lat="47.46015" lon="6.79867">
        <ele>412.8</ele>
        <time>2017-12-10T09:49:19.999Z</time>
      </trkpt>
      <trkpt lat="47.46017" lon="6.79861">
        <ele>411.7</ele>
        <time>2017-12-10T09:49:20.999Z</time>
      </trkpt>
      <trkpt lat="47.4602" lon="6.79854">
        <ele>410.3</ele>
        <time>2017-12-10T09:49:21.999Z</time>
      </trkpt>
      <trkpt lat="47.46023" lon="6.79845">
        <ele>408.6</ele>
        <time>2017-12-10T09:49:22.999Z</time>
      </trkpt>
      <trkpt lat="47.46026" lon="6.79837">
        <ele>406.5</ele>
        <time>2017-12-10T09:49:23.999Z</time>
      </trkpt>
      <trkpt lat="47.46031" lon="6.79831">
        <ele>405</ele>
        <time>2017-12-10T09:49:24.999Z</time>
      </trkpt>
      <trkpt lat="47.46037" lon="6.79825">
        <ele>403.1</ele>
        <time>2017-12-10T09:49:25.999Z</time>
      </trkpt>
      <trkpt lat="47.4604" lon="6.79815">
        <ele>403</ele>
        <time>2017-12-10T09:49:26.999Z</time>
      </trkpt>
      <trkpt lat="47.46041" lon="6.79807">
        <ele>402.8</ele>
        <time>2017-12-10T09:49:27.999Z</time>
      </trkpt>
      <trkpt lat="47.46042" lon="6.798">
        <ele>402.6</ele>
        <time>2017-12-10T09:49:28.999Z</time>
      </trkpt>
      <trkpt lat="47.46043" lon="6.79794">
        <ele>402.4</ele>
        <time>2017-12-10T09:49:29.999Z</time>
      </trkpt>
      <trkpt lat="47.46042" lon="6.79786">
        <ele>402.3</ele>
        <time>2017-12-10T09:49:30.999Z</time>
      </trkpt>
      <trkpt lat="47.46042" lon="6.79778">
        <ele>402.2</ele>
        <time>2017-12-10T09:49:32.000Z</time>
      </trkpt>
      <trkpt lat="47.46042" lon="6.79774">
        <ele>402.1</ele>
        <time>2017-12-10T09:49:32.999Z</time>
      </trkpt>
      <trkpt lat="47.46042" lon="6.79768">
        <ele>401.9</ele>
        <time>2017-12-10T09:49:33.999Z</time>
      </trkpt>
      <trkpt lat="47.46043" lon="6.79764">
        <ele>401.4</ele>
        <time>2017-12-10T09:49:36.000Z</time>
      </trkpt>
      <trkpt lat="47.46044" lon="6.7976">
        <ele>401.2</ele>
        <time>2017-12-10T09:49:37.000Z</time>
      </trkpt>
      <trkpt lat="47.46045" lon="6.79752">
        <ele>401.1</ele>
        <time>2017-12-10T09:49:38.000Z</time>
      </trkpt>
      <trkpt lat="47.46046" lon="6.79744">
        <ele>401</ele>
        <time>2017-12-10T09:49:39.000Z</time>
      </trkpt>
      <trkpt lat="47.46046" lon="6.79735">
        <ele>401</ele>
        <time>2017-12-10T09:49:40.000Z</time>
      </trkpt>
      <trkpt lat="47.46047" lon="6.79727">
        <ele>401</ele>
        <time>2017-12-10T09:49:41.000Z</time>
      </trkpt>
      <trkpt lat="47.46048" lon="6.7972">
        <ele>401.1</ele>
        <time>2017-12-10T09:49:42.000Z</time>
      </trkpt>
      <trkpt lat="47.46049" lon="6.79713">
        <ele>401.1</ele>
        <time>2017-12-10T09:49:43.000Z</time>
      </trkpt>
      <trkpt lat="47.46048" lon="6.7971">
        <ele>401.1</ele>
        <time>2017-12-10T09:49:44.000Z</time>
      </trkpt>
      <trkpt lat="47.46048" lon="6.79704">
        <ele>401.2</ele>
        <time>2017-12-10T09:49:45.000Z</time>
      </trkpt>
      <trkpt lat="47.46047" lon="6.79698">
        <ele>401.3</ele>
        <time>2017-12-10T09:49:46.000Z</time>
      </trkpt>
      <trkpt lat="47.46046" lon="6.7969">
        <ele>401.6</ele>
        <time>2017-12-10T09:49:47.000Z</time>
      </trkpt>
      <trkpt lat="47.46045" lon="6.79684">
        <ele>401.9</ele>
        <time>2017-12-10T09:49:48.000Z</time>
      </trkpt>
      <trkpt lat="47.46044" lon="6.79676">
        <ele>402.2</ele>
        <time>2017-12-10T09:49:49.000Z</time>
      </trkpt>
      <trkpt lat="47.46044" lon="6.7967">
        <ele>402.6</ele>
        <time>2017-12-10T09:49:50.000Z</time>
      </trkpt>
      <trkpt lat="47.46044" lon="6.79661">
        <ele>403</ele>
        <time>2017-12-10T09:49:51.000Z</time>
      </trkpt>
      <trkpt lat="47.46044" lon="6.79654">
        <ele>403.4</ele>
        <time>2017-12-10T09:49:52.000Z</time>
      </trkpt>
      <trkpt lat="47.46044" lon="6.79651">
        <ele>403.8</ele>
        <time>2017-12-10T09:49:53.000Z</time>
      </trkpt>
      <trkpt lat="47.46046" lon="6.79644">
        <ele>404.2</ele>
        <time>2017-12-10T09:49:54.000Z</time>
      </trkpt>
      <trkpt lat="47.46047" lon="6.79639">
        <ele>404.9</ele>
        <time>2017-12-10T09:49:56.000Z</time>
      </trkpt>
      <trkpt lat="47.46047" lon="6.79633">
        <ele>405.3</ele>
        <time>2017-12-10T09:49:57.000Z</time>
      </trkpt>
      <trkpt lat="47.46048" lon="6.79626">
        <ele>405.6</ele>
        <time>2017-12-10T09:49:58.000Z</time>
      </trkpt>
      <trkpt lat="47.46048" lon="6.7962">
        <ele>406.4</ele>
        <time>2017-12-10T09:50:00.000Z</time>
      </trkpt>
      <trkpt lat="47.46048" lon="6.79618">
        <ele>406.9</ele>
        <time>2017-12-10T09:50:01.000Z</time>
      </trkpt>
      <trkpt lat="47.46048" lon="6.79614">
        <ele>407.4</ele>
        <time>2017-12-10T09:50:02.000Z</time>
      </trkpt>
      <trkpt lat="47.46049" lon="6.79607">
        <ele>407.8</ele>
        <time>2017-12-10T09:50:03.000Z</time>
      </trkpt>
      <trkpt lat="47.4605" lon="6.79604">
        <ele>408.3</ele>
        <time>2017-12-10T09:50:04.000Z</time>
      </trkpt>
      <trkpt lat="47.46051" lon="6.796">
        <ele>408.8</ele>
        <time>2017-12-10T09:50:05.000Z</time>
      </trkpt>
      <trkpt lat="47.46052" lon="6.79595">
        <ele>409.2</ele>
        <time>2017-12-10T09:50:06.000Z</time>
      </trkpt>
      <trkpt lat="47.46053" lon="6.79588">
        <ele>409.6</ele>
        <time>2017-12-10T09:50:07.000Z</time>
      </trkpt>
      <trkpt lat="47.46054" lon="6.7958">
        <ele>410.1</ele>
        <time>2017-12-10T09:50:08.000Z</time>
      </trkpt>
      <trkpt lat="47.46055" lon="6.79576">
        <ele>410.6</ele>
        <time>2017-12-10T09:50:09.000Z</time>
      </trkpt>
      <trkpt lat="47.46057" lon="6.79573">
        <ele>411</ele>
        <time>2017-12-10T09:50:10.000Z</time>
      </trkpt>
      <trkpt lat="47.46058" lon="6.7957">
        <ele>411.4</ele>
        <time>2017-12-10T09:50:11.000Z</time>
      </trkpt>
      <trkpt lat="47.46059" lon="6.79567">
        <ele>411.7</ele>
        <time>2017-12-10T09:50:12.000Z</time>
      </trkpt>
      <trkpt lat="47.4606" lon="6.79559">
        <ele>412</ele>
        <time>2017-12-10T09:50:13.000Z</time>
      </trkpt>
      <trkpt lat="47.4606" lon="6.79554">
        <ele>412.4</ele>
        <time>2017-12-10T09:50:14.000Z</time>
      </trkpt>
      <trkpt lat="47.46062" lon="6.79545">
        <ele>412.7</ele>
        <time>2017-12-10T09:50:15.000Z</time>
      </trkpt>
      <trkpt lat="47.46062" lon="6.79541">
        <ele>413</ele>
        <time>2017-12-10T09:50:16.000Z</time>
      </trkpt>
      <trkpt lat="47.46062" lon="6.79536">
        <ele>413.4</ele>
        <time>2017-12-10T09:50:17.000Z</time>
      </trkpt>
      <trkpt lat="47.46063" lon="6.79531">
        <ele>413.9</ele>
        <time>2017-12-10T09:50:18.000Z</time>
      </trkpt>
      <trkpt lat="47.46064" lon="6.79526">
        <ele>414.2</ele>
        <time>2017-12-10T09:50:19.000Z</time>
      </trkpt>
      <trkpt lat="47.46064" lon="6.79521">
        <ele>414.5</ele>
        <time>2017-12-10T09:50:20.000Z</time>
      </trkpt>
      <trkpt lat="47.46065" lon="6.79516">
        <ele>414.9</ele>
        <time>2017-12-10T09:50:21.000Z</time>
      </trkpt>
      <trkpt lat="47.46066" lon="6.79511">
        <ele>415.3</ele>
        <time>2017-12-10T09:50:22.000Z</time>
      </trkpt>
      <trkpt lat="47.46067" lon="6.79503">
        <ele>415.7</ele>
        <time>2017-12-10T09:50:23.000Z</time>
      </trkpt>
      <trkpt lat="47.46068" lon="6.79494">
        <ele>416</ele>
        <time>2017-12-10T09:50:24.000Z</time>
      </trkpt>
      <trkpt lat="47.46068" lon="6.79491">
        <ele>416.3</ele>
        <time>2017-12-10T09:50:25.000Z</time>
      </trkpt>
      <trkpt lat="47.46069" lon="6.79487">
        <ele>416.6</ele>
        <time>2017-12-10T09:50:26.000Z</time>
      </trkpt>
      <trkpt lat="47.46069" lon="6.79483">
        <ele>416.9</ele>
        <time>2017-12-10T09:50:27.000Z</time>
      </trkpt>
      <trkpt lat="47.4607" lon="6.79478">
        <ele>417.2</ele>
        <time>2017-12-10T09:50:28.000Z</time>
      </trkpt>
      <trkpt lat="47.4607" lon="6.79473">
        <ele>417.5</ele>
        <time>2017-12-10T09:50:29.000Z</time>
      </trkpt>
      <trkpt lat="47.46072" lon="6.79465">
        <ele>417.7</ele>
        <time>2017-12-10T09:50:30.000Z</time>
      </trkpt>
      <trkpt lat="47.46072" lon="6.7946">
        <ele>418</ele>
        <time>2017-12-10T09:50:31.000Z</time>
      </trkpt>
      <trkpt lat="47.46073" lon="6.79456">
        <ele>418.4</ele>
        <time>2017-12-10T09:50:32.000Z</time>
      </trkpt>
      <trkpt lat="47.46073" lon="6.79452">
        <ele>418.7</ele>
        <time>2017-12-10T09:50:33.000Z</time>
      </trkpt>
      <trkpt lat="47.46073" lon="6.79448">
        <ele>419</ele>
        <time>2017-12-10T09:50:34.000Z</time>
      </trkpt>
      <trkpt lat="47.46073" lon="6.79443">
        <ele>419.2</ele>
        <time>2017-12-10T09:50:35.000Z</time>
      </trkpt>
      <trkpt lat="47.46073" lon="6.79439">
        <ele>419.4</ele>
        <time>2017-12-10T09:50:36.000Z</time>
      </trkpt>
      <trkpt lat="47.46073" lon="6.79434">
        <ele>419.6</ele>
        <time>2017-12-10T09:50:37.000Z</time>
      </trkpt>
      <trkpt lat="47.46073" lon="6.79424">
        <ele>419.8</ele>
        <time>2017-12-10T09:50:38.000Z</time>
      </trkpt>
      <trkpt lat="47.46075" lon="6.79417">
        <ele>420.1</ele>
        <time>2017-12-10T09:50:39.000Z</time>
      </trkpt>
      <trkpt lat="47.46076" lon="6.79412">
        <ele>420.3</ele>
        <time>2017-12-10T09:50:40.000Z</time>
      </trkpt>
      <trkpt lat="47.46075" lon="6.79406">
        <ele>420.6</ele>
        <time>2017-12-10T09:50:41.000Z</time>
      </trkpt>
      <trkpt lat="47.46074" lon="6.79396">
        <ele>423.2</ele>
        <time>2017-12-10T09:50:42.000Z</time>
      </trkpt>
      <trkpt lat="47.46074" lon="6.79391">
        <ele>423.4</ele>
        <time>2017-12-10T09:50:43.000Z</time>
      </trkpt>
      <trkpt lat="47.46073" lon="6.79386">
        <ele>423.5</ele>
        <time>2017-12-10T09:50:44.000Z</time>
      </trkpt>
      <trkpt lat="47.46073" lon="6.7938">
        <ele>423.7</ele>
        <time>2017-12-10T09:50:45.000Z</time>
      </trkpt>
      <trkpt lat="47.46072" lon="6.79374">
        <ele>423.9</ele>
        <time>2017-12-10T09:50:46.000Z</time>
      </trkpt>
      <trkpt lat="47.46071" lon="6.79368">
        <ele>427</ele>
        <time>2017-12-10T09:50:47.000Z</time>
      </trkpt>
      <trkpt lat="47.46071" lon="6.79361">
        <ele>430.1</ele>
        <time>2017-12-10T09:50:48.000Z</time>
      </trkpt>
      <trkpt lat="47.4607" lon="6.79355">
        <ele>432.7</ele>
        <time>2017-12-10T09:50:49.000Z</time>
      </trkpt>
      <trkpt lat="47.4607" lon="6.79349">
        <ele>434.7</ele>
        <time>2017-12-10T09:50:50.000Z</time>
      </trkpt>
      <trkpt lat="47.46069" lon="6.79342">
        <ele>436.1</ele>
        <time>2017-12-10T09:50:51.000Z</time>
      </trkpt>
      <trkpt lat="47.46069" lon="6.79335">
        <ele>437.4</ele>
        <time>2017-12-10T09:50:52.000Z</time>
      </trkpt>
      <trkpt lat="47.46068" lon="6.79329">
        <ele>438.7</ele>
        <time>2017-12-10T09:50:53.000Z</time>
      </trkpt>
      <trkpt lat="47.46067" lon="6.79322">
        <ele>439.7</ele>
        <time>2017-12-10T09:50:54.000Z</time>
      </trkpt>
      <trkpt lat="47.46066" lon="6.79316">
        <ele>440.6</ele>
        <time>2017-12-10T09:50:55.000Z</time>
      </trkpt>
      <trkpt lat="47.46065" lon="6.79311">
        <ele>441.3</ele>
        <time>2017-12-10T09:50:56.000Z</time>
      </trkpt>
      <trkpt lat="47.46063" lon="6.79305">
        <ele>441.6</ele>
        <time>2017-12-10T09:50:57.000Z</time>
      </trkpt>
      <trkpt lat="47.46062" lon="6.79299">
        <ele>442.7</ele>
        <time>2017-12-10T09:50:58.000Z</time>
      </trkpt>
      <trkpt lat="47.46061" lon="6.79293">
        <ele>443</ele>
        <time>2017-12-10T09:50:59.000Z</time>
      </trkpt>
      <trkpt lat="47.4606" lon="6.79286">
        <ele>443.3</ele>
        <time>2017-12-10T09:51:00.000Z</time>
      </trkpt>
      <trkpt lat="47.46059" lon="6.79279">
        <ele>443.5</ele>
        <time>2017-12-10T09:51:01.000Z</time>
      </trkpt>
      <trkpt lat="47.46058" lon="6.79273">
        <ele>443.2</ele>
        <time>2017-12-10T09:51:02.000Z</time>
      </trkpt>
      <trkpt lat="47.46057" lon="6.79268">
        <ele>443.7</ele>
        <time>2017-12-10T09:51:03.000Z</time>
      </trkpt>
      <trkpt lat="47.46055" lon="6.79262">
        <ele>443.7</ele>
        <time>2017-12-10T09:51:04.000Z</time>
      </trkpt>
      <trkpt lat="47.46054" lon="6.79256">
        <ele>443.7</ele>
        <time>2017-12-10T09:51:05.000Z</time>
      </trkpt>
      <trkpt lat="47.46054" lon="6.79251">
        <ele>443.7</ele>
        <time>2017-12-10T09:51:06.000Z</time>
      </trkpt>
      <trkpt lat="47.46053" lon="6.79246">
        <ele>443.7</ele>
        <time>2017-12-10T09:51:07.000Z</time>
      </trkpt>
      <trkpt lat="47.46052" lon="6.79239">
        <ele>444.9</ele>
        <time>2017-12-10T09:51:08.000Z</time>
      </trkpt>
      <trkpt lat="47.46051" lon="6.79233">
        <ele>445.4</ele>
        <time>2017-12-10T09:51:09.000Z</time>
      </trkpt>
      <trkpt lat="47.46051" lon="6.79227">
        <ele>445.4</ele>
        <time>2017-12-10T09:51:10.000Z</time>
      </trkpt>
      <trkpt lat="47.4605" lon="6.79223">
        <ele>445.4</ele>
        <time>2017-12-10T09:51:11.000Z</time>
      </trkpt>
      <trkpt lat="47.46049" lon="6.79219">
        <ele>445.3</ele>
        <time>2017-12-10T09:51:12.000Z</time>
      </trkpt>
      <trkpt lat="47.46049" lon="6.79215">
        <ele>445.2</ele>
        <time>2017-12-10T09:51:13.000Z</time>
      </trkpt>
      <trkpt lat="47.46048" lon="6.79211">
        <ele>444.9</ele>
        <time>2017-12-10T09:51:14.000Z</time>
      </trkpt>
      <trkpt lat="47.46047" lon="6.79205">
        <ele>444.3</ele>
        <time>2017-12-10T09:51:16.000Z</time>
      </trkpt>
      <trkpt lat="47.46046" lon="6.79201">
        <ele>443.9</ele>
        <time>2017-12-10T09:51:17.000Z</time>
      </trkpt>
      <trkpt lat="47.46046" lon="6.79198">
        <ele>443.7</ele>
        <time>2017-12-10T09:51:18.000Z</time>
      </trkpt>
      <trkpt lat="47.46045" lon="6.79194">
        <ele>443.4</ele>
        <time>2017-12-10T09:51:19.000Z</time>
      </trkpt>
      <trkpt lat="47.46045" lon="6.79191">
        <ele>443.2</ele>
        <time>2017-12-10T09:51:20.000Z</time>
      </trkpt>
      <trkpt lat="47.46046" lon="6.79187">
        <ele>443</ele>
        <time>2017-12-10T09:51:21.000Z</time>
      </trkpt>
      <trkpt lat="47.46048" lon="6.79184">
        <ele>442.8</ele>
        <time>2017-12-10T09:51:22.000Z</time>
      </trkpt>
      <trkpt lat="47.4605" lon="6.79183">
        <ele>442.7</ele>
        <time>2017-12-10T09:51:23.000Z</time>
      </trkpt>
      <trkpt lat="47.46054" lon="6.79185">
        <ele>442.5</ele>
        <time>2017-12-10T09:51:25.000Z</time>
      </trkpt>
      <trkpt lat="47.46056" lon="6.79188">
        <ele>442.3</ele>
        <time>2017-12-10T09:51:26.000Z</time>
      </trkpt>
      <trkpt lat="47.46059" lon="6.79192">
        <ele>442.1</ele>
        <time>2017-12-10T09:51:27.000Z</time>
      </trkpt>
      <trkpt lat="47.46061" lon="6.79195">
        <ele>442</ele>
        <time>2017-12-10T09:51:28.000Z</time>
      </trkpt>
      <trkpt lat="47.46064" lon="6.79199">
        <ele>441.7</ele>
        <time>2017-12-10T09:51:30.000Z</time>
      </trkpt>
      <trkpt lat="47.46067" lon="6.79201">
        <ele>441.5</ele>
        <time>2017-12-10T09:51:31.000Z</time>
      </trkpt>
      <trkpt lat="47.4607" lon="6.79203">
        <ele>441.3</ele>
        <time>2017-12-10T09:51:32.000Z</time>
      </trkpt>
      <trkpt lat="47.46072" lon="6.79205">
        <ele>441.1</ele>
        <time>2017-12-10T09:51:33.000Z</time>
      </trkpt>
      <trkpt lat="47.46074" lon="6.79208">
        <ele>440.9</ele>
        <time>2017-12-10T09:51:34.000Z</time>
      </trkpt>
      <trkpt lat="47.46076" lon="6.79211">
        <ele>440.7</ele>
        <time>2017-12-10T09:51:35.000Z</time>
      </trkpt>
      <trkpt lat="47.46078" lon="6.79214">
        <ele>440.5</ele>
        <time>2017-12-10T09:51:36.000Z</time>
      </trkpt>
      <trkpt lat="47.46079" lon="6.79216">
        <ele>440.4</ele>
        <time>2017-12-10T09:51:37.000Z</time>
      </trkpt>
      <trkpt lat="47.46081" lon="6.79219">
        <ele>440.3</ele>
        <time>2017-12-10T09:51:38.000Z</time>
      </trkpt>
      <trkpt lat="47.46083" lon="6.79221">
        <ele>440.1</ele>
        <time>2017-12-10T09:51:39.000Z</time>
      </trkpt>
      <trkpt lat="47.46085" lon="6.79223">
        <ele>440</ele>
        <time>2017-12-10T09:51:40.000Z</time>
      </trkpt>
      <trkpt lat="47.46088" lon="6.79225">
        <ele>439.8</ele>
        <time>2017-12-10T09:51:41.000Z</time>
      </trkpt>
      <trkpt lat="47.46091" lon="6.79227">
        <ele>439.7</ele>
        <time>2017-12-10T09:51:42.000Z</time>
      </trkpt>
      <trkpt lat="47.46093" lon="6.7923">
        <ele>439.5</ele>
        <time>2017-12-10T09:51:43.000Z</time>
      </trkpt>
      <trkpt lat="47.46095" lon="6.79232">
        <ele>439.4</ele>
        <time>2017-12-10T09:51:44.000Z</time>
      </trkpt>
      <trkpt lat="47.46098" lon="6.79234">
        <ele>439.3</ele>
        <time>2017-12-10T09:51:45.000Z</time>
      </trkpt>
      <trkpt lat="47.461" lon="6.79237">
        <ele>439.2</ele>
        <time>2017-12-10T09:51:46.000Z</time>
      </trkpt>
      <trkpt lat="47.46103" lon="6.79239">
        <ele>439.2</ele>
        <time>2017-12-10T09:51:47.000Z</time>
      </trkpt>
      <trkpt lat="47.46105" lon="6.79242">
        <ele>439.1</ele>
        <time>2017-12-10T09:51:48.000Z</time>
      </trkpt>
      <trkpt lat="47.46106" lon="6.79245">
        <ele>439.1</ele>
        <time>2017-12-10T09:51:49.000Z</time>
      </trkpt>
      <trkpt lat="47.46108" lon="6.79248">
        <ele>439.1</ele>
        <time>2017-12-10T09:51:50.000Z</time>
      </trkpt>
      <trkpt lat="47.4611" lon="6.7925">
        <ele>439.1</ele>
        <time>2017-12-10T09:51:51.000Z</time>
      </trkpt>
      <trkpt lat="47.46111" lon="6.79254">
        <ele>438.9</ele>
        <time>2017-12-10T09:51:53.000Z</time>
      </trkpt>
      <trkpt lat="47.46112" lon="6.79256">
        <ele>438.8</ele>
        <time>2017-12-10T09:51:54.000Z</time>
      </trkpt>
      <trkpt lat="47.46116" lon="6.7926">
        <ele>438.7</ele>
        <time>2017-12-10T09:51:55.000Z</time>
      </trkpt>
      <trkpt lat="47.46119" lon="6.79262">
        <ele>438.7</ele>
        <time>2017-12-10T09:51:56.000Z</time>
      </trkpt>
      <trkpt lat="47.46121" lon="6.79264">
        <ele>438.6</ele>
        <time>2017-12-10T09:51:57.000Z</time>
      </trkpt>
      <trkpt lat="47.46123" lon="6.79267">
        <ele>438.6</ele>
        <time>2017-12-10T09:51:58.000Z</time>
      </trkpt>
      <trkpt lat="47.46125" lon="6.79269">
        <ele>438.5</ele>
        <time>2017-12-10T09:51:59.000Z</time>
      </trkpt>
      <trkpt lat="47.46129" lon="6.79275">
        <ele>438.5</ele>
        <time>2017-12-10T09:52:00.000Z</time>
      </trkpt>
      <trkpt lat="47.46132" lon="6.79278">
        <ele>438.5</ele>
        <time>2017-12-10T09:52:01.000Z</time>
      </trkpt>
      <trkpt lat="47.46133" lon="6.79282">
        <ele>438.5</ele>
        <time>2017-12-10T09:52:02.000Z</time>
      </trkpt>
      <trkpt lat="47.46135" lon="6.79286">
        <ele>438.6</ele>
        <time>2017-12-10T09:52:03.000Z</time>
      </trkpt>
      <trkpt lat="47.46138" lon="6.7929">
        <ele>438.6</ele>
        <time>2017-12-10T09:52:04.000Z</time>
      </trkpt>
      <trkpt lat="47.46142" lon="6.79296">
        <ele>438.6</ele>
        <time>2017-12-10T09:52:05.000Z</time>
      </trkpt>
      <trkpt lat="47.46145" lon="6.79299">
        <ele>438.6</ele>
        <time>2017-12-10T09:52:06.000Z</time>
      </trkpt>
      <trkpt lat="47.46146" lon="6.79303">
        <ele>438.7</ele>
        <time>2017-12-10T09:52:07.000Z</time>
      </trkpt>
      <trkpt lat="47.46148" lon="6.79307">
        <ele>438.6</ele>
        <time>2017-12-10T09:52:08.000Z</time>
      </trkpt>
      <trkpt lat="47.4615" lon="6.7931">
        <ele>438.7</ele>
        <time>2017-12-10T09:52:09.000Z</time>
      </trkpt>
      <trkpt lat="47.46152" lon="6.79314">
        <ele>438.7</ele>
        <time>2017-12-10T09:52:10.000Z</time>
      </trkpt>
      <trkpt lat="47.46154" lon="6.79316">
        <ele>438.8</ele>
        <time>2017-12-10T09:52:11.000Z</time>
      </trkpt>
      <trkpt lat="47.46157" lon="6.79317">
        <ele>438.9</ele>
        <time>2017-12-10T09:52:12.000Z</time>
      </trkpt>
      <trkpt lat="47.46159" lon="6.79316">
        <ele>439</ele>
        <time>2017-12-10T09:52:13.000Z</time>
      </trkpt>
      <trkpt lat="47.46165" lon="6.79313">
        <ele>439</ele>
        <time>2017-12-10T09:52:14.000Z</time>
      </trkpt>
      <trkpt lat="47.46169" lon="6.79309">
        <ele>438.7</ele>
        <time>2017-12-10T09:52:15.000Z</time>
      </trkpt>
      <trkpt lat="47.46171" lon="6.79305">
        <ele>438.7</ele>
        <time>2017-12-10T09:52:16.000Z</time>
      </trkpt>
      <trkpt lat="47.46173" lon="6.793">
        <ele>438.6</ele>
        <time>2017-12-10T09:52:17.000Z</time>
      </trkpt>
      <trkpt lat="47.46175" lon="6.79294">
        <ele>438.6</ele>
        <time>2017-12-10T09:52:18.000Z</time>
      </trkpt>
      <trkpt lat="47.46178" lon="6.79291">
        <ele>438.5</ele>
        <time>2017-12-10T09:52:19.000Z</time>
      </trkpt>
      <trkpt lat="47.46181" lon="6.79287">
        <ele>438.1</ele>
        <time>2017-12-10T09:52:20.000Z</time>
      </trkpt>
      <trkpt lat="47.46184" lon="6.79284">
        <ele>438.1</ele>
        <time>2017-12-10T09:52:21.000Z</time>
      </trkpt>
      <trkpt lat="47.46188" lon="6.79279">
        <ele>438</ele>
        <time>2017-12-10T09:52:22.000Z</time>
      </trkpt>
      <trkpt lat="47.46193" lon="6.79273">
        <ele>437.9</ele>
        <time>2017-12-10T09:52:23.000Z</time>
      </trkpt>
      <trkpt lat="47.46195" lon="6.7927">
        <ele>437.8</ele>
        <time>2017-12-10T09:52:24.000Z</time>
      </trkpt>
      <trkpt lat="47.46197" lon="6.79268">
        <ele>437.7</ele>
        <time>2017-12-10T09:52:25.000Z</time>
      </trkpt>
      <trkpt lat="47.462" lon="6.79264">
        <ele>437.5</ele>
        <time>2017-12-10T09:52:27.000Z</time>
      </trkpt>
      <trkpt lat="47.46202" lon="6.79263">
        <ele>437.5</ele>
        <time>2017-12-10T09:52:28.000Z</time>
      </trkpt>
      <trkpt lat="47.46204" lon="6.79262">
        <ele>437.5</ele>
        <time>2017-12-10T09:52:29.000Z</time>
      </trkpt>
      <trkpt lat="47.46208" lon="6.79262">
        <ele>437.5</ele>
        <time>2017-12-10T09:52:30.000Z</time>
      </trkpt>
      <trkpt lat="47.4621" lon="6.79265">
        <ele>437.6</ele>
        <time>2017-12-10T09:52:31.000Z</time>
      </trkpt>
      <trkpt lat="47.46213" lon="6.79268">
        <ele>437.6</ele>
        <time>2017-12-10T09:52:32.000Z</time>
      </trkpt>
      <trkpt lat="47.46218" lon="6.79274">
        <ele>437.7</ele>
        <time>2017-12-10T09:52:33.000Z</time>
      </trkpt>
      <trkpt lat="47.46224" lon="6.79279">
        <ele>437.6</ele>
        <time>2017-12-10T09:52:34.000Z</time>
      </trkpt>
      <trkpt lat="47.46229" lon="6.79286">
        <ele>437.5</ele>
        <time>2017-12-10T09:52:35.000Z</time>
      </trkpt>
      <trkpt lat="47.46231" lon="6.79293">
        <ele>437.4</ele>
        <time>2017-12-10T09:52:36.000Z</time>
      </trkpt>
      <trkpt lat="47.46232" lon="6.79296">
        <ele>437.2</ele>
        <time>2017-12-10T09:52:37.000Z</time>
      </trkpt>
      <trkpt lat="47.46233" lon="6.793">
        <ele>437.1</ele>
        <time>2017-12-10T09:52:38.000Z</time>
      </trkpt>
      <trkpt lat="47.46235" lon="6.79305">
        <ele>436.9</ele>
        <time>2017-12-10T09:52:39.000Z</time>
      </trkpt>
      <trkpt lat="47.46236" lon="6.79307">
        <ele>436.7</ele>
        <time>2017-12-10T09:52:40.000Z</time>
      </trkpt>
      <trkpt lat="47.46238" lon="6.79311">
        <ele>436.6</ele>
        <time>2017-12-10T09:52:41.000Z</time>
      </trkpt>
      <trkpt lat="47.46243" lon="6.79316">
        <ele>436.5</ele>
        <time>2017-12-10T09:52:42.000Z</time>
      </trkpt>
      <trkpt lat="47.46247" lon="6.79321">
        <ele>436</ele>
        <time>2017-12-10T09:52:43.000Z</time>
      </trkpt>
      <trkpt lat="47.4625" lon="6.79325">
        <ele>435.9</ele>
        <time>2017-12-10T09:52:44.000Z</time>
      </trkpt>
      <trkpt lat="47.46251" lon="6.79327">
        <ele>435.9</ele>
        <time>2017-12-10T09:52:45.000Z</time>
      </trkpt>
      <trkpt lat="47.46253" lon="6.7933">
        <ele>435.9</ele>
        <time>2017-12-10T09:52:46.000Z</time>
      </trkpt>
      <trkpt lat="47.46255" lon="6.79332">
        <ele>436</ele>
        <time>2017-12-10T09:52:47.000Z</time>
      </trkpt>
      <trkpt lat="47.46257" lon="6.79334">
        <ele>436</ele>
        <time>2017-12-10T09:52:48.000Z</time>
      </trkpt>
      <trkpt lat="47.46259" lon="6.79336">
        <ele>435.9</ele>
        <time>2017-12-10T09:52:49.000Z</time>
      </trkpt>
      <trkpt lat="47.46263" lon="6.79341">
        <ele>435.8</ele>
        <time>2017-12-10T09:52:50.000Z</time>
      </trkpt>
      <trkpt lat="47.46267" lon="6.79345">
        <ele>435.7</ele>
        <time>2017-12-10T09:52:51.000Z</time>
      </trkpt>
      <trkpt lat="47.4627" lon="6.79347">
        <ele>435.3</ele>
        <time>2017-12-10T09:52:53.000Z</time>
      </trkpt>
      <trkpt lat="47.46273" lon="6.7935">
        <ele>435.2</ele>
        <time>2017-12-10T09:52:54.000Z</time>
      </trkpt>
      <trkpt lat="47.46276" lon="6.79352">
        <ele>435.1</ele>
        <time>2017-12-10T09:52:55.000Z</time>
      </trkpt>
      <trkpt lat="47.46278" lon="6.79354">
        <ele>435</ele>
        <time>2017-12-10T09:52:56.000Z</time>
      </trkpt>
      <trkpt lat="47.4628" lon="6.79356">
        <ele>434.9</ele>
        <time>2017-12-10T09:52:57.000Z</time>
      </trkpt>
      <trkpt lat="47.46283" lon="6.79358">
        <ele>434.7</ele>
        <time>2017-12-10T09:52:58.000Z</time>
      </trkpt>
      <trkpt lat="47.46286" lon="6.7936">
        <ele>434.6</ele>
        <time>2017-12-10T09:52:59.000Z</time>
      </trkpt>
      <trkpt lat="47.46288" lon="6.79361">
        <ele>434.5</ele>
        <time>2017-12-10T09:53:00.000Z</time>
      </trkpt>
      <trkpt lat="47.4629" lon="6.79363">
        <ele>434.5</ele>
        <time>2017-12-10T09:53:01.000Z</time>
      </trkpt>
      <trkpt lat="47.46292" lon="6.79366">
        <ele>434.4</ele>
        <time>2017-12-10T09:53:02.000Z</time>
      </trkpt>
      <trkpt lat="47.46294" lon="6.7937">
        <ele>434.3</ele>
        <time>2017-12-10T09:53:03.000Z</time>
      </trkpt>
      <trkpt lat="47.46296" lon="6.79374">
        <ele>434.1</ele>
        <time>2017-12-10T09:53:04.000Z</time>
      </trkpt>
      <trkpt lat="47.46299" lon="6.79378">
        <ele>433.8</ele>
        <time>2017-12-10T09:53:06.000Z</time>
      </trkpt>
      <trkpt lat="47.46301" lon="6.79381">
        <ele>433.8</ele>
        <time>2017-12-10T09:53:07.000Z</time>
      </trkpt>
      <trkpt lat="47.46303" lon="6.79385">
        <ele>433.7</ele>
        <time>2017-12-10T09:53:08.000Z</time>
      </trkpt>
      <trkpt lat="47.46305" lon="6.79388">
        <ele>433.7</ele>
        <time>2017-12-10T09:53:09.000Z</time>
      </trkpt>
      <trkpt lat="47.46308" lon="6.79394">
        <ele>433.7</ele>
        <time>2017-12-10T09:53:10.000Z</time>
      </trkpt>
      <trkpt lat="47.4631" lon="6.79397">
        <ele>433.5</ele>
        <time>2017-12-10T09:53:11.000Z</time>
      </trkpt>
      <trkpt lat="47.46311" lon="6.79401">
        <ele>433.4</ele>
        <time>2017-12-10T09:53:12.000Z</time>
      </trkpt>
      <trkpt lat="47.46315" lon="6.79406">
        <ele>433.2</ele>
        <time>2017-12-10T09:53:13.000Z</time>
      </trkpt>
      <trkpt lat="47.46319" lon="6.79411">
        <ele>433</ele>
        <time>2017-12-10T09:53:14.000Z</time>
      </trkpt>
      <trkpt lat="47.46322" lon="6.79416">
        <ele>432.9</ele>
        <time>2017-12-10T09:53:15.000Z</time>
      </trkpt>
      <trkpt lat="47.46324" lon="6.7942">
        <ele>432.6</ele>
        <time>2017-12-10T09:53:16.000Z</time>
      </trkpt>
      <trkpt lat="47.46326" lon="6.79423">
        <ele>432.5</ele>
        <time>2017-12-10T09:53:17.000Z</time>
      </trkpt>
      <trkpt lat="47.46327" lon="6.79426">
        <ele>432.3</ele>
        <time>2017-12-10T09:53:18.000Z</time>
      </trkpt>
      <trkpt lat="47.46329" lon="6.7943">
        <ele>432.1</ele>
        <time>2017-12-10T09:53:19.000Z</time>
      </trkpt>
      <trkpt lat="47.46329" lon="6.79435">
        <ele>431.9</ele>
        <time>2017-12-10T09:53:20.000Z</time>
      </trkpt>
      <trkpt lat="47.46329" lon="6.79437">
        <ele>431.8</ele>
        <time>2017-12-10T09:53:21.000Z</time>
      </trkpt>
      <trkpt lat="47.46329" lon="6.79441">
        <ele>431.3</ele>
        <time>2017-12-10T09:53:23.000Z</time>
      </trkpt>
      <trkpt lat="47.46329" lon="6.79444">
        <ele>431.1</ele>
        <time>2017-12-10T09:53:24.000Z</time>
      </trkpt>
      <trkpt lat="47.4633" lon="6.79452">
        <ele>430.9</ele>
        <time>2017-12-10T09:53:25.000Z</time>
      </trkpt>
      <trkpt lat="47.46331" lon="6.79455">
        <ele>430.6</ele>
        <time>2017-12-10T09:53:26.000Z</time>
      </trkpt>
      <trkpt lat="47.46332" lon="6.79462">
        <ele>430.3</ele>
        <time>2017-12-10T09:53:27.000Z</time>
      </trkpt>
      <trkpt lat="47.46333" lon="6.7947">
        <ele>428.3</ele>
        <time>2017-12-10T09:53:28.000Z</time>
      </trkpt>
      <trkpt lat="47.46334" lon="6.79479">
        <ele>428.2</ele>
        <time>2017-12-10T09:53:29.000Z</time>
      </trkpt>
      <trkpt lat="47.46336" lon="6.79487">
        <ele>428</ele>
        <time>2017-12-10T09:53:30.000Z</time>
      </trkpt>
      <trkpt lat="47.46337" lon="6.79493">
        <ele>427.8</ele>
        <time>2017-12-10T09:53:36.000Z</time>
      </trkpt>
      <trkpt lat="47.46336" lon="6.79494">
        <ele>427.6</ele>
        <time>2017-12-10T09:53:37.000Z</time>
      </trkpt>
      <trkpt lat="47.46338" lon="6.79496">
        <ele>427.4</ele>
        <time>2017-12-10T09:53:40.000Z</time>
      </trkpt>
      <trkpt lat="47.46341" lon="6.79499">
        <ele>427.4</ele>
        <time>2017-12-10T09:53:41.000Z</time>
      </trkpt>
      <trkpt lat="47.46345" lon="6.79501">
        <ele>427.3</ele>
        <time>2017-12-10T09:53:43.000Z</time>
      </trkpt>
      <trkpt lat="47.46346" lon="6.79503">
        <ele>427.2</ele>
        <time>2017-12-10T09:53:44.000Z</time>
      </trkpt>
      <trkpt lat="47.46349" lon="6.79504">
        <ele>427.2</ele>
        <time>2017-12-10T09:53:45.000Z</time>
      </trkpt>
      <trkpt lat="47.4635" lon="6.79506">
        <ele>427.2</ele>
        <time>2017-12-10T09:53:46.000Z</time>
      </trkpt>
      <trkpt lat="47.46354" lon="6.79504">
        <ele>427</ele>
        <time>2017-12-10T09:53:48.000Z</time>
      </trkpt>
      <trkpt lat="47.46355" lon="6.79503">
        <ele>426.9</ele>
        <time>2017-12-10T09:53:49.000Z</time>
      </trkpt>
      <trkpt lat="47.46359" lon="6.79499">
        <ele>426.6</ele>
        <time>2017-12-10T09:53:51.000Z</time>
      </trkpt>
      <trkpt lat="47.46361" lon="6.79497">
        <ele>426.4</ele>
        <time>2017-12-10T09:53:52.000Z</time>
      </trkpt>
      <trkpt lat="47.46362" lon="6.79495">
        <ele>426.1</ele>
        <time>2017-12-10T09:53:53.000Z</time>
      </trkpt>
      <trkpt lat="47.46365" lon="6.79492">
        <ele>425.7</ele>
        <time>2017-12-10T09:53:54.000Z</time>
      </trkpt>
      <trkpt lat="47.46368" lon="6.79488">
        <ele>423.6</ele>
        <time>2017-12-10T09:54:04.000Z</time>
      </trkpt>
      <trkpt lat="47.46369" lon="6.79488">
        <ele>423.3</ele>
        <time>2017-12-10T09:54:05.000Z</time>
      </trkpt>
      <trkpt lat="47.4637" lon="6.79488">
        <ele>423</ele>
        <time>2017-12-10T09:54:06.000Z</time>
      </trkpt>
      <trkpt lat="47.46374" lon="6.79488">
        <ele>422.6</ele>
        <time>2017-12-10T09:54:07.000Z</time>
      </trkpt>
      <trkpt lat="47.46377" lon="6.79488">
        <ele>422.1</ele>
        <time>2017-12-10T09:54:13.000Z</time>
      </trkpt>
      <trkpt lat="47.46381" lon="6.79484">
        <ele>422</ele>
        <time>2017-12-10T09:54:14.000Z</time>
      </trkpt>
      <trkpt lat="47.46384" lon="6.79477">
        <ele>422</ele>
        <time>2017-12-10T09:54:15.000Z</time>
      </trkpt>
      <trkpt lat="47.46387" lon="6.79472">
        <ele>422</ele>
        <time>2017-12-10T09:54:16.000Z</time>
      </trkpt>
      <trkpt lat="47.4639" lon="6.79466">
        <ele>421.9</ele>
        <time>2017-12-10T09:54:17.000Z</time>
      </trkpt>
      <trkpt lat="47.46392" lon="6.79462">
        <ele>421.7</ele>
        <time>2017-12-10T09:54:19.000Z</time>
      </trkpt>
      <trkpt lat="47.46395" lon="6.79457">
        <ele>421.6</ele>
        <time>2017-12-10T09:54:20.000Z</time>
      </trkpt>
      <trkpt lat="47.46397" lon="6.79451">
        <ele>421.5</ele>
        <time>2017-12-10T09:54:21.000Z</time>
      </trkpt>
      <trkpt lat="47.46399" lon="6.79448">
        <ele>421.5</ele>
        <time>2017-12-10T09:54:22.000Z</time>
      </trkpt>
      <trkpt lat="47.464" lon="6.79444">
        <ele>421.4</ele>
        <time>2017-12-10T09:54:23.000Z</time>
      </trkpt>
      <trkpt lat="47.464" lon="6.79442">
        <ele>421.4</ele>
        <time>2017-12-10T09:54:24.000Z</time>
      </trkpt>
      <trkpt lat="47.46401" lon="6.79435">
        <ele>421.3</ele>
        <time>2017-12-10T09:54:25.000Z</time>
      </trkpt>
      <trkpt lat="47.46401" lon="6.7943">
        <ele>421</ele>
        <time>2017-12-10T09:54:27.000Z</time>
      </trkpt>
      <trkpt lat="47.46402" lon="6.79427">
        <ele>420.8</ele>
        <time>2017-12-10T09:54:28.000Z</time>
      </trkpt>
      <trkpt lat="47.46403" lon="6.79425">
        <ele>420.8</ele>
        <time>2017-12-10T09:54:29.000Z</time>
      </trkpt>
      <trkpt lat="47.46405" lon="6.7942">
        <ele>420.8</ele>
        <time>2017-12-10T09:54:30.000Z</time>
      </trkpt>
      <trkpt lat="47.46406" lon="6.79418">
        <ele>420.3</ele>
        <time>2017-12-10T09:54:34.000Z</time>
      </trkpt>
      <trkpt lat="47.46407" lon="6.79413">
        <ele>420.2</ele>
        <time>2017-12-10T09:54:35.000Z</time>
      </trkpt>
      <trkpt lat="47.46408" lon="6.79408">
        <ele>420.1</ele>
        <time>2017-12-10T09:54:36.000Z</time>
      </trkpt>
      <trkpt lat="47.46408" lon="6.79403">
        <ele>420</ele>
        <time>2017-12-10T09:54:37.000Z</time>
      </trkpt>
      <trkpt lat="47.46407" lon="6.79397">
        <ele>419.4</ele>
        <time>2017-12-10T09:54:43.000Z</time>
      </trkpt>
      <trkpt lat="47.46407" lon="6.79392">
        <ele>419.4</ele>
        <time>2017-12-10T09:54:44.000Z</time>
      </trkpt>
      <trkpt lat="47.46407" lon="6.79388">
        <ele>419.4</ele>
        <time>2017-12-10T09:54:50.000Z</time>
      </trkpt>
      <trkpt lat="47.46407" lon="6.79384">
        <ele>419.4</ele>
        <time>2017-12-10T09:54:51.000Z</time>
      </trkpt>
      <trkpt lat="47.46407" lon="6.79379">
        <ele>419.4</ele>
        <time>2017-12-10T09:54:53.000Z</time>
      </trkpt>
      <trkpt lat="47.46407" lon="6.79375">
        <ele>419.4</ele>
        <time>2017-12-10T09:54:54.000Z</time>
      </trkpt>
      <trkpt lat="47.46407" lon="6.79371">
        <ele>419.4</ele>
        <time>2017-12-10T09:54:57.000Z</time>
      </trkpt>
      <trkpt lat="47.46407" lon="6.79367">
        <ele>419.3</ele>
        <time>2017-12-10T09:54:58.000Z</time>
      </trkpt>
      <trkpt lat="47.4641" lon="6.79364">
        <ele>419.5</ele>
        <time>2017-12-10T09:55:05.000Z</time>
      </trkpt>
      <trkpt lat="47.46413" lon="6.79358">
        <ele>419.6</ele>
        <time>2017-12-10T09:55:06.000Z</time>
      </trkpt>
      <trkpt lat="47.46415" lon="6.79354">
        <ele>419.6</ele>
        <time>2017-12-10T09:55:07.000Z</time>
      </trkpt>
      <trkpt lat="47.46418" lon="6.79351">
        <ele>419.6</ele>
        <time>2017-12-10T09:55:08.000Z</time>
      </trkpt>
      <trkpt lat="47.46422" lon="6.79348">
        <ele>419.7</ele>
        <time>2017-12-10T09:55:09.000Z</time>
      </trkpt>
      <trkpt lat="47.46426" lon="6.79345">
        <ele>419.7</ele>
        <time>2017-12-10T09:55:10.000Z</time>
      </trkpt>
      <trkpt lat="47.46428" lon="6.79342">
        <ele>419.5</ele>
        <time>2017-12-10T09:55:12.000Z</time>
      </trkpt>
      <trkpt lat="47.46431" lon="6.79338">
        <ele>419.6</ele>
        <time>2017-12-10T09:55:13.000Z</time>
      </trkpt>
      <trkpt lat="47.46432" lon="6.79337">
        <ele>419.7</ele>
        <time>2017-12-10T09:55:14.000Z</time>
      </trkpt>
      <trkpt lat="47.46435" lon="6.79335">
        <ele>419.8</ele>
        <time>2017-12-10T09:55:15.000Z</time>
      </trkpt>
      <trkpt lat="47.46438" lon="6.79332">
        <ele>419.7</ele>
        <time>2017-12-10T09:55:16.000Z</time>
      </trkpt>
      <trkpt lat="47.4644" lon="6.79331">
        <ele>419.7</ele>
        <time>2017-12-10T09:55:17.000Z</time>
      </trkpt>
      <trkpt lat="47.46443" lon="6.79329">
        <ele>419.7</ele>
        <time>2017-12-10T09:55:19.000Z</time>
      </trkpt>
      <trkpt lat="47.46445" lon="6.79327">
        <ele>419.6</ele>
        <time>2017-12-10T09:55:20.000Z</time>
      </trkpt>
      <trkpt lat="47.46449" lon="6.79324">
        <ele>419.5</ele>
        <time>2017-12-10T09:55:23.000Z</time>
      </trkpt>
      <trkpt lat="47.46449" lon="6.79324">
        <ele>419.5</ele>
        <time>2017-12-10T09:55:24.000Z</time>
      </trkpt>
      <trkpt lat="47.46451" lon="6.79319">
        <ele>419.4</ele>
        <time>2017-12-10T09:55:25.000Z</time>
      </trkpt>
      <trkpt lat="47.46451" lon="6.79317">
        <ele>419.3</ele>
        <time>2017-12-10T09:55:26.000Z</time>
      </trkpt>
      <trkpt lat="47.46454" lon="6.79313">
        <ele>419.2</ele>
        <time>2017-12-10T09:55:29.000Z</time>
      </trkpt>
      <trkpt lat="47.46455" lon="6.79311">
        <ele>419.1</ele>
        <time>2017-12-10T09:55:30.000Z</time>
      </trkpt>
      <trkpt lat="47.46456" lon="6.79307">
        <ele>419.1</ele>
        <time>2017-12-10T09:55:32.000Z</time>
      </trkpt>
      <trkpt lat="47.46457" lon="6.79305">
        <ele>419</ele>
        <time>2017-12-10T09:55:33.000Z</time>
      </trkpt>
      <trkpt lat="47.46458" lon="6.79303">
        <ele>419</ele>
        <time>2017-12-10T09:55:34.000Z</time>
      </trkpt>
      <trkpt lat="47.4646" lon="6.79298">
        <ele>419</ele>
        <time>2017-12-10T09:55:35.000Z</time>
      </trkpt>
      <trkpt lat="47.46462" lon="6.79297">
        <ele>418.6</ele>
        <time>2017-12-10T09:55:38.000Z</time>
      </trkpt>
      <trkpt lat="47.46464" lon="6.79294">
        <ele>418.5</ele>
        <time>2017-12-10T09:55:39.000Z</time>
      </trkpt>
      <trkpt lat="47.46467" lon="6.79291">
        <ele>418.4</ele>
        <time>2017-12-10T09:55:40.000Z</time>
      </trkpt>
      <trkpt lat="47.46468" lon="6.79289">
        <ele>418.3</ele>
        <time>2017-12-10T09:55:41.000Z</time>
      </trkpt>
      <trkpt lat="47.46471" lon="6.79287">
        <ele>418.2</ele>
        <time>2017-12-10T09:55:43.000Z</time>
      </trkpt>
      <trkpt lat="47.46475" lon="6.79285">
        <ele>418.4</ele>
        <time>2017-12-10T09:55:44.000Z</time>
      </trkpt>
      <trkpt lat="47.46477" lon="6.79282">
        <ele>418.4</ele>
        <time>2017-12-10T09:55:46.000Z</time>
      </trkpt>
      <trkpt lat="47.46478" lon="6.7928">
        <ele>418.3</ele>
        <time>2017-12-10T09:55:47.000Z</time>
      </trkpt>
      <trkpt lat="47.46482" lon="6.79275">
        <ele>418.1</ele>
        <time>2017-12-10T09:55:49.000Z</time>
      </trkpt>
      <trkpt lat="47.46482" lon="6.79273">
        <ele>417.9</ele>
        <time>2017-12-10T09:55:50.000Z</time>
      </trkpt>
      <trkpt lat="47.46482" lon="6.79271">
        <ele>417.8</ele>
        <time>2017-12-10T09:55:51.000Z</time>
      </trkpt>
      <trkpt lat="47.46484" lon="6.79267">
        <ele>417.6</ele>
        <time>2017-12-10T09:55:52.000Z</time>
      </trkpt>
      <trkpt lat="47.46487" lon="6.79263">
        <ele>417</ele>
        <time>2017-12-10T09:55:55.000Z</time>
      </trkpt>
      <trkpt lat="47.46489" lon="6.7926">
        <ele>416.9</ele>
        <time>2017-12-10T09:55:56.000Z</time>
      </trkpt>
      <trkpt lat="47.46491" lon="6.79255">
        <ele>416.8</ele>
        <time>2017-12-10T09:55:57.000Z</time>
      </trkpt>
      <trkpt lat="47.46491" lon="6.79252">
        <ele>416.8</ele>
        <time>2017-12-10T09:55:58.000Z</time>
      </trkpt>
      <trkpt lat="47.46494" lon="6.79248">
        <ele>416.5</ele>
        <time>2017-12-10T09:56:00.000Z</time>
      </trkpt>
      <trkpt lat="47.46495" lon="6.79245">
        <ele>416.5</ele>
        <time>2017-12-10T09:56:01.000Z</time>
      </trkpt>
      <trkpt lat="47.46498" lon="6.79241">
        <ele>416.3</ele>
        <time>2017-12-10T09:56:03.000Z</time>
      </trkpt>
      <trkpt lat="47.46499" lon="6.79239">
        <ele>416.3</ele>
        <time>2017-12-10T09:56:04.000Z</time>
      </trkpt>
      <trkpt lat="47.46502" lon="6.79234">
        <ele>416.2</ele>
        <time>2017-12-10T09:56:07.000Z</time>
      </trkpt>
      <trkpt lat="47.46502" lon="6.79233">
        <ele>416.1</ele>
        <time>2017-12-10T09:56:08.000Z</time>
      </trkpt>
      <trkpt lat="47.46504" lon="6.79229">
        <ele>416</ele>
        <time>2017-12-10T09:56:10.000Z</time>
      </trkpt>
      <trkpt lat="47.46505" lon="6.79224">
        <ele>415.9</ele>
        <time>2017-12-10T09:56:11.000Z</time>
      </trkpt>
      <trkpt lat="47.46505" lon="6.79222">
        <ele>416</ele>
        <time>2017-12-10T09:56:12.000Z</time>
      </trkpt>
      <trkpt lat="47.46507" lon="6.79216">
        <ele>415.9</ele>
        <time>2017-12-10T09:56:13.000Z</time>
      </trkpt>
      <trkpt lat="47.46509" lon="6.7921">
        <ele>415.9</ele>
        <time>2017-12-10T09:56:16.000Z</time>
      </trkpt>
      <trkpt lat="47.46509" lon="6.79209">
        <ele>416</ele>
        <time>2017-12-10T09:56:17.000Z</time>
      </trkpt>
      <trkpt lat="47.46511" lon="6.79204">
        <ele>416.1</ele>
        <time>2017-12-10T09:56:19.000Z</time>
      </trkpt>
      <trkpt lat="47.46512" lon="6.79203">
        <ele>416.2</ele>
        <time>2017-12-10T09:56:20.000Z</time>
      </trkpt>
      <trkpt lat="47.46514" lon="6.79197">
        <ele>416.7</ele>
        <time>2017-12-10T09:56:24.000Z</time>
      </trkpt>
      <trkpt lat="47.46516" lon="6.79194">
        <ele>416.8</ele>
        <time>2017-12-10T09:56:25.000Z</time>
      </trkpt>
      <trkpt lat="47.46517" lon="6.7919">
        <ele>416.8</ele>
        <time>2017-12-10T09:56:26.000Z</time>
      </trkpt>
      <trkpt lat="47.46519" lon="6.79185">
        <ele>417</ele>
        <time>2017-12-10T09:56:27.000Z</time>
      </trkpt>
      <trkpt lat="47.46521" lon="6.79179">
        <ele>417.3</ele>
        <time>2017-12-10T09:56:28.000Z</time>
      </trkpt>
      <trkpt lat="47.46523" lon="6.79177">
        <ele>417.5</ele>
        <time>2017-12-10T09:56:29.000Z</time>
      </trkpt>
      <trkpt lat="47.46525" lon="6.79176">
        <ele>417.7</ele>
        <time>2017-12-10T09:56:30.000Z</time>
      </trkpt>
      <trkpt lat="47.46527" lon="6.79174">
        <ele>417.9</ele>
        <time>2017-12-10T09:56:31.000Z</time>
      </trkpt>
      <trkpt lat="47.46528" lon="6.7917">
        <ele>418.1</ele>
        <time>2017-12-10T09:56:32.000Z</time>
      </trkpt>
      <trkpt lat="47.46529" lon="6.79166">
        <ele>418.2</ele>
        <time>2017-12-10T09:56:33.000Z</time>
      </trkpt>
      <trkpt lat="47.46531" lon="6.79158">
        <ele>418.3</ele>
        <time>2017-12-10T09:56:34.000Z</time>
      </trkpt>
      <trkpt lat="47.46532" lon="6.7915">
        <ele>418.6</ele>
        <time>2017-12-10T09:56:35.000Z</time>
      </trkpt>
      <trkpt lat="47.46534" lon="6.79147">
        <ele>418.9</ele>
        <time>2017-12-10T09:56:36.000Z</time>
      </trkpt>
      <trkpt lat="47.46536" lon="6.79145">
        <ele>419.2</ele>
        <time>2017-12-10T09:56:37.000Z</time>
      </trkpt>
      <trkpt lat="47.46538" lon="6.79142">
        <ele>419.5</ele>
        <time>2017-12-10T09:56:38.000Z</time>
      </trkpt>
      <trkpt lat="47.46541" lon="6.79138">
        <ele>419.9</ele>
        <time>2017-12-10T09:56:39.000Z</time>
      </trkpt>
      <trkpt lat="47.46543" lon="6.79133">
        <ele>420.6</ele>
        <time>2017-12-10T09:56:41.000Z</time>
      </trkpt>
      <trkpt lat="47.46546" lon="6.79129">
        <ele>421</ele>
        <time>2017-12-10T09:56:42.000Z</time>
      </trkpt>
      <trkpt lat="47.46548" lon="6.79127">
        <ele>421.4</ele>
        <time>2017-12-10T09:56:43.000Z</time>
      </trkpt>
      <trkpt lat="47.46549" lon="6.79125">
        <ele>421.8</ele>
        <time>2017-12-10T09:56:44.000Z</time>
      </trkpt>
      <trkpt lat="47.46552" lon="6.79121">
        <ele>422.4</ele>
        <time>2017-12-10T09:56:46.000Z</time>
      </trkpt>
      <trkpt lat="47.46553" lon="6.79118">
        <ele>422.7</ele>
        <time>2017-12-10T09:56:47.000Z</time>
      </trkpt>
      <trkpt lat="47.46554" lon="6.79113">
        <ele>423.3</ele>
        <time>2017-12-10T09:56:49.000Z</time>
      </trkpt>
      <trkpt lat="47.46552" lon="6.79109">
        <ele>423.5</ele>
        <time>2017-12-10T09:56:50.000Z</time>
      </trkpt>
      <trkpt lat="47.46549" lon="6.79105">
        <ele>423.7</ele>
        <time>2017-12-10T09:56:51.000Z</time>
      </trkpt>
      <trkpt lat="47.46547" lon="6.79102">
        <ele>424</ele>
        <time>2017-12-10T09:56:52.000Z</time>
      </trkpt>
      <trkpt lat="47.46543" lon="6.79098">
        <ele>424.7</ele>
        <time>2017-12-10T09:56:54.000Z</time>
      </trkpt>
      <trkpt lat="47.46543" lon="6.79097">
        <ele>425.1</ele>
        <time>2017-12-10T09:56:55.000Z</time>
      </trkpt>
      <trkpt lat="47.46541" lon="6.79094">
        <ele>425.8</ele>
        <time>2017-12-10T09:56:57.000Z</time>
      </trkpt>
      <trkpt lat="47.46538" lon="6.79093">
        <ele>426.1</ele>
        <time>2017-12-10T09:56:58.000Z</time>
      </trkpt>
      <trkpt lat="47.46534" lon="6.7909">
        <ele>427.3</ele>
        <time>2017-12-10T09:57:02.000Z</time>
      </trkpt>
      <trkpt lat="47.46533" lon="6.79089">
        <ele>427.7</ele>
        <time>2017-12-10T09:57:03.000Z</time>
      </trkpt>
      <trkpt lat="47.4653" lon="6.79084">
        <ele>428.8</ele>
        <time>2017-12-10T09:57:06.000Z</time>
      </trkpt>
      <trkpt lat="47.46529" lon="6.79082">
        <ele>429.1</ele>
        <time>2017-12-10T09:57:07.000Z</time>
      </trkpt>
      <trkpt lat="47.46527" lon="6.79078">
        <ele>429.8</ele>
        <time>2017-12-10T09:57:09.000Z</time>
      </trkpt>
      <trkpt lat="47.46525" lon="6.79076">
        <ele>430.2</ele>
        <time>2017-12-10T09:57:10.000Z</time>
      </trkpt>
      <trkpt lat="47.46523" lon="6.79072">
        <ele>431.8</ele>
        <time>2017-12-10T09:57:14.000Z</time>
      </trkpt>
      <trkpt lat="47.46522" lon="6.7907">
        <ele>432.3</ele>
        <time>2017-12-10T09:57:15.000Z</time>
      </trkpt>
      <trkpt lat="47.4652" lon="6.79066">
        <ele>432.9</ele>
        <time>2017-12-10T09:57:17.000Z</time>
      </trkpt>
      <trkpt lat="47.46518" lon="6.79065">
        <ele>433.5</ele>
        <time>2017-12-10T09:57:18.000Z</time>
      </trkpt>
      <trkpt lat="47.46518" lon="6.79061">
        <ele>436.3</ele>
        <time>2017-12-10T09:57:26.000Z</time>
      </trkpt>
      <trkpt lat="47.46514" lon="6.79055">
        <ele>436.6</ele>
        <time>2017-12-10T09:57:27.000Z</time>
      </trkpt>
      <trkpt lat="47.4651" lon="6.79051">
        <ele>436.9</ele>
        <time>2017-12-10T09:57:28.000Z</time>
      </trkpt>
      <trkpt lat="47.46508" lon="6.79048">
        <ele>436.9</ele>
        <time>2017-12-10T09:57:29.000Z</time>
      </trkpt>
      <trkpt lat="47.46505" lon="6.79043">
        <ele>437.2</ele>
        <time>2017-12-10T09:57:30.000Z</time>
      </trkpt>
      <trkpt lat="47.46503" lon="6.79037">
        <ele>437.4</ele>
        <time>2017-12-10T09:57:31.000Z</time>
      </trkpt>
      <trkpt lat="47.46503" lon="6.79031">
        <ele>437.7</ele>
        <time>2017-12-10T09:57:32.000Z</time>
      </trkpt>
      <trkpt lat="47.46503" lon="6.79026">
        <ele>437.9</ele>
        <time>2017-12-10T09:57:33.000Z</time>
      </trkpt>
      <trkpt lat="47.46503" lon="6.79019">
        <ele>438.3</ele>
        <time>2017-12-10T09:57:35.000Z</time>
      </trkpt>
      <trkpt lat="47.46503" lon="6.79017">
        <ele>438.5</ele>
        <time>2017-12-10T09:57:36.000Z</time>
      </trkpt>
      <trkpt lat="47.46501" lon="6.79012">
        <ele>438.7</ele>
        <time>2017-12-10T09:57:37.000Z</time>
      </trkpt>
      <trkpt lat="47.46501" lon="6.79011">
        <ele>438.9</ele>
        <time>2017-12-10T09:57:38.000Z</time>
      </trkpt>
      <trkpt lat="47.46502" lon="6.79005">
        <ele>439</ele>
        <time>2017-12-10T09:57:43.000Z</time>
      </trkpt>
      <trkpt lat="47.46504" lon="6.79">
        <ele>439</ele>
        <time>2017-12-10T09:57:44.000Z</time>
      </trkpt>
      <trkpt lat="47.46506" lon="6.78996">
        <ele>439</ele>
        <time>2017-12-10T09:57:45.000Z</time>
      </trkpt>
      <trkpt lat="47.46508" lon="6.78992">
        <ele>439.1</ele>
        <time>2017-12-10T09:57:46.000Z</time>
      </trkpt>
      <trkpt lat="47.4651" lon="6.78986">
        <ele>439.4</ele>
        <time>2017-12-10T09:57:50.000Z</time>
      </trkpt>
      <trkpt lat="47.46511" lon="6.78985">
        <ele>439.5</ele>
        <time>2017-12-10T09:57:51.000Z</time>
      </trkpt>
      <trkpt lat="47.46513" lon="6.7898">
        <ele>439.8</ele>
        <time>2017-12-10T09:57:53.000Z</time>
      </trkpt>
      <trkpt lat="47.46514" lon="6.78977">
        <ele>440</ele>
        <time>2017-12-10T09:57:54.000Z</time>
      </trkpt>
      <trkpt lat="47.46514" lon="6.78976">
        <ele>440.2</ele>
        <time>2017-12-10T09:57:55.000Z</time>
      </trkpt>
      <trkpt lat="47.46513" lon="6.78969">
        <ele>440.2</ele>
        <time>2017-12-10T09:57:56.000Z</time>
      </trkpt>
      <trkpt lat="47.46512" lon="6.78964">
        <ele>440.4</ele>
        <time>2017-12-10T09:57:59.000Z</time>
      </trkpt>
      <trkpt lat="47.46511" lon="6.78962">
        <ele>440.5</ele>
        <time>2017-12-10T09:58:00.000Z</time>
      </trkpt>
      <trkpt lat="47.46509" lon="6.78956">
        <ele>440.5</ele>
        <time>2017-12-10T09:58:04.000Z</time>
      </trkpt>
      <trkpt lat="47.46508" lon="6.78955">
        <ele>440.5</ele>
        <time>2017-12-10T09:58:05.000Z</time>
      </trkpt>
      <trkpt lat="47.46506" lon="6.78951">
        <ele>440.8</ele>
        <time>2017-12-10T09:58:09.000Z</time>
      </trkpt>
      <trkpt lat="47.46505" lon="6.7895">
        <ele>441.1</ele>
        <time>2017-12-10T09:58:10.000Z</time>
      </trkpt>
      <trkpt lat="47.46504" lon="6.78947">
        <ele>441.3</ele>
        <time>2017-12-10T09:58:11.000Z</time>
      </trkpt>
      <trkpt lat="47.46503" lon="6.78941">
        <ele>441.5</ele>
        <time>2017-12-10T09:58:12.000Z</time>
      </trkpt>
      <trkpt lat="47.465" lon="6.78937">
        <ele>441.9</ele>
        <time>2017-12-10T09:58:15.000Z</time>
      </trkpt>
      <trkpt lat="47.46499" lon="6.78936">
        <ele>442.1</ele>
        <time>2017-12-10T09:58:16.000Z</time>
      </trkpt>
      <trkpt lat="47.46499" lon="6.78935">
        <ele>442.3</ele>
        <time>2017-12-10T09:58:17.000Z</time>
      </trkpt>
      <trkpt lat="47.46497" lon="6.7893">
        <ele>442.5</ele>
        <time>2017-12-10T09:58:18.000Z</time>
      </trkpt>
      <trkpt lat="47.46495" lon="6.78925">
        <ele>442.6</ele>
        <time>2017-12-10T09:58:19.000Z</time>
      </trkpt>
      <trkpt lat="47.46493" lon="6.78921">
        <ele>442.7</ele>
        <time>2017-12-10T09:58:20.000Z</time>
      </trkpt>
      <trkpt lat="47.46491" lon="6.78916">
        <ele>443.8</ele>
        <time>2017-12-10T09:58:25.000Z</time>
      </trkpt>
      <trkpt lat="47.46491" lon="6.78915">
        <ele>444.1</ele>
        <time>2017-12-10T09:58:26.000Z</time>
      </trkpt>
      <trkpt lat="47.46489" lon="6.7891">
        <ele>444.8</ele>
        <time>2017-12-10T09:58:29.000Z</time>
      </trkpt>
      <trkpt lat="47.46488" lon="6.78909">
        <ele>445.2</ele>
        <time>2017-12-10T09:58:30.000Z</time>
      </trkpt>
      <trkpt lat="47.46484" lon="6.78906">
        <ele>446.2</ele>
        <time>2017-12-10T09:58:34.000Z</time>
      </trkpt>
      <trkpt lat="47.46483" lon="6.78906">
        <ele>446.3</ele>
        <time>2017-12-10T09:58:35.000Z</time>
      </trkpt>
      <trkpt lat="47.46481" lon="6.78907">
        <ele>446.4</ele>
        <time>2017-12-10T09:58:36.000Z</time>
      </trkpt>
      <trkpt lat="47.46478" lon="6.78907">
        <ele>446.4</ele>
        <time>2017-12-10T09:58:37.000Z</time>
      </trkpt>
      <trkpt lat="47.46474" lon="6.78908">
        <ele>446.4</ele>
        <time>2017-12-10T09:58:39.000Z</time>
      </trkpt>
      <trkpt lat="47.46471" lon="6.78907">
        <ele>446.4</ele>
        <time>2017-12-10T09:58:40.000Z</time>
      </trkpt>
      <trkpt lat="47.46469" lon="6.78905">
        <ele>446.4</ele>
        <time>2017-12-10T09:58:41.000Z</time>
      </trkpt>
      <trkpt lat="47.46466" lon="6.78901">
        <ele>446.2</ele>
        <time>2017-12-10T09:58:42.000Z</time>
      </trkpt>
      <trkpt lat="47.46466" lon="6.78895">
        <ele>445.7</ele>
        <time>2017-12-10T09:58:45.000Z</time>
      </trkpt>
      <trkpt lat="47.46467" lon="6.78894">
        <ele>445.6</ele>
        <time>2017-12-10T09:58:46.000Z</time>
      </trkpt>
      <trkpt lat="47.46469" lon="6.7889">
        <ele>445.4</ele>
        <time>2017-12-10T09:58:50.000Z</time>
      </trkpt>
      <trkpt lat="47.46471" lon="6.78885">
        <ele>445.4</ele>
        <time>2017-12-10T09:58:51.000Z</time>
      </trkpt>
      <trkpt lat="47.4647" lon="6.78879">
        <ele>445.3</ele>
        <time>2017-12-10T09:58:52.000Z</time>
      </trkpt>
      <trkpt lat="47.46469" lon="6.78873">
        <ele>445.2</ele>
        <time>2017-12-10T09:58:53.000Z</time>
      </trkpt>
      <trkpt lat="47.46468" lon="6.78868">
        <ele>445.3</ele>
        <time>2017-12-10T09:58:57.000Z</time>
      </trkpt>
      <trkpt lat="47.46467" lon="6.78866">
        <ele>445.4</ele>
        <time>2017-12-10T09:58:58.000Z</time>
      </trkpt>
      <trkpt lat="47.46466" lon="6.78863">
        <ele>445.4</ele>
        <time>2017-12-10T09:58:59.000Z</time>
      </trkpt>
      <trkpt lat="47.46465" lon="6.78859">
        <ele>445.4</ele>
        <time>2017-12-10T09:59:00.000Z</time>
      </trkpt>
      <trkpt lat="47.46465" lon="6.78853">
        <ele>446.3</ele>
        <time>2017-12-10T09:59:11.000Z</time>
      </trkpt>
      <trkpt lat="47.46464" lon="6.78851">
        <ele>446.6</ele>
        <time>2017-12-10T09:59:12.000Z</time>
      </trkpt>
      <trkpt lat="47.46463" lon="6.78846">
        <ele>447</ele>
        <time>2017-12-10T09:59:16.000Z</time>
      </trkpt>
      <trkpt lat="47.46462" lon="6.78842">
        <ele>447</ele>
        <time>2017-12-10T09:59:17.000Z</time>
      </trkpt>
      <trkpt lat="47.4646" lon="6.78837">
        <ele>447.2</ele>
        <time>2017-12-10T09:59:18.000Z</time>
      </trkpt>
      <trkpt lat="47.46459" lon="6.78832">
        <ele>447.4</ele>
        <time>2017-12-10T09:59:19.000Z</time>
      </trkpt>
      <trkpt lat="47.46457" lon="6.78827">
        <ele>447.7</ele>
        <time>2017-12-10T09:59:21.000Z</time>
      </trkpt>
      <trkpt lat="47.46457" lon="6.78825">
        <ele>448</ele>
        <time>2017-12-10T09:59:22.000Z</time>
      </trkpt>
      <trkpt lat="47.46455" lon="6.78821">
        <ele>448.3</ele>
        <time>2017-12-10T09:59:23.000Z</time>
      </trkpt>
      <trkpt lat="47.46454" lon="6.78814">
        <ele>448.6</ele>
        <time>2017-12-10T09:59:24.000Z</time>
      </trkpt>
      <trkpt lat="47.46453" lon="6.78809">
        <ele>449.5</ele>
        <time>2017-12-10T09:59:29.000Z</time>
      </trkpt>
      <trkpt lat="47.46453" lon="6.78807">
        <ele>449.6</ele>
        <time>2017-12-10T09:59:30.000Z</time>
      </trkpt>
      <trkpt lat="47.46452" lon="6.78801">
        <ele>449.9</ele>
        <time>2017-12-10T09:59:31.000Z</time>
      </trkpt>
      <trkpt lat="47.46452" lon="6.78797">
        <ele>449.9</ele>
        <time>2017-12-10T09:59:32.000Z</time>
      </trkpt>
      <trkpt lat="47.46452" lon="6.78791">
        <ele>449.9</ele>
        <time>2017-12-10T09:59:35.000Z</time>
      </trkpt>
      <trkpt lat="47.46452" lon="6.78788">
        <ele>449.9</ele>
        <time>2017-12-10T09:59:36.000Z</time>
      </trkpt>
      <trkpt lat="47.46451" lon="6.78783">
        <ele>450.1</ele>
        <time>2017-12-10T09:59:43.000Z</time>
      </trkpt>
      <trkpt lat="47.4645" lon="6.78777">
        <ele>450.1</ele>
        <time>2017-12-10T09:59:44.000Z</time>
      </trkpt>
      <trkpt lat="47.46447" lon="6.78772">
        <ele>450.2</ele>
        <time>2017-12-10T09:59:45.000Z</time>
      </trkpt>
      <trkpt lat="47.46446" lon="6.78766">
        <ele>450.2</ele>
        <time>2017-12-10T09:59:46.000Z</time>
      </trkpt>
      <trkpt lat="47.46446" lon="6.78764">
        <ele>450.1</ele>
        <time>2017-12-10T09:59:48.000Z</time>
      </trkpt>
      <trkpt lat="47.46443" lon="6.7876">
        <ele>450</ele>
        <time>2017-12-10T09:59:49.000Z</time>
      </trkpt>
      <trkpt lat="47.46442" lon="6.78758">
        <ele>449.9</ele>
        <time>2017-12-10T09:59:50.000Z</time>
      </trkpt>
      <trkpt lat="47.4644" lon="6.78754">
        <ele>449.8</ele>
        <time>2017-12-10T09:59:51.000Z</time>
      </trkpt>
      <trkpt lat="47.46439" lon="6.78751">
        <ele>449.7</ele>
        <time>2017-12-10T09:59:54.000Z</time>
      </trkpt>
      <trkpt lat="47.46437" lon="6.78745">
        <ele>449.6</ele>
        <time>2017-12-10T09:59:55.000Z</time>
      </trkpt>
      <trkpt lat="47.46434" lon="6.78742">
        <ele>449.7</ele>
        <time>2017-12-10T09:59:59.000Z</time>
      </trkpt>
      <trkpt lat="47.46431" lon="6.78739">
        <ele>449.7</ele>
        <time>2017-12-10T10:00:00.000Z</time>
      </trkpt>
      <trkpt lat="47.46428" lon="6.78735">
        <ele>449.8</ele>
        <time>2017-12-10T10:00:01.000Z</time>
      </trkpt>
      <trkpt lat="47.46426" lon="6.78732">
        <ele>449.8</ele>
        <time>2017-12-10T10:00:02.000Z</time>
      </trkpt>
      <trkpt lat="47.46426" lon="6.78726">
        <ele>449.6</ele>
        <time>2017-12-10T10:00:15.000Z</time>
      </trkpt>
      <trkpt lat="47.46426" lon="6.78724">
        <ele>449.6</ele>
        <time>2017-12-10T10:00:16.000Z</time>
      </trkpt>
      <trkpt lat="47.46427" lon="6.78719">
        <ele>448.9</ele>
        <time>2017-12-10T10:00:37.000Z</time>
      </trkpt>
      <trkpt lat="47.46425" lon="6.78716">
        <ele>448.9</ele>
        <time>2017-12-10T10:00:38.000Z</time>
      </trkpt>
      <trkpt lat="47.46424" lon="6.78715">
        <ele>448.9</ele>
        <time>2017-12-10T10:00:39.000Z</time>
      </trkpt>
      <trkpt lat="47.46421" lon="6.78712">
        <ele>448.8</ele>
        <time>2017-12-10T10:00:40.000Z</time>
      </trkpt>
      <trkpt lat="47.46418" lon="6.78709">
        <ele>448.8</ele>
        <time>2017-12-10T10:00:41.000Z</time>
      </trkpt>
      <trkpt lat="47.46416" lon="6.78702">
        <ele>448.8</ele>
        <time>2017-12-10T10:00:42.000Z</time>
      </trkpt>
      <trkpt lat="47.4642" lon="6.78703">
        <ele>448.9</ele>
        <time>2017-12-10T10:00:48.000Z</time>
      </trkpt>
      <trkpt lat="47.46424" lon="6.78704">
        <ele>449</ele>
        <time>2017-12-10T10:00:49.000Z</time>
      </trkpt>
      <trkpt lat="47.46426" lon="6.787">
        <ele>449.2</ele>
        <time>2017-12-10T10:00:50.000Z</time>
      </trkpt>
      <trkpt lat="47.46428" lon="6.78701">
        <ele>449.2</ele>
        <time>2017-12-10T10:00:51.000Z</time>
      </trkpt>
      <trkpt lat="47.46432" lon="6.787">
        <ele>449.3</ele>
        <time>2017-12-10T10:00:52.000Z</time>
      </trkpt>
      <trkpt lat="47.46433" lon="6.78697">
        <ele>449.5</ele>
        <time>2017-12-10T10:00:53.000Z</time>
      </trkpt>
      <trkpt lat="47.46436" lon="6.78693">
        <ele>449.8</ele>
        <time>2017-12-10T10:00:55.000Z</time>
      </trkpt>
      <trkpt lat="47.46438" lon="6.78692">
        <ele>449.9</ele>
        <time>2017-12-10T10:00:56.000Z</time>
      </trkpt>
      <trkpt lat="47.46441" lon="6.78689">
        <ele>450</ele>
        <time>2017-12-10T10:00:58.000Z</time>
      </trkpt>
      <trkpt lat="47.46442" lon="6.78688">
        <ele>449.9</ele>
        <time>2017-12-10T10:00:59.000Z</time>
      </trkpt>
      <trkpt lat="47.46446" lon="6.78685">
        <ele>449.7</ele>
        <time>2017-12-10T10:01:02.000Z</time>
      </trkpt>
      <trkpt lat="47.46447" lon="6.78684">
        <ele>449.6</ele>
        <time>2017-12-10T10:01:03.000Z</time>
      </trkpt>
      <trkpt lat="47.46449" lon="6.78683">
        <ele>449.5</ele>
        <time>2017-12-10T10:01:04.000Z</time>
      </trkpt>
      <trkpt lat="47.46453" lon="6.78681">
        <ele>449.5</ele>
        <time>2017-12-10T10:01:05.000Z</time>
      </trkpt>
      <trkpt lat="47.46457" lon="6.7868">
        <ele>449.4</ele>
        <time>2017-12-10T10:01:06.000Z</time>
      </trkpt>
      <trkpt lat="47.46458" lon="6.78679">
        <ele>449.3</ele>
        <time>2017-12-10T10:01:07.000Z</time>
      </trkpt>
      <trkpt lat="47.4646" lon="6.78679">
        <ele>449.3</ele>
        <time>2017-12-10T10:01:08.000Z</time>
      </trkpt>
      <trkpt lat="47.46463" lon="6.78676">
        <ele>449.4</ele>
        <time>2017-12-10T10:01:09.000Z</time>
      </trkpt>
      <trkpt lat="47.46464" lon="6.78676">
        <ele>449.3</ele>
        <time>2017-12-10T10:01:10.000Z</time>
      </trkpt>
      <trkpt lat="47.46468" lon="6.78675">
        <ele>449.3</ele>
        <time>2017-12-10T10:01:11.000Z</time>
      </trkpt>
      <trkpt lat="47.46469" lon="6.78676">
        <ele>449.4</ele>
        <time>2017-12-10T10:01:12.000Z</time>
      </trkpt>
      <trkpt lat="47.46473" lon="6.78677">
        <ele>449.4</ele>
        <time>2017-12-10T10:01:13.000Z</time>
      </trkpt>
      <trkpt lat="47.46477" lon="6.78675">
        <ele>449.4</ele>
        <time>2017-12-10T10:01:23.000Z</time>
      </trkpt>
      <trkpt lat="47.46479" lon="6.78675">
        <ele>449.3</ele>
        <time>2017-12-10T10:01:24.000Z</time>
      </trkpt>
      <trkpt lat="47.46483" lon="6.78677">
        <ele>449.1</ele>
        <time>2017-12-10T10:01:26.000Z</time>
      </trkpt>
      <trkpt lat="47.46485" lon="6.78681">
        <ele>449</ele>
        <time>2017-12-10T10:01:27.000Z</time>
      </trkpt>
      <trkpt lat="47.46489" lon="6.78683">
        <ele>448.6</ele>
        <time>2017-12-10T10:01:35.000Z</time>
      </trkpt>
      <trkpt lat="47.4649" lon="6.78683">
        <ele>448.6</ele>
        <time>2017-12-10T10:01:36.000Z</time>
      </trkpt>
      <trkpt lat="47.46491" lon="6.78686">
        <ele>448.5</ele>
        <time>2017-12-10T10:01:38.000Z</time>
      </trkpt>
      <trkpt lat="47.46493" lon="6.78688">
        <ele>448.5</ele>
        <time>2017-12-10T10:01:39.000Z</time>
      </trkpt>
      <trkpt lat="47.46496" lon="6.78689">
        <ele>448.4</ele>
        <time>2017-12-10T10:01:41.000Z</time>
      </trkpt>
      <trkpt lat="47.46498" lon="6.7869">
        <ele>448.4</ele>
        <time>2017-12-10T10:01:42.000Z</time>
      </trkpt>
      <trkpt lat="47.46502" lon="6.78692">
        <ele>448.3</ele>
        <time>2017-12-10T10:01:44.000Z</time>
      </trkpt>
      <trkpt lat="47.46503" lon="6.78692">
        <ele>448.1</ele>
        <time>2017-12-10T10:01:45.000Z</time>
      </trkpt>
      <trkpt lat="47.46505" lon="6.78692">
        <ele>448.1</ele>
        <time>2017-12-10T10:01:46.000Z</time>
      </trkpt>
      <trkpt lat="47.4651" lon="6.78691">
        <ele>448</ele>
        <time>2017-12-10T10:01:47.000Z</time>
      </trkpt>
      <trkpt lat="47.46512" lon="6.7869">
        <ele>448</ele>
        <time>2017-12-10T10:01:48.000Z</time>
      </trkpt>
      <trkpt lat="47.46515" lon="6.78689">
        <ele>447.9</ele>
        <time>2017-12-10T10:01:49.000Z</time>
      </trkpt>
      <trkpt lat="47.46519" lon="6.78687">
        <ele>447.8</ele>
        <time>2017-12-10T10:01:50.000Z</time>
      </trkpt>
      <trkpt lat="47.46524" lon="6.78685">
        <ele>447.8</ele>
        <time>2017-12-10T10:01:51.000Z</time>
      </trkpt>
      <trkpt lat="47.46528" lon="6.78685">
        <ele>447.7</ele>
        <time>2017-12-10T10:01:52.000Z</time>
      </trkpt>
      <trkpt lat="47.46531" lon="6.78686">
        <ele>447.6</ele>
        <time>2017-12-10T10:01:53.000Z</time>
      </trkpt>
      <trkpt lat="47.46534" lon="6.78686">
        <ele>447.2</ele>
        <time>2017-12-10T10:01:55.000Z</time>
      </trkpt>
      <trkpt lat="47.4654" lon="6.78686">
        <ele>447.1</ele>
        <time>2017-12-10T10:01:56.000Z</time>
      </trkpt>
      <trkpt lat="47.46544" lon="6.78685">
        <ele>446.6</ele>
        <time>2017-12-10T10:02:00.000Z</time>
      </trkpt>
      <trkpt lat="47.46544" lon="6.78683">
        <ele>446.5</ele>
        <time>2017-12-10T10:02:01.000Z</time>
      </trkpt>
      <trkpt lat="47.46545" lon="6.78689">
        <ele>445.4</ele>
        <time>2017-12-10T10:02:10.000Z</time>
      </trkpt>
      <trkpt lat="47.46546" lon="6.78691">
        <ele>445.3</ele>
        <time>2017-12-10T10:02:11.000Z</time>
      </trkpt>
      <trkpt lat="47.46546" lon="6.78695">
        <ele>445.1</ele>
        <time>2017-12-10T10:02:12.000Z</time>
      </trkpt>
      <trkpt lat="47.46549" lon="6.78702">
        <ele>444.9</ele>
        <time>2017-12-10T10:02:13.000Z</time>
      </trkpt>
      <trkpt lat="47.46552" lon="6.78708">
        <ele>444.5</ele>
        <time>2017-12-10T10:02:14.000Z</time>
      </trkpt>
      <trkpt lat="47.46555" lon="6.78712">
        <ele>444.2</ele>
        <time>2017-12-10T10:02:15.000Z</time>
      </trkpt>
      <trkpt lat="47.46559" lon="6.78714">
        <ele>443.9</ele>
        <time>2017-12-10T10:02:16.000Z</time>
      </trkpt>
      <trkpt lat="47.46562" lon="6.78714">
        <ele>443.2</ele>
        <time>2017-12-10T10:02:18.000Z</time>
      </trkpt>
      <trkpt lat="47.46564" lon="6.78714">
        <ele>442.8</ele>
        <time>2017-12-10T10:02:19.000Z</time>
      </trkpt>
      <trkpt lat="47.46567" lon="6.78715">
        <ele>441.9</ele>
        <time>2017-12-10T10:02:21.000Z</time>
      </trkpt>
      <trkpt lat="47.46575" lon="6.78717">
        <ele>440.8</ele>
        <time>2017-12-10T10:02:24.000Z</time>
      </trkpt>
      <trkpt lat="47.46577" lon="6.78717">
        <ele>440.5</ele>
        <time>2017-12-10T10:02:25.000Z</time>
      </trkpt>
      <trkpt lat="47.46581" lon="6.78715">
        <ele>440.1</ele>
        <time>2017-12-10T10:02:26.000Z</time>
      </trkpt>
      <trkpt lat="47.46586" lon="6.78715">
        <ele>439.8</ele>
        <time>2017-12-10T10:02:27.000Z</time>
      </trkpt>
      <trkpt lat="47.46588" lon="6.78714">
        <ele>439.5</ele>
        <time>2017-12-10T10:02:28.000Z</time>
      </trkpt>
      <trkpt lat="47.46593" lon="6.78714">
        <ele>439.2</ele>
        <time>2017-12-10T10:02:29.000Z</time>
      </trkpt>
      <trkpt lat="47.46599" lon="6.78714">
        <ele>438.9</ele>
        <time>2017-12-10T10:02:30.000Z</time>
      </trkpt>
      <trkpt lat="47.46601" lon="6.78713">
        <ele>438.6</ele>
        <time>2017-12-10T10:02:31.000Z</time>
      </trkpt>
      <trkpt lat="47.46606" lon="6.78713">
        <ele>438.3</ele>
        <time>2017-12-10T10:02:32.000Z</time>
      </trkpt>
      <trkpt lat="47.46612" lon="6.78713">
        <ele>438</ele>
        <time>2017-12-10T10:02:33.000Z</time>
      </trkpt>
      <trkpt lat="47.46619" lon="6.78713">
        <ele>437.8</ele>
        <time>2017-12-10T10:02:34.000Z</time>
      </trkpt>
      <trkpt lat="47.46625" lon="6.78714">
        <ele>437.5</ele>
        <time>2017-12-10T10:02:35.000Z</time>
      </trkpt>
      <trkpt lat="47.46628" lon="6.78713">
        <ele>437.2</ele>
        <time>2017-12-10T10:02:36.000Z</time>
      </trkpt>
      <trkpt lat="47.46634" lon="6.78713">
        <ele>436.9</ele>
        <time>2017-12-10T10:02:37.000Z</time>
      </trkpt>
      <trkpt lat="47.46641" lon="6.78713">
        <ele>436.6</ele>
        <time>2017-12-10T10:02:38.000Z</time>
      </trkpt>
      <trkpt lat="47.46649" lon="6.78712">
        <ele>433.3</ele>
        <time>2017-12-10T10:02:39.000Z</time>
      </trkpt>
      <trkpt lat="47.46658" lon="6.78712">
        <ele>430.1</ele>
        <time>2017-12-10T10:02:40.000Z</time>
      </trkpt>
      <trkpt lat="47.46661" lon="6.78712">
        <ele>429.9</ele>
        <time>2017-12-10T10:02:41.000Z</time>
      </trkpt>
      <trkpt lat="47.46668" lon="6.78714">
        <ele>429.7</ele>
        <time>2017-12-10T10:02:42.000Z</time>
      </trkpt>
      <trkpt lat="47.46677" lon="6.78712">
        <ele>428</ele>
        <time>2017-12-10T10:02:43.000Z</time>
      </trkpt>
      <trkpt lat="47.46684" lon="6.7871">
        <ele>425.4</ele>
        <time>2017-12-10T10:02:44.000Z</time>
      </trkpt>
      <trkpt lat="47.46686" lon="6.78708">
        <ele>425</ele>
        <time>2017-12-10T10:02:45.000Z</time>
      </trkpt>
      <trkpt lat="47.46689" lon="6.78704">
        <ele>424.7</ele>
        <time>2017-12-10T10:02:46.000Z</time>
      </trkpt>
      <trkpt lat="47.46695" lon="6.78701">
        <ele>424.5</ele>
        <time>2017-12-10T10:02:47.000Z</time>
      </trkpt>
      <trkpt lat="47.46701" lon="6.78698">
        <ele>424.2</ele>
        <time>2017-12-10T10:02:48.000Z</time>
      </trkpt>
      <trkpt lat="47.46704" lon="6.78695">
        <ele>423.9</ele>
        <time>2017-12-10T10:02:49.000Z</time>
      </trkpt>
      <trkpt lat="47.46708" lon="6.78693">
        <ele>423.8</ele>
        <time>2017-12-10T10:02:50.000Z</time>
      </trkpt>
      <trkpt lat="47.46711" lon="6.78692">
        <ele>423.3</ele>
        <time>2017-12-10T10:03:00.000Z</time>
      </trkpt>
      <trkpt lat="47.46715" lon="6.7869">
        <ele>423.2</ele>
        <time>2017-12-10T10:03:01.000Z</time>
      </trkpt>
      <trkpt lat="47.46719" lon="6.78689">
        <ele>423.1</ele>
        <time>2017-12-10T10:03:02.000Z</time>
      </trkpt>
      <trkpt lat="47.46722" lon="6.78687">
        <ele>423.1</ele>
        <time>2017-12-10T10:03:03.000Z</time>
      </trkpt>
      <trkpt lat="47.46726" lon="6.78688">
        <ele>423</ele>
        <time>2017-12-10T10:03:04.000Z</time>
      </trkpt>
      <trkpt lat="47.46731" lon="6.7869">
        <ele>422.8</ele>
        <time>2017-12-10T10:03:05.000Z</time>
      </trkpt>
      <trkpt lat="47.46734" lon="6.78694">
        <ele>422.6</ele>
        <time>2017-12-10T10:03:06.000Z</time>
      </trkpt>
      <trkpt lat="47.46738" lon="6.78698">
        <ele>422.3</ele>
        <time>2017-12-10T10:03:07.000Z</time>
      </trkpt>
      <trkpt lat="47.46741" lon="6.78702">
        <ele>421.9</ele>
        <time>2017-12-10T10:03:08.000Z</time>
      </trkpt>
      <trkpt lat="47.46742" lon="6.78703">
        <ele>421.5</ele>
        <time>2017-12-10T10:03:09.000Z</time>
      </trkpt>
      <trkpt lat="47.46747" lon="6.78703">
        <ele>421.1</ele>
        <time>2017-12-10T10:03:10.000Z</time>
      </trkpt>
      <trkpt lat="47.46748" lon="6.78694">
        <ele>420.6</ele>
        <time>2017-12-10T10:03:11.000Z</time>
      </trkpt>
      <trkpt lat="47.46748" lon="6.78687">
        <ele>420</ele>
        <time>2017-12-10T10:03:12.000Z</time>
      </trkpt>
      <trkpt lat="47.46751" lon="6.78681">
        <ele>419.4</ele>
        <time>2017-12-10T10:03:13.000Z</time>
      </trkpt>
      <trkpt lat="47.46753" lon="6.78678">
        <ele>418.9</ele>
        <time>2017-12-10T10:03:14.000Z</time>
      </trkpt>
      <trkpt lat="47.46756" lon="6.78674">
        <ele>418.3</ele>
        <time>2017-12-10T10:03:15.000Z</time>
      </trkpt>
      <trkpt lat="47.46759" lon="6.7867">
        <ele>417.3</ele>
        <time>2017-12-10T10:03:17.000Z</time>
      </trkpt>
      <trkpt lat="47.46761" lon="6.78668">
        <ele>416.7</ele>
        <time>2017-12-10T10:03:18.000Z</time>
      </trkpt>
      <trkpt lat="47.46762" lon="6.78667">
        <ele>416.3</ele>
        <time>2017-12-10T10:03:19.000Z</time>
      </trkpt>
      <trkpt lat="47.46766" lon="6.78666">
        <ele>415.8</ele>
        <time>2017-12-10T10:03:20.000Z</time>
      </trkpt>
      <trkpt lat="47.46769" lon="6.78666">
        <ele>415.3</ele>
        <time>2017-12-10T10:03:21.000Z</time>
      </trkpt>
      <trkpt lat="47.46771" lon="6.78666">
        <ele>415</ele>
        <time>2017-12-10T10:03:22.000Z</time>
      </trkpt>
      <trkpt lat="47.46773" lon="6.78665">
        <ele>414.7</ele>
        <time>2017-12-10T10:03:23.000Z</time>
      </trkpt>
      <trkpt lat="47.46777" lon="6.78664">
        <ele>414.4</ele>
        <time>2017-12-10T10:03:24.000Z</time>
      </trkpt>
      <trkpt lat="47.46778" lon="6.78662">
        <ele>414.1</ele>
        <time>2017-12-10T10:03:25.000Z</time>
      </trkpt>
      <trkpt lat="47.46781" lon="6.7866">
        <ele>413.9</ele>
        <time>2017-12-10T10:03:26.000Z</time>
      </trkpt>
      <trkpt lat="47.46784" lon="6.78656">
        <ele>413.4</ele>
        <time>2017-12-10T10:03:27.000Z</time>
      </trkpt>
      <trkpt lat="47.46789" lon="6.78652">
        <ele>413</ele>
        <time>2017-12-10T10:03:28.000Z</time>
      </trkpt>
      <trkpt lat="47.46791" lon="6.7865">
        <ele>412.4</ele>
        <time>2017-12-10T10:03:29.000Z</time>
      </trkpt>
      <trkpt lat="47.46793" lon="6.78648">
        <ele>411.8</ele>
        <time>2017-12-10T10:03:30.000Z</time>
      </trkpt>
      <trkpt lat="47.46796" lon="6.78645">
        <ele>411</ele>
        <time>2017-12-10T10:03:31.000Z</time>
      </trkpt>
      <trkpt lat="47.46798" lon="6.78643">
        <ele>410.3</ele>
        <time>2017-12-10T10:03:32.000Z</time>
      </trkpt>
      <trkpt lat="47.46803" lon="6.78639">
        <ele>409.5</ele>
        <time>2017-12-10T10:03:33.000Z</time>
      </trkpt>
      <trkpt lat="47.46808" lon="6.78633">
        <ele>408.7</ele>
        <time>2017-12-10T10:03:34.000Z</time>
      </trkpt>
      <trkpt lat="47.46812" lon="6.78627">
        <ele>407.9</ele>
        <time>2017-12-10T10:03:35.000Z</time>
      </trkpt>
      <trkpt lat="47.46818" lon="6.78624">
        <ele>407</ele>
        <time>2017-12-10T10:03:36.000Z</time>
      </trkpt>
      <trkpt lat="47.46821" lon="6.78621">
        <ele>406.1</ele>
        <time>2017-12-10T10:03:37.000Z</time>
      </trkpt>
      <trkpt lat="47.46824" lon="6.78619">
        <ele>405.2</ele>
        <time>2017-12-10T10:03:38.000Z</time>
      </trkpt>
      <trkpt lat="47.46826" lon="6.78616">
        <ele>404.2</ele>
        <time>2017-12-10T10:03:39.000Z</time>
      </trkpt>
      <trkpt lat="47.4683" lon="6.78615">
        <ele>403.3</ele>
        <time>2017-12-10T10:03:40.000Z</time>
      </trkpt>
      <trkpt lat="47.46833" lon="6.78614">
        <ele>402.5</ele>
        <time>2017-12-10T10:03:41.000Z</time>
      </trkpt>
      <trkpt lat="47.46836" lon="6.78613">
        <ele>401.6</ele>
        <time>2017-12-10T10:03:42.000Z</time>
      </trkpt>
      <trkpt lat="47.46839" lon="6.78611">
        <ele>400.6</ele>
        <time>2017-12-10T10:03:43.000Z</time>
      </trkpt>
      <trkpt lat="47.46841" lon="6.7861">
        <ele>399.7</ele>
        <time>2017-12-10T10:03:44.000Z</time>
      </trkpt>
      <trkpt lat="47.46844" lon="6.78609">
        <ele>398.8</ele>
        <time>2017-12-10T10:03:45.000Z</time>
      </trkpt>
      <trkpt lat="47.46846" lon="6.78608">
        <ele>397.8</ele>
        <time>2017-12-10T10:03:46.000Z</time>
      </trkpt>
      <trkpt lat="47.46849" lon="6.78606">
        <ele>396.8</ele>
        <time>2017-12-10T10:03:47.000Z</time>
      </trkpt>
      <trkpt lat="47.46854" lon="6.78604">
        <ele>395.8</ele>
        <time>2017-12-10T10:03:48.000Z</time>
      </trkpt>
      <trkpt lat="47.46856" lon="6.78603">
        <ele>394.9</ele>
        <time>2017-12-10T10:03:49.000Z</time>
      </trkpt>
      <trkpt lat="47.46859" lon="6.78603">
        <ele>394</ele>
        <time>2017-12-10T10:03:50.000Z</time>
      </trkpt>
      <trkpt lat="47.46863" lon="6.78604">
        <ele>386.3</ele>
        <time>2017-12-10T10:03:51.000Z</time>
      </trkpt>
      <trkpt lat="47.4687" lon="6.78608">
        <ele>379.9</ele>
        <time>2017-12-10T10:03:52.000Z</time>
      </trkpt>
      <trkpt lat="47.46874" lon="6.7861">
        <ele>378.5</ele>
        <time>2017-12-10T10:03:55.000Z</time>
      </trkpt>
      <trkpt lat="47.46875" lon="6.78611">
        <ele>378.1</ele>
        <time>2017-12-10T10:03:56.000Z</time>
      </trkpt>
      <trkpt lat="47.46879" lon="6.78612">
        <ele>376.9</ele>
        <time>2017-12-10T10:04:11.000Z</time>
      </trkpt>
      <trkpt lat="47.4688" lon="6.78612">
        <ele>376.9</ele>
        <time>2017-12-10T10:04:12.000Z</time>
      </trkpt>
      <trkpt lat="47.46883" lon="6.78612">
        <ele>377.4</ele>
        <time>2017-12-10T10:04:15.000Z</time>
      </trkpt>
      <trkpt lat="47.4689" lon="6.78613">
        <ele>377.8</ele>
        <time>2017-12-10T10:04:16.000Z</time>
      </trkpt>
      <trkpt lat="47.469" lon="6.78614">
        <ele>378.1</ele>
        <time>2017-12-10T10:04:17.000Z</time>
      </trkpt>
      <trkpt lat="47.46909" lon="6.78611">
        <ele>378.4</ele>
        <time>2017-12-10T10:04:18.000Z</time>
      </trkpt>
      <trkpt lat="47.46912" lon="6.78611">
        <ele>378.4</ele>
        <time>2017-12-10T10:04:19.000Z</time>
      </trkpt>
      <trkpt lat="47.46917" lon="6.78609">
        <ele>378.7</ele>
        <time>2017-12-10T10:04:20.000Z</time>
      </trkpt>
      <trkpt lat="47.46921" lon="6.78608">
        <ele>379.2</ele>
        <time>2017-12-10T10:04:21.000Z</time>
      </trkpt>
      <trkpt lat="47.46925" lon="6.78607">
        <ele>379.5</ele>
        <time>2017-12-10T10:04:22.000Z</time>
      </trkpt>
      <trkpt lat="47.46928" lon="6.78606">
        <ele>379.5</ele>
        <time>2017-12-10T10:04:23.000Z</time>
      </trkpt>
      <trkpt lat="47.46932" lon="6.78603">
        <ele>379.9</ele>
        <time>2017-12-10T10:04:24.000Z</time>
      </trkpt>
      <trkpt lat="47.46934" lon="6.78603">
        <ele>379.9</ele>
        <time>2017-12-10T10:04:25.000Z</time>
      </trkpt>
      <trkpt lat="47.46938" lon="6.78603">
        <ele>380.1</ele>
        <time>2017-12-10T10:04:26.000Z</time>
      </trkpt>
      <trkpt lat="47.46941" lon="6.78603">
        <ele>381.7</ele>
        <time>2017-12-10T10:04:33.000Z</time>
      </trkpt>
      <trkpt lat="47.46944" lon="6.78602">
        <ele>382</ele>
        <time>2017-12-10T10:04:34.000Z</time>
      </trkpt>
      <trkpt lat="47.46949" lon="6.786">
        <ele>382.1</ele>
        <time>2017-12-10T10:04:35.000Z</time>
      </trkpt>
      <trkpt lat="47.46954" lon="6.78598">
        <ele>382.2</ele>
        <time>2017-12-10T10:04:36.000Z</time>
      </trkpt>
      <trkpt lat="47.46957" lon="6.78595">
        <ele>382.4</ele>
        <time>2017-12-10T10:04:42.000Z</time>
      </trkpt>
      <trkpt lat="47.4696" lon="6.78595">
        <ele>382.4</ele>
        <time>2017-12-10T10:04:43.000Z</time>
      </trkpt>
      <trkpt lat="47.46961" lon="6.78595">
        <ele>382.1</ele>
        <time>2017-12-10T10:04:52.000Z</time>
      </trkpt>
      <trkpt lat="47.46965" lon="6.78594">
        <ele>382</ele>
        <time>2017-12-10T10:04:53.000Z</time>
      </trkpt>
      <trkpt lat="47.46968" lon="6.78594">
        <ele>382.1</ele>
        <time>2017-12-10T10:04:54.000Z</time>
      </trkpt>
      <trkpt lat="47.46971" lon="6.78595">
        <ele>382.1</ele>
        <time>2017-12-10T10:04:55.000Z</time>
      </trkpt>
      <trkpt lat="47.46974" lon="6.78595">
        <ele>382.1</ele>
        <time>2017-12-10T10:04:56.000Z</time>
      </trkpt>
      <trkpt lat="47.46977" lon="6.78594">
        <ele>382.1</ele>
        <time>2017-12-10T10:04:57.000Z</time>
      </trkpt>
      <trkpt lat="47.4698" lon="6.78592">
        <ele>382.7</ele>
        <time>2017-12-10T10:05:14.000Z</time>
      </trkpt>
      <trkpt lat="47.46983" lon="6.78588">
        <ele>382.7</ele>
        <time>2017-12-10T10:05:15.000Z</time>
      </trkpt>
      <trkpt lat="47.46986" lon="6.78584">
        <ele>382.6</ele>
        <time>2017-12-10T10:05:16.000Z</time>
      </trkpt>
      <trkpt lat="47.46988" lon="6.7858">
        <ele>382.5</ele>
        <time>2017-12-10T10:05:17.000Z</time>
      </trkpt>
      <trkpt lat="47.46991" lon="6.78576">
        <ele>382.5</ele>
        <time>2017-12-10T10:05:18.000Z</time>
      </trkpt>
      <trkpt lat="47.46994" lon="6.78572">
        <ele>382.3</ele>
        <time>2017-12-10T10:05:19.000Z</time>
      </trkpt>
      <trkpt lat="47.46997" lon="6.78569">
        <ele>382.1</ele>
        <time>2017-12-10T10:05:20.000Z</time>
      </trkpt>
      <trkpt lat="47.47001" lon="6.78568">
        <ele>381.8</ele>
        <time>2017-12-10T10:05:21.000Z</time>
      </trkpt>
      <trkpt lat="47.47003" lon="6.78568">
        <ele>381.3</ele>
        <time>2017-12-10T10:05:23.000Z</time>
      </trkpt>
      <trkpt lat="47.47006" lon="6.78566">
        <ele>381.1</ele>
        <time>2017-12-10T10:05:24.000Z</time>
      </trkpt>
      <trkpt lat="47.47009" lon="6.78563">
        <ele>380.6</ele>
        <time>2017-12-10T10:05:26.000Z</time>
      </trkpt>
      <trkpt lat="47.4701" lon="6.78562">
        <ele>380.2</ele>
        <time>2017-12-10T10:05:27.000Z</time>
      </trkpt>
      <trkpt lat="47.47012" lon="6.78558">
        <ele>379.3</ele>
        <time>2017-12-10T10:05:30.000Z</time>
      </trkpt>
      <trkpt lat="47.47012" lon="6.78556">
        <ele>379</ele>
        <time>2017-12-10T10:05:31.000Z</time>
      </trkpt>
      <trkpt lat="47.47016" lon="6.78553">
        <ele>377.9</ele>
        <time>2017-12-10T10:05:37.000Z</time>
      </trkpt>
      <trkpt lat="47.47018" lon="6.78549">
        <ele>378</ele>
        <time>2017-12-10T10:05:38.000Z</time>
      </trkpt>
      <trkpt lat="47.47019" lon="6.78549">
        <ele>378</ele>
        <time>2017-12-10T10:05:39.000Z</time>
      </trkpt>
      <trkpt lat="47.47023" lon="6.78548">
        <ele>378.1</ele>
        <time>2017-12-10T10:05:40.000Z</time>
      </trkpt>
      <trkpt lat="47.47024" lon="6.78548">
        <ele>378.3</ele>
        <time>2017-12-10T10:05:41.000Z</time>
      </trkpt>
      <trkpt lat="47.47028" lon="6.78547">
        <ele>378.4</ele>
        <time>2017-12-10T10:05:42.000Z</time>
      </trkpt>
      <trkpt lat="47.47031" lon="6.78547">
        <ele>378.5</ele>
        <time>2017-12-10T10:05:43.000Z</time>
      </trkpt>
      <trkpt lat="47.47036" lon="6.78547">
        <ele>378.8</ele>
        <time>2017-12-10T10:05:44.000Z</time>
      </trkpt>
      <trkpt lat="47.4704" lon="6.78547">
        <ele>379</ele>
        <time>2017-12-10T10:05:45.000Z</time>
      </trkpt>
      <trkpt lat="47.47045" lon="6.78545">
        <ele>379.4</ele>
        <time>2017-12-10T10:05:46.000Z</time>
      </trkpt>
      <trkpt lat="47.47048" lon="6.78541">
        <ele>379.9</ele>
        <time>2017-12-10T10:05:48.000Z</time>
      </trkpt>
      <trkpt lat="47.47051" lon="6.78537">
        <ele>380.3</ele>
        <time>2017-12-10T10:05:49.000Z</time>
      </trkpt>
      <trkpt lat="47.47053" lon="6.78532">
        <ele>381</ele>
        <time>2017-12-10T10:05:51.000Z</time>
      </trkpt>
      <trkpt lat="47.47054" lon="6.78531">
        <ele>381.3</ele>
        <time>2017-12-10T10:05:52.000Z</time>
      </trkpt>
      <trkpt lat="47.47055" lon="6.78526">
        <ele>382.5</ele>
        <time>2017-12-10T10:05:55.000Z</time>
      </trkpt>
      <trkpt lat="47.47055" lon="6.78525">
        <ele>383</ele>
        <time>2017-12-10T10:05:56.000Z</time>
      </trkpt>
      <trkpt lat="47.47059" lon="6.78522">
        <ele>383.5</ele>
        <time>2017-12-10T10:05:57.000Z</time>
      </trkpt>
      <trkpt lat="47.47062" lon="6.7852">
        <ele>383.9</ele>
        <time>2017-12-10T10:05:58.000Z</time>
      </trkpt>
      <trkpt lat="47.47065" lon="6.78519">
        <ele>384.7</ele>
        <time>2017-12-10T10:06:00.000Z</time>
      </trkpt>
      <trkpt lat="47.47068" lon="6.78518">
        <ele>385</ele>
        <time>2017-12-10T10:06:01.000Z</time>
      </trkpt>
      <trkpt lat="47.47071" lon="6.78516">
        <ele>385.7</ele>
        <time>2017-12-10T10:06:04.000Z</time>
      </trkpt>
      <trkpt lat="47.47072" lon="6.78515">
        <ele>386</ele>
        <time>2017-12-10T10:06:05.000Z</time>
      </trkpt>
      <trkpt lat="47.47073" lon="6.78515">
        <ele>386.4</ele>
        <time>2017-12-10T10:06:06.000Z</time>
      </trkpt>
      <trkpt lat="47.47076" lon="6.78513">
        <ele>386.8</ele>
        <time>2017-12-10T10:06:07.000Z</time>
      </trkpt>
      <trkpt lat="47.4708" lon="6.78511">
        <ele>387.9</ele>
        <time>2017-12-10T10:06:12.000Z</time>
      </trkpt>
      <trkpt lat="47.47085" lon="6.78508">
        <ele>388.3</ele>
        <time>2017-12-10T10:06:13.000Z</time>
      </trkpt>
      <trkpt lat="47.47092" lon="6.78504">
        <ele>388.7</ele>
        <time>2017-12-10T10:06:14.000Z</time>
      </trkpt>
      <trkpt lat="47.47096" lon="6.78502">
        <ele>389</ele>
        <time>2017-12-10T10:06:15.000Z</time>
      </trkpt>
      <trkpt lat="47.47097" lon="6.785">
        <ele>389.3</ele>
        <time>2017-12-10T10:06:16.000Z</time>
      </trkpt>
      <trkpt lat="47.471" lon="6.78499">
        <ele>390</ele>
        <time>2017-12-10T10:06:18.000Z</time>
      </trkpt>
      <trkpt lat="47.47101" lon="6.78498">
        <ele>390.3</ele>
        <time>2017-12-10T10:06:19.000Z</time>
      </trkpt>
      <trkpt lat="47.47103" lon="6.78498">
        <ele>390.7</ele>
        <time>2017-12-10T10:06:20.000Z</time>
      </trkpt>
      <trkpt lat="47.47106" lon="6.78497">
        <ele>391.1</ele>
        <time>2017-12-10T10:06:21.000Z</time>
      </trkpt>
      <trkpt lat="47.47108" lon="6.78495">
        <ele>391.9</ele>
        <time>2017-12-10T10:06:23.000Z</time>
      </trkpt>
      <trkpt lat="47.4711" lon="6.78493">
        <ele>392.3</ele>
        <time>2017-12-10T10:06:24.000Z</time>
      </trkpt>
      <trkpt lat="47.47113" lon="6.78488">
        <ele>392.6</ele>
        <time>2017-12-10T10:06:25.000Z</time>
      </trkpt>
      <trkpt lat="47.47114" lon="6.78486">
        <ele>392.9</ele>
        <time>2017-12-10T10:06:26.000Z</time>
      </trkpt>
      <trkpt lat="47.47115" lon="6.7848">
        <ele>395.2</ele>
        <time>2017-12-10T10:06:34.000Z</time>
      </trkpt>
      <trkpt lat="47.47116" lon="6.78479">
        <ele>395.2</ele>
        <time>2017-12-10T10:06:35.000Z</time>
      </trkpt>
      <trkpt lat="47.47118" lon="6.78476">
        <ele>395.3</ele>
        <time>2017-12-10T10:06:36.000Z</time>
      </trkpt>
      <trkpt lat="47.47121" lon="6.78474">
        <ele>395.3</ele>
        <time>2017-12-10T10:06:37.000Z</time>
      </trkpt>
      <trkpt lat="47.47124" lon="6.78471">
        <ele>395.6</ele>
        <time>2017-12-10T10:06:38.000Z</time>
      </trkpt>
      <trkpt lat="47.47127" lon="6.78468">
        <ele>395.9</ele>
        <time>2017-12-10T10:06:39.000Z</time>
      </trkpt>
      <trkpt lat="47.47132" lon="6.78466">
        <ele>396.3</ele>
        <time>2017-12-10T10:06:40.000Z</time>
      </trkpt>
      <trkpt lat="47.47135" lon="6.78461">
        <ele>396.6</ele>
        <time>2017-12-10T10:06:41.000Z</time>
      </trkpt>
      <trkpt lat="47.4714" lon="6.78458">
        <ele>397</ele>
        <time>2017-12-10T10:06:42.000Z</time>
      </trkpt>
      <trkpt lat="47.47144" lon="6.78454">
        <ele>397.3</ele>
        <time>2017-12-10T10:06:43.000Z</time>
      </trkpt>
      <trkpt lat="47.47149" lon="6.78451">
        <ele>397.5</ele>
        <time>2017-12-10T10:06:44.000Z</time>
      </trkpt>
      <trkpt lat="47.47154" lon="6.78449">
        <ele>397.7</ele>
        <time>2017-12-10T10:06:45.000Z</time>
      </trkpt>
      <trkpt lat="47.47157" lon="6.78448">
        <ele>398</ele>
        <time>2017-12-10T10:06:46.000Z</time>
      </trkpt>
      <trkpt lat="47.47161" lon="6.78448">
        <ele>398.3</ele>
        <time>2017-12-10T10:06:47.000Z</time>
      </trkpt>
      <trkpt lat="47.47164" lon="6.78449">
        <ele>399.1</ele>
        <time>2017-12-10T10:06:50.000Z</time>
      </trkpt>
      <trkpt lat="47.47166" lon="6.78451">
        <ele>399.4</ele>
        <time>2017-12-10T10:06:51.000Z</time>
      </trkpt>
      <trkpt lat="47.47169" lon="6.78454">
        <ele>399.9</ele>
        <time>2017-12-10T10:06:53.000Z</time>
      </trkpt>
      <trkpt lat="47.4717" lon="6.78454">
        <ele>400.1</ele>
        <time>2017-12-10T10:06:54.000Z</time>
      </trkpt>
      <trkpt lat="47.47174" lon="6.78458">
        <ele>401</ele>
        <time>2017-12-10T10:06:57.000Z</time>
      </trkpt>
      <trkpt lat="47.47175" lon="6.78459">
        <ele>401.4</ele>
        <time>2017-12-10T10:06:58.000Z</time>
      </trkpt>
      <trkpt lat="47.47179" lon="6.78462">
        <ele>402.7</ele>
        <time>2017-12-10T10:07:01.000Z</time>
      </trkpt>
      <trkpt lat="47.4718" lon="6.78463">
        <ele>403.1</ele>
        <time>2017-12-10T10:07:02.000Z</time>
      </trkpt>
      <trkpt lat="47.47184" lon="6.78465">
        <ele>404.1</ele>
        <time>2017-12-10T10:07:06.000Z</time>
      </trkpt>
      <trkpt lat="47.47187" lon="6.78467">
        <ele>404.4</ele>
        <time>2017-12-10T10:07:07.000Z</time>
      </trkpt>
      <trkpt lat="47.47189" lon="6.78468">
        <ele>405.3</ele>
        <time>2017-12-10T10:07:10.000Z</time>
      </trkpt>
      <trkpt lat="47.47193" lon="6.7847">
        <ele>405.5</ele>
        <time>2017-12-10T10:07:11.000Z</time>
      </trkpt>
      <trkpt lat="47.47195" lon="6.78471">
        <ele>406.1</ele>
        <time>2017-12-10T10:07:13.000Z</time>
      </trkpt>
      <trkpt lat="47.47198" lon="6.78474">
        <ele>406.3</ele>
        <time>2017-12-10T10:07:14.000Z</time>
      </trkpt>
      <trkpt lat="47.47202" lon="6.78477">
        <ele>407</ele>
        <time>2017-12-10T10:07:17.000Z</time>
      </trkpt>
      <trkpt lat="47.47203" lon="6.78478">
        <ele>407.3</ele>
        <time>2017-12-10T10:07:18.000Z</time>
      </trkpt>
      <trkpt lat="47.47206" lon="6.7848">
        <ele>407.7</ele>
        <time>2017-12-10T10:07:20.000Z</time>
      </trkpt>
      <trkpt lat="47.47209" lon="6.78482">
        <ele>407.8</ele>
        <time>2017-12-10T10:07:21.000Z</time>
      </trkpt>
      <trkpt lat="47.47211" lon="6.78485">
        <ele>407.9</ele>
        <time>2017-12-10T10:07:23.000Z</time>
      </trkpt>
      <trkpt lat="47.47214" lon="6.78488">
        <ele>407.9</ele>
        <time>2017-12-10T10:07:24.000Z</time>
      </trkpt>
      <trkpt lat="47.47216" lon="6.78491">
        <ele>408</ele>
        <time>2017-12-10T10:07:26.000Z</time>
      </trkpt>
      <trkpt lat="47.4722" lon="6.78492">
        <ele>408</ele>
        <time>2017-12-10T10:07:27.000Z</time>
      </trkpt>
      <trkpt lat="47.47223" lon="6.78492">
        <ele>408.1</ele>
        <time>2017-12-10T10:07:29.000Z</time>
      </trkpt>
      <trkpt lat="47.47226" lon="6.78493">
        <ele>408.1</ele>
        <time>2017-12-10T10:07:30.000Z</time>
      </trkpt>
      <trkpt lat="47.47231" lon="6.78493">
        <ele>407.9</ele>
        <time>2017-12-10T10:07:32.000Z</time>
      </trkpt>
      <trkpt lat="47.47233" lon="6.78494">
        <ele>407.8</ele>
        <time>2017-12-10T10:07:33.000Z</time>
      </trkpt>
      <trkpt lat="47.47237" lon="6.78495">
        <ele>407.8</ele>
        <time>2017-12-10T10:07:34.000Z</time>
      </trkpt>
      <trkpt lat="47.47239" lon="6.78496">
        <ele>407.8</ele>
        <time>2017-12-10T10:07:35.000Z</time>
      </trkpt>
      <trkpt lat="47.47243" lon="6.78498">
        <ele>407.8</ele>
        <time>2017-12-10T10:07:36.000Z</time>
      </trkpt>
      <trkpt lat="47.47247" lon="6.785">
        <ele>407.9</ele>
        <time>2017-12-10T10:07:38.000Z</time>
      </trkpt>
      <trkpt lat="47.47248" lon="6.78501">
        <ele>407.8</ele>
        <time>2017-12-10T10:07:39.000Z</time>
      </trkpt>
      <trkpt lat="47.47253" lon="6.78502">
        <ele>407.4</ele>
        <time>2017-12-10T10:07:41.000Z</time>
      </trkpt>
      <trkpt lat="47.47255" lon="6.78503">
        <ele>407.2</ele>
        <time>2017-12-10T10:07:42.000Z</time>
      </trkpt>
      <trkpt lat="47.47259" lon="6.78504">
        <ele>406.9</ele>
        <time>2017-12-10T10:07:44.000Z</time>
      </trkpt>
      <trkpt lat="47.47261" lon="6.78505">
        <ele>406.8</ele>
        <time>2017-12-10T10:07:45.000Z</time>
      </trkpt>
      <trkpt lat="47.47263" lon="6.78507">
        <ele>406.8</ele>
        <time>2017-12-10T10:07:47.000Z</time>
      </trkpt>
      <trkpt lat="47.47265" lon="6.78508">
        <ele>406.8</ele>
        <time>2017-12-10T10:07:48.000Z</time>
      </trkpt>
      <trkpt lat="47.47268" lon="6.78509">
        <ele>406.9</ele>
        <time>2017-12-10T10:07:50.000Z</time>
      </trkpt>
      <trkpt lat="47.47269" lon="6.7851">
        <ele>406.9</ele>
        <time>2017-12-10T10:07:51.000Z</time>
      </trkpt>
      <trkpt lat="47.47272" lon="6.78512">
        <ele>406.8</ele>
        <time>2017-12-10T10:07:53.000Z</time>
      </trkpt>
      <trkpt lat="47.47273" lon="6.78513">
        <ele>406.7</ele>
        <time>2017-12-10T10:07:54.000Z</time>
      </trkpt>
      <trkpt lat="47.47277" lon="6.78515">
        <ele>406.8</ele>
        <time>2017-12-10T10:07:57.000Z</time>
      </trkpt>
      <trkpt lat="47.47278" lon="6.78516">
        <ele>406.9</ele>
        <time>2017-12-10T10:07:58.000Z</time>
      </trkpt>
      <trkpt lat="47.47281" lon="6.78518">
        <ele>406.9</ele>
        <time>2017-12-10T10:08:00.000Z</time>
      </trkpt>
      <trkpt lat="47.47283" lon="6.78519">
        <ele>406.9</ele>
        <time>2017-12-10T10:08:01.000Z</time>
      </trkpt>
      <trkpt lat="47.47285" lon="6.78522">
        <ele>406.9</ele>
        <time>2017-12-10T10:08:03.000Z</time>
      </trkpt>
      <trkpt lat="47.47287" lon="6.78523">
        <ele>406.9</ele>
        <time>2017-12-10T10:08:04.000Z</time>
      </trkpt>
      <trkpt lat="47.47291" lon="6.78524">
        <ele>406.9</ele>
        <time>2017-12-10T10:08:06.000Z</time>
      </trkpt>
      <trkpt lat="47.47293" lon="6.78525">
        <ele>406.8</ele>
        <time>2017-12-10T10:08:07.000Z</time>
      </trkpt>
      <trkpt lat="47.47296" lon="6.78527">
        <ele>406.4</ele>
        <time>2017-12-10T10:08:11.000Z</time>
      </trkpt>
      <trkpt lat="47.47299" lon="6.7853">
        <ele>406.1</ele>
        <time>2017-12-10T10:08:12.000Z</time>
      </trkpt>
      <trkpt lat="47.47303" lon="6.78533">
        <ele>406.1</ele>
        <time>2017-12-10T10:08:13.000Z</time>
      </trkpt>
      <trkpt lat="47.47304" lon="6.78533">
        <ele>406</ele>
        <time>2017-12-10T10:08:14.000Z</time>
      </trkpt>
      <trkpt lat="47.47306" lon="6.78535">
        <ele>405.7</ele>
        <time>2017-12-10T10:08:16.000Z</time>
      </trkpt>
      <trkpt lat="47.47308" lon="6.78536">
        <ele>405.8</ele>
        <time>2017-12-10T10:08:17.000Z</time>
      </trkpt>
      <trkpt lat="47.47311" lon="6.78537">
        <ele>405.8</ele>
        <time>2017-12-10T10:08:19.000Z</time>
      </trkpt>
      <trkpt lat="47.47313" lon="6.78537">
        <ele>405.8</ele>
        <time>2017-12-10T10:08:20.000Z</time>
      </trkpt>
      <trkpt lat="47.47317" lon="6.78537">
        <ele>405.9</ele>
        <time>2017-12-10T10:08:22.000Z</time>
      </trkpt>
      <trkpt lat="47.47319" lon="6.78536">
        <ele>406</ele>
        <time>2017-12-10T10:08:23.000Z</time>
      </trkpt>
      <trkpt lat="47.47323" lon="6.78537">
        <ele>405.9</ele>
        <time>2017-12-10T10:08:27.000Z</time>
      </trkpt>
      <trkpt lat="47.47325" lon="6.78538">
        <ele>405.9</ele>
        <time>2017-12-10T10:08:28.000Z</time>
      </trkpt>
      <trkpt lat="47.47328" lon="6.78541">
        <ele>405.9</ele>
        <time>2017-12-10T10:08:29.000Z</time>
      </trkpt>
      <trkpt lat="47.4733" lon="6.78541">
        <ele>405.9</ele>
        <time>2017-12-10T10:08:30.000Z</time>
      </trkpt>
      <trkpt lat="47.47333" lon="6.78541">
        <ele>405.8</ele>
        <time>2017-12-10T10:08:32.000Z</time>
      </trkpt>
      <trkpt lat="47.47336" lon="6.78541">
        <ele>405.8</ele>
        <time>2017-12-10T10:08:33.000Z</time>
      </trkpt>
      <trkpt lat="47.4734" lon="6.78542">
        <ele>406</ele>
        <time>2017-12-10T10:08:37.000Z</time>
      </trkpt>
      <trkpt lat="47.47341" lon="6.78542">
        <ele>406</ele>
        <time>2017-12-10T10:08:38.000Z</time>
      </trkpt>
      <trkpt lat="47.47345" lon="6.78545">
        <ele>406.3</ele>
        <time>2017-12-10T10:08:41.000Z</time>
      </trkpt>
      <trkpt lat="47.47346" lon="6.78546">
        <ele>406.3</ele>
        <time>2017-12-10T10:08:42.000Z</time>
      </trkpt>
      <trkpt lat="47.4735" lon="6.78549">
        <ele>406.8</ele>
        <time>2017-12-10T10:08:45.000Z</time>
      </trkpt>
      <trkpt lat="47.47351" lon="6.78551">
        <ele>406.9</ele>
        <time>2017-12-10T10:08:46.000Z</time>
      </trkpt>
      <trkpt lat="47.47354" lon="6.78554">
        <ele>407.3</ele>
        <time>2017-12-10T10:08:49.000Z</time>
      </trkpt>
      <trkpt lat="47.47355" lon="6.78555">
        <ele>407.5</ele>
        <time>2017-12-10T10:08:50.000Z</time>
      </trkpt>
      <trkpt lat="47.47359" lon="6.78556">
        <ele>407.6</ele>
        <time>2017-12-10T10:08:51.000Z</time>
      </trkpt>
      <trkpt lat="47.4736" lon="6.78557">
        <ele>407.7</ele>
        <time>2017-12-10T10:08:52.000Z</time>
      </trkpt>
      <trkpt lat="47.47362" lon="6.78559">
        <ele>407.8</ele>
        <time>2017-12-10T10:08:53.000Z</time>
      </trkpt>
      <trkpt lat="47.47365" lon="6.78561">
        <ele>407.9</ele>
        <time>2017-12-10T10:08:54.000Z</time>
      </trkpt>
      <trkpt lat="47.47369" lon="6.78563">
        <ele>408.2</ele>
        <time>2017-12-10T10:08:57.000Z</time>
      </trkpt>
      <trkpt lat="47.4737" lon="6.78564">
        <ele>408.3</ele>
        <time>2017-12-10T10:08:58.000Z</time>
      </trkpt>
      <trkpt lat="47.47374" lon="6.78567">
        <ele>408.4</ele>
        <time>2017-12-10T10:09:00.000Z</time>
      </trkpt>
      <trkpt lat="47.47375" lon="6.78567">
        <ele>408.6</ele>
        <time>2017-12-10T10:09:01.000Z</time>
      </trkpt>
      <trkpt lat="47.47379" lon="6.78568">
        <ele>409</ele>
        <time>2017-12-10T10:09:04.000Z</time>
      </trkpt>
      <trkpt lat="47.4738" lon="6.78569">
        <ele>409.1</ele>
        <time>2017-12-10T10:09:05.000Z</time>
      </trkpt>
      <trkpt lat="47.47384" lon="6.78571">
        <ele>409.4</ele>
        <time>2017-12-10T10:09:07.000Z</time>
      </trkpt>
      <trkpt lat="47.47386" lon="6.78573">
        <ele>409.5</ele>
        <time>2017-12-10T10:09:08.000Z</time>
      </trkpt>
      <trkpt lat="47.47389" lon="6.78575">
        <ele>409.6</ele>
        <time>2017-12-10T10:09:10.000Z</time>
      </trkpt>
      <trkpt lat="47.4739" lon="6.78576">
        <ele>409.6</ele>
        <time>2017-12-10T10:09:11.000Z</time>
      </trkpt>
      <trkpt lat="47.47394" lon="6.78579">
        <ele>409.7</ele>
        <time>2017-12-10T10:09:12.000Z</time>
      </trkpt>
      <trkpt lat="47.47395" lon="6.7858">
        <ele>409.9</ele>
        <time>2017-12-10T10:09:13.000Z</time>
      </trkpt>
      <trkpt lat="47.47399" lon="6.78581">
        <ele>410.1</ele>
        <time>2017-12-10T10:09:15.000Z</time>
      </trkpt>
      <trkpt lat="47.474" lon="6.78581">
        <ele>410.1</ele>
        <time>2017-12-10T10:09:16.000Z</time>
      </trkpt>
      <trkpt lat="47.47402" lon="6.78582">
        <ele>410.3</ele>
        <time>2017-12-10T10:09:17.000Z</time>
      </trkpt>
      <trkpt lat="47.47405" lon="6.78583">
        <ele>410.4</ele>
        <time>2017-12-10T10:09:18.000Z</time>
      </trkpt>
      <trkpt lat="47.47408" lon="6.78584">
        <ele>410.5</ele>
        <time>2017-12-10T10:09:20.000Z</time>
      </trkpt>
      <trkpt lat="47.47409" lon="6.78584">
        <ele>410.5</ele>
        <time>2017-12-10T10:09:21.000Z</time>
      </trkpt>
      <trkpt lat="47.47413" lon="6.78586">
        <ele>410.6</ele>
        <time>2017-12-10T10:09:22.000Z</time>
      </trkpt>
      <trkpt lat="47.47415" lon="6.78586">
        <ele>410.6</ele>
        <time>2017-12-10T10:09:23.000Z</time>
      </trkpt>
      <trkpt lat="47.47416" lon="6.78587">
        <ele>410.7</ele>
        <time>2017-12-10T10:09:24.000Z</time>
      </trkpt>
      <trkpt lat="47.4742" lon="6.78588">
        <ele>410.9</ele>
        <time>2017-12-10T10:09:25.000Z</time>
      </trkpt>
      <trkpt lat="47.47422" lon="6.78589">
        <ele>411.1</ele>
        <time>2017-12-10T10:09:27.000Z</time>
      </trkpt>
      <trkpt lat="47.47425" lon="6.78591">
        <ele>411.3</ele>
        <time>2017-12-10T10:09:28.000Z</time>
      </trkpt>
      <trkpt lat="47.47429" lon="6.78593">
        <ele>411.5</ele>
        <time>2017-12-10T10:09:29.000Z</time>
      </trkpt>
      <trkpt lat="47.4743" lon="6.78594">
        <ele>411.7</ele>
        <time>2017-12-10T10:09:30.000Z</time>
      </trkpt>
      <trkpt lat="47.47433" lon="6.78595">
        <ele>412.2</ele>
        <time>2017-12-10T10:09:32.000Z</time>
      </trkpt>
      <trkpt lat="47.4744" lon="6.78597">
        <ele>412.6</ele>
        <time>2017-12-10T10:09:35.000Z</time>
      </trkpt>
      <trkpt lat="47.47461" lon="6.78601">
        <ele>412.8</ele>
        <time>2017-12-10T10:09:43.000Z</time>
      </trkpt>
      <trkpt lat="47.47465" lon="6.78602">
        <ele>412.6</ele>
        <time>2017-12-10T10:09:45.000Z</time>
      </trkpt>
      <trkpt lat="47.47466" lon="6.78603">
        <ele>412.5</ele>
        <time>2017-12-10T10:09:46.000Z</time>
      </trkpt>
      <trkpt lat="47.47468" lon="6.78602">
        <ele>412.3</ele>
        <time>2017-12-10T10:09:47.000Z</time>
      </trkpt>
      <trkpt lat="47.47471" lon="6.78597">
        <ele>412.3</ele>
        <time>2017-12-10T10:09:48.000Z</time>
      </trkpt>
      <trkpt lat="47.47476" lon="6.78588">
        <ele>411.3</ele>
        <time>2017-12-10T10:09:49.000Z</time>
      </trkpt>
      <trkpt lat="47.47482" lon="6.7858">
        <ele>409.9</ele>
        <time>2017-12-10T10:09:50.000Z</time>
      </trkpt>
      <trkpt lat="47.47488" lon="6.7857">
        <ele>408.3</ele>
        <time>2017-12-10T10:09:51.000Z</time>
      </trkpt>
      <trkpt lat="47.47493" lon="6.78562">
        <ele>408.1</ele>
        <time>2017-12-10T10:09:52.000Z</time>
      </trkpt>
      <trkpt lat="47.47497" lon="6.78556">
        <ele>407.9</ele>
        <time>2017-12-10T10:09:53.000Z</time>
      </trkpt>
      <trkpt lat="47.47502" lon="6.78551">
        <ele>407.9</ele>
        <time>2017-12-10T10:09:54.000Z</time>
      </trkpt>
      <trkpt lat="47.47507" lon="6.78546">
        <ele>407.9</ele>
        <time>2017-12-10T10:09:55.000Z</time>
      </trkpt>
      <trkpt lat="47.4751" lon="6.78541">
        <ele>407.7</ele>
        <time>2017-12-10T10:09:56.000Z</time>
      </trkpt>
      <trkpt lat="47.47513" lon="6.78537">
        <ele>408.1</ele>
        <time>2017-12-10T10:09:57.000Z</time>
      </trkpt>
      <trkpt lat="47.47516" lon="6.78533">
        <ele>408.2</ele>
        <time>2017-12-10T10:09:58.000Z</time>
      </trkpt>
      <trkpt lat="47.47518" lon="6.78528">
        <ele>408.1</ele>
        <time>2017-12-10T10:09:59.000Z</time>
      </trkpt>
      <trkpt lat="47.47523" lon="6.78522">
        <ele>407.7</ele>
        <time>2017-12-10T10:10:00.000Z</time>
      </trkpt>
      <trkpt lat="47.47528" lon="6.78517">
        <ele>407.7</ele>
        <time>2017-12-10T10:10:01.000Z</time>
      </trkpt>
      <trkpt lat="47.47531" lon="6.78514">
        <ele>407.7</ele>
        <time>2017-12-10T10:10:02.000Z</time>
      </trkpt>
      <trkpt lat="47.47537" lon="6.78509">
        <ele>407.7</ele>
        <time>2017-12-10T10:10:03.000Z</time>
      </trkpt>
      <trkpt lat="47.4754" lon="6.78506">
        <ele>407.5</ele>
        <time>2017-12-10T10:10:04.000Z</time>
      </trkpt>
      <trkpt lat="47.47543" lon="6.78504">
        <ele>407.3</ele>
        <time>2017-12-10T10:10:05.000Z</time>
      </trkpt>
      <trkpt lat="47.47547" lon="6.78501">
        <ele>407.2</ele>
        <time>2017-12-10T10:10:06.000Z</time>
      </trkpt>
      <trkpt lat="47.47551" lon="6.78495">
        <ele>407</ele>
        <time>2017-12-10T10:10:07.000Z</time>
      </trkpt>
      <trkpt lat="47.47554" lon="6.78493">
        <ele>406.8</ele>
        <time>2017-12-10T10:10:08.000Z</time>
      </trkpt>
      <trkpt lat="47.47557" lon="6.78491">
        <ele>406.4</ele>
        <time>2017-12-10T10:10:09.000Z</time>
      </trkpt>
      <trkpt lat="47.47559" lon="6.78488">
        <ele>406</ele>
        <time>2017-12-10T10:10:10.000Z</time>
      </trkpt>
      <trkpt lat="47.47562" lon="6.78484">
        <ele>405.7</ele>
        <time>2017-12-10T10:10:11.000Z</time>
      </trkpt>
      <trkpt lat="47.47565" lon="6.78481">
        <ele>402.1</ele>
        <time>2017-12-10T10:10:12.000Z</time>
      </trkpt>
      <trkpt lat="47.47569" lon="6.78476">
        <ele>399.7</ele>
        <time>2017-12-10T10:10:13.000Z</time>
      </trkpt>
      <trkpt lat="47.47571" lon="6.78473">
        <ele>399.5</ele>
        <time>2017-12-10T10:10:14.000Z</time>
      </trkpt>
      <trkpt lat="47.47575" lon="6.7847">
        <ele>399.4</ele>
        <time>2017-12-10T10:10:15.000Z</time>
      </trkpt>
      <trkpt lat="47.47578" lon="6.78467">
        <ele>399.2</ele>
        <time>2017-12-10T10:10:16.000Z</time>
      </trkpt>
      <trkpt lat="47.4758" lon="6.78463">
        <ele>399</ele>
        <time>2017-12-10T10:10:17.000Z</time>
      </trkpt>
      <trkpt lat="47.47583" lon="6.7846">
        <ele>398.9</ele>
        <time>2017-12-10T10:10:18.000Z</time>
      </trkpt>
      <trkpt lat="47.47588" lon="6.78454">
        <ele>398.8</ele>
        <time>2017-12-10T10:10:19.000Z</time>
      </trkpt>
      <trkpt lat="47.4759" lon="6.7845">
        <ele>398.6</ele>
        <time>2017-12-10T10:10:20.000Z</time>
      </trkpt>
      <trkpt lat="47.47592" lon="6.78447">
        <ele>398.4</ele>
        <time>2017-12-10T10:10:21.000Z</time>
      </trkpt>
      <trkpt lat="47.47596" lon="6.78442">
        <ele>398.2</ele>
        <time>2017-12-10T10:10:22.000Z</time>
      </trkpt>
      <trkpt lat="47.47601" lon="6.78437">
        <ele>398.1</ele>
        <time>2017-12-10T10:10:23.000Z</time>
      </trkpt>
      <trkpt lat="47.47605" lon="6.78434">
        <ele>398</ele>
        <time>2017-12-10T10:10:24.000Z</time>
      </trkpt>
      <trkpt lat="47.47609" lon="6.78431">
        <ele>397.4</ele>
        <time>2017-12-10T10:10:27.000Z</time>
      </trkpt>
      <trkpt lat="47.4761" lon="6.7843">
        <ele>397.2</ele>
        <time>2017-12-10T10:10:28.000Z</time>
      </trkpt>
      <trkpt lat="47.47611" lon="6.78427">
        <ele>397.1</ele>
        <time>2017-12-10T10:10:29.000Z</time>
      </trkpt>
      <trkpt lat="47.47613" lon="6.78423">
        <ele>397</ele>
        <time>2017-12-10T10:10:30.000Z</time>
      </trkpt>
      <trkpt lat="47.47616" lon="6.78416">
        <ele>396.8</ele>
        <time>2017-12-10T10:10:31.000Z</time>
      </trkpt>
      <trkpt lat="47.47618" lon="6.78414">
        <ele>396.8</ele>
        <time>2017-12-10T10:10:32.000Z</time>
      </trkpt>
      <trkpt lat="47.4762" lon="6.78412">
        <ele>396.7</ele>
        <time>2017-12-10T10:10:33.000Z</time>
      </trkpt>
      <trkpt lat="47.47622" lon="6.78408">
        <ele>396.7</ele>
        <time>2017-12-10T10:10:34.000Z</time>
      </trkpt>
      <trkpt lat="47.47623" lon="6.78405">
        <ele>396.6</ele>
        <time>2017-12-10T10:10:35.000Z</time>
      </trkpt>
      <trkpt lat="47.47625" lon="6.78401">
        <ele>396.4</ele>
        <time>2017-12-10T10:10:36.000Z</time>
      </trkpt>
      <trkpt lat="47.47626" lon="6.78397">
        <ele>396.2</ele>
        <time>2017-12-10T10:10:37.000Z</time>
      </trkpt>
      <trkpt lat="47.47627" lon="6.78393">
        <ele>396.1</ele>
        <time>2017-12-10T10:10:38.000Z</time>
      </trkpt>
      <trkpt lat="47.4763" lon="6.78388">
        <ele>395.9</ele>
        <time>2017-12-10T10:10:39.000Z</time>
      </trkpt>
      <trkpt lat="47.47633" lon="6.78383">
        <ele>395.7</ele>
        <time>2017-12-10T10:10:41.000Z</time>
      </trkpt>
      <trkpt lat="47.47634" lon="6.78384">
        <ele>395.5</ele>
        <time>2017-12-10T10:10:42.000Z</time>
      </trkpt>
      <trkpt lat="47.47638" lon="6.78387">
        <ele>395.2</ele>
        <time>2017-12-10T10:10:44.000Z</time>
      </trkpt>
      <trkpt lat="47.4764" lon="6.78386">
        <ele>395.2</ele>
        <time>2017-12-10T10:10:45.000Z</time>
      </trkpt>
      <trkpt lat="47.47644" lon="6.78384">
        <ele>395</ele>
        <time>2017-12-10T10:10:46.000Z</time>
      </trkpt>
      <trkpt lat="47.47646" lon="6.78384">
        <ele>394.9</ele>
        <time>2017-12-10T10:10:47.000Z</time>
      </trkpt>
      <trkpt lat="47.4765" lon="6.78388">
        <ele>394.7</ele>
        <time>2017-12-10T10:10:48.000Z</time>
      </trkpt>
      <trkpt lat="47.47652" lon="6.78391">
        <ele>394.5</ele>
        <time>2017-12-10T10:10:49.000Z</time>
      </trkpt>
      <trkpt lat="47.47653" lon="6.78394">
        <ele>394.3</ele>
        <time>2017-12-10T10:10:50.000Z</time>
      </trkpt>
      <trkpt lat="47.47653" lon="6.784">
        <ele>393.6</ele>
        <time>2017-12-10T10:10:52.000Z</time>
      </trkpt>
      <trkpt lat="47.47654" lon="6.78406">
        <ele>393.3</ele>
        <time>2017-12-10T10:10:53.000Z</time>
      </trkpt>
      <trkpt lat="47.47656" lon="6.78414">
        <ele>393.1</ele>
        <time>2017-12-10T10:10:54.000Z</time>
      </trkpt>
      <trkpt lat="47.47661" lon="6.78424">
        <ele>389.7</ele>
        <time>2017-12-10T10:10:55.000Z</time>
      </trkpt>
      <trkpt lat="47.47665" lon="6.78431">
        <ele>388.1</ele>
        <time>2017-12-10T10:10:56.000Z</time>
      </trkpt>
      <trkpt lat="47.47667" lon="6.78438">
        <ele>387.6</ele>
        <time>2017-12-10T10:10:57.000Z</time>
      </trkpt>
      <trkpt lat="47.47664" lon="6.78442">
        <ele>387.4</ele>
        <time>2017-12-10T10:10:59.000Z</time>
      </trkpt>
      <trkpt lat="47.47663" lon="6.78443">
        <ele>387.3</ele>
        <time>2017-12-10T10:11:00.000Z</time>
      </trkpt>
      <trkpt lat="47.47659" lon="6.78441">
        <ele>387.2</ele>
        <time>2017-12-10T10:11:02.000Z</time>
      </trkpt>
      <trkpt lat="47.47657" lon="6.78437">
        <ele>387.2</ele>
        <time>2017-12-10T10:11:03.000Z</time>
      </trkpt>
      <trkpt lat="47.47656" lon="6.78431">
        <ele>387.2</ele>
        <time>2017-12-10T10:11:04.000Z</time>
      </trkpt>
      <trkpt lat="47.47656" lon="6.78426">
        <ele>387.1</ele>
        <time>2017-12-10T10:11:05.000Z</time>
      </trkpt>
      <trkpt lat="47.47659" lon="6.78422">
        <ele>387</ele>
        <time>2017-12-10T10:11:11.000Z</time>
      </trkpt>
      <trkpt lat="47.4766" lon="6.7842">
        <ele>387</ele>
        <time>2017-12-10T10:11:12.000Z</time>
      </trkpt>
      <trkpt lat="47.47663" lon="6.78416">
        <ele>387.2</ele>
        <time>2017-12-10T10:11:15.000Z</time>
      </trkpt>
      <trkpt lat="47.47664" lon="6.78415">
        <ele>387.2</ele>
        <time>2017-12-10T10:11:16.000Z</time>
      </trkpt>
      <trkpt lat="47.47664" lon="6.78414">
        <ele>387.2</ele>
        <time>2017-12-10T10:11:17.000Z</time>
      </trkpt>
      <trkpt lat="47.47668" lon="6.78409">
        <ele>387.2</ele>
        <time>2017-12-10T10:11:21.000Z</time>
      </trkpt>
      <trkpt lat="47.4767" lon="6.78405">
        <ele>387.3</ele>
        <time>2017-12-10T10:11:24.000Z</time>
      </trkpt>
      <trkpt lat="47.47672" lon="6.78402">
        <ele>387.3</ele>
        <time>2017-12-10T10:11:26.000Z</time>
      </trkpt>
      <trkpt lat="47.47675" lon="6.78398">
        <ele>387.3</ele>
        <time>2017-12-10T10:11:30.000Z</time>
      </trkpt>
      <trkpt lat="47.47676" lon="6.78396">
        <ele>387.3</ele>
        <time>2017-12-10T10:11:31.000Z</time>
      </trkpt>
      <trkpt lat="47.47677" lon="6.78395">
        <ele>387.3</ele>
        <time>2017-12-10T10:11:32.000Z</time>
      </trkpt>
      <trkpt lat="47.47676" lon="6.78385">
        <ele>387.3</ele>
        <time>2017-12-10T10:11:33.000Z</time>
      </trkpt>
      <trkpt lat="47.4768" lon="6.78384">
        <ele>387.4</ele>
        <time>2017-12-10T10:11:37.000Z</time>
      </trkpt>
      <trkpt lat="47.47692" lon="6.7837">
        <ele>387.2</ele>
        <time>2017-12-10T10:11:59.000Z</time>
      </trkpt>
      <trkpt lat="47.47694" lon="6.78364">
        <ele>386.9</ele>
        <time>2017-12-10T10:12:00.000Z</time>
      </trkpt>
      <trkpt lat="47.47695" lon="6.78362">
        <ele>386.7</ele>
        <time>2017-12-10T10:12:01.000Z</time>
      </trkpt>
      <trkpt lat="47.47695" lon="6.78359">
        <ele>386.4</ele>
        <time>2017-12-10T10:12:02.000Z</time>
      </trkpt>
      <trkpt lat="47.47696" lon="6.78355">
        <ele>386.1</ele>
        <time>2017-12-10T10:12:03.000Z</time>
      </trkpt>
      <trkpt lat="47.47698" lon="6.7835">
        <ele>385.8</ele>
        <time>2017-12-10T10:12:06.000Z</time>
      </trkpt>
      <trkpt lat="47.477" lon="6.78347">
        <ele>385.8</ele>
        <time>2017-12-10T10:12:07.000Z</time>
      </trkpt>
      <trkpt lat="47.47702" lon="6.78344">
        <ele>385.7</ele>
        <time>2017-12-10T10:12:08.000Z</time>
      </trkpt>
      <trkpt lat="47.47704" lon="6.7834">
        <ele>385.7</ele>
        <time>2017-12-10T10:12:09.000Z</time>
      </trkpt>
      <trkpt lat="47.47706" lon="6.78336">
        <ele>385.8</ele>
        <time>2017-12-10T10:12:10.000Z</time>
      </trkpt>
      <trkpt lat="47.47708" lon="6.78331">
        <ele>385.8</ele>
        <time>2017-12-10T10:12:11.000Z</time>
      </trkpt>
      <trkpt lat="47.47709" lon="6.78325">
        <ele>385.8</ele>
        <time>2017-12-10T10:12:12.000Z</time>
      </trkpt>
      <trkpt lat="47.4771" lon="6.78318">
        <ele>385.8</ele>
        <time>2017-12-10T10:12:13.000Z</time>
      </trkpt>
      <trkpt lat="47.47711" lon="6.78314">
        <ele>385.9</ele>
        <time>2017-12-10T10:12:14.000Z</time>
      </trkpt>
      <trkpt lat="47.47713" lon="6.7831">
        <ele>385.8</ele>
        <time>2017-12-10T10:12:15.000Z</time>
      </trkpt>
      <trkpt lat="47.47713" lon="6.78304">
        <ele>385.8</ele>
        <time>2017-12-10T10:12:16.000Z</time>
      </trkpt>
      <trkpt lat="47.47712" lon="6.78298">
        <ele>385.4</ele>
        <time>2017-12-10T10:12:17.000Z</time>
      </trkpt>
      <trkpt lat="47.47711" lon="6.78293">
        <ele>385.4</ele>
        <time>2017-12-10T10:12:18.000Z</time>
      </trkpt>
      <trkpt lat="47.4771" lon="6.78288">
        <ele>385.3</ele>
        <time>2017-12-10T10:12:19.000Z</time>
      </trkpt>
      <trkpt lat="47.47707" lon="6.78281">
        <ele>385.3</ele>
        <time>2017-12-10T10:12:20.000Z</time>
      </trkpt>
      <trkpt lat="47.47706" lon="6.78276">
        <ele>385.3</ele>
        <time>2017-12-10T10:12:21.000Z</time>
      </trkpt>
      <trkpt lat="47.47704" lon="6.7827">
        <ele>385</ele>
        <time>2017-12-10T10:12:22.000Z</time>
      </trkpt>
      <trkpt lat="47.47702" lon="6.78262">
        <ele>385.2</ele>
        <time>2017-12-10T10:12:23.000Z</time>
      </trkpt>
      <trkpt lat="47.477" lon="6.78255">
        <ele>384.6</ele>
        <time>2017-12-10T10:12:24.000Z</time>
      </trkpt>
      <trkpt lat="47.47697" lon="6.78246">
        <ele>384.2</ele>
        <time>2017-12-10T10:12:25.000Z</time>
      </trkpt>
      <trkpt lat="47.47696" lon="6.7824">
        <ele>383.8</ele>
        <time>2017-12-10T10:12:26.000Z</time>
      </trkpt>
      <trkpt lat="47.47694" lon="6.78233">
        <ele>382.9</ele>
        <time>2017-12-10T10:12:27.000Z</time>
      </trkpt>
      <trkpt lat="47.47693" lon="6.7823">
        <ele>382.8</ele>
        <time>2017-12-10T10:12:28.000Z</time>
      </trkpt>
      <trkpt lat="47.47691" lon="6.78225">
        <ele>381.3</ele>
        <time>2017-12-10T10:12:29.000Z</time>
      </trkpt>
      <trkpt lat="47.4769" lon="6.78221">
        <ele>381.2</ele>
        <time>2017-12-10T10:12:30.000Z</time>
      </trkpt>
      <trkpt lat="47.47689" lon="6.78217">
        <ele>381</ele>
        <time>2017-12-10T10:12:31.000Z</time>
      </trkpt>
      <trkpt lat="47.47688" lon="6.78213">
        <ele>380.9</ele>
        <time>2017-12-10T10:12:32.000Z</time>
      </trkpt>
      <trkpt lat="47.47688" lon="6.78209">
        <ele>380.9</ele>
        <time>2017-12-10T10:12:33.000Z</time>
      </trkpt>
      <trkpt lat="47.47687" lon="6.78204">
        <ele>380.7</ele>
        <time>2017-12-10T10:12:34.000Z</time>
      </trkpt>
      <trkpt lat="47.47687" lon="6.78199">
        <ele>380.5</ele>
        <time>2017-12-10T10:12:35.000Z</time>
      </trkpt>
      <trkpt lat="47.47687" lon="6.78192">
        <ele>380.4</ele>
        <time>2017-12-10T10:12:36.000Z</time>
      </trkpt>
      <trkpt lat="47.47688" lon="6.78186">
        <ele>378.5</ele>
        <time>2017-12-10T10:12:37.000Z</time>
      </trkpt>
      <trkpt lat="47.47689" lon="6.78178">
        <ele>377.3</ele>
        <time>2017-12-10T10:12:38.000Z</time>
      </trkpt>
      <trkpt lat="47.4769" lon="6.78172">
        <ele>375.8</ele>
        <time>2017-12-10T10:12:39.000Z</time>
      </trkpt>
      <trkpt lat="47.4769" lon="6.78165">
        <ele>374.6</ele>
        <time>2017-12-10T10:12:40.000Z</time>
      </trkpt>
      <trkpt lat="47.47691" lon="6.78159">
        <ele>373.7</ele>
        <time>2017-12-10T10:12:41.000Z</time>
      </trkpt>
      <trkpt lat="47.47692" lon="6.78153">
        <ele>373.2</ele>
        <time>2017-12-10T10:12:42.000Z</time>
      </trkpt>
      <trkpt lat="47.47694" lon="6.78147">
        <ele>372.5</ele>
        <time>2017-12-10T10:12:43.000Z</time>
      </trkpt>
      <trkpt lat="47.47696" lon="6.78141">
        <ele>372.5</ele>
        <time>2017-12-10T10:12:44.000Z</time>
      </trkpt>
      <trkpt lat="47.47697" lon="6.78136">
        <ele>372.7</ele>
        <time>2017-12-10T10:12:45.000Z</time>
      </trkpt>
      <trkpt lat="47.47699" lon="6.7813">
        <ele>373.3</ele>
        <time>2017-12-10T10:12:46.000Z</time>
      </trkpt>
      <trkpt lat="47.477" lon="6.78123">
        <ele>372.2</ele>
        <time>2017-12-10T10:12:47.000Z</time>
      </trkpt>
      <trkpt lat="47.47703" lon="6.78116">
        <ele>371.3</ele>
        <time>2017-12-10T10:12:48.000Z</time>
      </trkpt>
      <trkpt lat="47.47706" lon="6.78107">
        <ele>370.7</ele>
        <time>2017-12-10T10:12:49.000Z</time>
      </trkpt>
      <trkpt lat="47.4771" lon="6.78099">
        <ele>370.7</ele>
        <time>2017-12-10T10:12:50.000Z</time>
      </trkpt>
      <trkpt lat="47.47713" lon="6.7809">
        <ele>370.3</ele>
        <time>2017-12-10T10:12:51.000Z</time>
      </trkpt>
      <trkpt lat="47.47716" lon="6.78083">
        <ele>369.6</ele>
        <time>2017-12-10T10:12:52.000Z</time>
      </trkpt>
      <trkpt lat="47.4772" lon="6.78076">
        <ele>370.6</ele>
        <time>2017-12-10T10:12:53.000Z</time>
      </trkpt>
      <trkpt lat="47.47724" lon="6.78069">
        <ele>370.6</ele>
        <time>2017-12-10T10:12:54.000Z</time>
      </trkpt>
      <trkpt lat="47.47727" lon="6.78062">
        <ele>369.6</ele>
        <time>2017-12-10T10:12:55.000Z</time>
      </trkpt>
      <trkpt lat="47.47729" lon="6.78054">
        <ele>368.6</ele>
        <time>2017-12-10T10:12:56.000Z</time>
      </trkpt>
      <trkpt lat="47.4773" lon="6.78045">
        <ele>368.5</ele>
        <time>2017-12-10T10:12:57.000Z</time>
      </trkpt>
      <trkpt lat="47.47731" lon="6.78036">
        <ele>367.8</ele>
        <time>2017-12-10T10:12:58.000Z</time>
      </trkpt>
      <trkpt lat="47.47732" lon="6.78026">
        <ele>366.9</ele>
        <time>2017-12-10T10:12:59.000Z</time>
      </trkpt>
      <trkpt lat="47.47732" lon="6.78018">
        <ele>366.3</ele>
        <time>2017-12-10T10:13:00.000Z</time>
      </trkpt>
      <trkpt lat="47.47731" lon="6.78009">
        <ele>365.5</ele>
        <time>2017-12-10T10:13:01.000Z</time>
      </trkpt>
      <trkpt lat="47.4773" lon="6.78">
        <ele>365</ele>
        <time>2017-12-10T10:13:02.000Z</time>
      </trkpt>
      <trkpt lat="47.47729" lon="6.77993">
        <ele>364.7</ele>
        <time>2017-12-10T10:13:03.000Z</time>
      </trkpt>
      <trkpt lat="47.47728" lon="6.77987">
        <ele>364.5</ele>
        <time>2017-12-10T10:13:04.000Z</time>
      </trkpt>
      <trkpt lat="47.47726" lon="6.77979">
        <ele>363.8</ele>
        <time>2017-12-10T10:13:05.000Z</time>
      </trkpt>
      <trkpt lat="47.47724" lon="6.77972">
        <ele>363.2</ele>
        <time>2017-12-10T10:13:06.000Z</time>
      </trkpt>
      <trkpt lat="47.47723" lon="6.77966">
        <ele>362.8</ele>
        <time>2017-12-10T10:13:07.000Z</time>
      </trkpt>
      <trkpt lat="47.47722" lon="6.77958">
        <ele>363</ele>
        <time>2017-12-10T10:13:08.000Z</time>
      </trkpt>
      <trkpt lat="47.4772" lon="6.77952">
        <ele>362.7</ele>
        <time>2017-12-10T10:13:09.000Z</time>
      </trkpt>
      <trkpt lat="47.47719" lon="6.77945">
        <ele>363.3</ele>
        <time>2017-12-10T10:13:10.000Z</time>
      </trkpt>
      <trkpt lat="47.47718" lon="6.77938">
        <ele>364</ele>
        <time>2017-12-10T10:13:11.000Z</time>
      </trkpt>
      <trkpt lat="47.47716" lon="6.77931">
        <ele>364.6</ele>
        <time>2017-12-10T10:13:12.000Z</time>
      </trkpt>
      <trkpt lat="47.47715" lon="6.77925">
        <ele>365.8</ele>
        <time>2017-12-10T10:13:13.000Z</time>
      </trkpt>
      <trkpt lat="47.47714" lon="6.77919">
        <ele>367.2</ele>
        <time>2017-12-10T10:13:14.000Z</time>
      </trkpt>
      <trkpt lat="47.47713" lon="6.77913">
        <ele>368.1</ele>
        <time>2017-12-10T10:13:15.000Z</time>
      </trkpt>
      <trkpt lat="47.47712" lon="6.77906">
        <ele>369.1</ele>
        <time>2017-12-10T10:13:16.000Z</time>
      </trkpt>
      <trkpt lat="47.4771" lon="6.779">
        <ele>370</ele>
        <time>2017-12-10T10:13:17.000Z</time>
      </trkpt>
      <trkpt lat="47.47709" lon="6.77894">
        <ele>370.6</ele>
        <time>2017-12-10T10:13:18.000Z</time>
      </trkpt>
      <trkpt lat="47.47707" lon="6.77887">
        <ele>370.9</ele>
        <time>2017-12-10T10:13:19.000Z</time>
      </trkpt>
      <trkpt lat="47.47706" lon="6.77881">
        <ele>370.8</ele>
        <time>2017-12-10T10:13:20.000Z</time>
      </trkpt>
      <trkpt lat="47.47705" lon="6.77875">
        <ele>371.4</ele>
        <time>2017-12-10T10:13:21.000Z</time>
      </trkpt>
      <trkpt lat="47.47704" lon="6.77868">
        <ele>371.6</ele>
        <time>2017-12-10T10:13:22.000Z</time>
      </trkpt>
      <trkpt lat="47.47703" lon="6.77862">
        <ele>371.8</ele>
        <time>2017-12-10T10:13:23.000Z</time>
      </trkpt>
      <trkpt lat="47.47702" lon="6.77857">
        <ele>371.8</ele>
        <time>2017-12-10T10:13:24.000Z</time>
      </trkpt>
      <trkpt lat="47.47701" lon="6.77851">
        <ele>371.9</ele>
        <time>2017-12-10T10:13:25.000Z</time>
      </trkpt>
      <trkpt lat="47.47701" lon="6.77844">
        <ele>372</ele>
        <time>2017-12-10T10:13:26.000Z</time>
      </trkpt>
      <trkpt lat="47.47701" lon="6.77837">
        <ele>370.9</ele>
        <time>2017-12-10T10:13:27.000Z</time>
      </trkpt>
      <trkpt lat="47.47701" lon="6.7783">
        <ele>369.3</ele>
        <time>2017-12-10T10:13:28.000Z</time>
      </trkpt>
      <trkpt lat="47.47701" lon="6.77824">
        <ele>367.9</ele>
        <time>2017-12-10T10:13:29.000Z</time>
      </trkpt>
      <trkpt lat="47.47701" lon="6.77818">
        <ele>367.1</ele>
        <time>2017-12-10T10:13:30.000Z</time>
      </trkpt>
      <trkpt lat="47.47702" lon="6.77812">
        <ele>366.9</ele>
        <time>2017-12-10T10:13:31.000Z</time>
      </trkpt>
      <trkpt lat="47.47702" lon="6.77806">
        <ele>366.5</ele>
        <time>2017-12-10T10:13:32.000Z</time>
      </trkpt>
      <trkpt lat="47.47703" lon="6.77799">
        <ele>366.9</ele>
        <time>2017-12-10T10:13:33.000Z</time>
      </trkpt>
      <trkpt lat="47.47704" lon="6.77793">
        <ele>367.2</ele>
        <time>2017-12-10T10:13:34.000Z</time>
      </trkpt>
      <trkpt lat="47.47704" lon="6.77788">
        <ele>367.8</ele>
        <time>2017-12-10T10:13:35.000Z</time>
      </trkpt>
      <trkpt lat="47.47705" lon="6.77782">
        <ele>368.5</ele>
        <time>2017-12-10T10:13:36.000Z</time>
      </trkpt>
      <trkpt lat="47.47705" lon="6.77777">
        <ele>369.3</ele>
        <time>2017-12-10T10:13:37.000Z</time>
      </trkpt>
      <trkpt lat="47.47706" lon="6.77771">
        <ele>369.4</ele>
        <time>2017-12-10T10:13:38.000Z</time>
      </trkpt>
      <trkpt lat="47.47706" lon="6.77766">
        <ele>369.2</ele>
        <time>2017-12-10T10:13:39.000Z</time>
      </trkpt>
      <trkpt lat="47.47706" lon="6.7776">
        <ele>368.7</ele>
        <time>2017-12-10T10:13:40.000Z</time>
      </trkpt>
      <trkpt lat="47.47706" lon="6.77754">
        <ele>368.3</ele>
        <time>2017-12-10T10:13:41.000Z</time>
      </trkpt>
      <trkpt lat="47.47707" lon="6.77745">
        <ele>366.9</ele>
        <time>2017-12-10T10:13:42.000Z</time>
      </trkpt>
      <trkpt lat="47.47708" lon="6.77738">
        <ele>364.9</ele>
        <time>2017-12-10T10:13:43.000Z</time>
      </trkpt>
      <trkpt lat="47.47709" lon="6.77731">
        <ele>363</ele>
        <time>2017-12-10T10:13:44.000Z</time>
      </trkpt>
      <trkpt lat="47.47711" lon="6.77725">
        <ele>362.2</ele>
        <time>2017-12-10T10:13:45.000Z</time>
      </trkpt>
      <trkpt lat="47.47712" lon="6.77719">
        <ele>362.1</ele>
        <time>2017-12-10T10:13:46.000Z</time>
      </trkpt>
      <trkpt lat="47.47714" lon="6.77715">
        <ele>362</ele>
        <time>2017-12-10T10:13:47.000Z</time>
      </trkpt>
      <trkpt lat="47.47715" lon="6.7771">
        <ele>362</ele>
        <time>2017-12-10T10:13:48.000Z</time>
      </trkpt>
      <trkpt lat="47.47716" lon="6.77705">
        <ele>361.9</ele>
        <time>2017-12-10T10:13:49.000Z</time>
      </trkpt>
      <trkpt lat="47.47717" lon="6.777">
        <ele>361.9</ele>
        <time>2017-12-10T10:13:50.000Z</time>
      </trkpt>
      <trkpt lat="47.47717" lon="6.77695">
        <ele>361.9</ele>
        <time>2017-12-10T10:13:51.000Z</time>
      </trkpt>
      <trkpt lat="47.47717" lon="6.77689">
        <ele>361.6</ele>
        <time>2017-12-10T10:13:52.000Z</time>
      </trkpt>
      <trkpt lat="47.47716" lon="6.77683">
        <ele>361.7</ele>
        <time>2017-12-10T10:13:53.000Z</time>
      </trkpt>
      <trkpt lat="47.47715" lon="6.77678">
        <ele>362</ele>
        <time>2017-12-10T10:13:54.000Z</time>
      </trkpt>
      <trkpt lat="47.47713" lon="6.77672">
        <ele>362.3</ele>
        <time>2017-12-10T10:13:55.000Z</time>
      </trkpt>
      <trkpt lat="47.47712" lon="6.77667">
        <ele>362.6</ele>
        <time>2017-12-10T10:13:56.000Z</time>
      </trkpt>
      <trkpt lat="47.4771" lon="6.77661">
        <ele>362.5</ele>
        <time>2017-12-10T10:13:57.000Z</time>
      </trkpt>
      <trkpt lat="47.47709" lon="6.77655">
        <ele>361.9</ele>
        <time>2017-12-10T10:13:58.000Z</time>
      </trkpt>
      <trkpt lat="47.47707" lon="6.77642">
        <ele>360.8</ele>
        <time>2017-12-10T10:14:00.000Z</time>
      </trkpt>
      <trkpt lat="47.47706" lon="6.77636">
        <ele>360.8</ele>
        <time>2017-12-10T10:14:01.000Z</time>
      </trkpt>
      <trkpt lat="47.47705" lon="6.7763">
        <ele>361.2</ele>
        <time>2017-12-10T10:14:02.000Z</time>
      </trkpt>
      <trkpt lat="47.47704" lon="6.77624">
        <ele>361.6</ele>
        <time>2017-12-10T10:14:03.000Z</time>
      </trkpt>
      <trkpt lat="47.47703" lon="6.77618">
        <ele>362.2</ele>
        <time>2017-12-10T10:14:04.000Z</time>
      </trkpt>
      <trkpt lat="47.47702" lon="6.77612">
        <ele>362.8</ele>
        <time>2017-12-10T10:14:05.000Z</time>
      </trkpt>
      <trkpt lat="47.47701" lon="6.77607">
        <ele>363.4</ele>
        <time>2017-12-10T10:14:06.000Z</time>
      </trkpt>
      <trkpt lat="47.47699" lon="6.77601">
        <ele>363.7</ele>
        <time>2017-12-10T10:14:07.000Z</time>
      </trkpt>
      <trkpt lat="47.47699" lon="6.77596">
        <ele>363.8</ele>
        <time>2017-12-10T10:14:08.000Z</time>
      </trkpt>
      <trkpt lat="47.47697" lon="6.77591">
        <ele>363.8</ele>
        <time>2017-12-10T10:14:09.000Z</time>
      </trkpt>
      <trkpt lat="47.47694" lon="6.77586">
        <ele>363.8</ele>
        <time>2017-12-10T10:14:10.000Z</time>
      </trkpt>
      <trkpt lat="47.47692" lon="6.77581">
        <ele>363.8</ele>
        <time>2017-12-10T10:14:11.000Z</time>
      </trkpt>
      <trkpt lat="47.47689" lon="6.77577">
        <ele>363.7</ele>
        <time>2017-12-10T10:14:12.000Z</time>
      </trkpt>
      <trkpt lat="47.47687" lon="6.77573">
        <ele>363.6</ele>
        <time>2017-12-10T10:14:13.000Z</time>
      </trkpt>
      <trkpt lat="47.47684" lon="6.77568">
        <ele>362.9</ele>
        <time>2017-12-10T10:14:14.000Z</time>
      </trkpt>
      <trkpt lat="47.4768" lon="6.77563">
        <ele>362.6</ele>
        <time>2017-12-10T10:14:15.000Z</time>
      </trkpt>
      <trkpt lat="47.47677" lon="6.77558">
        <ele>362.9</ele>
        <time>2017-12-10T10:14:16.000Z</time>
      </trkpt>
      <trkpt lat="47.47674" lon="6.77553">
        <ele>362.7</ele>
        <time>2017-12-10T10:14:17.000Z</time>
      </trkpt>
      <trkpt lat="47.47671" lon="6.77548">
        <ele>363</ele>
        <time>2017-12-10T10:14:18.000Z</time>
      </trkpt>
      <trkpt lat="47.47668" lon="6.77544">
        <ele>363</ele>
        <time>2017-12-10T10:14:19.000Z</time>
      </trkpt>
      <trkpt lat="47.47665" lon="6.77541">
        <ele>363</ele>
        <time>2017-12-10T10:14:20.000Z</time>
      </trkpt>
      <trkpt lat="47.47662" lon="6.77536">
        <ele>363.4</ele>
        <time>2017-12-10T10:14:21.000Z</time>
      </trkpt>
      <trkpt lat="47.47659" lon="6.77532">
        <ele>363.5</ele>
        <time>2017-12-10T10:14:22.000Z</time>
      </trkpt>
      <trkpt lat="47.47655" lon="6.77528">
        <ele>363.4</ele>
        <time>2017-12-10T10:14:23.000Z</time>
      </trkpt>
      <trkpt lat="47.47652" lon="6.77523">
        <ele>363.8</ele>
        <time>2017-12-10T10:14:24.000Z</time>
      </trkpt>
      <trkpt lat="47.47649" lon="6.7752">
        <ele>364.2</ele>
        <time>2017-12-10T10:14:25.000Z</time>
      </trkpt>
      <trkpt lat="47.47645" lon="6.77515">
        <ele>364.4</ele>
        <time>2017-12-10T10:14:26.000Z</time>
      </trkpt>
      <trkpt lat="47.47642" lon="6.77512">
        <ele>364.1</ele>
        <time>2017-12-10T10:14:27.000Z</time>
      </trkpt>
      <trkpt lat="47.47638" lon="6.77507">
        <ele>364</ele>
        <time>2017-12-10T10:14:28.000Z</time>
      </trkpt>
      <trkpt lat="47.47635" lon="6.77503">
        <ele>364.1</ele>
        <time>2017-12-10T10:14:29.000Z</time>
      </trkpt>
      <trkpt lat="47.47631" lon="6.77499">
        <ele>364.4</ele>
        <time>2017-12-10T10:14:30.000Z</time>
      </trkpt>
      <trkpt lat="47.47628" lon="6.77495">
        <ele>364.3</ele>
        <time>2017-12-10T10:14:31.000Z</time>
      </trkpt>
      <trkpt lat="47.47625" lon="6.77491">
        <ele>363.2</ele>
        <time>2017-12-10T10:14:32.000Z</time>
      </trkpt>
      <trkpt lat="47.47623" lon="6.77488">
        <ele>363.1</ele>
        <time>2017-12-10T10:14:33.000Z</time>
      </trkpt>
      <trkpt lat="47.4762" lon="6.77484">
        <ele>363.2</ele>
        <time>2017-12-10T10:14:34.000Z</time>
      </trkpt>
      <trkpt lat="47.47617" lon="6.77481">
        <ele>363.1</ele>
        <time>2017-12-10T10:14:35.000Z</time>
      </trkpt>
      <trkpt lat="47.47615" lon="6.77478">
        <ele>363.1</ele>
        <time>2017-12-10T10:14:36.000Z</time>
      </trkpt>
      <trkpt lat="47.47612" lon="6.77475">
        <ele>363</ele>
        <time>2017-12-10T10:14:37.000Z</time>
      </trkpt>
      <trkpt lat="47.4761" lon="6.77472">
        <ele>363</ele>
        <time>2017-12-10T10:14:38.000Z</time>
      </trkpt>
      <trkpt lat="47.47607" lon="6.77468">
        <ele>362.9</ele>
        <time>2017-12-10T10:14:39.000Z</time>
      </trkpt>
      <trkpt lat="47.47604" lon="6.77465">
        <ele>362.8</ele>
        <time>2017-12-10T10:14:40.000Z</time>
      </trkpt>
      <trkpt lat="47.47601" lon="6.77461">
        <ele>362.7</ele>
        <time>2017-12-10T10:14:41.000Z</time>
      </trkpt>
      <trkpt lat="47.47598" lon="6.77458">
        <ele>362.6</ele>
        <time>2017-12-10T10:14:42.000Z</time>
      </trkpt>
      <trkpt lat="47.47596" lon="6.77456">
        <ele>362.5</ele>
        <time>2017-12-10T10:14:43.000Z</time>
      </trkpt>
      <trkpt lat="47.47594" lon="6.77453">
        <ele>362.3</ele>
        <time>2017-12-10T10:14:44.000Z</time>
      </trkpt>
      <trkpt lat="47.47592" lon="6.7745">
        <ele>362.1</ele>
        <time>2017-12-10T10:14:45.000Z</time>
      </trkpt>
      <trkpt lat="47.4759" lon="6.77446">
        <ele>362</ele>
        <time>2017-12-10T10:14:46.000Z</time>
      </trkpt>
      <trkpt lat="47.47589" lon="6.77442">
        <ele>361.9</ele>
        <time>2017-12-10T10:14:47.000Z</time>
      </trkpt>
      <trkpt lat="47.4759" lon="6.77438">
        <ele>361.8</ele>
        <time>2017-12-10T10:14:48.000Z</time>
      </trkpt>
      <trkpt lat="47.47592" lon="6.77433">
        <ele>360.6</ele>
        <time>2017-12-10T10:14:49.000Z</time>
      </trkpt>
      <trkpt lat="47.47595" lon="6.77427">
        <ele>359.2</ele>
        <time>2017-12-10T10:14:50.000Z</time>
      </trkpt>
      <trkpt lat="47.47597" lon="6.77423">
        <ele>358.5</ele>
        <time>2017-12-10T10:14:51.000Z</time>
      </trkpt>
      <trkpt lat="47.47599" lon="6.77418">
        <ele>358</ele>
        <time>2017-12-10T10:14:52.000Z</time>
      </trkpt>
      <trkpt lat="47.47601" lon="6.77415">
        <ele>357.7</ele>
        <time>2017-12-10T10:14:53.000Z</time>
      </trkpt>
      <trkpt lat="47.47603" lon="6.77411">
        <ele>357.6</ele>
        <time>2017-12-10T10:14:54.000Z</time>
      </trkpt>
      <trkpt lat="47.47605" lon="6.77407">
        <ele>357.5</ele>
        <time>2017-12-10T10:14:55.000Z</time>
      </trkpt>
      <trkpt lat="47.47606" lon="6.77403">
        <ele>357.5</ele>
        <time>2017-12-10T10:14:56.000Z</time>
      </trkpt>
      <trkpt lat="47.47607" lon="6.77398">
        <ele>357.4</ele>
        <time>2017-12-10T10:14:57.000Z</time>
      </trkpt>
      <trkpt lat="47.47608" lon="6.77393">
        <ele>356.6</ele>
        <time>2017-12-10T10:14:58.000Z</time>
      </trkpt>
      <trkpt lat="47.47611" lon="6.77387">
        <ele>355</ele>
        <time>2017-12-10T10:14:59.000Z</time>
      </trkpt>
      <trkpt lat="47.47613" lon="6.77381">
        <ele>353.9</ele>
        <time>2017-12-10T10:15:00.000Z</time>
      </trkpt>
      <trkpt lat="47.47614" lon="6.77375">
        <ele>353.4</ele>
        <time>2017-12-10T10:15:01.000Z</time>
      </trkpt>
      <trkpt lat="47.47616" lon="6.7737">
        <ele>352.8</ele>
        <time>2017-12-10T10:15:02.000Z</time>
      </trkpt>
      <trkpt lat="47.47618" lon="6.77365">
        <ele>352.7</ele>
        <time>2017-12-10T10:15:03.000Z</time>
      </trkpt>
      <trkpt lat="47.47619" lon="6.77359">
        <ele>353.1</ele>
        <time>2017-12-10T10:15:04.000Z</time>
      </trkpt>
      <trkpt lat="47.47621" lon="6.77354">
        <ele>354</ele>
        <time>2017-12-10T10:15:05.000Z</time>
      </trkpt>
      <trkpt lat="47.47623" lon="6.77349">
        <ele>354.4</ele>
        <time>2017-12-10T10:15:06.000Z</time>
      </trkpt>
      <trkpt lat="47.47625" lon="6.77344">
        <ele>355</ele>
        <time>2017-12-10T10:15:07.000Z</time>
      </trkpt>
      <trkpt lat="47.47627" lon="6.77339">
        <ele>355.5</ele>
        <time>2017-12-10T10:15:08.000Z</time>
      </trkpt>
      <trkpt lat="47.47628" lon="6.77333">
        <ele>355.9</ele>
        <time>2017-12-10T10:15:09.000Z</time>
      </trkpt>
      <trkpt lat="47.4763" lon="6.77327">
        <ele>356.4</ele>
        <time>2017-12-10T10:15:10.000Z</time>
      </trkpt>
      <trkpt lat="47.47632" lon="6.7732">
        <ele>356.6</ele>
        <time>2017-12-10T10:15:11.000Z</time>
      </trkpt>
      <trkpt lat="47.47634" lon="6.77315">
        <ele>357</ele>
        <time>2017-12-10T10:15:12.000Z</time>
      </trkpt>
      <trkpt lat="47.47635" lon="6.77309">
        <ele>356.7</ele>
        <time>2017-12-10T10:15:13.000Z</time>
      </trkpt>
      <trkpt lat="47.47637" lon="6.77305">
        <ele>357.3</ele>
        <time>2017-12-10T10:15:14.000Z</time>
      </trkpt>
      <trkpt lat="47.47638" lon="6.773">
        <ele>357.5</ele>
        <time>2017-12-10T10:15:15.000Z</time>
      </trkpt>
      <trkpt lat="47.47639" lon="6.77294">
        <ele>358.3</ele>
        <time>2017-12-10T10:15:16.000Z</time>
      </trkpt>
      <trkpt lat="47.47639" lon="6.77288">
        <ele>358.6</ele>
        <time>2017-12-10T10:15:17.000Z</time>
      </trkpt>
      <trkpt lat="47.47639" lon="6.77282">
        <ele>359.1</ele>
        <time>2017-12-10T10:15:18.000Z</time>
      </trkpt>
      <trkpt lat="47.47637" lon="6.77277">
        <ele>359.6</ele>
        <time>2017-12-10T10:15:19.000Z</time>
      </trkpt>
      <trkpt lat="47.47635" lon="6.77272">
        <ele>360.6</ele>
        <time>2017-12-10T10:15:20.000Z</time>
      </trkpt>
      <trkpt lat="47.47633" lon="6.77268">
        <ele>361.6</ele>
        <time>2017-12-10T10:15:21.000Z</time>
      </trkpt>
      <trkpt lat="47.4763" lon="6.77265">
        <ele>361.6</ele>
        <time>2017-12-10T10:15:22.000Z</time>
      </trkpt>
      <trkpt lat="47.47626" lon="6.77261">
        <ele>362</ele>
        <time>2017-12-10T10:15:23.000Z</time>
      </trkpt>
      <trkpt lat="47.47622" lon="6.77258">
        <ele>361</ele>
        <time>2017-12-10T10:15:24.000Z</time>
      </trkpt>
      <trkpt lat="47.47619" lon="6.77254">
        <ele>359.5</ele>
        <time>2017-12-10T10:15:25.000Z</time>
      </trkpt>
      <trkpt lat="47.47615" lon="6.77251">
        <ele>359.1</ele>
        <time>2017-12-10T10:15:26.000Z</time>
      </trkpt>
      <trkpt lat="47.47611" lon="6.77249">
        <ele>358.5</ele>
        <time>2017-12-10T10:15:27.000Z</time>
      </trkpt>
      <trkpt lat="47.47608" lon="6.77246">
        <ele>357.9</ele>
        <time>2017-12-10T10:15:28.000Z</time>
      </trkpt>
      <trkpt lat="47.47603" lon="6.77243">
        <ele>357.9</ele>
        <time>2017-12-10T10:15:29.000Z</time>
      </trkpt>
      <trkpt lat="47.476" lon="6.7724">
        <ele>358.6</ele>
        <time>2017-12-10T10:15:30.000Z</time>
      </trkpt>
      <trkpt lat="47.47597" lon="6.77237">
        <ele>358.6</ele>
        <time>2017-12-10T10:15:31.000Z</time>
      </trkpt>
      <trkpt lat="47.47593" lon="6.77234">
        <ele>358.4</ele>
        <time>2017-12-10T10:15:32.000Z</time>
      </trkpt>
      <trkpt lat="47.4759" lon="6.77231">
        <ele>358.3</ele>
        <time>2017-12-10T10:15:33.000Z</time>
      </trkpt>
      <trkpt lat="47.47587" lon="6.77229">
        <ele>357.1</ele>
        <time>2017-12-10T10:15:34.000Z</time>
      </trkpt>
      <trkpt lat="47.47583" lon="6.77225">
        <ele>356.8</ele>
        <time>2017-12-10T10:15:35.000Z</time>
      </trkpt>
      <trkpt lat="47.47579" lon="6.77222">
        <ele>355.9</ele>
        <time>2017-12-10T10:15:36.000Z</time>
      </trkpt>
      <trkpt lat="47.47576" lon="6.7722">
        <ele>355.8</ele>
        <time>2017-12-10T10:15:37.000Z</time>
      </trkpt>
      <trkpt lat="47.47573" lon="6.77217">
        <ele>355.6</ele>
        <time>2017-12-10T10:15:38.000Z</time>
      </trkpt>
      <trkpt lat="47.4757" lon="6.77214">
        <ele>355.5</ele>
        <time>2017-12-10T10:15:39.000Z</time>
      </trkpt>
      <trkpt lat="47.47566" lon="6.77211">
        <ele>355.4</ele>
        <time>2017-12-10T10:15:40.000Z</time>
      </trkpt>
      <trkpt lat="47.47562" lon="6.77208">
        <ele>355.3</ele>
        <time>2017-12-10T10:15:41.000Z</time>
      </trkpt>
      <trkpt lat="47.47559" lon="6.77204">
        <ele>355.2</ele>
        <time>2017-12-10T10:15:42.000Z</time>
      </trkpt>
      <trkpt lat="47.47556" lon="6.77202">
        <ele>355.2</ele>
        <time>2017-12-10T10:15:43.000Z</time>
      </trkpt>
      <trkpt lat="47.47553" lon="6.77199">
        <ele>355.2</ele>
        <time>2017-12-10T10:15:44.000Z</time>
      </trkpt>
      <trkpt lat="47.4755" lon="6.77196">
        <ele>355.1</ele>
        <time>2017-12-10T10:15:45.000Z</time>
      </trkpt>
      <trkpt lat="47.47547" lon="6.77194">
        <ele>355.1</ele>
        <time>2017-12-10T10:15:46.000Z</time>
      </trkpt>
      <trkpt lat="47.47543" lon="6.77192">
        <ele>355.1</ele>
        <time>2017-12-10T10:15:47.000Z</time>
      </trkpt>
      <trkpt lat="47.47539" lon="6.77191">
        <ele>355.1</ele>
        <time>2017-12-10T10:15:48.000Z</time>
      </trkpt>
      <trkpt lat="47.47535" lon="6.77189">
        <ele>354.3</ele>
        <time>2017-12-10T10:15:49.000Z</time>
      </trkpt>
      <trkpt lat="47.47531" lon="6.77188">
        <ele>354.1</ele>
        <time>2017-12-10T10:15:50.000Z</time>
      </trkpt>
      <trkpt lat="47.47528" lon="6.77187">
        <ele>354.1</ele>
        <time>2017-12-10T10:15:51.000Z</time>
      </trkpt>
      <trkpt lat="47.47524" lon="6.77184">
        <ele>354</ele>
        <time>2017-12-10T10:15:52.000Z</time>
      </trkpt>
      <trkpt lat="47.47522" lon="6.77182">
        <ele>354</ele>
        <time>2017-12-10T10:15:53.000Z</time>
      </trkpt>
      <trkpt lat="47.4752" lon="6.77179">
        <ele>354</ele>
        <time>2017-12-10T10:15:54.000Z</time>
      </trkpt>
      <trkpt lat="47.47519" lon="6.77176">
        <ele>354.1</ele>
        <time>2017-12-10T10:15:55.000Z</time>
      </trkpt>
      <trkpt lat="47.47519" lon="6.77171">
        <ele>354.2</ele>
        <time>2017-12-10T10:15:56.000Z</time>
      </trkpt>
      <trkpt lat="47.47519" lon="6.77166">
        <ele>354.4</ele>
        <time>2017-12-10T10:15:57.000Z</time>
      </trkpt>
      <trkpt lat="47.47519" lon="6.77159">
        <ele>354.5</ele>
        <time>2017-12-10T10:15:58.000Z</time>
      </trkpt>
      <trkpt lat="47.4752" lon="6.77153">
        <ele>355.5</ele>
        <time>2017-12-10T10:16:01.000Z</time>
      </trkpt>
      <trkpt lat="47.47522" lon="6.77142">
        <ele>355.4</ele>
        <time>2017-12-10T10:16:02.000Z</time>
      </trkpt>
      <trkpt lat="47.47525" lon="6.77137">
        <ele>355.4</ele>
        <time>2017-12-10T10:16:03.000Z</time>
      </trkpt>
      <trkpt lat="47.47528" lon="6.77136">
        <ele>355.4</ele>
        <time>2017-12-10T10:16:04.000Z</time>
      </trkpt>
      <trkpt lat="47.47531" lon="6.77136">
        <ele>355.5</ele>
        <time>2017-12-10T10:16:05.000Z</time>
      </trkpt>
      <trkpt lat="47.47535" lon="6.77137">
        <ele>355.5</ele>
        <time>2017-12-10T10:16:06.000Z</time>
      </trkpt>
      <trkpt lat="47.47537" lon="6.7714">
        <ele>355.5</ele>
        <time>2017-12-10T10:16:07.000Z</time>
      </trkpt>
      <trkpt lat="47.4754" lon="6.77142">
        <ele>355.5</ele>
        <time>2017-12-10T10:16:08.000Z</time>
      </trkpt>
      <trkpt lat="47.47543" lon="6.77146">
        <ele>355.6</ele>
        <time>2017-12-10T10:16:09.000Z</time>
      </trkpt>
      <trkpt lat="47.47547" lon="6.77148">
        <ele>355.6</ele>
        <time>2017-12-10T10:16:10.000Z</time>
      </trkpt>
      <trkpt lat="47.4755" lon="6.77152">
        <ele>355.3</ele>
        <time>2017-12-10T10:16:11.000Z</time>
      </trkpt>
      <trkpt lat="47.47554" lon="6.77155">
        <ele>355.2</ele>
        <time>2017-12-10T10:16:12.000Z</time>
      </trkpt>
      <trkpt lat="47.47558" lon="6.77158">
        <ele>355.8</ele>
        <time>2017-12-10T10:16:13.000Z</time>
      </trkpt>
      <trkpt lat="47.47562" lon="6.77161">
        <ele>356.5</ele>
        <time>2017-12-10T10:16:14.000Z</time>
      </trkpt>
      <trkpt lat="47.47565" lon="6.77164">
        <ele>356.6</ele>
        <time>2017-12-10T10:16:15.000Z</time>
      </trkpt>
      <trkpt lat="47.47569" lon="6.77166">
        <ele>357</ele>
        <time>2017-12-10T10:16:16.000Z</time>
      </trkpt>
      <trkpt lat="47.47573" lon="6.77169">
        <ele>357.5</ele>
        <time>2017-12-10T10:16:17.000Z</time>
      </trkpt>
      <trkpt lat="47.47577" lon="6.77172">
        <ele>357.6</ele>
        <time>2017-12-10T10:16:18.000Z</time>
      </trkpt>
      <trkpt lat="47.4758" lon="6.77174">
        <ele>357.5</ele>
        <time>2017-12-10T10:16:19.000Z</time>
      </trkpt>
      <trkpt lat="47.47584" lon="6.77177">
        <ele>357.8</ele>
        <time>2017-12-10T10:16:20.000Z</time>
      </trkpt>
      <trkpt lat="47.47588" lon="6.77179">
        <ele>357.5</ele>
        <time>2017-12-10T10:16:21.000Z</time>
      </trkpt>
      <trkpt lat="47.47592" lon="6.77182">
        <ele>357.2</ele>
        <time>2017-12-10T10:16:22.000Z</time>
      </trkpt>
      <trkpt lat="47.47597" lon="6.77185">
        <ele>357.5</ele>
        <time>2017-12-10T10:16:23.000Z</time>
      </trkpt>
      <trkpt lat="47.476" lon="6.77187">
        <ele>357.7</ele>
        <time>2017-12-10T10:16:24.000Z</time>
      </trkpt>
      <trkpt lat="47.47603" lon="6.77188">
        <ele>357.6</ele>
        <time>2017-12-10T10:16:25.000Z</time>
      </trkpt>
      <trkpt lat="47.47606" lon="6.7719">
        <ele>357.6</ele>
        <time>2017-12-10T10:16:26.000Z</time>
      </trkpt>
      <trkpt lat="47.4761" lon="6.7719">
        <ele>357.4</ele>
        <time>2017-12-10T10:16:27.000Z</time>
      </trkpt>
      <trkpt lat="47.47614" lon="6.77189">
        <ele>357.3</ele>
        <time>2017-12-10T10:16:28.000Z</time>
      </trkpt>
      <trkpt lat="47.47617" lon="6.77187">
        <ele>357.3</ele>
        <time>2017-12-10T10:16:29.000Z</time>
      </trkpt>
      <trkpt lat="47.47619" lon="6.77183">
        <ele>357.3</ele>
        <time>2017-12-10T10:16:30.000Z</time>
      </trkpt>
      <trkpt lat="47.47621" lon="6.77179">
        <ele>357.3</ele>
        <time>2017-12-10T10:16:31.000Z</time>
      </trkpt>
      <trkpt lat="47.47623" lon="6.77175">
        <ele>357.3</ele>
        <time>2017-12-10T10:16:32.000Z</time>
      </trkpt>
      <trkpt lat="47.47624" lon="6.77171">
        <ele>357.2</ele>
        <time>2017-12-10T10:16:33.000Z</time>
      </trkpt>
      <trkpt lat="47.47625" lon="6.77166">
        <ele>357.1</ele>
        <time>2017-12-10T10:16:34.000Z</time>
      </trkpt>
      <trkpt lat="47.47626" lon="6.77163">
        <ele>357</ele>
        <time>2017-12-10T10:16:35.000Z</time>
      </trkpt>
      <trkpt lat="47.47627" lon="6.77159">
        <ele>356.9</ele>
        <time>2017-12-10T10:16:36.000Z</time>
      </trkpt>
      <trkpt lat="47.47629" lon="6.77155">
        <ele>356.9</ele>
        <time>2017-12-10T10:16:37.000Z</time>
      </trkpt>
      <trkpt lat="47.4763" lon="6.7715">
        <ele>356.9</ele>
        <time>2017-12-10T10:16:38.000Z</time>
      </trkpt>
      <trkpt lat="47.47631" lon="6.77146">
        <ele>356.8</ele>
        <time>2017-12-10T10:16:39.000Z</time>
      </trkpt>
      <trkpt lat="47.47633" lon="6.77141">
        <ele>356.8</ele>
        <time>2017-12-10T10:16:40.000Z</time>
      </trkpt>
      <trkpt lat="47.47635" lon="6.77137">
        <ele>356.7</ele>
        <time>2017-12-10T10:16:41.000Z</time>
      </trkpt>
      <trkpt lat="47.47637" lon="6.77134">
        <ele>356.7</ele>
        <time>2017-12-10T10:16:42.000Z</time>
      </trkpt>
      <trkpt lat="47.47638" lon="6.7713">
        <ele>356.6</ele>
        <time>2017-12-10T10:16:43.000Z</time>
      </trkpt>
      <trkpt lat="47.47639" lon="6.77125">
        <ele>356.6</ele>
        <time>2017-12-10T10:16:45.000Z</time>
      </trkpt>
      <trkpt lat="47.4764" lon="6.77122">
        <ele>356.5</ele>
        <time>2017-12-10T10:16:46.000Z</time>
      </trkpt>
      <trkpt lat="47.4764" lon="6.77115">
        <ele>356.2</ele>
        <time>2017-12-10T10:16:48.000Z</time>
      </trkpt>
      <trkpt lat="47.47641" lon="6.77113">
        <ele>356.1</ele>
        <time>2017-12-10T10:16:49.000Z</time>
      </trkpt>
      <trkpt lat="47.47642" lon="6.77109">
        <ele>356.1</ele>
        <time>2017-12-10T10:16:51.000Z</time>
      </trkpt>
      <trkpt lat="47.47642" lon="6.77106">
        <ele>356.1</ele>
        <time>2017-12-10T10:16:52.000Z</time>
      </trkpt>
      <trkpt lat="47.47643" lon="6.77101">
        <ele>356.1</ele>
        <time>2017-12-10T10:16:55.000Z</time>
      </trkpt>
      <trkpt lat="47.47644" lon="6.77099">
        <ele>356.2</ele>
        <time>2017-12-10T10:16:56.000Z</time>
      </trkpt>
      <trkpt lat="47.47645" lon="6.77094">
        <ele>356.1</ele>
        <time>2017-12-10T10:16:58.000Z</time>
      </trkpt>
      <trkpt lat="47.47645" lon="6.77091">
        <ele>356.1</ele>
        <time>2017-12-10T10:16:59.000Z</time>
      </trkpt>
      <trkpt lat="47.47647" lon="6.77085">
        <ele>356.1</ele>
        <time>2017-12-10T10:17:01.000Z</time>
      </trkpt>
      <trkpt lat="47.47647" lon="6.77083">
        <ele>356.1</ele>
        <time>2017-12-10T10:17:02.000Z</time>
      </trkpt>
      <trkpt lat="47.47647" lon="6.7708">
        <ele>356.2</ele>
        <time>2017-12-10T10:17:03.000Z</time>
      </trkpt>
      <trkpt lat="47.47648" lon="6.77076">
        <ele>356.2</ele>
        <time>2017-12-10T10:17:04.000Z</time>
      </trkpt>
      <trkpt lat="47.47648" lon="6.7707">
        <ele>356.2</ele>
        <time>2017-12-10T10:17:06.000Z</time>
      </trkpt>
      <trkpt lat="47.47649" lon="6.77067">
        <ele>356.1</ele>
        <time>2017-12-10T10:17:07.000Z</time>
      </trkpt>
      <trkpt lat="47.4765" lon="6.77061">
        <ele>355.9</ele>
        <time>2017-12-10T10:17:09.000Z</time>
      </trkpt>
      <trkpt lat="47.47651" lon="6.77058">
        <ele>355.8</ele>
        <time>2017-12-10T10:17:10.000Z</time>
      </trkpt>
      <trkpt lat="47.47651" lon="6.77053">
        <ele>355.8</ele>
        <time>2017-12-10T10:17:12.000Z</time>
      </trkpt>
      <trkpt lat="47.47652" lon="6.7705">
        <ele>355.8</ele>
        <time>2017-12-10T10:17:13.000Z</time>
      </trkpt>
      <trkpt lat="47.47652" lon="6.77043">
        <ele>355.8</ele>
        <time>2017-12-10T10:17:15.000Z</time>
      </trkpt>
      <trkpt lat="47.47653" lon="6.7704">
        <ele>355.8</ele>
        <time>2017-12-10T10:17:16.000Z</time>
      </trkpt>
      <trkpt lat="47.47653" lon="6.77037">
        <ele>355.7</ele>
        <time>2017-12-10T10:17:17.000Z</time>
      </trkpt>
      <trkpt lat="47.47653" lon="6.77033">
        <ele>355.7</ele>
        <time>2017-12-10T10:17:18.000Z</time>
      </trkpt>
      <trkpt lat="47.47654" lon="6.77027">
        <ele>355.6</ele>
        <time>2017-12-10T10:17:20.000Z</time>
      </trkpt>
      <trkpt lat="47.47655" lon="6.77023">
        <ele>355.5</ele>
        <time>2017-12-10T10:17:21.000Z</time>
      </trkpt>
      <trkpt lat="47.47655" lon="6.7702">
        <ele>355.4</ele>
        <time>2017-12-10T10:17:22.000Z</time>
      </trkpt>
      <trkpt lat="47.47655" lon="6.77016">
        <ele>355.3</ele>
        <time>2017-12-10T10:17:23.000Z</time>
      </trkpt>
      <trkpt lat="47.47656" lon="6.77011">
        <ele>355.3</ele>
        <time>2017-12-10T10:17:24.000Z</time>
      </trkpt>
      <trkpt lat="47.47658" lon="6.77005">
        <ele>355.2</ele>
        <time>2017-12-10T10:17:25.000Z</time>
      </trkpt>
      <trkpt lat="47.47659" lon="6.76999">
        <ele>354.8</ele>
        <time>2017-12-10T10:17:26.000Z</time>
      </trkpt>
      <trkpt lat="47.47661" lon="6.76992">
        <ele>354.3</ele>
        <time>2017-12-10T10:17:27.000Z</time>
      </trkpt>
      <trkpt lat="47.47663" lon="6.76985">
        <ele>353.9</ele>
        <time>2017-12-10T10:17:28.000Z</time>
      </trkpt>
      <trkpt lat="47.47665" lon="6.76977">
        <ele>353.5</ele>
        <time>2017-12-10T10:17:29.000Z</time>
      </trkpt>
      <trkpt lat="47.47667" lon="6.7697">
        <ele>353.2</ele>
        <time>2017-12-10T10:17:30.000Z</time>
      </trkpt>
      <trkpt lat="47.47669" lon="6.76963">
        <ele>353.2</ele>
        <time>2017-12-10T10:17:31.000Z</time>
      </trkpt>
      <trkpt lat="47.47672" lon="6.76957">
        <ele>354.3</ele>
        <time>2017-12-10T10:17:32.000Z</time>
      </trkpt>
      <trkpt lat="47.47674" lon="6.76951">
        <ele>355.3</ele>
        <time>2017-12-10T10:17:33.000Z</time>
      </trkpt>
      <trkpt lat="47.47676" lon="6.76945">
        <ele>355.9</ele>
        <time>2017-12-10T10:17:34.000Z</time>
      </trkpt>
      <trkpt lat="47.47678" lon="6.76939">
        <ele>356.8</ele>
        <time>2017-12-10T10:17:35.000Z</time>
      </trkpt>
      <trkpt lat="47.4768" lon="6.76933">
        <ele>357.7</ele>
        <time>2017-12-10T10:17:36.000Z</time>
      </trkpt>
      <trkpt lat="47.47682" lon="6.76928">
        <ele>357.7</ele>
        <time>2017-12-10T10:17:37.000Z</time>
      </trkpt>
      <trkpt lat="47.47684" lon="6.76923">
        <ele>357.8</ele>
        <time>2017-12-10T10:17:38.000Z</time>
      </trkpt>
      <trkpt lat="47.47686" lon="6.76917">
        <ele>358</ele>
        <time>2017-12-10T10:17:39.000Z</time>
      </trkpt>
      <trkpt lat="47.47689" lon="6.76911">
        <ele>358</ele>
        <time>2017-12-10T10:17:40.000Z</time>
      </trkpt>
      <trkpt lat="47.47691" lon="6.76906">
        <ele>358</ele>
        <time>2017-12-10T10:17:41.000Z</time>
      </trkpt>
      <trkpt lat="47.47693" lon="6.76902">
        <ele>357.9</ele>
        <time>2017-12-10T10:17:42.000Z</time>
      </trkpt>
      <trkpt lat="47.47695" lon="6.76898">
        <ele>358</ele>
        <time>2017-12-10T10:17:43.000Z</time>
      </trkpt>
      <trkpt lat="47.47697" lon="6.76894">
        <ele>358</ele>
        <time>2017-12-10T10:17:44.000Z</time>
      </trkpt>
      <trkpt lat="47.47699" lon="6.76889">
        <ele>358</ele>
        <time>2017-12-10T10:17:45.000Z</time>
      </trkpt>
      <trkpt lat="47.47701" lon="6.76885">
        <ele>358</ele>
        <time>2017-12-10T10:17:46.000Z</time>
      </trkpt>
      <trkpt lat="47.47702" lon="6.76882">
        <ele>358</ele>
        <time>2017-12-10T10:17:47.000Z</time>
      </trkpt>
      <trkpt lat="47.47702" lon="6.76878">
        <ele>357.9</ele>
        <time>2017-12-10T10:17:48.000Z</time>
      </trkpt>
      <trkpt lat="47.47703" lon="6.76873">
        <ele>357.8</ele>
        <time>2017-12-10T10:17:49.000Z</time>
      </trkpt>
      <trkpt lat="47.47704" lon="6.76868">
        <ele>357.7</ele>
        <time>2017-12-10T10:17:50.000Z</time>
      </trkpt>
      <trkpt lat="47.47705" lon="6.76864">
        <ele>357.6</ele>
        <time>2017-12-10T10:17:51.000Z</time>
      </trkpt>
      <trkpt lat="47.47706" lon="6.76859">
        <ele>357.6</ele>
        <time>2017-12-10T10:17:52.000Z</time>
      </trkpt>
      <trkpt lat="47.47707" lon="6.76854">
        <ele>357.6</ele>
        <time>2017-12-10T10:17:53.000Z</time>
      </trkpt>
      <trkpt lat="47.47709" lon="6.7685">
        <ele>357.5</ele>
        <time>2017-12-10T10:17:54.000Z</time>
      </trkpt>
      <trkpt lat="47.4771" lon="6.76846">
        <ele>357.4</ele>
        <time>2017-12-10T10:17:55.000Z</time>
      </trkpt>
      <trkpt lat="47.47711" lon="6.76842">
        <ele>357.3</ele>
        <time>2017-12-10T10:17:56.000Z</time>
      </trkpt>
      <trkpt lat="47.47713" lon="6.76837">
        <ele>357.2</ele>
        <time>2017-12-10T10:17:57.000Z</time>
      </trkpt>
      <trkpt lat="47.47715" lon="6.76833">
        <ele>357.1</ele>
        <time>2017-12-10T10:17:58.000Z</time>
      </trkpt>
      <trkpt lat="47.47717" lon="6.76829">
        <ele>357</ele>
        <time>2017-12-10T10:17:59.000Z</time>
      </trkpt>
      <trkpt lat="47.47719" lon="6.76824">
        <ele>356.8</ele>
        <time>2017-12-10T10:18:00.000Z</time>
      </trkpt>
      <trkpt lat="47.47721" lon="6.76819">
        <ele>356.7</ele>
        <time>2017-12-10T10:18:01.000Z</time>
      </trkpt>
      <trkpt lat="47.47724" lon="6.76815">
        <ele>356.5</ele>
        <time>2017-12-10T10:18:02.000Z</time>
      </trkpt>
      <trkpt lat="47.47727" lon="6.76812">
        <ele>356.3</ele>
        <time>2017-12-10T10:18:03.000Z</time>
      </trkpt>
      <trkpt lat="47.4773" lon="6.76809">
        <ele>356.2</ele>
        <time>2017-12-10T10:18:04.000Z</time>
      </trkpt>
      <trkpt lat="47.47733" lon="6.76806">
        <ele>356</ele>
        <time>2017-12-10T10:18:05.000Z</time>
      </trkpt>
      <trkpt lat="47.47736" lon="6.76803">
        <ele>355.8</ele>
        <time>2017-12-10T10:18:06.000Z</time>
      </trkpt>
      <trkpt lat="47.47738" lon="6.76802">
        <ele>355.6</ele>
        <time>2017-12-10T10:18:07.000Z</time>
      </trkpt>
      <trkpt lat="47.47741" lon="6.76801">
        <ele>355.4</ele>
        <time>2017-12-10T10:18:08.000Z</time>
      </trkpt>
      <trkpt lat="47.47743" lon="6.76801">
        <ele>355.2</ele>
        <time>2017-12-10T10:18:09.000Z</time>
      </trkpt>
      <trkpt lat="47.47746" lon="6.76801">
        <ele>355</ele>
        <time>2017-12-10T10:18:10.000Z</time>
      </trkpt>
      <trkpt lat="47.47749" lon="6.76802">
        <ele>354.8</ele>
        <time>2017-12-10T10:18:11.000Z</time>
      </trkpt>
      <trkpt lat="47.47751" lon="6.76802">
        <ele>354.6</ele>
        <time>2017-12-10T10:18:12.000Z</time>
      </trkpt>
      <trkpt lat="47.47753" lon="6.76802">
        <ele>354.4</ele>
        <time>2017-12-10T10:18:13.000Z</time>
      </trkpt>
      <trkpt lat="47.47755" lon="6.76801">
        <ele>354.2</ele>
        <time>2017-12-10T10:18:14.000Z</time>
      </trkpt>
      <trkpt lat="47.47759" lon="6.76801">
        <ele>354</ele>
        <time>2017-12-10T10:18:15.000Z</time>
      </trkpt>
      <trkpt lat="47.47761" lon="6.768">
        <ele>353.9</ele>
        <time>2017-12-10T10:18:16.000Z</time>
      </trkpt>
      <trkpt lat="47.47765" lon="6.76801">
        <ele>353.7</ele>
        <time>2017-12-10T10:18:17.000Z</time>
      </trkpt>
      <trkpt lat="47.47769" lon="6.76802">
        <ele>352.5</ele>
        <time>2017-12-10T10:18:18.000Z</time>
      </trkpt>
      <trkpt lat="47.47773" lon="6.76803">
        <ele>351.6</ele>
        <time>2017-12-10T10:18:19.000Z</time>
      </trkpt>
      <trkpt lat="47.47777" lon="6.76804">
        <ele>351.6</ele>
        <time>2017-12-10T10:18:20.000Z</time>
      </trkpt>
      <trkpt lat="47.4778" lon="6.76805">
        <ele>351.5</ele>
        <time>2017-12-10T10:18:21.000Z</time>
      </trkpt>
      <trkpt lat="47.47785" lon="6.76805">
        <ele>351.5</ele>
        <time>2017-12-10T10:18:22.000Z</time>
      </trkpt>
      <trkpt lat="47.47789" lon="6.76806">
        <ele>352</ele>
        <time>2017-12-10T10:18:23.000Z</time>
      </trkpt>
      <trkpt lat="47.47793" lon="6.76807">
        <ele>352.9</ele>
        <time>2017-12-10T10:18:24.000Z</time>
      </trkpt>
      <trkpt lat="47.47798" lon="6.76807">
        <ele>353.5</ele>
        <time>2017-12-10T10:18:25.000Z</time>
      </trkpt>
      <trkpt lat="47.47802" lon="6.76807">
        <ele>353.5</ele>
        <time>2017-12-10T10:18:26.000Z</time>
      </trkpt>
      <trkpt lat="47.47806" lon="6.76807">
        <ele>353.5</ele>
        <time>2017-12-10T10:18:27.000Z</time>
      </trkpt>
      <trkpt lat="47.47811" lon="6.76808">
        <ele>354</ele>
        <time>2017-12-10T10:18:28.000Z</time>
      </trkpt>
      <trkpt lat="47.47816" lon="6.76807">
        <ele>353.8</ele>
        <time>2017-12-10T10:18:29.000Z</time>
      </trkpt>
      <trkpt lat="47.47822" lon="6.76805">
        <ele>352.7</ele>
        <time>2017-12-10T10:18:30.000Z</time>
      </trkpt>
      <trkpt lat="47.47827" lon="6.76802">
        <ele>351.7</ele>
        <time>2017-12-10T10:18:31.000Z</time>
      </trkpt>
      <trkpt lat="47.47832" lon="6.76798">
        <ele>351</ele>
        <time>2017-12-10T10:18:32.000Z</time>
      </trkpt>
      <trkpt lat="47.47836" lon="6.76795">
        <ele>350.7</ele>
        <time>2017-12-10T10:18:33.000Z</time>
      </trkpt>
      <trkpt lat="47.4784" lon="6.76791">
        <ele>351</ele>
        <time>2017-12-10T10:18:34.000Z</time>
      </trkpt>
      <trkpt lat="47.47844" lon="6.76785">
        <ele>350.9</ele>
        <time>2017-12-10T10:18:35.000Z</time>
      </trkpt>
      <trkpt lat="47.47848" lon="6.7678">
        <ele>350.5</ele>
        <time>2017-12-10T10:18:36.000Z</time>
      </trkpt>
      <trkpt lat="47.47851" lon="6.76773">
        <ele>350.2</ele>
        <time>2017-12-10T10:18:37.000Z</time>
      </trkpt>
      <trkpt lat="47.47854" lon="6.76768">
        <ele>350.4</ele>
        <time>2017-12-10T10:18:38.000Z</time>
      </trkpt>
      <trkpt lat="47.47857" lon="6.76762">
        <ele>350.5</ele>
        <time>2017-12-10T10:18:39.000Z</time>
      </trkpt>
      <trkpt lat="47.47861" lon="6.76757">
        <ele>350.6</ele>
        <time>2017-12-10T10:18:40.000Z</time>
      </trkpt>
      <trkpt lat="47.47864" lon="6.76751">
        <ele>350.8</ele>
        <time>2017-12-10T10:18:41.000Z</time>
      </trkpt>
      <trkpt lat="47.47867" lon="6.76745">
        <ele>351.1</ele>
        <time>2017-12-10T10:18:42.000Z</time>
      </trkpt>
      <trkpt lat="47.4787" lon="6.76739">
        <ele>351.9</ele>
        <time>2017-12-10T10:18:43.000Z</time>
      </trkpt>
      <trkpt lat="47.47873" lon="6.76732">
        <ele>352</ele>
        <time>2017-12-10T10:18:44.000Z</time>
      </trkpt>
      <trkpt lat="47.47877" lon="6.76726">
        <ele>352.4</ele>
        <time>2017-12-10T10:18:45.000Z</time>
      </trkpt>
      <trkpt lat="47.4788" lon="6.7672">
        <ele>353.1</ele>
        <time>2017-12-10T10:18:46.000Z</time>
      </trkpt>
      <trkpt lat="47.47884" lon="6.76713">
        <ele>353.6</ele>
        <time>2017-12-10T10:18:47.000Z</time>
      </trkpt>
      <trkpt lat="47.47887" lon="6.76705">
        <ele>354</ele>
        <time>2017-12-10T10:18:48.000Z</time>
      </trkpt>
      <trkpt lat="47.4789" lon="6.76698">
        <ele>354.6</ele>
        <time>2017-12-10T10:18:49.000Z</time>
      </trkpt>
      <trkpt lat="47.47894" lon="6.7669">
        <ele>354.7</ele>
        <time>2017-12-10T10:18:50.000Z</time>
      </trkpt>
      <trkpt lat="47.47897" lon="6.76683">
        <ele>354.8</ele>
        <time>2017-12-10T10:18:51.000Z</time>
      </trkpt>
      <trkpt lat="47.47901" lon="6.76677">
        <ele>355.3</ele>
        <time>2017-12-10T10:18:52.000Z</time>
      </trkpt>
      <trkpt lat="47.47905" lon="6.7667">
        <ele>355.5</ele>
        <time>2017-12-10T10:18:53.000Z</time>
      </trkpt>
      <trkpt lat="47.47908" lon="6.76665">
        <ele>355.8</ele>
        <time>2017-12-10T10:18:54.000Z</time>
      </trkpt>
      <trkpt lat="47.47912" lon="6.76661">
        <ele>355.7</ele>
        <time>2017-12-10T10:18:55.000Z</time>
      </trkpt>
      <trkpt lat="47.47916" lon="6.76656">
        <ele>355</ele>
        <time>2017-12-10T10:18:56.000Z</time>
      </trkpt>
      <trkpt lat="47.47919" lon="6.76653">
        <ele>354.2</ele>
        <time>2017-12-10T10:18:57.000Z</time>
      </trkpt>
      <trkpt lat="47.47923" lon="6.76651">
        <ele>354.2</ele>
        <time>2017-12-10T10:18:58.000Z</time>
      </trkpt>
      <trkpt lat="47.47925" lon="6.76651">
        <ele>354.1</ele>
        <time>2017-12-10T10:18:59.000Z</time>
      </trkpt>
      <trkpt lat="47.47928" lon="6.7665">
        <ele>354</ele>
        <time>2017-12-10T10:19:00.000Z</time>
      </trkpt>
      <trkpt lat="47.47931" lon="6.76647">
        <ele>353.9</ele>
        <time>2017-12-10T10:19:01.000Z</time>
      </trkpt>
      <trkpt lat="47.47934" lon="6.76645">
        <ele>353.8</ele>
        <time>2017-12-10T10:19:02.000Z</time>
      </trkpt>
      <trkpt lat="47.47937" lon="6.76644">
        <ele>353.7</ele>
        <time>2017-12-10T10:19:03.000Z</time>
      </trkpt>
      <trkpt lat="47.4794" lon="6.76642">
        <ele>353.6</ele>
        <time>2017-12-10T10:19:04.000Z</time>
      </trkpt>
      <trkpt lat="47.47942" lon="6.76641">
        <ele>353.4</ele>
        <time>2017-12-10T10:19:05.000Z</time>
      </trkpt>
      <trkpt lat="47.47945" lon="6.7664">
        <ele>353.2</ele>
        <time>2017-12-10T10:19:06.000Z</time>
      </trkpt>
      <trkpt lat="47.47947" lon="6.76638">
        <ele>353.1</ele>
        <time>2017-12-10T10:19:07.000Z</time>
      </trkpt>
      <trkpt lat="47.4795" lon="6.76636">
        <ele>353</ele>
        <time>2017-12-10T10:19:08.000Z</time>
      </trkpt>
      <trkpt lat="47.47954" lon="6.76634">
        <ele>352.8</ele>
        <time>2017-12-10T10:19:09.000Z</time>
      </trkpt>
      <trkpt lat="47.47957" lon="6.76632">
        <ele>352.7</ele>
        <time>2017-12-10T10:19:10.000Z</time>
      </trkpt>
      <trkpt lat="47.4796" lon="6.7663">
        <ele>352.6</ele>
        <time>2017-12-10T10:19:11.000Z</time>
      </trkpt>
      <trkpt lat="47.47963" lon="6.76629">
        <ele>352.4</ele>
        <time>2017-12-10T10:19:12.000Z</time>
      </trkpt>
      <trkpt lat="47.47965" lon="6.76627">
        <ele>352.3</ele>
        <time>2017-12-10T10:19:13.000Z</time>
      </trkpt>
      <trkpt lat="47.47968" lon="6.76625">
        <ele>352.2</ele>
        <time>2017-12-10T10:19:14.000Z</time>
      </trkpt>
      <trkpt lat="47.47971" lon="6.76623">
        <ele>352.2</ele>
        <time>2017-12-10T10:19:15.000Z</time>
      </trkpt>
      <trkpt lat="47.47974" lon="6.76621">
        <ele>352.1</ele>
        <time>2017-12-10T10:19:16.000Z</time>
      </trkpt>
      <trkpt lat="47.47978" lon="6.76619">
        <ele>352</ele>
        <time>2017-12-10T10:19:17.000Z</time>
      </trkpt>
      <trkpt lat="47.47981" lon="6.76616">
        <ele>351.9</ele>
        <time>2017-12-10T10:19:18.000Z</time>
      </trkpt>
      <trkpt lat="47.47985" lon="6.76614">
        <ele>351.8</ele>
        <time>2017-12-10T10:19:19.000Z</time>
      </trkpt>
      <trkpt lat="47.47988" lon="6.76612">
        <ele>351.7</ele>
        <time>2017-12-10T10:19:20.000Z</time>
      </trkpt>
      <trkpt lat="47.47992" lon="6.76611">
        <ele>351.6</ele>
        <time>2017-12-10T10:19:21.000Z</time>
      </trkpt>
      <trkpt lat="47.47995" lon="6.76609">
        <ele>351.3</ele>
        <time>2017-12-10T10:19:22.000Z</time>
      </trkpt>
      <trkpt lat="47.47998" lon="6.76607">
        <ele>351.3</ele>
        <time>2017-12-10T10:19:23.000Z</time>
      </trkpt>
      <trkpt lat="47.48001" lon="6.76606">
        <ele>351.2</ele>
        <time>2017-12-10T10:19:24.000Z</time>
      </trkpt>
      <trkpt lat="47.48004" lon="6.76604">
        <ele>351.2</ele>
        <time>2017-12-10T10:19:25.000Z</time>
      </trkpt>
      <trkpt lat="47.48007" lon="6.76602">
        <ele>351.8</ele>
        <time>2017-12-10T10:19:26.000Z</time>
      </trkpt>
      <trkpt lat="47.4801" lon="6.766">
        <ele>351.5</ele>
        <time>2017-12-10T10:19:27.000Z</time>
      </trkpt>
      <trkpt lat="47.48014" lon="6.76597">
        <ele>351</ele>
        <time>2017-12-10T10:19:28.000Z</time>
      </trkpt>
      <trkpt lat="47.48017" lon="6.76594">
        <ele>350.8</ele>
        <time>2017-12-10T10:19:29.000Z</time>
      </trkpt>
      <trkpt lat="47.4802" lon="6.76592">
        <ele>350.7</ele>
        <time>2017-12-10T10:19:30.000Z</time>
      </trkpt>
      <trkpt lat="47.48024" lon="6.76589">
        <ele>350.1</ele>
        <time>2017-12-10T10:19:31.000Z</time>
      </trkpt>
      <trkpt lat="47.48028" lon="6.76586">
        <ele>349.3</ele>
        <time>2017-12-10T10:19:32.000Z</time>
      </trkpt>
      <trkpt lat="47.48032" lon="6.76583">
        <ele>348.9</ele>
        <time>2017-12-10T10:19:33.000Z</time>
      </trkpt>
      <trkpt lat="47.48035" lon="6.76579">
        <ele>348.4</ele>
        <time>2017-12-10T10:19:34.000Z</time>
      </trkpt>
      <trkpt lat="47.4804" lon="6.76575">
        <ele>348.5</ele>
        <time>2017-12-10T10:19:35.000Z</time>
      </trkpt>
      <trkpt lat="47.48044" lon="6.76572">
        <ele>348.1</ele>
        <time>2017-12-10T10:19:36.000Z</time>
      </trkpt>
      <trkpt lat="47.48048" lon="6.76569">
        <ele>348.1</ele>
        <time>2017-12-10T10:19:37.000Z</time>
      </trkpt>
      <trkpt lat="47.48052" lon="6.76565">
        <ele>347.5</ele>
        <time>2017-12-10T10:19:38.000Z</time>
      </trkpt>
      <trkpt lat="47.48056" lon="6.76562">
        <ele>347</ele>
        <time>2017-12-10T10:19:39.000Z</time>
      </trkpt>
      <trkpt lat="47.4806" lon="6.76559">
        <ele>346.8</ele>
        <time>2017-12-10T10:19:40.000Z</time>
      </trkpt>
      <trkpt lat="47.48063" lon="6.76556">
        <ele>346.4</ele>
        <time>2017-12-10T10:19:41.000Z</time>
      </trkpt>
      <trkpt lat="47.48066" lon="6.76552">
        <ele>346</ele>
        <time>2017-12-10T10:19:42.000Z</time>
      </trkpt>
      <trkpt lat="47.4807" lon="6.7655">
        <ele>346</ele>
        <time>2017-12-10T10:19:43.000Z</time>
      </trkpt>
      <trkpt lat="47.48073" lon="6.76547">
        <ele>346</ele>
        <time>2017-12-10T10:19:44.000Z</time>
      </trkpt>
      <trkpt lat="47.48076" lon="6.76544">
        <ele>346.1</ele>
        <time>2017-12-10T10:19:45.000Z</time>
      </trkpt>
      <trkpt lat="47.4808" lon="6.76541">
        <ele>346.3</ele>
        <time>2017-12-10T10:19:46.000Z</time>
      </trkpt>
      <trkpt lat="47.48083" lon="6.76539">
        <ele>346.4</ele>
        <time>2017-12-10T10:19:47.000Z</time>
      </trkpt>
      <trkpt lat="47.48087" lon="6.76536">
        <ele>346.4</ele>
        <time>2017-12-10T10:19:48.000Z</time>
      </trkpt>
      <trkpt lat="47.48091" lon="6.76534">
        <ele>346.4</ele>
        <time>2017-12-10T10:19:49.000Z</time>
      </trkpt>
      <trkpt lat="47.48095" lon="6.76531">
        <ele>346.4</ele>
        <time>2017-12-10T10:19:50.000Z</time>
      </trkpt>
      <trkpt lat="47.48098" lon="6.76528">
        <ele>346.4</ele>
        <time>2017-12-10T10:19:51.000Z</time>
      </trkpt>
      <trkpt lat="47.48101" lon="6.76525">
        <ele>346.5</ele>
        <time>2017-12-10T10:19:52.000Z</time>
      </trkpt>
      <trkpt lat="47.48103" lon="6.76523">
        <ele>346.6</ele>
        <time>2017-12-10T10:19:53.000Z</time>
      </trkpt>
      <trkpt lat="47.48107" lon="6.7652">
        <ele>346.6</ele>
        <time>2017-12-10T10:19:55.000Z</time>
      </trkpt>
      <trkpt lat="47.48108" lon="6.76519">
        <ele>346.6</ele>
        <time>2017-12-10T10:19:56.000Z</time>
      </trkpt>
      <trkpt lat="47.48111" lon="6.76523">
        <ele>346.8</ele>
        <time>2017-12-10T10:19:59.000Z</time>
      </trkpt>
      <trkpt lat="47.48112" lon="6.76526">
        <ele>346.9</ele>
        <time>2017-12-10T10:20:00.000Z</time>
      </trkpt>
      <trkpt lat="47.48113" lon="6.76531">
        <ele>347.2</ele>
        <time>2017-12-10T10:20:01.000Z</time>
      </trkpt>
      <trkpt lat="47.48115" lon="6.76535">
        <ele>347.3</ele>
        <time>2017-12-10T10:20:02.000Z</time>
      </trkpt>
      <trkpt lat="47.48118" lon="6.76537">
        <ele>347.5</ele>
        <time>2017-12-10T10:20:03.000Z</time>
      </trkpt>
      <trkpt lat="47.48121" lon="6.76539">
        <ele>347.7</ele>
        <time>2017-12-10T10:20:04.000Z</time>
      </trkpt>
      <trkpt lat="47.48123" lon="6.76543">
        <ele>348</ele>
        <time>2017-12-10T10:20:05.000Z</time>
      </trkpt>
      <trkpt lat="47.48121" lon="6.76547">
        <ele>348.2</ele>
        <time>2017-12-10T10:20:06.000Z</time>
      </trkpt>
      <trkpt lat="47.48119" lon="6.76551">
        <ele>348.3</ele>
        <time>2017-12-10T10:20:07.000Z</time>
      </trkpt>
      <trkpt lat="47.48116" lon="6.76555">
        <ele>349.7</ele>
        <time>2017-12-10T10:20:08.000Z</time>
      </trkpt>
      <trkpt lat="47.48113" lon="6.76559">
        <ele>351.3</ele>
        <time>2017-12-10T10:20:09.000Z</time>
      </trkpt>
      <trkpt lat="47.4811" lon="6.76564">
        <ele>351.8</ele>
        <time>2017-12-10T10:20:09.999Z</time>
      </trkpt>
      <trkpt lat="47.48108" lon="6.76569">
        <ele>353.1</ele>
        <time>2017-12-10T10:20:10.999Z</time>
      </trkpt>
      <trkpt lat="47.48106" lon="6.76573">
        <ele>353.2</ele>
        <time>2017-12-10T10:20:11.999Z</time>
      </trkpt>
      <trkpt lat="47.48104" lon="6.76578">
        <ele>353.3</ele>
        <time>2017-12-10T10:20:12.999Z</time>
      </trkpt>
      <trkpt lat="47.48102" lon="6.76583">
        <ele>353.3</ele>
        <time>2017-12-10T10:20:13.999Z</time>
      </trkpt>
      <trkpt lat="47.48101" lon="6.76589">
        <ele>353.4</ele>
        <time>2017-12-10T10:20:14.999Z</time>
      </trkpt>
      <trkpt lat="47.481" lon="6.76594">
        <ele>353.4</ele>
        <time>2017-12-10T10:20:15.999Z</time>
      </trkpt>
      <trkpt lat="47.48099" lon="6.76601">
        <ele>353.5</ele>
        <time>2017-12-10T10:20:16.999Z</time>
      </trkpt>
      <trkpt lat="47.48099" lon="6.76609">
        <ele>354.4</ele>
        <time>2017-12-10T10:20:17.999Z</time>
      </trkpt>
      <trkpt lat="47.48099" lon="6.76614">
        <ele>354.5</ele>
        <time>2017-12-10T10:20:18.999Z</time>
      </trkpt>
      <trkpt lat="47.48101" lon="6.76619">
        <ele>354.5</ele>
        <time>2017-12-10T10:20:19.999Z</time>
      </trkpt>
      <trkpt lat="47.48102" lon="6.76623">
        <ele>354.6</ele>
        <time>2017-12-10T10:20:20.999Z</time>
      </trkpt>
      <trkpt lat="47.48104" lon="6.76627">
        <ele>354.6</ele>
        <time>2017-12-10T10:20:21.999Z</time>
      </trkpt>
      <trkpt lat="47.48106" lon="6.76631">
        <ele>354.6</ele>
        <time>2017-12-10T10:20:22.999Z</time>
      </trkpt>
      <trkpt lat="47.48109" lon="6.76638">
        <ele>354.6</ele>
        <time>2017-12-10T10:20:23.999Z</time>
      </trkpt>
      <trkpt lat="47.48111" lon="6.76643">
        <ele>354.6</ele>
        <time>2017-12-10T10:20:24.999Z</time>
      </trkpt>
      <trkpt lat="47.48113" lon="6.76647">
        <ele>355.2</ele>
        <time>2017-12-10T10:20:25.999Z</time>
      </trkpt>
      <trkpt lat="47.48116" lon="6.76651">
        <ele>355.4</ele>
        <time>2017-12-10T10:20:26.999Z</time>
      </trkpt>
      <trkpt lat="47.48119" lon="6.76656">
        <ele>355.2</ele>
        <time>2017-12-10T10:20:27.999Z</time>
      </trkpt>
      <trkpt lat="47.48122" lon="6.7666">
        <ele>355.8</ele>
        <time>2017-12-10T10:20:28.999Z</time>
      </trkpt>
      <trkpt lat="47.48126" lon="6.76667">
        <ele>355.4</ele>
        <time>2017-12-10T10:20:29.999Z</time>
      </trkpt>
      <trkpt lat="47.48129" lon="6.76672">
        <ele>355.8</ele>
        <time>2017-12-10T10:20:30.999Z</time>
      </trkpt>
      <trkpt lat="47.48132" lon="6.76676">
        <ele>356.8</ele>
        <time>2017-12-10T10:20:31.999Z</time>
      </trkpt>
      <trkpt lat="47.48135" lon="6.76681">
        <ele>357.9</ele>
        <time>2017-12-10T10:20:32.999Z</time>
      </trkpt>
      <trkpt lat="47.48139" lon="6.76686">
        <ele>358.1</ele>
        <time>2017-12-10T10:20:33.999Z</time>
      </trkpt>
      <trkpt lat="47.48141" lon="6.76693">
        <ele>358.6</ele>
        <time>2017-12-10T10:20:34.999Z</time>
      </trkpt>
      <trkpt lat="47.48142" lon="6.767">
        <ele>358.1</ele>
        <time>2017-12-10T10:20:35.999Z</time>
      </trkpt>
      <trkpt lat="47.48145" lon="6.76707">
        <ele>357.4</ele>
        <time>2017-12-10T10:20:36.999Z</time>
      </trkpt>
      <trkpt lat="47.48148" lon="6.76714">
        <ele>357.1</ele>
        <time>2017-12-10T10:20:37.999Z</time>
      </trkpt>
      <trkpt lat="47.4815" lon="6.76719">
        <ele>356.2</ele>
        <time>2017-12-10T10:20:38.999Z</time>
      </trkpt>
      <trkpt lat="47.48152" lon="6.76726">
        <ele>355.2</ele>
        <time>2017-12-10T10:20:39.999Z</time>
      </trkpt>
      <trkpt lat="47.48154" lon="6.76731">
        <ele>354.5</ele>
        <time>2017-12-10T10:20:40.999Z</time>
      </trkpt>
      <trkpt lat="47.48157" lon="6.76736">
        <ele>354.2</ele>
        <time>2017-12-10T10:20:41.999Z</time>
      </trkpt>
      <trkpt lat="47.48159" lon="6.76741">
        <ele>353.7</ele>
        <time>2017-12-10T10:20:42.999Z</time>
      </trkpt>
      <trkpt lat="47.4816" lon="6.76744">
        <ele>353.7</ele>
        <time>2017-12-10T10:20:43.999Z</time>
      </trkpt>
      <trkpt lat="47.48164" lon="6.76748">
        <ele>353.4</ele>
        <time>2017-12-10T10:20:44.999Z</time>
      </trkpt>
      <trkpt lat="47.48168" lon="6.76751">
        <ele>353.2</ele>
        <time>2017-12-10T10:20:45.999Z</time>
      </trkpt>
      <trkpt lat="47.48171" lon="6.76755">
        <ele>353.2</ele>
        <time>2017-12-10T10:20:46.999Z</time>
      </trkpt>
      <trkpt lat="47.48174" lon="6.76759">
        <ele>353.2</ele>
        <time>2017-12-10T10:20:47.999Z</time>
      </trkpt>
      <trkpt lat="47.48177" lon="6.76762">
        <ele>353.2</ele>
        <time>2017-12-10T10:20:48.999Z</time>
      </trkpt>
      <trkpt lat="47.48181" lon="6.76766">
        <ele>353.1</ele>
        <time>2017-12-10T10:20:49.999Z</time>
      </trkpt>
      <trkpt lat="47.48184" lon="6.7677">
        <ele>352.4</ele>
        <time>2017-12-10T10:20:50.999Z</time>
      </trkpt>
      <trkpt lat="47.48187" lon="6.76773">
        <ele>352.4</ele>
        <time>2017-12-10T10:20:51.999Z</time>
      </trkpt>
      <trkpt lat="47.48191" lon="6.76776">
        <ele>351.9</ele>
        <time>2017-12-10T10:20:52.999Z</time>
      </trkpt>
      <trkpt lat="47.48194" lon="6.76778">
        <ele>350.4</ele>
        <time>2017-12-10T10:20:53.999Z</time>
      </trkpt>
      <trkpt lat="47.48198" lon="6.76781">
        <ele>349.8</ele>
        <time>2017-12-10T10:20:54.999Z</time>
      </trkpt>
      <trkpt lat="47.48201" lon="6.76783">
        <ele>349</ele>
        <time>2017-12-10T10:20:55.999Z</time>
      </trkpt>
      <trkpt lat="47.48205" lon="6.76785">
        <ele>348.3</ele>
        <time>2017-12-10T10:20:56.999Z</time>
      </trkpt>
      <trkpt lat="47.48208" lon="6.76787">
        <ele>348.8</ele>
        <time>2017-12-10T10:20:57.999Z</time>
      </trkpt>
      <trkpt lat="47.48211" lon="6.76789">
        <ele>348.3</ele>
        <time>2017-12-10T10:20:58.999Z</time>
      </trkpt>
      <trkpt lat="47.48214" lon="6.76791">
        <ele>348.3</ele>
        <time>2017-12-10T10:20:59.999Z</time>
      </trkpt>
      <trkpt lat="47.48218" lon="6.76793">
        <ele>348.5</ele>
        <time>2017-12-10T10:21:00.999Z</time>
      </trkpt>
      <trkpt lat="47.48221" lon="6.76796">
        <ele>348.8</ele>
        <time>2017-12-10T10:21:01.999Z</time>
      </trkpt>
      <trkpt lat="47.48225" lon="6.76798">
        <ele>348.9</ele>
        <time>2017-12-10T10:21:02.999Z</time>
      </trkpt>
      <trkpt lat="47.48229" lon="6.768">
        <ele>349.7</ele>
        <time>2017-12-10T10:21:03.999Z</time>
      </trkpt>
      <trkpt lat="47.48232" lon="6.76802">
        <ele>349.6</ele>
        <time>2017-12-10T10:21:04.999Z</time>
      </trkpt>
      <trkpt lat="47.48236" lon="6.76804">
        <ele>349.9</ele>
        <time>2017-12-10T10:21:05.999Z</time>
      </trkpt>
      <trkpt lat="47.48239" lon="6.76807">
        <ele>350.3</ele>
        <time>2017-12-10T10:21:06.999Z</time>
      </trkpt>
      <trkpt lat="47.48243" lon="6.7681">
        <ele>350.9</ele>
        <time>2017-12-10T10:21:07.999Z</time>
      </trkpt>
      <trkpt lat="47.48246" lon="6.76813">
        <ele>351.6</ele>
        <time>2017-12-10T10:21:08.999Z</time>
      </trkpt>
      <trkpt lat="47.4825" lon="6.76816">
        <ele>352.1</ele>
        <time>2017-12-10T10:21:09.999Z</time>
      </trkpt>
      <trkpt lat="47.48254" lon="6.76819">
        <ele>351.9</ele>
        <time>2017-12-10T10:21:10.999Z</time>
      </trkpt>
      <trkpt lat="47.48257" lon="6.76824">
        <ele>350.8</ele>
        <time>2017-12-10T10:21:11.999Z</time>
      </trkpt>
      <trkpt lat="47.4826" lon="6.76828">
        <ele>350.5</ele>
        <time>2017-12-10T10:21:12.999Z</time>
      </trkpt>
      <trkpt lat="47.48263" lon="6.76832">
        <ele>350.2</ele>
        <time>2017-12-10T10:21:13.999Z</time>
      </trkpt>
      <trkpt lat="47.48265" lon="6.76836">
        <ele>350.1</ele>
        <time>2017-12-10T10:21:14.999Z</time>
      </trkpt>
      <trkpt lat="47.48269" lon="6.76839">
        <ele>349.4</ele>
        <time>2017-12-10T10:21:15.999Z</time>
      </trkpt>
      <trkpt lat="47.48272" lon="6.76842">
        <ele>348.1</ele>
        <time>2017-12-10T10:21:16.999Z</time>
      </trkpt>
      <trkpt lat="47.48274" lon="6.76846">
        <ele>347.1</ele>
        <time>2017-12-10T10:21:17.999Z</time>
      </trkpt>
      <trkpt lat="47.48277" lon="6.76849">
        <ele>346.5</ele>
        <time>2017-12-10T10:21:18.999Z</time>
      </trkpt>
      <trkpt lat="47.48281" lon="6.76852">
        <ele>345.9</ele>
        <time>2017-12-10T10:21:19.999Z</time>
      </trkpt>
      <trkpt lat="47.48284" lon="6.76856">
        <ele>344.9</ele>
        <time>2017-12-10T10:21:20.999Z</time>
      </trkpt>
      <trkpt lat="47.48287" lon="6.76861">
        <ele>344.3</ele>
        <time>2017-12-10T10:21:21.999Z</time>
      </trkpt>
      <trkpt lat="47.48292" lon="6.76867">
        <ele>343.9</ele>
        <time>2017-12-10T10:21:22.999Z</time>
      </trkpt>
      <trkpt lat="47.48296" lon="6.76872">
        <ele>344.2</ele>
        <time>2017-12-10T10:21:23.999Z</time>
      </trkpt>
      <trkpt lat="47.48299" lon="6.76875">
        <ele>344.1</ele>
        <time>2017-12-10T10:21:24.999Z</time>
      </trkpt>
      <trkpt lat="47.48303" lon="6.76878">
        <ele>343.9</ele>
        <time>2017-12-10T10:21:25.999Z</time>
      </trkpt>
      <trkpt lat="47.48306" lon="6.76881">
        <ele>344.8</ele>
        <time>2017-12-10T10:21:26.999Z</time>
      </trkpt>
      <trkpt lat="47.4831" lon="6.76884">
        <ele>344.6</ele>
        <time>2017-12-10T10:21:27.999Z</time>
      </trkpt>
      <trkpt lat="47.48314" lon="6.76888">
        <ele>344.1</ele>
        <time>2017-12-10T10:21:28.999Z</time>
      </trkpt>
      <trkpt lat="47.48318" lon="6.76891">
        <ele>344.4</ele>
        <time>2017-12-10T10:21:29.999Z</time>
      </trkpt>
      <trkpt lat="47.48321" lon="6.76895">
        <ele>345.2</ele>
        <time>2017-12-10T10:21:30.999Z</time>
      </trkpt>
      <trkpt lat="47.48325" lon="6.76899">
        <ele>345.3</ele>
        <time>2017-12-10T10:21:31.999Z</time>
      </trkpt>
      <trkpt lat="47.48329" lon="6.76902">
        <ele>345.1</ele>
        <time>2017-12-10T10:21:32.999Z</time>
      </trkpt>
      <trkpt lat="47.48332" lon="6.76905">
        <ele>345.3</ele>
        <time>2017-12-10T10:21:33.999Z</time>
      </trkpt>
      <trkpt lat="47.48336" lon="6.76908">
        <ele>346.3</ele>
        <time>2017-12-10T10:21:34.999Z</time>
      </trkpt>
      <trkpt lat="47.48339" lon="6.76911">
        <ele>347.3</ele>
        <time>2017-12-10T10:21:35.999Z</time>
      </trkpt>
      <trkpt lat="47.48343" lon="6.76914">
        <ele>347.7</ele>
        <time>2017-12-10T10:21:36.999Z</time>
      </trkpt>
      <trkpt lat="47.48347" lon="6.76917">
        <ele>347.7</ele>
        <time>2017-12-10T10:21:37.999Z</time>
      </trkpt>
      <trkpt lat="47.4835" lon="6.76919">
        <ele>347.8</ele>
        <time>2017-12-10T10:21:38.999Z</time>
      </trkpt>
      <trkpt lat="47.48354" lon="6.76922">
        <ele>347.6</ele>
        <time>2017-12-10T10:21:39.999Z</time>
      </trkpt>
      <trkpt lat="47.48357" lon="6.76924">
        <ele>347.5</ele>
        <time>2017-12-10T10:21:40.999Z</time>
      </trkpt>
      <trkpt lat="47.48361" lon="6.76927">
        <ele>347.3</ele>
        <time>2017-12-10T10:21:41.999Z</time>
      </trkpt>
      <trkpt lat="47.48364" lon="6.76929">
        <ele>347.3</ele>
        <time>2017-12-10T10:21:42.999Z</time>
      </trkpt>
      <trkpt lat="47.48368" lon="6.76931">
        <ele>347.1</ele>
        <time>2017-12-10T10:21:43.999Z</time>
      </trkpt>
      <trkpt lat="47.48372" lon="6.76934">
        <ele>346.6</ele>
        <time>2017-12-10T10:21:44.999Z</time>
      </trkpt>
      <trkpt lat="47.48376" lon="6.76937">
        <ele>346.3</ele>
        <time>2017-12-10T10:21:45.999Z</time>
      </trkpt>
      <trkpt lat="47.48379" lon="6.76939">
        <ele>346.3</ele>
        <time>2017-12-10T10:21:46.999Z</time>
      </trkpt>
      <trkpt lat="47.48382" lon="6.76941">
        <ele>347.8</ele>
        <time>2017-12-10T10:21:47.999Z</time>
      </trkpt>
      <trkpt lat="47.48386" lon="6.76942">
        <ele>350.8</ele>
        <time>2017-12-10T10:21:48.999Z</time>
      </trkpt>
      <trkpt lat="47.48388" lon="6.76944">
        <ele>353.8</ele>
        <time>2017-12-10T10:21:49.999Z</time>
      </trkpt>
      <trkpt lat="47.48392" lon="6.76946">
        <ele>357.3</ele>
        <time>2017-12-10T10:21:50.999Z</time>
      </trkpt>
      <trkpt lat="47.48395" lon="6.76948">
        <ele>360.3</ele>
        <time>2017-12-10T10:21:51.999Z</time>
      </trkpt>
      <trkpt lat="47.48399" lon="6.7695">
        <ele>362.5</ele>
        <time>2017-12-10T10:21:52.999Z</time>
      </trkpt>
      <trkpt lat="47.48404" lon="6.76952">
        <ele>363.3</ele>
        <time>2017-12-10T10:21:53.999Z</time>
      </trkpt>
      <trkpt lat="47.48407" lon="6.76954">
        <ele>363.3</ele>
        <time>2017-12-10T10:21:54.999Z</time>
      </trkpt>
      <trkpt lat="47.48414" lon="6.76957">
        <ele>363.2</ele>
        <time>2017-12-10T10:21:55.999Z</time>
      </trkpt>
      <trkpt lat="47.48418" lon="6.76959">
        <ele>362.4</ele>
        <time>2017-12-10T10:21:56.999Z</time>
      </trkpt>
      <trkpt lat="47.48421" lon="6.7696">
        <ele>362.3</ele>
        <time>2017-12-10T10:21:57.999Z</time>
      </trkpt>
      <trkpt lat="47.48424" lon="6.76963">
        <ele>362.3</ele>
        <time>2017-12-10T10:21:58.999Z</time>
      </trkpt>
      <trkpt lat="47.48426" lon="6.76965">
        <ele>362.3</ele>
        <time>2017-12-10T10:21:59.999Z</time>
      </trkpt>
      <trkpt lat="47.4843" lon="6.76967">
        <ele>362.6</ele>
        <time>2017-12-10T10:22:00.999Z</time>
      </trkpt>
      <trkpt lat="47.48434" lon="6.76969">
        <ele>362.2</ele>
        <time>2017-12-10T10:22:01.999Z</time>
      </trkpt>
      <trkpt lat="47.4844" lon="6.76973">
        <ele>362</ele>
        <time>2017-12-10T10:22:02.999Z</time>
      </trkpt>
      <trkpt lat="47.48443" lon="6.76976">
        <ele>360.7</ele>
        <time>2017-12-10T10:22:03.999Z</time>
      </trkpt>
      <trkpt lat="47.48447" lon="6.76978">
        <ele>358.9</ele>
        <time>2017-12-10T10:22:04.999Z</time>
      </trkpt>
      <trkpt lat="47.4845" lon="6.76981">
        <ele>357.4</ele>
        <time>2017-12-10T10:22:05.999Z</time>
      </trkpt>
      <trkpt lat="47.48454" lon="6.76983">
        <ele>357</ele>
        <time>2017-12-10T10:22:06.999Z</time>
      </trkpt>
      <trkpt lat="47.48458" lon="6.76986">
        <ele>356</ele>
        <time>2017-12-10T10:22:07.999Z</time>
      </trkpt>
      <trkpt lat="47.48462" lon="6.76988">
        <ele>355.7</ele>
        <time>2017-12-10T10:22:08.999Z</time>
      </trkpt>
      <trkpt lat="47.48465" lon="6.76991">
        <ele>355.5</ele>
        <time>2017-12-10T10:22:09.999Z</time>
      </trkpt>
      <trkpt lat="47.48469" lon="6.76994">
        <ele>355</ele>
        <time>2017-12-10T10:22:10.999Z</time>
      </trkpt>
      <trkpt lat="47.48472" lon="6.76997">
        <ele>354.9</ele>
        <time>2017-12-10T10:22:11.999Z</time>
      </trkpt>
      <trkpt lat="47.48476" lon="6.76999">
        <ele>353.9</ele>
        <time>2017-12-10T10:22:12.999Z</time>
      </trkpt>
      <trkpt lat="47.48479" lon="6.77001">
        <ele>353.6</ele>
        <time>2017-12-10T10:22:13.999Z</time>
      </trkpt>
      <trkpt lat="47.48483" lon="6.77002">
        <ele>353.5</ele>
        <time>2017-12-10T10:22:14.999Z</time>
      </trkpt>
      <trkpt lat="47.48486" lon="6.77003">
        <ele>353.6</ele>
        <time>2017-12-10T10:22:15.999Z</time>
      </trkpt>
      <trkpt lat="47.48489" lon="6.77005">
        <ele>353.6</ele>
        <time>2017-12-10T10:22:16.999Z</time>
      </trkpt>
      <trkpt lat="47.48492" lon="6.77006">
        <ele>353.7</ele>
        <time>2017-12-10T10:22:17.999Z</time>
      </trkpt>
      <trkpt lat="47.48495" lon="6.77008">
        <ele>354.2</ele>
        <time>2017-12-10T10:22:18.999Z</time>
      </trkpt>
      <trkpt lat="47.48498" lon="6.7701">
        <ele>354.3</ele>
        <time>2017-12-10T10:22:19.999Z</time>
      </trkpt>
      <trkpt lat="47.48501" lon="6.77013">
        <ele>354.3</ele>
        <time>2017-12-10T10:22:20.999Z</time>
      </trkpt>
      <trkpt lat="47.48505" lon="6.77016">
        <ele>354.3</ele>
        <time>2017-12-10T10:22:21.999Z</time>
      </trkpt>
      <trkpt lat="47.48508" lon="6.77018">
        <ele>354.3</ele>
        <time>2017-12-10T10:22:22.999Z</time>
      </trkpt>
      <trkpt lat="47.48514" lon="6.77022">
        <ele>353.5</ele>
        <time>2017-12-10T10:22:23.999Z</time>
      </trkpt>
      <trkpt lat="47.48517" lon="6.77025">
        <ele>353.5</ele>
        <time>2017-12-10T10:22:24.999Z</time>
      </trkpt>
      <trkpt lat="47.4852" lon="6.77028">
        <ele>353.6</ele>
        <time>2017-12-10T10:22:25.999Z</time>
      </trkpt>
      <trkpt lat="47.48524" lon="6.77031">
        <ele>354.2</ele>
        <time>2017-12-10T10:22:26.999Z</time>
      </trkpt>
      <trkpt lat="47.48527" lon="6.77034">
        <ele>354.2</ele>
        <time>2017-12-10T10:22:27.999Z</time>
      </trkpt>
      <trkpt lat="47.4853" lon="6.77036">
        <ele>354.2</ele>
        <time>2017-12-10T10:22:28.999Z</time>
      </trkpt>
      <trkpt lat="47.48533" lon="6.77039">
        <ele>354.1</ele>
        <time>2017-12-10T10:22:29.999Z</time>
      </trkpt>
      <trkpt lat="47.48537" lon="6.77041">
        <ele>353.6</ele>
        <time>2017-12-10T10:22:30.999Z</time>
      </trkpt>
      <trkpt lat="47.48541" lon="6.77043">
        <ele>353.5</ele>
        <time>2017-12-10T10:22:31.999Z</time>
      </trkpt>
      <trkpt lat="47.48545" lon="6.77045">
        <ele>353.5</ele>
        <time>2017-12-10T10:22:32.999Z</time>
      </trkpt>
      <trkpt lat="47.48548" lon="6.77046">
        <ele>353.4</ele>
        <time>2017-12-10T10:22:33.999Z</time>
      </trkpt>
      <trkpt lat="47.48551" lon="6.77047">
        <ele>353.3</ele>
        <time>2017-12-10T10:22:34.999Z</time>
      </trkpt>
      <trkpt lat="47.48553" lon="6.77048">
        <ele>353.2</ele>
        <time>2017-12-10T10:22:35.999Z</time>
      </trkpt>
      <trkpt lat="47.48555" lon="6.77049">
        <ele>353.2</ele>
        <time>2017-12-10T10:22:36.999Z</time>
      </trkpt>
      <trkpt lat="47.48559" lon="6.77051">
        <ele>353.2</ele>
        <time>2017-12-10T10:22:37.999Z</time>
      </trkpt>
      <trkpt lat="47.48563" lon="6.77054">
        <ele>353.1</ele>
        <time>2017-12-10T10:22:38.999Z</time>
      </trkpt>
      <trkpt lat="47.48568" lon="6.77056">
        <ele>353.1</ele>
        <time>2017-12-10T10:22:39.999Z</time>
      </trkpt>
      <trkpt lat="47.48573" lon="6.77056">
        <ele>353.1</ele>
        <time>2017-12-10T10:22:40.999Z</time>
      </trkpt>
      <trkpt lat="47.48576" lon="6.77058">
        <ele>353.1</ele>
        <time>2017-12-10T10:22:41.999Z</time>
      </trkpt>
      <trkpt lat="47.4858" lon="6.77059">
        <ele>353.1</ele>
        <time>2017-12-10T10:22:42.999Z</time>
      </trkpt>
      <trkpt lat="47.48583" lon="6.7706">
        <ele>353.2</ele>
        <time>2017-12-10T10:22:43.999Z</time>
      </trkpt>
      <trkpt lat="47.4859" lon="6.77062">
        <ele>353.2</ele>
        <time>2017-12-10T10:22:44.999Z</time>
      </trkpt>
      <trkpt lat="47.48593" lon="6.77064">
        <ele>353.2</ele>
        <time>2017-12-10T10:22:45.999Z</time>
      </trkpt>
      <trkpt lat="47.48598" lon="6.77066">
        <ele>353.2</ele>
        <time>2017-12-10T10:22:46.999Z</time>
      </trkpt>
      <trkpt lat="47.48602" lon="6.77067">
        <ele>352.6</ele>
        <time>2017-12-10T10:22:47.999Z</time>
      </trkpt>
      <trkpt lat="47.48605" lon="6.77069">
        <ele>352.6</ele>
        <time>2017-12-10T10:22:48.999Z</time>
      </trkpt>
      <trkpt lat="47.48607" lon="6.77071">
        <ele>352.6</ele>
        <time>2017-12-10T10:22:49.999Z</time>
      </trkpt>
      <trkpt lat="47.48609" lon="6.77074">
        <ele>352.6</ele>
        <time>2017-12-10T10:22:50.999Z</time>
      </trkpt>
      <trkpt lat="47.48612" lon="6.77077">
        <ele>352.6</ele>
        <time>2017-12-10T10:22:51.999Z</time>
      </trkpt>
      <trkpt lat="47.48614" lon="6.7708">
        <ele>352.7</ele>
        <time>2017-12-10T10:22:52.999Z</time>
      </trkpt>
      <trkpt lat="47.48615" lon="6.77082">
        <ele>352.6</ele>
        <time>2017-12-10T10:22:53.999Z</time>
      </trkpt>
      <trkpt lat="47.48618" lon="6.77084">
        <ele>352.6</ele>
        <time>2017-12-10T10:22:54.999Z</time>
      </trkpt>
      <trkpt lat="47.4862" lon="6.77085">
        <ele>352.6</ele>
        <time>2017-12-10T10:22:55.999Z</time>
      </trkpt>
      <trkpt lat="47.48623" lon="6.77087">
        <ele>352.6</ele>
        <time>2017-12-10T10:22:56.999Z</time>
      </trkpt>
      <trkpt lat="47.48626" lon="6.77089">
        <ele>352.7</ele>
        <time>2017-12-10T10:22:57.999Z</time>
      </trkpt>
      <trkpt lat="47.48628" lon="6.77091">
        <ele>352.7</ele>
        <time>2017-12-10T10:22:58.999Z</time>
      </trkpt>
      <trkpt lat="47.48631" lon="6.77093">
        <ele>352.7</ele>
        <time>2017-12-10T10:22:59.999Z</time>
      </trkpt>
      <trkpt lat="47.48634" lon="6.77096">
        <ele>353.9</ele>
        <time>2017-12-10T10:23:00.999Z</time>
      </trkpt>
      <trkpt lat="47.48638" lon="6.77099">
        <ele>354.5</ele>
        <time>2017-12-10T10:23:01.999Z</time>
      </trkpt>
      <trkpt lat="47.48642" lon="6.77103">
        <ele>355.1</ele>
        <time>2017-12-10T10:23:02.999Z</time>
      </trkpt>
      <trkpt lat="47.48645" lon="6.77106">
        <ele>355.1</ele>
        <time>2017-12-10T10:23:03.999Z</time>
      </trkpt>
      <trkpt lat="47.48648" lon="6.77109">
        <ele>354.5</ele>
        <time>2017-12-10T10:23:04.999Z</time>
      </trkpt>
      <trkpt lat="47.48652" lon="6.77113">
        <ele>354.2</ele>
        <time>2017-12-10T10:23:05.999Z</time>
      </trkpt>
      <trkpt lat="47.48655" lon="6.77117">
        <ele>354.2</ele>
        <time>2017-12-10T10:23:06.999Z</time>
      </trkpt>
      <trkpt lat="47.48657" lon="6.77121">
        <ele>354.7</ele>
        <time>2017-12-10T10:23:07.999Z</time>
      </trkpt>
      <trkpt lat="47.4866" lon="6.77126">
        <ele>354.2</ele>
        <time>2017-12-10T10:23:08.999Z</time>
      </trkpt>
      <trkpt lat="47.48664" lon="6.77129">
        <ele>353.6</ele>
        <time>2017-12-10T10:23:09.999Z</time>
      </trkpt>
      <trkpt lat="47.48667" lon="6.77132">
        <ele>352.8</ele>
        <time>2017-12-10T10:23:10.999Z</time>
      </trkpt>
      <trkpt lat="47.48669" lon="6.77135">
        <ele>352.8</ele>
        <time>2017-12-10T10:23:11.999Z</time>
      </trkpt>
      <trkpt lat="47.48672" lon="6.77138">
        <ele>352.8</ele>
        <time>2017-12-10T10:23:12.999Z</time>
      </trkpt>
      <trkpt lat="47.48675" lon="6.7714">
        <ele>352.8</ele>
        <time>2017-12-10T10:23:13.999Z</time>
      </trkpt>
      <trkpt lat="47.48678" lon="6.77143">
        <ele>352.7</ele>
        <time>2017-12-10T10:23:14.999Z</time>
      </trkpt>
      <trkpt lat="47.48681" lon="6.77146">
        <ele>352.6</ele>
        <time>2017-12-10T10:23:15.999Z</time>
      </trkpt>
      <trkpt lat="47.48685" lon="6.77149">
        <ele>352.5</ele>
        <time>2017-12-10T10:23:16.999Z</time>
      </trkpt>
      <trkpt lat="47.48688" lon="6.77153">
        <ele>352.6</ele>
        <time>2017-12-10T10:23:17.999Z</time>
      </trkpt>
      <trkpt lat="47.48691" lon="6.77156">
        <ele>352.6</ele>
        <time>2017-12-10T10:23:18.999Z</time>
      </trkpt>
      <trkpt lat="47.48695" lon="6.77159">
        <ele>353.4</ele>
        <time>2017-12-10T10:23:19.999Z</time>
      </trkpt>
      <trkpt lat="47.48698" lon="6.77162">
        <ele>354.3</ele>
        <time>2017-12-10T10:23:20.999Z</time>
      </trkpt>
      <trkpt lat="47.487" lon="6.77165">
        <ele>354.7</ele>
        <time>2017-12-10T10:23:21.999Z</time>
      </trkpt>
      <trkpt lat="47.48704" lon="6.77168">
        <ele>355</ele>
        <time>2017-12-10T10:23:22.999Z</time>
      </trkpt>
      <trkpt lat="47.48707" lon="6.77171">
        <ele>354.9</ele>
        <time>2017-12-10T10:23:23.999Z</time>
      </trkpt>
      <trkpt lat="47.4871" lon="6.77174">
        <ele>354.4</ele>
        <time>2017-12-10T10:23:24.999Z</time>
      </trkpt>
      <trkpt lat="47.48713" lon="6.77176">
        <ele>353.8</ele>
        <time>2017-12-10T10:23:25.999Z</time>
      </trkpt>
      <trkpt lat="47.48716" lon="6.77179">
        <ele>352.9</ele>
        <time>2017-12-10T10:23:26.999Z</time>
      </trkpt>
      <trkpt lat="47.48719" lon="6.77182">
        <ele>352.9</ele>
        <time>2017-12-10T10:23:27.999Z</time>
      </trkpt>
      <trkpt lat="47.48722" lon="6.77185">
        <ele>352.7</ele>
        <time>2017-12-10T10:23:28.999Z</time>
      </trkpt>
      <trkpt lat="47.48726" lon="6.77188">
        <ele>352.3</ele>
        <time>2017-12-10T10:23:29.999Z</time>
      </trkpt>
      <trkpt lat="47.48729" lon="6.77191">
        <ele>351.9</ele>
        <time>2017-12-10T10:23:30.999Z</time>
      </trkpt>
      <trkpt lat="47.48733" lon="6.77193">
        <ele>351.6</ele>
        <time>2017-12-10T10:23:31.999Z</time>
      </trkpt>
      <trkpt lat="47.48737" lon="6.77196">
        <ele>351.5</ele>
        <time>2017-12-10T10:23:32.999Z</time>
      </trkpt>
      <trkpt lat="47.4874" lon="6.77199">
        <ele>351.5</ele>
        <time>2017-12-10T10:23:33.999Z</time>
      </trkpt>
      <trkpt lat="47.48745" lon="6.77201">
        <ele>351.6</ele>
        <time>2017-12-10T10:23:34.999Z</time>
      </trkpt>
      <trkpt lat="47.48749" lon="6.77204">
        <ele>351.2</ele>
        <time>2017-12-10T10:23:35.999Z</time>
      </trkpt>
      <trkpt lat="47.48753" lon="6.77206">
        <ele>350.8</ele>
        <time>2017-12-10T10:23:36.999Z</time>
      </trkpt>
      <trkpt lat="47.48757" lon="6.77209">
        <ele>350.4</ele>
        <time>2017-12-10T10:23:37.999Z</time>
      </trkpt>
      <trkpt lat="47.4876" lon="6.77212">
        <ele>349.8</ele>
        <time>2017-12-10T10:23:38.999Z</time>
      </trkpt>
      <trkpt lat="47.48764" lon="6.77214">
        <ele>350</ele>
        <time>2017-12-10T10:23:39.999Z</time>
      </trkpt>
      <trkpt lat="47.48767" lon="6.77217">
        <ele>349.6</ele>
        <time>2017-12-10T10:23:40.999Z</time>
      </trkpt>
      <trkpt lat="47.48771" lon="6.77219">
        <ele>349.3</ele>
        <time>2017-12-10T10:23:41.999Z</time>
      </trkpt>
      <trkpt lat="47.48775" lon="6.77222">
        <ele>349</ele>
        <time>2017-12-10T10:23:42.999Z</time>
      </trkpt>
      <trkpt lat="47.48779" lon="6.77225">
        <ele>348.8</ele>
        <time>2017-12-10T10:23:43.999Z</time>
      </trkpt>
      <trkpt lat="47.48783" lon="6.77228">
        <ele>347.9</ele>
        <time>2017-12-10T10:23:44.999Z</time>
      </trkpt>
      <trkpt lat="47.48787" lon="6.77231">
        <ele>348.1</ele>
        <time>2017-12-10T10:23:45.999Z</time>
      </trkpt>
      <trkpt lat="47.48791" lon="6.77234">
        <ele>347.7</ele>
        <time>2017-12-10T10:23:46.999Z</time>
      </trkpt>
      <trkpt lat="47.48795" lon="6.77237">
        <ele>348.1</ele>
        <time>2017-12-10T10:23:47.999Z</time>
      </trkpt>
      <trkpt lat="47.48799" lon="6.77239">
        <ele>348.2</ele>
        <time>2017-12-10T10:23:48.999Z</time>
      </trkpt>
      <trkpt lat="47.48803" lon="6.77241">
        <ele>348.5</ele>
        <time>2017-12-10T10:23:49.999Z</time>
      </trkpt>
      <trkpt lat="47.48806" lon="6.77244">
        <ele>348.6</ele>
        <time>2017-12-10T10:23:50.999Z</time>
      </trkpt>
      <trkpt lat="47.4881" lon="6.77247">
        <ele>348.4</ele>
        <time>2017-12-10T10:23:51.999Z</time>
      </trkpt>
      <trkpt lat="47.48813" lon="6.7725">
        <ele>348.4</ele>
        <time>2017-12-10T10:23:52.999Z</time>
      </trkpt>
      <trkpt lat="47.48816" lon="6.77253">
        <ele>348.6</ele>
        <time>2017-12-10T10:23:53.999Z</time>
      </trkpt>
      <trkpt lat="47.48822" lon="6.77257">
        <ele>349.3</ele>
        <time>2017-12-10T10:23:54.999Z</time>
      </trkpt>
      <trkpt lat="47.48826" lon="6.77258">
        <ele>350.1</ele>
        <time>2017-12-10T10:23:55.999Z</time>
      </trkpt>
      <trkpt lat="47.4883" lon="6.77261">
        <ele>350.4</ele>
        <time>2017-12-10T10:23:56.999Z</time>
      </trkpt>
      <trkpt lat="47.48833" lon="6.77263">
        <ele>350.6</ele>
        <time>2017-12-10T10:23:57.999Z</time>
      </trkpt>
      <trkpt lat="47.48836" lon="6.77266">
        <ele>350.6</ele>
        <time>2017-12-10T10:23:58.999Z</time>
      </trkpt>
      <trkpt lat="47.48839" lon="6.77269">
        <ele>350.7</ele>
        <time>2017-12-10T10:23:59.999Z</time>
      </trkpt>
      <trkpt lat="47.48841" lon="6.77272">
        <ele>350.7</ele>
        <time>2017-12-10T10:24:00.999Z</time>
      </trkpt>
      <trkpt lat="47.48844" lon="6.77275">
        <ele>350.7</ele>
        <time>2017-12-10T10:24:01.999Z</time>
      </trkpt>
      <trkpt lat="47.48847" lon="6.77276">
        <ele>350.7</ele>
        <time>2017-12-10T10:24:02.999Z</time>
      </trkpt>
      <trkpt lat="47.48851" lon="6.77278">
        <ele>350.5</ele>
        <time>2017-12-10T10:24:03.999Z</time>
      </trkpt>
      <trkpt lat="47.48855" lon="6.7728">
        <ele>350.4</ele>
        <time>2017-12-10T10:24:04.999Z</time>
      </trkpt>
      <trkpt lat="47.48858" lon="6.77282">
        <ele>350.5</ele>
        <time>2017-12-10T10:24:05.999Z</time>
      </trkpt>
      <trkpt lat="47.48861" lon="6.77284">
        <ele>350.5</ele>
        <time>2017-12-10T10:24:06.999Z</time>
      </trkpt>
      <trkpt lat="47.48865" lon="6.77286">
        <ele>349.2</ele>
        <time>2017-12-10T10:24:07.999Z</time>
      </trkpt>
      <trkpt lat="47.48869" lon="6.77288">
        <ele>349.1</ele>
        <time>2017-12-10T10:24:08.999Z</time>
      </trkpt>
      <trkpt lat="47.48873" lon="6.77289">
        <ele>349.1</ele>
        <time>2017-12-10T10:24:09.999Z</time>
      </trkpt>
      <trkpt lat="47.48876" lon="6.77291">
        <ele>349.1</ele>
        <time>2017-12-10T10:24:10.999Z</time>
      </trkpt>
      <trkpt lat="47.48879" lon="6.77293">
        <ele>348.6</ele>
        <time>2017-12-10T10:24:11.999Z</time>
      </trkpt>
      <trkpt lat="47.48883" lon="6.77294">
        <ele>348.4</ele>
        <time>2017-12-10T10:24:12.999Z</time>
      </trkpt>
      <trkpt lat="47.48887" lon="6.77295">
        <ele>348.1</ele>
        <time>2017-12-10T10:24:13.999Z</time>
      </trkpt>
      <trkpt lat="47.4889" lon="6.77296">
        <ele>348.3</ele>
        <time>2017-12-10T10:24:14.999Z</time>
      </trkpt>
      <trkpt lat="47.48894" lon="6.77298">
        <ele>348.3</ele>
        <time>2017-12-10T10:24:15.999Z</time>
      </trkpt>
      <trkpt lat="47.48898" lon="6.77299">
        <ele>348.3</ele>
        <time>2017-12-10T10:24:16.999Z</time>
      </trkpt>
      <trkpt lat="47.48901" lon="6.77301">
        <ele>348.5</ele>
        <time>2017-12-10T10:24:17.999Z</time>
      </trkpt>
      <trkpt lat="47.48905" lon="6.77302">
        <ele>348.5</ele>
        <time>2017-12-10T10:24:18.999Z</time>
      </trkpt>
      <trkpt lat="47.48908" lon="6.77302">
        <ele>348.4</ele>
        <time>2017-12-10T10:24:19.999Z</time>
      </trkpt>
      <trkpt lat="47.48912" lon="6.77303">
        <ele>348.6</ele>
        <time>2017-12-10T10:24:20.999Z</time>
      </trkpt>
      <trkpt lat="47.48916" lon="6.77305">
        <ele>348.8</ele>
        <time>2017-12-10T10:24:21.999Z</time>
      </trkpt>
      <trkpt lat="47.4892" lon="6.77307">
        <ele>348.7</ele>
        <time>2017-12-10T10:24:22.999Z</time>
      </trkpt>
      <trkpt lat="47.48924" lon="6.77309">
        <ele>349</ele>
        <time>2017-12-10T10:24:23.999Z</time>
      </trkpt>
      <trkpt lat="47.48928" lon="6.77311">
        <ele>348.6</ele>
        <time>2017-12-10T10:24:24.999Z</time>
      </trkpt>
      <trkpt lat="47.48933" lon="6.77313">
        <ele>348.9</ele>
        <time>2017-12-10T10:24:25.999Z</time>
      </trkpt>
      <trkpt lat="47.48937" lon="6.77315">
        <ele>349</ele>
        <time>2017-12-10T10:24:26.999Z</time>
      </trkpt>
      <trkpt lat="47.48942" lon="6.77317">
        <ele>349.9</ele>
        <time>2017-12-10T10:24:27.999Z</time>
      </trkpt>
      <trkpt lat="47.48946" lon="6.77319">
        <ele>351.3</ele>
        <time>2017-12-10T10:24:28.999Z</time>
      </trkpt>
      <trkpt lat="47.48951" lon="6.7732">
        <ele>352.7</ele>
        <time>2017-12-10T10:24:29.999Z</time>
      </trkpt>
      <trkpt lat="47.48956" lon="6.77321">
        <ele>354.2</ele>
        <time>2017-12-10T10:24:30.999Z</time>
      </trkpt>
      <trkpt lat="47.4896" lon="6.77322">
        <ele>355.6</ele>
        <time>2017-12-10T10:24:31.999Z</time>
      </trkpt>
      <trkpt lat="47.48964" lon="6.77322">
        <ele>356</ele>
        <time>2017-12-10T10:24:32.999Z</time>
      </trkpt>
      <trkpt lat="47.48969" lon="6.77322">
        <ele>356.3</ele>
        <time>2017-12-10T10:24:33.999Z</time>
      </trkpt>
      <trkpt lat="47.48973" lon="6.77322">
        <ele>356.3</ele>
        <time>2017-12-10T10:24:34.999Z</time>
      </trkpt>
      <trkpt lat="47.48978" lon="6.77322">
        <ele>355.2</ele>
        <time>2017-12-10T10:24:35.999Z</time>
      </trkpt>
      <trkpt lat="47.48983" lon="6.77322">
        <ele>354.6</ele>
        <time>2017-12-10T10:24:36.999Z</time>
      </trkpt>
      <trkpt lat="47.48988" lon="6.77322">
        <ele>353.2</ele>
        <time>2017-12-10T10:24:37.999Z</time>
      </trkpt>
      <trkpt lat="47.48992" lon="6.77322">
        <ele>352.5</ele>
        <time>2017-12-10T10:24:38.999Z</time>
      </trkpt>
      <trkpt lat="47.48997" lon="6.77322">
        <ele>352.1</ele>
        <time>2017-12-10T10:24:39.999Z</time>
      </trkpt>
      <trkpt lat="47.49001" lon="6.77322">
        <ele>351.6</ele>
        <time>2017-12-10T10:24:40.999Z</time>
      </trkpt>
      <trkpt lat="47.49005" lon="6.77322">
        <ele>350.4</ele>
        <time>2017-12-10T10:24:41.999Z</time>
      </trkpt>
      <trkpt lat="47.4901" lon="6.77323">
        <ele>349.7</ele>
        <time>2017-12-10T10:24:42.999Z</time>
      </trkpt>
      <trkpt lat="47.49014" lon="6.77323">
        <ele>349.9</ele>
        <time>2017-12-10T10:24:43.999Z</time>
      </trkpt>
      <trkpt lat="47.49018" lon="6.77324">
        <ele>350</ele>
        <time>2017-12-10T10:24:44.999Z</time>
      </trkpt>
      <trkpt lat="47.49022" lon="6.77324">
        <ele>350.5</ele>
        <time>2017-12-10T10:24:45.999Z</time>
      </trkpt>
      <trkpt lat="47.49026" lon="6.77324">
        <ele>350.8</ele>
        <time>2017-12-10T10:24:46.999Z</time>
      </trkpt>
      <trkpt lat="47.49031" lon="6.77324">
        <ele>351.3</ele>
        <time>2017-12-10T10:24:47.999Z</time>
      </trkpt>
      <trkpt lat="47.49035" lon="6.77324">
        <ele>351.5</ele>
        <time>2017-12-10T10:24:48.999Z</time>
      </trkpt>
      <trkpt lat="47.4904" lon="6.77325">
        <ele>351.8</ele>
        <time>2017-12-10T10:24:49.999Z</time>
      </trkpt>
      <trkpt lat="47.49044" lon="6.77325">
        <ele>351.5</ele>
        <time>2017-12-10T10:24:50.999Z</time>
      </trkpt>
      <trkpt lat="47.49048" lon="6.77326">
        <ele>351.2</ele>
        <time>2017-12-10T10:24:51.999Z</time>
      </trkpt>
      <trkpt lat="47.49052" lon="6.77326">
        <ele>350.9</ele>
        <time>2017-12-10T10:24:52.999Z</time>
      </trkpt>
      <trkpt lat="47.49056" lon="6.77325">
        <ele>351.4</ele>
        <time>2017-12-10T10:24:53.999Z</time>
      </trkpt>
      <trkpt lat="47.49059" lon="6.77325">
        <ele>351.3</ele>
        <time>2017-12-10T10:24:54.999Z</time>
      </trkpt>
      <trkpt lat="47.49063" lon="6.77325">
        <ele>351.2</ele>
        <time>2017-12-10T10:24:55.999Z</time>
      </trkpt>
      <trkpt lat="47.49067" lon="6.77325">
        <ele>351</ele>
        <time>2017-12-10T10:24:56.999Z</time>
      </trkpt>
      <trkpt lat="47.49071" lon="6.77325">
        <ele>350.7</ele>
        <time>2017-12-10T10:24:57.999Z</time>
      </trkpt>
      <trkpt lat="47.49074" lon="6.77325">
        <ele>351.1</ele>
        <time>2017-12-10T10:24:58.999Z</time>
      </trkpt>
      <trkpt lat="47.49078" lon="6.77325">
        <ele>351.9</ele>
        <time>2017-12-10T10:24:59.999Z</time>
      </trkpt>
      <trkpt lat="47.49082" lon="6.77325">
        <ele>351.9</ele>
        <time>2017-12-10T10:25:00.999Z</time>
      </trkpt>
      <trkpt lat="47.49086" lon="6.77325">
        <ele>351.8</ele>
        <time>2017-12-10T10:25:01.999Z</time>
      </trkpt>
      <trkpt lat="47.4909" lon="6.77325">
        <ele>351.4</ele>
        <time>2017-12-10T10:25:02.999Z</time>
      </trkpt>
      <trkpt lat="47.49095" lon="6.77325">
        <ele>350.9</ele>
        <time>2017-12-10T10:25:03.999Z</time>
      </trkpt>
      <trkpt lat="47.49098" lon="6.77325">
        <ele>350.3</ele>
        <time>2017-12-10T10:25:04.999Z</time>
      </trkpt>
      <trkpt lat="47.49102" lon="6.77325">
        <ele>349.9</ele>
        <time>2017-12-10T10:25:05.999Z</time>
      </trkpt>
      <trkpt lat="47.49106" lon="6.77325">
        <ele>349.6</ele>
        <time>2017-12-10T10:25:06.999Z</time>
      </trkpt>
      <trkpt lat="47.49109" lon="6.77325">
        <ele>349.5</ele>
        <time>2017-12-10T10:25:07.999Z</time>
      </trkpt>
      <trkpt lat="47.49114" lon="6.77325">
        <ele>349.3</ele>
        <time>2017-12-10T10:25:08.999Z</time>
      </trkpt>
      <trkpt lat="47.49118" lon="6.77326">
        <ele>349.2</ele>
        <time>2017-12-10T10:25:09.999Z</time>
      </trkpt>
      <trkpt lat="47.49122" lon="6.77326">
        <ele>348.4</ele>
        <time>2017-12-10T10:25:10.999Z</time>
      </trkpt>
      <trkpt lat="47.49127" lon="6.77326">
        <ele>347.9</ele>
        <time>2017-12-10T10:25:11.999Z</time>
      </trkpt>
      <trkpt lat="47.49132" lon="6.77327">
        <ele>347.5</ele>
        <time>2017-12-10T10:25:12.999Z</time>
      </trkpt>
      <trkpt lat="47.49136" lon="6.77328">
        <ele>347.4</ele>
        <time>2017-12-10T10:25:13.999Z</time>
      </trkpt>
      <trkpt lat="47.49139" lon="6.77329">
        <ele>347.7</ele>
        <time>2017-12-10T10:25:14.999Z</time>
      </trkpt>
      <trkpt lat="47.49143" lon="6.77329">
        <ele>347.7</ele>
        <time>2017-12-10T10:25:15.999Z</time>
      </trkpt>
      <trkpt lat="47.49146" lon="6.77329">
        <ele>347.7</ele>
        <time>2017-12-10T10:25:16.999Z</time>
      </trkpt>
      <trkpt lat="47.4915" lon="6.7733">
        <ele>347.7</ele>
        <time>2017-12-10T10:25:17.999Z</time>
      </trkpt>
      <trkpt lat="47.49153" lon="6.77331">
        <ele>347.8</ele>
        <time>2017-12-10T10:25:18.999Z</time>
      </trkpt>
      <trkpt lat="47.49157" lon="6.77331">
        <ele>347.8</ele>
        <time>2017-12-10T10:25:19.999Z</time>
      </trkpt>
      <trkpt lat="47.4916" lon="6.77332">
        <ele>347.9</ele>
        <time>2017-12-10T10:25:20.999Z</time>
      </trkpt>
      <trkpt lat="47.49163" lon="6.77332">
        <ele>348</ele>
        <time>2017-12-10T10:25:21.999Z</time>
      </trkpt>
      <trkpt lat="47.49167" lon="6.77332">
        <ele>348</ele>
        <time>2017-12-10T10:25:22.999Z</time>
      </trkpt>
      <trkpt lat="47.49169" lon="6.77333">
        <ele>348.1</ele>
        <time>2017-12-10T10:25:23.999Z</time>
      </trkpt>
      <trkpt lat="47.49172" lon="6.77332">
        <ele>348.1</ele>
        <time>2017-12-10T10:25:24.999Z</time>
      </trkpt>
      <trkpt lat="47.49175" lon="6.77332">
        <ele>348.2</ele>
        <time>2017-12-10T10:25:25.999Z</time>
      </trkpt>
      <trkpt lat="47.49178" lon="6.77332">
        <ele>348.2</ele>
        <time>2017-12-10T10:25:26.999Z</time>
      </trkpt>
      <trkpt lat="47.4918" lon="6.77332">
        <ele>348.2</ele>
        <time>2017-12-10T10:25:27.999Z</time>
      </trkpt>
      <trkpt lat="47.49184" lon="6.77332">
        <ele>350.9</ele>
        <time>2017-12-10T10:25:41.999Z</time>
      </trkpt>
      <trkpt lat="47.49185" lon="6.77332">
        <ele>351.3</ele>
        <time>2017-12-10T10:25:42.999Z</time>
      </trkpt>
      <trkpt lat="47.49187" lon="6.77332">
        <ele>353</ele>
        <time>2017-12-10T10:25:55.999Z</time>
      </trkpt>
      <trkpt lat="47.49189" lon="6.77332">
        <ele>353</ele>
        <time>2017-12-10T10:25:56.999Z</time>
      </trkpt>
      <trkpt lat="47.49192" lon="6.77332">
        <ele>353.1</ele>
        <time>2017-12-10T10:25:57.999Z</time>
      </trkpt>
      <trkpt lat="47.49195" lon="6.77333">
        <ele>353</ele>
        <time>2017-12-10T10:25:58.999Z</time>
      </trkpt>
      <trkpt lat="47.49197" lon="6.77334">
        <ele>353.1</ele>
        <time>2017-12-10T10:25:59.999Z</time>
      </trkpt>
      <trkpt lat="47.49201" lon="6.77335">
        <ele>353.1</ele>
        <time>2017-12-10T10:26:00.999Z</time>
      </trkpt>
      <trkpt lat="47.49204" lon="6.77335">
        <ele>353.1</ele>
        <time>2017-12-10T10:26:01.999Z</time>
      </trkpt>
      <trkpt lat="47.49207" lon="6.77335">
        <ele>353.1</ele>
        <time>2017-12-10T10:26:02.999Z</time>
      </trkpt>
      <trkpt lat="47.4921" lon="6.77335">
        <ele>353</ele>
        <time>2017-12-10T10:26:03.999Z</time>
      </trkpt>
      <trkpt lat="47.49214" lon="6.77335">
        <ele>353</ele>
        <time>2017-12-10T10:26:04.999Z</time>
      </trkpt>
      <trkpt lat="47.49218" lon="6.77335">
        <ele>353.2</ele>
        <time>2017-12-10T10:26:05.999Z</time>
      </trkpt>
      <trkpt lat="47.49222" lon="6.77335">
        <ele>352.9</ele>
        <time>2017-12-10T10:26:06.999Z</time>
      </trkpt>
      <trkpt lat="47.49225" lon="6.77335">
        <ele>353</ele>
        <time>2017-12-10T10:26:07.999Z</time>
      </trkpt>
      <trkpt lat="47.49229" lon="6.77335">
        <ele>353.4</ele>
        <time>2017-12-10T10:26:08.999Z</time>
      </trkpt>
      <trkpt lat="47.49233" lon="6.77336">
        <ele>353.9</ele>
        <time>2017-12-10T10:26:09.999Z</time>
      </trkpt>
      <trkpt lat="47.49237" lon="6.77336">
        <ele>353.9</ele>
        <time>2017-12-10T10:26:10.999Z</time>
      </trkpt>
      <trkpt lat="47.49241" lon="6.77336">
        <ele>354.1</ele>
        <time>2017-12-10T10:26:11.999Z</time>
      </trkpt>
      <trkpt lat="47.49246" lon="6.77335">
        <ele>354.2</ele>
        <time>2017-12-10T10:26:12.999Z</time>
      </trkpt>
      <trkpt lat="47.4925" lon="6.77332">
        <ele>353.8</ele>
        <time>2017-12-10T10:26:13.999Z</time>
      </trkpt>
      <trkpt lat="47.49254" lon="6.7733">
        <ele>353.6</ele>
        <time>2017-12-10T10:26:14.999Z</time>
      </trkpt>
      <trkpt lat="47.49258" lon="6.77328">
        <ele>353.2</ele>
        <time>2017-12-10T10:26:15.999Z</time>
      </trkpt>
      <trkpt lat="47.49262" lon="6.77327">
        <ele>352.5</ele>
        <time>2017-12-10T10:26:16.999Z</time>
      </trkpt>
      <trkpt lat="47.49267" lon="6.77326">
        <ele>352.1</ele>
        <time>2017-12-10T10:26:17.999Z</time>
      </trkpt>
      <trkpt lat="47.49272" lon="6.77326">
        <ele>351.8</ele>
        <time>2017-12-10T10:26:18.999Z</time>
      </trkpt>
      <trkpt lat="47.49277" lon="6.77325">
        <ele>351.6</ele>
        <time>2017-12-10T10:26:19.999Z</time>
      </trkpt>
      <trkpt lat="47.49282" lon="6.77325">
        <ele>351.7</ele>
        <time>2017-12-10T10:26:20.999Z</time>
      </trkpt>
      <trkpt lat="47.49287" lon="6.77325">
        <ele>351.1</ele>
        <time>2017-12-10T10:26:21.999Z</time>
      </trkpt>
      <trkpt lat="47.49291" lon="6.77325">
        <ele>350.3</ele>
        <time>2017-12-10T10:26:22.999Z</time>
      </trkpt>
      <trkpt lat="47.49296" lon="6.77325">
        <ele>349.4</ele>
        <time>2017-12-10T10:26:23.999Z</time>
      </trkpt>
      <trkpt lat="47.49301" lon="6.77324">
        <ele>349.5</ele>
        <time>2017-12-10T10:26:24.999Z</time>
      </trkpt>
      <trkpt lat="47.49306" lon="6.77325">
        <ele>349.5</ele>
        <time>2017-12-10T10:26:25.999Z</time>
      </trkpt>
      <trkpt lat="47.4931" lon="6.77326">
        <ele>350.5</ele>
        <time>2017-12-10T10:26:26.999Z</time>
      </trkpt>
      <trkpt lat="47.49314" lon="6.77327">
        <ele>350.6</ele>
        <time>2017-12-10T10:26:27.999Z</time>
      </trkpt>
      <trkpt lat="47.49318" lon="6.77328">
        <ele>350.7</ele>
        <time>2017-12-10T10:26:28.999Z</time>
      </trkpt>
      <trkpt lat="47.49323" lon="6.7733">
        <ele>350.9</ele>
        <time>2017-12-10T10:26:29.999Z</time>
      </trkpt>
      <trkpt lat="47.49327" lon="6.77332">
        <ele>351</ele>
        <time>2017-12-10T10:26:30.999Z</time>
      </trkpt>
      <trkpt lat="47.4933" lon="6.77334">
        <ele>351.1</ele>
        <time>2017-12-10T10:26:31.999Z</time>
      </trkpt>
      <trkpt lat="47.49334" lon="6.77335">
        <ele>351.3</ele>
        <time>2017-12-10T10:26:32.999Z</time>
      </trkpt>
      <trkpt lat="47.49335" lon="6.77336">
        <ele>351.5</ele>
        <time>2017-12-10T10:26:33.999Z</time>
      </trkpt>
      <trkpt lat="47.49337" lon="6.77339">
        <ele>351.7</ele>
        <time>2017-12-10T10:26:34.999Z</time>
      </trkpt>
      <trkpt lat="47.49339" lon="6.77342">
        <ele>351.8</ele>
        <time>2017-12-10T10:26:35.999Z</time>
      </trkpt>
      <trkpt lat="47.49341" lon="6.77344">
        <ele>351.9</ele>
        <time>2017-12-10T10:26:36.999Z</time>
      </trkpt>
      <trkpt lat="47.49343" lon="6.77345">
        <ele>351.9</ele>
        <time>2017-12-10T10:26:37.999Z</time>
      </trkpt>
      <trkpt lat="47.49346" lon="6.77346">
        <ele>352</ele>
        <time>2017-12-10T10:26:38.999Z</time>
      </trkpt>
      <trkpt lat="47.49349" lon="6.77347">
        <ele>352.2</ele>
        <time>2017-12-10T10:26:39.999Z</time>
      </trkpt>
      <trkpt lat="47.49352" lon="6.77348">
        <ele>352.3</ele>
        <time>2017-12-10T10:26:40.999Z</time>
      </trkpt>
      <trkpt lat="47.49355" lon="6.77348">
        <ele>352.4</ele>
        <time>2017-12-10T10:26:41.999Z</time>
      </trkpt>
      <trkpt lat="47.49359" lon="6.77348">
        <ele>353.2</ele>
        <time>2017-12-10T10:26:42.999Z</time>
      </trkpt>
      <trkpt lat="47.49363" lon="6.77347">
        <ele>353.2</ele>
        <time>2017-12-10T10:26:43.999Z</time>
      </trkpt>
      <trkpt lat="47.49367" lon="6.77347">
        <ele>353.2</ele>
        <time>2017-12-10T10:26:44.999Z</time>
      </trkpt>
      <trkpt lat="47.49371" lon="6.77347">
        <ele>353.3</ele>
        <time>2017-12-10T10:26:45.999Z</time>
      </trkpt>
      <trkpt lat="47.49376" lon="6.77348">
        <ele>353.4</ele>
        <time>2017-12-10T10:26:46.999Z</time>
      </trkpt>
      <trkpt lat="47.4938" lon="6.77348">
        <ele>353.6</ele>
        <time>2017-12-10T10:26:47.999Z</time>
      </trkpt>
      <trkpt lat="47.49384" lon="6.77348">
        <ele>353.6</ele>
        <time>2017-12-10T10:26:48.999Z</time>
      </trkpt>
      <trkpt lat="47.49388" lon="6.77348">
        <ele>353.7</ele>
        <time>2017-12-10T10:26:49.999Z</time>
      </trkpt>
      <trkpt lat="47.49391" lon="6.77348">
        <ele>353.8</ele>
        <time>2017-12-10T10:26:50.999Z</time>
      </trkpt>
      <trkpt lat="47.49395" lon="6.77348">
        <ele>354</ele>
        <time>2017-12-10T10:26:51.999Z</time>
      </trkpt>
      <trkpt lat="47.49399" lon="6.77348">
        <ele>354.2</ele>
        <time>2017-12-10T10:26:52.999Z</time>
      </trkpt>
      <trkpt lat="47.49402" lon="6.77348">
        <ele>354.4</ele>
        <time>2017-12-10T10:26:53.999Z</time>
      </trkpt>
      <trkpt lat="47.49406" lon="6.77348">
        <ele>356.1</ele>
        <time>2017-12-10T10:26:54.999Z</time>
      </trkpt>
      <trkpt lat="47.49409" lon="6.77349">
        <ele>356.2</ele>
        <time>2017-12-10T10:26:55.999Z</time>
      </trkpt>
      <trkpt lat="47.49413" lon="6.77348">
        <ele>356.3</ele>
        <time>2017-12-10T10:26:56.999Z</time>
      </trkpt>
      <trkpt lat="47.49417" lon="6.77348">
        <ele>356.3</ele>
        <time>2017-12-10T10:26:57.999Z</time>
      </trkpt>
      <trkpt lat="47.49421" lon="6.77348">
        <ele>356.4</ele>
        <time>2017-12-10T10:26:58.999Z</time>
      </trkpt>
      <trkpt lat="47.49425" lon="6.77348">
        <ele>356.5</ele>
        <time>2017-12-10T10:26:59.999Z</time>
      </trkpt>
      <trkpt lat="47.49429" lon="6.77348">
        <ele>356.6</ele>
        <time>2017-12-10T10:27:00.999Z</time>
      </trkpt>
      <trkpt lat="47.49433" lon="6.77348">
        <ele>356.7</ele>
        <time>2017-12-10T10:27:01.999Z</time>
      </trkpt>
      <trkpt lat="47.49437" lon="6.77347">
        <ele>356.8</ele>
        <time>2017-12-10T10:27:02.999Z</time>
      </trkpt>
      <trkpt lat="47.49441" lon="6.77347">
        <ele>356.9</ele>
        <time>2017-12-10T10:27:03.999Z</time>
      </trkpt>
      <trkpt lat="47.49445" lon="6.77347">
        <ele>358</ele>
        <time>2017-12-10T10:27:04.999Z</time>
      </trkpt>
      <trkpt lat="47.49449" lon="6.77348">
        <ele>358.7</ele>
        <time>2017-12-10T10:27:05.999Z</time>
      </trkpt>
      <trkpt lat="47.49453" lon="6.77348">
        <ele>358.7</ele>
        <time>2017-12-10T10:27:06.999Z</time>
      </trkpt>
      <trkpt lat="47.49456" lon="6.77349">
        <ele>358.7</ele>
        <time>2017-12-10T10:27:07.999Z</time>
      </trkpt>
      <trkpt lat="47.4946" lon="6.7735">
        <ele>359</ele>
        <time>2017-12-10T10:27:08.999Z</time>
      </trkpt>
      <trkpt lat="47.49463" lon="6.7735">
        <ele>358.4</ele>
        <time>2017-12-10T10:27:09.999Z</time>
      </trkpt>
      <trkpt lat="47.49467" lon="6.77351">
        <ele>357.9</ele>
        <time>2017-12-10T10:27:10.999Z</time>
      </trkpt>
      <trkpt lat="47.49471" lon="6.77352">
        <ele>357.5</ele>
        <time>2017-12-10T10:27:11.999Z</time>
      </trkpt>
      <trkpt lat="47.49475" lon="6.77352">
        <ele>356.9</ele>
        <time>2017-12-10T10:27:12.999Z</time>
      </trkpt>
      <trkpt lat="47.49479" lon="6.77353">
        <ele>356.3</ele>
        <time>2017-12-10T10:27:13.999Z</time>
      </trkpt>
      <trkpt lat="47.49483" lon="6.77353">
        <ele>356.4</ele>
        <time>2017-12-10T10:27:14.999Z</time>
      </trkpt>
      <trkpt lat="47.49486" lon="6.77354">
        <ele>355.7</ele>
        <time>2017-12-10T10:27:15.999Z</time>
      </trkpt>
      <trkpt lat="47.49489" lon="6.77354">
        <ele>355.2</ele>
        <time>2017-12-10T10:27:16.999Z</time>
      </trkpt>
      <trkpt lat="47.49493" lon="6.77354">
        <ele>354.2</ele>
        <time>2017-12-10T10:27:17.999Z</time>
      </trkpt>
      <trkpt lat="47.49497" lon="6.77354">
        <ele>353.5</ele>
        <time>2017-12-10T10:27:18.999Z</time>
      </trkpt>
      <trkpt lat="47.49501" lon="6.77354">
        <ele>353.6</ele>
        <time>2017-12-10T10:27:19.999Z</time>
      </trkpt>
      <trkpt lat="47.49504" lon="6.77354">
        <ele>353.6</ele>
        <time>2017-12-10T10:27:20.999Z</time>
      </trkpt>
      <trkpt lat="47.49507" lon="6.77354">
        <ele>353.6</ele>
        <time>2017-12-10T10:27:21.999Z</time>
      </trkpt>
      <trkpt lat="47.49511" lon="6.77354">
        <ele>353.6</ele>
        <time>2017-12-10T10:27:22.999Z</time>
      </trkpt>
      <trkpt lat="47.49516" lon="6.77355">
        <ele>353.7</ele>
        <time>2017-12-10T10:27:23.999Z</time>
      </trkpt>
      <trkpt lat="47.4952" lon="6.77355">
        <ele>353.6</ele>
        <time>2017-12-10T10:27:24.999Z</time>
      </trkpt>
      <trkpt lat="47.49524" lon="6.77356">
        <ele>354.4</ele>
        <time>2017-12-10T10:27:25.999Z</time>
      </trkpt>
      <trkpt lat="47.49529" lon="6.77357">
        <ele>354.8</ele>
        <time>2017-12-10T10:27:26.999Z</time>
      </trkpt>
      <trkpt lat="47.49533" lon="6.77357">
        <ele>354.6</ele>
        <time>2017-12-10T10:27:27.999Z</time>
      </trkpt>
      <trkpt lat="47.49538" lon="6.77358">
        <ele>354.7</ele>
        <time>2017-12-10T10:27:28.999Z</time>
      </trkpt>
      <trkpt lat="47.49542" lon="6.77359">
        <ele>354.7</ele>
        <time>2017-12-10T10:27:29.999Z</time>
      </trkpt>
      <trkpt lat="47.49546" lon="6.77359">
        <ele>354.7</ele>
        <time>2017-12-10T10:27:30.999Z</time>
      </trkpt>
      <trkpt lat="47.4955" lon="6.7736">
        <ele>355</ele>
        <time>2017-12-10T10:27:31.999Z</time>
      </trkpt>
      <trkpt lat="47.49554" lon="6.7736">
        <ele>355.3</ele>
        <time>2017-12-10T10:27:32.999Z</time>
      </trkpt>
      <trkpt lat="47.49557" lon="6.7736">
        <ele>355.4</ele>
        <time>2017-12-10T10:27:33.999Z</time>
      </trkpt>
      <trkpt lat="47.4956" lon="6.77361">
        <ele>355.3</ele>
        <time>2017-12-10T10:27:34.999Z</time>
      </trkpt>
      <trkpt lat="47.49564" lon="6.77361">
        <ele>354.9</ele>
        <time>2017-12-10T10:27:35.999Z</time>
      </trkpt>
      <trkpt lat="47.49567" lon="6.77361">
        <ele>353.7</ele>
        <time>2017-12-10T10:27:36.999Z</time>
      </trkpt>
      <trkpt lat="47.49571" lon="6.77361">
        <ele>353.2</ele>
        <time>2017-12-10T10:27:37.999Z</time>
      </trkpt>
      <trkpt lat="47.49575" lon="6.77361">
        <ele>353.2</ele>
        <time>2017-12-10T10:27:38.999Z</time>
      </trkpt>
      <trkpt lat="47.49578" lon="6.77361">
        <ele>353.6</ele>
        <time>2017-12-10T10:27:39.999Z</time>
      </trkpt>
      <trkpt lat="47.49582" lon="6.77361">
        <ele>353.6</ele>
        <time>2017-12-10T10:27:40.999Z</time>
      </trkpt>
      <trkpt lat="47.49586" lon="6.77361">
        <ele>353.7</ele>
        <time>2017-12-10T10:27:41.999Z</time>
      </trkpt>
      <trkpt lat="47.4959" lon="6.7736">
        <ele>353.8</ele>
        <time>2017-12-10T10:27:42.999Z</time>
      </trkpt>
      <trkpt lat="47.49594" lon="6.7736">
        <ele>353.9</ele>
        <time>2017-12-10T10:27:43.999Z</time>
      </trkpt>
      <trkpt lat="47.49598" lon="6.77359">
        <ele>354</ele>
        <time>2017-12-10T10:27:44.999Z</time>
      </trkpt>
      <trkpt lat="47.49602" lon="6.77358">
        <ele>354.2</ele>
        <time>2017-12-10T10:27:45.999Z</time>
      </trkpt>
      <trkpt lat="47.49606" lon="6.77358">
        <ele>356.1</ele>
        <time>2017-12-10T10:27:46.999Z</time>
      </trkpt>
      <trkpt lat="47.49609" lon="6.77357">
        <ele>357.3</ele>
        <time>2017-12-10T10:27:47.999Z</time>
      </trkpt>
      <trkpt lat="47.49613" lon="6.77356">
        <ele>358.3</ele>
        <time>2017-12-10T10:27:48.999Z</time>
      </trkpt>
      <trkpt lat="47.49616" lon="6.77355">
        <ele>358.4</ele>
        <time>2017-12-10T10:27:49.999Z</time>
      </trkpt>
      <trkpt lat="47.49619" lon="6.77354">
        <ele>359.5</ele>
        <time>2017-12-10T10:27:50.999Z</time>
      </trkpt>
      <trkpt lat="47.49622" lon="6.77353">
        <ele>359.6</ele>
        <time>2017-12-10T10:27:51.999Z</time>
      </trkpt>
      <trkpt lat="47.49626" lon="6.77351">
        <ele>360.3</ele>
        <time>2017-12-10T10:27:52.999Z</time>
      </trkpt>
      <trkpt lat="47.4963" lon="6.7735">
        <ele>360.4</ele>
        <time>2017-12-10T10:27:53.999Z</time>
      </trkpt>
      <trkpt lat="47.49633" lon="6.77349">
        <ele>361.3</ele>
        <time>2017-12-10T10:27:54.999Z</time>
      </trkpt>
      <trkpt lat="47.49638" lon="6.77348">
        <ele>361.8</ele>
        <time>2017-12-10T10:27:55.999Z</time>
      </trkpt>
      <trkpt lat="47.49641" lon="6.77346">
        <ele>361.8</ele>
        <time>2017-12-10T10:27:56.999Z</time>
      </trkpt>
      <trkpt lat="47.49645" lon="6.77345">
        <ele>361.8</ele>
        <time>2017-12-10T10:27:57.999Z</time>
      </trkpt>
      <trkpt lat="47.49649" lon="6.77344">
        <ele>360.9</ele>
        <time>2017-12-10T10:27:58.999Z</time>
      </trkpt>
      <trkpt lat="47.49653" lon="6.77343">
        <ele>360.5</ele>
        <time>2017-12-10T10:27:59.999Z</time>
      </trkpt>
      <trkpt lat="47.49657" lon="6.77342">
        <ele>360</ele>
        <time>2017-12-10T10:28:00.999Z</time>
      </trkpt>
      <trkpt lat="47.4966" lon="6.77342">
        <ele>360</ele>
        <time>2017-12-10T10:28:01.999Z</time>
      </trkpt>
      <trkpt lat="47.49664" lon="6.7734">
        <ele>359.7</ele>
        <time>2017-12-10T10:28:02.999Z</time>
      </trkpt>
      <trkpt lat="47.49668" lon="6.77339">
        <ele>359.5</ele>
        <time>2017-12-10T10:28:03.999Z</time>
      </trkpt>
      <trkpt lat="47.49671" lon="6.77338">
        <ele>359.6</ele>
        <time>2017-12-10T10:28:04.999Z</time>
      </trkpt>
      <trkpt lat="47.49675" lon="6.77337">
        <ele>359.6</ele>
        <time>2017-12-10T10:28:05.999Z</time>
      </trkpt>
      <trkpt lat="47.49678" lon="6.77336">
        <ele>359.6</ele>
        <time>2017-12-10T10:28:06.999Z</time>
      </trkpt>
      <trkpt lat="47.49682" lon="6.77336">
        <ele>359.5</ele>
        <time>2017-12-10T10:28:07.999Z</time>
      </trkpt>
      <trkpt lat="47.49685" lon="6.77336">
        <ele>359.2</ele>
        <time>2017-12-10T10:28:08.999Z</time>
      </trkpt>
      <trkpt lat="47.49689" lon="6.77336">
        <ele>359.2</ele>
        <time>2017-12-10T10:28:09.999Z</time>
      </trkpt>
      <trkpt lat="47.49692" lon="6.77336">
        <ele>359.1</ele>
        <time>2017-12-10T10:28:10.999Z</time>
      </trkpt>
      <trkpt lat="47.49695" lon="6.77336">
        <ele>359</ele>
        <time>2017-12-10T10:28:11.999Z</time>
      </trkpt>
      <trkpt lat="47.49699" lon="6.77335">
        <ele>359</ele>
        <time>2017-12-10T10:28:12.999Z</time>
      </trkpt>
      <trkpt lat="47.49703" lon="6.77335">
        <ele>359</ele>
        <time>2017-12-10T10:28:13.999Z</time>
      </trkpt>
      <trkpt lat="47.49707" lon="6.77335">
        <ele>358.9</ele>
        <time>2017-12-10T10:28:14.999Z</time>
      </trkpt>
      <trkpt lat="47.4971" lon="6.77334">
        <ele>358.3</ele>
        <time>2017-12-10T10:28:15.999Z</time>
      </trkpt>
      <trkpt lat="47.49714" lon="6.77334">
        <ele>358.3</ele>
        <time>2017-12-10T10:28:16.999Z</time>
      </trkpt>
      <trkpt lat="47.49717" lon="6.77333">
        <ele>358.3</ele>
        <time>2017-12-10T10:28:17.999Z</time>
      </trkpt>
      <trkpt lat="47.4972" lon="6.77332">
        <ele>358.3</ele>
        <time>2017-12-10T10:28:18.999Z</time>
      </trkpt>
      <trkpt lat="47.49724" lon="6.7733">
        <ele>358.5</ele>
        <time>2017-12-10T10:28:19.999Z</time>
      </trkpt>
      <trkpt lat="47.49728" lon="6.77329">
        <ele>358.3</ele>
        <time>2017-12-10T10:28:20.999Z</time>
      </trkpt>
      <trkpt lat="47.49731" lon="6.77326">
        <ele>358.3</ele>
        <time>2017-12-10T10:28:21.999Z</time>
      </trkpt>
      <trkpt lat="47.49736" lon="6.77324">
        <ele>358.3</ele>
        <time>2017-12-10T10:28:22.999Z</time>
      </trkpt>
      <trkpt lat="47.4974" lon="6.77321">
        <ele>358.3</ele>
        <time>2017-12-10T10:28:23.999Z</time>
      </trkpt>
      <trkpt lat="47.49743" lon="6.77319">
        <ele>358.2</ele>
        <time>2017-12-10T10:28:24.999Z</time>
      </trkpt>
      <trkpt lat="47.49747" lon="6.77317">
        <ele>358</ele>
        <time>2017-12-10T10:28:25.999Z</time>
      </trkpt>
      <trkpt lat="47.49751" lon="6.77315">
        <ele>357.8</ele>
        <time>2017-12-10T10:28:26.999Z</time>
      </trkpt>
      <trkpt lat="47.49755" lon="6.77313">
        <ele>356.1</ele>
        <time>2017-12-10T10:28:27.999Z</time>
      </trkpt>
      <trkpt lat="47.49759" lon="6.77311">
        <ele>355.9</ele>
        <time>2017-12-10T10:28:28.999Z</time>
      </trkpt>
      <trkpt lat="47.49762" lon="6.77311">
        <ele>355.8</ele>
        <time>2017-12-10T10:28:29.999Z</time>
      </trkpt>
      <trkpt lat="47.49764" lon="6.7731">
        <ele>355.7</ele>
        <time>2017-12-10T10:28:30.999Z</time>
      </trkpt>
      <trkpt lat="47.49766" lon="6.77309">
        <ele>355.5</ele>
        <time>2017-12-10T10:28:31.999Z</time>
      </trkpt>
      <trkpt lat="47.4977" lon="6.77309">
        <ele>355.4</ele>
        <time>2017-12-10T10:28:32.999Z</time>
      </trkpt>
      <trkpt lat="47.49773" lon="6.77309">
        <ele>355.4</ele>
        <time>2017-12-10T10:28:33.999Z</time>
      </trkpt>
      <trkpt lat="47.49776" lon="6.77309">
        <ele>355.3</ele>
        <time>2017-12-10T10:28:34.999Z</time>
      </trkpt>
      <trkpt lat="47.4978" lon="6.77308">
        <ele>354.7</ele>
        <time>2017-12-10T10:28:35.999Z</time>
      </trkpt>
      <trkpt lat="47.49784" lon="6.77308">
        <ele>354.3</ele>
        <time>2017-12-10T10:28:36.999Z</time>
      </trkpt>
      <trkpt lat="47.49788" lon="6.77308">
        <ele>354.3</ele>
        <time>2017-12-10T10:28:37.999Z</time>
      </trkpt>
      <trkpt lat="47.49791" lon="6.77307">
        <ele>355.2</ele>
        <time>2017-12-10T10:28:38.999Z</time>
      </trkpt>
      <trkpt lat="47.49795" lon="6.77307">
        <ele>355.3</ele>
        <time>2017-12-10T10:28:39.999Z</time>
      </trkpt>
      <trkpt lat="47.49799" lon="6.77308">
        <ele>355.4</ele>
        <time>2017-12-10T10:28:40.999Z</time>
      </trkpt>
      <trkpt lat="47.49801" lon="6.77308">
        <ele>355.3</ele>
        <time>2017-12-10T10:28:41.999Z</time>
      </trkpt>
      <trkpt lat="47.49804" lon="6.77308">
        <ele>355.3</ele>
        <time>2017-12-10T10:28:42.999Z</time>
      </trkpt>
      <trkpt lat="47.49807" lon="6.77308">
        <ele>355.2</ele>
        <time>2017-12-10T10:28:43.999Z</time>
      </trkpt>
      <trkpt lat="47.4981" lon="6.77308">
        <ele>355.2</ele>
        <time>2017-12-10T10:28:44.999Z</time>
      </trkpt>
      <trkpt lat="47.49814" lon="6.77307">
        <ele>355.2</ele>
        <time>2017-12-10T10:28:45.999Z</time>
      </trkpt>
      <trkpt lat="47.49817" lon="6.77307">
        <ele>355.2</ele>
        <time>2017-12-10T10:28:46.999Z</time>
      </trkpt>
      <trkpt lat="47.4982" lon="6.77308">
        <ele>355.3</ele>
        <time>2017-12-10T10:28:47.999Z</time>
      </trkpt>
      <trkpt lat="47.49823" lon="6.77309">
        <ele>355.3</ele>
        <time>2017-12-10T10:28:48.999Z</time>
      </trkpt>
      <trkpt lat="47.49826" lon="6.7731">
        <ele>355.4</ele>
        <time>2017-12-10T10:28:49.999Z</time>
      </trkpt>
      <trkpt lat="47.49829" lon="6.7731">
        <ele>355.4</ele>
        <time>2017-12-10T10:28:50.999Z</time>
      </trkpt>
      <trkpt lat="47.49832" lon="6.77309">
        <ele>355.4</ele>
        <time>2017-12-10T10:28:51.999Z</time>
      </trkpt>
      <trkpt lat="47.49836" lon="6.77308">
        <ele>355.4</ele>
        <time>2017-12-10T10:28:52.999Z</time>
      </trkpt>
      <trkpt lat="47.4984" lon="6.77307">
        <ele>355.4</ele>
        <time>2017-12-10T10:28:53.999Z</time>
      </trkpt>
      <trkpt lat="47.49844" lon="6.77305">
        <ele>355.4</ele>
        <time>2017-12-10T10:28:54.999Z</time>
      </trkpt>
      <trkpt lat="47.49848" lon="6.77304">
        <ele>355.3</ele>
        <time>2017-12-10T10:28:55.999Z</time>
      </trkpt>
      <trkpt lat="47.49851" lon="6.77303">
        <ele>355.3</ele>
        <time>2017-12-10T10:28:56.999Z</time>
      </trkpt>
      <trkpt lat="47.49854" lon="6.77303">
        <ele>355.2</ele>
        <time>2017-12-10T10:28:57.999Z</time>
      </trkpt>
      <trkpt lat="47.49858" lon="6.77301">
        <ele>355.2</ele>
        <time>2017-12-10T10:28:58.999Z</time>
      </trkpt>
      <trkpt lat="47.49862" lon="6.773">
        <ele>355.2</ele>
        <time>2017-12-10T10:28:59.999Z</time>
      </trkpt>
      <trkpt lat="47.49866" lon="6.77298">
        <ele>355.1</ele>
        <time>2017-12-10T10:29:00.999Z</time>
      </trkpt>
      <trkpt lat="47.49872" lon="6.77295">
        <ele>355</ele>
        <time>2017-12-10T10:29:01.999Z</time>
      </trkpt>
      <trkpt lat="47.49876" lon="6.77293">
        <ele>354.9</ele>
        <time>2017-12-10T10:29:02.999Z</time>
      </trkpt>
      <trkpt lat="47.49879" lon="6.77291">
        <ele>354.8</ele>
        <time>2017-12-10T10:29:03.999Z</time>
      </trkpt>
      <trkpt lat="47.49882" lon="6.7729">
        <ele>354.7</ele>
        <time>2017-12-10T10:29:04.999Z</time>
      </trkpt>
      <trkpt lat="47.49886" lon="6.77289">
        <ele>354.8</ele>
        <time>2017-12-10T10:29:05.999Z</time>
      </trkpt>
      <trkpt lat="47.49889" lon="6.77288">
        <ele>354.9</ele>
        <time>2017-12-10T10:29:06.999Z</time>
      </trkpt>
      <trkpt lat="47.49892" lon="6.77287">
        <ele>354.9</ele>
        <time>2017-12-10T10:29:07.999Z</time>
      </trkpt>
      <trkpt lat="47.49896" lon="6.77287">
        <ele>355</ele>
        <time>2017-12-10T10:29:08.999Z</time>
      </trkpt>
      <trkpt lat="47.499" lon="6.77285">
        <ele>355.6</ele>
        <time>2017-12-10T10:29:09.999Z</time>
      </trkpt>
      <trkpt lat="47.49904" lon="6.77283">
        <ele>356.6</ele>
        <time>2017-12-10T10:29:10.999Z</time>
      </trkpt>
      <trkpt lat="47.49906" lon="6.77281">
        <ele>356.7</ele>
        <time>2017-12-10T10:29:11.999Z</time>
      </trkpt>
      <trkpt lat="47.4991" lon="6.77279">
        <ele>356.8</ele>
        <time>2017-12-10T10:29:12.999Z</time>
      </trkpt>
      <trkpt lat="47.49913" lon="6.77277">
        <ele>356.9</ele>
        <time>2017-12-10T10:29:13.999Z</time>
      </trkpt>
      <trkpt lat="47.49916" lon="6.77274">
        <ele>356.9</ele>
        <time>2017-12-10T10:29:14.999Z</time>
      </trkpt>
      <trkpt lat="47.49918" lon="6.77271">
        <ele>357</ele>
        <time>2017-12-10T10:29:15.999Z</time>
      </trkpt>
      <trkpt lat="47.49922" lon="6.77269">
        <ele>357</ele>
        <time>2017-12-10T10:29:16.999Z</time>
      </trkpt>
      <trkpt lat="47.49925" lon="6.77267">
        <ele>357.1</ele>
        <time>2017-12-10T10:29:17.999Z</time>
      </trkpt>
      <trkpt lat="47.49929" lon="6.77266">
        <ele>357.1</ele>
        <time>2017-12-10T10:29:18.999Z</time>
      </trkpt>
      <trkpt lat="47.49932" lon="6.77264">
        <ele>357.2</ele>
        <time>2017-12-10T10:29:19.999Z</time>
      </trkpt>
      <trkpt lat="47.49935" lon="6.77263">
        <ele>357.2</ele>
        <time>2017-12-10T10:29:20.999Z</time>
      </trkpt>
      <trkpt lat="47.49938" lon="6.77262">
        <ele>357.2</ele>
        <time>2017-12-10T10:29:21.999Z</time>
      </trkpt>
      <trkpt lat="47.49942" lon="6.7726">
        <ele>357.3</ele>
        <time>2017-12-10T10:29:22.999Z</time>
      </trkpt>
      <trkpt lat="47.49944" lon="6.77257">
        <ele>357.3</ele>
        <time>2017-12-10T10:29:23.999Z</time>
      </trkpt>
      <trkpt lat="47.49947" lon="6.77255">
        <ele>357.3</ele>
        <time>2017-12-10T10:29:24.999Z</time>
      </trkpt>
      <trkpt lat="47.4995" lon="6.77253">
        <ele>357.3</ele>
        <time>2017-12-10T10:29:25.999Z</time>
      </trkpt>
      <trkpt lat="47.49954" lon="6.77252">
        <ele>357.4</ele>
        <time>2017-12-10T10:29:26.999Z</time>
      </trkpt>
      <trkpt lat="47.49958" lon="6.77251">
        <ele>357.5</ele>
        <time>2017-12-10T10:29:27.999Z</time>
      </trkpt>
      <trkpt lat="47.49961" lon="6.77249">
        <ele>357.6</ele>
        <time>2017-12-10T10:29:28.999Z</time>
      </trkpt>
      <trkpt lat="47.49965" lon="6.77247">
        <ele>358.7</ele>
        <time>2017-12-10T10:29:29.999Z</time>
      </trkpt>
      <trkpt lat="47.49969" lon="6.77245">
        <ele>358.6</ele>
        <time>2017-12-10T10:29:30.999Z</time>
      </trkpt>
      <trkpt lat="47.49973" lon="6.77244">
        <ele>358.7</ele>
        <time>2017-12-10T10:29:31.999Z</time>
      </trkpt>
      <trkpt lat="47.49976" lon="6.77242">
        <ele>358.7</ele>
        <time>2017-12-10T10:29:32.999Z</time>
      </trkpt>
      <trkpt lat="47.49979" lon="6.77241">
        <ele>358.8</ele>
        <time>2017-12-10T10:29:33.999Z</time>
      </trkpt>
      <trkpt lat="47.49983" lon="6.77239">
        <ele>358.8</ele>
        <time>2017-12-10T10:29:34.999Z</time>
      </trkpt>
      <trkpt lat="47.49986" lon="6.77238">
        <ele>358.9</ele>
        <time>2017-12-10T10:29:35.999Z</time>
      </trkpt>
      <trkpt lat="47.49989" lon="6.77236">
        <ele>358.9</ele>
        <time>2017-12-10T10:29:36.999Z</time>
      </trkpt>
      <trkpt lat="47.49993" lon="6.77235">
        <ele>358.9</ele>
        <time>2017-12-10T10:29:37.999Z</time>
      </trkpt>
      <trkpt lat="47.49996" lon="6.77234">
        <ele>359</ele>
        <time>2017-12-10T10:29:38.999Z</time>
      </trkpt>
      <trkpt lat="47.49998" lon="6.77233">
        <ele>359.1</ele>
        <time>2017-12-10T10:29:39.999Z</time>
      </trkpt>
      <trkpt lat="47.50001" lon="6.77233">
        <ele>359.1</ele>
        <time>2017-12-10T10:29:40.999Z</time>
      </trkpt>
      <trkpt lat="47.50003" lon="6.77233">
        <ele>359.2</ele>
        <time>2017-12-10T10:29:41.999Z</time>
      </trkpt>
      <trkpt lat="47.50008" lon="6.77233">
        <ele>359.2</ele>
        <time>2017-12-10T10:29:42.999Z</time>
      </trkpt>
      <trkpt lat="47.50012" lon="6.77233">
        <ele>359.7</ele>
        <time>2017-12-10T10:29:49.999Z</time>
      </trkpt>
      <trkpt lat="47.50014" lon="6.77232">
        <ele>359.7</ele>
        <time>2017-12-10T10:29:50.999Z</time>
      </trkpt>
      <trkpt lat="47.50017" lon="6.77231">
        <ele>359.6</ele>
        <time>2017-12-10T10:29:51.999Z</time>
      </trkpt>
      <trkpt lat="47.50019" lon="6.77229">
        <ele>359.6</ele>
        <time>2017-12-10T10:29:52.999Z</time>
      </trkpt>
      <trkpt lat="47.50022" lon="6.77227">
        <ele>359.5</ele>
        <time>2017-12-10T10:29:53.999Z</time>
      </trkpt>
      <trkpt lat="47.50024" lon="6.77225">
        <ele>359.4</ele>
        <time>2017-12-10T10:29:54.999Z</time>
      </trkpt>
      <trkpt lat="47.50026" lon="6.77225">
        <ele>359.4</ele>
        <time>2017-12-10T10:29:55.999Z</time>
      </trkpt>
      <trkpt lat="47.50029" lon="6.77224">
        <ele>359.4</ele>
        <time>2017-12-10T10:29:56.999Z</time>
      </trkpt>
      <trkpt lat="47.5003" lon="6.77224">
        <ele>359.4</ele>
        <time>2017-12-10T10:29:57.999Z</time>
      </trkpt>
      <trkpt lat="47.50033" lon="6.77223">
        <ele>359.3</ele>
        <time>2017-12-10T10:29:58.999Z</time>
      </trkpt>
      <trkpt lat="47.50037" lon="6.77221">
        <ele>359.3</ele>
        <time>2017-12-10T10:29:59.999Z</time>
      </trkpt>
      <trkpt lat="47.5004" lon="6.77219">
        <ele>359.4</ele>
        <time>2017-12-10T10:30:00.999Z</time>
      </trkpt>
      <trkpt lat="47.50042" lon="6.77218">
        <ele>359.5</ele>
        <time>2017-12-10T10:30:01.999Z</time>
      </trkpt>
      <trkpt lat="47.50045" lon="6.77217">
        <ele>359.5</ele>
        <time>2017-12-10T10:30:02.999Z</time>
      </trkpt>
      <trkpt lat="47.50048" lon="6.77214">
        <ele>359.6</ele>
        <time>2017-12-10T10:30:03.999Z</time>
      </trkpt>
      <trkpt lat="47.50051" lon="6.77213">
        <ele>359.7</ele>
        <time>2017-12-10T10:30:04.999Z</time>
      </trkpt>
      <trkpt lat="47.50055" lon="6.77212">
        <ele>359.8</ele>
        <time>2017-12-10T10:30:05.999Z</time>
      </trkpt>
      <trkpt lat="47.50058" lon="6.77212">
        <ele>359.9</ele>
        <time>2017-12-10T10:30:06.999Z</time>
      </trkpt>
      <trkpt lat="47.50063" lon="6.77211">
        <ele>359.5</ele>
        <time>2017-12-10T10:30:07.999Z</time>
      </trkpt>
      <trkpt lat="47.50067" lon="6.77209">
        <ele>359.2</ele>
        <time>2017-12-10T10:30:08.999Z</time>
      </trkpt>
      <trkpt lat="47.50071" lon="6.77207">
        <ele>359.3</ele>
        <time>2017-12-10T10:30:09.999Z</time>
      </trkpt>
      <trkpt lat="47.50074" lon="6.77205">
        <ele>359.3</ele>
        <time>2017-12-10T10:30:10.999Z</time>
      </trkpt>
      <trkpt lat="47.50077" lon="6.77204">
        <ele>359.4</ele>
        <time>2017-12-10T10:30:11.999Z</time>
      </trkpt>
      <trkpt lat="47.50081" lon="6.77202">
        <ele>359.4</ele>
        <time>2017-12-10T10:30:12.999Z</time>
      </trkpt>
      <trkpt lat="47.50084" lon="6.772">
        <ele>359.3</ele>
        <time>2017-12-10T10:30:13.999Z</time>
      </trkpt>
      <trkpt lat="47.50088" lon="6.77199">
        <ele>359.3</ele>
        <time>2017-12-10T10:30:14.999Z</time>
      </trkpt>
      <trkpt lat="47.50091" lon="6.77198">
        <ele>359.2</ele>
        <time>2017-12-10T10:30:15.999Z</time>
      </trkpt>
      <trkpt lat="47.50095" lon="6.77197">
        <ele>358.8</ele>
        <time>2017-12-10T10:30:16.999Z</time>
      </trkpt>
      <trkpt lat="47.501" lon="6.77197">
        <ele>358.1</ele>
        <time>2017-12-10T10:30:17.999Z</time>
      </trkpt>
      <trkpt lat="47.50104" lon="6.77197">
        <ele>357.8</ele>
        <time>2017-12-10T10:30:18.999Z</time>
      </trkpt>
      <trkpt lat="47.50108" lon="6.77197">
        <ele>357.7</ele>
        <time>2017-12-10T10:30:19.999Z</time>
      </trkpt>
      <trkpt lat="47.50113" lon="6.77198">
        <ele>357.3</ele>
        <time>2017-12-10T10:30:20.999Z</time>
      </trkpt>
      <trkpt lat="47.50118" lon="6.77199">
        <ele>357.5</ele>
        <time>2017-12-10T10:30:21.999Z</time>
      </trkpt>
      <trkpt lat="47.50123" lon="6.772">
        <ele>357.7</ele>
        <time>2017-12-10T10:30:22.999Z</time>
      </trkpt>
      <trkpt lat="47.50129" lon="6.77201">
        <ele>358.5</ele>
        <time>2017-12-10T10:30:23.999Z</time>
      </trkpt>
      <trkpt lat="47.50134" lon="6.77203">
        <ele>358.1</ele>
        <time>2017-12-10T10:30:24.999Z</time>
      </trkpt>
      <trkpt lat="47.50138" lon="6.77205">
        <ele>358.7</ele>
        <time>2017-12-10T10:30:25.999Z</time>
      </trkpt>
      <trkpt lat="47.50143" lon="6.77208">
        <ele>358.3</ele>
        <time>2017-12-10T10:30:26.999Z</time>
      </trkpt>
      <trkpt lat="47.50148" lon="6.77211">
        <ele>357.9</ele>
        <time>2017-12-10T10:30:27.999Z</time>
      </trkpt>
      <trkpt lat="47.50153" lon="6.77215">
        <ele>356.4</ele>
        <time>2017-12-10T10:30:28.999Z</time>
      </trkpt>
      <trkpt lat="47.50158" lon="6.77218">
        <ele>355.7</ele>
        <time>2017-12-10T10:30:29.999Z</time>
      </trkpt>
      <trkpt lat="47.50162" lon="6.77222">
        <ele>355</ele>
        <time>2017-12-10T10:30:30.999Z</time>
      </trkpt>
      <trkpt lat="47.50166" lon="6.77225">
        <ele>354.3</ele>
        <time>2017-12-10T10:30:31.999Z</time>
      </trkpt>
      <trkpt lat="47.50169" lon="6.77228">
        <ele>353</ele>
        <time>2017-12-10T10:30:32.999Z</time>
      </trkpt>
      <trkpt lat="47.50173" lon="6.77231">
        <ele>352.3</ele>
        <time>2017-12-10T10:30:33.999Z</time>
      </trkpt>
      <trkpt lat="47.50176" lon="6.77234">
        <ele>351.7</ele>
        <time>2017-12-10T10:30:34.999Z</time>
      </trkpt>
      <trkpt lat="47.5018" lon="6.77237">
        <ele>351.1</ele>
        <time>2017-12-10T10:30:35.999Z</time>
      </trkpt>
      <trkpt lat="47.50183" lon="6.7724">
        <ele>350.7</ele>
        <time>2017-12-10T10:30:36.999Z</time>
      </trkpt>
      <trkpt lat="47.50188" lon="6.77243">
        <ele>350.8</ele>
        <time>2017-12-10T10:30:37.999Z</time>
      </trkpt>
      <trkpt lat="47.50192" lon="6.77247">
        <ele>350.8</ele>
        <time>2017-12-10T10:30:38.999Z</time>
      </trkpt>
      <trkpt lat="47.50196" lon="6.7725">
        <ele>351.5</ele>
        <time>2017-12-10T10:30:39.999Z</time>
      </trkpt>
      <trkpt lat="47.502" lon="6.77253">
        <ele>351.6</ele>
        <time>2017-12-10T10:30:40.999Z</time>
      </trkpt>
      <trkpt lat="47.50205" lon="6.77256">
        <ele>351.4</ele>
        <time>2017-12-10T10:30:41.999Z</time>
      </trkpt>
      <trkpt lat="47.50208" lon="6.77259">
        <ele>351.2</ele>
        <time>2017-12-10T10:30:42.999Z</time>
      </trkpt>
      <trkpt lat="47.50212" lon="6.77262">
        <ele>351.5</ele>
        <time>2017-12-10T10:30:43.999Z</time>
      </trkpt>
      <trkpt lat="47.50216" lon="6.77265">
        <ele>351.8</ele>
        <time>2017-12-10T10:30:44.999Z</time>
      </trkpt>
      <trkpt lat="47.5022" lon="6.77267">
        <ele>351.9</ele>
        <time>2017-12-10T10:30:45.999Z</time>
      </trkpt>
      <trkpt lat="47.50224" lon="6.77269">
        <ele>351.8</ele>
        <time>2017-12-10T10:30:46.999Z</time>
      </trkpt>
      <trkpt lat="47.50229" lon="6.77272">
        <ele>351.9</ele>
        <time>2017-12-10T10:30:47.999Z</time>
      </trkpt>
      <trkpt lat="47.50234" lon="6.77276">
        <ele>351.9</ele>
        <time>2017-12-10T10:30:48.999Z</time>
      </trkpt>
      <trkpt lat="47.50238" lon="6.77278">
        <ele>353.1</ele>
        <time>2017-12-10T10:30:49.999Z</time>
      </trkpt>
      <trkpt lat="47.50242" lon="6.7728">
        <ele>353.8</ele>
        <time>2017-12-10T10:30:50.999Z</time>
      </trkpt>
      <trkpt lat="47.50246" lon="6.77283">
        <ele>355</ele>
        <time>2017-12-10T10:30:51.999Z</time>
      </trkpt>
      <trkpt lat="47.50249" lon="6.77285">
        <ele>355.9</ele>
        <time>2017-12-10T10:30:52.999Z</time>
      </trkpt>
      <trkpt lat="47.50253" lon="6.77288">
        <ele>356.2</ele>
        <time>2017-12-10T10:30:53.999Z</time>
      </trkpt>
      <trkpt lat="47.50256" lon="6.77289">
        <ele>356.2</ele>
        <time>2017-12-10T10:30:54.999Z</time>
      </trkpt>
      <trkpt lat="47.5026" lon="6.77292">
        <ele>356.7</ele>
        <time>2017-12-10T10:30:55.999Z</time>
      </trkpt>
      <trkpt lat="47.50264" lon="6.77295">
        <ele>357.5</ele>
        <time>2017-12-10T10:30:56.999Z</time>
      </trkpt>
      <trkpt lat="47.50268" lon="6.77297">
        <ele>357.8</ele>
        <time>2017-12-10T10:30:57.999Z</time>
      </trkpt>
      <trkpt lat="47.50271" lon="6.773">
        <ele>357.9</ele>
        <time>2017-12-10T10:30:58.999Z</time>
      </trkpt>
      <trkpt lat="47.50274" lon="6.77303">
        <ele>357.5</ele>
        <time>2017-12-10T10:30:59.999Z</time>
      </trkpt>
      <trkpt lat="47.50278" lon="6.77306">
        <ele>357.4</ele>
        <time>2017-12-10T10:31:00.999Z</time>
      </trkpt>
      <trkpt lat="47.50281" lon="6.77308">
        <ele>357.4</ele>
        <time>2017-12-10T10:31:01.999Z</time>
      </trkpt>
      <trkpt lat="47.50284" lon="6.7731">
        <ele>357.3</ele>
        <time>2017-12-10T10:31:02.999Z</time>
      </trkpt>
      <trkpt lat="47.50288" lon="6.77312">
        <ele>357.3</ele>
        <time>2017-12-10T10:31:03.999Z</time>
      </trkpt>
      <trkpt lat="47.50291" lon="6.77315">
        <ele>357.3</ele>
        <time>2017-12-10T10:31:04.999Z</time>
      </trkpt>
      <trkpt lat="47.50296" lon="6.77318">
        <ele>356.7</ele>
        <time>2017-12-10T10:31:05.999Z</time>
      </trkpt>
      <trkpt lat="47.503" lon="6.77321">
        <ele>356.5</ele>
        <time>2017-12-10T10:31:06.999Z</time>
      </trkpt>
      <trkpt lat="47.50303" lon="6.77323">
        <ele>356.3</ele>
        <time>2017-12-10T10:31:07.999Z</time>
      </trkpt>
      <trkpt lat="47.50307" lon="6.77326">
        <ele>356.3</ele>
        <time>2017-12-10T10:31:08.999Z</time>
      </trkpt>
      <trkpt lat="47.50311" lon="6.7733">
        <ele>356.1</ele>
        <time>2017-12-10T10:31:09.999Z</time>
      </trkpt>
      <trkpt lat="47.50315" lon="6.77333">
        <ele>356.9</ele>
        <time>2017-12-10T10:31:10.999Z</time>
      </trkpt>
      <trkpt lat="47.50318" lon="6.77336">
        <ele>357.3</ele>
        <time>2017-12-10T10:31:11.999Z</time>
      </trkpt>
      <trkpt lat="47.50321" lon="6.77338">
        <ele>358.3</ele>
        <time>2017-12-10T10:31:12.999Z</time>
      </trkpt>
      <trkpt lat="47.50325" lon="6.77341">
        <ele>358.2</ele>
        <time>2017-12-10T10:31:13.999Z</time>
      </trkpt>
      <trkpt lat="47.50328" lon="6.77343">
        <ele>358.3</ele>
        <time>2017-12-10T10:31:14.999Z</time>
      </trkpt>
      <trkpt lat="47.50332" lon="6.77346">
        <ele>359.3</ele>
        <time>2017-12-10T10:31:15.999Z</time>
      </trkpt>
      <trkpt lat="47.50336" lon="6.77349">
        <ele>360.2</ele>
        <time>2017-12-10T10:31:16.999Z</time>
      </trkpt>
      <trkpt lat="47.50341" lon="6.77351">
        <ele>360.6</ele>
        <time>2017-12-10T10:31:17.999Z</time>
      </trkpt>
      <trkpt lat="47.50344" lon="6.77354">
        <ele>361.4</ele>
        <time>2017-12-10T10:31:18.999Z</time>
      </trkpt>
      <trkpt lat="47.50348" lon="6.77357">
        <ele>361.5</ele>
        <time>2017-12-10T10:31:19.999Z</time>
      </trkpt>
      <trkpt lat="47.50351" lon="6.77359">
        <ele>362.4</ele>
        <time>2017-12-10T10:31:20.999Z</time>
      </trkpt>
      <trkpt lat="47.50354" lon="6.77362">
        <ele>362.5</ele>
        <time>2017-12-10T10:31:21.999Z</time>
      </trkpt>
      <trkpt lat="47.50357" lon="6.77365">
        <ele>362.7</ele>
        <time>2017-12-10T10:31:22.999Z</time>
      </trkpt>
      <trkpt lat="47.50361" lon="6.77368">
        <ele>362.6</ele>
        <time>2017-12-10T10:31:23.999Z</time>
      </trkpt>
      <trkpt lat="47.50364" lon="6.77371">
        <ele>362.4</ele>
        <time>2017-12-10T10:31:24.999Z</time>
      </trkpt>
      <trkpt lat="47.50367" lon="6.77374">
        <ele>362.4</ele>
        <time>2017-12-10T10:31:25.999Z</time>
      </trkpt>
      <trkpt lat="47.50371" lon="6.77376">
        <ele>361.8</ele>
        <time>2017-12-10T10:31:26.999Z</time>
      </trkpt>
      <trkpt lat="47.50375" lon="6.77379">
        <ele>360.3</ele>
        <time>2017-12-10T10:31:27.999Z</time>
      </trkpt>
      <trkpt lat="47.50378" lon="6.77382">
        <ele>359.3</ele>
        <time>2017-12-10T10:31:28.999Z</time>
      </trkpt>
      <trkpt lat="47.50381" lon="6.77385">
        <ele>359.1</ele>
        <time>2017-12-10T10:31:29.999Z</time>
      </trkpt>
      <trkpt lat="47.50384" lon="6.77388">
        <ele>359.2</ele>
        <time>2017-12-10T10:31:30.999Z</time>
      </trkpt>
      <trkpt lat="47.50388" lon="6.77392">
        <ele>359</ele>
        <time>2017-12-10T10:31:31.999Z</time>
      </trkpt>
      <trkpt lat="47.50391" lon="6.77394">
        <ele>359</ele>
        <time>2017-12-10T10:31:32.999Z</time>
      </trkpt>
      <trkpt lat="47.50394" lon="6.77397">
        <ele>359</ele>
        <time>2017-12-10T10:31:33.999Z</time>
      </trkpt>
      <trkpt lat="47.50397" lon="6.77401">
        <ele>359.3</ele>
        <time>2017-12-10T10:31:34.999Z</time>
      </trkpt>
      <trkpt lat="47.504" lon="6.77403">
        <ele>359.3</ele>
        <time>2017-12-10T10:31:35.999Z</time>
      </trkpt>
      <trkpt lat="47.50402" lon="6.77405">
        <ele>359.4</ele>
        <time>2017-12-10T10:31:36.999Z</time>
      </trkpt>
      <trkpt lat="47.50405" lon="6.77407">
        <ele>359.5</ele>
        <time>2017-12-10T10:31:37.999Z</time>
      </trkpt>
      <trkpt lat="47.50409" lon="6.7741">
        <ele>359.6</ele>
        <time>2017-12-10T10:31:38.999Z</time>
      </trkpt>
      <trkpt lat="47.50412" lon="6.77412">
        <ele>359.9</ele>
        <time>2017-12-10T10:31:39.999Z</time>
      </trkpt>
      <trkpt lat="47.50416" lon="6.77415">
        <ele>360.4</ele>
        <time>2017-12-10T10:31:40.999Z</time>
      </trkpt>
      <trkpt lat="47.5042" lon="6.77418">
        <ele>360.8</ele>
        <time>2017-12-10T10:31:41.999Z</time>
      </trkpt>
      <trkpt lat="47.50425" lon="6.7742">
        <ele>361.2</ele>
        <time>2017-12-10T10:31:42.999Z</time>
      </trkpt>
      <trkpt lat="47.50428" lon="6.77422">
        <ele>361.5</ele>
        <time>2017-12-10T10:31:43.999Z</time>
      </trkpt>
      <trkpt lat="47.50432" lon="6.77425">
        <ele>361.5</ele>
        <time>2017-12-10T10:31:44.999Z</time>
      </trkpt>
      <trkpt lat="47.50436" lon="6.77429">
        <ele>360.9</ele>
        <time>2017-12-10T10:31:45.999Z</time>
      </trkpt>
      <trkpt lat="47.50439" lon="6.77432">
        <ele>360.9</ele>
        <time>2017-12-10T10:31:46.999Z</time>
      </trkpt>
      <trkpt lat="47.50442" lon="6.77435">
        <ele>360.8</ele>
        <time>2017-12-10T10:31:47.999Z</time>
      </trkpt>
      <trkpt lat="47.50445" lon="6.77439">
        <ele>360.8</ele>
        <time>2017-12-10T10:31:48.999Z</time>
      </trkpt>
      <trkpt lat="47.50448" lon="6.77442">
        <ele>360.8</ele>
        <time>2017-12-10T10:31:49.999Z</time>
      </trkpt>
      <trkpt lat="47.50452" lon="6.77444">
        <ele>360.1</ele>
        <time>2017-12-10T10:31:50.999Z</time>
      </trkpt>
      <trkpt lat="47.50455" lon="6.77447">
        <ele>360</ele>
        <time>2017-12-10T10:31:51.999Z</time>
      </trkpt>
      <trkpt lat="47.50459" lon="6.77449">
        <ele>359.8</ele>
        <time>2017-12-10T10:31:52.999Z</time>
      </trkpt>
      <trkpt lat="47.50462" lon="6.77452">
        <ele>359.7</ele>
        <time>2017-12-10T10:31:53.999Z</time>
      </trkpt>
      <trkpt lat="47.50464" lon="6.77454">
        <ele>359.5</ele>
        <time>2017-12-10T10:31:54.999Z</time>
      </trkpt>
      <trkpt lat="47.50468" lon="6.77457">
        <ele>359.3</ele>
        <time>2017-12-10T10:31:55.999Z</time>
      </trkpt>
      <trkpt lat="47.50471" lon="6.77459">
        <ele>357.5</ele>
        <time>2017-12-10T10:31:56.999Z</time>
      </trkpt>
      <trkpt lat="47.50474" lon="6.77461">
        <ele>356.2</ele>
        <time>2017-12-10T10:31:57.999Z</time>
      </trkpt>
      <trkpt lat="47.50477" lon="6.77463">
        <ele>356.1</ele>
        <time>2017-12-10T10:31:58.999Z</time>
      </trkpt>
      <trkpt lat="47.5048" lon="6.77465">
        <ele>356</ele>
        <time>2017-12-10T10:31:59.999Z</time>
      </trkpt>
      <trkpt lat="47.50483" lon="6.77469">
        <ele>354.9</ele>
        <time>2017-12-10T10:32:00.999Z</time>
      </trkpt>
      <trkpt lat="47.50485" lon="6.77471">
        <ele>354.7</ele>
        <time>2017-12-10T10:32:01.999Z</time>
      </trkpt>
      <trkpt lat="47.50489" lon="6.77474">
        <ele>354.7</ele>
        <time>2017-12-10T10:32:02.999Z</time>
      </trkpt>
      <trkpt lat="47.50492" lon="6.77476">
        <ele>354.7</ele>
        <time>2017-12-10T10:32:03.999Z</time>
      </trkpt>
      <trkpt lat="47.50496" lon="6.7748">
        <ele>355.7</ele>
        <time>2017-12-10T10:32:04.999Z</time>
      </trkpt>
      <trkpt lat="47.505" lon="6.77483">
        <ele>355.7</ele>
        <time>2017-12-10T10:32:05.999Z</time>
      </trkpt>
      <trkpt lat="47.50503" lon="6.77488">
        <ele>355.8</ele>
        <time>2017-12-10T10:32:06.999Z</time>
      </trkpt>
      <trkpt lat="47.50508" lon="6.77492">
        <ele>355.7</ele>
        <time>2017-12-10T10:32:07.999Z</time>
      </trkpt>
      <trkpt lat="47.50511" lon="6.77496">
        <ele>355.7</ele>
        <time>2017-12-10T10:32:08.999Z</time>
      </trkpt>
      <trkpt lat="47.50515" lon="6.77499">
        <ele>355.7</ele>
        <time>2017-12-10T10:32:09.999Z</time>
      </trkpt>
      <trkpt lat="47.50518" lon="6.77501">
        <ele>355.7</ele>
        <time>2017-12-10T10:32:10.999Z</time>
      </trkpt>
      <trkpt lat="47.50521" lon="6.77504">
        <ele>356.4</ele>
        <time>2017-12-10T10:32:11.999Z</time>
      </trkpt>
      <trkpt lat="47.50525" lon="6.77506">
        <ele>356.9</ele>
        <time>2017-12-10T10:32:12.999Z</time>
      </trkpt>
      <trkpt lat="47.50529" lon="6.77508">
        <ele>357</ele>
        <time>2017-12-10T10:32:13.999Z</time>
      </trkpt>
      <trkpt lat="47.50532" lon="6.7751">
        <ele>357.1</ele>
        <time>2017-12-10T10:32:14.999Z</time>
      </trkpt>
      <trkpt lat="47.50536" lon="6.77512">
        <ele>357.3</ele>
        <time>2017-12-10T10:32:15.999Z</time>
      </trkpt>
      <trkpt lat="47.50538" lon="6.77513">
        <ele>357.3</ele>
        <time>2017-12-10T10:32:16.999Z</time>
      </trkpt>
      <trkpt lat="47.50541" lon="6.77515">
        <ele>357.3</ele>
        <time>2017-12-10T10:32:17.999Z</time>
      </trkpt>
      <trkpt lat="47.50545" lon="6.77518">
        <ele>357.3</ele>
        <time>2017-12-10T10:32:18.999Z</time>
      </trkpt>
      <trkpt lat="47.50548" lon="6.7752">
        <ele>357.2</ele>
        <time>2017-12-10T10:32:19.999Z</time>
      </trkpt>
      <trkpt lat="47.5055" lon="6.77524">
        <ele>357.1</ele>
        <time>2017-12-10T10:32:20.999Z</time>
      </trkpt>
      <trkpt lat="47.50553" lon="6.77529">
        <ele>357.1</ele>
        <time>2017-12-10T10:32:21.999Z</time>
      </trkpt>
      <trkpt lat="47.50555" lon="6.77533">
        <ele>357.1</ele>
        <time>2017-12-10T10:32:22.999Z</time>
      </trkpt>
      <trkpt lat="47.50557" lon="6.77537">
        <ele>357.1</ele>
        <time>2017-12-10T10:32:23.999Z</time>
      </trkpt>
      <trkpt lat="47.50559" lon="6.7754">
        <ele>357</ele>
        <time>2017-12-10T10:32:24.999Z</time>
      </trkpt>
      <trkpt lat="47.50561" lon="6.77543">
        <ele>357</ele>
        <time>2017-12-10T10:32:25.999Z</time>
      </trkpt>
      <trkpt lat="47.50564" lon="6.77546">
        <ele>357</ele>
        <time>2017-12-10T10:32:26.999Z</time>
      </trkpt>
      <trkpt lat="47.50566" lon="6.77547">
        <ele>356.9</ele>
        <time>2017-12-10T10:32:27.999Z</time>
      </trkpt>
      <trkpt lat="47.5057" lon="6.77547">
        <ele>356.8</ele>
        <time>2017-12-10T10:32:28.999Z</time>
      </trkpt>
      <trkpt lat="47.50574" lon="6.77547">
        <ele>356.8</ele>
        <time>2017-12-10T10:32:29.999Z</time>
      </trkpt>
      <trkpt lat="47.50578" lon="6.77545">
        <ele>357.7</ele>
        <time>2017-12-10T10:32:30.999Z</time>
      </trkpt>
      <trkpt lat="47.50584" lon="6.77541">
        <ele>357.7</ele>
        <time>2017-12-10T10:32:31.999Z</time>
      </trkpt>
      <trkpt lat="47.50586" lon="6.77537">
        <ele>357.7</ele>
        <time>2017-12-10T10:32:32.999Z</time>
      </trkpt>
      <trkpt lat="47.50588" lon="6.77534">
        <ele>357.7</ele>
        <time>2017-12-10T10:32:33.999Z</time>
      </trkpt>
      <trkpt lat="47.5059" lon="6.77532">
        <ele>357.7</ele>
        <time>2017-12-10T10:32:34.999Z</time>
      </trkpt>
      <trkpt lat="47.50592" lon="6.7753">
        <ele>357.7</ele>
        <time>2017-12-10T10:32:35.999Z</time>
      </trkpt>
      <trkpt lat="47.50595" lon="6.77529">
        <ele>357.7</ele>
        <time>2017-12-10T10:32:36.999Z</time>
      </trkpt>
      <trkpt lat="47.50598" lon="6.77529">
        <ele>357.7</ele>
        <time>2017-12-10T10:32:37.999Z</time>
      </trkpt>
      <trkpt lat="47.50602" lon="6.7753">
        <ele>357.6</ele>
        <time>2017-12-10T10:32:38.999Z</time>
      </trkpt>
      <trkpt lat="47.50605" lon="6.77531">
        <ele>357.5</ele>
        <time>2017-12-10T10:32:39.999Z</time>
      </trkpt>
      <trkpt lat="47.50609" lon="6.77532">
        <ele>357.5</ele>
        <time>2017-12-10T10:32:40.999Z</time>
      </trkpt>
      <trkpt lat="47.50612" lon="6.77534">
        <ele>357.4</ele>
        <time>2017-12-10T10:32:41.999Z</time>
      </trkpt>
      <trkpt lat="47.50617" lon="6.77534">
        <ele>357.2</ele>
        <time>2017-12-10T10:32:42.999Z</time>
      </trkpt>
      <trkpt lat="47.5062" lon="6.77535">
        <ele>357</ele>
        <time>2017-12-10T10:32:43.999Z</time>
      </trkpt>
      <trkpt lat="47.50624" lon="6.77535">
        <ele>356.8</ele>
        <time>2017-12-10T10:32:44.999Z</time>
      </trkpt>
      <trkpt lat="47.50628" lon="6.77535">
        <ele>356.5</ele>
        <time>2017-12-10T10:32:45.999Z</time>
      </trkpt>
      <trkpt lat="47.50632" lon="6.77534">
        <ele>356.3</ele>
        <time>2017-12-10T10:32:46.999Z</time>
      </trkpt>
      <trkpt lat="47.50635" lon="6.77533">
        <ele>356.1</ele>
        <time>2017-12-10T10:32:47.999Z</time>
      </trkpt>
      <trkpt lat="47.50639" lon="6.7753">
        <ele>356</ele>
        <time>2017-12-10T10:32:48.999Z</time>
      </trkpt>
      <trkpt lat="47.50643" lon="6.77531">
        <ele>356</ele>
        <time>2017-12-10T10:32:49.999Z</time>
      </trkpt>
      <trkpt lat="47.50646" lon="6.77531">
        <ele>355.9</ele>
        <time>2017-12-10T10:32:50.999Z</time>
      </trkpt>
      <trkpt lat="47.50649" lon="6.77532">
        <ele>355.8</ele>
        <time>2017-12-10T10:32:51.999Z</time>
      </trkpt>
      <trkpt lat="47.50653" lon="6.77532">
        <ele>355.5</ele>
        <time>2017-12-10T10:32:52.999Z</time>
      </trkpt>
      <trkpt lat="47.5066" lon="6.77533">
        <ele>355.5</ele>
        <time>2017-12-10T10:32:53.999Z</time>
      </trkpt>
      <trkpt lat="47.50664" lon="6.77533">
        <ele>355.6</ele>
        <time>2017-12-10T10:32:54.999Z</time>
      </trkpt>
      <trkpt lat="47.50668" lon="6.77533">
        <ele>355.7</ele>
        <time>2017-12-10T10:32:55.999Z</time>
      </trkpt>
      <trkpt lat="47.50671" lon="6.77532">
        <ele>355.7</ele>
        <time>2017-12-10T10:32:56.999Z</time>
      </trkpt>
      <trkpt lat="47.50673" lon="6.77531">
        <ele>355.7</ele>
        <time>2017-12-10T10:32:57.999Z</time>
      </trkpt>
      <trkpt lat="47.50676" lon="6.77531">
        <ele>355.8</ele>
        <time>2017-12-10T10:32:58.999Z</time>
      </trkpt>
      <trkpt lat="47.50679" lon="6.77529">
        <ele>356.8</ele>
        <time>2017-12-10T10:32:59.999Z</time>
      </trkpt>
      <trkpt lat="47.50683" lon="6.77527">
        <ele>357.6</ele>
        <time>2017-12-10T10:33:00.999Z</time>
      </trkpt>
      <trkpt lat="47.50688" lon="6.77527">
        <ele>358.1</ele>
        <time>2017-12-10T10:33:01.999Z</time>
      </trkpt>
      <trkpt lat="47.50692" lon="6.77527">
        <ele>359.3</ele>
        <time>2017-12-10T10:33:02.999Z</time>
      </trkpt>
      <trkpt lat="47.50697" lon="6.77527">
        <ele>359.7</ele>
        <time>2017-12-10T10:33:03.999Z</time>
      </trkpt>
      <trkpt lat="47.50701" lon="6.77528">
        <ele>360.1</ele>
        <time>2017-12-10T10:33:04.999Z</time>
      </trkpt>
      <trkpt lat="47.50705" lon="6.77528">
        <ele>360.9</ele>
        <time>2017-12-10T10:33:05.999Z</time>
      </trkpt>
      <trkpt lat="47.50709" lon="6.77528">
        <ele>360.9</ele>
        <time>2017-12-10T10:33:06.999Z</time>
      </trkpt>
      <trkpt lat="47.50713" lon="6.77529">
        <ele>360.7</ele>
        <time>2017-12-10T10:33:07.999Z</time>
      </trkpt>
      <trkpt lat="47.50718" lon="6.77531">
        <ele>360.7</ele>
        <time>2017-12-10T10:33:08.999Z</time>
      </trkpt>
      <trkpt lat="47.50722" lon="6.77533">
        <ele>360.7</ele>
        <time>2017-12-10T10:33:09.999Z</time>
      </trkpt>
      <trkpt lat="47.50725" lon="6.77536">
        <ele>360.7</ele>
        <time>2017-12-10T10:33:10.999Z</time>
      </trkpt>
      <trkpt lat="47.5073" lon="6.77538">
        <ele>360.7</ele>
        <time>2017-12-10T10:33:11.999Z</time>
      </trkpt>
      <trkpt lat="47.50734" lon="6.77541">
        <ele>361.2</ele>
        <time>2017-12-10T10:33:12.999Z</time>
      </trkpt>
      <trkpt lat="47.50738" lon="6.77544">
        <ele>361.3</ele>
        <time>2017-12-10T10:33:13.999Z</time>
      </trkpt>
      <trkpt lat="47.50743" lon="6.77547">
        <ele>361.2</ele>
        <time>2017-12-10T10:33:14.999Z</time>
      </trkpt>
      <trkpt lat="47.50747" lon="6.77551">
        <ele>361.1</ele>
        <time>2017-12-10T10:33:15.999Z</time>
      </trkpt>
      <trkpt lat="47.50751" lon="6.77554">
        <ele>360.6</ele>
        <time>2017-12-10T10:33:16.999Z</time>
      </trkpt>
      <trkpt lat="47.50754" lon="6.77557">
        <ele>360.5</ele>
        <time>2017-12-10T10:33:17.999Z</time>
      </trkpt>
      <trkpt lat="47.50757" lon="6.7756">
        <ele>360.4</ele>
        <time>2017-12-10T10:33:18.999Z</time>
      </trkpt>
      <trkpt lat="47.5076" lon="6.77561">
        <ele>360</ele>
        <time>2017-12-10T10:33:19.999Z</time>
      </trkpt>
      <trkpt lat="47.50764" lon="6.77563">
        <ele>359.8</ele>
        <time>2017-12-10T10:33:20.999Z</time>
      </trkpt>
      <trkpt lat="47.50767" lon="6.77564">
        <ele>359.8</ele>
        <time>2017-12-10T10:33:21.999Z</time>
      </trkpt>
      <trkpt lat="47.50769" lon="6.77565">
        <ele>359.8</ele>
        <time>2017-12-10T10:33:22.999Z</time>
      </trkpt>
      <trkpt lat="47.50771" lon="6.77567">
        <ele>359.8</ele>
        <time>2017-12-10T10:33:23.999Z</time>
      </trkpt>
      <trkpt lat="47.50774" lon="6.7757">
        <ele>359.9</ele>
        <time>2017-12-10T10:33:24.999Z</time>
      </trkpt>
      <trkpt lat="47.50777" lon="6.77572">
        <ele>359.9</ele>
        <time>2017-12-10T10:33:25.999Z</time>
      </trkpt>
      <trkpt lat="47.50779" lon="6.77574">
        <ele>359.9</ele>
        <time>2017-12-10T10:33:26.999Z</time>
      </trkpt>
      <trkpt lat="47.50782" lon="6.77577">
        <ele>359.8</ele>
        <time>2017-12-10T10:33:27.999Z</time>
      </trkpt>
      <trkpt lat="47.50785" lon="6.77579">
        <ele>359.7</ele>
        <time>2017-12-10T10:33:28.999Z</time>
      </trkpt>
      <trkpt lat="47.50789" lon="6.77581">
        <ele>359.7</ele>
        <time>2017-12-10T10:33:29.999Z</time>
      </trkpt>
      <trkpt lat="47.50792" lon="6.77584">
        <ele>359.8</ele>
        <time>2017-12-10T10:33:30.999Z</time>
      </trkpt>
      <trkpt lat="47.50796" lon="6.77587">
        <ele>359.8</ele>
        <time>2017-12-10T10:33:31.999Z</time>
      </trkpt>
      <trkpt lat="47.508" lon="6.7759">
        <ele>359.7</ele>
        <time>2017-12-10T10:33:32.999Z</time>
      </trkpt>
      <trkpt lat="47.50804" lon="6.77594">
        <ele>358.7</ele>
        <time>2017-12-10T10:33:33.999Z</time>
      </trkpt>
      <trkpt lat="47.50808" lon="6.77598">
        <ele>358.6</ele>
        <time>2017-12-10T10:33:34.999Z</time>
      </trkpt>
      <trkpt lat="47.50811" lon="6.77602">
        <ele>358.4</ele>
        <time>2017-12-10T10:33:35.999Z</time>
      </trkpt>
      <trkpt lat="47.50815" lon="6.77606">
        <ele>358.3</ele>
        <time>2017-12-10T10:33:36.999Z</time>
      </trkpt>
      <trkpt lat="47.50818" lon="6.77609">
        <ele>358.1</ele>
        <time>2017-12-10T10:33:37.999Z</time>
      </trkpt>
      <trkpt lat="47.50821" lon="6.77613">
        <ele>358</ele>
        <time>2017-12-10T10:33:38.999Z</time>
      </trkpt>
      <trkpt lat="47.50826" lon="6.77618">
        <ele>357.9</ele>
        <time>2017-12-10T10:33:39.999Z</time>
      </trkpt>
      <trkpt lat="47.5083" lon="6.77621">
        <ele>356.6</ele>
        <time>2017-12-10T10:33:40.999Z</time>
      </trkpt>
      <trkpt lat="47.50833" lon="6.77623">
        <ele>356.4</ele>
        <time>2017-12-10T10:33:41.999Z</time>
      </trkpt>
      <trkpt lat="47.50837" lon="6.77626">
        <ele>356.3</ele>
        <time>2017-12-10T10:33:42.999Z</time>
      </trkpt>
      <trkpt lat="47.50841" lon="6.77629">
        <ele>355.3</ele>
        <time>2017-12-10T10:33:43.999Z</time>
      </trkpt>
      <trkpt lat="47.50844" lon="6.77633">
        <ele>355.1</ele>
        <time>2017-12-10T10:33:44.999Z</time>
      </trkpt>
      <trkpt lat="47.50848" lon="6.77637">
        <ele>355</ele>
        <time>2017-12-10T10:33:45.999Z</time>
      </trkpt>
      <trkpt lat="47.50852" lon="6.77641">
        <ele>355</ele>
        <time>2017-12-10T10:33:46.999Z</time>
      </trkpt>
      <trkpt lat="47.50855" lon="6.77643">
        <ele>354.9</ele>
        <time>2017-12-10T10:33:47.999Z</time>
      </trkpt>
      <trkpt lat="47.50858" lon="6.77646">
        <ele>355</ele>
        <time>2017-12-10T10:33:48.999Z</time>
      </trkpt>
      <trkpt lat="47.50861" lon="6.77649">
        <ele>354.9</ele>
        <time>2017-12-10T10:33:49.999Z</time>
      </trkpt>
      <trkpt lat="47.50863" lon="6.77651">
        <ele>354.8</ele>
        <time>2017-12-10T10:33:50.999Z</time>
      </trkpt>
      <trkpt lat="47.50866" lon="6.77653">
        <ele>354.9</ele>
        <time>2017-12-10T10:33:51.999Z</time>
      </trkpt>
      <trkpt lat="47.50868" lon="6.77656">
        <ele>354.8</ele>
        <time>2017-12-10T10:33:52.999Z</time>
      </trkpt>
      <trkpt lat="47.5087" lon="6.77658">
        <ele>354.7</ele>
        <time>2017-12-10T10:33:53.999Z</time>
      </trkpt>
      <trkpt lat="47.50872" lon="6.7766">
        <ele>354.7</ele>
        <time>2017-12-10T10:33:54.999Z</time>
      </trkpt>
      <trkpt lat="47.50874" lon="6.77664">
        <ele>354.6</ele>
        <time>2017-12-10T10:33:55.999Z</time>
      </trkpt>
      <trkpt lat="47.50876" lon="6.77667">
        <ele>354.6</ele>
        <time>2017-12-10T10:33:56.999Z</time>
      </trkpt>
      <trkpt lat="47.50878" lon="6.77671">
        <ele>354.6</ele>
        <time>2017-12-10T10:33:57.999Z</time>
      </trkpt>
      <trkpt lat="47.50879" lon="6.77674">
        <ele>354.5</ele>
        <time>2017-12-10T10:33:58.999Z</time>
      </trkpt>
      <trkpt lat="47.50881" lon="6.77677">
        <ele>354.5</ele>
        <time>2017-12-10T10:33:59.999Z</time>
      </trkpt>
      <trkpt lat="47.50884" lon="6.77682">
        <ele>354.5</ele>
        <time>2017-12-10T10:34:01.999Z</time>
      </trkpt>
      <trkpt lat="47.50885" lon="6.77683">
        <ele>354.5</ele>
        <time>2017-12-10T10:34:02.999Z</time>
      </trkpt>
      <trkpt lat="47.50889" lon="6.77686">
        <ele>354.4</ele>
        <time>2017-12-10T10:34:04.999Z</time>
      </trkpt>
      <trkpt lat="47.50891" lon="6.77686">
        <ele>354.2</ele>
        <time>2017-12-10T10:34:05.999Z</time>
      </trkpt>
      <trkpt lat="47.50894" lon="6.77687">
        <ele>354.1</ele>
        <time>2017-12-10T10:34:06.999Z</time>
      </trkpt>
      <trkpt lat="47.50896" lon="6.77688">
        <ele>354</ele>
        <time>2017-12-10T10:34:07.999Z</time>
      </trkpt>
      <trkpt lat="47.50898" lon="6.77689">
        <ele>353.9</ele>
        <time>2017-12-10T10:34:08.999Z</time>
      </trkpt>
      <trkpt lat="47.50901" lon="6.7769">
        <ele>353.8</ele>
        <time>2017-12-10T10:34:09.999Z</time>
      </trkpt>
      <trkpt lat="47.50905" lon="6.77691">
        <ele>353.9</ele>
        <time>2017-12-10T10:34:11.999Z</time>
      </trkpt>
      <trkpt lat="47.50907" lon="6.7769">
        <ele>353.9</ele>
        <time>2017-12-10T10:34:12.999Z</time>
      </trkpt>
      <trkpt lat="47.5091" lon="6.7769">
        <ele>354</ele>
        <time>2017-12-10T10:34:13.999Z</time>
      </trkpt>
      <trkpt lat="47.50912" lon="6.7769">
        <ele>354.2</ele>
        <time>2017-12-10T10:34:14.999Z</time>
      </trkpt>
      <trkpt lat="47.50916" lon="6.7769">
        <ele>354.3</ele>
        <time>2017-12-10T10:34:16.999Z</time>
      </trkpt>
      <trkpt lat="47.50919" lon="6.77691">
        <ele>354.4</ele>
        <time>2017-12-10T10:34:17.999Z</time>
      </trkpt>
      <trkpt lat="47.50923" lon="6.77692">
        <ele>354.4</ele>
        <time>2017-12-10T10:34:18.999Z</time>
      </trkpt>
      <trkpt lat="47.50925" lon="6.77692">
        <ele>354.4</ele>
        <time>2017-12-10T10:34:19.999Z</time>
      </trkpt>
      <trkpt lat="47.50928" lon="6.77695">
        <ele>354.5</ele>
        <time>2017-12-10T10:34:21.999Z</time>
      </trkpt>
      <trkpt lat="47.50929" lon="6.77697">
        <ele>354.6</ele>
        <time>2017-12-10T10:34:22.999Z</time>
      </trkpt>
      <trkpt lat="47.50932" lon="6.77698">
        <ele>354.7</ele>
        <time>2017-12-10T10:34:24.999Z</time>
      </trkpt>
      <trkpt lat="47.50934" lon="6.77699">
        <ele>354.7</ele>
        <time>2017-12-10T10:34:25.999Z</time>
      </trkpt>
      <trkpt lat="47.50937" lon="6.777">
        <ele>354.6</ele>
        <time>2017-12-10T10:34:30.999Z</time>
      </trkpt>
      <trkpt lat="47.50938" lon="6.777">
        <ele>354.6</ele>
        <time>2017-12-10T10:34:31.999Z</time>
      </trkpt>
      <trkpt lat="47.50942" lon="6.77699">
        <ele>354.6</ele>
        <time>2017-12-10T10:34:36.999Z</time>
      </trkpt>
      <trkpt lat="47.50943" lon="6.77699">
        <ele>354.7</ele>
        <time>2017-12-10T10:34:37.999Z</time>
      </trkpt>
      <trkpt lat="47.50947" lon="6.77698">
        <ele>356.5</ele>
        <time>2017-12-10T10:34:48.999Z</time>
      </trkpt>
      <trkpt lat="47.50949" lon="6.77698">
        <ele>356.7</ele>
        <time>2017-12-10T10:34:49.999Z</time>
      </trkpt>
      <trkpt lat="47.50952" lon="6.77697">
        <ele>356.9</ele>
        <time>2017-12-10T10:34:50.999Z</time>
      </trkpt>
      <trkpt lat="47.50955" lon="6.77694">
        <ele>357.1</ele>
        <time>2017-12-10T10:34:51.999Z</time>
      </trkpt>
      <trkpt lat="47.50957" lon="6.77691">
        <ele>357.2</ele>
        <time>2017-12-10T10:34:52.999Z</time>
      </trkpt>
      <trkpt lat="47.50959" lon="6.7769">
        <ele>357.4</ele>
        <time>2017-12-10T10:34:53.999Z</time>
      </trkpt>
      <trkpt lat="47.50962" lon="6.77691">
        <ele>357.5</ele>
        <time>2017-12-10T10:34:54.999Z</time>
      </trkpt>
      <trkpt lat="47.50966" lon="6.77693">
        <ele>357.6</ele>
        <time>2017-12-10T10:34:55.999Z</time>
      </trkpt>
      <trkpt lat="47.50968" lon="6.77694">
        <ele>357.7</ele>
        <time>2017-12-10T10:34:56.999Z</time>
      </trkpt>
      <trkpt lat="47.5097" lon="6.77696">
        <ele>357.8</ele>
        <time>2017-12-10T10:34:57.999Z</time>
      </trkpt>
      <trkpt lat="47.50972" lon="6.77698">
        <ele>357.8</ele>
        <time>2017-12-10T10:34:58.999Z</time>
      </trkpt>
      <trkpt lat="47.50975" lon="6.777">
        <ele>357.8</ele>
        <time>2017-12-10T10:34:59.999Z</time>
      </trkpt>
      <trkpt lat="47.50977" lon="6.77702">
        <ele>357.9</ele>
        <time>2017-12-10T10:35:00.999Z</time>
      </trkpt>
      <trkpt lat="47.50979" lon="6.77705">
        <ele>358.1</ele>
        <time>2017-12-10T10:35:01.999Z</time>
      </trkpt>
      <trkpt lat="47.50983" lon="6.77707">
        <ele>358.2</ele>
        <time>2017-12-10T10:35:02.999Z</time>
      </trkpt>
      <trkpt lat="47.50985" lon="6.7771">
        <ele>358.3</ele>
        <time>2017-12-10T10:35:03.999Z</time>
      </trkpt>
      <trkpt lat="47.50988" lon="6.77712">
        <ele>358.4</ele>
        <time>2017-12-10T10:35:04.999Z</time>
      </trkpt>
      <trkpt lat="47.5099" lon="6.77714">
        <ele>358.5</ele>
        <time>2017-12-10T10:35:05.999Z</time>
      </trkpt>
      <trkpt lat="47.50993" lon="6.77717">
        <ele>358.5</ele>
        <time>2017-12-10T10:35:06.999Z</time>
      </trkpt>
      <trkpt lat="47.50996" lon="6.77719">
        <ele>358.6</ele>
        <time>2017-12-10T10:35:07.999Z</time>
      </trkpt>
      <trkpt lat="47.50998" lon="6.77721">
        <ele>358.6</ele>
        <time>2017-12-10T10:35:08.999Z</time>
      </trkpt>
      <trkpt lat="47.51001" lon="6.77723">
        <ele>358.6</ele>
        <time>2017-12-10T10:35:09.999Z</time>
      </trkpt>
      <trkpt lat="47.51004" lon="6.77725">
        <ele>358.6</ele>
        <time>2017-12-10T10:35:10.999Z</time>
      </trkpt>
      <trkpt lat="47.51006" lon="6.77728">
        <ele>358.6</ele>
        <time>2017-12-10T10:35:11.999Z</time>
      </trkpt>
      <trkpt lat="47.51008" lon="6.77729">
        <ele>358.6</ele>
        <time>2017-12-10T10:35:12.999Z</time>
      </trkpt>
      <trkpt lat="47.51011" lon="6.77731">
        <ele>358.6</ele>
        <time>2017-12-10T10:35:13.999Z</time>
      </trkpt>
      <trkpt lat="47.51013" lon="6.77733">
        <ele>358.5</ele>
        <time>2017-12-10T10:35:14.999Z</time>
      </trkpt>
      <trkpt lat="47.51016" lon="6.77735">
        <ele>358.5</ele>
        <time>2017-12-10T10:35:15.999Z</time>
      </trkpt>
      <trkpt lat="47.51018" lon="6.77736">
        <ele>358.4</ele>
        <time>2017-12-10T10:35:16.999Z</time>
      </trkpt>
      <trkpt lat="47.5102" lon="6.77738">
        <ele>358.3</ele>
        <time>2017-12-10T10:35:17.999Z</time>
      </trkpt>
      <trkpt lat="47.51022" lon="6.77741">
        <ele>358.2</ele>
        <time>2017-12-10T10:35:18.999Z</time>
      </trkpt>
      <trkpt lat="47.51024" lon="6.77743">
        <ele>358.1</ele>
        <time>2017-12-10T10:35:19.999Z</time>
      </trkpt>
      <trkpt lat="47.51026" lon="6.77744">
        <ele>358</ele>
        <time>2017-12-10T10:35:20.999Z</time>
      </trkpt>
      <trkpt lat="47.51028" lon="6.77746">
        <ele>358.1</ele>
        <time>2017-12-10T10:35:21.999Z</time>
      </trkpt>
      <trkpt lat="47.51031" lon="6.77747">
        <ele>358</ele>
        <time>2017-12-10T10:35:22.999Z</time>
      </trkpt>
      <trkpt lat="47.51034" lon="6.77749">
        <ele>358</ele>
        <time>2017-12-10T10:35:23.999Z</time>
      </trkpt>
      <trkpt lat="47.51036" lon="6.7775">
        <ele>358</ele>
        <time>2017-12-10T10:35:24.999Z</time>
      </trkpt>
      <trkpt lat="47.51039" lon="6.77752">
        <ele>358</ele>
        <time>2017-12-10T10:35:25.999Z</time>
      </trkpt>
      <trkpt lat="47.51041" lon="6.77755">
        <ele>358</ele>
        <time>2017-12-10T10:35:26.999Z</time>
      </trkpt>
      <trkpt lat="47.51043" lon="6.77757">
        <ele>358.1</ele>
        <time>2017-12-10T10:35:27.999Z</time>
      </trkpt>
      <trkpt lat="47.51045" lon="6.77759">
        <ele>358.2</ele>
        <time>2017-12-10T10:35:28.999Z</time>
      </trkpt>
      <trkpt lat="47.51046" lon="6.77762">
        <ele>358.4</ele>
        <time>2017-12-10T10:35:29.999Z</time>
      </trkpt>
      <trkpt lat="47.51049" lon="6.77764">
        <ele>359.1</ele>
        <time>2017-12-10T10:35:34.999Z</time>
      </trkpt>
      <trkpt lat="47.51054" lon="6.77766">
        <ele>359.4</ele>
        <time>2017-12-10T10:35:35.999Z</time>
      </trkpt>
      <trkpt lat="47.51059" lon="6.77768">
        <ele>359.6</ele>
        <time>2017-12-10T10:35:36.999Z</time>
      </trkpt>
      <trkpt lat="47.51063" lon="6.7777">
        <ele>359.8</ele>
        <time>2017-12-10T10:35:37.999Z</time>
      </trkpt>
      <trkpt lat="47.51066" lon="6.7777">
        <ele>360</ele>
        <time>2017-12-10T10:35:38.999Z</time>
      </trkpt>
      <trkpt lat="47.51069" lon="6.7777">
        <ele>360.2</ele>
        <time>2017-12-10T10:35:39.999Z</time>
      </trkpt>
      <trkpt lat="47.51071" lon="6.77771">
        <ele>360.4</ele>
        <time>2017-12-10T10:35:40.999Z</time>
      </trkpt>
      <trkpt lat="47.51074" lon="6.77772">
        <ele>360.6</ele>
        <time>2017-12-10T10:35:41.999Z</time>
      </trkpt>
      <trkpt lat="47.51076" lon="6.77772">
        <ele>360.8</ele>
        <time>2017-12-10T10:35:42.999Z</time>
      </trkpt>
      <trkpt lat="47.51079" lon="6.77771">
        <ele>360.9</ele>
        <time>2017-12-10T10:35:43.999Z</time>
      </trkpt>
      <trkpt lat="47.51081" lon="6.77771">
        <ele>361.1</ele>
        <time>2017-12-10T10:35:44.999Z</time>
      </trkpt>
      <trkpt lat="47.51083" lon="6.77771">
        <ele>361.2</ele>
        <time>2017-12-10T10:35:45.999Z</time>
      </trkpt>
      <trkpt lat="47.51086" lon="6.77773">
        <ele>361.2</ele>
        <time>2017-12-10T10:35:46.999Z</time>
      </trkpt>
      <trkpt lat="47.51089" lon="6.77774">
        <ele>361.3</ele>
        <time>2017-12-10T10:35:47.999Z</time>
      </trkpt>
      <trkpt lat="47.51091" lon="6.77775">
        <ele>361.3</ele>
        <time>2017-12-10T10:35:48.999Z</time>
      </trkpt>
      <trkpt lat="47.51094" lon="6.77776">
        <ele>361.4</ele>
        <time>2017-12-10T10:35:49.999Z</time>
      </trkpt>
      <trkpt lat="47.51098" lon="6.77777">
        <ele>361.5</ele>
        <time>2017-12-10T10:35:51.999Z</time>
      </trkpt>
      <trkpt lat="47.511" lon="6.77779">
        <ele>361.5</ele>
        <time>2017-12-10T10:35:52.999Z</time>
      </trkpt>
      <trkpt lat="47.51104" lon="6.7778">
        <ele>361.7</ele>
        <time>2017-12-10T10:35:54.999Z</time>
      </trkpt>
      <trkpt lat="47.51106" lon="6.77781">
        <ele>361.8</ele>
        <time>2017-12-10T10:35:55.999Z</time>
      </trkpt>
      <trkpt lat="47.51108" lon="6.77783">
        <ele>361.9</ele>
        <time>2017-12-10T10:35:56.999Z</time>
      </trkpt>
      <trkpt lat="47.51111" lon="6.77784">
        <ele>361.8</ele>
        <time>2017-12-10T10:35:57.999Z</time>
      </trkpt>
      <trkpt lat="47.51114" lon="6.77784">
        <ele>361.8</ele>
        <time>2017-12-10T10:35:58.999Z</time>
      </trkpt>
      <trkpt lat="47.51116" lon="6.77784">
        <ele>361.7</ele>
        <time>2017-12-10T10:35:59.999Z</time>
      </trkpt>
      <trkpt lat="47.51121" lon="6.77784">
        <ele>361.6</ele>
        <time>2017-12-10T10:36:00.999Z</time>
      </trkpt>
      <trkpt lat="47.51123" lon="6.77784">
        <ele>361.6</ele>
        <time>2017-12-10T10:36:01.999Z</time>
      </trkpt>
      <trkpt lat="47.51126" lon="6.77784">
        <ele>361.6</ele>
        <time>2017-12-10T10:36:02.999Z</time>
      </trkpt>
      <trkpt lat="47.51129" lon="6.77785">
        <ele>361.6</ele>
        <time>2017-12-10T10:36:03.999Z</time>
      </trkpt>
      <trkpt lat="47.51133" lon="6.77785">
        <ele>361.6</ele>
        <time>2017-12-10T10:36:04.999Z</time>
      </trkpt>
      <trkpt lat="47.51137" lon="6.77785">
        <ele>361.9</ele>
        <time>2017-12-10T10:36:06.999Z</time>
      </trkpt>
      <trkpt lat="47.51139" lon="6.77786">
        <ele>362</ele>
        <time>2017-12-10T10:36:07.999Z</time>
      </trkpt>
      <trkpt lat="47.51144" lon="6.77786">
        <ele>362.1</ele>
        <time>2017-12-10T10:36:09.999Z</time>
      </trkpt>
      <trkpt lat="47.51145" lon="6.77786">
        <ele>362.1</ele>
        <time>2017-12-10T10:36:10.999Z</time>
      </trkpt>
      <trkpt lat="47.51149" lon="6.77787">
        <ele>362.2</ele>
        <time>2017-12-10T10:36:12.999Z</time>
      </trkpt>
      <trkpt lat="47.51151" lon="6.77788">
        <ele>362.2</ele>
        <time>2017-12-10T10:36:13.999Z</time>
      </trkpt>
      <trkpt lat="47.51155" lon="6.77788">
        <ele>362.1</ele>
        <time>2017-12-10T10:36:14.999Z</time>
      </trkpt>
      <trkpt lat="47.51157" lon="6.77788">
        <ele>362.1</ele>
        <time>2017-12-10T10:36:15.999Z</time>
      </trkpt>
      <trkpt lat="47.5116" lon="6.7779">
        <ele>361.9</ele>
        <time>2017-12-10T10:36:17.999Z</time>
      </trkpt>
      <trkpt lat="47.51162" lon="6.7779">
        <ele>361.8</ele>
        <time>2017-12-10T10:36:18.999Z</time>
      </trkpt>
      <trkpt lat="47.51166" lon="6.77791">
        <ele>361.5</ele>
        <time>2017-12-10T10:36:20.999Z</time>
      </trkpt>
      <trkpt lat="47.51167" lon="6.77791">
        <ele>361.4</ele>
        <time>2017-12-10T10:36:21.999Z</time>
      </trkpt>
      <trkpt lat="47.51171" lon="6.77792">
        <ele>361.2</ele>
        <time>2017-12-10T10:36:23.999Z</time>
      </trkpt>
      <trkpt lat="47.51173" lon="6.77792">
        <ele>361.1</ele>
        <time>2017-12-10T10:36:24.999Z</time>
      </trkpt>
      <trkpt lat="47.51177" lon="6.77792">
        <ele>361</ele>
        <time>2017-12-10T10:36:26.999Z</time>
      </trkpt>
      <trkpt lat="47.51179" lon="6.77792">
        <ele>361</ele>
        <time>2017-12-10T10:36:27.999Z</time>
      </trkpt>
      <trkpt lat="47.51182" lon="6.77791">
        <ele>360.9</ele>
        <time>2017-12-10T10:36:28.999Z</time>
      </trkpt>
      <trkpt lat="47.51184" lon="6.7779">
        <ele>361</ele>
        <time>2017-12-10T10:36:29.999Z</time>
      </trkpt>
      <trkpt lat="47.51188" lon="6.77789">
        <ele>361.1</ele>
        <time>2017-12-10T10:36:30.999Z</time>
      </trkpt>
      <trkpt lat="47.5119" lon="6.77789">
        <ele>361.1</ele>
        <time>2017-12-10T10:36:31.999Z</time>
      </trkpt>
      <trkpt lat="47.51193" lon="6.77787">
        <ele>361.1</ele>
        <time>2017-12-10T10:36:34.999Z</time>
      </trkpt>
      <trkpt lat="47.51195" lon="6.77788">
        <ele>361</ele>
        <time>2017-12-10T10:36:35.999Z</time>
      </trkpt>
      <trkpt lat="47.51199" lon="6.77787">
        <ele>361.7</ele>
        <time>2017-12-10T10:36:40.999Z</time>
      </trkpt>
      <trkpt lat="47.51201" lon="6.77787">
        <ele>361.9</ele>
        <time>2017-12-10T10:36:41.999Z</time>
      </trkpt>
      <trkpt lat="47.51204" lon="6.77786">
        <ele>362.2</ele>
        <time>2017-12-10T10:36:43.999Z</time>
      </trkpt>
      <trkpt lat="47.51206" lon="6.77786">
        <ele>362.3</ele>
        <time>2017-12-10T10:36:44.999Z</time>
      </trkpt>
      <trkpt lat="47.5121" lon="6.77786">
        <ele>362.7</ele>
        <time>2017-12-10T10:36:46.999Z</time>
      </trkpt>
      <trkpt lat="47.51212" lon="6.77785">
        <ele>362.8</ele>
        <time>2017-12-10T10:36:47.999Z</time>
      </trkpt>
      <trkpt lat="47.51215" lon="6.77785">
        <ele>362.9</ele>
        <time>2017-12-10T10:36:49.999Z</time>
      </trkpt>
      <trkpt lat="47.51217" lon="6.77785">
        <ele>363</ele>
        <time>2017-12-10T10:36:50.999Z</time>
      </trkpt>
      <trkpt lat="47.5122" lon="6.77785">
        <ele>363.2</ele>
        <time>2017-12-10T10:36:52.999Z</time>
      </trkpt>
      <trkpt lat="47.51222" lon="6.77785">
        <ele>363.3</ele>
        <time>2017-12-10T10:36:53.999Z</time>
      </trkpt>
      <trkpt lat="47.51224" lon="6.77784">
        <ele>363.5</ele>
        <time>2017-12-10T10:36:54.999Z</time>
      </trkpt>
      <trkpt lat="47.51226" lon="6.77783">
        <ele>363.5</ele>
        <time>2017-12-10T10:36:55.999Z</time>
      </trkpt>
      <trkpt lat="47.5123" lon="6.77782">
        <ele>363.8</ele>
        <time>2017-12-10T10:36:57.999Z</time>
      </trkpt>
      <trkpt lat="47.51232" lon="6.77782">
        <ele>363.9</ele>
        <time>2017-12-10T10:36:58.999Z</time>
      </trkpt>
      <trkpt lat="47.51236" lon="6.77781">
        <ele>364.2</ele>
        <time>2017-12-10T10:37:00.999Z</time>
      </trkpt>
      <trkpt lat="47.51238" lon="6.7778">
        <ele>364.4</ele>
        <time>2017-12-10T10:37:01.999Z</time>
      </trkpt>
      <trkpt lat="47.51241" lon="6.7778">
        <ele>364.6</ele>
        <time>2017-12-10T10:37:03.999Z</time>
      </trkpt>
      <trkpt lat="47.51243" lon="6.7778">
        <ele>364.8</ele>
        <time>2017-12-10T10:37:04.999Z</time>
      </trkpt>
      <trkpt lat="47.51247" lon="6.77779">
        <ele>367.2</ele>
        <time>2017-12-10T10:37:14.999Z</time>
      </trkpt>
      <trkpt lat="47.51247" lon="6.77779">
        <ele>367.4</ele>
        <time>2017-12-10T10:37:15.999Z</time>
      </trkpt>
      <trkpt lat="47.5125" lon="6.77778">
        <ele>370.2</ele>
        <time>2017-12-10T10:37:32.999Z</time>
      </trkpt>
      <trkpt lat="47.51252" lon="6.77777">
        <ele>370.3</ele>
        <time>2017-12-10T10:37:33.999Z</time>
      </trkpt>
      <trkpt lat="47.51256" lon="6.77778">
        <ele>370.6</ele>
        <time>2017-12-10T10:37:36.999Z</time>
      </trkpt>
      <trkpt lat="47.51257" lon="6.77778">
        <ele>370.8</ele>
        <time>2017-12-10T10:37:37.999Z</time>
      </trkpt>
      <trkpt lat="47.51261" lon="6.77779">
        <ele>371.2</ele>
        <time>2017-12-10T10:37:40.999Z</time>
      </trkpt>
      <trkpt lat="47.51263" lon="6.77779">
        <ele>371.3</ele>
        <time>2017-12-10T10:37:41.999Z</time>
      </trkpt>
      <trkpt lat="47.51266" lon="6.7778">
        <ele>371.7</ele>
        <time>2017-12-10T10:37:43.999Z</time>
      </trkpt>
      <trkpt lat="47.51268" lon="6.7778">
        <ele>371.8</ele>
        <time>2017-12-10T10:37:44.999Z</time>
      </trkpt>
      <trkpt lat="47.5127" lon="6.77781">
        <ele>372.1</ele>
        <time>2017-12-10T10:37:46.999Z</time>
      </trkpt>
      <trkpt lat="47.51272" lon="6.7778">
        <ele>372.2</ele>
        <time>2017-12-10T10:37:47.999Z</time>
      </trkpt>
      <trkpt lat="47.51275" lon="6.7778">
        <ele>372.5</ele>
        <time>2017-12-10T10:37:49.999Z</time>
      </trkpt>
      <trkpt lat="47.51277" lon="6.77781">
        <ele>372.7</ele>
        <time>2017-12-10T10:37:50.999Z</time>
      </trkpt>
      <trkpt lat="47.51281" lon="6.77781">
        <ele>373</ele>
        <time>2017-12-10T10:37:52.999Z</time>
      </trkpt>
      <trkpt lat="47.51283" lon="6.77781">
        <ele>373.2</ele>
        <time>2017-12-10T10:37:53.999Z</time>
      </trkpt>
      <trkpt lat="47.51285" lon="6.77782">
        <ele>373.4</ele>
        <time>2017-12-10T10:37:54.999Z</time>
      </trkpt>
      <trkpt lat="47.51288" lon="6.77783">
        <ele>373.6</ele>
        <time>2017-12-10T10:37:55.999Z</time>
      </trkpt>
      <trkpt lat="47.51291" lon="6.77783">
        <ele>373.8</ele>
        <time>2017-12-10T10:37:57.999Z</time>
      </trkpt>
      <trkpt lat="47.51293" lon="6.77782">
        <ele>373.9</ele>
        <time>2017-12-10T10:37:58.999Z</time>
      </trkpt>
      <trkpt lat="47.51297" lon="6.77781">
        <ele>374.1</ele>
        <time>2017-12-10T10:38:00.999Z</time>
      </trkpt>
      <trkpt lat="47.51299" lon="6.77781">
        <ele>374.2</ele>
        <time>2017-12-10T10:38:01.999Z</time>
      </trkpt>
      <trkpt lat="47.51302" lon="6.7778">
        <ele>374.5</ele>
        <time>2017-12-10T10:38:03.999Z</time>
      </trkpt>
      <trkpt lat="47.51303" lon="6.77779">
        <ele>374.6</ele>
        <time>2017-12-10T10:38:04.999Z</time>
      </trkpt>
      <trkpt lat="47.51306" lon="6.77779">
        <ele>374.8</ele>
        <time>2017-12-10T10:38:06.999Z</time>
      </trkpt>
      <trkpt lat="47.51308" lon="6.77779">
        <ele>374.9</ele>
        <time>2017-12-10T10:38:07.999Z</time>
      </trkpt>
      <trkpt lat="47.51311" lon="6.77778">
        <ele>375.1</ele>
        <time>2017-12-10T10:38:09.999Z</time>
      </trkpt>
      <trkpt lat="47.51313" lon="6.77777">
        <ele>375.2</ele>
        <time>2017-12-10T10:38:10.999Z</time>
      </trkpt>
      <trkpt lat="47.51317" lon="6.77776">
        <ele>375.4</ele>
        <time>2017-12-10T10:38:13.999Z</time>
      </trkpt>
      <trkpt lat="47.51318" lon="6.77776">
        <ele>375.5</ele>
        <time>2017-12-10T10:38:14.999Z</time>
      </trkpt>
      <trkpt lat="47.51321" lon="6.77774">
        <ele>375.7</ele>
        <time>2017-12-10T10:38:16.999Z</time>
      </trkpt>
      <trkpt lat="47.51323" lon="6.77774">
        <ele>375.8</ele>
        <time>2017-12-10T10:38:17.999Z</time>
      </trkpt>
      <trkpt lat="47.51327" lon="6.77773">
        <ele>375.8</ele>
        <time>2017-12-10T10:38:19.999Z</time>
      </trkpt>
      <trkpt lat="47.51328" lon="6.77773">
        <ele>375.9</ele>
        <time>2017-12-10T10:38:20.999Z</time>
      </trkpt>
      <trkpt lat="47.51332" lon="6.77773">
        <ele>376.1</ele>
        <time>2017-12-10T10:38:23.999Z</time>
      </trkpt>
      <trkpt lat="47.51333" lon="6.77774">
        <ele>376.2</ele>
        <time>2017-12-10T10:38:24.999Z</time>
      </trkpt>
      <trkpt lat="47.51336" lon="6.77776">
        <ele>376.9</ele>
        <time>2017-12-10T10:38:29.999Z</time>
      </trkpt>
      <trkpt lat="47.51338" lon="6.77776">
        <ele>377.1</ele>
        <time>2017-12-10T10:38:30.999Z</time>
      </trkpt>
      <trkpt lat="47.51341" lon="6.77776">
        <ele>377.6</ele>
        <time>2017-12-10T10:38:33.999Z</time>
      </trkpt>
      <trkpt lat="47.51343" lon="6.77776">
        <ele>377.8</ele>
        <time>2017-12-10T10:38:34.999Z</time>
      </trkpt>
      <trkpt lat="47.51346" lon="6.77776">
        <ele>378</ele>
        <time>2017-12-10T10:38:36.999Z</time>
      </trkpt>
      <trkpt lat="47.51348" lon="6.77776">
        <ele>378</ele>
        <time>2017-12-10T10:38:37.999Z</time>
      </trkpt>
      <trkpt lat="47.51352" lon="6.77773">
        <ele>378.4</ele>
        <time>2017-12-10T10:38:40.999Z</time>
      </trkpt>
      <trkpt lat="47.51352" lon="6.77772">
        <ele>378.6</ele>
        <time>2017-12-10T10:38:41.999Z</time>
      </trkpt>
      <trkpt lat="47.51355" lon="6.7777">
        <ele>378.9</ele>
        <time>2017-12-10T10:38:43.999Z</time>
      </trkpt>
      <trkpt lat="47.51357" lon="6.7777">
        <ele>379</ele>
        <time>2017-12-10T10:38:44.999Z</time>
      </trkpt>
      <trkpt lat="47.5136" lon="6.77767">
        <ele>379.3</ele>
        <time>2017-12-10T10:38:47.999Z</time>
      </trkpt>
      <trkpt lat="47.51361" lon="6.77766">
        <ele>379.5</ele>
        <time>2017-12-10T10:38:48.999Z</time>
      </trkpt>
      <trkpt lat="47.51365" lon="6.77765">
        <ele>379.9</ele>
        <time>2017-12-10T10:38:51.999Z</time>
      </trkpt>
      <trkpt lat="47.51366" lon="6.77764">
        <ele>380</ele>
        <time>2017-12-10T10:38:52.999Z</time>
      </trkpt>
      <trkpt lat="47.51369" lon="6.77763">
        <ele>380.5</ele>
        <time>2017-12-10T10:38:55.999Z</time>
      </trkpt>
      <trkpt lat="47.51371" lon="6.77763">
        <ele>380.6</ele>
        <time>2017-12-10T10:38:56.999Z</time>
      </trkpt>
      <trkpt lat="47.51373" lon="6.7776">
        <ele>380.9</ele>
        <time>2017-12-10T10:38:59.999Z</time>
      </trkpt>
      <trkpt lat="47.51375" lon="6.77759">
        <ele>381.1</ele>
        <time>2017-12-10T10:39:00.999Z</time>
      </trkpt>
      <trkpt lat="47.51378" lon="6.77757">
        <ele>381.6</ele>
        <time>2017-12-10T10:39:03.999Z</time>
      </trkpt>
      <trkpt lat="47.51379" lon="6.77756">
        <ele>381.9</ele>
        <time>2017-12-10T10:39:04.999Z</time>
      </trkpt>
      <trkpt lat="47.51382" lon="6.77754">
        <ele>382.3</ele>
        <time>2017-12-10T10:39:06.999Z</time>
      </trkpt>
      <trkpt lat="47.51384" lon="6.77753">
        <ele>382.5</ele>
        <time>2017-12-10T10:39:07.999Z</time>
      </trkpt>
      <trkpt lat="47.51387" lon="6.77751">
        <ele>383.4</ele>
        <time>2017-12-10T10:39:10.999Z</time>
      </trkpt>
      <trkpt lat="47.51389" lon="6.7775">
        <ele>383.6</ele>
        <time>2017-12-10T10:39:11.999Z</time>
      </trkpt>
      <trkpt lat="47.51392" lon="6.77747">
        <ele>384.3</ele>
        <time>2017-12-10T10:39:14.999Z</time>
      </trkpt>
      <trkpt lat="47.51393" lon="6.77746">
        <ele>384.6</ele>
        <time>2017-12-10T10:39:15.999Z</time>
      </trkpt>
      <trkpt lat="47.51397" lon="6.77744">
        <ele>385.3</ele>
        <time>2017-12-10T10:39:17.999Z</time>
      </trkpt>
      <trkpt lat="47.51398" lon="6.77743">
        <ele>385.6</ele>
        <time>2017-12-10T10:39:18.999Z</time>
      </trkpt>
      <trkpt lat="47.51402" lon="6.77741">
        <ele>386.3</ele>
        <time>2017-12-10T10:39:20.999Z</time>
      </trkpt>
      <trkpt lat="47.51404" lon="6.7774">
        <ele>386.7</ele>
        <time>2017-12-10T10:39:21.999Z</time>
      </trkpt>
      <trkpt lat="47.51408" lon="6.77739">
        <ele>387.6</ele>
        <time>2017-12-10T10:39:26.999Z</time>
      </trkpt>
      <trkpt lat="47.51409" lon="6.77738">
        <ele>387.8</ele>
        <time>2017-12-10T10:39:27.999Z</time>
      </trkpt>
      <trkpt lat="47.51412" lon="6.77736">
        <ele>388.8</ele>
        <time>2017-12-10T10:39:31.999Z</time>
      </trkpt>
      <trkpt lat="47.51413" lon="6.77736">
        <ele>389.2</ele>
        <time>2017-12-10T10:39:32.999Z</time>
      </trkpt>
      <trkpt lat="47.51416" lon="6.77734">
        <ele>389.9</ele>
        <time>2017-12-10T10:39:35.999Z</time>
      </trkpt>
      <trkpt lat="47.51418" lon="6.77733">
        <ele>390.2</ele>
        <time>2017-12-10T10:39:36.999Z</time>
      </trkpt>
      <trkpt lat="47.51421" lon="6.77732">
        <ele>390.7</ele>
        <time>2017-12-10T10:39:38.999Z</time>
      </trkpt>
      <trkpt lat="47.51422" lon="6.77732">
        <ele>391</ele>
        <time>2017-12-10T10:39:39.999Z</time>
      </trkpt>
      <trkpt lat="47.51427" lon="6.77731">
        <ele>392.2</ele>
        <time>2017-12-10T10:39:43.999Z</time>
      </trkpt>
      <trkpt lat="47.51427" lon="6.77732">
        <ele>392.4</ele>
        <time>2017-12-10T10:39:44.999Z</time>
      </trkpt>
      <trkpt lat="47.51431" lon="6.77731">
        <ele>393.1</ele>
        <time>2017-12-10T10:39:46.999Z</time>
      </trkpt>
      <trkpt lat="47.51432" lon="6.7773">
        <ele>393.4</ele>
        <time>2017-12-10T10:39:47.999Z</time>
      </trkpt>
      <trkpt lat="47.51436" lon="6.77728">
        <ele>394.1</ele>
        <time>2017-12-10T10:39:50.999Z</time>
      </trkpt>
      <trkpt lat="47.51438" lon="6.77728">
        <ele>394.2</ele>
        <time>2017-12-10T10:39:51.999Z</time>
      </trkpt>
      <trkpt lat="47.51441" lon="6.77727">
        <ele>395.1</ele>
        <time>2017-12-10T10:39:55.999Z</time>
      </trkpt>
      <trkpt lat="47.51443" lon="6.77726">
        <ele>395.3</ele>
        <time>2017-12-10T10:39:56.999Z</time>
      </trkpt>
      <trkpt lat="47.51447" lon="6.77726">
        <ele>396.2</ele>
        <time>2017-12-10T10:40:01.999Z</time>
      </trkpt>
      <trkpt lat="47.51448" lon="6.77726">
        <ele>396.3</ele>
        <time>2017-12-10T10:40:02.999Z</time>
      </trkpt>
      <trkpt lat="47.51452" lon="6.77725">
        <ele>396.5</ele>
        <time>2017-12-10T10:40:06.999Z</time>
      </trkpt>
      <trkpt lat="47.51452" lon="6.77725">
        <ele>396.7</ele>
        <time>2017-12-10T10:40:07.999Z</time>
      </trkpt>
      <trkpt lat="47.51456" lon="6.77723">
        <ele>396.9</ele>
        <time>2017-12-10T10:40:10.999Z</time>
      </trkpt>
      <trkpt lat="47.51457" lon="6.77723">
        <ele>396.9</ele>
        <time>2017-12-10T10:40:11.999Z</time>
      </trkpt>
      <trkpt lat="47.5146" lon="6.77722">
        <ele>397</ele>
        <time>2017-12-10T10:40:13.999Z</time>
      </trkpt>
      <trkpt lat="47.51462" lon="6.77721">
        <ele>397.1</ele>
        <time>2017-12-10T10:40:14.999Z</time>
      </trkpt>
      <trkpt lat="47.51466" lon="6.77719">
        <ele>397.1</ele>
        <time>2017-12-10T10:40:18.999Z</time>
      </trkpt>
      <trkpt lat="47.51466" lon="6.77719">
        <ele>397.3</ele>
        <time>2017-12-10T10:40:19.999Z</time>
      </trkpt>
      <trkpt lat="47.5147" lon="6.7772">
        <ele>397.8</ele>
        <time>2017-12-10T10:40:24.999Z</time>
      </trkpt>
      <trkpt lat="47.51472" lon="6.77721">
        <ele>397.9</ele>
        <time>2017-12-10T10:40:25.999Z</time>
      </trkpt>
      <trkpt lat="47.51475" lon="6.77721">
        <ele>398</ele>
        <time>2017-12-10T10:40:27.999Z</time>
      </trkpt>
      <trkpt lat="47.51477" lon="6.7772">
        <ele>398.2</ele>
        <time>2017-12-10T10:40:28.999Z</time>
      </trkpt>
      <trkpt lat="47.51481" lon="6.77721">
        <ele>398.8</ele>
        <time>2017-12-10T10:40:32.999Z</time>
      </trkpt>
      <trkpt lat="47.51482" lon="6.77721">
        <ele>398.9</ele>
        <time>2017-12-10T10:40:33.999Z</time>
      </trkpt>
      <trkpt lat="47.51486" lon="6.77719">
        <ele>399.3</ele>
        <time>2017-12-10T10:40:35.999Z</time>
      </trkpt>
      <trkpt lat="47.51488" lon="6.77719">
        <ele>399.4</ele>
        <time>2017-12-10T10:40:36.999Z</time>
      </trkpt>
      <trkpt lat="47.51492" lon="6.77717">
        <ele>399.7</ele>
        <time>2017-12-10T10:40:39.999Z</time>
      </trkpt>
      <trkpt lat="47.51493" lon="6.77717">
        <ele>399.9</ele>
        <time>2017-12-10T10:40:40.999Z</time>
      </trkpt>
      <trkpt lat="47.51497" lon="6.77715">
        <ele>399.9</ele>
        <time>2017-12-10T10:40:44.999Z</time>
      </trkpt>
      <trkpt lat="47.51499" lon="6.77713">
        <ele>399.9</ele>
        <time>2017-12-10T10:40:45.999Z</time>
      </trkpt>
      <trkpt lat="47.51502" lon="6.77711">
        <ele>400</ele>
        <time>2017-12-10T10:40:47.999Z</time>
      </trkpt>
      <trkpt lat="47.51503" lon="6.7771">
        <ele>400.1</ele>
        <time>2017-12-10T10:40:48.999Z</time>
      </trkpt>
      <trkpt lat="47.51507" lon="6.77708">
        <ele>400.7</ele>
        <time>2017-12-10T10:40:53.999Z</time>
      </trkpt>
      <trkpt lat="47.51508" lon="6.77707">
        <ele>400.9</ele>
        <time>2017-12-10T10:40:54.999Z</time>
      </trkpt>
      <trkpt lat="47.51509" lon="6.77707">
        <ele>401</ele>
        <time>2017-12-10T10:40:55.999Z</time>
      </trkpt>
      <trkpt lat="47.51513" lon="6.77706">
        <ele>401.1</ele>
        <time>2017-12-10T10:40:56.999Z</time>
      </trkpt>
      <trkpt lat="47.51516" lon="6.77705">
        <ele>401.2</ele>
        <time>2017-12-10T10:40:57.999Z</time>
      </trkpt>
      <trkpt lat="47.51518" lon="6.77705">
        <ele>401.4</ele>
        <time>2017-12-10T10:40:58.999Z</time>
      </trkpt>
      <trkpt lat="47.51521" lon="6.77705">
        <ele>402.3</ele>
        <time>2017-12-10T10:41:02.999Z</time>
      </trkpt>
      <trkpt lat="47.51522" lon="6.77704">
        <ele>402.6</ele>
        <time>2017-12-10T10:41:03.999Z</time>
      </trkpt>
      <trkpt lat="47.51527" lon="6.77704">
        <ele>404.1</ele>
        <time>2017-12-10T10:41:08.999Z</time>
      </trkpt>
      <trkpt lat="47.51528" lon="6.77705">
        <ele>404.5</ele>
        <time>2017-12-10T10:41:09.999Z</time>
      </trkpt>
      <trkpt lat="47.51532" lon="6.77705">
        <ele>406.6</ele>
        <time>2017-12-10T10:41:14.999Z</time>
      </trkpt>
      <trkpt lat="47.51536" lon="6.77708">
        <ele>407</ele>
        <time>2017-12-10T10:41:15.999Z</time>
      </trkpt>
      <trkpt lat="47.5154" lon="6.77709">
        <ele>407.4</ele>
        <time>2017-12-10T10:41:16.999Z</time>
      </trkpt>
      <trkpt lat="47.51541" lon="6.7771">
        <ele>407.6</ele>
        <time>2017-12-10T10:41:17.999Z</time>
      </trkpt>
      <trkpt lat="47.51544" lon="6.77712">
        <ele>408.2</ele>
        <time>2017-12-10T10:41:19.999Z</time>
      </trkpt>
      <trkpt lat="47.51546" lon="6.77713">
        <ele>408.3</ele>
        <time>2017-12-10T10:41:20.999Z</time>
      </trkpt>
      <trkpt lat="47.51549" lon="6.77715">
        <ele>408.6</ele>
        <time>2017-12-10T10:41:23.999Z</time>
      </trkpt>
      <trkpt lat="47.51551" lon="6.77715">
        <ele>408.6</ele>
        <time>2017-12-10T10:41:24.999Z</time>
      </trkpt>
      <trkpt lat="47.51554" lon="6.77717">
        <ele>408.8</ele>
        <time>2017-12-10T10:41:28.999Z</time>
      </trkpt>
      <trkpt lat="47.51555" lon="6.77718">
        <ele>408.8</ele>
        <time>2017-12-10T10:41:29.999Z</time>
      </trkpt>
      <trkpt lat="47.51557" lon="6.7772">
        <ele>409</ele>
        <time>2017-12-10T10:41:31.999Z</time>
      </trkpt>
      <trkpt lat="47.51559" lon="6.7772">
        <ele>409.1</ele>
        <time>2017-12-10T10:41:32.999Z</time>
      </trkpt>
      <trkpt lat="47.51563" lon="6.7772">
        <ele>409.3</ele>
        <time>2017-12-10T10:41:34.999Z</time>
      </trkpt>
      <trkpt lat="47.51564" lon="6.7772">
        <ele>409.4</ele>
        <time>2017-12-10T10:41:35.999Z</time>
      </trkpt>
      <trkpt lat="47.51568" lon="6.77718">
        <ele>410</ele>
        <time>2017-12-10T10:41:38.999Z</time>
      </trkpt>
      <trkpt lat="47.51569" lon="6.77719">
        <ele>410.1</ele>
        <time>2017-12-10T10:41:39.999Z</time>
      </trkpt>
      <trkpt lat="47.51573" lon="6.77719">
        <ele>410.4</ele>
        <time>2017-12-10T10:41:42.999Z</time>
      </trkpt>
      <trkpt lat="47.51575" lon="6.77719">
        <ele>410.4</ele>
        <time>2017-12-10T10:41:43.999Z</time>
      </trkpt>
      <trkpt lat="47.51579" lon="6.77721">
        <ele>410.6</ele>
        <time>2017-12-10T10:41:47.999Z</time>
      </trkpt>
      <trkpt lat="47.5158" lon="6.77721">
        <ele>410.6</ele>
        <time>2017-12-10T10:41:48.999Z</time>
      </trkpt>
      <trkpt lat="47.51583" lon="6.77723">
        <ele>410.4</ele>
        <time>2017-12-10T10:41:51.999Z</time>
      </trkpt>
      <trkpt lat="47.51585" lon="6.77726">
        <ele>410.4</ele>
        <time>2017-12-10T10:41:52.999Z</time>
      </trkpt>
      <trkpt lat="47.51588" lon="6.77728">
        <ele>410.6</ele>
        <time>2017-12-10T10:41:56.999Z</time>
      </trkpt>
      <trkpt lat="47.51589" lon="6.77728">
        <ele>410.7</ele>
        <time>2017-12-10T10:41:57.999Z</time>
      </trkpt>
      <trkpt lat="47.51593" lon="6.77727">
        <ele>411.3</ele>
        <time>2017-12-10T10:42:01.999Z</time>
      </trkpt>
      <trkpt lat="47.51595" lon="6.77727">
        <ele>411.5</ele>
        <time>2017-12-10T10:42:02.999Z</time>
      </trkpt>
      <trkpt lat="47.51598" lon="6.77728">
        <ele>412.2</ele>
        <time>2017-12-10T10:42:05.999Z</time>
      </trkpt>
      <trkpt lat="47.51599" lon="6.7773">
        <ele>412.4</ele>
        <time>2017-12-10T10:42:06.999Z</time>
      </trkpt>
      <trkpt lat="47.51601" lon="6.77734">
        <ele>413.2</ele>
        <time>2017-12-10T10:42:09.999Z</time>
      </trkpt>
      <trkpt lat="47.51601" lon="6.77735">
        <ele>413.5</ele>
        <time>2017-12-10T10:42:10.999Z</time>
      </trkpt>
      <trkpt lat="47.51605" lon="6.77738">
        <ele>415.1</ele>
        <time>2017-12-10T10:42:16.999Z</time>
      </trkpt>
      <trkpt lat="47.51608" lon="6.7774">
        <ele>415.3</ele>
        <time>2017-12-10T10:42:17.999Z</time>
      </trkpt>
      <trkpt lat="47.51612" lon="6.77738">
        <ele>417.3</ele>
        <time>2017-12-10T10:42:32.999Z</time>
      </trkpt>
      <trkpt lat="47.51613" lon="6.77738">
        <ele>417.5</ele>
        <time>2017-12-10T10:42:33.999Z</time>
      </trkpt>
      <trkpt lat="47.51615" lon="6.77739">
        <ele>417.7</ele>
        <time>2017-12-10T10:42:34.999Z</time>
      </trkpt>
      <trkpt lat="47.51618" lon="6.7774">
        <ele>417.7</ele>
        <time>2017-12-10T10:42:35.999Z</time>
      </trkpt>
      <trkpt lat="47.51622" lon="6.77741">
        <ele>417.7</ele>
        <time>2017-12-10T10:42:36.999Z</time>
      </trkpt>
      <trkpt lat="47.51625" lon="6.77742">
        <ele>417.8</ele>
        <time>2017-12-10T10:42:37.999Z</time>
      </trkpt>
      <trkpt lat="47.5163" lon="6.77744">
        <ele>418</ele>
        <time>2017-12-10T10:42:38.999Z</time>
      </trkpt>
      <trkpt lat="47.51634" lon="6.77745">
        <ele>418.3</ele>
        <time>2017-12-10T10:42:39.999Z</time>
      </trkpt>
      <trkpt lat="47.51638" lon="6.77745">
        <ele>419</ele>
        <time>2017-12-10T10:42:44.999Z</time>
      </trkpt>
      <trkpt lat="47.51643" lon="6.77745">
        <ele>419.3</ele>
        <time>2017-12-10T10:42:45.999Z</time>
      </trkpt>
      <trkpt lat="47.51643" lon="6.77745">
        <ele>420.1</ele>
        <time>2017-12-10T10:42:51.999Z</time>
      </trkpt>
      <trkpt lat="47.51647" lon="6.77745">
        <ele>420.4</ele>
        <time>2017-12-10T10:42:52.999Z</time>
      </trkpt>
      <trkpt lat="47.51649" lon="6.77746">
        <ele>421</ele>
        <time>2017-12-10T10:42:55.999Z</time>
      </trkpt>
      <trkpt lat="47.51653" lon="6.77749">
        <ele>421.3</ele>
        <time>2017-12-10T10:42:56.999Z</time>
      </trkpt>
      <trkpt lat="47.51656" lon="6.77747">
        <ele>421.5</ele>
        <time>2017-12-10T10:42:57.999Z</time>
      </trkpt>
      <trkpt lat="47.5166" lon="6.77746">
        <ele>421.7</ele>
        <time>2017-12-10T10:42:58.999Z</time>
      </trkpt>
      <trkpt lat="47.51663" lon="6.77747">
        <ele>422.3</ele>
        <time>2017-12-10T10:43:00.999Z</time>
      </trkpt>
      <trkpt lat="47.51665" lon="6.77748">
        <ele>422.6</ele>
        <time>2017-12-10T10:43:01.999Z</time>
      </trkpt>
      <trkpt lat="47.51669" lon="6.77747">
        <ele>423.7</ele>
        <time>2017-12-10T10:43:05.999Z</time>
      </trkpt>
      <trkpt lat="47.5167" lon="6.77747">
        <ele>424</ele>
        <time>2017-12-10T10:43:06.999Z</time>
      </trkpt>
      <trkpt lat="47.51674" lon="6.77746">
        <ele>424.4</ele>
        <time>2017-12-10T10:43:07.999Z</time>
      </trkpt>
      <trkpt lat="47.51675" lon="6.77751">
        <ele>424.6</ele>
        <time>2017-12-10T10:43:08.999Z</time>
      </trkpt>
      <trkpt lat="47.51676" lon="6.77756">
        <ele>424.7</ele>
        <time>2017-12-10T10:43:09.999Z</time>
      </trkpt>
      <trkpt lat="47.51677" lon="6.77757">
        <ele>424.9</ele>
        <time>2017-12-10T10:43:10.999Z</time>
      </trkpt>
      <trkpt lat="47.5168" lon="6.77761">
        <ele>425</ele>
        <time>2017-12-10T10:43:11.999Z</time>
      </trkpt>
      <trkpt lat="47.51681" lon="6.77762">
        <ele>425.2</ele>
        <time>2017-12-10T10:43:12.999Z</time>
      </trkpt>
      <trkpt lat="47.51685" lon="6.77762">
        <ele>425.6</ele>
        <time>2017-12-10T10:43:15.999Z</time>
      </trkpt>
      <trkpt lat="47.51687" lon="6.77761">
        <ele>425.6</ele>
        <time>2017-12-10T10:43:16.999Z</time>
      </trkpt>
      <trkpt lat="47.51688" lon="6.77761">
        <ele>425.7</ele>
        <time>2017-12-10T10:43:18.999Z</time>
      </trkpt>
      <trkpt lat="47.51691" lon="6.7776">
        <ele>425.8</ele>
        <time>2017-12-10T10:43:19.999Z</time>
      </trkpt>
      <trkpt lat="47.51695" lon="6.7776">
        <ele>426</ele>
        <time>2017-12-10T10:43:22.999Z</time>
      </trkpt>
      <trkpt lat="47.51696" lon="6.7776">
        <ele>426.1</ele>
        <time>2017-12-10T10:43:23.999Z</time>
      </trkpt>
      <trkpt lat="47.517" lon="6.7776">
        <ele>426.7</ele>
        <time>2017-12-10T10:43:27.999Z</time>
      </trkpt>
      <trkpt lat="47.51701" lon="6.7776">
        <ele>426.8</ele>
        <time>2017-12-10T10:43:28.999Z</time>
      </trkpt>
      <trkpt lat="47.51702" lon="6.77758">
        <ele>426.9</ele>
        <time>2017-12-10T10:43:29.999Z</time>
      </trkpt>
      <trkpt lat="47.51706" lon="6.77756">
        <ele>427</ele>
        <time>2017-12-10T10:43:30.999Z</time>
      </trkpt>
      <trkpt lat="47.51707" lon="6.77751">
        <ele>427.1</ele>
        <time>2017-12-10T10:43:33.999Z</time>
      </trkpt>
      <trkpt lat="47.51708" lon="6.77747">
        <ele>427.2</ele>
        <time>2017-12-10T10:43:34.999Z</time>
      </trkpt>
      <trkpt lat="47.51708" lon="6.77742">
        <ele>427.4</ele>
        <time>2017-12-10T10:43:37.999Z</time>
      </trkpt>
      <trkpt lat="47.51708" lon="6.7774">
        <ele>427.5</ele>
        <time>2017-12-10T10:43:38.999Z</time>
      </trkpt>
      <trkpt lat="47.5171" lon="6.77736">
        <ele>427.9</ele>
        <time>2017-12-10T10:43:42.999Z</time>
      </trkpt>
      <trkpt lat="47.51712" lon="6.77735">
        <ele>427.9</ele>
        <time>2017-12-10T10:43:43.999Z</time>
      </trkpt>
      <trkpt lat="47.51713" lon="6.77731">
        <ele>428</ele>
        <time>2017-12-10T10:43:46.999Z</time>
      </trkpt>
      <trkpt lat="47.51714" lon="6.77729">
        <ele>428.1</ele>
        <time>2017-12-10T10:43:47.999Z</time>
      </trkpt>
      <trkpt lat="47.51715" lon="6.77724">
        <ele>427.9</ele>
        <time>2017-12-10T10:43:50.999Z</time>
      </trkpt>
      <trkpt lat="47.51716" lon="6.77722">
        <ele>428</ele>
        <time>2017-12-10T10:43:51.999Z</time>
      </trkpt>
      <trkpt lat="47.51717" lon="6.77717">
        <ele>428.3</ele>
        <time>2017-12-10T10:43:54.999Z</time>
      </trkpt>
      <trkpt lat="47.51717" lon="6.77716">
        <ele>428.4</ele>
        <time>2017-12-10T10:43:55.999Z</time>
      </trkpt>
      <trkpt lat="47.51717" lon="6.7771">
        <ele>429</ele>
        <time>2017-12-10T10:43:59.999Z</time>
      </trkpt>
      <trkpt lat="47.51716" lon="6.77708">
        <ele>429.2</ele>
        <time>2017-12-10T10:44:00.999Z</time>
      </trkpt>
      <trkpt lat="47.51714" lon="6.77703">
        <ele>429.5</ele>
        <time>2017-12-10T10:44:02.999Z</time>
      </trkpt>
      <trkpt lat="47.51714" lon="6.77701">
        <ele>429.6</ele>
        <time>2017-12-10T10:44:03.999Z</time>
      </trkpt>
      <trkpt lat="47.51712" lon="6.77696">
        <ele>429.8</ele>
        <time>2017-12-10T10:44:06.999Z</time>
      </trkpt>
      <trkpt lat="47.51712" lon="6.77694">
        <ele>429.9</ele>
        <time>2017-12-10T10:44:07.999Z</time>
      </trkpt>
      <trkpt lat="47.5171" lon="6.7769">
        <ele>430.2</ele>
        <time>2017-12-10T10:44:10.999Z</time>
      </trkpt>
      <trkpt lat="47.5171" lon="6.77687">
        <ele>430.3</ele>
        <time>2017-12-10T10:44:11.999Z</time>
      </trkpt>
      <trkpt lat="47.5171" lon="6.77683">
        <ele>430.3</ele>
        <time>2017-12-10T10:44:13.999Z</time>
      </trkpt>
      <trkpt lat="47.5171" lon="6.7768">
        <ele>430.3</ele>
        <time>2017-12-10T10:44:14.999Z</time>
      </trkpt>
      <trkpt lat="47.5171" lon="6.77674">
        <ele>430.7</ele>
        <time>2017-12-10T10:44:17.999Z</time>
      </trkpt>
      <trkpt lat="47.5171" lon="6.77672">
        <ele>430.9</ele>
        <time>2017-12-10T10:44:18.999Z</time>
      </trkpt>
      <trkpt lat="47.5171" lon="6.77667">
        <ele>431.4</ele>
        <time>2017-12-10T10:44:21.999Z</time>
      </trkpt>
      <trkpt lat="47.5171" lon="6.77665">
        <ele>431.3</ele>
        <time>2017-12-10T10:44:22.999Z</time>
      </trkpt>
      <trkpt lat="47.51711" lon="6.7766">
        <ele>431.4</ele>
        <time>2017-12-10T10:44:24.999Z</time>
      </trkpt>
      <trkpt lat="47.51711" lon="6.77657">
        <ele>431.5</ele>
        <time>2017-12-10T10:44:25.999Z</time>
      </trkpt>
      <trkpt lat="47.51712" lon="6.77651">
        <ele>431.6</ele>
        <time>2017-12-10T10:44:27.999Z</time>
      </trkpt>
      <trkpt lat="47.51712" lon="6.77649">
        <ele>431.7</ele>
        <time>2017-12-10T10:44:28.999Z</time>
      </trkpt>
      <trkpt lat="47.51713" lon="6.77646">
        <ele>431.8</ele>
        <time>2017-12-10T10:44:29.999Z</time>
      </trkpt>
      <trkpt lat="47.51713" lon="6.7764">
        <ele>431.9</ele>
        <time>2017-12-10T10:44:30.999Z</time>
      </trkpt>
      <trkpt lat="47.51712" lon="6.77635">
        <ele>432.2</ele>
        <time>2017-12-10T10:44:32.999Z</time>
      </trkpt>
      <trkpt lat="47.51712" lon="6.77633">
        <ele>432.4</ele>
        <time>2017-12-10T10:44:33.999Z</time>
      </trkpt>
      <trkpt lat="47.51712" lon="6.77628">
        <ele>432.6</ele>
        <time>2017-12-10T10:44:35.999Z</time>
      </trkpt>
      <trkpt lat="47.51712" lon="6.77625">
        <ele>432.8</ele>
        <time>2017-12-10T10:44:36.999Z</time>
      </trkpt>
      <trkpt lat="47.51711" lon="6.77619">
        <ele>433.1</ele>
        <time>2017-12-10T10:44:39.999Z</time>
      </trkpt>
      <trkpt lat="47.51711" lon="6.77617">
        <ele>433.2</ele>
        <time>2017-12-10T10:44:40.999Z</time>
      </trkpt>
      <trkpt lat="47.51712" lon="6.77612">
        <ele>433.4</ele>
        <time>2017-12-10T10:44:42.999Z</time>
      </trkpt>
      <trkpt lat="47.51712" lon="6.77609">
        <ele>433.5</ele>
        <time>2017-12-10T10:44:43.999Z</time>
      </trkpt>
      <trkpt lat="47.51713" lon="6.77605">
        <ele>433.7</ele>
        <time>2017-12-10T10:44:45.999Z</time>
      </trkpt>
      <trkpt lat="47.51713" lon="6.77603">
        <ele>433.8</ele>
        <time>2017-12-10T10:44:46.999Z</time>
      </trkpt>
      <trkpt lat="47.51714" lon="6.77596">
        <ele>434.2</ele>
        <time>2017-12-10T10:44:49.999Z</time>
      </trkpt>
      <trkpt lat="47.51714" lon="6.77595">
        <ele>434.4</ele>
        <time>2017-12-10T10:44:50.999Z</time>
      </trkpt>
      <trkpt lat="47.51717" lon="6.77593">
        <ele>434.9</ele>
        <time>2017-12-10T10:44:53.999Z</time>
      </trkpt>
      <trkpt lat="47.51719" lon="6.77592">
        <ele>435.1</ele>
        <time>2017-12-10T10:44:54.999Z</time>
      </trkpt>
      <trkpt lat="47.51721" lon="6.77588">
        <ele>435.8</ele>
        <time>2017-12-10T10:45:01.999Z</time>
      </trkpt>
      <trkpt lat="47.51723" lon="6.77583">
        <ele>436</ele>
        <time>2017-12-10T10:45:02.999Z</time>
      </trkpt>
      <trkpt lat="47.51723" lon="6.77578">
        <ele>436.2</ele>
        <time>2017-12-10T10:45:04.999Z</time>
      </trkpt>
      <trkpt lat="47.51722" lon="6.77575">
        <ele>436.4</ele>
        <time>2017-12-10T10:45:05.999Z</time>
      </trkpt>
      <trkpt lat="47.51721" lon="6.77571">
        <ele>436.6</ele>
        <time>2017-12-10T10:45:06.999Z</time>
      </trkpt>
      <trkpt lat="47.5172" lon="6.77567">
        <ele>436.8</ele>
        <time>2017-12-10T10:45:07.999Z</time>
      </trkpt>
      <trkpt lat="47.51719" lon="6.77564">
        <ele>437</ele>
        <time>2017-12-10T10:45:08.999Z</time>
      </trkpt>
      <trkpt lat="47.51719" lon="6.7756">
        <ele>437.2</ele>
        <time>2017-12-10T10:45:09.999Z</time>
      </trkpt>
      <trkpt lat="47.51719" lon="6.77556">
        <ele>437.4</ele>
        <time>2017-12-10T10:45:10.999Z</time>
      </trkpt>
      <trkpt lat="47.5172" lon="6.77552">
        <ele>437.5</ele>
        <time>2017-12-10T10:45:11.999Z</time>
      </trkpt>
      <trkpt lat="47.5172" lon="6.77548">
        <ele>437.7</ele>
        <time>2017-12-10T10:45:12.999Z</time>
      </trkpt>
      <trkpt lat="47.5172" lon="6.77544">
        <ele>437.8</ele>
        <time>2017-12-10T10:45:13.999Z</time>
      </trkpt>
      <trkpt lat="47.51721" lon="6.77539">
        <ele>438</ele>
        <time>2017-12-10T10:45:14.999Z</time>
      </trkpt>
      <trkpt lat="47.51722" lon="6.77534">
        <ele>438.1</ele>
        <time>2017-12-10T10:45:15.999Z</time>
      </trkpt>
      <trkpt lat="47.51723" lon="6.77529">
        <ele>440.2</ele>
        <time>2017-12-10T10:45:16.999Z</time>
      </trkpt>
      <trkpt lat="47.51725" lon="6.77524">
        <ele>440.3</ele>
        <time>2017-12-10T10:45:17.999Z</time>
      </trkpt>
      <trkpt lat="47.51726" lon="6.77519">
        <ele>440.4</ele>
        <time>2017-12-10T10:45:18.999Z</time>
      </trkpt>
      <trkpt lat="47.51728" lon="6.77513">
        <ele>440.6</ele>
        <time>2017-12-10T10:45:19.999Z</time>
      </trkpt>
      <trkpt lat="47.51729" lon="6.77507">
        <ele>441.8</ele>
        <time>2017-12-10T10:45:20.999Z</time>
      </trkpt>
      <trkpt lat="47.5173" lon="6.77501">
        <ele>443.1</ele>
        <time>2017-12-10T10:45:21.999Z</time>
      </trkpt>
      <trkpt lat="47.51731" lon="6.77496">
        <ele>443.1</ele>
        <time>2017-12-10T10:45:22.999Z</time>
      </trkpt>
      <trkpt lat="47.51732" lon="6.77491">
        <ele>443.2</ele>
        <time>2017-12-10T10:45:23.999Z</time>
      </trkpt>
      <trkpt lat="47.51734" lon="6.77486">
        <ele>443.2</ele>
        <time>2017-12-10T10:45:24.999Z</time>
      </trkpt>
      <trkpt lat="47.51736" lon="6.77482">
        <ele>443.2</ele>
        <time>2017-12-10T10:45:25.999Z</time>
      </trkpt>
      <trkpt lat="47.51739" lon="6.7748">
        <ele>443.3</ele>
        <time>2017-12-10T10:45:26.999Z</time>
      </trkpt>
      <trkpt lat="47.51741" lon="6.77479">
        <ele>443.4</ele>
        <time>2017-12-10T10:45:27.999Z</time>
      </trkpt>
      <trkpt lat="47.51744" lon="6.77479">
        <ele>443.4</ele>
        <time>2017-12-10T10:45:28.999Z</time>
      </trkpt>
      <trkpt lat="47.51748" lon="6.77478">
        <ele>443.4</ele>
        <time>2017-12-10T10:45:29.999Z</time>
      </trkpt>
      <trkpt lat="47.5175" lon="6.77478">
        <ele>443.4</ele>
        <time>2017-12-10T10:45:30.999Z</time>
      </trkpt>
      <trkpt lat="47.51753" lon="6.77479">
        <ele>443.4</ele>
        <time>2017-12-10T10:45:31.999Z</time>
      </trkpt>
      <trkpt lat="47.51756" lon="6.7748">
        <ele>443.4</ele>
        <time>2017-12-10T10:45:32.999Z</time>
      </trkpt>
      <trkpt lat="47.51759" lon="6.7748">
        <ele>443.5</ele>
        <time>2017-12-10T10:45:33.999Z</time>
      </trkpt>
      <trkpt lat="47.51762" lon="6.7748">
        <ele>443.5</ele>
        <time>2017-12-10T10:45:34.999Z</time>
      </trkpt>
      <trkpt lat="47.51764" lon="6.77481">
        <ele>443.5</ele>
        <time>2017-12-10T10:45:35.999Z</time>
      </trkpt>
      <trkpt lat="47.51767" lon="6.77482">
        <ele>443.6</ele>
        <time>2017-12-10T10:45:36.999Z</time>
      </trkpt>
      <trkpt lat="47.5177" lon="6.77483">
        <ele>443.6</ele>
        <time>2017-12-10T10:45:37.999Z</time>
      </trkpt>
      <trkpt lat="47.51774" lon="6.77484">
        <ele>443.6</ele>
        <time>2017-12-10T10:45:38.999Z</time>
      </trkpt>
      <trkpt lat="47.51777" lon="6.77486">
        <ele>443.6</ele>
        <time>2017-12-10T10:45:39.999Z</time>
      </trkpt>
      <trkpt lat="47.5178" lon="6.77488">
        <ele>443.5</ele>
        <time>2017-12-10T10:45:40.999Z</time>
      </trkpt>
      <trkpt lat="47.51782" lon="6.7749">
        <ele>443.4</ele>
        <time>2017-12-10T10:45:41.999Z</time>
      </trkpt>
      <trkpt lat="47.51785" lon="6.77491">
        <ele>443.2</ele>
        <time>2017-12-10T10:45:42.999Z</time>
      </trkpt>
      <trkpt lat="47.51789" lon="6.77492">
        <ele>443</ele>
        <time>2017-12-10T10:45:43.999Z</time>
      </trkpt>
      <trkpt lat="47.51792" lon="6.77493">
        <ele>442.8</ele>
        <time>2017-12-10T10:45:44.999Z</time>
      </trkpt>
      <trkpt lat="47.51795" lon="6.77494">
        <ele>442.6</ele>
        <time>2017-12-10T10:45:45.999Z</time>
      </trkpt>
      <trkpt lat="47.51798" lon="6.77494">
        <ele>442.5</ele>
        <time>2017-12-10T10:45:46.999Z</time>
      </trkpt>
      <trkpt lat="47.51801" lon="6.77494">
        <ele>442.4</ele>
        <time>2017-12-10T10:45:47.999Z</time>
      </trkpt>
      <trkpt lat="47.51806" lon="6.7749">
        <ele>442.2</ele>
        <time>2017-12-10T10:45:48.999Z</time>
      </trkpt>
      <trkpt lat="47.51807" lon="6.77488">
        <ele>442.1</ele>
        <time>2017-12-10T10:45:49.999Z</time>
      </trkpt>
      <trkpt lat="47.51809" lon="6.77486">
        <ele>442.1</ele>
        <time>2017-12-10T10:45:50.999Z</time>
      </trkpt>
      <trkpt lat="47.5181" lon="6.77481">
        <ele>441.8</ele>
        <time>2017-12-10T10:45:52.999Z</time>
      </trkpt>
      <trkpt lat="47.51809" lon="6.77479">
        <ele>441.6</ele>
        <time>2017-12-10T10:45:53.999Z</time>
      </trkpt>
      <trkpt lat="47.51805" lon="6.77478">
        <ele>440.1</ele>
        <time>2017-12-10T10:46:46.999Z</time>
      </trkpt>
      <trkpt lat="47.51805" lon="6.77479">
        <ele>439.9</ele>
        <time>2017-12-10T10:46:47.999Z</time>
      </trkpt>
      <trkpt lat="47.518" lon="6.77482">
        <ele>436.8</ele>
        <time>2017-12-10T10:47:02.999Z</time>
      </trkpt>
      <trkpt lat="47.518" lon="6.77482">
        <ele>436.3</ele>
        <time>2017-12-10T10:47:03.999Z</time>
      </trkpt>
      <trkpt lat="47.51801" lon="6.77479">
        <ele>435</ele>
        <time>2017-12-10T10:48:10.999Z</time>
      </trkpt>
      <trkpt lat="47.51802" lon="6.77476">
        <ele>435</ele>
        <time>2017-12-10T10:48:11.999Z</time>
      </trkpt>
      <trkpt lat="47.51804" lon="6.77481">
        <ele>435.5</ele>
        <time>2017-12-10T10:48:28.999Z</time>
      </trkpt>
      <trkpt lat="47.51803" lon="6.77483">
        <ele>435.5</ele>
        <time>2017-12-10T10:48:29.999Z</time>
      </trkpt>
      <trkpt lat="47.51807" lon="6.77483">
        <ele>435.4</ele>
        <time>2017-12-10T10:48:34.999Z</time>
      </trkpt>
      <trkpt lat="47.51808" lon="6.77484">
        <ele>435.5</ele>
        <time>2017-12-10T10:48:35.999Z</time>
      </trkpt>
      <trkpt lat="47.51804" lon="6.77481">
        <ele>438.5</ele>
        <time>2017-12-10T10:49:30.999Z</time>
      </trkpt>
      <trkpt lat="47.51803" lon="6.7748">
        <ele>438.7</ele>
        <time>2017-12-10T10:49:31.999Z</time>
      </trkpt>
      <trkpt lat="47.518" lon="6.77477">
        <ele>438.9</ele>
        <time>2017-12-10T10:49:33.999Z</time>
      </trkpt>
    </trkseg>
  </trk>
</gpx>